<?xml version="1.0" encoding="UTF-8" standalone="no" ?>
<gpx xmlns="http://www.topografix.com/GPX/1/1" xmlns:gpxtpx="http://www.garmin.com/xmlschemas/TrackPointExtension/v1" creator="OruxMaps v.6.0.7 Donate" version="1.1" xmlns:xsi="http://www.w3.org/2001/XMLSchema-instance" xsi:schemaLocation="http://www.topografix.com/GPX/1/1 http://www.topografix.com/GPX/1/1/gpx.xsd">
<metadata>
<name><![CDATA[2015-05-01 11:02]]></name>
<desc><![CDATA[]]></desc>
<link href="http://www.oruxmaps.com">
<text>OruxMaps</text>
</link>
<time>2015-05-01T08:02:52Z</time><bounds maxlat="35.0198719" maxlon="33.6390517" minlat="34.8011499" minlon="33.3888681"/>
</metadata>
<trk>
<name><![CDATA[2015-05-01 11:02]]></name>
<desc><![CDATA[<h1>OruxMaps</h1><br /><hr align="center" width="480" style="height: 2px; width: 517px"/><h2>Name: 2015-05-01 11:02</h2><br /><p>Start time: 05/01/2015 11:02</p><p>Finish time: 05/01/2015 19:19</p><p>Distance: 104km (08:16)</p><p>Moving time: 06:39</p><p>Average speed: 12.6km/h</p><p>Avg. Speed Mov.: 15.6km/h</p><p>Max. Speed: 54.9km/h</p><p>Minimum altitude: 0m</p><p>Maximum altitude: 382m</p><p>Ascent speed: 467m/h</p><p>Descent speed: -491.4m/h</p><p>Elevation gain: 1427m</p><p>Elevation loss: -1462m</p><p>Ascent time: 03:03</p><p>Descent time: 02:58</p><hr align="center" width="480" style="height: 2px; width: 517px"/>]]></desc>
<type>Undefined</type>
<extensions>
<om:oruxmapsextensions xmlns:om="http://www.oruxmaps.com/oruxmapsextensions/1/0">
<om:ext type="TYPE" subtype="0">0</om:ext>
</om:oruxmapsextensions>
</extensions>
<trkseg>
<trkpt lat="34.9166450" lon="33.6365753">
<ele>40.02</ele>
<time>2015-05-01T08:02:53Z</time>
</trkpt>
<trkpt lat="34.9165958" lon="33.6365606">
<ele>33.52</ele>
<time>2015-05-01T08:02:56Z</time>
</trkpt>
<trkpt lat="34.9165877" lon="33.6364599">
<ele>23.27</ele>
<time>2015-05-01T08:02:57Z</time>
</trkpt>
<trkpt lat="34.9166064" lon="33.6365253">
<ele>19.14</ele>
<time>2015-05-01T08:02:58Z</time>
</trkpt>
<trkpt lat="34.9165600" lon="33.6365582">
<ele>19.59</ele>
<time>2015-05-01T08:03:03Z</time>
</trkpt>
<trkpt lat="34.9165594" lon="33.6366217">
<ele>21.41</ele>
<time>2015-05-01T08:03:05Z</time>
</trkpt>
<trkpt lat="34.9165746" lon="33.6366964">
<ele>19.61</ele>
<time>2015-05-01T08:03:07Z</time>
</trkpt>
<trkpt lat="34.9165804" lon="33.6367602">
<ele>19.32</ele>
<time>2015-05-01T08:03:08Z</time>
</trkpt>
<trkpt lat="34.9165806" lon="33.6368701">
<ele>17.84</ele>
<time>2015-05-01T08:03:10Z</time>
</trkpt>
<trkpt lat="34.9165768" lon="33.6369822">
<ele>15.97</ele>
<time>2015-05-01T08:03:12Z</time>
</trkpt>
<trkpt lat="34.9165715" lon="33.6371070">
<ele>14.51</ele>
<time>2015-05-01T08:03:14Z</time>
</trkpt>
<trkpt lat="34.9165699" lon="33.6371630">
<ele>14.26</ele>
<time>2015-05-01T08:03:15Z</time>
</trkpt>
<trkpt lat="34.9165634" lon="33.6372225">
<ele>14.14</ele>
<time>2015-05-01T08:03:16Z</time>
</trkpt>
<trkpt lat="34.9165374" lon="33.6373195">
<ele>14.05</ele>
<time>2015-05-01T08:03:18Z</time>
</trkpt>
<trkpt lat="34.9164860" lon="33.6373497">
<ele>13.27</ele>
<time>2015-05-01T08:03:20Z</time>
</trkpt>
<trkpt lat="34.9164727" lon="33.6374332">
<ele>13.05</ele>
<time>2015-05-01T08:03:23Z</time>
</trkpt>
<trkpt lat="34.9164697" lon="33.6375109">
<ele>12.27</ele>
<time>2015-05-01T08:03:25Z</time>
</trkpt>
<trkpt lat="34.9164689" lon="33.6376050">
<ele>11.33</ele>
<time>2015-05-01T08:03:27Z</time>
</trkpt>
<trkpt lat="34.9164644" lon="33.6376993">
<ele>11.09</ele>
<time>2015-05-01T08:03:29Z</time>
</trkpt>
<trkpt lat="34.9164593" lon="33.6377846">
<ele>9.79</ele>
<time>2015-05-01T08:03:31Z</time>
</trkpt>
<trkpt lat="34.9164755" lon="33.6378510">
<ele>9.96</ele>
<time>2015-05-01T08:03:33Z</time>
</trkpt>
<trkpt lat="34.9165024" lon="33.6379178">
<ele>10.00</ele>
<time>2015-05-01T08:03:35Z</time>
</trkpt>
<trkpt lat="34.9165152" lon="33.6379886">
<ele>10.76</ele>
<time>2015-05-01T08:03:37Z</time>
</trkpt>
<trkpt lat="34.9164901" lon="33.6380434">
<ele>10.98</ele>
<time>2015-05-01T08:03:40Z</time>
</trkpt>
<trkpt lat="34.9164302" lon="33.6380372">
<ele>11.01</ele>
<time>2015-05-01T08:03:44Z</time>
</trkpt>
<trkpt lat="34.9163736" lon="33.6380336">
<ele>11.89</ele>
<time>2015-05-01T08:03:47Z</time>
</trkpt>
<trkpt lat="34.9163279" lon="33.6380228">
<ele>12.48</ele>
<time>2015-05-01T08:03:49Z</time>
</trkpt>
<trkpt lat="34.9162654" lon="33.6380167">
<ele>12.95</ele>
<time>2015-05-01T08:03:52Z</time>
</trkpt>
<trkpt lat="34.9162106" lon="33.6380204">
<ele>13.13</ele>
<time>2015-05-01T08:03:55Z</time>
</trkpt>
<trkpt lat="34.9161611" lon="33.6380157">
<ele>13.41</ele>
<time>2015-05-01T08:03:58Z</time>
</trkpt>
<trkpt lat="34.9161151" lon="33.6380067">
<ele>13.06</ele>
<time>2015-05-01T08:04:01Z</time>
</trkpt>
<trkpt lat="34.9160532" lon="33.6380058">
<ele>14.27</ele>
<time>2015-05-01T08:04:04Z</time>
</trkpt>
<trkpt lat="34.9159947" lon="33.6379925">
<ele>14.30</ele>
<time>2015-05-01T08:04:07Z</time>
</trkpt>
<trkpt lat="34.9159476" lon="33.6379861">
<ele>14.09</ele>
<time>2015-05-01T08:04:09Z</time>
</trkpt>
<trkpt lat="34.9158919" lon="33.6379879">
<ele>14.03</ele>
<time>2015-05-01T08:04:11Z</time>
</trkpt>
<trkpt lat="34.9158345" lon="33.6379935">
<ele>14.52</ele>
<time>2015-05-01T08:04:13Z</time>
</trkpt>
<trkpt lat="34.9157603" lon="33.6379822">
<ele>14.89</ele>
<time>2015-05-01T08:04:15Z</time>
</trkpt>
<trkpt lat="34.9156795" lon="33.6379855">
<ele>15.49</ele>
<time>2015-05-01T08:04:17Z</time>
</trkpt>
<trkpt lat="34.9156204" lon="33.6379949">
<ele>15.38</ele>
<time>2015-05-01T08:04:19Z</time>
</trkpt>
<trkpt lat="34.9155662" lon="33.6379925">
<ele>15.61</ele>
<time>2015-05-01T08:04:21Z</time>
</trkpt>
<trkpt lat="34.9155011" lon="33.6379816">
<ele>15.16</ele>
<time>2015-05-01T08:04:23Z</time>
</trkpt>
<trkpt lat="34.9154364" lon="33.6379735">
<ele>14.80</ele>
<time>2015-05-01T08:04:25Z</time>
</trkpt>
<trkpt lat="34.9153855" lon="33.6379657">
<ele>14.46</ele>
<time>2015-05-01T08:04:27Z</time>
</trkpt>
<trkpt lat="34.9153161" lon="33.6379605">
<ele>14.95</ele>
<time>2015-05-01T08:04:30Z</time>
</trkpt>
<trkpt lat="34.9152581" lon="33.6379518">
<ele>13.50</ele>
<time>2015-05-01T08:04:32Z</time>
</trkpt>
<trkpt lat="34.9152003" lon="33.6379413">
<ele>13.64</ele>
<time>2015-05-01T08:04:34Z</time>
</trkpt>
<trkpt lat="34.9151472" lon="33.6379438">
<ele>14.42</ele>
<time>2015-05-01T08:04:36Z</time>
</trkpt>
<trkpt lat="34.9150996" lon="33.6379436">
<ele>14.12</ele>
<time>2015-05-01T08:04:38Z</time>
</trkpt>
<trkpt lat="34.9150544" lon="33.6379422">
<ele>14.79</ele>
<time>2015-05-01T08:04:40Z</time>
</trkpt>
<trkpt lat="34.9150064" lon="33.6379506">
<ele>15.76</ele>
<time>2015-05-01T08:04:45Z</time>
</trkpt>
<trkpt lat="34.9149579" lon="33.6379447">
<ele>14.57</ele>
<time>2015-05-01T08:04:51Z</time>
</trkpt>
<trkpt lat="34.9149580" lon="33.6378872">
<ele>10.57</ele>
<time>2015-05-01T08:04:59Z</time>
</trkpt>
<trkpt lat="34.9149406" lon="33.6378130">
<ele>10.18</ele>
<time>2015-05-01T08:05:03Z</time>
</trkpt>
<trkpt lat="34.9149421" lon="33.6377256">
<ele>9.81</ele>
<time>2015-05-01T08:05:05Z</time>
</trkpt>
<trkpt lat="34.9149485" lon="33.6376314">
<ele>9.21</ele>
<time>2015-05-01T08:05:07Z</time>
</trkpt>
<trkpt lat="34.9149490" lon="33.6375276">
<ele>9.07</ele>
<time>2015-05-01T08:05:09Z</time>
</trkpt>
<trkpt lat="34.9149536" lon="33.6374245">
<ele>9.53</ele>
<time>2015-05-01T08:05:11Z</time>
</trkpt>
<trkpt lat="34.9149589" lon="33.6373287">
<ele>9.89</ele>
<time>2015-05-01T08:05:13Z</time>
</trkpt>
<trkpt lat="34.9149615" lon="33.6372332">
<ele>9.99</ele>
<time>2015-05-01T08:05:15Z</time>
</trkpt>
<trkpt lat="34.9149590" lon="33.6371386">
<ele>10.51</ele>
<time>2015-05-01T08:05:17Z</time>
</trkpt>
<trkpt lat="34.9149489" lon="33.6370541">
<ele>13.64</ele>
<time>2015-05-01T08:05:19Z</time>
</trkpt>
<trkpt lat="34.9149445" lon="33.6369807">
<ele>16.17</ele>
<time>2015-05-01T08:05:21Z</time>
</trkpt>
<trkpt lat="34.9149465" lon="33.6369026">
<ele>18.55</ele>
<time>2015-05-01T08:05:23Z</time>
</trkpt>
<trkpt lat="34.9149495" lon="33.6368238">
<ele>21.90</ele>
<time>2015-05-01T08:05:25Z</time>
</trkpt>
<trkpt lat="34.9149463" lon="33.6367430">
<ele>23.99</ele>
<time>2015-05-01T08:05:27Z</time>
</trkpt>
<trkpt lat="34.9149498" lon="33.6366623">
<ele>24.01</ele>
<time>2015-05-01T08:05:29Z</time>
</trkpt>
<trkpt lat="34.9149594" lon="33.6365828">
<ele>24.01</ele>
<time>2015-05-01T08:05:31Z</time>
</trkpt>
<trkpt lat="34.9149646" lon="33.6365115">
<ele>24.77</ele>
<time>2015-05-01T08:05:33Z</time>
</trkpt>
<trkpt lat="34.9149203" lon="33.6364965">
<ele>27.35</ele>
<time>2015-05-01T08:05:41Z</time>
</trkpt>
<trkpt lat="34.9148830" lon="33.6364652">
<ele>21.93</ele>
<time>2015-05-01T08:05:46Z</time>
</trkpt>
<trkpt lat="34.9148337" lon="33.6364656">
<ele>22.38</ele>
<time>2015-05-01T08:05:49Z</time>
</trkpt>
<trkpt lat="34.9147811" lon="33.6364612">
<ele>22.86</ele>
<time>2015-05-01T08:05:51Z</time>
</trkpt>
<trkpt lat="34.9147250" lon="33.6364579">
<ele>22.48</ele>
<time>2015-05-01T08:05:53Z</time>
</trkpt>
<trkpt lat="34.9146703" lon="33.6364486">
<ele>22.13</ele>
<time>2015-05-01T08:05:55Z</time>
</trkpt>
<trkpt lat="34.9146147" lon="33.6364405">
<ele>21.29</ele>
<time>2015-05-01T08:05:57Z</time>
</trkpt>
<trkpt lat="34.9145566" lon="33.6364420">
<ele>20.34</ele>
<time>2015-05-01T08:05:59Z</time>
</trkpt>
<trkpt lat="34.9144928" lon="33.6364519">
<ele>20.10</ele>
<time>2015-05-01T08:06:01Z</time>
</trkpt>
<trkpt lat="34.9144352" lon="33.6364397">
<ele>18.29</ele>
<time>2015-05-01T08:06:03Z</time>
</trkpt>
<trkpt lat="34.9143824" lon="33.6364099">
<ele>17.33</ele>
<time>2015-05-01T08:06:05Z</time>
</trkpt>
<trkpt lat="34.9143312" lon="33.6363864">
<ele>16.85</ele>
<time>2015-05-01T08:06:07Z</time>
</trkpt>
<trkpt lat="34.9142741" lon="33.6363691">
<ele>16.97</ele>
<time>2015-05-01T08:06:09Z</time>
</trkpt>
<trkpt lat="34.9142186" lon="33.6363500">
<ele>16.26</ele>
<time>2015-05-01T08:06:11Z</time>
</trkpt>
<trkpt lat="34.9141687" lon="33.6363484">
<ele>18.08</ele>
<time>2015-05-01T08:06:17Z</time>
</trkpt>
<trkpt lat="34.9141141" lon="33.6363517">
<ele>17.77</ele>
<time>2015-05-01T08:06:20Z</time>
</trkpt>
<trkpt lat="34.9140637" lon="33.6363584">
<ele>20.49</ele>
<time>2015-05-01T08:06:23Z</time>
</trkpt>
<trkpt lat="34.9140084" lon="33.6363703">
<ele>21.08</ele>
<time>2015-05-01T08:06:35Z</time>
</trkpt>
<trkpt lat="34.9139594" lon="33.6363626">
<ele>18.28</ele>
<time>2015-05-01T08:06:41Z</time>
</trkpt>
<trkpt lat="34.9139118" lon="33.6363560">
<ele>18.05</ele>
<time>2015-05-01T08:06:44Z</time>
</trkpt>
<trkpt lat="34.9138573" lon="33.6363537">
<ele>20.65</ele>
<time>2015-05-01T08:06:47Z</time>
</trkpt>
<trkpt lat="34.9137972" lon="33.6363582">
<ele>21.59</ele>
<time>2015-05-01T08:06:50Z</time>
</trkpt>
<trkpt lat="34.9137392" lon="33.6363836">
<ele>20.71</ele>
<time>2015-05-01T08:06:53Z</time>
</trkpt>
<trkpt lat="34.9137093" lon="33.6364421">
<ele>18.94</ele>
<time>2015-05-01T08:06:55Z</time>
</trkpt>
<trkpt lat="34.9136922" lon="33.6365082">
<ele>19.00</ele>
<time>2015-05-01T08:06:57Z</time>
</trkpt>
<trkpt lat="34.9136988" lon="33.6365659">
<ele>19.01</ele>
<time>2015-05-01T08:07:00Z</time>
</trkpt>
<trkpt lat="34.9137082" lon="33.6365003">
<ele>18.70</ele>
<time>2015-05-01T08:07:22Z</time>
</trkpt>
<trkpt lat="34.9136508" lon="33.6364680">
<ele>18.94</ele>
<time>2015-05-01T08:07:24Z</time>
</trkpt>
<trkpt lat="34.9135979" lon="33.6364531">
<ele>18.25</ele>
<time>2015-05-01T08:07:26Z</time>
</trkpt>
<trkpt lat="34.9135545" lon="33.6364331">
<ele>16.82</ele>
<time>2015-05-01T08:07:28Z</time>
</trkpt>
<trkpt lat="34.9135106" lon="33.6364118">
<ele>15.38</ele>
<time>2015-05-01T08:07:32Z</time>
</trkpt>
<trkpt lat="34.9134630" lon="33.6364032">
<ele>15.11</ele>
<time>2015-05-01T08:07:34Z</time>
</trkpt>
<trkpt lat="34.9134062" lon="33.6364017">
<ele>16.29</ele>
<time>2015-05-01T08:07:36Z</time>
</trkpt>
<trkpt lat="34.9133437" lon="33.6363829">
<ele>17.58</ele>
<time>2015-05-01T08:07:38Z</time>
</trkpt>
<trkpt lat="34.9132775" lon="33.6363502">
<ele>17.16</ele>
<time>2015-05-01T08:07:40Z</time>
</trkpt>
<trkpt lat="34.9132242" lon="33.6363201">
<ele>17.55</ele>
<time>2015-05-01T08:07:42Z</time>
</trkpt>
<trkpt lat="34.9131826" lon="33.6362927">
<ele>19.72</ele>
<time>2015-05-01T08:07:49Z</time>
</trkpt>
<trkpt lat="34.9131294" lon="33.6363228">
<ele>19.89</ele>
<time>2015-05-01T08:07:59Z</time>
</trkpt>
<trkpt lat="34.9130671" lon="33.6363045">
<ele>18.38</ele>
<time>2015-05-01T08:08:03Z</time>
</trkpt>
<trkpt lat="34.9130007" lon="33.6362894">
<ele>20.61</ele>
<time>2015-05-01T08:08:05Z</time>
</trkpt>
<trkpt lat="34.9129426" lon="33.6362736">
<ele>20.16</ele>
<time>2015-05-01T08:08:07Z</time>
</trkpt>
<trkpt lat="34.9128908" lon="33.6362737">
<ele>21.55</ele>
<time>2015-05-01T08:08:09Z</time>
</trkpt>
<trkpt lat="34.9128386" lon="33.6362758">
<ele>22.65</ele>
<time>2015-05-01T08:08:11Z</time>
</trkpt>
<trkpt lat="34.9127881" lon="33.6362779">
<ele>22.42</ele>
<time>2015-05-01T08:08:13Z</time>
</trkpt>
<trkpt lat="34.9127493" lon="33.6363088">
<ele>24.83</ele>
<time>2015-05-01T08:08:21Z</time>
</trkpt>
<trkpt lat="34.9127360" lon="33.6362526">
<ele>19.62</ele>
<time>2015-05-01T08:08:29Z</time>
</trkpt>
<trkpt lat="34.9127378" lon="33.6361916">
<ele>17.62</ele>
<time>2015-05-01T08:08:35Z</time>
</trkpt>
<trkpt lat="34.9126884" lon="33.6361601">
<ele>8.83</ele>
<time>2015-05-01T08:08:43Z</time>
</trkpt>
<trkpt lat="34.9126495" lon="33.6361153">
<ele>8.19</ele>
<time>2015-05-01T08:08:47Z</time>
</trkpt>
<trkpt lat="34.9126191" lon="33.6360700">
<ele>8.96</ele>
<time>2015-05-01T08:08:51Z</time>
</trkpt>
<trkpt lat="34.9125911" lon="33.6360146">
<ele>10.13</ele>
<time>2015-05-01T08:08:54Z</time>
</trkpt>
<trkpt lat="34.9125403" lon="33.6359618">
<ele>13.16</ele>
<time>2015-05-01T08:08:57Z</time>
</trkpt>
<trkpt lat="34.9124927" lon="33.6359036">
<ele>15.30</ele>
<time>2015-05-01T08:08:59Z</time>
</trkpt>
<trkpt lat="34.9124676" lon="33.6358550">
<ele>16.09</ele>
<time>2015-05-01T08:09:01Z</time>
</trkpt>
<trkpt lat="34.9124203" lon="33.6358498">
<ele>13.17</ele>
<time>2015-05-01T08:09:06Z</time>
</trkpt>
<trkpt lat="34.9123724" lon="33.6358107">
<ele>11.91</ele>
<time>2015-05-01T08:09:09Z</time>
</trkpt>
<trkpt lat="34.9123636" lon="33.6357114">
<ele>10.49</ele>
<time>2015-05-01T08:09:11Z</time>
</trkpt>
<trkpt lat="34.9123506" lon="33.6356178">
<ele>10.38</ele>
<time>2015-05-01T08:09:13Z</time>
</trkpt>
<trkpt lat="34.9123384" lon="33.6355302">
<ele>10.61</ele>
<time>2015-05-01T08:09:15Z</time>
</trkpt>
<trkpt lat="34.9123057" lon="33.6354768">
<ele>10.16</ele>
<time>2015-05-01T08:09:17Z</time>
</trkpt>
<trkpt lat="34.9122310" lon="33.6354721">
<ele>10.05</ele>
<time>2015-05-01T08:09:19Z</time>
</trkpt>
<trkpt lat="34.9121844" lon="33.6354708">
<ele>10.03</ele>
<time>2015-05-01T08:09:20Z</time>
</trkpt>
<trkpt lat="34.9120945" lon="33.6354956">
<ele>10.03</ele>
<time>2015-05-01T08:09:21Z</time>
</trkpt>
<trkpt lat="34.9120429" lon="33.6355049">
<ele>10.02</ele>
<time>2015-05-01T08:09:22Z</time>
</trkpt>
<trkpt lat="34.9119836" lon="33.6354705">
<ele>11.02</ele>
<time>2015-05-01T08:09:23Z</time>
</trkpt>
<trkpt lat="34.9119263" lon="33.6354383">
<ele>12.52</ele>
<time>2015-05-01T08:09:24Z</time>
</trkpt>
<trkpt lat="34.9118790" lon="33.6354376">
<ele>13.27</ele>
<time>2015-05-01T08:09:25Z</time>
</trkpt>
<trkpt lat="34.9118328" lon="33.6354254">
<ele>14.14</ele>
<time>2015-05-01T08:09:26Z</time>
</trkpt>
<trkpt lat="34.9117867" lon="33.6354024">
<ele>14.08</ele>
<time>2015-05-01T08:09:27Z</time>
</trkpt>
<trkpt lat="34.9117164" lon="33.6353650">
<ele>14.03</ele>
<time>2015-05-01T08:09:29Z</time>
</trkpt>
<trkpt lat="34.9116449" lon="33.6353204">
<ele>14.27</ele>
<time>2015-05-01T08:09:31Z</time>
</trkpt>
<trkpt lat="34.9116484" lon="33.6352203">
<ele>13.83</ele>
<time>2015-05-01T08:09:33Z</time>
</trkpt>
<trkpt lat="34.9116709" lon="33.6351499">
<ele>13.42</ele>
<time>2015-05-01T08:09:34Z</time>
</trkpt>
<trkpt lat="34.9117124" lon="33.6350413">
<ele>12.37</ele>
<time>2015-05-01T08:09:36Z</time>
</trkpt>
<trkpt lat="34.9117374" lon="33.6349887">
<ele>12.19</ele>
<time>2015-05-01T08:09:37Z</time>
</trkpt>
<trkpt lat="34.9117634" lon="33.6349338">
<ele>12.10</ele>
<time>2015-05-01T08:09:38Z</time>
</trkpt>
<trkpt lat="34.9117898" lon="33.6348774">
<ele>12.06</ele>
<time>2015-05-01T08:09:39Z</time>
</trkpt>
<trkpt lat="34.9118130" lon="33.6348217">
<ele>12.04</ele>
<time>2015-05-01T08:09:40Z</time>
</trkpt>
<trkpt lat="34.9118376" lon="33.6347744">
<ele>11.53</ele>
<time>2015-05-01T08:09:41Z</time>
</trkpt>
<trkpt lat="34.9118629" lon="33.6347218">
<ele>11.27</ele>
<time>2015-05-01T08:09:42Z</time>
</trkpt>
<trkpt lat="34.9118858" lon="33.6346741">
<ele>11.14</ele>
<time>2015-05-01T08:09:43Z</time>
</trkpt>
<trkpt lat="34.9119176" lon="33.6346300">
<ele>11.08</ele>
<time>2015-05-01T08:09:44Z</time>
</trkpt>
<trkpt lat="34.9119504" lon="33.6345913">
<ele>11.05</ele>
<time>2015-05-01T08:09:45Z</time>
</trkpt>
<trkpt lat="34.9119851" lon="33.6345456">
<ele>11.03</ele>
<time>2015-05-01T08:09:46Z</time>
</trkpt>
<trkpt lat="34.9120174" lon="33.6345017">
<ele>11.02</ele>
<time>2015-05-01T08:09:47Z</time>
</trkpt>
<trkpt lat="34.9120471" lon="33.6344540">
<ele>11.02</ele>
<time>2015-05-01T08:09:48Z</time>
</trkpt>
<trkpt lat="34.9120873" lon="33.6344107">
<ele>11.52</ele>
<time>2015-05-01T08:09:49Z</time>
</trkpt>
<trkpt lat="34.9121145" lon="33.6343584">
<ele>11.27</ele>
<time>2015-05-01T08:09:50Z</time>
</trkpt>
<trkpt lat="34.9121498" lon="33.6343114">
<ele>11.14</ele>
<time>2015-05-01T08:09:51Z</time>
</trkpt>
<trkpt lat="34.9121818" lon="33.6342592">
<ele>10.58</ele>
<time>2015-05-01T08:09:52Z</time>
</trkpt>
<trkpt lat="34.9122134" lon="33.6342027">
<ele>10.80</ele>
<time>2015-05-01T08:09:53Z</time>
</trkpt>
<trkpt lat="34.9122485" lon="33.6341493">
<ele>10.91</ele>
<time>2015-05-01T08:09:54Z</time>
</trkpt>
<trkpt lat="34.9122843" lon="33.6340977">
<ele>10.96</ele>
<time>2015-05-01T08:09:55Z</time>
</trkpt>
<trkpt lat="34.9123146" lon="33.6340409">
<ele>10.49</ele>
<time>2015-05-01T08:09:56Z</time>
</trkpt>
<trkpt lat="34.9123435" lon="33.6339888">
<ele>10.25</ele>
<time>2015-05-01T08:09:57Z</time>
</trkpt>
<trkpt lat="34.9123802" lon="33.6339347">
<ele>9.63</ele>
<time>2015-05-01T08:09:58Z</time>
</trkpt>
<trkpt lat="34.9124126" lon="33.6338771">
<ele>9.33</ele>
<time>2015-05-01T08:09:59Z</time>
</trkpt>
<trkpt lat="34.9124474" lon="33.6338189">
<ele>9.17</ele>
<time>2015-05-01T08:10:00Z</time>
</trkpt>
<trkpt lat="34.9124860" lon="33.6337616">
<ele>9.09</ele>
<time>2015-05-01T08:10:01Z</time>
</trkpt>
<trkpt lat="34.9125272" lon="33.6337096">
<ele>9.05</ele>
<time>2015-05-01T08:10:02Z</time>
</trkpt>
<trkpt lat="34.9125650" lon="33.6336530">
<ele>9.04</ele>
<time>2015-05-01T08:10:03Z</time>
</trkpt>
<trkpt lat="34.9126015" lon="33.6335898">
<ele>9.03</ele>
<time>2015-05-01T08:10:04Z</time>
</trkpt>
<trkpt lat="34.9126351" lon="33.6335268">
<ele>9.02</ele>
<time>2015-05-01T08:10:05Z</time>
</trkpt>
<trkpt lat="34.9126718" lon="33.6334675">
<ele>9.02</ele>
<time>2015-05-01T08:10:06Z</time>
</trkpt>
<trkpt lat="34.9127114" lon="33.6334120">
<ele>8.52</ele>
<time>2015-05-01T08:10:07Z</time>
</trkpt>
<trkpt lat="34.9127404" lon="33.6333354">
<ele>8.77</ele>
<time>2015-05-01T08:10:08Z</time>
</trkpt>
<trkpt lat="34.9127767" lon="33.6332783">
<ele>8.89</ele>
<time>2015-05-01T08:10:09Z</time>
</trkpt>
<trkpt lat="34.9128145" lon="33.6332228">
<ele>8.45</ele>
<time>2015-05-01T08:10:10Z</time>
</trkpt>
<trkpt lat="34.9128525" lon="33.6331613">
<ele>8.73</ele>
<time>2015-05-01T08:10:11Z</time>
</trkpt>
<trkpt lat="34.9128835" lon="33.6330999">
<ele>8.88</ele>
<time>2015-05-01T08:10:12Z</time>
</trkpt>
<trkpt lat="34.9129214" lon="33.6330398">
<ele>8.95</ele>
<time>2015-05-01T08:10:13Z</time>
</trkpt>
<trkpt lat="34.9129582" lon="33.6329816">
<ele>8.98</ele>
<time>2015-05-01T08:10:14Z</time>
</trkpt>
<trkpt lat="34.9129932" lon="33.6329255">
<ele>9.00</ele>
<time>2015-05-01T08:10:15Z</time>
</trkpt>
<trkpt lat="34.9130292" lon="33.6328614">
<ele>9.01</ele>
<time>2015-05-01T08:10:16Z</time>
</trkpt>
<trkpt lat="34.9130608" lon="33.6328047">
<ele>9.01</ele>
<time>2015-05-01T08:10:17Z</time>
</trkpt>
<trkpt lat="34.9130942" lon="33.6327399">
<ele>9.51</ele>
<time>2015-05-01T08:10:18Z</time>
</trkpt>
<trkpt lat="34.9131188" lon="33.6326834">
<ele>10.26</ele>
<time>2015-05-01T08:10:19Z</time>
</trkpt>
<trkpt lat="34.9131518" lon="33.6326275">
<ele>10.14</ele>
<time>2015-05-01T08:10:20Z</time>
</trkpt>
<trkpt lat="34.9131826" lon="33.6325737">
<ele>10.58</ele>
<time>2015-05-01T08:10:21Z</time>
</trkpt>
<trkpt lat="34.9132026" lon="33.6325126">
<ele>11.80</ele>
<time>2015-05-01T08:10:22Z</time>
</trkpt>
<trkpt lat="34.9132223" lon="33.6324471">
<ele>13.41</ele>
<time>2015-05-01T08:10:23Z</time>
</trkpt>
<trkpt lat="34.9132508" lon="33.6323872">
<ele>13.21</ele>
<time>2015-05-01T08:10:24Z</time>
</trkpt>
<trkpt lat="34.9132758" lon="33.6323203">
<ele>13.11</ele>
<time>2015-05-01T08:10:25Z</time>
</trkpt>
<trkpt lat="34.9133060" lon="33.6322523">
<ele>13.06</ele>
<time>2015-05-01T08:10:26Z</time>
</trkpt>
<trkpt lat="34.9133271" lon="33.6321818">
<ele>12.54</ele>
<time>2015-05-01T08:10:27Z</time>
</trkpt>
<trkpt lat="34.9133538" lon="33.6321236">
<ele>12.28</ele>
<time>2015-05-01T08:10:28Z</time>
</trkpt>
<trkpt lat="34.9133727" lon="33.6320659">
<ele>12.15</ele>
<time>2015-05-01T08:10:29Z</time>
</trkpt>
<trkpt lat="34.9134042" lon="33.6320041">
<ele>12.58</ele>
<time>2015-05-01T08:10:30Z</time>
</trkpt>
<trkpt lat="34.9134315" lon="33.6319387">
<ele>12.80</ele>
<time>2015-05-01T08:10:31Z</time>
</trkpt>
<trkpt lat="34.9134533" lon="33.6318728">
<ele>12.41</ele>
<time>2015-05-01T08:10:32Z</time>
</trkpt>
<trkpt lat="34.9134842" lon="33.6318219">
<ele>13.21</ele>
<time>2015-05-01T08:10:33Z</time>
</trkpt>
<trkpt lat="34.9135066" lon="33.6317526">
<ele>13.56</ele>
<time>2015-05-01T08:10:35Z</time>
</trkpt>
<trkpt lat="34.9135076" lon="33.6316892">
<ele>15.78</ele>
<time>2015-05-01T08:10:40Z</time>
</trkpt>
<trkpt lat="34.9135342" lon="33.6316314">
<ele>13.96</ele>
<time>2015-05-01T08:10:42Z</time>
</trkpt>
<trkpt lat="34.9135682" lon="33.6315420">
<ele>13.00</ele>
<time>2015-05-01T08:10:44Z</time>
</trkpt>
<trkpt lat="34.9135775" lon="33.6314781">
<ele>13.01</ele>
<time>2015-05-01T08:10:45Z</time>
</trkpt>
<trkpt lat="34.9135957" lon="33.6314201">
<ele>12.01</ele>
<time>2015-05-01T08:10:46Z</time>
</trkpt>
<trkpt lat="34.9136188" lon="33.6313651">
<ele>11.01</ele>
<time>2015-05-01T08:10:47Z</time>
</trkpt>
<trkpt lat="34.9136468" lon="33.6313020">
<ele>11.02</ele>
<time>2015-05-01T08:10:48Z</time>
</trkpt>
<trkpt lat="34.9136834" lon="33.6312018">
<ele>10.77</ele>
<time>2015-05-01T08:10:50Z</time>
</trkpt>
<trkpt lat="34.9137166" lon="33.6311009">
<ele>10.95</ele>
<time>2015-05-01T08:10:52Z</time>
</trkpt>
<trkpt lat="34.9137584" lon="33.6310011">
<ele>11.00</ele>
<time>2015-05-01T08:10:54Z</time>
</trkpt>
<trkpt lat="34.9137778" lon="33.6309448">
<ele>11.01</ele>
<time>2015-05-01T08:10:55Z</time>
</trkpt>
<trkpt lat="34.9138004" lon="33.6308848">
<ele>11.51</ele>
<time>2015-05-01T08:10:56Z</time>
</trkpt>
<trkpt lat="34.9138125" lon="33.6308304">
<ele>11.76</ele>
<time>2015-05-01T08:10:57Z</time>
</trkpt>
<trkpt lat="34.9138333" lon="33.6307759">
<ele>12.39</ele>
<time>2015-05-01T08:10:58Z</time>
</trkpt>
<trkpt lat="34.9138543" lon="33.6307218">
<ele>12.20</ele>
<time>2015-05-01T08:10:59Z</time>
</trkpt>
<trkpt lat="34.9138729" lon="33.6306690">
<ele>12.11</ele>
<time>2015-05-01T08:11:00Z</time>
</trkpt>
<trkpt lat="34.9138869" lon="33.6306161">
<ele>12.56</ele>
<time>2015-05-01T08:11:01Z</time>
</trkpt>
<trkpt lat="34.9139210" lon="33.6305132">
<ele>12.90</ele>
<time>2015-05-01T08:11:03Z</time>
</trkpt>
<trkpt lat="34.9139377" lon="33.6304607">
<ele>12.96</ele>
<time>2015-05-01T08:11:04Z</time>
</trkpt>
<trkpt lat="34.9139566" lon="33.6303774">
<ele>13.00</ele>
<time>2015-05-01T08:11:06Z</time>
</trkpt>
<trkpt lat="34.9139436" lon="33.6303124">
<ele>13.51</ele>
<time>2015-05-01T08:11:08Z</time>
</trkpt>
<trkpt lat="34.9139409" lon="33.6302532">
<ele>14.83</ele>
<time>2015-05-01T08:11:11Z</time>
</trkpt>
<trkpt lat="34.9138846" lon="33.6302121">
<ele>14.99</ele>
<time>2015-05-01T08:11:14Z</time>
</trkpt>
<trkpt lat="34.9138187" lon="33.6302008">
<ele>15.01</ele>
<time>2015-05-01T08:11:16Z</time>
</trkpt>
<trkpt lat="34.9137285" lon="33.6301903">
<ele>15.01</ele>
<time>2015-05-01T08:11:18Z</time>
</trkpt>
<trkpt lat="34.9136760" lon="33.6301926">
<ele>15.02</ele>
<time>2015-05-01T08:11:19Z</time>
</trkpt>
<trkpt lat="34.9136281" lon="33.6301867">
<ele>15.52</ele>
<time>2015-05-01T08:11:20Z</time>
</trkpt>
<trkpt lat="34.9135797" lon="33.6301818">
<ele>15.77</ele>
<time>2015-05-01T08:11:21Z</time>
</trkpt>
<trkpt lat="34.9135308" lon="33.6301786">
<ele>15.89</ele>
<time>2015-05-01T08:11:22Z</time>
</trkpt>
<trkpt lat="34.9134848" lon="33.6301664">
<ele>15.95</ele>
<time>2015-05-01T08:11:23Z</time>
</trkpt>
<trkpt lat="34.9134376" lon="33.6301544">
<ele>16.48</ele>
<time>2015-05-01T08:11:24Z</time>
</trkpt>
<trkpt lat="34.9133851" lon="33.6301454">
<ele>17.25</ele>
<time>2015-05-01T08:11:25Z</time>
</trkpt>
<trkpt lat="34.9133296" lon="33.6301373">
<ele>17.63</ele>
<time>2015-05-01T08:11:26Z</time>
</trkpt>
<trkpt lat="34.9132730" lon="33.6301301">
<ele>17.82</ele>
<time>2015-05-01T08:11:27Z</time>
</trkpt>
<trkpt lat="34.9132122" lon="33.6301199">
<ele>17.92</ele>
<time>2015-05-01T08:11:28Z</time>
</trkpt>
<trkpt lat="34.9131554" lon="33.6301159">
<ele>17.97</ele>
<time>2015-05-01T08:11:29Z</time>
</trkpt>
<trkpt lat="34.9130966" lon="33.6301129">
<ele>17.99</ele>
<time>2015-05-01T08:11:30Z</time>
</trkpt>
<trkpt lat="34.9130332" lon="33.6301124">
<ele>18.00</ele>
<time>2015-05-01T08:11:31Z</time>
</trkpt>
<trkpt lat="34.9129712" lon="33.6301072">
<ele>18.01</ele>
<time>2015-05-01T08:11:32Z</time>
</trkpt>
<trkpt lat="34.9129094" lon="33.6300964">
<ele>18.01</ele>
<time>2015-05-01T08:11:33Z</time>
</trkpt>
<trkpt lat="34.9128488" lon="33.6300855">
<ele>18.01</ele>
<time>2015-05-01T08:11:34Z</time>
</trkpt>
<trkpt lat="34.9127870" lon="33.6300768">
<ele>18.02</ele>
<time>2015-05-01T08:11:35Z</time>
</trkpt>
<trkpt lat="34.9127180" lon="33.6300672">
<ele>17.52</ele>
<time>2015-05-01T08:11:36Z</time>
</trkpt>
<trkpt lat="34.9126594" lon="33.6300570">
<ele>17.77</ele>
<time>2015-05-01T08:11:37Z</time>
</trkpt>
<trkpt lat="34.9125985" lon="33.6300493">
<ele>17.89</ele>
<time>2015-05-01T08:11:38Z</time>
</trkpt>
<trkpt lat="34.9125376" lon="33.6300424">
<ele>17.45</ele>
<time>2015-05-01T08:11:39Z</time>
</trkpt>
<trkpt lat="34.9124751" lon="33.6300318">
<ele>17.73</ele>
<time>2015-05-01T08:11:40Z</time>
</trkpt>
<trkpt lat="34.9124179" lon="33.6300208">
<ele>17.88</ele>
<time>2015-05-01T08:11:41Z</time>
</trkpt>
<trkpt lat="34.9123572" lon="33.6300139">
<ele>17.95</ele>
<time>2015-05-01T08:11:42Z</time>
</trkpt>
<trkpt lat="34.9122970" lon="33.6300067">
<ele>17.98</ele>
<time>2015-05-01T08:11:43Z</time>
</trkpt>
<trkpt lat="34.9122326" lon="33.6299989">
<ele>18.00</ele>
<time>2015-05-01T08:11:44Z</time>
</trkpt>
<trkpt lat="34.9121722" lon="33.6299855">
<ele>18.01</ele>
<time>2015-05-01T08:11:45Z</time>
</trkpt>
<trkpt lat="34.9121135" lon="33.6299810">
<ele>18.01</ele>
<time>2015-05-01T08:11:46Z</time>
</trkpt>
<trkpt lat="34.9120499" lon="33.6299771">
<ele>18.01</ele>
<time>2015-05-01T08:11:47Z</time>
</trkpt>
<trkpt lat="34.9119856" lon="33.6299718">
<ele>18.01</ele>
<time>2015-05-01T08:11:48Z</time>
</trkpt>
<trkpt lat="34.9119281" lon="33.6299716">
<ele>18.02</ele>
<time>2015-05-01T08:11:49Z</time>
</trkpt>
<trkpt lat="34.9118671" lon="33.6299642">
<ele>18.52</ele>
<time>2015-05-01T08:11:50Z</time>
</trkpt>
<trkpt lat="34.9118080" lon="33.6299541">
<ele>19.27</ele>
<time>2015-05-01T08:11:51Z</time>
</trkpt>
<trkpt lat="34.9117464" lon="33.6299444">
<ele>19.64</ele>
<time>2015-05-01T08:11:52Z</time>
</trkpt>
<trkpt lat="34.9116906" lon="33.6299425">
<ele>19.83</ele>
<time>2015-05-01T08:11:53Z</time>
</trkpt>
<trkpt lat="34.9116315" lon="33.6299364">
<ele>19.42</ele>
<time>2015-05-01T08:11:54Z</time>
</trkpt>
<trkpt lat="34.9115766" lon="33.6299314">
<ele>19.22</ele>
<time>2015-05-01T08:11:55Z</time>
</trkpt>
<trkpt lat="34.9115191" lon="33.6299240">
<ele>19.12</ele>
<time>2015-05-01T08:11:56Z</time>
</trkpt>
<trkpt lat="34.9114658" lon="33.6299204">
<ele>19.07</ele>
<time>2015-05-01T08:11:57Z</time>
</trkpt>
<trkpt lat="34.9114176" lon="33.6299145">
<ele>19.04</ele>
<time>2015-05-01T08:11:58Z</time>
</trkpt>
<trkpt lat="34.9113394" lon="33.6299031">
<ele>18.27</ele>
<time>2015-05-01T08:12:00Z</time>
</trkpt>
<trkpt lat="34.9112807" lon="33.6299092">
<ele>17.30</ele>
<time>2015-05-01T08:12:03Z</time>
</trkpt>
<trkpt lat="34.9112352" lon="33.6299238">
<ele>16.22</ele>
<time>2015-05-01T08:12:07Z</time>
</trkpt>
<trkpt lat="34.9112124" lon="33.6300015">
<ele>17.17</ele>
<time>2015-05-01T08:12:10Z</time>
</trkpt>
<trkpt lat="34.9112083" lon="33.6301086">
<ele>17.05</ele>
<time>2015-05-01T08:12:12Z</time>
</trkpt>
<trkpt lat="34.9112051" lon="33.6301970">
<ele>17.03</ele>
<time>2015-05-01T08:12:13Z</time>
</trkpt>
<trkpt lat="34.9111970" lon="33.6302722">
<ele>16.53</ele>
<time>2015-05-01T08:12:14Z</time>
</trkpt>
<trkpt lat="34.9111920" lon="33.6303486">
<ele>16.27</ele>
<time>2015-05-01T08:12:15Z</time>
</trkpt>
<trkpt lat="34.9111879" lon="33.6304271">
<ele>15.64</ele>
<time>2015-05-01T08:12:16Z</time>
</trkpt>
<trkpt lat="34.9111806" lon="33.6305034">
<ele>15.33</ele>
<time>2015-05-01T08:12:17Z</time>
</trkpt>
<trkpt lat="34.9111748" lon="33.6305828">
<ele>15.17</ele>
<time>2015-05-01T08:12:18Z</time>
</trkpt>
<trkpt lat="34.9111664" lon="33.6306614">
<ele>15.09</ele>
<time>2015-05-01T08:12:19Z</time>
</trkpt>
<trkpt lat="34.9111566" lon="33.6307451">
<ele>14.56</ele>
<time>2015-05-01T08:12:20Z</time>
</trkpt>
<trkpt lat="34.9111433" lon="33.6308183">
<ele>13.79</ele>
<time>2015-05-01T08:12:21Z</time>
</trkpt>
<trkpt lat="34.9111425" lon="33.6308961">
<ele>13.40</ele>
<time>2015-05-01T08:12:22Z</time>
</trkpt>
<trkpt lat="34.9111477" lon="33.6309733">
<ele>13.71</ele>
<time>2015-05-01T08:12:23Z</time>
</trkpt>
<trkpt lat="34.9111419" lon="33.6310449">
<ele>13.86</ele>
<time>2015-05-01T08:12:24Z</time>
</trkpt>
<trkpt lat="34.9111331" lon="33.6311203">
<ele>13.94</ele>
<time>2015-05-01T08:12:25Z</time>
</trkpt>
<trkpt lat="34.9111336" lon="33.6311838">
<ele>13.98</ele>
<time>2015-05-01T08:12:26Z</time>
</trkpt>
<trkpt lat="34.9111352" lon="33.6312446">
<ele>14.00</ele>
<time>2015-05-01T08:12:27Z</time>
</trkpt>
<trkpt lat="34.9111123" lon="33.6313262">
<ele>13.76</ele>
<time>2015-05-01T08:12:29Z</time>
</trkpt>
<trkpt lat="34.9110298" lon="33.6313465">
<ele>13.70</ele>
<time>2015-05-01T08:12:31Z</time>
</trkpt>
<trkpt lat="34.9109838" lon="33.6313440">
<ele>13.36</ele>
<time>2015-05-01T08:12:32Z</time>
</trkpt>
<trkpt lat="34.9109320" lon="33.6313423">
<ele>13.19</ele>
<time>2015-05-01T08:12:33Z</time>
</trkpt>
<trkpt lat="34.9108806" lon="33.6313420">
<ele>13.60</ele>
<time>2015-05-01T08:12:34Z</time>
</trkpt>
<trkpt lat="34.9108270" lon="33.6313370">
<ele>13.31</ele>
<time>2015-05-01T08:12:35Z</time>
</trkpt>
<trkpt lat="34.9107629" lon="33.6313328">
<ele>13.66</ele>
<time>2015-05-01T08:12:36Z</time>
</trkpt>
<trkpt lat="34.9107028" lon="33.6313297">
<ele>14.34</ele>
<time>2015-05-01T08:12:37Z</time>
</trkpt>
<trkpt lat="34.9106500" lon="33.6313328">
<ele>14.68</ele>
<time>2015-05-01T08:12:38Z</time>
</trkpt>
<trkpt lat="34.9105888" lon="33.6313255">
<ele>14.85</ele>
<time>2015-05-01T08:12:39Z</time>
</trkpt>
<trkpt lat="34.9105259" lon="33.6313145">
<ele>14.93</ele>
<time>2015-05-01T08:12:40Z</time>
</trkpt>
<trkpt lat="34.9104634" lon="33.6313018">
<ele>14.97</ele>
<time>2015-05-01T08:12:41Z</time>
</trkpt>
<trkpt lat="34.9104019" lon="33.6312903">
<ele>14.99</ele>
<time>2015-05-01T08:12:42Z</time>
</trkpt>
<trkpt lat="34.9103360" lon="33.6312844">
<ele>15.01</ele>
<time>2015-05-01T08:12:43Z</time>
</trkpt>
<trkpt lat="34.9102713" lon="33.6312755">
<ele>15.01</ele>
<time>2015-05-01T08:12:44Z</time>
</trkpt>
<trkpt lat="34.9102066" lon="33.6312698">
<ele>14.51</ele>
<time>2015-05-01T08:12:45Z</time>
</trkpt>
<trkpt lat="34.9101385" lon="33.6312571">
<ele>14.76</ele>
<time>2015-05-01T08:12:46Z</time>
</trkpt>
<trkpt lat="34.9100829" lon="33.6312488">
<ele>14.89</ele>
<time>2015-05-01T08:12:47Z</time>
</trkpt>
<trkpt lat="34.9100330" lon="33.6312437">
<ele>14.95</ele>
<time>2015-05-01T08:12:48Z</time>
</trkpt>
<trkpt lat="34.9099868" lon="33.6312383">
<ele>14.98</ele>
<time>2015-05-01T08:12:49Z</time>
</trkpt>
<trkpt lat="34.9099347" lon="33.6312368">
<ele>15.00</ele>
<time>2015-05-01T08:12:50Z</time>
</trkpt>
<trkpt lat="34.9098837" lon="33.6312362">
<ele>15.01</ele>
<time>2015-05-01T08:12:51Z</time>
</trkpt>
<trkpt lat="34.9098345" lon="33.6312342">
<ele>14.51</ele>
<time>2015-05-01T08:12:52Z</time>
</trkpt>
<trkpt lat="34.9097816" lon="33.6312287">
<ele>14.76</ele>
<time>2015-05-01T08:12:53Z</time>
</trkpt>
<trkpt lat="34.9097324" lon="33.6312301">
<ele>14.89</ele>
<time>2015-05-01T08:12:54Z</time>
</trkpt>
<trkpt lat="34.9096868" lon="33.6312380">
<ele>14.45</ele>
<time>2015-05-01T08:12:55Z</time>
</trkpt>
<trkpt lat="34.9096400" lon="33.6312334">
<ele>14.23</ele>
<time>2015-05-01T08:12:56Z</time>
</trkpt>
<trkpt lat="34.9095583" lon="33.6312424">
<ele>14.07</ele>
<time>2015-05-01T08:12:58Z</time>
</trkpt>
<trkpt lat="34.9094968" lon="33.6312967">
<ele>13.28</ele>
<time>2015-05-01T08:13:00Z</time>
</trkpt>
<trkpt lat="34.9094830" lon="33.6313996">
<ele>13.08</ele>
<time>2015-05-01T08:13:02Z</time>
</trkpt>
<trkpt lat="34.9094787" lon="33.6314595">
<ele>13.05</ele>
<time>2015-05-01T08:13:03Z</time>
</trkpt>
<trkpt lat="34.9094731" lon="33.6315220">
<ele>12.53</ele>
<time>2015-05-01T08:13:04Z</time>
</trkpt>
<trkpt lat="34.9094672" lon="33.6315818">
<ele>12.27</ele>
<time>2015-05-01T08:13:05Z</time>
</trkpt>
<trkpt lat="34.9094650" lon="33.6316512">
<ele>12.15</ele>
<time>2015-05-01T08:13:06Z</time>
</trkpt>
<trkpt lat="34.9094617" lon="33.6317236">
<ele>12.08</ele>
<time>2015-05-01T08:13:07Z</time>
</trkpt>
<trkpt lat="34.9094611" lon="33.6317950">
<ele>12.05</ele>
<time>2015-05-01T08:13:08Z</time>
</trkpt>
<trkpt lat="34.9094555" lon="33.6318652">
<ele>12.03</ele>
<time>2015-05-01T08:13:09Z</time>
</trkpt>
<trkpt lat="34.9094554" lon="33.6319322">
<ele>12.02</ele>
<time>2015-05-01T08:13:10Z</time>
</trkpt>
<trkpt lat="34.9094522" lon="33.6319998">
<ele>12.02</ele>
<time>2015-05-01T08:13:11Z</time>
</trkpt>
<trkpt lat="34.9094560" lon="33.6320728">
<ele>12.02</ele>
<time>2015-05-01T08:13:12Z</time>
</trkpt>
<trkpt lat="34.9094530" lon="33.6321372">
<ele>12.02</ele>
<time>2015-05-01T08:13:13Z</time>
</trkpt>
<trkpt lat="34.9094532" lon="33.6322076">
<ele>12.02</ele>
<time>2015-05-01T08:13:14Z</time>
</trkpt>
<trkpt lat="34.9094445" lon="33.6322789">
<ele>12.02</ele>
<time>2015-05-01T08:13:15Z</time>
</trkpt>
<trkpt lat="34.9094459" lon="33.6323562">
<ele>12.02</ele>
<time>2015-05-01T08:13:16Z</time>
</trkpt>
<trkpt lat="34.9094429" lon="33.6324262">
<ele>12.02</ele>
<time>2015-05-01T08:13:17Z</time>
</trkpt>
<trkpt lat="34.9094398" lon="33.6324985">
<ele>12.02</ele>
<time>2015-05-01T08:13:18Z</time>
</trkpt>
<trkpt lat="34.9094393" lon="33.6325709">
<ele>12.02</ele>
<time>2015-05-01T08:13:19Z</time>
</trkpt>
<trkpt lat="34.9094440" lon="33.6326427">
<ele>11.52</ele>
<time>2015-05-01T08:13:20Z</time>
</trkpt>
<trkpt lat="34.9094454" lon="33.6327072">
<ele>11.77</ele>
<time>2015-05-01T08:13:21Z</time>
</trkpt>
<trkpt lat="34.9094481" lon="33.6327625">
<ele>11.89</ele>
<time>2015-05-01T08:13:22Z</time>
</trkpt>
<trkpt lat="34.9094381" lon="33.6328482">
<ele>11.98</ele>
<time>2015-05-01T08:13:24Z</time>
</trkpt>
<trkpt lat="34.9093884" lon="33.6329075">
<ele>12.01</ele>
<time>2015-05-01T08:13:26Z</time>
</trkpt>
<trkpt lat="34.9093133" lon="33.6329706">
<ele>12.01</ele>
<time>2015-05-01T08:13:28Z</time>
</trkpt>
<trkpt lat="34.9092698" lon="33.6329983">
<ele>12.02</ele>
<time>2015-05-01T08:13:29Z</time>
</trkpt>
<trkpt lat="34.9092207" lon="33.6330225">
<ele>11.52</ele>
<time>2015-05-01T08:13:30Z</time>
</trkpt>
<trkpt lat="34.9091737" lon="33.6330474">
<ele>11.77</ele>
<time>2015-05-01T08:13:31Z</time>
</trkpt>
<trkpt lat="34.9091222" lon="33.6330700">
<ele>11.39</ele>
<time>2015-05-01T08:13:32Z</time>
</trkpt>
<trkpt lat="34.9090728" lon="33.6330920">
<ele>11.20</ele>
<time>2015-05-01T08:13:33Z</time>
</trkpt>
<trkpt lat="34.9090240" lon="33.6331077">
<ele>10.61</ele>
<time>2015-05-01T08:13:34Z</time>
</trkpt>
<trkpt lat="34.9089716" lon="33.6331300">
<ele>10.81</ele>
<time>2015-05-01T08:13:35Z</time>
</trkpt>
<trkpt lat="34.9089223" lon="33.6331548">
<ele>11.41</ele>
<time>2015-05-01T08:13:36Z</time>
</trkpt>
<trkpt lat="34.9088756" lon="33.6331783">
<ele>11.72</ele>
<time>2015-05-01T08:13:37Z</time>
</trkpt>
<trkpt lat="34.9088318" lon="33.6331998">
<ele>11.87</ele>
<time>2015-05-01T08:13:38Z</time>
</trkpt>
<trkpt lat="34.9087560" lon="33.6332337">
<ele>10.73</ele>
<time>2015-05-01T08:13:40Z</time>
</trkpt>
<trkpt lat="34.9087229" lon="33.6333141">
<ele>10.19</ele>
<time>2015-05-01T08:13:42Z</time>
</trkpt>
<trkpt lat="34.9087205" lon="33.6334220">
<ele>9.81</ele>
<time>2015-05-01T08:13:44Z</time>
</trkpt>
<trkpt lat="34.9087322" lon="33.6334774">
<ele>9.91</ele>
<time>2015-05-01T08:13:45Z</time>
</trkpt>
<trkpt lat="34.9087397" lon="33.6335437">
<ele>10.46</ele>
<time>2015-05-01T08:13:46Z</time>
</trkpt>
<trkpt lat="34.9087464" lon="33.6336063">
<ele>10.24</ele>
<time>2015-05-01T08:13:47Z</time>
</trkpt>
<trkpt lat="34.9087538" lon="33.6336743">
<ele>10.13</ele>
<time>2015-05-01T08:13:48Z</time>
</trkpt>
<trkpt lat="34.9087594" lon="33.6337384">
<ele>10.07</ele>
<time>2015-05-01T08:13:49Z</time>
</trkpt>
<trkpt lat="34.9087646" lon="33.6338091">
<ele>10.54</ele>
<time>2015-05-01T08:13:50Z</time>
</trkpt>
<trkpt lat="34.9087890" lon="33.6339046">
<ele>10.90</ele>
<time>2015-05-01T08:13:52Z</time>
</trkpt>
<trkpt lat="34.9088174" lon="33.6339476">
<ele>11.95</ele>
<time>2015-05-01T08:13:56Z</time>
</trkpt>
<trkpt lat="34.9088373" lon="33.6339975">
<ele>12.01</ele>
<time>2015-05-01T08:14:00Z</time>
</trkpt>
<trkpt lat="34.9087907" lon="33.6340550">
<ele>12.89</ele>
<time>2015-05-01T08:14:03Z</time>
</trkpt>
<trkpt lat="34.9087163" lon="33.6340846">
<ele>13.48</ele>
<time>2015-05-01T08:14:05Z</time>
</trkpt>
<trkpt lat="34.9086618" lon="33.6340940">
<ele>13.75</ele>
<time>2015-05-01T08:14:06Z</time>
</trkpt>
<trkpt lat="34.9085772" lon="33.6340937">
<ele>13.38</ele>
<time>2015-05-01T08:14:07Z</time>
</trkpt>
<trkpt lat="34.9085274" lon="33.6341001">
<ele>13.20</ele>
<time>2015-05-01T08:14:08Z</time>
</trkpt>
<trkpt lat="34.9084790" lon="33.6341119">
<ele>13.11</ele>
<time>2015-05-01T08:14:09Z</time>
</trkpt>
<trkpt lat="34.9084217" lon="33.6341209">
<ele>13.56</ele>
<time>2015-05-01T08:14:10Z</time>
</trkpt>
<trkpt lat="34.9083728" lon="33.6341241">
<ele>13.79</ele>
<time>2015-05-01T08:14:11Z</time>
</trkpt>
<trkpt lat="34.9083152" lon="33.6341318">
<ele>14.40</ele>
<time>2015-05-01T08:14:12Z</time>
</trkpt>
<trkpt lat="34.9082608" lon="33.6341356">
<ele>14.21</ele>
<time>2015-05-01T08:14:13Z</time>
</trkpt>
<trkpt lat="34.9082034" lon="33.6341405">
<ele>14.11</ele>
<time>2015-05-01T08:14:14Z</time>
</trkpt>
<trkpt lat="34.9081467" lon="33.6341448">
<ele>14.06</ele>
<time>2015-05-01T08:14:15Z</time>
</trkpt>
<trkpt lat="34.9080877" lon="33.6341499">
<ele>14.04</ele>
<time>2015-05-01T08:14:16Z</time>
</trkpt>
<trkpt lat="34.9080334" lon="33.6341546">
<ele>14.03</ele>
<time>2015-05-01T08:14:17Z</time>
</trkpt>
<trkpt lat="34.9079796" lon="33.6341646">
<ele>13.52</ele>
<time>2015-05-01T08:14:18Z</time>
</trkpt>
<trkpt lat="34.9079188" lon="33.6341794">
<ele>13.27</ele>
<time>2015-05-01T08:14:19Z</time>
</trkpt>
<trkpt lat="34.9078662" lon="33.6341887">
<ele>12.64</ele>
<time>2015-05-01T08:14:20Z</time>
</trkpt>
<trkpt lat="34.9078116" lon="33.6341908">
<ele>12.33</ele>
<time>2015-05-01T08:14:21Z</time>
</trkpt>
<trkpt lat="34.9077498" lon="33.6341983">
<ele>12.67</ele>
<time>2015-05-01T08:14:22Z</time>
</trkpt>
<trkpt lat="34.9076899" lon="33.6341998">
<ele>12.84</ele>
<time>2015-05-01T08:14:23Z</time>
</trkpt>
<trkpt lat="34.9076288" lon="33.6342062">
<ele>12.93</ele>
<time>2015-05-01T08:14:24Z</time>
</trkpt>
<trkpt lat="34.9075759" lon="33.6342163">
<ele>12.97</ele>
<time>2015-05-01T08:14:25Z</time>
</trkpt>
<trkpt lat="34.9075170" lon="33.6342177">
<ele>12.49</ele>
<time>2015-05-01T08:14:26Z</time>
</trkpt>
<trkpt lat="34.9074544" lon="33.6342231">
<ele>12.26</ele>
<time>2015-05-01T08:14:27Z</time>
</trkpt>
<trkpt lat="34.9073971" lon="33.6342305">
<ele>12.14</ele>
<time>2015-05-01T08:14:28Z</time>
</trkpt>
<trkpt lat="34.9073415" lon="33.6342349">
<ele>12.08</ele>
<time>2015-05-01T08:14:29Z</time>
</trkpt>
<trkpt lat="34.9072840" lon="33.6342377">
<ele>12.05</ele>
<time>2015-05-01T08:14:30Z</time>
</trkpt>
<trkpt lat="34.9072273" lon="33.6342382">
<ele>12.53</ele>
<time>2015-05-01T08:14:31Z</time>
</trkpt>
<trkpt lat="34.9071673" lon="33.6342391">
<ele>12.77</ele>
<time>2015-05-01T08:14:32Z</time>
</trkpt>
<trkpt lat="34.9071130" lon="33.6342464">
<ele>12.89</ele>
<time>2015-05-01T08:14:33Z</time>
</trkpt>
<trkpt lat="34.9070631" lon="33.6342541">
<ele>12.96</ele>
<time>2015-05-01T08:14:34Z</time>
</trkpt>
<trkpt lat="34.9070164" lon="33.6342574">
<ele>12.99</ele>
<time>2015-05-01T08:14:35Z</time>
</trkpt>
<trkpt lat="34.9069698" lon="33.6342679">
<ele>13.01</ele>
<time>2015-05-01T08:14:37Z</time>
</trkpt>
<trkpt lat="34.9069195" lon="33.6342662">
<ele>14.01</ele>
<time>2015-05-01T08:14:46Z</time>
</trkpt>
<trkpt lat="34.9068879" lon="33.6342038">
<ele>13.52</ele>
<time>2015-05-01T08:14:50Z</time>
</trkpt>
<trkpt lat="34.9068849" lon="33.6341390">
<ele>12.64</ele>
<time>2015-05-01T08:14:52Z</time>
</trkpt>
<trkpt lat="34.9068931" lon="33.6340493">
<ele>12.17</ele>
<time>2015-05-01T08:14:54Z</time>
</trkpt>
<trkpt lat="34.9068883" lon="33.6339450">
<ele>12.06</ele>
<time>2015-05-01T08:14:56Z</time>
</trkpt>
<trkpt lat="34.9068694" lon="33.6338086">
<ele>12.78</ele>
<time>2015-05-01T08:14:58Z</time>
</trkpt>
<trkpt lat="34.9068614" lon="33.6337435">
<ele>12.90</ele>
<time>2015-05-01T08:14:59Z</time>
</trkpt>
<trkpt lat="34.9068606" lon="33.6336782">
<ele>12.96</ele>
<time>2015-05-01T08:15:00Z</time>
</trkpt>
<trkpt lat="34.9068556" lon="33.6336144">
<ele>12.99</ele>
<time>2015-05-01T08:15:01Z</time>
</trkpt>
<trkpt lat="34.9068530" lon="33.6335472">
<ele>13.00</ele>
<time>2015-05-01T08:15:02Z</time>
</trkpt>
<trkpt lat="34.9068504" lon="33.6334809">
<ele>13.51</ele>
<time>2015-05-01T08:15:03Z</time>
</trkpt>
<trkpt lat="34.9068472" lon="33.6334109">
<ele>13.76</ele>
<time>2015-05-01T08:15:04Z</time>
</trkpt>
<trkpt lat="34.9068453" lon="33.6333491">
<ele>13.89</ele>
<time>2015-05-01T08:15:05Z</time>
</trkpt>
<trkpt lat="34.9068409" lon="33.6332795">
<ele>13.95</ele>
<time>2015-05-01T08:15:06Z</time>
</trkpt>
<trkpt lat="34.9068344" lon="33.6332031">
<ele>13.98</ele>
<time>2015-05-01T08:15:07Z</time>
</trkpt>
<trkpt lat="34.9068253" lon="33.6331162">
<ele>14.00</ele>
<time>2015-05-01T08:15:08Z</time>
</trkpt>
<trkpt lat="34.9068191" lon="33.6330472">
<ele>14.01</ele>
<time>2015-05-01T08:15:09Z</time>
</trkpt>
<trkpt lat="34.9068142" lon="33.6329762">
<ele>14.51</ele>
<time>2015-05-01T08:15:10Z</time>
</trkpt>
<trkpt lat="34.9068024" lon="33.6328981">
<ele>14.76</ele>
<time>2015-05-01T08:15:11Z</time>
</trkpt>
<trkpt lat="34.9067941" lon="33.6328265">
<ele>14.89</ele>
<time>2015-05-01T08:15:12Z</time>
</trkpt>
<trkpt lat="34.9067872" lon="33.6327524">
<ele>14.95</ele>
<time>2015-05-01T08:15:13Z</time>
</trkpt>
<trkpt lat="34.9067798" lon="33.6326744">
<ele>14.98</ele>
<time>2015-05-01T08:15:14Z</time>
</trkpt>
<trkpt lat="34.9067697" lon="33.6325960">
<ele>15.00</ele>
<time>2015-05-01T08:15:15Z</time>
</trkpt>
<trkpt lat="34.9067604" lon="33.6325164">
<ele>15.01</ele>
<time>2015-05-01T08:15:16Z</time>
</trkpt>
<trkpt lat="34.9067492" lon="33.6324458">
<ele>15.01</ele>
<time>2015-05-01T08:15:17Z</time>
</trkpt>
<trkpt lat="34.9067443" lon="33.6323711">
<ele>15.01</ele>
<time>2015-05-01T08:15:18Z</time>
</trkpt>
<trkpt lat="34.9067389" lon="33.6322929">
<ele>15.02</ele>
<time>2015-05-01T08:15:19Z</time>
</trkpt>
<trkpt lat="34.9067278" lon="33.6322114">
<ele>15.02</ele>
<time>2015-05-01T08:15:20Z</time>
</trkpt>
<trkpt lat="34.9067228" lon="33.6321360">
<ele>14.52</ele>
<time>2015-05-01T08:15:21Z</time>
</trkpt>
<trkpt lat="34.9067148" lon="33.6320588">
<ele>14.27</ele>
<time>2015-05-01T08:15:22Z</time>
</trkpt>
<trkpt lat="34.9067055" lon="33.6319793">
<ele>14.14</ele>
<time>2015-05-01T08:15:23Z</time>
</trkpt>
<trkpt lat="34.9066939" lon="33.6318914">
<ele>14.08</ele>
<time>2015-05-01T08:15:24Z</time>
</trkpt>
<trkpt lat="34.9066853" lon="33.6318087">
<ele>14.05</ele>
<time>2015-05-01T08:15:25Z</time>
</trkpt>
<trkpt lat="34.9066756" lon="33.6317309">
<ele>14.03</ele>
<time>2015-05-01T08:15:26Z</time>
</trkpt>
<trkpt lat="34.9066604" lon="33.6316566">
<ele>14.02</ele>
<time>2015-05-01T08:15:27Z</time>
</trkpt>
<trkpt lat="34.9066388" lon="33.6315760">
<ele>14.02</ele>
<time>2015-05-01T08:15:28Z</time>
</trkpt>
<trkpt lat="34.9066169" lon="33.6315065">
<ele>14.02</ele>
<time>2015-05-01T08:15:29Z</time>
</trkpt>
<trkpt lat="34.9065877" lon="33.6314342">
<ele>14.02</ele>
<time>2015-05-01T08:15:30Z</time>
</trkpt>
<trkpt lat="34.9065611" lon="33.6313575">
<ele>13.52</ele>
<time>2015-05-01T08:15:31Z</time>
</trkpt>
<trkpt lat="34.9065378" lon="33.6312851">
<ele>13.27</ele>
<time>2015-05-01T08:15:32Z</time>
</trkpt>
<trkpt lat="34.9065194" lon="33.6312066">
<ele>12.64</ele>
<time>2015-05-01T08:15:33Z</time>
</trkpt>
<trkpt lat="34.9064918" lon="33.6311350">
<ele>11.83</ele>
<time>2015-05-01T08:15:34Z</time>
</trkpt>
<trkpt lat="34.9064658" lon="33.6310693">
<ele>11.92</ele>
<time>2015-05-01T08:15:35Z</time>
</trkpt>
<trkpt lat="34.9064378" lon="33.6309942">
<ele>11.47</ele>
<time>2015-05-01T08:15:36Z</time>
</trkpt>
<trkpt lat="34.9064138" lon="33.6309287">
<ele>11.24</ele>
<time>2015-05-01T08:15:37Z</time>
</trkpt>
<trkpt lat="34.9063886" lon="33.6308545">
<ele>11.13</ele>
<time>2015-05-01T08:15:38Z</time>
</trkpt>
<trkpt lat="34.9063576" lon="33.6307931">
<ele>11.07</ele>
<time>2015-05-01T08:15:39Z</time>
</trkpt>
<trkpt lat="34.9063249" lon="33.6307361">
<ele>11.04</ele>
<time>2015-05-01T08:15:40Z</time>
</trkpt>
<trkpt lat="34.9062896" lon="33.6306766">
<ele>11.03</ele>
<time>2015-05-01T08:15:41Z</time>
</trkpt>
<trkpt lat="34.9062635" lon="33.6306209">
<ele>11.02</ele>
<time>2015-05-01T08:15:42Z</time>
</trkpt>
<trkpt lat="34.9062442" lon="33.6305688">
<ele>11.02</ele>
<time>2015-05-01T08:15:43Z</time>
</trkpt>
<trkpt lat="34.9062231" lon="33.6305182">
<ele>11.02</ele>
<time>2015-05-01T08:15:44Z</time>
</trkpt>
<trkpt lat="34.9061878" lon="33.6304404">
<ele>12.77</ele>
<time>2015-05-01T08:15:46Z</time>
</trkpt>
<trkpt lat="34.9061666" lon="33.6303428">
<ele>13.70</ele>
<time>2015-05-01T08:15:48Z</time>
</trkpt>
<trkpt lat="34.9061520" lon="33.6302604">
<ele>14.19</ele>
<time>2015-05-01T08:15:50Z</time>
</trkpt>
<trkpt lat="34.9061525" lon="33.6301915">
<ele>15.31</ele>
<time>2015-05-01T08:15:52Z</time>
</trkpt>
<trkpt lat="34.9061452" lon="33.6301214">
<ele>15.84</ele>
<time>2015-05-01T08:15:54Z</time>
</trkpt>
<trkpt lat="34.9061415" lon="33.6300552">
<ele>15.97</ele>
<time>2015-05-01T08:15:56Z</time>
</trkpt>
<trkpt lat="34.9061396" lon="33.6299825">
<ele>15.51</ele>
<time>2015-05-01T08:15:59Z</time>
</trkpt>
<trkpt lat="34.9060718" lon="33.6299604">
<ele>14.20</ele>
<time>2015-05-01T08:16:02Z</time>
</trkpt>
<trkpt lat="34.9060114" lon="33.6299714">
<ele>12.81</ele>
<time>2015-05-01T08:16:04Z</time>
</trkpt>
<trkpt lat="34.9059544" lon="33.6299812">
<ele>10.97</ele>
<time>2015-05-01T08:16:06Z</time>
</trkpt>
<trkpt lat="34.9058883" lon="33.6299906">
<ele>10.50</ele>
<time>2015-05-01T08:16:08Z</time>
</trkpt>
<trkpt lat="34.9058058" lon="33.6300090">
<ele>10.14</ele>
<time>2015-05-01T08:16:10Z</time>
</trkpt>
<trkpt lat="34.9057203" lon="33.6300288">
<ele>9.55</ele>
<time>2015-05-01T08:16:12Z</time>
</trkpt>
<trkpt lat="34.9056368" lon="33.6300520">
<ele>8.90</ele>
<time>2015-05-01T08:16:14Z</time>
</trkpt>
<trkpt lat="34.9055501" lon="33.6300691">
<ele>8.99</ele>
<time>2015-05-01T08:16:16Z</time>
</trkpt>
<trkpt lat="34.9054672" lon="33.6300778">
<ele>9.01</ele>
<time>2015-05-01T08:16:18Z</time>
</trkpt>
<trkpt lat="34.9053839" lon="33.6300899">
<ele>9.76</ele>
<time>2015-05-01T08:16:20Z</time>
</trkpt>
<trkpt lat="34.9053010" lon="33.6301029">
<ele>9.95</ele>
<time>2015-05-01T08:16:22Z</time>
</trkpt>
<trkpt lat="34.9052453" lon="33.6301060">
<ele>9.98</ele>
<time>2015-05-01T08:16:23Z</time>
</trkpt>
<trkpt lat="34.9051917" lon="33.6301112">
<ele>10.50</ele>
<time>2015-05-01T08:16:24Z</time>
</trkpt>
<trkpt lat="34.9051452" lon="33.6301228">
<ele>10.76</ele>
<time>2015-05-01T08:16:25Z</time>
</trkpt>
<trkpt lat="34.9050972" lon="33.6301303">
<ele>10.39</ele>
<time>2015-05-01T08:16:26Z</time>
</trkpt>
<trkpt lat="34.9050497" lon="33.6301342">
<ele>10.20</ele>
<time>2015-05-01T08:16:27Z</time>
</trkpt>
<trkpt lat="34.9049999" lon="33.6301454">
<ele>9.11</ele>
<time>2015-05-01T08:16:28Z</time>
</trkpt>
<trkpt lat="34.9049521" lon="33.6301502">
<ele>8.56</ele>
<time>2015-05-01T08:16:29Z</time>
</trkpt>
<trkpt lat="34.9049054" lon="33.6301567">
<ele>8.29</ele>
<time>2015-05-01T08:16:30Z</time>
</trkpt>
<trkpt lat="34.9048302" lon="33.6301642">
<ele>9.33</ele>
<time>2015-05-01T08:16:32Z</time>
</trkpt>
<trkpt lat="34.9047701" lon="33.6301533">
<ele>9.10</ele>
<time>2015-05-01T08:16:34Z</time>
</trkpt>
<trkpt lat="34.9046913" lon="33.6301738">
<ele>9.04</ele>
<time>2015-05-01T08:16:36Z</time>
</trkpt>
<trkpt lat="34.9045970" lon="33.6301974">
<ele>9.77</ele>
<time>2015-05-01T08:16:38Z</time>
</trkpt>
<trkpt lat="34.9045421" lon="33.6302077">
<ele>10.39</ele>
<time>2015-05-01T08:16:39Z</time>
</trkpt>
<trkpt lat="34.9044852" lon="33.6302160">
<ele>10.70</ele>
<time>2015-05-01T08:16:40Z</time>
</trkpt>
<trkpt lat="34.9044326" lon="33.6302278">
<ele>11.36</ele>
<time>2015-05-01T08:16:41Z</time>
</trkpt>
<trkpt lat="34.9043713" lon="33.6302404">
<ele>11.69</ele>
<time>2015-05-01T08:16:42Z</time>
</trkpt>
<trkpt lat="34.9043140" lon="33.6302518">
<ele>11.85</ele>
<time>2015-05-01T08:16:43Z</time>
</trkpt>
<trkpt lat="34.9042485" lon="33.6302652">
<ele>11.93</ele>
<time>2015-05-01T08:16:44Z</time>
</trkpt>
<trkpt lat="34.9041964" lon="33.6302740">
<ele>11.98</ele>
<time>2015-05-01T08:16:45Z</time>
</trkpt>
<trkpt lat="34.9041405" lon="33.6302864">
<ele>11.50</ele>
<time>2015-05-01T08:16:46Z</time>
</trkpt>
<trkpt lat="34.9040827" lon="33.6302954">
<ele>11.76</ele>
<time>2015-05-01T08:16:47Z</time>
</trkpt>
<trkpt lat="34.9040207" lon="33.6303018">
<ele>11.89</ele>
<time>2015-05-01T08:16:48Z</time>
</trkpt>
<trkpt lat="34.9039605" lon="33.6303127">
<ele>12.45</ele>
<time>2015-05-01T08:16:49Z</time>
</trkpt>
<trkpt lat="34.9038980" lon="33.6303222">
<ele>12.73</ele>
<time>2015-05-01T08:16:50Z</time>
</trkpt>
<trkpt lat="34.9038455" lon="33.6303278">
<ele>12.87</ele>
<time>2015-05-01T08:16:51Z</time>
</trkpt>
<trkpt lat="34.9037843" lon="33.6303394">
<ele>12.95</ele>
<time>2015-05-01T08:16:52Z</time>
</trkpt>
<trkpt lat="34.9037264" lon="33.6303516">
<ele>13.48</ele>
<time>2015-05-01T08:16:53Z</time>
</trkpt>
<trkpt lat="34.9036627" lon="33.6303629">
<ele>13.75</ele>
<time>2015-05-01T08:16:54Z</time>
</trkpt>
<trkpt lat="34.9036013" lon="33.6303775">
<ele>13.88</ele>
<time>2015-05-01T08:16:55Z</time>
</trkpt>
<trkpt lat="34.9035371" lon="33.6303862">
<ele>14.45</ele>
<time>2015-05-01T08:16:56Z</time>
</trkpt>
<trkpt lat="34.9034802" lon="33.6303945">
<ele>15.23</ele>
<time>2015-05-01T08:16:57Z</time>
</trkpt>
<trkpt lat="34.9034200" lon="33.6303997">
<ele>15.62</ele>
<time>2015-05-01T08:16:58Z</time>
</trkpt>
<trkpt lat="34.9033579" lon="33.6304086">
<ele>15.82</ele>
<time>2015-05-01T08:16:59Z</time>
</trkpt>
<trkpt lat="34.9032944" lon="33.6304067">
<ele>15.42</ele>
<time>2015-05-01T08:17:00Z</time>
</trkpt>
<trkpt lat="34.9032342" lon="33.6304095">
<ele>15.72</ele>
<time>2015-05-01T08:17:01Z</time>
</trkpt>
<trkpt lat="34.9031719" lon="33.6304094">
<ele>15.87</ele>
<time>2015-05-01T08:17:02Z</time>
</trkpt>
<trkpt lat="34.9031096" lon="33.6304158">
<ele>15.94</ele>
<time>2015-05-01T08:17:03Z</time>
</trkpt>
<trkpt lat="34.9030511" lon="33.6304210">
<ele>15.98</ele>
<time>2015-05-01T08:17:04Z</time>
</trkpt>
<trkpt lat="34.9029939" lon="33.6304220">
<ele>16.00</ele>
<time>2015-05-01T08:17:05Z</time>
</trkpt>
<trkpt lat="34.9029346" lon="33.6304224">
<ele>16.01</ele>
<time>2015-05-01T08:17:06Z</time>
</trkpt>
<trkpt lat="34.9028830" lon="33.6304213">
<ele>16.01</ele>
<time>2015-05-01T08:17:07Z</time>
</trkpt>
<trkpt lat="34.9028272" lon="33.6304206">
<ele>16.01</ele>
<time>2015-05-01T08:17:08Z</time>
</trkpt>
<trkpt lat="34.9027757" lon="33.6304172">
<ele>16.01</ele>
<time>2015-05-01T08:17:09Z</time>
</trkpt>
<trkpt lat="34.9027209" lon="33.6304194">
<ele>16.52</ele>
<time>2015-05-01T08:17:10Z</time>
</trkpt>
<trkpt lat="34.9026662" lon="33.6304147">
<ele>16.27</ele>
<time>2015-05-01T08:17:11Z</time>
</trkpt>
<trkpt lat="34.9026098" lon="33.6304159">
<ele>16.14</ele>
<time>2015-05-01T08:17:12Z</time>
</trkpt>
<trkpt lat="34.9025564" lon="33.6304144">
<ele>16.08</ele>
<time>2015-05-01T08:17:13Z</time>
</trkpt>
<trkpt lat="34.9025000" lon="33.6304144">
<ele>16.05</ele>
<time>2015-05-01T08:17:14Z</time>
</trkpt>
<trkpt lat="34.9024489" lon="33.6304109">
<ele>16.03</ele>
<time>2015-05-01T08:17:15Z</time>
</trkpt>
<trkpt lat="34.9023912" lon="33.6304143">
<ele>16.02</ele>
<time>2015-05-01T08:17:16Z</time>
</trkpt>
<trkpt lat="34.9023383" lon="33.6304154">
<ele>16.02</ele>
<time>2015-05-01T08:17:17Z</time>
</trkpt>
<trkpt lat="34.9022866" lon="33.6304173">
<ele>15.52</ele>
<time>2015-05-01T08:17:18Z</time>
</trkpt>
<trkpt lat="34.9022352" lon="33.6304162">
<ele>15.27</ele>
<time>2015-05-01T08:17:19Z</time>
</trkpt>
<trkpt lat="34.9021799" lon="33.6304157">
<ele>15.14</ele>
<time>2015-05-01T08:17:20Z</time>
</trkpt>
<trkpt lat="34.9021251" lon="33.6304108">
<ele>15.08</ele>
<time>2015-05-01T08:17:21Z</time>
</trkpt>
<trkpt lat="34.9020720" lon="33.6304097">
<ele>15.05</ele>
<time>2015-05-01T08:17:22Z</time>
</trkpt>
<trkpt lat="34.9020137" lon="33.6304114">
<ele>15.03</ele>
<time>2015-05-01T08:17:23Z</time>
</trkpt>
<trkpt lat="34.9019601" lon="33.6304089">
<ele>14.52</ele>
<time>2015-05-01T08:17:24Z</time>
</trkpt>
<trkpt lat="34.9019032" lon="33.6304073">
<ele>14.27</ele>
<time>2015-05-01T08:17:25Z</time>
</trkpt>
<trkpt lat="34.9018436" lon="33.6304023">
<ele>14.14</ele>
<time>2015-05-01T08:17:26Z</time>
</trkpt>
<trkpt lat="34.9017883" lon="33.6304021">
<ele>14.08</ele>
<time>2015-05-01T08:17:27Z</time>
</trkpt>
<trkpt lat="34.9017241" lon="33.6304022">
<ele>14.05</ele>
<time>2015-05-01T08:17:28Z</time>
</trkpt>
<trkpt lat="34.9016721" lon="33.6304024">
<ele>14.03</ele>
<time>2015-05-01T08:17:29Z</time>
</trkpt>
<trkpt lat="34.9016186" lon="33.6304034">
<ele>14.02</ele>
<time>2015-05-01T08:17:30Z</time>
</trkpt>
<trkpt lat="34.9015681" lon="33.6304079">
<ele>13.52</ele>
<time>2015-05-01T08:17:31Z</time>
</trkpt>
<trkpt lat="34.9015164" lon="33.6304085">
<ele>13.27</ele>
<time>2015-05-01T08:17:32Z</time>
</trkpt>
<trkpt lat="34.9014642" lon="33.6304097">
<ele>13.14</ele>
<time>2015-05-01T08:17:33Z</time>
</trkpt>
<trkpt lat="34.9014132" lon="33.6304137">
<ele>13.58</ele>
<time>2015-05-01T08:17:34Z</time>
</trkpt>
<trkpt lat="34.9013610" lon="33.6304160">
<ele>14.30</ele>
<time>2015-05-01T08:17:35Z</time>
</trkpt>
<trkpt lat="34.9012994" lon="33.6304141">
<ele>14.66</ele>
<time>2015-05-01T08:17:36Z</time>
</trkpt>
<trkpt lat="34.9012448" lon="33.6304064">
<ele>14.84</ele>
<time>2015-05-01T08:17:37Z</time>
</trkpt>
<trkpt lat="34.9011866" lon="33.6303966">
<ele>14.93</ele>
<time>2015-05-01T08:17:38Z</time>
</trkpt>
<trkpt lat="34.9011282" lon="33.6303925">
<ele>14.97</ele>
<time>2015-05-01T08:17:39Z</time>
</trkpt>
<trkpt lat="34.9010698" lon="33.6303912">
<ele>14.99</ele>
<time>2015-05-01T08:17:40Z</time>
</trkpt>
<trkpt lat="34.9010133" lon="33.6303910">
<ele>15.00</ele>
<time>2015-05-01T08:17:41Z</time>
</trkpt>
<trkpt lat="34.9009510" lon="33.6303839">
<ele>15.51</ele>
<time>2015-05-01T08:17:42Z</time>
</trkpt>
<trkpt lat="34.9008953" lon="33.6303832">
<ele>15.26</ele>
<time>2015-05-01T08:17:43Z</time>
</trkpt>
<trkpt lat="34.9008306" lon="33.6303794">
<ele>15.14</ele>
<time>2015-05-01T08:17:44Z</time>
</trkpt>
<trkpt lat="34.9007786" lon="33.6303812">
<ele>14.58</ele>
<time>2015-05-01T08:17:45Z</time>
</trkpt>
<trkpt lat="34.9007146" lon="33.6303815">
<ele>13.80</ele>
<time>2015-05-01T08:17:46Z</time>
</trkpt>
<trkpt lat="34.9006568" lon="33.6303809">
<ele>13.41</ele>
<time>2015-05-01T08:17:47Z</time>
</trkpt>
<trkpt lat="34.9005913" lon="33.6303843">
<ele>12.71</ele>
<time>2015-05-01T08:17:48Z</time>
</trkpt>
<trkpt lat="34.9005271" lon="33.6303838">
<ele>12.86</ele>
<time>2015-05-01T08:17:49Z</time>
</trkpt>
<trkpt lat="34.9004583" lon="33.6303824">
<ele>12.94</ele>
<time>2015-05-01T08:17:50Z</time>
</trkpt>
<trkpt lat="34.9003912" lon="33.6303814">
<ele>12.98</ele>
<time>2015-05-01T08:17:51Z</time>
</trkpt>
<trkpt lat="34.9003183" lon="33.6303776">
<ele>13.00</ele>
<time>2015-05-01T08:17:52Z</time>
</trkpt>
<trkpt lat="34.9002516" lon="33.6303744">
<ele>12.51</ele>
<time>2015-05-01T08:17:53Z</time>
</trkpt>
<trkpt lat="34.9001785" lon="33.6303708">
<ele>12.26</ele>
<time>2015-05-01T08:17:54Z</time>
</trkpt>
<trkpt lat="34.9001077" lon="33.6303674">
<ele>12.14</ele>
<time>2015-05-01T08:17:55Z</time>
</trkpt>
<trkpt lat="34.9000289" lon="33.6303713">
<ele>11.58</ele>
<time>2015-05-01T08:17:56Z</time>
</trkpt>
<trkpt lat="34.8999609" lon="33.6303765">
<ele>11.30</ele>
<time>2015-05-01T08:17:57Z</time>
</trkpt>
<trkpt lat="34.8998902" lon="33.6303774">
<ele>11.16</ele>
<time>2015-05-01T08:17:58Z</time>
</trkpt>
<trkpt lat="34.8998151" lon="33.6303748">
<ele>11.09</ele>
<time>2015-05-01T08:17:59Z</time>
</trkpt>
<trkpt lat="34.8997353" lon="33.6303752">
<ele>10.55</ele>
<time>2015-05-01T08:18:00Z</time>
</trkpt>
<trkpt lat="34.8996656" lon="33.6303704">
<ele>9.78</ele>
<time>2015-05-01T08:18:01Z</time>
</trkpt>
<trkpt lat="34.8995923" lon="33.6303688">
<ele>8.90</ele>
<time>2015-05-01T08:18:02Z</time>
</trkpt>
<trkpt lat="34.8995140" lon="33.6303673">
<ele>8.46</ele>
<time>2015-05-01T08:18:03Z</time>
</trkpt>
<trkpt lat="34.8994301" lon="33.6303688">
<ele>8.24</ele>
<time>2015-05-01T08:18:04Z</time>
</trkpt>
<trkpt lat="34.8993530" lon="33.6303702">
<ele>7.63</ele>
<time>2015-05-01T08:18:05Z</time>
</trkpt>
<trkpt lat="34.8992781" lon="33.6303670">
<ele>7.32</ele>
<time>2015-05-01T08:18:06Z</time>
</trkpt>
<trkpt lat="34.8991967" lon="33.6303681">
<ele>6.67</ele>
<time>2015-05-01T08:18:07Z</time>
</trkpt>
<trkpt lat="34.8991105" lon="33.6303709">
<ele>6.34</ele>
<time>2015-05-01T08:18:08Z</time>
</trkpt>
<trkpt lat="34.8990325" lon="33.6303681">
<ele>6.18</ele>
<time>2015-05-01T08:18:09Z</time>
</trkpt>
<trkpt lat="34.8989512" lon="33.6303614">
<ele>6.10</ele>
<time>2015-05-01T08:18:10Z</time>
</trkpt>
<trkpt lat="34.8988657" lon="33.6303625">
<ele>6.06</ele>
<time>2015-05-01T08:18:11Z</time>
</trkpt>
<trkpt lat="34.8987837" lon="33.6303641">
<ele>6.54</ele>
<time>2015-05-01T08:18:12Z</time>
</trkpt>
<trkpt lat="34.8986988" lon="33.6303672">
<ele>6.78</ele>
<time>2015-05-01T08:18:13Z</time>
</trkpt>
<trkpt lat="34.8986135" lon="33.6303696">
<ele>7.40</ele>
<time>2015-05-01T08:18:14Z</time>
</trkpt>
<trkpt lat="34.8985303" lon="33.6303757">
<ele>7.21</ele>
<time>2015-05-01T08:18:15Z</time>
</trkpt>
<trkpt lat="34.8984441" lon="33.6303818">
<ele>7.11</ele>
<time>2015-05-01T08:18:16Z</time>
</trkpt>
<trkpt lat="34.8983609" lon="33.6303885">
<ele>7.56</ele>
<time>2015-05-01T08:18:17Z</time>
</trkpt>
<trkpt lat="34.8982821" lon="33.6304007">
<ele>7.79</ele>
<time>2015-05-01T08:18:18Z</time>
</trkpt>
<trkpt lat="34.8981943" lon="33.6304110">
<ele>7.40</ele>
<time>2015-05-01T08:18:19Z</time>
</trkpt>
<trkpt lat="34.8981069" lon="33.6304184">
<ele>7.21</ele>
<time>2015-05-01T08:18:20Z</time>
</trkpt>
<trkpt lat="34.8980239" lon="33.6304250">
<ele>6.61</ele>
<time>2015-05-01T08:18:21Z</time>
</trkpt>
<trkpt lat="34.8979409" lon="33.6304289">
<ele>6.81</ele>
<time>2015-05-01T08:18:22Z</time>
</trkpt>
<trkpt lat="34.8978550" lon="33.6304360">
<ele>6.92</ele>
<time>2015-05-01T08:18:23Z</time>
</trkpt>
<trkpt lat="34.8977680" lon="33.6304420">
<ele>6.97</ele>
<time>2015-05-01T08:18:24Z</time>
</trkpt>
<trkpt lat="34.8976871" lon="33.6304480">
<ele>6.99</ele>
<time>2015-05-01T08:18:25Z</time>
</trkpt>
<trkpt lat="34.8976013" lon="33.6304520">
<ele>6.50</ele>
<time>2015-05-01T08:18:26Z</time>
</trkpt>
<trkpt lat="34.8975194" lon="33.6304595">
<ele>6.76</ele>
<time>2015-05-01T08:18:27Z</time>
</trkpt>
<trkpt lat="34.8974356" lon="33.6304688">
<ele>6.89</ele>
<time>2015-05-01T08:18:28Z</time>
</trkpt>
<trkpt lat="34.8973600" lon="33.6304794">
<ele>6.95</ele>
<time>2015-05-01T08:18:29Z</time>
</trkpt>
<trkpt lat="34.8972818" lon="33.6304875">
<ele>6.98</ele>
<time>2015-05-01T08:18:30Z</time>
</trkpt>
<trkpt lat="34.8972026" lon="33.6304955">
<ele>7.00</ele>
<time>2015-05-01T08:18:31Z</time>
</trkpt>
<trkpt lat="34.8971218" lon="33.6305041">
<ele>7.01</ele>
<time>2015-05-01T08:18:32Z</time>
</trkpt>
<trkpt lat="34.8970432" lon="33.6305148">
<ele>7.51</ele>
<time>2015-05-01T08:18:33Z</time>
</trkpt>
<trkpt lat="34.8969631" lon="33.6305263">
<ele>7.26</ele>
<time>2015-05-01T08:18:34Z</time>
</trkpt>
<trkpt lat="34.8968863" lon="33.6305425">
<ele>7.14</ele>
<time>2015-05-01T08:18:35Z</time>
</trkpt>
<trkpt lat="34.8968048" lon="33.6305585">
<ele>7.08</ele>
<time>2015-05-01T08:18:36Z</time>
</trkpt>
<trkpt lat="34.8967327" lon="33.6305796">
<ele>7.05</ele>
<time>2015-05-01T08:18:37Z</time>
</trkpt>
<trkpt lat="34.8966599" lon="33.6306015">
<ele>7.03</ele>
<time>2015-05-01T08:18:38Z</time>
</trkpt>
<trkpt lat="34.8965885" lon="33.6306281">
<ele>7.02</ele>
<time>2015-05-01T08:18:39Z</time>
</trkpt>
<trkpt lat="34.8965157" lon="33.6306516">
<ele>6.52</ele>
<time>2015-05-01T08:18:40Z</time>
</trkpt>
<trkpt lat="34.8964454" lon="33.6306816">
<ele>6.27</ele>
<time>2015-05-01T08:18:41Z</time>
</trkpt>
<trkpt lat="34.8963708" lon="33.6307131">
<ele>5.14</ele>
<time>2015-05-01T08:18:42Z</time>
</trkpt>
<trkpt lat="34.8963045" lon="33.6307465">
<ele>4.58</ele>
<time>2015-05-01T08:18:43Z</time>
</trkpt>
<trkpt lat="34.8962324" lon="33.6307904">
<ele>4.30</ele>
<time>2015-05-01T08:18:44Z</time>
</trkpt>
<trkpt lat="34.8961663" lon="33.6308277">
<ele>4.16</ele>
<time>2015-05-01T08:18:45Z</time>
</trkpt>
<trkpt lat="34.8960948" lon="33.6308677">
<ele>4.09</ele>
<time>2015-05-01T08:18:46Z</time>
</trkpt>
<trkpt lat="34.8960265" lon="33.6309130">
<ele>4.05</ele>
<time>2015-05-01T08:18:47Z</time>
</trkpt>
<trkpt lat="34.8959597" lon="33.6309608">
<ele>4.03</ele>
<time>2015-05-01T08:18:48Z</time>
</trkpt>
<trkpt lat="34.8959006" lon="33.6310025">
<ele>4.02</ele>
<time>2015-05-01T08:18:49Z</time>
</trkpt>
<trkpt lat="34.8958376" lon="33.6310472">
<ele>3.52</ele>
<time>2015-05-01T08:18:50Z</time>
</trkpt>
<trkpt lat="34.8957800" lon="33.6310936">
<ele>3.27</ele>
<time>2015-05-01T08:18:51Z</time>
</trkpt>
<trkpt lat="34.8957230" lon="33.6311401">
<ele>3.14</ele>
<time>2015-05-01T08:18:52Z</time>
</trkpt>
<trkpt lat="34.8956695" lon="33.6311853">
<ele>3.08</ele>
<time>2015-05-01T08:18:53Z</time>
</trkpt>
<trkpt lat="34.8956163" lon="33.6312258">
<ele>3.05</ele>
<time>2015-05-01T08:18:54Z</time>
</trkpt>
<trkpt lat="34.8955652" lon="33.6312674">
<ele>2.53</ele>
<time>2015-05-01T08:18:55Z</time>
</trkpt>
<trkpt lat="34.8955142" lon="33.6313094">
<ele>2.77</ele>
<time>2015-05-01T08:18:56Z</time>
</trkpt>
<trkpt lat="34.8954655" lon="33.6313497">
<ele>2.39</ele>
<time>2015-05-01T08:18:57Z</time>
</trkpt>
<trkpt lat="34.8954115" lon="33.6313895">
<ele>2.71</ele>
<time>2015-05-01T08:18:58Z</time>
</trkpt>
<trkpt lat="34.8953597" lon="33.6314304">
<ele>2.86</ele>
<time>2015-05-01T08:18:59Z</time>
</trkpt>
<trkpt lat="34.8953069" lon="33.6314746">
<ele>2.94</ele>
<time>2015-05-01T08:19:00Z</time>
</trkpt>
<trkpt lat="34.8952556" lon="33.6315190">
<ele>2.98</ele>
<time>2015-05-01T08:19:01Z</time>
</trkpt>
<trkpt lat="34.8952044" lon="33.6315557">
<ele>3.50</ele>
<time>2015-05-01T08:19:02Z</time>
</trkpt>
<trkpt lat="34.8951527" lon="33.6315996">
<ele>3.26</ele>
<time>2015-05-01T08:19:03Z</time>
</trkpt>
<trkpt lat="34.8951001" lon="33.6316454">
<ele>3.64</ele>
<time>2015-05-01T08:19:04Z</time>
</trkpt>
<trkpt lat="34.8950501" lon="33.6316848">
<ele>3.33</ele>
<time>2015-05-01T08:19:05Z</time>
</trkpt>
<trkpt lat="34.8949939" lon="33.6317302">
<ele>3.67</ele>
<time>2015-05-01T08:19:06Z</time>
</trkpt>
<trkpt lat="34.8949388" lon="33.6317790">
<ele>3.84</ele>
<time>2015-05-01T08:19:07Z</time>
</trkpt>
<trkpt lat="34.8948884" lon="33.6318266">
<ele>3.93</ele>
<time>2015-05-01T08:19:08Z</time>
</trkpt>
<trkpt lat="34.8948395" lon="33.6318703">
<ele>3.97</ele>
<time>2015-05-01T08:19:09Z</time>
</trkpt>
<trkpt lat="34.8947886" lon="33.6319154">
<ele>3.99</ele>
<time>2015-05-01T08:19:10Z</time>
</trkpt>
<trkpt lat="34.8947415" lon="33.6319587">
<ele>4.01</ele>
<time>2015-05-01T08:19:11Z</time>
</trkpt>
<trkpt lat="34.8946887" lon="33.6320053">
<ele>4.51</ele>
<time>2015-05-01T08:19:12Z</time>
</trkpt>
<trkpt lat="34.8946389" lon="33.6320503">
<ele>4.76</ele>
<time>2015-05-01T08:19:13Z</time>
</trkpt>
<trkpt lat="34.8945900" lon="33.6320884">
<ele>4.89</ele>
<time>2015-05-01T08:19:14Z</time>
</trkpt>
<trkpt lat="34.8945422" lon="33.6321258">
<ele>4.95</ele>
<time>2015-05-01T08:19:15Z</time>
</trkpt>
<trkpt lat="34.8944919" lon="33.6321595">
<ele>4.98</ele>
<time>2015-05-01T08:19:16Z</time>
</trkpt>
<trkpt lat="34.8944448" lon="33.6321944">
<ele>5.00</ele>
<time>2015-05-01T08:19:17Z</time>
</trkpt>
<trkpt lat="34.8943946" lon="33.6322280">
<ele>5.01</ele>
<time>2015-05-01T08:19:18Z</time>
</trkpt>
<trkpt lat="34.8943459" lon="33.6322607">
<ele>5.01</ele>
<time>2015-05-01T08:19:19Z</time>
</trkpt>
<trkpt lat="34.8942938" lon="33.6322943">
<ele>5.51</ele>
<time>2015-05-01T08:19:20Z</time>
</trkpt>
<trkpt lat="34.8942414" lon="33.6323196">
<ele>5.77</ele>
<time>2015-05-01T08:19:21Z</time>
</trkpt>
<trkpt lat="34.8941910" lon="33.6323486">
<ele>5.39</ele>
<time>2015-05-01T08:19:22Z</time>
</trkpt>
<trkpt lat="34.8941394" lon="33.6323721">
<ele>5.20</ele>
<time>2015-05-01T08:19:23Z</time>
</trkpt>
<trkpt lat="34.8940904" lon="33.6323924">
<ele>5.11</ele>
<time>2015-05-01T08:19:24Z</time>
</trkpt>
<trkpt lat="34.8940466" lon="33.6324157">
<ele>5.56</ele>
<time>2015-05-01T08:19:25Z</time>
</trkpt>
<trkpt lat="34.8940028" lon="33.6324349">
<ele>5.79</ele>
<time>2015-05-01T08:19:26Z</time>
</trkpt>
<trkpt lat="34.8939569" lon="33.6324473">
<ele>5.90</ele>
<time>2015-05-01T08:19:27Z</time>
</trkpt>
<trkpt lat="34.8938696" lon="33.6324612">
<ele>5.99</ele>
<time>2015-05-01T08:19:29Z</time>
</trkpt>
<trkpt lat="34.8938198" lon="33.6324761">
<ele>6.00</ele>
<time>2015-05-01T08:19:30Z</time>
</trkpt>
<trkpt lat="34.8937740" lon="33.6324861">
<ele>6.01</ele>
<time>2015-05-01T08:19:31Z</time>
</trkpt>
<trkpt lat="34.8937232" lon="33.6324952">
<ele>6.01</ele>
<time>2015-05-01T08:19:32Z</time>
</trkpt>
<trkpt lat="34.8936720" lon="33.6325006">
<ele>6.51</ele>
<time>2015-05-01T08:19:33Z</time>
</trkpt>
<trkpt lat="34.8936240" lon="33.6325066">
<ele>6.77</ele>
<time>2015-05-01T08:19:34Z</time>
</trkpt>
<trkpt lat="34.8935764" lon="33.6325098">
<ele>6.89</ele>
<time>2015-05-01T08:19:35Z</time>
</trkpt>
<trkpt lat="34.8934949" lon="33.6325128">
<ele>6.98</ele>
<time>2015-05-01T08:19:37Z</time>
</trkpt>
<trkpt lat="34.8934041" lon="33.6325202">
<ele>6.51</ele>
<time>2015-05-01T08:19:39Z</time>
</trkpt>
<trkpt lat="34.8933584" lon="33.6325226">
<ele>6.26</ele>
<time>2015-05-01T08:19:40Z</time>
</trkpt>
<trkpt lat="34.8933117" lon="33.6325104">
<ele>6.14</ele>
<time>2015-05-01T08:19:41Z</time>
</trkpt>
<trkpt lat="34.8932665" lon="33.6324983">
<ele>6.08</ele>
<time>2015-05-01T08:19:42Z</time>
</trkpt>
<trkpt lat="34.8932154" lon="33.6324854">
<ele>5.55</ele>
<time>2015-05-01T08:19:43Z</time>
</trkpt>
<trkpt lat="34.8931613" lon="33.6324730">
<ele>5.28</ele>
<time>2015-05-01T08:19:44Z</time>
</trkpt>
<trkpt lat="34.8931156" lon="33.6324626">
<ele>5.65</ele>
<time>2015-05-01T08:19:45Z</time>
</trkpt>
<trkpt lat="34.8930637" lon="33.6324505">
<ele>5.83</ele>
<time>2015-05-01T08:19:46Z</time>
</trkpt>
<trkpt lat="34.8930103" lon="33.6324351">
<ele>5.42</ele>
<time>2015-05-01T08:19:47Z</time>
</trkpt>
<trkpt lat="34.8929530" lon="33.6324137">
<ele>5.72</ele>
<time>2015-05-01T08:19:48Z</time>
</trkpt>
<trkpt lat="34.8929003" lon="33.6323923">
<ele>5.87</ele>
<time>2015-05-01T08:19:49Z</time>
</trkpt>
<trkpt lat="34.8928430" lon="33.6323675">
<ele>5.94</ele>
<time>2015-05-01T08:19:50Z</time>
</trkpt>
<trkpt lat="34.8927870" lon="33.6323419">
<ele>5.48</ele>
<time>2015-05-01T08:19:51Z</time>
</trkpt>
<trkpt lat="34.8927294" lon="33.6323194">
<ele>5.25</ele>
<time>2015-05-01T08:19:52Z</time>
</trkpt>
<trkpt lat="34.8926758" lon="33.6322915">
<ele>5.13</ele>
<time>2015-05-01T08:19:53Z</time>
</trkpt>
<trkpt lat="34.8926225" lon="33.6322596">
<ele>5.07</ele>
<time>2015-05-01T08:19:54Z</time>
</trkpt>
<trkpt lat="34.8925682" lon="33.6322234">
<ele>5.04</ele>
<time>2015-05-01T08:19:55Z</time>
</trkpt>
<trkpt lat="34.8925134" lon="33.6321838">
<ele>5.03</ele>
<time>2015-05-01T08:19:56Z</time>
</trkpt>
<trkpt lat="34.8924626" lon="33.6321491">
<ele>5.02</ele>
<time>2015-05-01T08:19:57Z</time>
</trkpt>
<trkpt lat="34.8924097" lon="33.6321100">
<ele>5.02</ele>
<time>2015-05-01T08:19:58Z</time>
</trkpt>
<trkpt lat="34.8923617" lon="33.6320685">
<ele>5.02</ele>
<time>2015-05-01T08:19:59Z</time>
</trkpt>
<trkpt lat="34.8923094" lon="33.6320180">
<ele>5.02</ele>
<time>2015-05-01T08:20:00Z</time>
</trkpt>
<trkpt lat="34.8922640" lon="33.6319759">
<ele>5.02</ele>
<time>2015-05-01T08:20:01Z</time>
</trkpt>
<trkpt lat="34.8922179" lon="33.6319299">
<ele>5.02</ele>
<time>2015-05-01T08:20:02Z</time>
</trkpt>
<trkpt lat="34.8921748" lon="33.6318860">
<ele>5.02</ele>
<time>2015-05-01T08:20:03Z</time>
</trkpt>
<trkpt lat="34.8921293" lon="33.6318438">
<ele>5.02</ele>
<time>2015-05-01T08:20:04Z</time>
</trkpt>
<trkpt lat="34.8920889" lon="33.6317976">
<ele>5.02</ele>
<time>2015-05-01T08:20:05Z</time>
</trkpt>
<trkpt lat="34.8920440" lon="33.6317554">
<ele>4.52</ele>
<time>2015-05-01T08:20:06Z</time>
</trkpt>
<trkpt lat="34.8919984" lon="33.6317102">
<ele>4.27</ele>
<time>2015-05-01T08:20:07Z</time>
</trkpt>
<trkpt lat="34.8919533" lon="33.6316657">
<ele>4.14</ele>
<time>2015-05-01T08:20:08Z</time>
</trkpt>
<trkpt lat="34.8919106" lon="33.6316250">
<ele>4.08</ele>
<time>2015-05-01T08:20:09Z</time>
</trkpt>
<trkpt lat="34.8918617" lon="33.6315874">
<ele>4.05</ele>
<time>2015-05-01T08:20:10Z</time>
</trkpt>
<trkpt lat="34.8918143" lon="33.6315462">
<ele>4.53</ele>
<time>2015-05-01T08:20:11Z</time>
</trkpt>
<trkpt lat="34.8917671" lon="33.6315023">
<ele>4.77</ele>
<time>2015-05-01T08:20:12Z</time>
</trkpt>
<trkpt lat="34.8917212" lon="33.6314626">
<ele>4.89</ele>
<time>2015-05-01T08:20:13Z</time>
</trkpt>
<trkpt lat="34.8916717" lon="33.6314211">
<ele>4.96</ele>
<time>2015-05-01T08:20:14Z</time>
</trkpt>
<trkpt lat="34.8916245" lon="33.6313775">
<ele>4.99</ele>
<time>2015-05-01T08:20:15Z</time>
</trkpt>
<trkpt lat="34.8915774" lon="33.6313312">
<ele>5.00</ele>
<time>2015-05-01T08:20:16Z</time>
</trkpt>
<trkpt lat="34.8915321" lon="33.6312883">
<ele>5.01</ele>
<time>2015-05-01T08:20:17Z</time>
</trkpt>
<trkpt lat="34.8914863" lon="33.6312476">
<ele>5.01</ele>
<time>2015-05-01T08:20:18Z</time>
</trkpt>
<trkpt lat="34.8914408" lon="33.6312070">
<ele>5.01</ele>
<time>2015-05-01T08:20:19Z</time>
</trkpt>
<trkpt lat="34.8913894" lon="33.6311638">
<ele>5.02</ele>
<time>2015-05-01T08:20:20Z</time>
</trkpt>
<trkpt lat="34.8913432" lon="33.6311228">
<ele>5.52</ele>
<time>2015-05-01T08:20:21Z</time>
</trkpt>
<trkpt lat="34.8912973" lon="33.6310873">
<ele>5.77</ele>
<time>2015-05-01T08:20:22Z</time>
</trkpt>
<trkpt lat="34.8912531" lon="33.6310469">
<ele>5.89</ele>
<time>2015-05-01T08:20:23Z</time>
</trkpt>
<trkpt lat="34.8912092" lon="33.6310038">
<ele>5.95</ele>
<time>2015-05-01T08:20:24Z</time>
</trkpt>
<trkpt lat="34.8911682" lon="33.6309631">
<ele>6.48</ele>
<time>2015-05-01T08:20:25Z</time>
</trkpt>
<trkpt lat="34.8911265" lon="33.6309252">
<ele>6.25</ele>
<time>2015-05-01T08:20:26Z</time>
</trkpt>
<trkpt lat="34.8910874" lon="33.6308865">
<ele>6.63</ele>
<time>2015-05-01T08:20:27Z</time>
</trkpt>
<trkpt lat="34.8910426" lon="33.6308445">
<ele>6.82</ele>
<time>2015-05-01T08:20:28Z</time>
</trkpt>
<trkpt lat="34.8910097" lon="33.6308045">
<ele>6.92</ele>
<time>2015-05-01T08:20:29Z</time>
</trkpt>
<trkpt lat="34.8909727" lon="33.6307663">
<ele>6.97</ele>
<time>2015-05-01T08:20:30Z</time>
</trkpt>
<trkpt lat="34.8909016" lon="33.6307018">
<ele>7.00</ele>
<time>2015-05-01T08:20:32Z</time>
</trkpt>
<trkpt lat="34.8908349" lon="33.6306358">
<ele>7.51</ele>
<time>2015-05-01T08:20:34Z</time>
</trkpt>
<trkpt lat="34.8907974" lon="33.6305992">
<ele>7.76</ele>
<time>2015-05-01T08:20:35Z</time>
</trkpt>
<trkpt lat="34.8907619" lon="33.6305627">
<ele>7.89</ele>
<time>2015-05-01T08:20:36Z</time>
</trkpt>
<trkpt lat="34.8907260" lon="33.6305267">
<ele>7.95</ele>
<time>2015-05-01T08:20:37Z</time>
</trkpt>
<trkpt lat="34.8906896" lon="33.6304865">
<ele>7.98</ele>
<time>2015-05-01T08:20:38Z</time>
</trkpt>
<trkpt lat="34.8906578" lon="33.6304465">
<ele>8.50</ele>
<time>2015-05-01T08:20:39Z</time>
</trkpt>
<trkpt lat="34.8906223" lon="33.6304045">
<ele>8.26</ele>
<time>2015-05-01T08:20:40Z</time>
</trkpt>
<trkpt lat="34.8905870" lon="33.6303641">
<ele>8.14</ele>
<time>2015-05-01T08:20:41Z</time>
</trkpt>
<trkpt lat="34.8905497" lon="33.6303246">
<ele>8.08</ele>
<time>2015-05-01T08:20:42Z</time>
</trkpt>
<trkpt lat="34.8905092" lon="33.6302847">
<ele>8.05</ele>
<time>2015-05-01T08:20:43Z</time>
</trkpt>
<trkpt lat="34.8904712" lon="33.6302407">
<ele>8.03</ele>
<time>2015-05-01T08:20:44Z</time>
</trkpt>
<trkpt lat="34.8904356" lon="33.6301998">
<ele>8.02</ele>
<time>2015-05-01T08:20:45Z</time>
</trkpt>
<trkpt lat="34.8903968" lon="33.6301600">
<ele>8.02</ele>
<time>2015-05-01T08:20:46Z</time>
</trkpt>
<trkpt lat="34.8903574" lon="33.6301123">
<ele>8.02</ele>
<time>2015-05-01T08:20:47Z</time>
</trkpt>
<trkpt lat="34.8903158" lon="33.6300730">
<ele>8.02</ele>
<time>2015-05-01T08:20:48Z</time>
</trkpt>
<trkpt lat="34.8902744" lon="33.6300294">
<ele>8.02</ele>
<time>2015-05-01T08:20:49Z</time>
</trkpt>
<trkpt lat="34.8902393" lon="33.6299855">
<ele>8.02</ele>
<time>2015-05-01T08:20:50Z</time>
</trkpt>
<trkpt lat="34.8902002" lon="33.6299418">
<ele>8.02</ele>
<time>2015-05-01T08:20:51Z</time>
</trkpt>
<trkpt lat="34.8901634" lon="33.6298944">
<ele>7.52</ele>
<time>2015-05-01T08:20:52Z</time>
</trkpt>
<trkpt lat="34.8901268" lon="33.6298505">
<ele>7.27</ele>
<time>2015-05-01T08:20:53Z</time>
</trkpt>
<trkpt lat="34.8900862" lon="33.6298027">
<ele>6.64</ele>
<time>2015-05-01T08:20:54Z</time>
</trkpt>
<trkpt lat="34.8900470" lon="33.6297547">
<ele>6.33</ele>
<time>2015-05-01T08:20:55Z</time>
</trkpt>
<trkpt lat="34.8899991" lon="33.6297084">
<ele>6.67</ele>
<time>2015-05-01T08:20:56Z</time>
</trkpt>
<trkpt lat="34.8899575" lon="33.6296660">
<ele>6.84</ele>
<time>2015-05-01T08:20:57Z</time>
</trkpt>
<trkpt lat="34.8899098" lon="33.6296207">
<ele>6.93</ele>
<time>2015-05-01T08:20:58Z</time>
</trkpt>
<trkpt lat="34.8898695" lon="33.6295749">
<ele>6.47</ele>
<time>2015-05-01T08:20:59Z</time>
</trkpt>
<trkpt lat="34.8898331" lon="33.6295242">
<ele>6.24</ele>
<time>2015-05-01T08:21:00Z</time>
</trkpt>
<trkpt lat="34.8898026" lon="33.6294800">
<ele>6.13</ele>
<time>2015-05-01T08:21:01Z</time>
</trkpt>
<trkpt lat="34.8897726" lon="33.6294312">
<ele>6.07</ele>
<time>2015-05-01T08:21:02Z</time>
</trkpt>
<trkpt lat="34.8897401" lon="33.6293838">
<ele>6.04</ele>
<time>2015-05-01T08:21:03Z</time>
</trkpt>
<trkpt lat="34.8897119" lon="33.6293382">
<ele>6.03</ele>
<time>2015-05-01T08:21:04Z</time>
</trkpt>
<trkpt lat="34.8896820" lon="33.6292921">
<ele>6.02</ele>
<time>2015-05-01T08:21:05Z</time>
</trkpt>
<trkpt lat="34.8896518" lon="33.6292488">
<ele>6.02</ele>
<time>2015-05-01T08:21:06Z</time>
</trkpt>
<trkpt lat="34.8896185" lon="33.6292049">
<ele>6.02</ele>
<time>2015-05-01T08:21:07Z</time>
</trkpt>
<trkpt lat="34.8895797" lon="33.6291534">
<ele>6.02</ele>
<time>2015-05-01T08:21:08Z</time>
</trkpt>
<trkpt lat="34.8895436" lon="33.6291047">
<ele>6.02</ele>
<time>2015-05-01T08:21:09Z</time>
</trkpt>
<trkpt lat="34.8895122" lon="33.6290531">
<ele>6.02</ele>
<time>2015-05-01T08:21:10Z</time>
</trkpt>
<trkpt lat="34.8894766" lon="33.6290038">
<ele>6.02</ele>
<time>2015-05-01T08:21:11Z</time>
</trkpt>
<trkpt lat="34.8894381" lon="33.6289523">
<ele>6.02</ele>
<time>2015-05-01T08:21:12Z</time>
</trkpt>
<trkpt lat="34.8894009" lon="33.6289029">
<ele>5.52</ele>
<time>2015-05-01T08:21:13Z</time>
</trkpt>
<trkpt lat="34.8893666" lon="33.6288493">
<ele>5.77</ele>
<time>2015-05-01T08:21:14Z</time>
</trkpt>
<trkpt lat="34.8893321" lon="33.6287956">
<ele>5.89</ele>
<time>2015-05-01T08:21:15Z</time>
</trkpt>
<trkpt lat="34.8892972" lon="33.6287400">
<ele>5.45</ele>
<time>2015-05-01T08:21:16Z</time>
</trkpt>
<trkpt lat="34.8892638" lon="33.6286950">
<ele>5.23</ele>
<time>2015-05-01T08:21:17Z</time>
</trkpt>
<trkpt lat="34.8892330" lon="33.6286444">
<ele>5.13</ele>
<time>2015-05-01T08:21:18Z</time>
</trkpt>
<trkpt lat="34.8891922" lon="33.6285921">
<ele>5.07</ele>
<time>2015-05-01T08:21:19Z</time>
</trkpt>
<trkpt lat="34.8891493" lon="33.6285410">
<ele>5.04</ele>
<time>2015-05-01T08:21:20Z</time>
</trkpt>
<trkpt lat="34.8891101" lon="33.6284898">
<ele>5.53</ele>
<time>2015-05-01T08:21:21Z</time>
</trkpt>
<trkpt lat="34.8890713" lon="33.6284341">
<ele>5.77</ele>
<time>2015-05-01T08:21:22Z</time>
</trkpt>
<trkpt lat="34.8890328" lon="33.6283793">
<ele>6.39</ele>
<time>2015-05-01T08:21:23Z</time>
</trkpt>
<trkpt lat="34.8889877" lon="33.6283208">
<ele>6.71</ele>
<time>2015-05-01T08:21:24Z</time>
</trkpt>
<trkpt lat="34.8889459" lon="33.6282631">
<ele>6.86</ele>
<time>2015-05-01T08:21:25Z</time>
</trkpt>
<trkpt lat="34.8888965" lon="33.6281979">
<ele>6.94</ele>
<time>2015-05-01T08:21:26Z</time>
</trkpt>
<trkpt lat="34.8888555" lon="33.6281404">
<ele>6.98</ele>
<time>2015-05-01T08:21:27Z</time>
</trkpt>
<trkpt lat="34.8888080" lon="33.6280759">
<ele>7.00</ele>
<time>2015-05-01T08:21:28Z</time>
</trkpt>
<trkpt lat="34.8887699" lon="33.6280173">
<ele>6.51</ele>
<time>2015-05-01T08:21:29Z</time>
</trkpt>
<trkpt lat="34.8887312" lon="33.6279608">
<ele>6.76</ele>
<time>2015-05-01T08:21:30Z</time>
</trkpt>
<trkpt lat="34.8886905" lon="33.6279100">
<ele>6.39</ele>
<time>2015-05-01T08:21:31Z</time>
</trkpt>
<trkpt lat="34.8886525" lon="33.6278569">
<ele>6.70</ele>
<time>2015-05-01T08:21:32Z</time>
</trkpt>
<trkpt lat="34.8886162" lon="33.6278054">
<ele>6.36</ele>
<time>2015-05-01T08:21:33Z</time>
</trkpt>
<trkpt lat="34.8885756" lon="33.6277533">
<ele>6.19</ele>
<time>2015-05-01T08:21:34Z</time>
</trkpt>
<trkpt lat="34.8885303" lon="33.6277024">
<ele>6.60</ele>
<time>2015-05-01T08:21:35Z</time>
</trkpt>
<trkpt lat="34.8884915" lon="33.6276356">
<ele>6.81</ele>
<time>2015-05-01T08:21:36Z</time>
</trkpt>
<trkpt lat="34.8884519" lon="33.6275822">
<ele>6.91</ele>
<time>2015-05-01T08:21:37Z</time>
</trkpt>
<trkpt lat="34.8884148" lon="33.6275270">
<ele>6.96</ele>
<time>2015-05-01T08:21:38Z</time>
</trkpt>
<trkpt lat="34.8883710" lon="33.6274688">
<ele>6.99</ele>
<time>2015-05-01T08:21:39Z</time>
</trkpt>
<trkpt lat="34.8883283" lon="33.6274070">
<ele>7.00</ele>
<time>2015-05-01T08:21:40Z</time>
</trkpt>
<trkpt lat="34.8882843" lon="33.6273509">
<ele>7.51</ele>
<time>2015-05-01T08:21:41Z</time>
</trkpt>
<trkpt lat="34.8882436" lon="33.6272872">
<ele>7.26</ele>
<time>2015-05-01T08:21:42Z</time>
</trkpt>
<trkpt lat="34.8882024" lon="33.6272314">
<ele>7.14</ele>
<time>2015-05-01T08:21:43Z</time>
</trkpt>
<trkpt lat="34.8881571" lon="33.6271750">
<ele>7.08</ele>
<time>2015-05-01T08:21:44Z</time>
</trkpt>
<trkpt lat="34.8881201" lon="33.6271125">
<ele>7.05</ele>
<time>2015-05-01T08:21:45Z</time>
</trkpt>
<trkpt lat="34.8880771" lon="33.6270499">
<ele>7.03</ele>
<time>2015-05-01T08:21:46Z</time>
</trkpt>
<trkpt lat="34.8880370" lon="33.6269922">
<ele>6.52</ele>
<time>2015-05-01T08:21:47Z</time>
</trkpt>
<trkpt lat="34.8879969" lon="33.6269370">
<ele>6.77</ele>
<time>2015-05-01T08:21:48Z</time>
</trkpt>
<trkpt lat="34.8879572" lon="33.6268720">
<ele>6.39</ele>
<time>2015-05-01T08:21:49Z</time>
</trkpt>
<trkpt lat="34.8879128" lon="33.6268129">
<ele>6.20</ele>
<time>2015-05-01T08:21:50Z</time>
</trkpt>
<trkpt lat="34.8878734" lon="33.6267552">
<ele>6.11</ele>
<time>2015-05-01T08:21:51Z</time>
</trkpt>
<trkpt lat="34.8878371" lon="33.6267013">
<ele>6.06</ele>
<time>2015-05-01T08:21:52Z</time>
</trkpt>
<trkpt lat="34.8877953" lon="33.6266442">
<ele>6.04</ele>
<time>2015-05-01T08:21:53Z</time>
</trkpt>
<trkpt lat="34.8877517" lon="33.6265865">
<ele>6.03</ele>
<time>2015-05-01T08:21:54Z</time>
</trkpt>
<trkpt lat="34.8877133" lon="33.6265310">
<ele>6.52</ele>
<time>2015-05-01T08:21:55Z</time>
</trkpt>
<trkpt lat="34.8876713" lon="33.6264716">
<ele>6.77</ele>
<time>2015-05-01T08:21:56Z</time>
</trkpt>
<trkpt lat="34.8876308" lon="33.6264154">
<ele>6.89</ele>
<time>2015-05-01T08:21:57Z</time>
</trkpt>
<trkpt lat="34.8875866" lon="33.6263535">
<ele>6.95</ele>
<time>2015-05-01T08:21:58Z</time>
</trkpt>
<trkpt lat="34.8875453" lon="33.6262964">
<ele>6.99</ele>
<time>2015-05-01T08:21:59Z</time>
</trkpt>
<trkpt lat="34.8875084" lon="33.6262369">
<ele>6.50</ele>
<time>2015-05-01T08:22:00Z</time>
</trkpt>
<trkpt lat="34.8874713" lon="33.6261899">
<ele>6.76</ele>
<time>2015-05-01T08:22:01Z</time>
</trkpt>
<trkpt lat="34.8874373" lon="33.6261414">
<ele>6.89</ele>
<time>2015-05-01T08:22:02Z</time>
</trkpt>
<trkpt lat="34.8874043" lon="33.6260890">
<ele>6.95</ele>
<time>2015-05-01T08:22:03Z</time>
</trkpt>
<trkpt lat="34.8873736" lon="33.6260371">
<ele>6.98</ele>
<time>2015-05-01T08:22:04Z</time>
</trkpt>
<trkpt lat="34.8873412" lon="33.6259909">
<ele>7.00</ele>
<time>2015-05-01T08:22:05Z</time>
</trkpt>
<trkpt lat="34.8873099" lon="33.6259434">
<ele>7.01</ele>
<time>2015-05-01T08:22:06Z</time>
</trkpt>
<trkpt lat="34.8872775" lon="33.6258956">
<ele>7.01</ele>
<time>2015-05-01T08:22:07Z</time>
</trkpt>
<trkpt lat="34.8872332" lon="33.6258418">
<ele>7.01</ele>
<time>2015-05-01T08:22:08Z</time>
</trkpt>
<trkpt lat="34.8871954" lon="33.6257952">
<ele>7.01</ele>
<time>2015-05-01T08:22:09Z</time>
</trkpt>
<trkpt lat="34.8871607" lon="33.6257436">
<ele>7.52</ele>
<time>2015-05-01T08:22:10Z</time>
</trkpt>
<trkpt lat="34.8871232" lon="33.6256939">
<ele>7.77</ele>
<time>2015-05-01T08:22:11Z</time>
</trkpt>
<trkpt lat="34.8870835" lon="33.6256429">
<ele>7.89</ele>
<time>2015-05-01T08:22:12Z</time>
</trkpt>
<trkpt lat="34.8870467" lon="33.6255906">
<ele>7.95</ele>
<time>2015-05-01T08:22:13Z</time>
</trkpt>
<trkpt lat="34.8870127" lon="33.6255290">
<ele>7.98</ele>
<time>2015-05-01T08:22:14Z</time>
</trkpt>
<trkpt lat="34.8869764" lon="33.6254736">
<ele>8.00</ele>
<time>2015-05-01T08:22:15Z</time>
</trkpt>
<trkpt lat="34.8869482" lon="33.6254097">
<ele>7.51</ele>
<time>2015-05-01T08:22:16Z</time>
</trkpt>
<trkpt lat="34.8869150" lon="33.6253513">
<ele>7.26</ele>
<time>2015-05-01T08:22:17Z</time>
</trkpt>
<trkpt lat="34.8868802" lon="33.6252946">
<ele>6.64</ele>
<time>2015-05-01T08:22:18Z</time>
</trkpt>
<trkpt lat="34.8868479" lon="33.6252382">
<ele>6.33</ele>
<time>2015-05-01T08:22:19Z</time>
</trkpt>
<trkpt lat="34.8868058" lon="33.6251814">
<ele>6.17</ele>
<time>2015-05-01T08:22:20Z</time>
</trkpt>
<trkpt lat="34.8867724" lon="33.6251218">
<ele>6.09</ele>
<time>2015-05-01T08:22:21Z</time>
</trkpt>
<trkpt lat="34.8867396" lon="33.6250543">
<ele>6.05</ele>
<time>2015-05-01T08:22:22Z</time>
</trkpt>
<trkpt lat="34.8867103" lon="33.6249896">
<ele>6.04</ele>
<time>2015-05-01T08:22:23Z</time>
</trkpt>
<trkpt lat="34.8866786" lon="33.6249258">
<ele>6.03</ele>
<time>2015-05-01T08:22:24Z</time>
</trkpt>
<trkpt lat="34.8866486" lon="33.6248586">
<ele>5.52</ele>
<time>2015-05-01T08:22:25Z</time>
</trkpt>
<trkpt lat="34.8866173" lon="33.6247931">
<ele>5.27</ele>
<time>2015-05-01T08:22:26Z</time>
</trkpt>
<trkpt lat="34.8865849" lon="33.6247292">
<ele>5.14</ele>
<time>2015-05-01T08:22:27Z</time>
</trkpt>
<trkpt lat="34.8865537" lon="33.6246644">
<ele>5.08</ele>
<time>2015-05-01T08:22:28Z</time>
</trkpt>
<trkpt lat="34.8865247" lon="33.6246049">
<ele>5.05</ele>
<time>2015-05-01T08:22:29Z</time>
</trkpt>
<trkpt lat="34.8864945" lon="33.6245424">
<ele>5.03</ele>
<time>2015-05-01T08:22:30Z</time>
</trkpt>
<trkpt lat="34.8864608" lon="33.6244776">
<ele>5.02</ele>
<time>2015-05-01T08:22:31Z</time>
</trkpt>
<trkpt lat="34.8864307" lon="33.6244080">
<ele>5.02</ele>
<time>2015-05-01T08:22:32Z</time>
</trkpt>
<trkpt lat="34.8864004" lon="33.6243430">
<ele>5.52</ele>
<time>2015-05-01T08:22:33Z</time>
</trkpt>
<trkpt lat="34.8863667" lon="33.6242743">
<ele>5.27</ele>
<time>2015-05-01T08:22:34Z</time>
</trkpt>
<trkpt lat="34.8863369" lon="33.6242096">
<ele>5.14</ele>
<time>2015-05-01T08:22:35Z</time>
</trkpt>
<trkpt lat="34.8863063" lon="33.6241510">
<ele>5.08</ele>
<time>2015-05-01T08:22:36Z</time>
</trkpt>
<trkpt lat="34.8862822" lon="33.6240872">
<ele>4.55</ele>
<time>2015-05-01T08:22:37Z</time>
</trkpt>
<trkpt lat="34.8862568" lon="33.6240291">
<ele>4.28</ele>
<time>2015-05-01T08:22:38Z</time>
</trkpt>
<trkpt lat="34.8862293" lon="33.6239702">
<ele>4.15</ele>
<time>2015-05-01T08:22:39Z</time>
</trkpt>
<trkpt lat="34.8861958" lon="33.6239093">
<ele>4.08</ele>
<time>2015-05-01T08:22:40Z</time>
</trkpt>
<trkpt lat="34.8861678" lon="33.6238482">
<ele>4.05</ele>
<time>2015-05-01T08:22:41Z</time>
</trkpt>
<trkpt lat="34.8861351" lon="33.6237816">
<ele>4.03</ele>
<time>2015-05-01T08:22:42Z</time>
</trkpt>
<trkpt lat="34.8861072" lon="33.6237200">
<ele>4.02</ele>
<time>2015-05-01T08:22:43Z</time>
</trkpt>
<trkpt lat="34.8860718" lon="33.6236570">
<ele>4.02</ele>
<time>2015-05-01T08:22:44Z</time>
</trkpt>
<trkpt lat="34.8860398" lon="33.6235935">
<ele>4.02</ele>
<time>2015-05-01T08:22:45Z</time>
</trkpt>
<trkpt lat="34.8860117" lon="33.6235252">
<ele>4.02</ele>
<time>2015-05-01T08:22:46Z</time>
</trkpt>
<trkpt lat="34.8859804" lon="33.6234596">
<ele>4.02</ele>
<time>2015-05-01T08:22:47Z</time>
</trkpt>
<trkpt lat="34.8859399" lon="33.6233913">
<ele>4.02</ele>
<time>2015-05-01T08:22:48Z</time>
</trkpt>
<trkpt lat="34.8859010" lon="33.6233319">
<ele>4.02</ele>
<time>2015-05-01T08:22:49Z</time>
</trkpt>
<trkpt lat="34.8858566" lon="33.6232728">
<ele>4.02</ele>
<time>2015-05-01T08:22:50Z</time>
</trkpt>
<trkpt lat="34.8858076" lon="33.6232082">
<ele>3.52</ele>
<time>2015-05-01T08:22:51Z</time>
</trkpt>
<trkpt lat="34.8857639" lon="33.6231548">
<ele>3.27</ele>
<time>2015-05-01T08:22:52Z</time>
</trkpt>
<trkpt lat="34.8857216" lon="33.6230998">
<ele>3.14</ele>
<time>2015-05-01T08:22:53Z</time>
</trkpt>
<trkpt lat="34.8856809" lon="33.6230551">
<ele>3.58</ele>
<time>2015-05-01T08:22:54Z</time>
</trkpt>
<trkpt lat="34.8856342" lon="33.6230103">
<ele>3.30</ele>
<time>2015-05-01T08:22:55Z</time>
</trkpt>
<trkpt lat="34.8855883" lon="33.6229658">
<ele>3.66</ele>
<time>2015-05-01T08:22:56Z</time>
</trkpt>
<trkpt lat="34.8855399" lon="33.6229254">
<ele>3.84</ele>
<time>2015-05-01T08:22:57Z</time>
</trkpt>
<trkpt lat="34.8854871" lon="33.6228827">
<ele>3.93</ele>
<time>2015-05-01T08:22:58Z</time>
</trkpt>
<trkpt lat="34.8854349" lon="33.6228473">
<ele>3.97</ele>
<time>2015-05-01T08:22:59Z</time>
</trkpt>
<trkpt lat="34.8853869" lon="33.6228109">
<ele>3.99</ele>
<time>2015-05-01T08:23:00Z</time>
</trkpt>
<trkpt lat="34.8853359" lon="33.6227753">
<ele>4.00</ele>
<time>2015-05-01T08:23:01Z</time>
</trkpt>
<trkpt lat="34.8852801" lon="33.6227426">
<ele>4.01</ele>
<time>2015-05-01T08:23:02Z</time>
</trkpt>
<trkpt lat="34.8852269" lon="33.6227087">
<ele>4.01</ele>
<time>2015-05-01T08:23:03Z</time>
</trkpt>
<trkpt lat="34.8851737" lon="33.6226861">
<ele>4.51</ele>
<time>2015-05-01T08:23:04Z</time>
</trkpt>
<trkpt lat="34.8851186" lon="33.6226605">
<ele>4.77</ele>
<time>2015-05-01T08:23:05Z</time>
</trkpt>
<trkpt lat="34.8850596" lon="33.6226398">
<ele>4.89</ele>
<time>2015-05-01T08:23:06Z</time>
</trkpt>
<trkpt lat="34.8850020" lon="33.6226181">
<ele>4.95</ele>
<time>2015-05-01T08:23:07Z</time>
</trkpt>
<trkpt lat="34.8849430" lon="33.6226024">
<ele>4.98</ele>
<time>2015-05-01T08:23:08Z</time>
</trkpt>
<trkpt lat="34.8848857" lon="33.6225836">
<ele>5.00</ele>
<time>2015-05-01T08:23:09Z</time>
</trkpt>
<trkpt lat="34.8848292" lon="33.6225712">
<ele>5.01</ele>
<time>2015-05-01T08:23:10Z</time>
</trkpt>
<trkpt lat="34.8847658" lon="33.6225624">
<ele>5.01</ele>
<time>2015-05-01T08:23:11Z</time>
</trkpt>
<trkpt lat="34.8847076" lon="33.6225551">
<ele>5.01</ele>
<time>2015-05-01T08:23:12Z</time>
</trkpt>
<trkpt lat="34.8846518" lon="33.6225503">
<ele>5.52</ele>
<time>2015-05-01T08:23:13Z</time>
</trkpt>
<trkpt lat="34.8845962" lon="33.6225445">
<ele>5.27</ele>
<time>2015-05-01T08:23:14Z</time>
</trkpt>
<trkpt lat="34.8845393" lon="33.6225392">
<ele>5.64</ele>
<time>2015-05-01T08:23:15Z</time>
</trkpt>
<trkpt lat="34.8844801" lon="33.6225380">
<ele>5.83</ele>
<time>2015-05-01T08:23:16Z</time>
</trkpt>
<trkpt lat="34.8844228" lon="33.6225364">
<ele>5.92</ele>
<time>2015-05-01T08:23:17Z</time>
</trkpt>
<trkpt lat="34.8843677" lon="33.6225331">
<ele>5.47</ele>
<time>2015-05-01T08:23:18Z</time>
</trkpt>
<trkpt lat="34.8843053" lon="33.6225324">
<ele>5.74</ele>
<time>2015-05-01T08:23:19Z</time>
</trkpt>
<trkpt lat="34.8842463" lon="33.6225355">
<ele>5.88</ele>
<time>2015-05-01T08:23:20Z</time>
</trkpt>
<trkpt lat="34.8841868" lon="33.6225321">
<ele>5.95</ele>
<time>2015-05-01T08:23:21Z</time>
</trkpt>
<trkpt lat="34.8841307" lon="33.6225334">
<ele>5.98</ele>
<time>2015-05-01T08:23:22Z</time>
</trkpt>
<trkpt lat="34.8840800" lon="33.6225368">
<ele>6.00</ele>
<time>2015-05-01T08:23:23Z</time>
</trkpt>
<trkpt lat="34.8840280" lon="33.6225473">
<ele>6.01</ele>
<time>2015-05-01T08:23:24Z</time>
</trkpt>
<trkpt lat="34.8839762" lon="33.6225595">
<ele>6.01</ele>
<time>2015-05-01T08:23:25Z</time>
</trkpt>
<trkpt lat="34.8839321" lon="33.6225733">
<ele>6.01</ele>
<time>2015-05-01T08:23:26Z</time>
</trkpt>
<trkpt lat="34.8838859" lon="33.6225883">
<ele>6.01</ele>
<time>2015-05-01T08:23:27Z</time>
</trkpt>
<trkpt lat="34.8838110" lon="33.6226284">
<ele>6.02</ele>
<time>2015-05-01T08:23:29Z</time>
</trkpt>
<trkpt lat="34.8837439" lon="33.6226504">
<ele>6.77</ele>
<time>2015-05-01T08:23:31Z</time>
</trkpt>
<trkpt lat="34.8836578" lon="33.6226525">
<ele>6.95</ele>
<time>2015-05-01T08:23:33Z</time>
</trkpt>
<trkpt lat="34.8836042" lon="33.6226580">
<ele>6.98</ele>
<time>2015-05-01T08:23:34Z</time>
</trkpt>
<trkpt lat="34.8835557" lon="33.6226765">
<ele>6.50</ele>
<time>2015-05-01T08:23:35Z</time>
</trkpt>
<trkpt lat="34.8835009" lon="33.6226906">
<ele>6.76</ele>
<time>2015-05-01T08:23:36Z</time>
</trkpt>
<trkpt lat="34.8834478" lon="33.6226846">
<ele>6.39</ele>
<time>2015-05-01T08:23:37Z</time>
</trkpt>
<trkpt lat="34.8833935" lon="33.6226673">
<ele>6.20</ele>
<time>2015-05-01T08:23:38Z</time>
</trkpt>
<trkpt lat="34.8833409" lon="33.6226502">
<ele>6.11</ele>
<time>2015-05-01T08:23:39Z</time>
</trkpt>
<trkpt lat="34.8833064" lon="33.6225923">
<ele>6.06</ele>
<time>2015-05-01T08:23:40Z</time>
</trkpt>
<trkpt lat="34.8832667" lon="33.6225526">
<ele>6.04</ele>
<time>2015-05-01T08:23:41Z</time>
</trkpt>
<trkpt lat="34.8832474" lon="33.6224947">
<ele>6.03</ele>
<time>2015-05-01T08:23:42Z</time>
</trkpt>
<trkpt lat="34.8832209" lon="33.6224436">
<ele>6.02</ele>
<time>2015-05-01T08:23:43Z</time>
</trkpt>
<trkpt lat="34.8832272" lon="33.6223822">
<ele>6.02</ele>
<time>2015-05-01T08:23:44Z</time>
</trkpt>
<trkpt lat="34.8832211" lon="33.6223275">
<ele>6.02</ele>
<time>2015-05-01T08:23:45Z</time>
</trkpt>
<trkpt lat="34.8832081" lon="33.6222212">
<ele>5.52</ele>
<time>2015-05-01T08:23:47Z</time>
</trkpt>
<trkpt lat="34.8831918" lon="33.6221599">
<ele>5.27</ele>
<time>2015-05-01T08:23:48Z</time>
</trkpt>
<trkpt lat="34.8831734" lon="33.6221048">
<ele>5.14</ele>
<time>2015-05-01T08:23:49Z</time>
</trkpt>
<trkpt lat="34.8831461" lon="33.6220505">
<ele>5.08</ele>
<time>2015-05-01T08:23:50Z</time>
</trkpt>
<trkpt lat="34.8831163" lon="33.6220062">
<ele>5.05</ele>
<time>2015-05-01T08:23:51Z</time>
</trkpt>
<trkpt lat="34.8830844" lon="33.6219638">
<ele>5.03</ele>
<time>2015-05-01T08:23:52Z</time>
</trkpt>
<trkpt lat="34.8830493" lon="33.6219196">
<ele>5.02</ele>
<time>2015-05-01T08:23:53Z</time>
</trkpt>
<trkpt lat="34.8830094" lon="33.6218779">
<ele>5.02</ele>
<time>2015-05-01T08:23:54Z</time>
</trkpt>
<trkpt lat="34.8829722" lon="33.6218318">
<ele>5.02</ele>
<time>2015-05-01T08:23:55Z</time>
</trkpt>
<trkpt lat="34.8829318" lon="33.6217868">
<ele>5.02</ele>
<time>2015-05-01T08:23:56Z</time>
</trkpt>
<trkpt lat="34.8828918" lon="33.6217420">
<ele>4.52</ele>
<time>2015-05-01T08:23:57Z</time>
</trkpt>
<trkpt lat="34.8828527" lon="33.6216958">
<ele>4.27</ele>
<time>2015-05-01T08:23:58Z</time>
</trkpt>
<trkpt lat="34.8828128" lon="33.6216489">
<ele>4.14</ele>
<time>2015-05-01T08:23:59Z</time>
</trkpt>
<trkpt lat="34.8827772" lon="33.6216039">
<ele>4.08</ele>
<time>2015-05-01T08:24:00Z</time>
</trkpt>
<trkpt lat="34.8827380" lon="33.6215563">
<ele>4.05</ele>
<time>2015-05-01T08:24:01Z</time>
</trkpt>
<trkpt lat="34.8826958" lon="33.6215014">
<ele>4.53</ele>
<time>2015-05-01T08:24:02Z</time>
</trkpt>
<trkpt lat="34.8826541" lon="33.6214528">
<ele>4.77</ele>
<time>2015-05-01T08:24:03Z</time>
</trkpt>
<trkpt lat="34.8826098" lon="33.6213911">
<ele>4.89</ele>
<time>2015-05-01T08:24:04Z</time>
</trkpt>
<trkpt lat="34.8825693" lon="33.6213426">
<ele>4.46</ele>
<time>2015-05-01T08:24:05Z</time>
</trkpt>
<trkpt lat="34.8825303" lon="33.6212917">
<ele>4.24</ele>
<time>2015-05-01T08:24:06Z</time>
</trkpt>
<trkpt lat="34.8824885" lon="33.6212408">
<ele>4.13</ele>
<time>2015-05-01T08:24:07Z</time>
</trkpt>
<trkpt lat="34.8824484" lon="33.6211944">
<ele>4.07</ele>
<time>2015-05-01T08:24:08Z</time>
</trkpt>
<trkpt lat="34.8824032" lon="33.6211421">
<ele>4.54</ele>
<time>2015-05-01T08:24:09Z</time>
</trkpt>
<trkpt lat="34.8823662" lon="33.6210905">
<ele>4.28</ele>
<time>2015-05-01T08:24:10Z</time>
</trkpt>
<trkpt lat="34.8823257" lon="33.6210397">
<ele>4.15</ele>
<time>2015-05-01T08:24:11Z</time>
</trkpt>
<trkpt lat="34.8822817" lon="33.6209904">
<ele>4.58</ele>
<time>2015-05-01T08:24:12Z</time>
</trkpt>
<trkpt lat="34.8822427" lon="33.6209416">
<ele>4.80</ele>
<time>2015-05-01T08:24:13Z</time>
</trkpt>
<trkpt lat="34.8822053" lon="33.6208920">
<ele>4.91</ele>
<time>2015-05-01T08:24:14Z</time>
</trkpt>
<trkpt lat="34.8821697" lon="33.6208443">
<ele>4.96</ele>
<time>2015-05-01T08:24:15Z</time>
</trkpt>
<trkpt lat="34.8821333" lon="33.6208014">
<ele>4.99</ele>
<time>2015-05-01T08:24:16Z</time>
</trkpt>
<trkpt lat="34.8820651" lon="33.6207246">
<ele>5.01</ele>
<time>2015-05-01T08:24:18Z</time>
</trkpt>
<trkpt lat="34.8820310" lon="33.6206760">
<ele>5.01</ele>
<time>2015-05-01T08:24:19Z</time>
</trkpt>
<trkpt lat="34.8819981" lon="33.6206306">
<ele>5.01</ele>
<time>2015-05-01T08:24:20Z</time>
</trkpt>
<trkpt lat="34.8819623" lon="33.6205852">
<ele>5.02</ele>
<time>2015-05-01T08:24:21Z</time>
</trkpt>
<trkpt lat="34.8819275" lon="33.6205350">
<ele>4.52</ele>
<time>2015-05-01T08:24:22Z</time>
</trkpt>
<trkpt lat="34.8818909" lon="33.6204899">
<ele>4.27</ele>
<time>2015-05-01T08:24:23Z</time>
</trkpt>
<trkpt lat="34.8818458" lon="33.6204483">
<ele>4.14</ele>
<time>2015-05-01T08:24:24Z</time>
</trkpt>
<trkpt lat="34.8818075" lon="33.6204032">
<ele>4.08</ele>
<time>2015-05-01T08:24:25Z</time>
</trkpt>
<trkpt lat="34.8817689" lon="33.6203533">
<ele>4.05</ele>
<time>2015-05-01T08:24:26Z</time>
</trkpt>
<trkpt lat="34.8817320" lon="33.6203023">
<ele>3.53</ele>
<time>2015-05-01T08:24:27Z</time>
</trkpt>
<trkpt lat="34.8816917" lon="33.6202553">
<ele>3.27</ele>
<time>2015-05-01T08:24:28Z</time>
</trkpt>
<trkpt lat="34.8816505" lon="33.6202055">
<ele>3.14</ele>
<time>2015-05-01T08:24:29Z</time>
</trkpt>
<trkpt lat="34.8816116" lon="33.6201563">
<ele>3.08</ele>
<time>2015-05-01T08:24:30Z</time>
</trkpt>
<trkpt lat="34.8815708" lon="33.6201087">
<ele>3.05</ele>
<time>2015-05-01T08:24:31Z</time>
</trkpt>
<trkpt lat="34.8815280" lon="33.6200588">
<ele>3.03</ele>
<time>2015-05-01T08:24:32Z</time>
</trkpt>
<trkpt lat="34.8814879" lon="33.6200106">
<ele>3.02</ele>
<time>2015-05-01T08:24:33Z</time>
</trkpt>
<trkpt lat="34.8814432" lon="33.6199623">
<ele>3.02</ele>
<time>2015-05-01T08:24:34Z</time>
</trkpt>
<trkpt lat="34.8814034" lon="33.6199092">
<ele>3.02</ele>
<time>2015-05-01T08:24:35Z</time>
</trkpt>
<trkpt lat="34.8813597" lon="33.6198610">
<ele>3.02</ele>
<time>2015-05-01T08:24:36Z</time>
</trkpt>
<trkpt lat="34.8813196" lon="33.6198082">
<ele>3.02</ele>
<time>2015-05-01T08:24:37Z</time>
</trkpt>
<trkpt lat="34.8812728" lon="33.6197576">
<ele>3.52</ele>
<time>2015-05-01T08:24:38Z</time>
</trkpt>
<trkpt lat="34.8812302" lon="33.6197084">
<ele>3.77</ele>
<time>2015-05-01T08:24:39Z</time>
</trkpt>
<trkpt lat="34.8811942" lon="33.6196533">
<ele>3.89</ele>
<time>2015-05-01T08:24:40Z</time>
</trkpt>
<trkpt lat="34.8811533" lon="33.6196020">
<ele>3.45</ele>
<time>2015-05-01T08:24:41Z</time>
</trkpt>
<trkpt lat="34.8811136" lon="33.6195498">
<ele>3.23</ele>
<time>2015-05-01T08:24:42Z</time>
</trkpt>
<trkpt lat="34.8810715" lon="33.6194994">
<ele>3.13</ele>
<time>2015-05-01T08:24:43Z</time>
</trkpt>
<trkpt lat="34.8810314" lon="33.6194449">
<ele>3.07</ele>
<time>2015-05-01T08:24:44Z</time>
</trkpt>
<trkpt lat="34.8809934" lon="33.6193968">
<ele>3.04</ele>
<time>2015-05-01T08:24:45Z</time>
</trkpt>
<trkpt lat="34.8809573" lon="33.6193513">
<ele>3.03</ele>
<time>2015-05-01T08:24:46Z</time>
</trkpt>
<trkpt lat="34.8809179" lon="33.6193054">
<ele>2.52</ele>
<time>2015-05-01T08:24:47Z</time>
</trkpt>
<trkpt lat="34.8808819" lon="33.6192489">
<ele>2.27</ele>
<time>2015-05-01T08:24:48Z</time>
</trkpt>
<trkpt lat="34.8808422" lon="33.6191964">
<ele>2.64</ele>
<time>2015-05-01T08:24:49Z</time>
</trkpt>
<trkpt lat="34.8807939" lon="33.6191512">
<ele>3.33</ele>
<time>2015-05-01T08:24:50Z</time>
</trkpt>
<trkpt lat="34.8807158" lon="33.6190767">
<ele>4.34</ele>
<time>2015-05-01T08:24:52Z</time>
</trkpt>
<trkpt lat="34.8806743" lon="33.6190395">
<ele>4.68</ele>
<time>2015-05-01T08:24:53Z</time>
</trkpt>
<trkpt lat="34.8806427" lon="33.6189946">
<ele>4.85</ele>
<time>2015-05-01T08:24:54Z</time>
</trkpt>
<trkpt lat="34.8806097" lon="33.6189486">
<ele>4.93</ele>
<time>2015-05-01T08:24:55Z</time>
</trkpt>
<trkpt lat="34.8805693" lon="33.6189064">
<ele>4.97</ele>
<time>2015-05-01T08:24:56Z</time>
</trkpt>
<trkpt lat="34.8805378" lon="33.6188658">
<ele>5.50</ele>
<time>2015-05-01T08:24:57Z</time>
</trkpt>
<trkpt lat="34.8804628" lon="33.6187785">
<ele>5.39</ele>
<time>2015-05-01T08:24:59Z</time>
</trkpt>
<trkpt lat="34.8804174" lon="33.6187299">
<ele>5.70</ele>
<time>2015-05-01T08:25:00Z</time>
</trkpt>
<trkpt lat="34.8803833" lon="33.6186790">
<ele>6.36</ele>
<time>2015-05-01T08:25:01Z</time>
</trkpt>
<trkpt lat="34.8803495" lon="33.6186403">
<ele>5.69</ele>
<time>2015-05-01T08:25:02Z</time>
</trkpt>
<trkpt lat="34.8803062" lon="33.6185888">
<ele>5.85</ele>
<time>2015-05-01T08:25:03Z</time>
</trkpt>
<trkpt lat="34.8802660" lon="33.6185315">
<ele>5.93</ele>
<time>2015-05-01T08:25:04Z</time>
</trkpt>
<trkpt lat="34.8802310" lon="33.6184905">
<ele>5.97</ele>
<time>2015-05-01T08:25:05Z</time>
</trkpt>
<trkpt lat="34.8801936" lon="33.6184378">
<ele>6.00</ele>
<time>2015-05-01T08:25:06Z</time>
</trkpt>
<trkpt lat="34.8801463" lon="33.6183854">
<ele>6.51</ele>
<time>2015-05-01T08:25:07Z</time>
</trkpt>
<trkpt lat="34.8801007" lon="33.6183276">
<ele>6.76</ele>
<time>2015-05-01T08:25:08Z</time>
</trkpt>
<trkpt lat="34.8800570" lon="33.6182694">
<ele>6.89</ele>
<time>2015-05-01T08:25:09Z</time>
</trkpt>
<trkpt lat="34.8800020" lon="33.6182151">
<ele>6.95</ele>
<time>2015-05-01T08:25:10Z</time>
</trkpt>
<trkpt lat="34.8799579" lon="33.6181681">
<ele>6.98</ele>
<time>2015-05-01T08:25:11Z</time>
</trkpt>
<trkpt lat="34.8799140" lon="33.6181142">
<ele>6.50</ele>
<time>2015-05-01T08:25:12Z</time>
</trkpt>
<trkpt lat="34.8798748" lon="33.6180676">
<ele>6.26</ele>
<time>2015-05-01T08:25:13Z</time>
</trkpt>
<trkpt lat="34.8798345" lon="33.6180298">
<ele>6.64</ele>
<time>2015-05-01T08:25:14Z</time>
</trkpt>
<trkpt lat="34.8798015" lon="33.6179875">
<ele>6.83</ele>
<time>2015-05-01T08:25:15Z</time>
</trkpt>
<trkpt lat="34.8797621" lon="33.6179321">
<ele>6.92</ele>
<time>2015-05-01T08:25:16Z</time>
</trkpt>
<trkpt lat="34.8797182" lon="33.6178819">
<ele>6.97</ele>
<time>2015-05-01T08:25:17Z</time>
</trkpt>
<trkpt lat="34.8796859" lon="33.6178386">
<ele>6.99</ele>
<time>2015-05-01T08:25:18Z</time>
</trkpt>
<trkpt lat="34.8796333" lon="33.6177953">
<ele>7.00</ele>
<time>2015-05-01T08:25:19Z</time>
</trkpt>
<trkpt lat="34.8795899" lon="33.6177436">
<ele>7.01</ele>
<time>2015-05-01T08:25:20Z</time>
</trkpt>
<trkpt lat="34.8795487" lon="33.6176931">
<ele>7.01</ele>
<time>2015-05-01T08:25:21Z</time>
</trkpt>
<trkpt lat="34.8795136" lon="33.6176325">
<ele>6.51</ele>
<time>2015-05-01T08:25:22Z</time>
</trkpt>
<trkpt lat="34.8794588" lon="33.6176108">
<ele>6.77</ele>
<time>2015-05-01T08:25:23Z</time>
</trkpt>
<trkpt lat="34.8794150" lon="33.6175637">
<ele>6.89</ele>
<time>2015-05-01T08:25:24Z</time>
</trkpt>
<trkpt lat="34.8793737" lon="33.6175099">
<ele>6.45</ele>
<time>2015-05-01T08:25:25Z</time>
</trkpt>
<trkpt lat="34.8793315" lon="33.6174598">
<ele>6.73</ele>
<time>2015-05-01T08:25:26Z</time>
</trkpt>
<trkpt lat="34.8792906" lon="33.6174058">
<ele>6.88</ele>
<time>2015-05-01T08:25:27Z</time>
</trkpt>
<trkpt lat="34.8792484" lon="33.6173437">
<ele>6.95</ele>
<time>2015-05-01T08:25:28Z</time>
</trkpt>
<trkpt lat="34.8792037" lon="33.6172899">
<ele>6.98</ele>
<time>2015-05-01T08:25:29Z</time>
</trkpt>
<trkpt lat="34.8791570" lon="33.6172308">
<ele>7.00</ele>
<time>2015-05-01T08:25:30Z</time>
</trkpt>
<trkpt lat="34.8791124" lon="33.6171704">
<ele>7.01</ele>
<time>2015-05-01T08:25:31Z</time>
</trkpt>
<trkpt lat="34.8790710" lon="33.6171205">
<ele>7.01</ele>
<time>2015-05-01T08:25:32Z</time>
</trkpt>
<trkpt lat="34.8790339" lon="33.6170798">
<ele>7.51</ele>
<time>2015-05-01T08:25:33Z</time>
</trkpt>
<trkpt lat="34.8789948" lon="33.6170338">
<ele>7.76</ele>
<time>2015-05-01T08:25:34Z</time>
</trkpt>
<trkpt lat="34.8789581" lon="33.6169747">
<ele>7.89</ele>
<time>2015-05-01T08:25:35Z</time>
</trkpt>
<trkpt lat="34.8789201" lon="33.6169172">
<ele>7.95</ele>
<time>2015-05-01T08:25:36Z</time>
</trkpt>
<trkpt lat="34.8788756" lon="33.6168605">
<ele>7.98</ele>
<time>2015-05-01T08:25:37Z</time>
</trkpt>
<trkpt lat="34.8788342" lon="33.6168146">
<ele>8.50</ele>
<time>2015-05-01T08:25:38Z</time>
</trkpt>
<trkpt lat="34.8787956" lon="33.6167757">
<ele>9.26</ele>
<time>2015-05-01T08:25:39Z</time>
</trkpt>
<trkpt lat="34.8787599" lon="33.6167214">
<ele>9.14</ele>
<time>2015-05-01T08:25:40Z</time>
</trkpt>
<trkpt lat="34.8787249" lon="33.6166758">
<ele>9.58</ele>
<time>2015-05-01T08:25:41Z</time>
</trkpt>
<trkpt lat="34.8786966" lon="33.6166319">
<ele>9.30</ele>
<time>2015-05-01T08:25:42Z</time>
</trkpt>
<trkpt lat="34.8786622" lon="33.6165956">
<ele>9.16</ele>
<time>2015-05-01T08:25:43Z</time>
</trkpt>
<trkpt lat="34.8786314" lon="33.6165536">
<ele>9.09</ele>
<time>2015-05-01T08:25:44Z</time>
</trkpt>
<trkpt lat="34.8785676" lon="33.6164704">
<ele>10.03</ele>
<time>2015-05-01T08:25:46Z</time>
</trkpt>
<trkpt lat="34.8785009" lon="33.6163944">
<ele>10.02</ele>
<time>2015-05-01T08:25:48Z</time>
</trkpt>
<trkpt lat="34.8784338" lon="33.6163102">
<ele>10.77</ele>
<time>2015-05-01T08:25:50Z</time>
</trkpt>
<trkpt lat="34.8784003" lon="33.6162591">
<ele>10.89</ele>
<time>2015-05-01T08:25:51Z</time>
</trkpt>
<trkpt lat="34.8783594" lon="33.6162250">
<ele>11.45</ele>
<time>2015-05-01T08:25:52Z</time>
</trkpt>
<trkpt lat="34.8783272" lon="33.6161754">
<ele>11.23</ele>
<time>2015-05-01T08:25:53Z</time>
</trkpt>
<trkpt lat="34.8782912" lon="33.6161271">
<ele>12.13</ele>
<time>2015-05-01T08:25:54Z</time>
</trkpt>
<trkpt lat="34.8782482" lon="33.6160680">
<ele>11.57</ele>
<time>2015-05-01T08:25:55Z</time>
</trkpt>
<trkpt lat="34.8782054" lon="33.6160115">
<ele>11.29</ele>
<time>2015-05-01T08:25:56Z</time>
</trkpt>
<trkpt lat="34.8781566" lon="33.6159534">
<ele>11.15</ele>
<time>2015-05-01T08:25:57Z</time>
</trkpt>
<trkpt lat="34.8781140" lon="33.6158964">
<ele>10.59</ele>
<time>2015-05-01T08:25:58Z</time>
</trkpt>
<trkpt lat="34.8780774" lon="33.6158424">
<ele>10.30</ele>
<time>2015-05-01T08:25:59Z</time>
</trkpt>
<trkpt lat="34.8780356" lon="33.6157930">
<ele>10.16</ele>
<time>2015-05-01T08:26:00Z</time>
</trkpt>
<trkpt lat="34.8779934" lon="33.6157491">
<ele>10.59</ele>
<time>2015-05-01T08:26:01Z</time>
</trkpt>
<trkpt lat="34.8779583" lon="33.6156981">
<ele>10.30</ele>
<time>2015-05-01T08:26:02Z</time>
</trkpt>
<trkpt lat="34.8779195" lon="33.6156348">
<ele>10.16</ele>
<time>2015-05-01T08:26:03Z</time>
</trkpt>
<trkpt lat="34.8778835" lon="33.6155809">
<ele>10.09</ele>
<time>2015-05-01T08:26:04Z</time>
</trkpt>
<trkpt lat="34.8778498" lon="33.6155142">
<ele>10.05</ele>
<time>2015-05-01T08:26:05Z</time>
</trkpt>
<trkpt lat="34.8778183" lon="33.6154544">
<ele>9.53</ele>
<time>2015-05-01T08:26:06Z</time>
</trkpt>
<trkpt lat="34.8777911" lon="33.6154031">
<ele>8.77</ele>
<time>2015-05-01T08:26:07Z</time>
</trkpt>
<trkpt lat="34.8777639" lon="33.6153476">
<ele>8.90</ele>
<time>2015-05-01T08:26:08Z</time>
</trkpt>
<trkpt lat="34.8777340" lon="33.6152957">
<ele>8.96</ele>
<time>2015-05-01T08:26:09Z</time>
</trkpt>
<trkpt lat="34.8777110" lon="33.6152396">
<ele>8.49</ele>
<time>2015-05-01T08:26:10Z</time>
</trkpt>
<trkpt lat="34.8776858" lon="33.6151899">
<ele>8.75</ele>
<time>2015-05-01T08:26:11Z</time>
</trkpt>
<trkpt lat="34.8776635" lon="33.6151385">
<ele>7.88</ele>
<time>2015-05-01T08:26:12Z</time>
</trkpt>
<trkpt lat="34.8776436" lon="33.6150883">
<ele>7.45</ele>
<time>2015-05-01T08:26:13Z</time>
</trkpt>
<trkpt lat="34.8776197" lon="33.6150412">
<ele>7.73</ele>
<time>2015-05-01T08:26:14Z</time>
</trkpt>
<trkpt lat="34.8775677" lon="33.6149424">
<ele>7.95</ele>
<time>2015-05-01T08:26:16Z</time>
</trkpt>
<trkpt lat="34.8775412" lon="33.6148878">
<ele>7.98</ele>
<time>2015-05-01T08:26:17Z</time>
</trkpt>
<trkpt lat="34.8775219" lon="33.6148359">
<ele>8.00</ele>
<time>2015-05-01T08:26:18Z</time>
</trkpt>
<trkpt lat="34.8775052" lon="33.6147788">
<ele>8.51</ele>
<time>2015-05-01T08:26:19Z</time>
</trkpt>
<trkpt lat="34.8774806" lon="33.6147161">
<ele>9.26</ele>
<time>2015-05-01T08:26:20Z</time>
</trkpt>
<trkpt lat="34.8774600" lon="33.6146552">
<ele>9.64</ele>
<time>2015-05-01T08:26:21Z</time>
</trkpt>
<trkpt lat="34.8774345" lon="33.6145890">
<ele>8.83</ele>
<time>2015-05-01T08:26:22Z</time>
</trkpt>
<trkpt lat="34.8774033" lon="33.6145281">
<ele>8.42</ele>
<time>2015-05-01T08:26:23Z</time>
</trkpt>
<trkpt lat="34.8773848" lon="33.6144708">
<ele>8.72</ele>
<time>2015-05-01T08:26:24Z</time>
</trkpt>
<trkpt lat="34.8773575" lon="33.6144027">
<ele>8.87</ele>
<time>2015-05-01T08:26:25Z</time>
</trkpt>
<trkpt lat="34.8773370" lon="33.6143357">
<ele>8.94</ele>
<time>2015-05-01T08:26:26Z</time>
</trkpt>
<trkpt lat="34.8773093" lon="33.6142656">
<ele>9.48</ele>
<time>2015-05-01T08:26:27Z</time>
</trkpt>
<trkpt lat="34.8772900" lon="33.6142093">
<ele>10.25</ele>
<time>2015-05-01T08:26:28Z</time>
</trkpt>
<trkpt lat="34.8772753" lon="33.6141413">
<ele>10.63</ele>
<time>2015-05-01T08:26:29Z</time>
</trkpt>
<trkpt lat="34.8772647" lon="33.6140839">
<ele>11.82</ele>
<time>2015-05-01T08:26:30Z</time>
</trkpt>
<trkpt lat="34.8772506" lon="33.6140270">
<ele>12.42</ele>
<time>2015-05-01T08:26:31Z</time>
</trkpt>
<trkpt lat="34.8772341" lon="33.6139333">
<ele>11.22</ele>
<time>2015-05-01T08:26:32Z</time>
</trkpt>
<trkpt lat="34.8772157" lon="33.6138752">
<ele>10.12</ele>
<time>2015-05-01T08:26:33Z</time>
</trkpt>
<trkpt lat="34.8772036" lon="33.6138056">
<ele>9.57</ele>
<time>2015-05-01T08:26:34Z</time>
</trkpt>
<trkpt lat="34.8771874" lon="33.6137503">
<ele>9.29</ele>
<time>2015-05-01T08:26:35Z</time>
</trkpt>
<trkpt lat="34.8771731" lon="33.6136832">
<ele>8.65</ele>
<time>2015-05-01T08:26:36Z</time>
</trkpt>
<trkpt lat="34.8771624" lon="33.6136266">
<ele>8.33</ele>
<time>2015-05-01T08:26:37Z</time>
</trkpt>
<trkpt lat="34.8771487" lon="33.6135613">
<ele>7.68</ele>
<time>2015-05-01T08:26:38Z</time>
</trkpt>
<trkpt lat="34.8771369" lon="33.6135078">
<ele>7.85</ele>
<time>2015-05-01T08:26:39Z</time>
</trkpt>
<trkpt lat="34.8771178" lon="33.6134449">
<ele>7.93</ele>
<time>2015-05-01T08:26:40Z</time>
</trkpt>
<trkpt lat="34.8771066" lon="33.6133851">
<ele>7.47</ele>
<time>2015-05-01T08:26:41Z</time>
</trkpt>
<trkpt lat="34.8770920" lon="33.6133282">
<ele>7.24</ele>
<time>2015-05-01T08:26:42Z</time>
</trkpt>
<trkpt lat="34.8770387" lon="33.6132389">
<ele>7.07</ele>
<time>2015-05-01T08:26:44Z</time>
</trkpt>
<trkpt lat="34.8769876" lon="33.6131616">
<ele>7.03</ele>
<time>2015-05-01T08:26:46Z</time>
</trkpt>
<trkpt lat="34.8769624" lon="33.6131130">
<ele>7.02</ele>
<time>2015-05-01T08:26:47Z</time>
</trkpt>
<trkpt lat="34.8769362" lon="33.6130645">
<ele>7.02</ele>
<time>2015-05-01T08:26:48Z</time>
</trkpt>
<trkpt lat="34.8769099" lon="33.6129638">
<ele>7.52</ele>
<time>2015-05-01T08:26:50Z</time>
</trkpt>
<trkpt lat="34.8769115" lon="33.6129060">
<ele>7.77</ele>
<time>2015-05-01T08:26:51Z</time>
</trkpt>
<trkpt lat="34.8769362" lon="33.6128051">
<ele>7.95</ele>
<time>2015-05-01T08:26:53Z</time>
</trkpt>
<trkpt lat="34.8769619" lon="33.6127540">
<ele>8.48</ele>
<time>2015-05-01T08:26:54Z</time>
</trkpt>
<trkpt lat="34.8769836" lon="33.6127021">
<ele>8.75</ele>
<time>2015-05-01T08:26:55Z</time>
</trkpt>
<trkpt lat="34.8770099" lon="33.6126405">
<ele>8.88</ele>
<time>2015-05-01T08:26:56Z</time>
</trkpt>
<trkpt lat="34.8770220" lon="33.6125817">
<ele>8.95</ele>
<time>2015-05-01T08:26:57Z</time>
</trkpt>
<trkpt lat="34.8770308" lon="33.6125155">
<ele>8.98</ele>
<time>2015-05-01T08:26:58Z</time>
</trkpt>
<trkpt lat="34.8770411" lon="33.6124538">
<ele>9.50</ele>
<time>2015-05-01T08:26:59Z</time>
</trkpt>
<trkpt lat="34.8770490" lon="33.6123862">
<ele>9.76</ele>
<time>2015-05-01T08:27:00Z</time>
</trkpt>
<trkpt lat="34.8770539" lon="33.6123210">
<ele>9.89</ele>
<time>2015-05-01T08:27:01Z</time>
</trkpt>
<trkpt lat="34.8770539" lon="33.6122532">
<ele>9.45</ele>
<time>2015-05-01T08:27:02Z</time>
</trkpt>
<trkpt lat="34.8770463" lon="33.6121907">
<ele>9.73</ele>
<time>2015-05-01T08:27:03Z</time>
</trkpt>
<trkpt lat="34.8770476" lon="33.6121221">
<ele>9.87</ele>
<time>2015-05-01T08:27:04Z</time>
</trkpt>
<trkpt lat="34.8770495" lon="33.6120238">
<ele>9.48</ele>
<time>2015-05-01T08:27:06Z</time>
</trkpt>
<trkpt lat="34.8770546" lon="33.6119344">
<ele>9.88</ele>
<time>2015-05-01T08:27:08Z</time>
</trkpt>
<trkpt lat="34.8770450" lon="33.6118587">
<ele>8.48</ele>
<time>2015-05-01T08:27:10Z</time>
</trkpt>
<trkpt lat="34.8770599" lon="33.6117736">
<ele>8.63</ele>
<time>2015-05-01T08:27:12Z</time>
</trkpt>
<trkpt lat="34.8770589" lon="33.6116792">
<ele>8.92</ele>
<time>2015-05-01T08:27:14Z</time>
</trkpt>
<trkpt lat="34.8770610" lon="33.6115831">
<ele>9.49</ele>
<time>2015-05-01T08:27:16Z</time>
</trkpt>
<trkpt lat="34.8770707" lon="33.6114814">
<ele>9.89</ele>
<time>2015-05-01T08:27:18Z</time>
</trkpt>
<trkpt lat="34.8770901" lon="33.6114200">
<ele>9.95</ele>
<time>2015-05-01T08:27:19Z</time>
</trkpt>
<trkpt lat="34.8770941" lon="33.6113525">
<ele>10.48</ele>
<time>2015-05-01T08:27:20Z</time>
</trkpt>
<trkpt lat="34.8771068" lon="33.6112818">
<ele>10.25</ele>
<time>2015-05-01T08:27:21Z</time>
</trkpt>
<trkpt lat="34.8771131" lon="33.6112198">
<ele>10.13</ele>
<time>2015-05-01T08:27:22Z</time>
</trkpt>
<trkpt lat="34.8771147" lon="33.6111580">
<ele>10.07</ele>
<time>2015-05-01T08:27:23Z</time>
</trkpt>
<trkpt lat="34.8771259" lon="33.6110948">
<ele>10.05</ele>
<time>2015-05-01T08:27:24Z</time>
</trkpt>
<trkpt lat="34.8771354" lon="33.6110302">
<ele>10.03</ele>
<time>2015-05-01T08:27:25Z</time>
</trkpt>
<trkpt lat="34.8771420" lon="33.6109657">
<ele>10.02</ele>
<time>2015-05-01T08:27:26Z</time>
</trkpt>
<trkpt lat="34.8771483" lon="33.6108967">
<ele>9.52</ele>
<time>2015-05-01T08:27:27Z</time>
</trkpt>
<trkpt lat="34.8771602" lon="33.6108323">
<ele>8.77</ele>
<time>2015-05-01T08:27:28Z</time>
</trkpt>
<trkpt lat="34.8771668" lon="33.6107706">
<ele>8.89</ele>
<time>2015-05-01T08:27:29Z</time>
</trkpt>
<trkpt lat="34.8771768" lon="33.6107120">
<ele>9.45</ele>
<time>2015-05-01T08:27:30Z</time>
</trkpt>
<trkpt lat="34.8771813" lon="33.6106453">
<ele>9.73</ele>
<time>2015-05-01T08:27:31Z</time>
</trkpt>
<trkpt lat="34.8771905" lon="33.6105729">
<ele>9.88</ele>
<time>2015-05-01T08:27:32Z</time>
</trkpt>
<trkpt lat="34.8771940" lon="33.6105065">
<ele>9.95</ele>
<time>2015-05-01T08:27:33Z</time>
</trkpt>
<trkpt lat="34.8772032" lon="33.6104426">
<ele>9.98</ele>
<time>2015-05-01T08:27:34Z</time>
</trkpt>
<trkpt lat="34.8772146" lon="33.6103349">
<ele>10.51</ele>
<time>2015-05-01T08:27:36Z</time>
</trkpt>
<trkpt lat="34.8772208" lon="33.6102372">
<ele>11.39</ele>
<time>2015-05-01T08:27:38Z</time>
</trkpt>
<trkpt lat="34.8772418" lon="33.6101373">
<ele>11.36</ele>
<time>2015-05-01T08:27:40Z</time>
</trkpt>
<trkpt lat="34.8772544" lon="33.6100428">
<ele>11.85</ele>
<time>2015-05-01T08:27:42Z</time>
</trkpt>
<trkpt lat="34.8772729" lon="33.6099403">
<ele>12.47</ele>
<time>2015-05-01T08:27:44Z</time>
</trkpt>
<trkpt lat="34.8772828" lon="33.6098464">
<ele>13.38</ele>
<time>2015-05-01T08:27:46Z</time>
</trkpt>
<trkpt lat="34.8772902" lon="33.6097825">
<ele>13.70</ele>
<time>2015-05-01T08:27:47Z</time>
</trkpt>
<trkpt lat="34.8772973" lon="33.6097228">
<ele>13.86</ele>
<time>2015-05-01T08:27:48Z</time>
</trkpt>
<trkpt lat="34.8773040" lon="33.6096134">
<ele>14.23</ele>
<time>2015-05-01T08:27:50Z</time>
</trkpt>
<trkpt lat="34.8773166" lon="33.6095578">
<ele>14.62</ele>
<time>2015-05-01T08:27:51Z</time>
</trkpt>
<trkpt lat="34.8773182" lon="33.6094479">
<ele>15.67</ele>
<time>2015-05-01T08:27:53Z</time>
</trkpt>
<trkpt lat="34.8773181" lon="33.6093926">
<ele>15.84</ele>
<time>2015-05-01T08:27:54Z</time>
</trkpt>
<trkpt lat="34.8773370" lon="33.6093313">
<ele>15.43</ele>
<time>2015-05-01T08:27:55Z</time>
</trkpt>
<trkpt lat="34.8773491" lon="33.6092728">
<ele>14.72</ele>
<time>2015-05-01T08:27:56Z</time>
</trkpt>
<trkpt lat="34.8773554" lon="33.6092121">
<ele>14.37</ele>
<time>2015-05-01T08:27:57Z</time>
</trkpt>
<trkpt lat="34.8773640" lon="33.6091518">
<ele>14.19</ele>
<time>2015-05-01T08:27:58Z</time>
</trkpt>
<trkpt lat="34.8773774" lon="33.6090502">
<ele>13.81</ele>
<time>2015-05-01T08:28:00Z</time>
</trkpt>
<trkpt lat="34.8773798" lon="33.6089943">
<ele>13.91</ele>
<time>2015-05-01T08:28:01Z</time>
</trkpt>
<trkpt lat="34.8773866" lon="33.6089305">
<ele>13.96</ele>
<time>2015-05-01T08:28:02Z</time>
</trkpt>
<trkpt lat="34.8774154" lon="33.6088248">
<ele>14.75</ele>
<time>2015-05-01T08:28:04Z</time>
</trkpt>
<trkpt lat="34.8774211" lon="33.6087689">
<ele>14.88</ele>
<time>2015-05-01T08:28:05Z</time>
</trkpt>
<trkpt lat="34.8774285" lon="33.6087110">
<ele>15.45</ele>
<time>2015-05-01T08:28:06Z</time>
</trkpt>
<trkpt lat="34.8774339" lon="33.6086518">
<ele>15.73</ele>
<time>2015-05-01T08:28:07Z</time>
</trkpt>
<trkpt lat="34.8774462" lon="33.6085483">
<ele>16.20</ele>
<time>2015-05-01T08:28:09Z</time>
</trkpt>
<trkpt lat="34.8774540" lon="33.6084907">
<ele>15.61</ele>
<time>2015-05-01T08:28:10Z</time>
</trkpt>
<trkpt lat="34.8774484" lon="33.6083887">
<ele>15.16</ele>
<time>2015-05-01T08:28:12Z</time>
</trkpt>
<trkpt lat="34.8774563" lon="33.6083324">
<ele>15.59</ele>
<time>2015-05-01T08:28:13Z</time>
</trkpt>
<trkpt lat="34.8774632" lon="33.6082772">
<ele>15.30</ele>
<time>2015-05-01T08:28:14Z</time>
</trkpt>
<trkpt lat="34.8774669" lon="33.6082172">
<ele>15.16</ele>
<time>2015-05-01T08:28:15Z</time>
</trkpt>
<trkpt lat="34.8774716" lon="33.6081512">
<ele>15.09</ele>
<time>2015-05-01T08:28:16Z</time>
</trkpt>
<trkpt lat="34.8774713" lon="33.6080874">
<ele>15.05</ele>
<time>2015-05-01T08:28:17Z</time>
</trkpt>
<trkpt lat="34.8774814" lon="33.6080326">
<ele>15.03</ele>
<time>2015-05-01T08:28:18Z</time>
</trkpt>
<trkpt lat="34.8774832" lon="33.6079254">
<ele>15.77</ele>
<time>2015-05-01T08:28:20Z</time>
</trkpt>
<trkpt lat="34.8775021" lon="33.6078111">
<ele>16.95</ele>
<time>2015-05-01T08:28:22Z</time>
</trkpt>
<trkpt lat="34.8775132" lon="33.6077069">
<ele>17.00</ele>
<time>2015-05-01T08:28:24Z</time>
</trkpt>
<trkpt lat="34.8775243" lon="33.6075972">
<ele>17.76</ele>
<time>2015-05-01T08:28:26Z</time>
</trkpt>
<trkpt lat="34.8775308" lon="33.6075317">
<ele>17.89</ele>
<time>2015-05-01T08:28:27Z</time>
</trkpt>
<trkpt lat="34.8775263" lon="33.6074687">
<ele>17.45</ele>
<time>2015-05-01T08:28:28Z</time>
</trkpt>
<trkpt lat="34.8775302" lon="33.6074076">
<ele>17.73</ele>
<time>2015-05-01T08:28:29Z</time>
</trkpt>
<trkpt lat="34.8775338" lon="33.6073474">
<ele>17.88</ele>
<time>2015-05-01T08:28:30Z</time>
</trkpt>
<trkpt lat="34.8775336" lon="33.6072922">
<ele>17.45</ele>
<time>2015-05-01T08:28:31Z</time>
</trkpt>
<trkpt lat="34.8775305" lon="33.6071711">
<ele>17.37</ele>
<time>2015-05-01T08:28:33Z</time>
</trkpt>
<trkpt lat="34.8775350" lon="33.6071144">
<ele>17.19</ele>
<time>2015-05-01T08:28:34Z</time>
</trkpt>
<trkpt lat="34.8775370" lon="33.6070092">
<ele>17.81</ele>
<time>2015-05-01T08:28:36Z</time>
</trkpt>
<trkpt lat="34.8775368" lon="33.6069162">
<ele>18.46</ele>
<time>2015-05-01T08:28:38Z</time>
</trkpt>
<trkpt lat="34.8775276" lon="33.6067938">
<ele>18.63</ele>
<time>2015-05-01T08:28:40Z</time>
</trkpt>
<trkpt lat="34.8775193" lon="33.6066831">
<ele>19.17</ele>
<time>2015-05-01T08:28:42Z</time>
</trkpt>
<trkpt lat="34.8775149" lon="33.6066157">
<ele>19.09</ele>
<time>2015-05-01T08:28:43Z</time>
</trkpt>
<trkpt lat="34.8775073" lon="33.6065476">
<ele>19.55</ele>
<time>2015-05-01T08:28:44Z</time>
</trkpt>
<trkpt lat="34.8775011" lon="33.6064820">
<ele>19.79</ele>
<time>2015-05-01T08:28:45Z</time>
</trkpt>
<trkpt lat="34.8774923" lon="33.6064238">
<ele>20.40</ele>
<time>2015-05-01T08:28:46Z</time>
</trkpt>
<trkpt lat="34.8774815" lon="33.6063186">
<ele>20.11</ele>
<time>2015-05-01T08:28:48Z</time>
</trkpt>
<trkpt lat="34.8774783" lon="33.6062494">
<ele>20.06</ele>
<time>2015-05-01T08:28:49Z</time>
</trkpt>
<trkpt lat="34.8774737" lon="33.6061944">
<ele>20.04</ele>
<time>2015-05-01T08:28:50Z</time>
</trkpt>
<trkpt lat="34.8774658" lon="33.6061172">
<ele>19.53</ele>
<time>2015-05-01T08:28:51Z</time>
</trkpt>
<trkpt lat="34.8774578" lon="33.6060502">
<ele>19.77</ele>
<time>2015-05-01T08:28:52Z</time>
</trkpt>
<trkpt lat="34.8774449" lon="33.6059874">
<ele>19.89</ele>
<time>2015-05-01T08:28:53Z</time>
</trkpt>
<trkpt lat="34.8774417" lon="33.6059222">
<ele>19.96</ele>
<time>2015-05-01T08:28:54Z</time>
</trkpt>
<trkpt lat="34.8774204" lon="33.6058169">
<ele>19.75</ele>
<time>2015-05-01T08:28:56Z</time>
</trkpt>
<trkpt lat="34.8774023" lon="33.6057634">
<ele>18.88</ele>
<time>2015-05-01T08:28:57Z</time>
</trkpt>
<trkpt lat="34.8773898" lon="33.6057085">
<ele>18.45</ele>
<time>2015-05-01T08:28:58Z</time>
</trkpt>
<trkpt lat="34.8773840" lon="33.6056443">
<ele>17.73</ele>
<time>2015-05-01T08:28:59Z</time>
</trkpt>
<trkpt lat="34.8773721" lon="33.6055730">
<ele>16.87</ele>
<time>2015-05-01T08:29:00Z</time>
</trkpt>
<trkpt lat="34.8773302" lon="33.6054618">
<ele>16.48</ele>
<time>2015-05-01T08:29:02Z</time>
</trkpt>
<trkpt lat="34.8773090" lon="33.6054045">
<ele>16.75</ele>
<time>2015-05-01T08:29:03Z</time>
</trkpt>
<trkpt lat="34.8772891" lon="33.6053425">
<ele>16.88</ele>
<time>2015-05-01T08:29:04Z</time>
</trkpt>
<trkpt lat="34.8772753" lon="33.6052698">
<ele>16.95</ele>
<time>2015-05-01T08:29:05Z</time>
</trkpt>
<trkpt lat="34.8772608" lon="33.6052085">
<ele>16.98</ele>
<time>2015-05-01T08:29:06Z</time>
</trkpt>
<trkpt lat="34.8772277" lon="33.6051005">
<ele>17.01</ele>
<time>2015-05-01T08:29:08Z</time>
</trkpt>
<trkpt lat="34.8772050" lon="33.6050388">
<ele>17.01</ele>
<time>2015-05-01T08:29:09Z</time>
</trkpt>
<trkpt lat="34.8771904" lon="33.6049763">
<ele>16.51</ele>
<time>2015-05-01T08:29:10Z</time>
</trkpt>
<trkpt lat="34.8771702" lon="33.6049110">
<ele>16.26</ele>
<time>2015-05-01T08:29:11Z</time>
</trkpt>
<trkpt lat="34.8771518" lon="33.6048499">
<ele>16.14</ele>
<time>2015-05-01T08:29:12Z</time>
</trkpt>
<trkpt lat="34.8771270" lon="33.6047905">
<ele>16.58</ele>
<time>2015-05-01T08:29:13Z</time>
</trkpt>
<trkpt lat="34.8771097" lon="33.6047380">
<ele>16.80</ele>
<time>2015-05-01T08:29:14Z</time>
</trkpt>
<trkpt lat="34.8770885" lon="33.6046710">
<ele>16.91</ele>
<time>2015-05-01T08:29:15Z</time>
</trkpt>
<trkpt lat="34.8770670" lon="33.6046137">
<ele>16.46</ele>
<time>2015-05-01T08:29:16Z</time>
</trkpt>
<trkpt lat="34.8770391" lon="33.6045573">
<ele>16.74</ele>
<time>2015-05-01T08:29:17Z</time>
</trkpt>
<trkpt lat="34.8770074" lon="33.6044983">
<ele>16.88</ele>
<time>2015-05-01T08:29:18Z</time>
</trkpt>
<trkpt lat="34.8769848" lon="33.6044439">
<ele>16.95</ele>
<time>2015-05-01T08:29:19Z</time>
</trkpt>
<trkpt lat="34.8769624" lon="33.6043926">
<ele>17.48</ele>
<time>2015-05-01T08:29:20Z</time>
</trkpt>
<trkpt lat="34.8769349" lon="33.6043416">
<ele>18.75</ele>
<time>2015-05-01T08:29:21Z</time>
</trkpt>
<trkpt lat="34.8769069" lon="33.6042832">
<ele>18.88</ele>
<time>2015-05-01T08:29:22Z</time>
</trkpt>
<trkpt lat="34.8768814" lon="33.6042287">
<ele>18.45</ele>
<time>2015-05-01T08:29:23Z</time>
</trkpt>
<trkpt lat="34.8768571" lon="33.6041775">
<ele>18.23</ele>
<time>2015-05-01T08:29:24Z</time>
</trkpt>
<trkpt lat="34.8768114" lon="33.6040875">
<ele>19.57</ele>
<time>2015-05-01T08:29:26Z</time>
</trkpt>
<trkpt lat="34.8767700" lon="33.6040042">
<ele>19.40</ele>
<time>2015-05-01T08:29:28Z</time>
</trkpt>
<trkpt lat="34.8767419" lon="33.6039576">
<ele>19.21</ele>
<time>2015-05-01T08:29:29Z</time>
</trkpt>
<trkpt lat="34.8767123" lon="33.6039118">
<ele>19.11</ele>
<time>2015-05-01T08:29:30Z</time>
</trkpt>
<trkpt lat="34.8766786" lon="33.6038670">
<ele>19.06</ele>
<time>2015-05-01T08:29:31Z</time>
</trkpt>
<trkpt lat="34.8766477" lon="33.6038057">
<ele>19.04</ele>
<time>2015-05-01T08:29:32Z</time>
</trkpt>
<trkpt lat="34.8766132" lon="33.6037552">
<ele>19.53</ele>
<time>2015-05-01T08:29:33Z</time>
</trkpt>
<trkpt lat="34.8765826" lon="33.6036969">
<ele>19.27</ele>
<time>2015-05-01T08:29:34Z</time>
</trkpt>
<trkpt lat="34.8765447" lon="33.6036395">
<ele>19.64</ele>
<time>2015-05-01T08:29:35Z</time>
</trkpt>
<trkpt lat="34.8765046" lon="33.6035822">
<ele>19.33</ele>
<time>2015-05-01T08:29:36Z</time>
</trkpt>
<trkpt lat="34.8764722" lon="33.6035209">
<ele>19.17</ele>
<time>2015-05-01T08:29:37Z</time>
</trkpt>
<trkpt lat="34.8764343" lon="33.6034711">
<ele>19.09</ele>
<time>2015-05-01T08:29:38Z</time>
</trkpt>
<trkpt lat="34.8763967" lon="33.6034298">
<ele>18.56</ele>
<time>2015-05-01T08:29:39Z</time>
</trkpt>
<trkpt lat="34.8763589" lon="33.6033727">
<ele>18.29</ele>
<time>2015-05-01T08:29:40Z</time>
</trkpt>
<trkpt lat="34.8763208" lon="33.6033218">
<ele>17.65</ele>
<time>2015-05-01T08:29:41Z</time>
</trkpt>
<trkpt lat="34.8762802" lon="33.6032831">
<ele>17.83</ele>
<time>2015-05-01T08:29:42Z</time>
</trkpt>
<trkpt lat="34.8762436" lon="33.6032402">
<ele>17.42</ele>
<time>2015-05-01T08:29:43Z</time>
</trkpt>
<trkpt lat="34.8761973" lon="33.6032019">
<ele>17.22</ele>
<time>2015-05-01T08:29:44Z</time>
</trkpt>
<trkpt lat="34.8761483" lon="33.6031636">
<ele>17.12</ele>
<time>2015-05-01T08:29:45Z</time>
</trkpt>
<trkpt lat="34.8760957" lon="33.6031371">
<ele>16.57</ele>
<time>2015-05-01T08:29:46Z</time>
</trkpt>
<trkpt lat="34.8760438" lon="33.6031138">
<ele>16.29</ele>
<time>2015-05-01T08:29:47Z</time>
</trkpt>
<trkpt lat="34.8759842" lon="33.6030935">
<ele>16.15</ele>
<time>2015-05-01T08:29:48Z</time>
</trkpt>
<trkpt lat="34.8759345" lon="33.6030802">
<ele>16.58</ele>
<time>2015-05-01T08:29:49Z</time>
</trkpt>
<trkpt lat="34.8758691" lon="33.6030801">
<ele>16.80</ele>
<time>2015-05-01T08:29:50Z</time>
</trkpt>
<trkpt lat="34.8758107" lon="33.6030770">
<ele>16.41</ele>
<time>2015-05-01T08:29:51Z</time>
</trkpt>
<trkpt lat="34.8757437" lon="33.6030748">
<ele>16.21</ele>
<time>2015-05-01T08:29:52Z</time>
</trkpt>
<trkpt lat="34.8756698" lon="33.6030648">
<ele>15.61</ele>
<time>2015-05-01T08:29:53Z</time>
</trkpt>
<trkpt lat="34.8756096" lon="33.6030481">
<ele>15.82</ele>
<time>2015-05-01T08:29:54Z</time>
</trkpt>
<trkpt lat="34.8755528" lon="33.6030448">
<ele>15.42</ele>
<time>2015-05-01T08:29:55Z</time>
</trkpt>
<trkpt lat="34.8754932" lon="33.6030179">
<ele>15.22</ele>
<time>2015-05-01T08:29:56Z</time>
</trkpt>
<trkpt lat="34.8754454" lon="33.6029696">
<ele>15.62</ele>
<time>2015-05-01T08:29:57Z</time>
</trkpt>
<trkpt lat="34.8753896" lon="33.6029200">
<ele>15.17</ele>
<time>2015-05-01T08:29:59Z</time>
</trkpt>
<trkpt lat="34.8753701" lon="33.6028420">
<ele>14.59</ele>
<time>2015-05-01T08:30:00Z</time>
</trkpt>
<trkpt lat="34.8753117" lon="33.6027337">
<ele>15.16</ele>
<time>2015-05-01T08:30:02Z</time>
</trkpt>
<trkpt lat="34.8752874" lon="33.6026738">
<ele>14.59</ele>
<time>2015-05-01T08:30:03Z</time>
</trkpt>
<trkpt lat="34.8752672" lon="33.6026048">
<ele>13.80</ele>
<time>2015-05-01T08:30:04Z</time>
</trkpt>
<trkpt lat="34.8752734" lon="33.6024830">
<ele>14.46</ele>
<time>2015-05-01T08:30:06Z</time>
</trkpt>
<trkpt lat="34.8752793" lon="33.6024191">
<ele>15.24</ele>
<time>2015-05-01T08:30:07Z</time>
</trkpt>
<trkpt lat="34.8752908" lon="33.6023001">
<ele>16.57</ele>
<time>2015-05-01T08:30:09Z</time>
</trkpt>
<trkpt lat="34.8752874" lon="33.6022407">
<ele>16.29</ele>
<time>2015-05-01T08:30:10Z</time>
</trkpt>
<trkpt lat="34.8752802" lon="33.6021789">
<ele>16.15</ele>
<time>2015-05-01T08:30:11Z</time>
</trkpt>
<trkpt lat="34.8752700" lon="33.6021204">
<ele>16.59</ele>
<time>2015-05-01T08:30:12Z</time>
</trkpt>
<trkpt lat="34.8752486" lon="33.6020601">
<ele>16.80</ele>
<time>2015-05-01T08:30:13Z</time>
</trkpt>
<trkpt lat="34.8752222" lon="33.6020046">
<ele>16.41</ele>
<time>2015-05-01T08:30:14Z</time>
</trkpt>
<trkpt lat="34.8751828" lon="33.6019206">
<ele>16.61</ele>
<time>2015-05-01T08:30:16Z</time>
</trkpt>
<trkpt lat="34.8751360" lon="33.6018423">
<ele>16.92</ele>
<time>2015-05-01T08:30:18Z</time>
</trkpt>
<trkpt lat="34.8750807" lon="33.6017645">
<ele>16.99</ele>
<time>2015-05-01T08:30:20Z</time>
</trkpt>
<trkpt lat="34.8750183" lon="33.6016996">
<ele>17.01</ele>
<time>2015-05-01T08:30:22Z</time>
</trkpt>
<trkpt lat="34.8749758" lon="33.6016423">
<ele>15.76</ele>
<time>2015-05-01T08:30:24Z</time>
</trkpt>
<trkpt lat="34.8749204" lon="33.6015684">
<ele>15.20</ele>
<time>2015-05-01T08:30:26Z</time>
</trkpt>
<trkpt lat="34.8748620" lon="33.6015054">
<ele>15.31</ele>
<time>2015-05-01T08:30:28Z</time>
</trkpt>
<trkpt lat="34.8748106" lon="33.6014406">
<ele>16.84</ele>
<time>2015-05-01T08:30:30Z</time>
</trkpt>
<trkpt lat="34.8747570" lon="33.6013804">
<ele>18.22</ele>
<time>2015-05-01T08:30:32Z</time>
</trkpt>
<trkpt lat="34.8747039" lon="33.6013167">
<ele>18.82</ele>
<time>2015-05-01T08:30:34Z</time>
</trkpt>
<trkpt lat="34.8746562" lon="33.6012505">
<ele>19.47</ele>
<time>2015-05-01T08:30:36Z</time>
</trkpt>
<trkpt lat="34.8746086" lon="33.6011942">
<ele>20.38</ele>
<time>2015-05-01T08:30:38Z</time>
</trkpt>
<trkpt lat="34.8745616" lon="33.6011430">
<ele>20.86</ele>
<time>2015-05-01T08:30:40Z</time>
</trkpt>
<trkpt lat="34.8745097" lon="33.6010918">
<ele>21.23</ele>
<time>2015-05-01T08:30:42Z</time>
</trkpt>
<trkpt lat="34.8744515" lon="33.6010384">
<ele>21.07</ele>
<time>2015-05-01T08:30:44Z</time>
</trkpt>
<trkpt lat="34.8743931" lon="33.6009815">
<ele>21.03</ele>
<time>2015-05-01T08:30:46Z</time>
</trkpt>
<trkpt lat="34.8743302" lon="33.6009257">
<ele>22.27</ele>
<time>2015-05-01T08:30:48Z</time>
</trkpt>
<trkpt lat="34.8742660" lon="33.6008735">
<ele>22.58</ele>
<time>2015-05-01T08:30:50Z</time>
</trkpt>
<trkpt lat="34.8742044" lon="33.6008246">
<ele>22.16</ele>
<time>2015-05-01T08:30:52Z</time>
</trkpt>
<trkpt lat="34.8741454" lon="33.6007750">
<ele>21.30</ele>
<time>2015-05-01T08:30:54Z</time>
</trkpt>
<trkpt lat="34.8740884" lon="33.6007273">
<ele>22.34</ele>
<time>2015-05-01T08:30:56Z</time>
</trkpt>
<trkpt lat="34.8740311" lon="33.6006846">
<ele>22.85</ele>
<time>2015-05-01T08:30:58Z</time>
</trkpt>
<trkpt lat="34.8739703" lon="33.6006443">
<ele>22.97</ele>
<time>2015-05-01T08:31:00Z</time>
</trkpt>
<trkpt lat="34.8739105" lon="33.6006029">
<ele>23.51</ele>
<time>2015-05-01T08:31:02Z</time>
</trkpt>
<trkpt lat="34.8738499" lon="33.6005621">
<ele>24.64</ele>
<time>2015-05-01T08:31:04Z</time>
</trkpt>
<trkpt lat="34.8737872" lon="33.6005194">
<ele>25.42</ele>
<time>2015-05-01T08:31:06Z</time>
</trkpt>
<trkpt lat="34.8737197" lon="33.6004755">
<ele>25.87</ele>
<time>2015-05-01T08:31:08Z</time>
</trkpt>
<trkpt lat="34.8736494" lon="33.6004331">
<ele>25.98</ele>
<time>2015-05-01T08:31:10Z</time>
</trkpt>
<trkpt lat="34.8735534" lon="33.6003853">
<ele>26.76</ele>
<time>2015-05-01T08:31:12Z</time>
</trkpt>
<trkpt lat="34.8734785" lon="33.6003366">
<ele>27.70</ele>
<time>2015-05-01T08:31:14Z</time>
</trkpt>
<trkpt lat="34.8734078" lon="33.6002957">
<ele>27.94</ele>
<time>2015-05-01T08:31:16Z</time>
</trkpt>
<trkpt lat="34.8733343" lon="33.6002664">
<ele>28.00</ele>
<time>2015-05-01T08:31:18Z</time>
</trkpt>
<trkpt lat="34.8732596" lon="33.6002286">
<ele>28.01</ele>
<time>2015-05-01T08:31:20Z</time>
</trkpt>
<trkpt lat="34.8731876" lon="33.6001937">
<ele>28.01</ele>
<time>2015-05-01T08:31:22Z</time>
</trkpt>
<trkpt lat="34.8731105" lon="33.6001551">
<ele>27.27</ele>
<time>2015-05-01T08:31:24Z</time>
</trkpt>
<trkpt lat="34.8730335" lon="33.6001191">
<ele>27.08</ele>
<time>2015-05-01T08:31:26Z</time>
</trkpt>
<trkpt lat="34.8729506" lon="33.6000813">
<ele>26.28</ele>
<time>2015-05-01T08:31:28Z</time>
</trkpt>
<trkpt lat="34.8728716" lon="33.6000460">
<ele>26.08</ele>
<time>2015-05-01T08:31:30Z</time>
</trkpt>
<trkpt lat="34.8727856" lon="33.6000024">
<ele>25.53</ele>
<time>2015-05-01T08:31:32Z</time>
</trkpt>
<trkpt lat="34.8727111" lon="33.5999619">
<ele>25.90</ele>
<time>2015-05-01T08:31:34Z</time>
</trkpt>
<trkpt lat="34.8726343" lon="33.5999291">
<ele>25.99</ele>
<time>2015-05-01T08:31:36Z</time>
</trkpt>
<trkpt lat="34.8725519" lon="33.5998883">
<ele>26.01</ele>
<time>2015-05-01T08:31:38Z</time>
</trkpt>
<trkpt lat="34.8724634" lon="33.5998477">
<ele>26.01</ele>
<time>2015-05-01T08:31:40Z</time>
</trkpt>
<trkpt lat="34.8724150" lon="33.5998224">
<ele>26.02</ele>
<time>2015-05-01T08:31:41Z</time>
</trkpt>
<trkpt lat="34.8723682" lon="33.5998047">
<ele>26.02</ele>
<time>2015-05-01T08:31:42Z</time>
</trkpt>
<trkpt lat="34.8723239" lon="33.5997819">
<ele>26.52</ele>
<time>2015-05-01T08:31:43Z</time>
</trkpt>
<trkpt lat="34.8722803" lon="33.5997615">
<ele>26.77</ele>
<time>2015-05-01T08:31:44Z</time>
</trkpt>
<trkpt lat="34.8721866" lon="33.5997353">
<ele>26.20</ele>
<time>2015-05-01T08:31:46Z</time>
</trkpt>
<trkpt lat="34.8720983" lon="33.5996945">
<ele>25.81</ele>
<time>2015-05-01T08:31:48Z</time>
</trkpt>
<trkpt lat="34.8720089" lon="33.5996485">
<ele>25.22</ele>
<time>2015-05-01T08:31:50Z</time>
</trkpt>
<trkpt lat="34.8719310" lon="33.5996196">
<ele>25.07</ele>
<time>2015-05-01T08:31:52Z</time>
</trkpt>
<trkpt lat="34.8718527" lon="33.5995729">
<ele>25.03</ele>
<time>2015-05-01T08:31:54Z</time>
</trkpt>
<trkpt lat="34.8717734" lon="33.5995413">
<ele>25.02</ele>
<time>2015-05-01T08:31:56Z</time>
</trkpt>
<trkpt lat="34.8717298" lon="33.5995258">
<ele>25.02</ele>
<time>2015-05-01T08:31:57Z</time>
</trkpt>
<trkpt lat="34.8716764" lon="33.5994974">
<ele>25.02</ele>
<time>2015-05-01T08:31:58Z</time>
</trkpt>
<trkpt lat="34.8716309" lon="33.5994768">
<ele>25.02</ele>
<time>2015-05-01T08:31:59Z</time>
</trkpt>
<trkpt lat="34.8715828" lon="33.5994537">
<ele>25.02</ele>
<time>2015-05-01T08:32:00Z</time>
</trkpt>
<trkpt lat="34.8715364" lon="33.5994272">
<ele>24.52</ele>
<time>2015-05-01T08:32:01Z</time>
</trkpt>
<trkpt lat="34.8714920" lon="33.5993998">
<ele>24.27</ele>
<time>2015-05-01T08:32:02Z</time>
</trkpt>
<trkpt lat="34.8714464" lon="33.5993823">
<ele>24.64</ele>
<time>2015-05-01T08:32:03Z</time>
</trkpt>
<trkpt lat="34.8713989" lon="33.5993526">
<ele>24.83</ele>
<time>2015-05-01T08:32:04Z</time>
</trkpt>
<trkpt lat="34.8713515" lon="33.5993238">
<ele>25.42</ele>
<time>2015-05-01T08:32:05Z</time>
</trkpt>
<trkpt lat="34.8713049" lon="33.5993044">
<ele>25.22</ele>
<time>2015-05-01T08:32:06Z</time>
</trkpt>
<trkpt lat="34.8712627" lon="33.5992741">
<ele>25.12</ele>
<time>2015-05-01T08:32:07Z</time>
</trkpt>
<trkpt lat="34.8712154" lon="33.5992552">
<ele>25.07</ele>
<time>2015-05-01T08:32:08Z</time>
</trkpt>
<trkpt lat="34.8711712" lon="33.5992274">
<ele>25.04</ele>
<time>2015-05-01T08:32:09Z</time>
</trkpt>
<trkpt lat="34.8711257" lon="33.5992065">
<ele>25.03</ele>
<time>2015-05-01T08:32:10Z</time>
</trkpt>
<trkpt lat="34.8710777" lon="33.5991791">
<ele>24.52</ele>
<time>2015-05-01T08:32:11Z</time>
</trkpt>
<trkpt lat="34.8710227" lon="33.5991504">
<ele>24.27</ele>
<time>2015-05-01T08:32:12Z</time>
</trkpt>
<trkpt lat="34.8709678" lon="33.5991313">
<ele>24.14</ele>
<time>2015-05-01T08:32:13Z</time>
</trkpt>
<trkpt lat="34.8709147" lon="33.5991122">
<ele>24.08</ele>
<time>2015-05-01T08:32:14Z</time>
</trkpt>
<trkpt lat="34.8708639" lon="33.5990882">
<ele>24.05</ele>
<time>2015-05-01T08:32:15Z</time>
</trkpt>
<trkpt lat="34.8708172" lon="33.5990534">
<ele>24.53</ele>
<time>2015-05-01T08:32:16Z</time>
</trkpt>
<trkpt lat="34.8707711" lon="33.5990377">
<ele>24.77</ele>
<time>2015-05-01T08:32:17Z</time>
</trkpt>
<trkpt lat="34.8707199" lon="33.5990122">
<ele>24.39</ele>
<time>2015-05-01T08:32:18Z</time>
</trkpt>
<trkpt lat="34.8706764" lon="33.5989899">
<ele>24.21</ele>
<time>2015-05-01T08:32:19Z</time>
</trkpt>
<trkpt lat="34.8705922" lon="33.5989473">
<ele>23.31</ele>
<time>2015-05-01T08:32:21Z</time>
</trkpt>
<trkpt lat="34.8705499" lon="33.5989283">
<ele>23.66</ele>
<time>2015-05-01T08:32:22Z</time>
</trkpt>
<trkpt lat="34.8704713" lon="33.5988905">
<ele>24.93</ele>
<time>2015-05-01T08:32:24Z</time>
</trkpt>
<trkpt lat="34.8704260" lon="33.5988664">
<ele>25.47</ele>
<time>2015-05-01T08:32:25Z</time>
</trkpt>
<trkpt lat="34.8703792" lon="33.5988377">
<ele>26.24</ele>
<time>2015-05-01T08:32:26Z</time>
</trkpt>
<trkpt lat="34.8703288" lon="33.5988170">
<ele>26.63</ele>
<time>2015-05-01T08:32:27Z</time>
</trkpt>
<trkpt lat="34.8702772" lon="33.5987900">
<ele>26.82</ele>
<time>2015-05-01T08:32:28Z</time>
</trkpt>
<trkpt lat="34.8702171" lon="33.5987751">
<ele>26.92</ele>
<time>2015-05-01T08:32:29Z</time>
</trkpt>
<trkpt lat="34.8701698" lon="33.5987489">
<ele>26.47</ele>
<time>2015-05-01T08:32:30Z</time>
</trkpt>
<trkpt lat="34.8701172" lon="33.5987190">
<ele>26.24</ele>
<time>2015-05-01T08:32:31Z</time>
</trkpt>
<trkpt lat="34.8700680" lon="33.5986826">
<ele>25.63</ele>
<time>2015-05-01T08:32:32Z</time>
</trkpt>
<trkpt lat="34.8700232" lon="33.5986663">
<ele>25.32</ele>
<time>2015-05-01T08:32:33Z</time>
</trkpt>
<trkpt lat="34.8699770" lon="33.5986470">
<ele>25.17</ele>
<time>2015-05-01T08:32:34Z</time>
</trkpt>
<trkpt lat="34.8698958" lon="33.5986052">
<ele>24.30</ele>
<time>2015-05-01T08:32:36Z</time>
</trkpt>
<trkpt lat="34.8698483" lon="33.5985863">
<ele>24.16</ele>
<time>2015-05-01T08:32:37Z</time>
</trkpt>
<trkpt lat="34.8697725" lon="33.5985492">
<ele>23.80</ele>
<time>2015-05-01T08:32:39Z</time>
</trkpt>
<trkpt lat="34.8697210" lon="33.5985274">
<ele>23.41</ele>
<time>2015-05-01T08:32:40Z</time>
</trkpt>
<trkpt lat="34.8696700" lon="33.5985087">
<ele>23.21</ele>
<time>2015-05-01T08:32:41Z</time>
</trkpt>
<trkpt lat="34.8696148" lon="33.5984903">
<ele>23.11</ele>
<time>2015-05-01T08:32:42Z</time>
</trkpt>
<trkpt lat="34.8695690" lon="33.5984596">
<ele>22.57</ele>
<time>2015-05-01T08:32:43Z</time>
</trkpt>
<trkpt lat="34.8695147" lon="33.5984343">
<ele>22.29</ele>
<time>2015-05-01T08:32:44Z</time>
</trkpt>
<trkpt lat="34.8694600" lon="33.5984019">
<ele>22.15</ele>
<time>2015-05-01T08:32:45Z</time>
</trkpt>
<trkpt lat="34.8694000" lon="33.5983773">
<ele>22.08</ele>
<time>2015-05-01T08:32:46Z</time>
</trkpt>
<trkpt lat="34.8693535" lon="33.5983472">
<ele>22.05</ele>
<time>2015-05-01T08:32:47Z</time>
</trkpt>
<trkpt lat="34.8693082" lon="33.5983222">
<ele>22.03</ele>
<time>2015-05-01T08:32:48Z</time>
</trkpt>
<trkpt lat="34.8692601" lon="33.5982981">
<ele>21.52</ele>
<time>2015-05-01T08:32:49Z</time>
</trkpt>
<trkpt lat="34.8692139" lon="33.5982676">
<ele>21.77</ele>
<time>2015-05-01T08:32:50Z</time>
</trkpt>
<trkpt lat="34.8691699" lon="33.5982429">
<ele>21.89</ele>
<time>2015-05-01T08:32:51Z</time>
</trkpt>
<trkpt lat="34.8690947" lon="33.5982015">
<ele>22.74</ele>
<time>2015-05-01T08:32:53Z</time>
</trkpt>
<trkpt lat="34.8690185" lon="33.5981605">
<ele>23.45</ele>
<time>2015-05-01T08:32:55Z</time>
</trkpt>
<trkpt lat="34.8689733" lon="33.5981368">
<ele>23.73</ele>
<time>2015-05-01T08:32:56Z</time>
</trkpt>
<trkpt lat="34.8689252" lon="33.5981123">
<ele>23.87</ele>
<time>2015-05-01T08:32:57Z</time>
</trkpt>
<trkpt lat="34.8688839" lon="33.5980868">
<ele>23.94</ele>
<time>2015-05-01T08:32:58Z</time>
</trkpt>
<trkpt lat="34.8688329" lon="33.5980576">
<ele>23.98</ele>
<time>2015-05-01T08:32:59Z</time>
</trkpt>
<trkpt lat="34.8687876" lon="33.5980328">
<ele>24.00</ele>
<time>2015-05-01T08:33:00Z</time>
</trkpt>
<trkpt lat="34.8687115" lon="33.5979899">
<ele>24.26</ele>
<time>2015-05-01T08:33:02Z</time>
</trkpt>
<trkpt lat="34.8686590" lon="33.5979605">
<ele>24.08</ele>
<time>2015-05-01T08:33:04Z</time>
</trkpt>
<trkpt lat="34.8685985" lon="33.5979110">
<ele>24.03</ele>
<time>2015-05-01T08:33:06Z</time>
</trkpt>
<trkpt lat="34.8685287" lon="33.5978851">
<ele>24.27</ele>
<time>2015-05-01T08:33:08Z</time>
</trkpt>
<trkpt lat="34.8684467" lon="33.5978556">
<ele>23.33</ele>
<time>2015-05-01T08:33:10Z</time>
</trkpt>
<trkpt lat="34.8683699" lon="33.5978133">
<ele>22.59</ele>
<time>2015-05-01T08:33:12Z</time>
</trkpt>
<trkpt lat="34.8682991" lon="33.5977654">
<ele>22.91</ele>
<time>2015-05-01T08:33:14Z</time>
</trkpt>
<trkpt lat="34.8682324" lon="33.5977208">
<ele>22.99</ele>
<time>2015-05-01T08:33:16Z</time>
</trkpt>
<trkpt lat="34.8681676" lon="33.5976789">
<ele>23.01</ele>
<time>2015-05-01T08:33:18Z</time>
</trkpt>
<trkpt lat="34.8681010" lon="33.5976451">
<ele>21.76</ele>
<time>2015-05-01T08:33:20Z</time>
</trkpt>
<trkpt lat="34.8680417" lon="33.5976106">
<ele>21.20</ele>
<time>2015-05-01T08:33:22Z</time>
</trkpt>
<trkpt lat="34.8680585" lon="33.5975353">
<ele>23.52</ele>
<time>2015-05-01T08:33:54Z</time>
</trkpt>
<trkpt lat="34.8680555" lon="33.5974671">
<ele>22.39</ele>
<time>2015-05-01T08:33:56Z</time>
</trkpt>
<trkpt lat="34.8680441" lon="33.5974081">
<ele>21.61</ele>
<time>2015-05-01T08:33:58Z</time>
</trkpt>
<trkpt lat="34.8680322" lon="33.5973386">
<ele>21.34</ele>
<time>2015-05-01T08:34:01Z</time>
</trkpt>
<trkpt lat="34.8680444" lon="33.5972664">
<ele>20.93</ele>
<time>2015-05-01T08:34:04Z</time>
</trkpt>
<trkpt lat="34.8680846" lon="33.5972044">
<ele>21.88</ele>
<time>2015-05-01T08:34:07Z</time>
</trkpt>
<trkpt lat="34.8681167" lon="33.5971589">
<ele>21.48</ele>
<time>2015-05-01T08:34:09Z</time>
</trkpt>
<trkpt lat="34.8681504" lon="33.5971104">
<ele>21.13</ele>
<time>2015-05-01T08:34:11Z</time>
</trkpt>
<trkpt lat="34.8681899" lon="33.5970477">
<ele>21.41</ele>
<time>2015-05-01T08:34:14Z</time>
</trkpt>
<trkpt lat="34.8682126" lon="33.5969856">
<ele>21.06</ele>
<time>2015-05-01T08:34:17Z</time>
</trkpt>
<trkpt lat="34.8682204" lon="33.5969044">
<ele>21.90</ele>
<time>2015-05-01T08:34:20Z</time>
</trkpt>
<trkpt lat="34.8682409" lon="33.5968362">
<ele>22.74</ele>
<time>2015-05-01T08:34:22Z</time>
</trkpt>
<trkpt lat="34.8682846" lon="33.5967802">
<ele>23.45</ele>
<time>2015-05-01T08:34:24Z</time>
</trkpt>
<trkpt lat="34.8683278" lon="33.5967331">
<ele>23.87</ele>
<time>2015-05-01T08:34:26Z</time>
</trkpt>
<trkpt lat="34.8683715" lon="33.5966815">
<ele>24.73</ele>
<time>2015-05-01T08:34:28Z</time>
</trkpt>
<trkpt lat="34.8684148" lon="33.5966173">
<ele>25.44</ele>
<time>2015-05-01T08:34:30Z</time>
</trkpt>
<trkpt lat="34.8684672" lon="33.5965359">
<ele>25.87</ele>
<time>2015-05-01T08:34:32Z</time>
</trkpt>
<trkpt lat="34.8685074" lon="33.5964638">
<ele>25.44</ele>
<time>2015-05-01T08:34:33Z</time>
</trkpt>
<trkpt lat="34.8685343" lon="33.5964190">
<ele>25.73</ele>
<time>2015-05-01T08:34:34Z</time>
</trkpt>
<trkpt lat="34.8685545" lon="33.5963676">
<ele>26.37</ele>
<time>2015-05-01T08:34:35Z</time>
</trkpt>
<trkpt lat="34.8685850" lon="33.5963200">
<ele>26.69</ele>
<time>2015-05-01T08:34:36Z</time>
</trkpt>
<trkpt lat="34.8686413" lon="33.5962367">
<ele>26.94</ele>
<time>2015-05-01T08:34:38Z</time>
</trkpt>
<trkpt lat="34.8686904" lon="33.5961543">
<ele>26.25</ele>
<time>2015-05-01T08:34:40Z</time>
</trkpt>
<trkpt lat="34.8687299" lon="33.5960865">
<ele>24.82</ele>
<time>2015-05-01T08:34:42Z</time>
</trkpt>
<trkpt lat="34.8687675" lon="33.5960079">
<ele>24.97</ele>
<time>2015-05-01T08:34:44Z</time>
</trkpt>
<trkpt lat="34.8688163" lon="33.5959211">
<ele>25.00</ele>
<time>2015-05-01T08:34:46Z</time>
</trkpt>
<trkpt lat="34.8688714" lon="33.5958325">
<ele>25.01</ele>
<time>2015-05-01T08:34:48Z</time>
</trkpt>
<trkpt lat="34.8688937" lon="33.5957810">
<ele>25.51</ele>
<time>2015-05-01T08:34:49Z</time>
</trkpt>
<trkpt lat="34.8689204" lon="33.5957246">
<ele>25.77</ele>
<time>2015-05-01T08:34:50Z</time>
</trkpt>
<trkpt lat="34.8689721" lon="33.5956156">
<ele>25.95</ele>
<time>2015-05-01T08:34:52Z</time>
</trkpt>
<trkpt lat="34.8690039" lon="33.5955656">
<ele>26.48</ele>
<time>2015-05-01T08:34:53Z</time>
</trkpt>
<trkpt lat="34.8690346" lon="33.5955206">
<ele>26.25</ele>
<time>2015-05-01T08:34:54Z</time>
</trkpt>
<trkpt lat="34.8690567" lon="33.5954618">
<ele>26.13</ele>
<time>2015-05-01T08:34:55Z</time>
</trkpt>
<trkpt lat="34.8690857" lon="33.5954066">
<ele>26.57</ele>
<time>2015-05-01T08:34:56Z</time>
</trkpt>
<trkpt lat="34.8691141" lon="33.5953529">
<ele>26.30</ele>
<time>2015-05-01T08:34:57Z</time>
</trkpt>
<trkpt lat="34.8691423" lon="33.5953021">
<ele>26.66</ele>
<time>2015-05-01T08:34:58Z</time>
</trkpt>
<trkpt lat="34.8691618" lon="33.5952518">
<ele>27.34</ele>
<time>2015-05-01T08:34:59Z</time>
</trkpt>
<trkpt lat="34.8691883" lon="33.5951843">
<ele>27.68</ele>
<time>2015-05-01T08:35:00Z</time>
</trkpt>
<trkpt lat="34.8692166" lon="33.5951302">
<ele>27.85</ele>
<time>2015-05-01T08:35:01Z</time>
</trkpt>
<trkpt lat="34.8692473" lon="33.5950752">
<ele>28.43</ele>
<time>2015-05-01T08:35:02Z</time>
</trkpt>
<trkpt lat="34.8692696" lon="33.5950146">
<ele>28.72</ele>
<time>2015-05-01T08:35:03Z</time>
</trkpt>
<trkpt lat="34.8692982" lon="33.5949505">
<ele>28.87</ele>
<time>2015-05-01T08:35:04Z</time>
</trkpt>
<trkpt lat="34.8693231" lon="33.5948922">
<ele>28.94</ele>
<time>2015-05-01T08:35:05Z</time>
</trkpt>
<trkpt lat="34.8693435" lon="33.5948269">
<ele>28.48</ele>
<time>2015-05-01T08:35:06Z</time>
</trkpt>
<trkpt lat="34.8693691" lon="33.5947637">
<ele>28.25</ele>
<time>2015-05-01T08:35:07Z</time>
</trkpt>
<trkpt lat="34.8693919" lon="33.5947030">
<ele>28.13</ele>
<time>2015-05-01T08:35:08Z</time>
</trkpt>
<trkpt lat="34.8694076" lon="33.5946412">
<ele>28.57</ele>
<time>2015-05-01T08:35:09Z</time>
</trkpt>
<trkpt lat="34.8694256" lon="33.5945770">
<ele>28.29</ele>
<time>2015-05-01T08:35:10Z</time>
</trkpt>
<trkpt lat="34.8694468" lon="33.5945145">
<ele>28.16</ele>
<time>2015-05-01T08:35:11Z</time>
</trkpt>
<trkpt lat="34.8694742" lon="33.5944520">
<ele>28.59</ele>
<time>2015-05-01T08:35:12Z</time>
</trkpt>
<trkpt lat="34.8695030" lon="33.5944058">
<ele>28.30</ele>
<time>2015-05-01T08:35:13Z</time>
</trkpt>
<trkpt lat="34.8695227" lon="33.5943413">
<ele>28.16</ele>
<time>2015-05-01T08:35:14Z</time>
</trkpt>
<trkpt lat="34.8695444" lon="33.5942841">
<ele>27.09</ele>
<time>2015-05-01T08:35:15Z</time>
</trkpt>
<trkpt lat="34.8695630" lon="33.5942092">
<ele>26.55</ele>
<time>2015-05-01T08:35:16Z</time>
</trkpt>
<trkpt lat="34.8695816" lon="33.5941462">
<ele>26.28</ele>
<time>2015-05-01T08:35:17Z</time>
</trkpt>
<trkpt lat="34.8696005" lon="33.5940813">
<ele>26.15</ele>
<time>2015-05-01T08:35:18Z</time>
</trkpt>
<trkpt lat="34.8696177" lon="33.5940265">
<ele>26.08</ele>
<time>2015-05-01T08:35:19Z</time>
</trkpt>
<trkpt lat="34.8696392" lon="33.5939562">
<ele>26.05</ele>
<time>2015-05-01T08:35:20Z</time>
</trkpt>
<trkpt lat="34.8696672" lon="33.5939056">
<ele>27.03</ele>
<time>2015-05-01T08:35:21Z</time>
</trkpt>
<trkpt lat="34.8696952" lon="33.5937972">
<ele>27.77</ele>
<time>2015-05-01T08:35:23Z</time>
</trkpt>
<trkpt lat="34.8697135" lon="33.5937357">
<ele>27.89</ele>
<time>2015-05-01T08:35:24Z</time>
</trkpt>
<trkpt lat="34.8697356" lon="33.5936741">
<ele>27.95</ele>
<time>2015-05-01T08:35:25Z</time>
</trkpt>
<trkpt lat="34.8697529" lon="33.5936185">
<ele>28.49</ele>
<time>2015-05-01T08:35:26Z</time>
</trkpt>
<trkpt lat="34.8697705" lon="33.5935674">
<ele>28.25</ele>
<time>2015-05-01T08:35:27Z</time>
</trkpt>
<trkpt lat="34.8697842" lon="33.5935097">
<ele>28.13</ele>
<time>2015-05-01T08:35:28Z</time>
</trkpt>
<trkpt lat="34.8698081" lon="33.5934418">
<ele>28.07</ele>
<time>2015-05-01T08:35:29Z</time>
</trkpt>
<trkpt lat="34.8698326" lon="33.5933818">
<ele>28.55</ele>
<time>2015-05-01T08:35:30Z</time>
</trkpt>
<trkpt lat="34.8698504" lon="33.5933267">
<ele>28.78</ele>
<time>2015-05-01T08:35:31Z</time>
</trkpt>
<trkpt lat="34.8698583" lon="33.5932656">
<ele>28.40</ele>
<time>2015-05-01T08:35:32Z</time>
</trkpt>
<trkpt lat="34.8698746" lon="33.5932021">
<ele>27.71</ele>
<time>2015-05-01T08:35:33Z</time>
</trkpt>
<trkpt lat="34.8698967" lon="33.5931443">
<ele>27.36</ele>
<time>2015-05-01T08:35:34Z</time>
</trkpt>
<trkpt lat="34.8699129" lon="33.5930825">
<ele>27.19</ele>
<time>2015-05-01T08:35:35Z</time>
</trkpt>
<trkpt lat="34.8699271" lon="33.5930168">
<ele>27.60</ele>
<time>2015-05-01T08:35:36Z</time>
</trkpt>
<trkpt lat="34.8699468" lon="33.5929605">
<ele>28.31</ele>
<time>2015-05-01T08:35:37Z</time>
</trkpt>
<trkpt lat="34.8699543" lon="33.5928937">
<ele>28.16</ele>
<time>2015-05-01T08:35:38Z</time>
</trkpt>
<trkpt lat="34.8699716" lon="33.5928309">
<ele>28.59</ele>
<time>2015-05-01T08:35:39Z</time>
</trkpt>
<trkpt lat="34.8699952" lon="33.5927668">
<ele>28.80</ele>
<time>2015-05-01T08:35:40Z</time>
</trkpt>
<trkpt lat="34.8700145" lon="33.5927068">
<ele>28.91</ele>
<time>2015-05-01T08:35:41Z</time>
</trkpt>
<trkpt lat="34.8700302" lon="33.5926387">
<ele>28.96</ele>
<time>2015-05-01T08:35:42Z</time>
</trkpt>
<trkpt lat="34.8700502" lon="33.5925782">
<ele>28.99</ele>
<time>2015-05-01T08:35:43Z</time>
</trkpt>
<trkpt lat="34.8700630" lon="33.5925126">
<ele>29.00</ele>
<time>2015-05-01T08:35:44Z</time>
</trkpt>
<trkpt lat="34.8700823" lon="33.5924461">
<ele>29.01</ele>
<time>2015-05-01T08:35:45Z</time>
</trkpt>
<trkpt lat="34.8700915" lon="33.5923800">
<ele>29.51</ele>
<time>2015-05-01T08:35:46Z</time>
</trkpt>
<trkpt lat="34.8701065" lon="33.5923135">
<ele>29.76</ele>
<time>2015-05-01T08:35:47Z</time>
</trkpt>
<trkpt lat="34.8701259" lon="33.5922602">
<ele>30.39</ele>
<time>2015-05-01T08:35:48Z</time>
</trkpt>
<trkpt lat="34.8701439" lon="33.5921999">
<ele>30.20</ele>
<time>2015-05-01T08:35:49Z</time>
</trkpt>
<trkpt lat="34.8701582" lon="33.5921472">
<ele>30.61</ele>
<time>2015-05-01T08:35:50Z</time>
</trkpt>
<trkpt lat="34.8701769" lon="33.5920913">
<ele>30.81</ele>
<time>2015-05-01T08:35:51Z</time>
</trkpt>
<trkpt lat="34.8701952" lon="33.5920329">
<ele>30.91</ele>
<time>2015-05-01T08:35:52Z</time>
</trkpt>
<trkpt lat="34.8702109" lon="33.5919747">
<ele>30.97</ele>
<time>2015-05-01T08:35:53Z</time>
</trkpt>
<trkpt lat="34.8702254" lon="33.5919190">
<ele>30.99</ele>
<time>2015-05-01T08:35:54Z</time>
</trkpt>
<trkpt lat="34.8702384" lon="33.5918592">
<ele>31.00</ele>
<time>2015-05-01T08:35:55Z</time>
</trkpt>
<trkpt lat="34.8702530" lon="33.5918008">
<ele>31.01</ele>
<time>2015-05-01T08:35:56Z</time>
</trkpt>
<trkpt lat="34.8702588" lon="33.5917395">
<ele>31.01</ele>
<time>2015-05-01T08:35:57Z</time>
</trkpt>
<trkpt lat="34.8702794" lon="33.5916382">
<ele>30.27</ele>
<time>2015-05-01T08:35:59Z</time>
</trkpt>
<trkpt lat="34.8702829" lon="33.5915827">
<ele>29.64</ele>
<time>2015-05-01T08:36:00Z</time>
</trkpt>
<trkpt lat="34.8702977" lon="33.5915102">
<ele>28.67</ele>
<time>2015-05-01T08:36:02Z</time>
</trkpt>
<trkpt lat="34.8702910" lon="33.5914338">
<ele>26.93</ele>
<time>2015-05-01T08:36:04Z</time>
</trkpt>
<trkpt lat="34.8702619" lon="33.5913620">
<ele>26.24</ele>
<time>2015-05-01T08:36:06Z</time>
</trkpt>
<trkpt lat="34.8702061" lon="33.5913084">
<ele>26.82</ele>
<time>2015-05-01T08:36:08Z</time>
</trkpt>
<trkpt lat="34.8701411" lon="33.5912697">
<ele>28.22</ele>
<time>2015-05-01T08:36:10Z</time>
</trkpt>
<trkpt lat="34.8700693" lon="33.5912416">
<ele>29.32</ele>
<time>2015-05-01T08:36:12Z</time>
</trkpt>
<trkpt lat="34.8699881" lon="33.5912172">
<ele>28.59</ele>
<time>2015-05-01T08:36:14Z</time>
</trkpt>
<trkpt lat="34.8699153" lon="33.5911938">
<ele>27.80</ele>
<time>2015-05-01T08:36:15Z</time>
</trkpt>
<trkpt lat="34.8698606" lon="33.5911742">
<ele>27.41</ele>
<time>2015-05-01T08:36:16Z</time>
</trkpt>
<trkpt lat="34.8698112" lon="33.5911522">
<ele>26.71</ele>
<time>2015-05-01T08:36:17Z</time>
</trkpt>
<trkpt lat="34.8697641" lon="33.5911389">
<ele>26.36</ele>
<time>2015-05-01T08:36:18Z</time>
</trkpt>
<trkpt lat="34.8697128" lon="33.5911171">
<ele>26.69</ele>
<time>2015-05-01T08:36:19Z</time>
</trkpt>
<trkpt lat="34.8696658" lon="33.5911020">
<ele>26.85</ele>
<time>2015-05-01T08:36:20Z</time>
</trkpt>
<trkpt lat="34.8696151" lon="33.5910829">
<ele>26.93</ele>
<time>2015-05-01T08:36:21Z</time>
</trkpt>
<trkpt lat="34.8695650" lon="33.5910630">
<ele>26.98</ele>
<time>2015-05-01T08:36:22Z</time>
</trkpt>
<trkpt lat="34.8695164" lon="33.5910341">
<ele>27.00</ele>
<time>2015-05-01T08:36:23Z</time>
</trkpt>
<trkpt lat="34.8694584" lon="33.5910007">
<ele>27.01</ele>
<time>2015-05-01T08:36:24Z</time>
</trkpt>
<trkpt lat="34.8693911" lon="33.5909680">
<ele>27.01</ele>
<time>2015-05-01T08:36:25Z</time>
</trkpt>
<trkpt lat="34.8693368" lon="33.5909303">
<ele>27.01</ele>
<time>2015-05-01T08:36:26Z</time>
</trkpt>
<trkpt lat="34.8692868" lon="33.5908983">
<ele>26.51</ele>
<time>2015-05-01T08:36:27Z</time>
</trkpt>
<trkpt lat="34.8692261" lon="33.5908574">
<ele>26.27</ele>
<time>2015-05-01T08:36:28Z</time>
</trkpt>
<trkpt lat="34.8691613" lon="33.5908302">
<ele>25.64</ele>
<time>2015-05-01T08:36:29Z</time>
</trkpt>
<trkpt lat="34.8691030" lon="33.5907904">
<ele>25.83</ele>
<time>2015-05-01T08:36:30Z</time>
</trkpt>
<trkpt lat="34.8690480" lon="33.5907536">
<ele>25.92</ele>
<time>2015-05-01T08:36:31Z</time>
</trkpt>
<trkpt lat="34.8689870" lon="33.5907183">
<ele>25.97</ele>
<time>2015-05-01T08:36:32Z</time>
</trkpt>
<trkpt lat="34.8689412" lon="33.5906748">
<ele>25.99</ele>
<time>2015-05-01T08:36:33Z</time>
</trkpt>
<trkpt lat="34.8688926" lon="33.5906334">
<ele>26.00</ele>
<time>2015-05-01T08:36:34Z</time>
</trkpt>
<trkpt lat="34.8688509" lon="33.5905918">
<ele>26.01</ele>
<time>2015-05-01T08:36:35Z</time>
</trkpt>
<trkpt lat="34.8688070" lon="33.5905530">
<ele>26.01</ele>
<time>2015-05-01T08:36:36Z</time>
</trkpt>
<trkpt lat="34.8687664" lon="33.5905215">
<ele>26.01</ele>
<time>2015-05-01T08:36:37Z</time>
</trkpt>
<trkpt lat="34.8687288" lon="33.5904840">
<ele>26.52</ele>
<time>2015-05-01T08:36:38Z</time>
</trkpt>
<trkpt lat="34.8686827" lon="33.5904593">
<ele>26.77</ele>
<time>2015-05-01T08:36:39Z</time>
</trkpt>
<trkpt lat="34.8686352" lon="33.5904266">
<ele>26.89</ele>
<time>2015-05-01T08:36:40Z</time>
</trkpt>
<trkpt lat="34.8685891" lon="33.5903852">
<ele>26.95</ele>
<time>2015-05-01T08:36:41Z</time>
</trkpt>
<trkpt lat="34.8685406" lon="33.5903440">
<ele>26.98</ele>
<time>2015-05-01T08:36:42Z</time>
</trkpt>
<trkpt lat="34.8684960" lon="33.5903048">
<ele>27.50</ele>
<time>2015-05-01T08:36:43Z</time>
</trkpt>
<trkpt lat="34.8684435" lon="33.5902747">
<ele>27.76</ele>
<time>2015-05-01T08:36:44Z</time>
</trkpt>
<trkpt lat="34.8683996" lon="33.5902415">
<ele>27.89</ele>
<time>2015-05-01T08:36:45Z</time>
</trkpt>
<trkpt lat="34.8683562" lon="33.5902114">
<ele>28.45</ele>
<time>2015-05-01T08:36:46Z</time>
</trkpt>
<trkpt lat="34.8683148" lon="33.5901689">
<ele>28.23</ele>
<time>2015-05-01T08:36:47Z</time>
</trkpt>
<trkpt lat="34.8682686" lon="33.5901285">
<ele>28.12</ele>
<time>2015-05-01T08:36:48Z</time>
</trkpt>
<trkpt lat="34.8681817" lon="33.5900801">
<ele>28.04</ele>
<time>2015-05-01T08:36:50Z</time>
</trkpt>
<trkpt lat="34.8681359" lon="33.5900570">
<ele>28.03</ele>
<time>2015-05-01T08:36:51Z</time>
</trkpt>
<trkpt lat="34.8680863" lon="33.5900304">
<ele>28.02</ele>
<time>2015-05-01T08:36:52Z</time>
</trkpt>
<trkpt lat="34.8680431" lon="33.5899988">
<ele>28.52</ele>
<time>2015-05-01T08:36:53Z</time>
</trkpt>
<trkpt lat="34.8680025" lon="33.5899699">
<ele>28.27</ele>
<time>2015-05-01T08:36:54Z</time>
</trkpt>
<trkpt lat="34.8679627" lon="33.5899377">
<ele>28.14</ele>
<time>2015-05-01T08:36:55Z</time>
</trkpt>
<trkpt lat="34.8679184" lon="33.5899142">
<ele>28.58</ele>
<time>2015-05-01T08:36:56Z</time>
</trkpt>
<trkpt lat="34.8678796" lon="33.5898792">
<ele>28.80</ele>
<time>2015-05-01T08:36:57Z</time>
</trkpt>
<trkpt lat="34.8677952" lon="33.5898300">
<ele>28.21</ele>
<time>2015-05-01T08:36:59Z</time>
</trkpt>
<trkpt lat="34.8677535" lon="33.5898059">
<ele>28.11</ele>
<time>2015-05-01T08:37:00Z</time>
</trkpt>
<trkpt lat="34.8676847" lon="33.5897513">
<ele>28.04</ele>
<time>2015-05-01T08:37:02Z</time>
</trkpt>
<trkpt lat="34.8676144" lon="33.5897004">
<ele>28.52</ele>
<time>2015-05-01T08:37:04Z</time>
</trkpt>
<trkpt lat="34.8675488" lon="33.5896546">
<ele>28.89</ele>
<time>2015-05-01T08:37:06Z</time>
</trkpt>
<trkpt lat="34.8674886" lon="33.5896069">
<ele>28.24</ele>
<time>2015-05-01T08:37:08Z</time>
</trkpt>
<trkpt lat="34.8674235" lon="33.5895612">
<ele>28.32</ele>
<time>2015-05-01T08:37:10Z</time>
</trkpt>
<trkpt lat="34.8673537" lon="33.5895345">
<ele>28.09</ele>
<time>2015-05-01T08:37:12Z</time>
</trkpt>
<trkpt lat="34.8672880" lon="33.5895449">
<ele>29.79</ele>
<time>2015-05-01T08:37:14Z</time>
</trkpt>
<trkpt lat="34.8672366" lon="33.5896088">
<ele>31.21</ele>
<time>2015-05-01T08:37:16Z</time>
</trkpt>
<trkpt lat="34.8671967" lon="33.5896888">
<ele>31.81</ele>
<time>2015-05-01T08:37:18Z</time>
</trkpt>
<trkpt lat="34.8671661" lon="33.5897726">
<ele>31.22</ele>
<time>2015-05-01T08:37:20Z</time>
</trkpt>
<trkpt lat="34.8671361" lon="33.5898559">
<ele>31.07</ele>
<time>2015-05-01T08:37:22Z</time>
</trkpt>
<trkpt lat="34.8671013" lon="33.5899399">
<ele>31.03</ele>
<time>2015-05-01T08:37:24Z</time>
</trkpt>
<trkpt lat="34.8670810" lon="33.5899974">
<ele>31.02</ele>
<time>2015-05-01T08:37:25Z</time>
</trkpt>
<trkpt lat="34.8670562" lon="33.5900513">
<ele>31.02</ele>
<time>2015-05-01T08:37:26Z</time>
</trkpt>
<trkpt lat="34.8670293" lon="33.5901016">
<ele>31.02</ele>
<time>2015-05-01T08:37:27Z</time>
</trkpt>
<trkpt lat="34.8670013" lon="33.5901566">
<ele>31.52</ele>
<time>2015-05-01T08:37:28Z</time>
</trkpt>
<trkpt lat="34.8669762" lon="33.5902057">
<ele>31.77</ele>
<time>2015-05-01T08:37:29Z</time>
</trkpt>
<trkpt lat="34.8669490" lon="33.5902570">
<ele>31.39</ele>
<time>2015-05-01T08:37:30Z</time>
</trkpt>
<trkpt lat="34.8669256" lon="33.5903116">
<ele>31.20</ele>
<time>2015-05-01T08:37:31Z</time>
</trkpt>
<trkpt lat="34.8668865" lon="33.5903560">
<ele>31.61</ele>
<time>2015-05-01T08:37:32Z</time>
</trkpt>
<trkpt lat="34.8668600" lon="33.5904035">
<ele>31.81</ele>
<time>2015-05-01T08:37:33Z</time>
</trkpt>
<trkpt lat="34.8668321" lon="33.5905180">
<ele>31.22</ele>
<time>2015-05-01T08:37:35Z</time>
</trkpt>
<trkpt lat="34.8668131" lon="33.5905764">
<ele>31.12</ele>
<time>2015-05-01T08:37:36Z</time>
</trkpt>
<trkpt lat="34.8667965" lon="33.5906278">
<ele>30.57</ele>
<time>2015-05-01T08:37:37Z</time>
</trkpt>
<trkpt lat="34.8667802" lon="33.5906866">
<ele>30.29</ele>
<time>2015-05-01T08:37:38Z</time>
</trkpt>
<trkpt lat="34.8667742" lon="33.5907445">
<ele>30.15</ele>
<time>2015-05-01T08:37:39Z</time>
</trkpt>
<trkpt lat="34.8667575" lon="33.5908382">
<ele>30.05</ele>
<time>2015-05-01T08:37:41Z</time>
</trkpt>
<trkpt lat="34.8667436" lon="33.5909089">
<ele>30.52</ele>
<time>2015-05-01T08:37:43Z</time>
</trkpt>
<trkpt lat="34.8666901" lon="33.5909524">
<ele>30.39</ele>
<time>2015-05-01T08:37:45Z</time>
</trkpt>
<trkpt lat="34.8666298" lon="33.5909490">
<ele>30.11</ele>
<time>2015-05-01T08:37:47Z</time>
</trkpt>
<trkpt lat="34.8665584" lon="33.5909555">
<ele>30.79</ele>
<time>2015-05-01T08:37:49Z</time>
</trkpt>
<trkpt lat="34.8664782" lon="33.5909558">
<ele>30.96</ele>
<time>2015-05-01T08:37:51Z</time>
</trkpt>
<trkpt lat="34.8664298" lon="33.5909561">
<ele>30.99</ele>
<time>2015-05-01T08:37:52Z</time>
</trkpt>
<trkpt lat="34.8663782" lon="33.5909558">
<ele>31.00</ele>
<time>2015-05-01T08:37:53Z</time>
</trkpt>
<trkpt lat="34.8663234" lon="33.5909607">
<ele>31.01</ele>
<time>2015-05-01T08:37:54Z</time>
</trkpt>
<trkpt lat="34.8662697" lon="33.5909617">
<ele>30.51</ele>
<time>2015-05-01T08:37:55Z</time>
</trkpt>
<trkpt lat="34.8662232" lon="33.5909619">
<ele>30.26</ele>
<time>2015-05-01T08:37:56Z</time>
</trkpt>
<trkpt lat="34.8661783" lon="33.5909667">
<ele>29.64</ele>
<time>2015-05-01T08:37:57Z</time>
</trkpt>
<trkpt lat="34.8661291" lon="33.5909805">
<ele>28.83</ele>
<time>2015-05-01T08:37:58Z</time>
</trkpt>
<trkpt lat="34.8660670" lon="33.5909985">
<ele>27.92</ele>
<time>2015-05-01T08:37:59Z</time>
</trkpt>
<trkpt lat="34.8660104" lon="33.5910092">
<ele>27.97</ele>
<time>2015-05-01T08:38:00Z</time>
</trkpt>
<trkpt lat="34.8659554" lon="33.5910278">
<ele>27.99</ele>
<time>2015-05-01T08:38:01Z</time>
</trkpt>
<trkpt lat="34.8659097" lon="33.5910331">
<ele>28.00</ele>
<time>2015-05-01T08:38:02Z</time>
</trkpt>
<trkpt lat="34.8658563" lon="33.5910354">
<ele>28.51</ele>
<time>2015-05-01T08:38:03Z</time>
</trkpt>
<trkpt lat="34.8658007" lon="33.5910346">
<ele>28.76</ele>
<time>2015-05-01T08:38:04Z</time>
</trkpt>
<trkpt lat="34.8657474" lon="33.5910348">
<ele>28.39</ele>
<time>2015-05-01T08:38:05Z</time>
</trkpt>
<trkpt lat="34.8656914" lon="33.5910315">
<ele>28.20</ele>
<time>2015-05-01T08:38:06Z</time>
</trkpt>
<trkpt lat="34.8656080" lon="33.5910251">
<ele>28.56</ele>
<time>2015-05-01T08:38:08Z</time>
</trkpt>
<trkpt lat="34.8655625" lon="33.5910276">
<ele>27.79</ele>
<time>2015-05-01T08:38:09Z</time>
</trkpt>
<trkpt lat="34.8655167" lon="33.5910015">
<ele>27.40</ele>
<time>2015-05-01T08:38:10Z</time>
</trkpt>
<trkpt lat="34.8654685" lon="33.5909700">
<ele>27.21</ele>
<time>2015-05-01T08:38:11Z</time>
</trkpt>
<trkpt lat="34.8654160" lon="33.5909323">
<ele>27.11</ele>
<time>2015-05-01T08:38:12Z</time>
</trkpt>
<trkpt lat="34.8653730" lon="33.5909034">
<ele>27.06</ele>
<time>2015-05-01T08:38:13Z</time>
</trkpt>
<trkpt lat="34.8653335" lon="33.5908697">
<ele>27.54</ele>
<time>2015-05-01T08:38:14Z</time>
</trkpt>
<trkpt lat="34.8652890" lon="33.5908362">
<ele>27.78</ele>
<time>2015-05-01T08:38:15Z</time>
</trkpt>
<trkpt lat="34.8652149" lon="33.5907714">
<ele>28.46</ele>
<time>2015-05-01T08:38:17Z</time>
</trkpt>
<trkpt lat="34.8651471" lon="33.5907178">
<ele>28.88</ele>
<time>2015-05-01T08:38:19Z</time>
</trkpt>
<trkpt lat="34.8650716" lon="33.5906588">
<ele>28.98</ele>
<time>2015-05-01T08:38:21Z</time>
</trkpt>
<trkpt lat="34.8650188" lon="33.5906180">
<ele>29.50</ele>
<time>2015-05-01T08:38:22Z</time>
</trkpt>
<trkpt lat="34.8649801" lon="33.5905800">
<ele>29.26</ele>
<time>2015-05-01T08:38:23Z</time>
</trkpt>
<trkpt lat="34.8649381" lon="33.5905397">
<ele>29.14</ele>
<time>2015-05-01T08:38:24Z</time>
</trkpt>
<trkpt lat="34.8648989" lon="33.5904951">
<ele>29.08</ele>
<time>2015-05-01T08:38:25Z</time>
</trkpt>
<trkpt lat="34.8648584" lon="33.5904403">
<ele>29.05</ele>
<time>2015-05-01T08:38:26Z</time>
</trkpt>
<trkpt lat="34.8648139" lon="33.5904107">
<ele>29.03</ele>
<time>2015-05-01T08:38:27Z</time>
</trkpt>
<trkpt lat="34.8647671" lon="33.5903680">
<ele>28.52</ele>
<time>2015-05-01T08:38:28Z</time>
</trkpt>
<trkpt lat="34.8647228" lon="33.5903312">
<ele>28.77</ele>
<time>2015-05-01T08:38:29Z</time>
</trkpt>
<trkpt lat="34.8646845" lon="33.5902930">
<ele>27.89</ele>
<time>2015-05-01T08:38:30Z</time>
</trkpt>
<trkpt lat="34.8646379" lon="33.5902596">
<ele>27.95</ele>
<time>2015-05-01T08:38:31Z</time>
</trkpt>
<trkpt lat="34.8645998" lon="33.5902189">
<ele>28.49</ele>
<time>2015-05-01T08:38:32Z</time>
</trkpt>
<trkpt lat="34.8645583" lon="33.5901783">
<ele>28.25</ele>
<time>2015-05-01T08:38:33Z</time>
</trkpt>
<trkpt lat="34.8645159" lon="33.5901364">
<ele>28.13</ele>
<time>2015-05-01T08:38:34Z</time>
</trkpt>
<trkpt lat="34.8644747" lon="33.5900838">
<ele>27.57</ele>
<time>2015-05-01T08:38:35Z</time>
</trkpt>
<trkpt lat="34.8644332" lon="33.5900413">
<ele>27.30</ele>
<time>2015-05-01T08:38:36Z</time>
</trkpt>
<trkpt lat="34.8643852" lon="33.5899882">
<ele>27.16</ele>
<time>2015-05-01T08:38:37Z</time>
</trkpt>
<trkpt lat="34.8643309" lon="33.5899516">
<ele>27.59</ele>
<time>2015-05-01T08:38:38Z</time>
</trkpt>
<trkpt lat="34.8642919" lon="33.5899167">
<ele>27.30</ele>
<time>2015-05-01T08:38:39Z</time>
</trkpt>
<trkpt lat="34.8642479" lon="33.5898705">
<ele>27.16</ele>
<time>2015-05-01T08:38:40Z</time>
</trkpt>
<trkpt lat="34.8642018" lon="33.5898308">
<ele>27.09</ele>
<time>2015-05-01T08:38:41Z</time>
</trkpt>
<trkpt lat="34.8641616" lon="33.5897908">
<ele>27.05</ele>
<time>2015-05-01T08:38:42Z</time>
</trkpt>
<trkpt lat="34.8641259" lon="33.5897516">
<ele>27.03</ele>
<time>2015-05-01T08:38:43Z</time>
</trkpt>
<trkpt lat="34.8640817" lon="33.5897038">
<ele>27.52</ele>
<time>2015-05-01T08:38:44Z</time>
</trkpt>
<trkpt lat="34.8640391" lon="33.5896624">
<ele>27.27</ele>
<time>2015-05-01T08:38:45Z</time>
</trkpt>
<trkpt lat="34.8640092" lon="33.5896164">
<ele>26.64</ele>
<time>2015-05-01T08:38:46Z</time>
</trkpt>
<trkpt lat="34.8639623" lon="33.5895497">
<ele>26.67</ele>
<time>2015-05-01T08:38:48Z</time>
</trkpt>
<trkpt lat="34.8639497" lon="33.5894746">
<ele>26.93</ele>
<time>2015-05-01T08:38:50Z</time>
</trkpt>
<trkpt lat="34.8639608" lon="33.5893899">
<ele>26.99</ele>
<time>2015-05-01T08:38:52Z</time>
</trkpt>
<trkpt lat="34.8639954" lon="33.5893064">
<ele>27.01</ele>
<time>2015-05-01T08:38:54Z</time>
</trkpt>
<trkpt lat="34.8640308" lon="33.5892269">
<ele>27.51</ele>
<time>2015-05-01T08:38:56Z</time>
</trkpt>
<trkpt lat="34.8640707" lon="33.5891596">
<ele>27.89</ele>
<time>2015-05-01T08:38:58Z</time>
</trkpt>
<trkpt lat="34.8641123" lon="33.5890949">
<ele>28.48</ele>
<time>2015-05-01T08:39:00Z</time>
</trkpt>
<trkpt lat="34.8641510" lon="33.5890159">
<ele>28.13</ele>
<time>2015-05-01T08:39:02Z</time>
</trkpt>
<trkpt lat="34.8642095" lon="33.5889162">
<ele>28.55</ele>
<time>2015-05-01T08:39:04Z</time>
</trkpt>
<trkpt lat="34.8642498" lon="33.5888326">
<ele>28.90</ele>
<time>2015-05-01T08:39:06Z</time>
</trkpt>
<trkpt lat="34.8643018" lon="33.5887401">
<ele>28.49</ele>
<time>2015-05-01T08:39:08Z</time>
</trkpt>
<trkpt lat="34.8643277" lon="33.5886940">
<ele>28.25</ele>
<time>2015-05-01T08:39:09Z</time>
</trkpt>
<trkpt lat="34.8643558" lon="33.5886395">
<ele>28.13</ele>
<time>2015-05-01T08:39:10Z</time>
</trkpt>
<trkpt lat="34.8643822" lon="33.5885885">
<ele>27.57</ele>
<time>2015-05-01T08:39:11Z</time>
</trkpt>
<trkpt lat="34.8644153" lon="33.5885390">
<ele>27.80</ele>
<time>2015-05-01T08:39:12Z</time>
</trkpt>
<trkpt lat="34.8644374" lon="33.5884854">
<ele>27.91</ele>
<time>2015-05-01T08:39:13Z</time>
</trkpt>
<trkpt lat="34.8644801" lon="33.5883922">
<ele>29.24</ele>
<time>2015-05-01T08:39:15Z</time>
</trkpt>
<trkpt lat="34.8645192" lon="33.5883045">
<ele>29.32</ele>
<time>2015-05-01T08:39:17Z</time>
</trkpt>
<trkpt lat="34.8645696" lon="33.5882382">
<ele>28.84</ele>
<time>2015-05-01T08:39:19Z</time>
</trkpt>
<trkpt lat="34.8646152" lon="33.5881536">
<ele>28.47</ele>
<time>2015-05-01T08:39:21Z</time>
</trkpt>
<trkpt lat="34.8646601" lon="33.5880717">
<ele>26.13</ele>
<time>2015-05-01T08:39:23Z</time>
</trkpt>
<trkpt lat="34.8646885" lon="33.5880278">
<ele>25.07</ele>
<time>2015-05-01T08:39:24Z</time>
</trkpt>
<trkpt lat="34.8647212" lon="33.5879807">
<ele>24.54</ele>
<time>2015-05-01T08:39:25Z</time>
</trkpt>
<trkpt lat="34.8647454" lon="33.5879344">
<ele>24.78</ele>
<time>2015-05-01T08:39:26Z</time>
</trkpt>
<trkpt lat="34.8647918" lon="33.5878568">
<ele>24.46</ele>
<time>2015-05-01T08:39:28Z</time>
</trkpt>
<trkpt lat="34.8648111" lon="33.5877484">
<ele>23.63</ele>
<time>2015-05-01T08:39:30Z</time>
</trkpt>
<trkpt lat="34.8647906" lon="33.5876713">
<ele>23.17</ele>
<time>2015-05-01T08:39:32Z</time>
</trkpt>
<trkpt lat="34.8647218" lon="33.5876212">
<ele>23.05</ele>
<time>2015-05-01T08:39:34Z</time>
</trkpt>
<trkpt lat="34.8646433" lon="33.5875661">
<ele>24.28</ele>
<time>2015-05-01T08:39:36Z</time>
</trkpt>
<trkpt lat="34.8646050" lon="33.5875299">
<ele>24.65</ele>
<time>2015-05-01T08:39:37Z</time>
</trkpt>
<trkpt lat="34.8645642" lon="33.5875013">
<ele>24.83</ele>
<time>2015-05-01T08:39:38Z</time>
</trkpt>
<trkpt lat="34.8645234" lon="33.5874721">
<ele>24.92</ele>
<time>2015-05-01T08:39:39Z</time>
</trkpt>
<trkpt lat="34.8644792" lon="33.5874386">
<ele>24.97</ele>
<time>2015-05-01T08:39:40Z</time>
</trkpt>
<trkpt lat="34.8644370" lon="33.5874080">
<ele>24.99</ele>
<time>2015-05-01T08:39:41Z</time>
</trkpt>
<trkpt lat="34.8643943" lon="33.5873768">
<ele>25.00</ele>
<time>2015-05-01T08:39:42Z</time>
</trkpt>
<trkpt lat="34.8643543" lon="33.5873467">
<ele>25.01</ele>
<time>2015-05-01T08:39:43Z</time>
</trkpt>
<trkpt lat="34.8643062" lon="33.5873136">
<ele>25.01</ele>
<time>2015-05-01T08:39:44Z</time>
</trkpt>
<trkpt lat="34.8642637" lon="33.5872938">
<ele>25.01</ele>
<time>2015-05-01T08:39:45Z</time>
</trkpt>
<trkpt lat="34.8641908" lon="33.5872285">
<ele>23.52</ele>
<time>2015-05-01T08:39:47Z</time>
</trkpt>
<trkpt lat="34.8641487" lon="33.5872003">
<ele>23.27</ele>
<time>2015-05-01T08:39:48Z</time>
</trkpt>
<trkpt lat="34.8641032" lon="33.5871784">
<ele>23.14</ele>
<time>2015-05-01T08:39:49Z</time>
</trkpt>
<trkpt lat="34.8640239" lon="33.5871303">
<ele>22.80</ele>
<time>2015-05-01T08:39:51Z</time>
</trkpt>
<trkpt lat="34.8639827" lon="33.5870904">
<ele>23.41</ele>
<time>2015-05-01T08:39:52Z</time>
</trkpt>
<trkpt lat="34.8639444" lon="33.5870526">
<ele>23.71</ele>
<time>2015-05-01T08:39:53Z</time>
</trkpt>
<trkpt lat="34.8638619" lon="33.5869954">
<ele>24.44</ele>
<time>2015-05-01T08:39:55Z</time>
</trkpt>
<trkpt lat="34.8638228" lon="33.5869680">
<ele>24.73</ele>
<time>2015-05-01T08:39:56Z</time>
</trkpt>
<trkpt lat="34.8637839" lon="33.5869386">
<ele>24.87</ele>
<time>2015-05-01T08:39:57Z</time>
</trkpt>
<trkpt lat="34.8637224" lon="33.5868876">
<ele>25.73</ele>
<time>2015-05-01T08:39:59Z</time>
</trkpt>
<trkpt lat="34.8636496" lon="33.5868321">
<ele>25.94</ele>
<time>2015-05-01T08:40:01Z</time>
</trkpt>
<trkpt lat="34.8635900" lon="33.5867887">
<ele>26.75</ele>
<time>2015-05-01T08:40:03Z</time>
</trkpt>
<trkpt lat="34.8635177" lon="33.5867392">
<ele>26.95</ele>
<time>2015-05-01T08:40:05Z</time>
</trkpt>
<trkpt lat="34.8634610" lon="33.5867014">
<ele>27.75</ele>
<time>2015-05-01T08:40:07Z</time>
</trkpt>
<trkpt lat="34.8634226" lon="33.5866683">
<ele>28.70</ele>
<time>2015-05-01T08:40:09Z</time>
</trkpt>
<trkpt lat="34.8633723" lon="33.5866301">
<ele>29.10</ele>
<time>2015-05-01T08:40:12Z</time>
</trkpt>
<trkpt lat="34.8633157" lon="33.5865948">
<ele>29.04</ele>
<time>2015-05-01T08:40:14Z</time>
</trkpt>
<trkpt lat="34.8632529" lon="33.5865430">
<ele>30.02</ele>
<time>2015-05-01T08:40:16Z</time>
</trkpt>
<trkpt lat="34.8632025" lon="33.5864956">
<ele>30.52</ele>
<time>2015-05-01T08:40:17Z</time>
</trkpt>
<trkpt lat="34.8631291" lon="33.5864504">
<ele>30.89</ele>
<time>2015-05-01T08:40:19Z</time>
</trkpt>
<trkpt lat="34.8630604" lon="33.5864060">
<ele>31.48</ele>
<time>2015-05-01T08:40:21Z</time>
</trkpt>
<trkpt lat="34.8629812" lon="33.5863472">
<ele>31.88</ele>
<time>2015-05-01T08:40:23Z</time>
</trkpt>
<trkpt lat="34.8629393" lon="33.5863170">
<ele>31.95</ele>
<time>2015-05-01T08:40:24Z</time>
</trkpt>
<trkpt lat="34.8628932" lon="33.5862800">
<ele>31.98</ele>
<time>2015-05-01T08:40:25Z</time>
</trkpt>
<trkpt lat="34.8628528" lon="33.5862546">
<ele>32.00</ele>
<time>2015-05-01T08:40:26Z</time>
</trkpt>
<trkpt lat="34.8628107" lon="33.5862350">
<ele>32.51</ele>
<time>2015-05-01T08:40:27Z</time>
</trkpt>
<trkpt lat="34.8627644" lon="33.5862024">
<ele>32.76</ele>
<time>2015-05-01T08:40:28Z</time>
</trkpt>
<trkpt lat="34.8627159" lon="33.5861551">
<ele>33.39</ele>
<time>2015-05-01T08:40:29Z</time>
</trkpt>
<trkpt lat="34.8626827" lon="33.5861180">
<ele>33.70</ele>
<time>2015-05-01T08:40:30Z</time>
</trkpt>
<trkpt lat="34.8626131" lon="33.5860628">
<ele>32.94</ele>
<time>2015-05-01T08:40:32Z</time>
</trkpt>
<trkpt lat="34.8625433" lon="33.5860140">
<ele>34.25</ele>
<time>2015-05-01T08:40:34Z</time>
</trkpt>
<trkpt lat="34.8624788" lon="33.5859762">
<ele>35.32</ele>
<time>2015-05-01T08:40:36Z</time>
</trkpt>
<trkpt lat="34.8624233" lon="33.5859472">
<ele>35.09</ele>
<time>2015-05-01T08:40:38Z</time>
</trkpt>
<trkpt lat="34.8623679" lon="33.5859127">
<ele>35.04</ele>
<time>2015-05-01T08:40:40Z</time>
</trkpt>
<trkpt lat="34.8623073" lon="33.5858754">
<ele>35.02</ele>
<time>2015-05-01T08:40:42Z</time>
</trkpt>
<trkpt lat="34.8622416" lon="33.5858457">
<ele>35.02</ele>
<time>2015-05-01T08:40:44Z</time>
</trkpt>
<trkpt lat="34.8621727" lon="33.5858506">
<ele>35.52</ele>
<time>2015-05-01T08:40:46Z</time>
</trkpt>
<trkpt lat="34.8621196" lon="33.5859182">
<ele>35.14</ele>
<time>2015-05-01T08:40:48Z</time>
</trkpt>
<trkpt lat="34.8621095" lon="33.5860133">
<ele>35.08</ele>
<time>2015-05-01T08:40:49Z</time>
</trkpt>
<trkpt lat="34.8620885" lon="33.5860672">
<ele>35.05</ele>
<time>2015-05-01T08:40:50Z</time>
</trkpt>
<trkpt lat="34.8620645" lon="33.5861222">
<ele>35.03</ele>
<time>2015-05-01T08:40:51Z</time>
</trkpt>
<trkpt lat="34.8620414" lon="33.5861799">
<ele>35.02</ele>
<time>2015-05-01T08:40:52Z</time>
</trkpt>
<trkpt lat="34.8620150" lon="33.5862416">
<ele>35.02</ele>
<time>2015-05-01T08:40:53Z</time>
</trkpt>
<trkpt lat="34.8619866" lon="33.5862894">
<ele>35.02</ele>
<time>2015-05-01T08:40:54Z</time>
</trkpt>
<trkpt lat="34.8619608" lon="33.5863396">
<ele>35.02</ele>
<time>2015-05-01T08:40:55Z</time>
</trkpt>
<trkpt lat="34.8619255" lon="33.5863844">
<ele>34.52</ele>
<time>2015-05-01T08:40:56Z</time>
</trkpt>
<trkpt lat="34.8618734" lon="33.5864310">
<ele>34.27</ele>
<time>2015-05-01T08:40:57Z</time>
</trkpt>
<trkpt lat="34.8618317" lon="33.5864740">
<ele>33.64</ele>
<time>2015-05-01T08:40:58Z</time>
</trkpt>
<trkpt lat="34.8617888" lon="33.5865198">
<ele>33.33</ele>
<time>2015-05-01T08:40:59Z</time>
</trkpt>
<trkpt lat="34.8617406" lon="33.5865619">
<ele>33.17</ele>
<time>2015-05-01T08:41:00Z</time>
</trkpt>
<trkpt lat="34.8616995" lon="33.5865974">
<ele>32.59</ele>
<time>2015-05-01T08:41:01Z</time>
</trkpt>
<trkpt lat="34.8616522" lon="33.5866328">
<ele>32.31</ele>
<time>2015-05-01T08:41:02Z</time>
</trkpt>
<trkpt lat="34.8616114" lon="33.5866687">
<ele>31.66</ele>
<time>2015-05-01T08:41:03Z</time>
</trkpt>
<trkpt lat="34.8615729" lon="33.5867032">
<ele>31.34</ele>
<time>2015-05-01T08:41:04Z</time>
</trkpt>
<trkpt lat="34.8615339" lon="33.5867522">
<ele>31.68</ele>
<time>2015-05-01T08:41:05Z</time>
</trkpt>
<trkpt lat="34.8615088" lon="33.5867992">
<ele>31.85</ele>
<time>2015-05-01T08:41:06Z</time>
</trkpt>
<trkpt lat="34.8614830" lon="33.5868491">
<ele>31.93</ele>
<time>2015-05-01T08:41:07Z</time>
</trkpt>
<trkpt lat="34.8614547" lon="33.5869022">
<ele>31.97</ele>
<time>2015-05-01T08:41:08Z</time>
</trkpt>
<trkpt lat="34.8614337" lon="33.5869582">
<ele>31.49</ele>
<time>2015-05-01T08:41:09Z</time>
</trkpt>
<trkpt lat="34.8614112" lon="33.5870083">
<ele>31.76</ele>
<time>2015-05-01T08:41:10Z</time>
</trkpt>
<trkpt lat="34.8613715" lon="33.5871103">
<ele>31.20</ele>
<time>2015-05-01T08:41:12Z</time>
</trkpt>
<trkpt lat="34.8613497" lon="33.5871600">
<ele>31.11</ele>
<time>2015-05-01T08:41:13Z</time>
</trkpt>
<trkpt lat="34.8613237" lon="33.5872112">
<ele>31.06</ele>
<time>2015-05-01T08:41:14Z</time>
</trkpt>
<trkpt lat="34.8612709" lon="33.5873023">
<ele>31.78</ele>
<time>2015-05-01T08:41:16Z</time>
</trkpt>
<trkpt lat="34.8612268" lon="33.5873915">
<ele>32.71</ele>
<time>2015-05-01T08:41:18Z</time>
</trkpt>
<trkpt lat="34.8611824" lon="33.5874770">
<ele>32.19</ele>
<time>2015-05-01T08:41:20Z</time>
</trkpt>
<trkpt lat="34.8611474" lon="33.5875239">
<ele>32.10</ele>
<time>2015-05-01T08:41:21Z</time>
</trkpt>
<trkpt lat="34.8611100" lon="33.5875702">
<ele>32.06</ele>
<time>2015-05-01T08:41:22Z</time>
</trkpt>
<trkpt lat="34.8610862" lon="33.5876268">
<ele>32.04</ele>
<time>2015-05-01T08:41:23Z</time>
</trkpt>
<trkpt lat="34.8610577" lon="33.5876890">
<ele>32.03</ele>
<time>2015-05-01T08:41:24Z</time>
</trkpt>
<trkpt lat="34.8610271" lon="33.5877499">
<ele>32.02</ele>
<time>2015-05-01T08:41:25Z</time>
</trkpt>
<trkpt lat="34.8609936" lon="33.5878135">
<ele>32.02</ele>
<time>2015-05-01T08:41:26Z</time>
</trkpt>
<trkpt lat="34.8609626" lon="33.5878845">
<ele>32.02</ele>
<time>2015-05-01T08:41:27Z</time>
</trkpt>
<trkpt lat="34.8609232" lon="33.5879607">
<ele>32.02</ele>
<time>2015-05-01T08:41:28Z</time>
</trkpt>
<trkpt lat="34.8608857" lon="33.5880398">
<ele>32.52</ele>
<time>2015-05-01T08:41:29Z</time>
</trkpt>
<trkpt lat="34.8608570" lon="33.5881069">
<ele>32.77</ele>
<time>2015-05-01T08:41:30Z</time>
</trkpt>
<trkpt lat="34.8608354" lon="33.5881768">
<ele>32.89</ele>
<time>2015-05-01T08:41:31Z</time>
</trkpt>
<trkpt lat="34.8608047" lon="33.5882504">
<ele>32.95</ele>
<time>2015-05-01T08:41:32Z</time>
</trkpt>
<trkpt lat="34.8607754" lon="33.5883066">
<ele>32.48</ele>
<time>2015-05-01T08:41:33Z</time>
</trkpt>
<trkpt lat="34.8607389" lon="33.5883789">
<ele>32.25</ele>
<time>2015-05-01T08:41:34Z</time>
</trkpt>
<trkpt lat="34.8607008" lon="33.5884425">
<ele>32.13</ele>
<time>2015-05-01T08:41:35Z</time>
</trkpt>
<trkpt lat="34.8606667" lon="33.5885084">
<ele>32.07</ele>
<time>2015-05-01T08:41:36Z</time>
</trkpt>
<trkpt lat="34.8606355" lon="33.5885675">
<ele>31.55</ele>
<time>2015-05-01T08:41:37Z</time>
</trkpt>
<trkpt lat="34.8606094" lon="33.5886268">
<ele>30.78</ele>
<time>2015-05-01T08:41:38Z</time>
</trkpt>
<trkpt lat="34.8605708" lon="33.5887007">
<ele>30.90</ele>
<time>2015-05-01T08:41:39Z</time>
</trkpt>
<trkpt lat="34.8605348" lon="33.5887580">
<ele>30.46</ele>
<time>2015-05-01T08:41:40Z</time>
</trkpt>
<trkpt lat="34.8605023" lon="33.5888315">
<ele>30.24</ele>
<time>2015-05-01T08:41:41Z</time>
</trkpt>
<trkpt lat="34.8604715" lon="33.5889046">
<ele>30.13</ele>
<time>2015-05-01T08:41:42Z</time>
</trkpt>
<trkpt lat="34.8604385" lon="33.5889729">
<ele>30.07</ele>
<time>2015-05-01T08:41:43Z</time>
</trkpt>
<trkpt lat="34.8604052" lon="33.5890384">
<ele>30.54</ele>
<time>2015-05-01T08:41:44Z</time>
</trkpt>
<trkpt lat="34.8603738" lon="33.5891080">
<ele>31.28</ele>
<time>2015-05-01T08:41:45Z</time>
</trkpt>
<trkpt lat="34.8603387" lon="33.5891815">
<ele>31.65</ele>
<time>2015-05-01T08:41:46Z</time>
</trkpt>
<trkpt lat="34.8603168" lon="33.5892370">
<ele>31.83</ele>
<time>2015-05-01T08:41:47Z</time>
</trkpt>
<trkpt lat="34.8602864" lon="33.5893054">
<ele>31.92</ele>
<time>2015-05-01T08:41:48Z</time>
</trkpt>
<trkpt lat="34.8602496" lon="33.5893679">
<ele>31.97</ele>
<time>2015-05-01T08:41:49Z</time>
</trkpt>
<trkpt lat="34.8602198" lon="33.5894225">
<ele>31.99</ele>
<time>2015-05-01T08:41:50Z</time>
</trkpt>
<trkpt lat="34.8601900" lon="33.5894764">
<ele>32.00</ele>
<time>2015-05-01T08:41:51Z</time>
</trkpt>
<trkpt lat="34.8601612" lon="33.5895265">
<ele>31.51</ele>
<time>2015-05-01T08:41:52Z</time>
</trkpt>
<trkpt lat="34.8601246" lon="33.5895833">
<ele>31.76</ele>
<time>2015-05-01T08:41:53Z</time>
</trkpt>
<trkpt lat="34.8600925" lon="33.5896337">
<ele>31.89</ele>
<time>2015-05-01T08:41:54Z</time>
</trkpt>
<trkpt lat="34.8600672" lon="33.5896899">
<ele>31.45</ele>
<time>2015-05-01T08:41:55Z</time>
</trkpt>
<trkpt lat="34.8600339" lon="33.5897428">
<ele>31.23</ele>
<time>2015-05-01T08:41:56Z</time>
</trkpt>
<trkpt lat="34.8599983" lon="33.5897917">
<ele>30.63</ele>
<time>2015-05-01T08:41:57Z</time>
</trkpt>
<trkpt lat="34.8599448" lon="33.5898756">
<ele>30.17</ele>
<time>2015-05-01T08:41:59Z</time>
</trkpt>
<trkpt lat="34.8599247" lon="33.5899282">
<ele>30.09</ele>
<time>2015-05-01T08:42:00Z</time>
</trkpt>
<trkpt lat="34.8598997" lon="33.5899767">
<ele>30.05</ele>
<time>2015-05-01T08:42:01Z</time>
</trkpt>
<trkpt lat="34.8598608" lon="33.5900608">
<ele>30.03</ele>
<time>2015-05-01T08:42:03Z</time>
</trkpt>
<trkpt lat="34.8598264" lon="33.5900976">
<ele>30.52</ele>
<time>2015-05-01T08:42:04Z</time>
</trkpt>
<trkpt lat="34.8597871" lon="33.5901652">
<ele>30.39</ele>
<time>2015-05-01T08:42:06Z</time>
</trkpt>
<trkpt lat="34.8597553" lon="33.5902154">
<ele>30.86</ele>
<time>2015-05-01T08:42:08Z</time>
</trkpt>
<trkpt lat="34.8597258" lon="33.5902591">
<ele>27.64</ele>
<time>2015-05-01T08:42:23Z</time>
</trkpt>
<trkpt lat="34.8596913" lon="33.5903061">
<ele>27.75</ele>
<time>2015-05-01T08:42:36Z</time>
</trkpt>
<trkpt lat="34.8596304" lon="33.5903011">
<ele>27.45</ele>
<time>2015-05-01T08:42:38Z</time>
</trkpt>
<trkpt lat="34.8595780" lon="33.5902328">
<ele>27.12</ele>
<time>2015-05-01T08:42:40Z</time>
</trkpt>
<trkpt lat="34.8595512" lon="33.5901325">
<ele>26.29</ele>
<time>2015-05-01T08:42:42Z</time>
</trkpt>
<trkpt lat="34.8595291" lon="33.5900493">
<ele>26.15</ele>
<time>2015-05-01T08:42:43Z</time>
</trkpt>
<trkpt lat="34.8595055" lon="33.5899974">
<ele>25.59</ele>
<time>2015-05-01T08:42:44Z</time>
</trkpt>
<trkpt lat="34.8594755" lon="33.5899435">
<ele>25.30</ele>
<time>2015-05-01T08:42:45Z</time>
</trkpt>
<trkpt lat="34.8594563" lon="33.5898842">
<ele>25.16</ele>
<time>2015-05-01T08:42:46Z</time>
</trkpt>
<trkpt lat="34.8594287" lon="33.5898348">
<ele>25.09</ele>
<time>2015-05-01T08:42:47Z</time>
</trkpt>
<trkpt lat="34.8593998" lon="33.5897755">
<ele>25.05</ele>
<time>2015-05-01T08:42:48Z</time>
</trkpt>
<trkpt lat="34.8593677" lon="33.5897133">
<ele>25.03</ele>
<time>2015-05-01T08:42:49Z</time>
</trkpt>
<trkpt lat="34.8593364" lon="33.5896483">
<ele>25.02</ele>
<time>2015-05-01T08:42:50Z</time>
</trkpt>
<trkpt lat="34.8593104" lon="33.5896006">
<ele>25.02</ele>
<time>2015-05-01T08:42:51Z</time>
</trkpt>
<trkpt lat="34.8592775" lon="33.5895472">
<ele>25.52</ele>
<time>2015-05-01T08:42:52Z</time>
</trkpt>
<trkpt lat="34.8592507" lon="33.5894983">
<ele>26.27</ele>
<time>2015-05-01T08:42:53Z</time>
</trkpt>
<trkpt lat="34.8592150" lon="33.5894467">
<ele>26.64</ele>
<time>2015-05-01T08:42:54Z</time>
</trkpt>
<trkpt lat="34.8591863" lon="33.5893999">
<ele>27.33</ele>
<time>2015-05-01T08:42:55Z</time>
</trkpt>
<trkpt lat="34.8591518" lon="33.5893480">
<ele>28.17</ele>
<time>2015-05-01T08:42:56Z</time>
</trkpt>
<trkpt lat="34.8591140" lon="33.5892794">
<ele>28.59</ele>
<time>2015-05-01T08:42:57Z</time>
</trkpt>
<trkpt lat="34.8590829" lon="33.5892249">
<ele>28.81</ele>
<time>2015-05-01T08:42:58Z</time>
</trkpt>
<trkpt lat="34.8590229" lon="33.5891199">
<ele>28.96</ele>
<time>2015-05-01T08:43:00Z</time>
</trkpt>
<trkpt lat="34.8589932" lon="33.5890644">
<ele>28.99</ele>
<time>2015-05-01T08:43:01Z</time>
</trkpt>
<trkpt lat="34.8589563" lon="33.5890025">
<ele>29.00</ele>
<time>2015-05-01T08:43:02Z</time>
</trkpt>
<trkpt lat="34.8589226" lon="33.5889500">
<ele>29.51</ele>
<time>2015-05-01T08:43:03Z</time>
</trkpt>
<trkpt lat="34.8588826" lon="33.5889034">
<ele>30.26</ele>
<time>2015-05-01T08:43:04Z</time>
</trkpt>
<trkpt lat="34.8588462" lon="33.5888352">
<ele>31.14</ele>
<time>2015-05-01T08:43:05Z</time>
</trkpt>
<trkpt lat="34.8588203" lon="33.5887472">
<ele>29.58</ele>
<time>2015-05-01T08:43:06Z</time>
</trkpt>
<trkpt lat="34.8587950" lon="33.5886774">
<ele>27.80</ele>
<time>2015-05-01T08:43:07Z</time>
</trkpt>
<trkpt lat="34.8587618" lon="33.5886210">
<ele>26.91</ele>
<time>2015-05-01T08:43:08Z</time>
</trkpt>
<trkpt lat="34.8587294" lon="33.5885664">
<ele>26.96</ele>
<time>2015-05-01T08:43:09Z</time>
</trkpt>
<trkpt lat="34.8586970" lon="33.5884989">
<ele>26.99</ele>
<time>2015-05-01T08:43:10Z</time>
</trkpt>
<trkpt lat="34.8586580" lon="33.5884309">
<ele>27.00</ele>
<time>2015-05-01T08:43:11Z</time>
</trkpt>
<trkpt lat="34.8586200" lon="33.5883718">
<ele>27.01</ele>
<time>2015-05-01T08:43:12Z</time>
</trkpt>
<trkpt lat="34.8585868" lon="33.5883152">
<ele>27.51</ele>
<time>2015-05-01T08:43:13Z</time>
</trkpt>
<trkpt lat="34.8585568" lon="33.5882571">
<ele>28.26</ele>
<time>2015-05-01T08:43:14Z</time>
</trkpt>
<trkpt lat="34.8585240" lon="33.5882050">
<ele>28.14</ele>
<time>2015-05-01T08:43:15Z</time>
</trkpt>
<trkpt lat="34.8584827" lon="33.5881538">
<ele>28.08</ele>
<time>2015-05-01T08:43:16Z</time>
</trkpt>
<trkpt lat="34.8584490" lon="33.5880958">
<ele>27.55</ele>
<time>2015-05-01T08:43:17Z</time>
</trkpt>
<trkpt lat="34.8584148" lon="33.5880426">
<ele>27.28</ele>
<time>2015-05-01T08:43:18Z</time>
</trkpt>
<trkpt lat="34.8583789" lon="33.5879891">
<ele>26.15</ele>
<time>2015-05-01T08:43:19Z</time>
</trkpt>
<trkpt lat="34.8583496" lon="33.5879427">
<ele>23.58</ele>
<time>2015-05-01T08:43:20Z</time>
</trkpt>
<trkpt lat="34.8583119" lon="33.5878856">
<ele>22.80</ele>
<time>2015-05-01T08:43:21Z</time>
</trkpt>
<trkpt lat="34.8582624" lon="33.5878254">
<ele>22.41</ele>
<time>2015-05-01T08:43:22Z</time>
</trkpt>
<trkpt lat="34.8582212" lon="33.5877808">
<ele>22.71</ele>
<time>2015-05-01T08:43:23Z</time>
</trkpt>
<trkpt lat="34.8581796" lon="33.5877343">
<ele>23.36</ele>
<time>2015-05-01T08:43:24Z</time>
</trkpt>
<trkpt lat="34.8581400" lon="33.5876769">
<ele>23.19</ele>
<time>2015-05-01T08:43:25Z</time>
</trkpt>
<trkpt lat="34.8581010" lon="33.5876282">
<ele>23.10</ele>
<time>2015-05-01T08:43:26Z</time>
</trkpt>
<trkpt lat="34.8580580" lon="33.5875824">
<ele>23.06</ele>
<time>2015-05-01T08:43:27Z</time>
</trkpt>
<trkpt lat="34.8580069" lon="33.5875340">
<ele>23.04</ele>
<time>2015-05-01T08:43:28Z</time>
</trkpt>
<trkpt lat="34.8579594" lon="33.5874948">
<ele>23.53</ele>
<time>2015-05-01T08:43:29Z</time>
</trkpt>
<trkpt lat="34.8579164" lon="33.5874392">
<ele>24.27</ele>
<time>2015-05-01T08:43:30Z</time>
</trkpt>
<trkpt lat="34.8578753" lon="33.5874005">
<ele>25.14</ele>
<time>2015-05-01T08:43:31Z</time>
</trkpt>
<trkpt lat="34.8578358" lon="33.5873666">
<ele>25.08</ele>
<time>2015-05-01T08:43:32Z</time>
</trkpt>
<trkpt lat="34.8577974" lon="33.5873210">
<ele>25.05</ele>
<time>2015-05-01T08:43:33Z</time>
</trkpt>
<trkpt lat="34.8577520" lon="33.5872836">
<ele>26.03</ele>
<time>2015-05-01T08:43:34Z</time>
</trkpt>
<trkpt lat="34.8577114" lon="33.5872343">
<ele>27.02</ele>
<time>2015-05-01T08:43:35Z</time>
</trkpt>
<trkpt lat="34.8576678" lon="33.5871855">
<ele>27.52</ele>
<time>2015-05-01T08:43:36Z</time>
</trkpt>
<trkpt lat="34.8576269" lon="33.5871277">
<ele>27.27</ele>
<time>2015-05-01T08:43:37Z</time>
</trkpt>
<trkpt lat="34.8575850" lon="33.5870742">
<ele>27.14</ele>
<time>2015-05-01T08:43:38Z</time>
</trkpt>
<trkpt lat="34.8575395" lon="33.5870238">
<ele>27.08</ele>
<time>2015-05-01T08:43:39Z</time>
</trkpt>
<trkpt lat="34.8574970" lon="33.5869657">
<ele>27.05</ele>
<time>2015-05-01T08:43:40Z</time>
</trkpt>
<trkpt lat="34.8574519" lon="33.5869114">
<ele>27.53</ele>
<time>2015-05-01T08:43:41Z</time>
</trkpt>
<trkpt lat="34.8574044" lon="33.5868578">
<ele>27.77</ele>
<time>2015-05-01T08:43:42Z</time>
</trkpt>
<trkpt lat="34.8573686" lon="33.5867978">
<ele>27.39</ele>
<time>2015-05-01T08:43:43Z</time>
</trkpt>
<trkpt lat="34.8573256" lon="33.5867522">
<ele>27.21</ele>
<time>2015-05-01T08:43:44Z</time>
</trkpt>
<trkpt lat="34.8572773" lon="33.5867063">
<ele>27.61</ele>
<time>2015-05-01T08:43:45Z</time>
</trkpt>
<trkpt lat="34.8572349" lon="33.5866541">
<ele>27.31</ele>
<time>2015-05-01T08:43:46Z</time>
</trkpt>
<trkpt lat="34.8571956" lon="33.5866156">
<ele>27.66</ele>
<time>2015-05-01T08:43:47Z</time>
</trkpt>
<trkpt lat="34.8571519" lon="33.5865739">
<ele>28.34</ele>
<time>2015-05-01T08:43:48Z</time>
</trkpt>
<trkpt lat="34.8571179" lon="33.5865330">
<ele>28.68</ele>
<time>2015-05-01T08:43:49Z</time>
</trkpt>
<trkpt lat="34.8570821" lon="33.5864927">
<ele>29.85</ele>
<time>2015-05-01T08:43:50Z</time>
</trkpt>
<trkpt lat="34.8570078" lon="33.5864144">
<ele>29.22</ele>
<time>2015-05-01T08:43:52Z</time>
</trkpt>
<trkpt lat="34.8569745" lon="33.5863635">
<ele>28.62</ele>
<time>2015-05-01T08:43:53Z</time>
</trkpt>
<trkpt lat="34.8569104" lon="33.5862751">
<ele>28.17</ele>
<time>2015-05-01T08:43:55Z</time>
</trkpt>
<trkpt lat="34.8568789" lon="33.5862319">
<ele>27.59</ele>
<time>2015-05-01T08:43:56Z</time>
</trkpt>
<trkpt lat="34.8568436" lon="33.5861978">
<ele>27.30</ele>
<time>2015-05-01T08:43:57Z</time>
</trkpt>
<trkpt lat="34.8568116" lon="33.5861457">
<ele>26.66</ele>
<time>2015-05-01T08:43:58Z</time>
</trkpt>
<trkpt lat="34.8567771" lon="33.5861083">
<ele>26.84</ele>
<time>2015-05-01T08:43:59Z</time>
</trkpt>
<trkpt lat="34.8567482" lon="33.5860632">
<ele>27.43</ele>
<time>2015-05-01T08:44:00Z</time>
</trkpt>
<trkpt lat="34.8567302" lon="33.5859943">
<ele>26.22</ele>
<time>2015-05-01T08:44:01Z</time>
</trkpt>
<trkpt lat="34.8566990" lon="33.5859428">
<ele>25.12</ele>
<time>2015-05-01T08:44:02Z</time>
</trkpt>
<trkpt lat="34.8566578" lon="33.5859040">
<ele>24.57</ele>
<time>2015-05-01T08:44:03Z</time>
</trkpt>
<trkpt lat="34.8566275" lon="33.5858506">
<ele>24.29</ele>
<time>2015-05-01T08:44:04Z</time>
</trkpt>
<trkpt lat="34.8565618" lon="33.5857624">
<ele>24.83</ele>
<time>2015-05-01T08:44:06Z</time>
</trkpt>
<trkpt lat="34.8565248" lon="33.5857292">
<ele>25.43</ele>
<time>2015-05-01T08:44:07Z</time>
</trkpt>
<trkpt lat="34.8564827" lon="33.5856776">
<ele>25.72</ele>
<time>2015-05-01T08:44:08Z</time>
</trkpt>
<trkpt lat="34.8564484" lon="33.5856362">
<ele>26.37</ele>
<time>2015-05-01T08:44:09Z</time>
</trkpt>
<trkpt lat="34.8563836" lon="33.5855582">
<ele>26.35</ele>
<time>2015-05-01T08:44:11Z</time>
</trkpt>
<trkpt lat="34.8563501" lon="33.5855059">
<ele>26.19</ele>
<time>2015-05-01T08:44:12Z</time>
</trkpt>
<trkpt lat="34.8563134" lon="33.5854577">
<ele>26.60</ele>
<time>2015-05-01T08:44:13Z</time>
</trkpt>
<trkpt lat="34.8562756" lon="33.5854127">
<ele>26.81</ele>
<time>2015-05-01T08:44:14Z</time>
</trkpt>
<trkpt lat="34.8562444" lon="33.5853730">
<ele>26.91</ele>
<time>2015-05-01T08:44:15Z</time>
</trkpt>
<trkpt lat="34.8562124" lon="33.5853264">
<ele>26.96</ele>
<time>2015-05-01T08:44:16Z</time>
</trkpt>
<trkpt lat="34.8561732" lon="33.5852874">
<ele>27.49</ele>
<time>2015-05-01T08:44:17Z</time>
</trkpt>
<trkpt lat="34.8561450" lon="33.5852430">
<ele>27.75</ele>
<time>2015-05-01T08:44:18Z</time>
</trkpt>
<trkpt lat="34.8561150" lon="33.5851978">
<ele>27.88</ele>
<time>2015-05-01T08:44:19Z</time>
</trkpt>
<trkpt lat="34.8560847" lon="33.5851483">
<ele>27.95</ele>
<time>2015-05-01T08:44:20Z</time>
</trkpt>
<trkpt lat="34.8560593" lon="33.5850989">
<ele>27.48</ele>
<time>2015-05-01T08:44:21Z</time>
</trkpt>
<trkpt lat="34.8560322" lon="33.5850440">
<ele>26.25</ele>
<time>2015-05-01T08:44:22Z</time>
</trkpt>
<trkpt lat="34.8560035" lon="33.5849912">
<ele>25.63</ele>
<time>2015-05-01T08:44:23Z</time>
</trkpt>
<trkpt lat="34.8559672" lon="33.5849397">
<ele>25.32</ele>
<time>2015-05-01T08:44:24Z</time>
</trkpt>
<trkpt lat="34.8559395" lon="33.5848891">
<ele>25.67</ele>
<time>2015-05-01T08:44:25Z</time>
</trkpt>
<trkpt lat="34.8558740" lon="33.5848134">
<ele>26.68</ele>
<time>2015-05-01T08:44:27Z</time>
</trkpt>
<trkpt lat="34.8558397" lon="33.5847724">
<ele>27.35</ele>
<time>2015-05-01T08:44:28Z</time>
</trkpt>
<trkpt lat="34.8558090" lon="33.5847323">
<ele>27.68</ele>
<time>2015-05-01T08:44:29Z</time>
</trkpt>
<trkpt lat="34.8557479" lon="33.5846592">
<ele>28.43</ele>
<time>2015-05-01T08:44:31Z</time>
</trkpt>
<trkpt lat="34.8556930" lon="33.5846024">
<ele>29.62</ele>
<time>2015-05-01T08:44:33Z</time>
</trkpt>
<trkpt lat="34.8556574" lon="33.5845482">
<ele>30.67</ele>
<time>2015-05-01T08:44:35Z</time>
</trkpt>
<trkpt lat="34.8556122" lon="33.5844863">
<ele>30.18</ele>
<time>2015-05-01T08:44:37Z</time>
</trkpt>
<trkpt lat="34.8555644" lon="33.5844136">
<ele>28.56</ele>
<time>2015-05-01T08:44:39Z</time>
</trkpt>
<trkpt lat="34.8555323" lon="33.5843747">
<ele>28.79</ele>
<time>2015-05-01T08:44:40Z</time>
</trkpt>
<trkpt lat="34.8554694" lon="33.5843034">
<ele>29.46</ele>
<time>2015-05-01T08:44:42Z</time>
</trkpt>
<trkpt lat="34.8554091" lon="33.5842288">
<ele>29.38</ele>
<time>2015-05-01T08:44:44Z</time>
</trkpt>
<trkpt lat="34.8553536" lon="33.5841442">
<ele>29.36</ele>
<time>2015-05-01T08:44:46Z</time>
</trkpt>
<trkpt lat="34.8553235" lon="33.5841017">
<ele>29.19</ele>
<time>2015-05-01T08:44:47Z</time>
</trkpt>
<trkpt lat="34.8552494" lon="33.5840533">
<ele>29.06</ele>
<time>2015-05-01T08:44:49Z</time>
</trkpt>
<trkpt lat="34.8552138" lon="33.5840097">
<ele>29.54</ele>
<time>2015-05-01T08:44:50Z</time>
</trkpt>
<trkpt lat="34.8551852" lon="33.5839613">
<ele>29.78</ele>
<time>2015-05-01T08:44:51Z</time>
</trkpt>
<trkpt lat="34.8551532" lon="33.5839153">
<ele>29.90</ele>
<time>2015-05-01T08:44:52Z</time>
</trkpt>
<trkpt lat="34.8551233" lon="33.5838667">
<ele>29.96</ele>
<time>2015-05-01T08:44:53Z</time>
</trkpt>
<trkpt lat="34.8550909" lon="33.5838155">
<ele>30.49</ele>
<time>2015-05-01T08:44:54Z</time>
</trkpt>
<trkpt lat="34.8550510" lon="33.5837677">
<ele>31.25</ele>
<time>2015-05-01T08:44:55Z</time>
</trkpt>
<trkpt lat="34.8550129" lon="33.5837097">
<ele>31.63</ele>
<time>2015-05-01T08:44:56Z</time>
</trkpt>
<trkpt lat="34.8549722" lon="33.5836657">
<ele>31.82</ele>
<time>2015-05-01T08:44:57Z</time>
</trkpt>
<trkpt lat="34.8549406" lon="33.5836153">
<ele>31.42</ele>
<time>2015-05-01T08:44:58Z</time>
</trkpt>
<trkpt lat="34.8549038" lon="33.5835651">
<ele>30.72</ele>
<time>2015-05-01T08:44:59Z</time>
</trkpt>
<trkpt lat="34.8548634" lon="33.5835121">
<ele>29.87</ele>
<time>2015-05-01T08:45:00Z</time>
</trkpt>
<trkpt lat="34.8548228" lon="33.5834531">
<ele>29.44</ele>
<time>2015-05-01T08:45:01Z</time>
</trkpt>
<trkpt lat="34.8547835" lon="33.5834041">
<ele>29.23</ele>
<time>2015-05-01T08:45:02Z</time>
</trkpt>
<trkpt lat="34.8547495" lon="33.5833647">
<ele>29.12</ele>
<time>2015-05-01T08:45:03Z</time>
</trkpt>
<trkpt lat="34.8547106" lon="33.5833127">
<ele>29.07</ele>
<time>2015-05-01T08:45:04Z</time>
</trkpt>
<trkpt lat="34.8546528" lon="33.5832197">
<ele>29.03</ele>
<time>2015-05-01T08:45:06Z</time>
</trkpt>
<trkpt lat="34.8546176" lon="33.5831720">
<ele>29.02</ele>
<time>2015-05-01T08:45:07Z</time>
</trkpt>
<trkpt lat="34.8545828" lon="33.5831103">
<ele>29.02</ele>
<time>2015-05-01T08:45:08Z</time>
</trkpt>
<trkpt lat="34.8545397" lon="33.5830638">
<ele>29.52</ele>
<time>2015-05-01T08:45:09Z</time>
</trkpt>
<trkpt lat="34.8545068" lon="33.5830036">
<ele>29.77</ele>
<time>2015-05-01T08:45:10Z</time>
</trkpt>
<trkpt lat="34.8544701" lon="33.5829611">
<ele>29.89</ele>
<time>2015-05-01T08:45:11Z</time>
</trkpt>
<trkpt lat="34.8544317" lon="33.5829063">
<ele>30.45</ele>
<time>2015-05-01T08:45:12Z</time>
</trkpt>
<trkpt lat="34.8543906" lon="33.5828558">
<ele>31.73</ele>
<time>2015-05-01T08:45:13Z</time>
</trkpt>
<trkpt lat="34.8543571" lon="33.5828074">
<ele>31.38</ele>
<time>2015-05-01T08:45:14Z</time>
</trkpt>
<trkpt lat="34.8543168" lon="33.5827570">
<ele>31.20</ele>
<time>2015-05-01T08:45:15Z</time>
</trkpt>
<trkpt lat="34.8542729" lon="33.5826978">
<ele>30.61</ele>
<time>2015-05-01T08:45:16Z</time>
</trkpt>
<trkpt lat="34.8542378" lon="33.5826480">
<ele>30.31</ele>
<time>2015-05-01T08:45:17Z</time>
</trkpt>
<trkpt lat="34.8541964" lon="33.5826066">
<ele>30.16</ele>
<time>2015-05-01T08:45:18Z</time>
</trkpt>
<trkpt lat="34.8541555" lon="33.5825638">
<ele>29.09</ele>
<time>2015-05-01T08:45:19Z</time>
</trkpt>
<trkpt lat="34.8541209" lon="33.5825113">
<ele>28.55</ele>
<time>2015-05-01T08:45:20Z</time>
</trkpt>
<trkpt lat="34.8540831" lon="33.5824572">
<ele>28.78</ele>
<time>2015-05-01T08:45:21Z</time>
</trkpt>
<trkpt lat="34.8540180" lon="33.5823764">
<ele>30.21</ele>
<time>2015-05-01T08:45:23Z</time>
</trkpt>
<trkpt lat="34.8539764" lon="33.5823305">
<ele>31.11</ele>
<time>2015-05-01T08:45:24Z</time>
</trkpt>
<trkpt lat="34.8539418" lon="33.5822890">
<ele>31.06</ele>
<time>2015-05-01T08:45:25Z</time>
</trkpt>
<trkpt lat="34.8539065" lon="33.5822396">
<ele>30.54</ele>
<time>2015-05-01T08:45:26Z</time>
</trkpt>
<trkpt lat="34.8538686" lon="33.5821960">
<ele>30.28</ele>
<time>2015-05-01T08:45:27Z</time>
</trkpt>
<trkpt lat="34.8538276" lon="33.5821550">
<ele>30.65</ele>
<time>2015-05-01T08:45:28Z</time>
</trkpt>
<trkpt lat="34.8537919" lon="33.5821098">
<ele>31.33</ele>
<time>2015-05-01T08:45:29Z</time>
</trkpt>
<trkpt lat="34.8537575" lon="33.5820572">
<ele>31.67</ele>
<time>2015-05-01T08:45:30Z</time>
</trkpt>
<trkpt lat="34.8536970" lon="33.5819740">
<ele>31.68</ele>
<time>2015-05-01T08:45:32Z</time>
</trkpt>
<trkpt lat="34.8536690" lon="33.5819292">
<ele>31.85</ele>
<time>2015-05-01T08:45:33Z</time>
</trkpt>
<trkpt lat="34.8536348" lon="33.5818822">
<ele>31.43</ele>
<time>2015-05-01T08:45:34Z</time>
</trkpt>
<trkpt lat="34.8536005" lon="33.5818366">
<ele>30.72</ele>
<time>2015-05-01T08:45:35Z</time>
</trkpt>
<trkpt lat="34.8535616" lon="33.5817984">
<ele>30.37</ele>
<time>2015-05-01T08:45:36Z</time>
</trkpt>
<trkpt lat="34.8535198" lon="33.5817567">
<ele>30.69</ele>
<time>2015-05-01T08:45:37Z</time>
</trkpt>
<trkpt lat="34.8534839" lon="33.5817091">
<ele>30.85</ele>
<time>2015-05-01T08:45:38Z</time>
</trkpt>
<trkpt lat="34.8534437" lon="33.5816844">
<ele>30.44</ele>
<time>2015-05-01T08:45:39Z</time>
</trkpt>
<trkpt lat="34.8533768" lon="33.5815998">
<ele>30.87</ele>
<time>2015-05-01T08:45:41Z</time>
</trkpt>
<trkpt lat="34.8533423" lon="33.5815552">
<ele>30.94</ele>
<time>2015-05-01T08:45:42Z</time>
</trkpt>
<trkpt lat="34.8533112" lon="33.5815030">
<ele>30.48</ele>
<time>2015-05-01T08:45:43Z</time>
</trkpt>
<trkpt lat="34.8532710" lon="33.5814648">
<ele>29.75</ele>
<time>2015-05-01T08:45:44Z</time>
</trkpt>
<trkpt lat="34.8532297" lon="33.5814395">
<ele>29.88</ele>
<time>2015-05-01T08:45:45Z</time>
</trkpt>
<trkpt lat="34.8531942" lon="33.5814011">
<ele>29.45</ele>
<time>2015-05-01T08:45:46Z</time>
</trkpt>
<trkpt lat="34.8531622" lon="33.5813575">
<ele>29.73</ele>
<time>2015-05-01T08:45:47Z</time>
</trkpt>
<trkpt lat="34.8531236" lon="33.5813037">
<ele>29.37</ele>
<time>2015-05-01T08:45:48Z</time>
</trkpt>
<trkpt lat="34.8530847" lon="33.5812582">
<ele>28.70</ele>
<time>2015-05-01T08:45:49Z</time>
</trkpt>
<trkpt lat="34.8530535" lon="33.5812158">
<ele>28.36</ele>
<time>2015-05-01T08:45:50Z</time>
</trkpt>
<trkpt lat="34.8530117" lon="33.5811778">
<ele>28.69</ele>
<time>2015-05-01T08:45:51Z</time>
</trkpt>
<trkpt lat="34.8529791" lon="33.5811334">
<ele>28.85</ele>
<time>2015-05-01T08:45:52Z</time>
</trkpt>
<trkpt lat="34.8529110" lon="33.5810636">
<ele>29.72</ele>
<time>2015-05-01T08:45:54Z</time>
</trkpt>
<trkpt lat="34.8528800" lon="33.5810164">
<ele>29.87</ele>
<time>2015-05-01T08:45:55Z</time>
</trkpt>
<trkpt lat="34.8528427" lon="33.5809655">
<ele>30.44</ele>
<time>2015-05-01T08:45:56Z</time>
</trkpt>
<trkpt lat="34.8528053" lon="33.5809274">
<ele>30.23</ele>
<time>2015-05-01T08:45:57Z</time>
</trkpt>
<trkpt lat="34.8527708" lon="33.5808787">
<ele>30.62</ele>
<time>2015-05-01T08:45:58Z</time>
</trkpt>
<trkpt lat="34.8527377" lon="33.5808290">
<ele>30.32</ele>
<time>2015-05-01T08:45:59Z</time>
</trkpt>
<trkpt lat="34.8527048" lon="33.5807846">
<ele>30.17</ele>
<time>2015-05-01T08:46:00Z</time>
</trkpt>
<trkpt lat="34.8526603" lon="33.5807406">
<ele>29.59</ele>
<time>2015-05-01T08:46:01Z</time>
</trkpt>
<trkpt lat="34.8526235" lon="33.5806950">
<ele>29.30</ele>
<time>2015-05-01T08:46:02Z</time>
</trkpt>
<trkpt lat="34.8525915" lon="33.5806546">
<ele>28.66</ele>
<time>2015-05-01T08:46:03Z</time>
</trkpt>
<trkpt lat="34.8525363" lon="33.5805722">
<ele>28.18</ele>
<time>2015-05-01T08:46:05Z</time>
</trkpt>
<trkpt lat="34.8525050" lon="33.5805329">
<ele>28.60</ele>
<time>2015-05-01T08:46:06Z</time>
</trkpt>
<trkpt lat="34.8524698" lon="33.5804931">
<ele>29.31</ele>
<time>2015-05-01T08:46:07Z</time>
</trkpt>
<trkpt lat="34.8524119" lon="33.5804316">
<ele>30.34</ele>
<time>2015-05-01T08:46:09Z</time>
</trkpt>
<trkpt lat="34.8523798" lon="33.5803917">
<ele>30.68</ele>
<time>2015-05-01T08:46:10Z</time>
</trkpt>
<trkpt lat="34.8523554" lon="33.5803401">
<ele>30.35</ele>
<time>2015-05-01T08:46:11Z</time>
</trkpt>
<trkpt lat="34.8523244" lon="33.5802967">
<ele>30.18</ele>
<time>2015-05-01T08:46:12Z</time>
</trkpt>
<trkpt lat="34.8522854" lon="33.5802546">
<ele>30.60</ele>
<time>2015-05-01T08:46:13Z</time>
</trkpt>
<trkpt lat="34.8522258" lon="33.5801707">
<ele>31.66</ele>
<time>2015-05-01T08:46:15Z</time>
</trkpt>
<trkpt lat="34.8521914" lon="33.5801213">
<ele>32.34</ele>
<time>2015-05-01T08:46:16Z</time>
</trkpt>
<trkpt lat="34.8521582" lon="33.5800784">
<ele>33.18</ele>
<time>2015-05-01T08:46:17Z</time>
</trkpt>
<trkpt lat="34.8521297" lon="33.5800256">
<ele>33.10</ele>
<time>2015-05-01T08:46:18Z</time>
</trkpt>
<trkpt lat="34.8520998" lon="33.5799763">
<ele>33.56</ele>
<time>2015-05-01T08:46:19Z</time>
</trkpt>
<trkpt lat="34.8520607" lon="33.5799288">
<ele>33.79</ele>
<time>2015-05-01T08:46:20Z</time>
</trkpt>
<trkpt lat="34.8520335" lon="33.5798773">
<ele>33.90</ele>
<time>2015-05-01T08:46:21Z</time>
</trkpt>
<trkpt lat="34.8520025" lon="33.5798286">
<ele>33.96</ele>
<time>2015-05-01T08:46:22Z</time>
</trkpt>
<trkpt lat="34.8519741" lon="33.5797827">
<ele>33.99</ele>
<time>2015-05-01T08:46:23Z</time>
</trkpt>
<trkpt lat="34.8519366" lon="33.5797306">
<ele>34.50</ele>
<time>2015-05-01T08:46:24Z</time>
</trkpt>
<trkpt lat="34.8519034" lon="33.5796867">
<ele>34.76</ele>
<time>2015-05-01T08:46:25Z</time>
</trkpt>
<trkpt lat="34.8518665" lon="33.5796276">
<ele>34.89</ele>
<time>2015-05-01T08:46:26Z</time>
</trkpt>
<trkpt lat="34.8518314" lon="33.5795778">
<ele>35.45</ele>
<time>2015-05-01T08:46:27Z</time>
</trkpt>
<trkpt lat="34.8518018" lon="33.5795171">
<ele>35.23</ele>
<time>2015-05-01T08:46:28Z</time>
</trkpt>
<trkpt lat="34.8517732" lon="33.5794735">
<ele>35.12</ele>
<time>2015-05-01T08:46:29Z</time>
</trkpt>
<trkpt lat="34.8517180" lon="33.5793939">
<ele>35.04</ele>
<time>2015-05-01T08:46:31Z</time>
</trkpt>
<trkpt lat="34.8516850" lon="33.5793247">
<ele>32.52</ele>
<time>2015-05-01T08:46:33Z</time>
</trkpt>
<trkpt lat="34.8516366" lon="33.5792660">
<ele>31.39</ele>
<time>2015-05-01T08:46:35Z</time>
</trkpt>
<trkpt lat="34.8516114" lon="33.5792188">
<ele>31.20</ele>
<time>2015-05-01T08:46:36Z</time>
</trkpt>
<trkpt lat="34.8515510" lon="33.5791514">
<ele>31.06</ele>
<time>2015-05-01T08:46:38Z</time>
</trkpt>
<trkpt lat="34.8514996" lon="33.5790721">
<ele>31.53</ele>
<time>2015-05-01T08:46:40Z</time>
</trkpt>
<trkpt lat="34.8514401" lon="33.5789981">
<ele>31.89</ele>
<time>2015-05-01T08:46:42Z</time>
</trkpt>
<trkpt lat="34.8513756" lon="33.5789016">
<ele>31.49</ele>
<time>2015-05-01T08:46:44Z</time>
</trkpt>
<trkpt lat="34.8513447" lon="33.5788475">
<ele>31.25</ele>
<time>2015-05-01T08:46:45Z</time>
</trkpt>
<trkpt lat="34.8513166" lon="33.5787880">
<ele>30.63</ele>
<time>2015-05-01T08:46:46Z</time>
</trkpt>
<trkpt lat="34.8512765" lon="33.5787384">
<ele>30.32</ele>
<time>2015-05-01T08:46:47Z</time>
</trkpt>
<trkpt lat="34.8512365" lon="33.5786869">
<ele>30.67</ele>
<time>2015-05-01T08:46:48Z</time>
</trkpt>
<trkpt lat="34.8512043" lon="33.5786362">
<ele>30.34</ele>
<time>2015-05-01T08:46:49Z</time>
</trkpt>
<trkpt lat="34.8511709" lon="33.5785872">
<ele>30.18</ele>
<time>2015-05-01T08:46:50Z</time>
</trkpt>
<trkpt lat="34.8511373" lon="33.5785402">
<ele>30.10</ele>
<time>2015-05-01T08:46:51Z</time>
</trkpt>
<trkpt lat="34.8511050" lon="33.5784795">
<ele>30.56</ele>
<time>2015-05-01T08:46:52Z</time>
</trkpt>
<trkpt lat="34.8510663" lon="33.5784343">
<ele>30.29</ele>
<time>2015-05-01T08:46:53Z</time>
</trkpt>
<trkpt lat="34.8510258" lon="33.5783716">
<ele>31.15</ele>
<time>2015-05-01T08:46:54Z</time>
</trkpt>
<trkpt lat="34.8509888" lon="33.5783237">
<ele>31.58</ele>
<time>2015-05-01T08:46:55Z</time>
</trkpt>
<trkpt lat="34.8509347" lon="33.5782308">
<ele>31.41</ele>
<time>2015-05-01T08:46:57Z</time>
</trkpt>
<trkpt lat="34.8508757" lon="33.5781420">
<ele>31.11</ele>
<time>2015-05-01T08:46:59Z</time>
</trkpt>
<trkpt lat="34.8508342" lon="33.5781024">
<ele>31.56</ele>
<time>2015-05-01T08:47:00Z</time>
</trkpt>
<trkpt lat="34.8508046" lon="33.5780533">
<ele>31.79</ele>
<time>2015-05-01T08:47:01Z</time>
</trkpt>
<trkpt lat="34.8507772" lon="33.5780053">
<ele>31.40</ele>
<time>2015-05-01T08:47:02Z</time>
</trkpt>
<trkpt lat="34.8507485" lon="33.5779608">
<ele>31.21</ele>
<time>2015-05-01T08:47:03Z</time>
</trkpt>
<trkpt lat="34.8507170" lon="33.5779087">
<ele>31.11</ele>
<time>2015-05-01T08:47:04Z</time>
</trkpt>
<trkpt lat="34.8506865" lon="33.5778585">
<ele>31.06</ele>
<time>2015-05-01T08:47:05Z</time>
</trkpt>
<trkpt lat="34.8506508" lon="33.5778160">
<ele>31.04</ele>
<time>2015-05-01T08:47:06Z</time>
</trkpt>
<trkpt lat="34.8506206" lon="33.5777628">
<ele>30.03</ele>
<time>2015-05-01T08:47:07Z</time>
</trkpt>
<trkpt lat="34.8505876" lon="33.5777153">
<ele>30.52</ele>
<time>2015-05-01T08:47:08Z</time>
</trkpt>
<trkpt lat="34.8505239" lon="33.5776428">
<ele>31.64</ele>
<time>2015-05-01T08:47:10Z</time>
</trkpt>
<trkpt lat="34.8504774" lon="33.5775698">
<ele>32.67</ele>
<time>2015-05-01T08:47:12Z</time>
</trkpt>
<trkpt lat="34.8504275" lon="33.5774839">
<ele>32.18</ele>
<time>2015-05-01T08:47:14Z</time>
</trkpt>
<trkpt lat="34.8503889" lon="33.5773843">
<ele>30.56</ele>
<time>2015-05-01T08:47:16Z</time>
</trkpt>
<trkpt lat="34.8503275" lon="33.5773091">
<ele>29.90</ele>
<time>2015-05-01T08:47:18Z</time>
</trkpt>
<trkpt lat="34.8502866" lon="33.5772542">
<ele>29.96</ele>
<time>2015-05-01T08:47:19Z</time>
</trkpt>
<trkpt lat="34.8502583" lon="33.5771933">
<ele>29.99</ele>
<time>2015-05-01T08:47:20Z</time>
</trkpt>
<trkpt lat="34.8502216" lon="33.5771535">
<ele>30.50</ele>
<time>2015-05-01T08:47:21Z</time>
</trkpt>
<trkpt lat="34.8501889" lon="33.5771133">
<ele>31.76</ele>
<time>2015-05-01T08:47:22Z</time>
</trkpt>
<trkpt lat="34.8501448" lon="33.5770858">
<ele>32.39</ele>
<time>2015-05-01T08:47:23Z</time>
</trkpt>
<trkpt lat="34.8501058" lon="33.5770398">
<ele>32.70</ele>
<time>2015-05-01T08:47:24Z</time>
</trkpt>
<trkpt lat="34.8500686" lon="33.5769817">
<ele>32.36</ele>
<time>2015-05-01T08:47:25Z</time>
</trkpt>
<trkpt lat="34.8500357" lon="33.5769326">
<ele>32.19</ele>
<time>2015-05-01T08:47:26Z</time>
</trkpt>
<trkpt lat="34.8499972" lon="33.5768806">
<ele>32.10</ele>
<time>2015-05-01T08:47:27Z</time>
</trkpt>
<trkpt lat="34.8499623" lon="33.5768342">
<ele>32.56</ele>
<time>2015-05-01T08:47:28Z</time>
</trkpt>
<trkpt lat="34.8499310" lon="33.5767739">
<ele>32.29</ele>
<time>2015-05-01T08:47:29Z</time>
</trkpt>
<trkpt lat="34.8499010" lon="33.5767170">
<ele>32.15</ele>
<time>2015-05-01T08:47:30Z</time>
</trkpt>
<trkpt lat="34.8498719" lon="33.5766708">
<ele>32.08</ele>
<time>2015-05-01T08:47:31Z</time>
</trkpt>
<trkpt lat="34.8498385" lon="33.5766196">
<ele>32.55</ele>
<time>2015-05-01T08:47:32Z</time>
</trkpt>
<trkpt lat="34.8497901" lon="33.5765495">
<ele>32.15</ele>
<time>2015-05-01T08:47:34Z</time>
</trkpt>
<trkpt lat="34.8497458" lon="33.5764662">
<ele>32.05</ele>
<time>2015-05-01T08:47:36Z</time>
</trkpt>
<trkpt lat="34.8496788" lon="33.5763987">
<ele>32.02</ele>
<time>2015-05-01T08:47:38Z</time>
</trkpt>
<trkpt lat="34.8496285" lon="33.5763118">
<ele>32.02</ele>
<time>2015-05-01T08:47:40Z</time>
</trkpt>
<trkpt lat="34.8495971" lon="33.5762643">
<ele>32.52</ele>
<time>2015-05-01T08:47:41Z</time>
</trkpt>
<trkpt lat="34.8495698" lon="33.5762118">
<ele>33.77</ele>
<time>2015-05-01T08:47:42Z</time>
</trkpt>
<trkpt lat="34.8495453" lon="33.5761613">
<ele>33.39</ele>
<time>2015-05-01T08:47:43Z</time>
</trkpt>
<trkpt lat="34.8495147" lon="33.5761081">
<ele>33.20</ele>
<time>2015-05-01T08:47:44Z</time>
</trkpt>
<trkpt lat="34.8494770" lon="33.5760477">
<ele>33.11</ele>
<time>2015-05-01T08:47:45Z</time>
</trkpt>
<trkpt lat="34.8494458" lon="33.5760032">
<ele>33.56</ele>
<time>2015-05-01T08:47:46Z</time>
</trkpt>
<trkpt lat="34.8494046" lon="33.5759682">
<ele>32.79</ele>
<time>2015-05-01T08:47:47Z</time>
</trkpt>
<trkpt lat="34.8493704" lon="33.5759256">
<ele>32.40</ele>
<time>2015-05-01T08:47:48Z</time>
</trkpt>
<trkpt lat="34.8493275" lon="33.5758717">
<ele>32.21</ele>
<time>2015-05-01T08:47:49Z</time>
</trkpt>
<trkpt lat="34.8492806" lon="33.5757850">
<ele>32.06</ele>
<time>2015-05-01T08:47:51Z</time>
</trkpt>
<trkpt lat="34.8492273" lon="33.5757102">
<ele>31.53</ele>
<time>2015-05-01T08:47:53Z</time>
</trkpt>
<trkpt lat="34.8492020" lon="33.5756628">
<ele>31.27</ele>
<time>2015-05-01T08:47:54Z</time>
</trkpt>
<trkpt lat="34.8491517" lon="33.5755846">
<ele>29.58</ele>
<time>2015-05-01T08:47:56Z</time>
</trkpt>
<trkpt lat="34.8491194" lon="33.5755434">
<ele>29.30</ele>
<time>2015-05-01T08:47:57Z</time>
</trkpt>
<trkpt lat="34.8490875" lon="33.5755030">
<ele>29.16</ele>
<time>2015-05-01T08:47:58Z</time>
</trkpt>
<trkpt lat="34.8490309" lon="33.5754326">
<ele>29.55</ele>
<time>2015-05-01T08:48:00Z</time>
</trkpt>
<trkpt lat="34.8490088" lon="33.5753835">
<ele>29.78</ele>
<time>2015-05-01T08:48:01Z</time>
</trkpt>
<trkpt lat="34.8489799" lon="33.5753391">
<ele>29.90</ele>
<time>2015-05-01T08:48:02Z</time>
</trkpt>
<trkpt lat="34.8489263" lon="33.5752453">
<ele>29.49</ele>
<time>2015-05-01T08:48:04Z</time>
</trkpt>
<trkpt lat="34.8488879" lon="33.5751811">
<ele>29.75</ele>
<time>2015-05-01T08:48:05Z</time>
</trkpt>
<trkpt lat="34.8488572" lon="33.5751337">
<ele>29.38</ele>
<time>2015-05-01T08:48:06Z</time>
</trkpt>
<trkpt lat="34.8488274" lon="33.5750908">
<ele>29.70</ele>
<time>2015-05-01T08:48:07Z</time>
</trkpt>
<trkpt lat="34.8487781" lon="33.5750050">
<ele>30.69</ele>
<time>2015-05-01T08:48:09Z</time>
</trkpt>
<trkpt lat="34.8487396" lon="33.5749652">
<ele>30.85</ele>
<time>2015-05-01T08:48:10Z</time>
</trkpt>
<trkpt lat="34.8486977" lon="33.5749153">
<ele>31.43</ele>
<time>2015-05-01T08:48:11Z</time>
</trkpt>
<trkpt lat="34.8486585" lon="33.5748600">
<ele>31.72</ele>
<time>2015-05-01T08:48:12Z</time>
</trkpt>
<trkpt lat="34.8486300" lon="33.5748054">
<ele>31.37</ele>
<time>2015-05-01T08:48:13Z</time>
</trkpt>
<trkpt lat="34.8485938" lon="33.5747584">
<ele>31.19</ele>
<time>2015-05-01T08:48:14Z</time>
</trkpt>
<trkpt lat="34.8485575" lon="33.5747148">
<ele>31.10</ele>
<time>2015-05-01T08:48:15Z</time>
</trkpt>
<trkpt lat="34.8485128" lon="33.5746605">
<ele>31.06</ele>
<time>2015-05-01T08:48:16Z</time>
</trkpt>
<trkpt lat="34.8484749" lon="33.5746046">
<ele>31.04</ele>
<time>2015-05-01T08:48:17Z</time>
</trkpt>
<trkpt lat="34.8484340" lon="33.5745577">
<ele>30.53</ele>
<time>2015-05-01T08:48:18Z</time>
</trkpt>
<trkpt lat="34.8483946" lon="33.5745159">
<ele>30.27</ele>
<time>2015-05-01T08:48:19Z</time>
</trkpt>
<trkpt lat="34.8483514" lon="33.5744614">
<ele>30.14</ele>
<time>2015-05-01T08:48:20Z</time>
</trkpt>
<trkpt lat="34.8483110" lon="33.5744161">
<ele>30.58</ele>
<time>2015-05-01T08:48:21Z</time>
</trkpt>
<trkpt lat="34.8482376" lon="33.5743586">
<ele>30.91</ele>
<time>2015-05-01T08:48:23Z</time>
</trkpt>
<trkpt lat="34.8481706" lon="33.5742971">
<ele>30.24</ele>
<time>2015-05-01T08:48:25Z</time>
</trkpt>
<trkpt lat="34.8481310" lon="33.5742611">
<ele>29.63</ele>
<time>2015-05-01T08:48:26Z</time>
</trkpt>
<trkpt lat="34.8480968" lon="33.5742224">
<ele>30.32</ele>
<time>2015-05-01T08:48:27Z</time>
</trkpt>
<trkpt lat="34.8480263" lon="33.5741645">
<ele>30.84</ele>
<time>2015-05-01T08:48:29Z</time>
</trkpt>
<trkpt lat="34.8479815" lon="33.5741213">
<ele>30.93</ele>
<time>2015-05-01T08:48:30Z</time>
</trkpt>
<trkpt lat="34.8479403" lon="33.5740800">
<ele>30.97</ele>
<time>2015-05-01T08:48:31Z</time>
</trkpt>
<trkpt lat="34.8478946" lon="33.5740388">
<ele>30.49</ele>
<time>2015-05-01T08:48:32Z</time>
</trkpt>
<trkpt lat="34.8478502" lon="33.5739899">
<ele>30.26</ele>
<time>2015-05-01T08:48:33Z</time>
</trkpt>
<trkpt lat="34.8478056" lon="33.5739455">
<ele>30.14</ele>
<time>2015-05-01T08:48:34Z</time>
</trkpt>
<trkpt lat="34.8477590" lon="33.5739009">
<ele>30.08</ele>
<time>2015-05-01T08:48:35Z</time>
</trkpt>
<trkpt lat="34.8477163" lon="33.5738551">
<ele>29.05</ele>
<time>2015-05-01T08:48:36Z</time>
</trkpt>
<trkpt lat="34.8476667" lon="33.5738064">
<ele>28.53</ele>
<time>2015-05-01T08:48:37Z</time>
</trkpt>
<trkpt lat="34.8476288" lon="33.5737628">
<ele>28.27</ele>
<time>2015-05-01T08:48:38Z</time>
</trkpt>
<trkpt lat="34.8475889" lon="33.5737251">
<ele>27.64</ele>
<time>2015-05-01T08:48:39Z</time>
</trkpt>
<trkpt lat="34.8475489" lon="33.5736877">
<ele>27.33</ele>
<time>2015-05-01T08:48:40Z</time>
</trkpt>
<trkpt lat="34.8475140" lon="33.5736450">
<ele>27.17</ele>
<time>2015-05-01T08:48:41Z</time>
</trkpt>
<trkpt lat="34.8474751" lon="33.5736131">
<ele>27.59</ele>
<time>2015-05-01T08:48:42Z</time>
</trkpt>
<trkpt lat="34.8474284" lon="33.5735712">
<ele>27.81</ele>
<time>2015-05-01T08:48:43Z</time>
</trkpt>
<trkpt lat="34.8473801" lon="33.5735328">
<ele>27.91</ele>
<time>2015-05-01T08:48:44Z</time>
</trkpt>
<trkpt lat="34.8473446" lon="33.5734861">
<ele>27.96</ele>
<time>2015-05-01T08:48:45Z</time>
</trkpt>
<trkpt lat="34.8473055" lon="33.5734391">
<ele>27.99</ele>
<time>2015-05-01T08:48:46Z</time>
</trkpt>
<trkpt lat="34.8472637" lon="33.5733848">
<ele>28.00</ele>
<time>2015-05-01T08:48:47Z</time>
</trkpt>
<trkpt lat="34.8472276" lon="33.5733361">
<ele>28.01</ele>
<time>2015-05-01T08:48:48Z</time>
</trkpt>
<trkpt lat="34.8471560" lon="33.5732557">
<ele>27.51</ele>
<time>2015-05-01T08:48:50Z</time>
</trkpt>
<trkpt lat="34.8471203" lon="33.5732125">
<ele>27.27</ele>
<time>2015-05-01T08:48:51Z</time>
</trkpt>
<trkpt lat="34.8470502" lon="33.5731477">
<ele>28.33</ele>
<time>2015-05-01T08:48:53Z</time>
</trkpt>
<trkpt lat="34.8470101" lon="33.5731091">
<ele>28.67</ele>
<time>2015-05-01T08:48:54Z</time>
</trkpt>
<trkpt lat="34.8469474" lon="33.5730415">
<ele>28.93</ele>
<time>2015-05-01T08:48:56Z</time>
</trkpt>
<trkpt lat="34.8468844" lon="33.5729758">
<ele>28.74</ele>
<time>2015-05-01T08:48:58Z</time>
</trkpt>
<trkpt lat="34.8468290" lon="33.5729177">
<ele>27.70</ele>
<time>2015-05-01T08:49:00Z</time>
</trkpt>
<trkpt lat="34.8467771" lon="33.5728813">
<ele>27.94</ele>
<time>2015-05-01T08:49:02Z</time>
</trkpt>
<trkpt lat="34.8467134" lon="33.5728454">
<ele>27.50</ele>
<time>2015-05-01T08:49:04Z</time>
</trkpt>
<trkpt lat="34.8466572" lon="33.5728153">
<ele>27.14</ele>
<time>2015-05-01T08:49:06Z</time>
</trkpt>
<trkpt lat="34.8466085" lon="33.5727759">
<ele>27.55</ele>
<time>2015-05-01T08:49:08Z</time>
</trkpt>
<trkpt lat="34.8465601" lon="33.5727387">
<ele>27.90</ele>
<time>2015-05-01T08:49:10Z</time>
</trkpt>
<trkpt lat="34.8465258" lon="33.5726881">
<ele>27.49</ele>
<time>2015-05-01T08:49:12Z</time>
</trkpt>
<trkpt lat="34.8464912" lon="33.5726275">
<ele>25.13</ele>
<time>2015-05-01T08:49:14Z</time>
</trkpt>
<trkpt lat="34.8464673" lon="33.5725556">
<ele>24.55</ele>
<time>2015-05-01T08:49:16Z</time>
</trkpt>
<trkpt lat="34.8464777" lon="33.5724940">
<ele>23.65</ele>
<time>2015-05-01T08:49:18Z</time>
</trkpt>
<trkpt lat="34.8465209" lon="33.5724618">
<ele>23.47</ele>
<time>2015-05-01T08:49:21Z</time>
</trkpt>
<trkpt lat="34.8465745" lon="33.5724490">
<ele>25.46</ele>
<time>2015-05-01T08:50:24Z</time>
</trkpt>
<trkpt lat="34.8466165" lon="33.5724027">
<ele>25.13</ele>
<time>2015-05-01T08:50:26Z</time>
</trkpt>
<trkpt lat="34.8466683" lon="33.5723468">
<ele>24.79</ele>
<time>2015-05-01T08:50:28Z</time>
</trkpt>
<trkpt lat="34.8467260" lon="33.5722867">
<ele>25.21</ele>
<time>2015-05-01T08:50:30Z</time>
</trkpt>
<trkpt lat="34.8467937" lon="33.5722204">
<ele>25.56</ele>
<time>2015-05-01T08:50:32Z</time>
</trkpt>
<trkpt lat="34.8468537" lon="33.5721617">
<ele>25.29</ele>
<time>2015-05-01T08:50:33Z</time>
</trkpt>
<trkpt lat="34.8469252" lon="33.5720912">
<ele>25.08</ele>
<time>2015-05-01T08:50:35Z</time>
</trkpt>
<trkpt lat="34.8469622" lon="33.5720549">
<ele>25.55</ele>
<time>2015-05-01T08:50:36Z</time>
</trkpt>
<trkpt lat="34.8469934" lon="33.5720144">
<ele>26.28</ele>
<time>2015-05-01T08:50:37Z</time>
</trkpt>
<trkpt lat="34.8470309" lon="33.5719725">
<ele>26.65</ele>
<time>2015-05-01T08:50:38Z</time>
</trkpt>
<trkpt lat="34.8470731" lon="33.5719404">
<ele>26.33</ele>
<time>2015-05-01T08:50:39Z</time>
</trkpt>
<trkpt lat="34.8471146" lon="33.5719059">
<ele>27.17</ele>
<time>2015-05-01T08:50:40Z</time>
</trkpt>
<trkpt lat="34.8471522" lon="33.5718653">
<ele>27.60</ele>
<time>2015-05-01T08:50:41Z</time>
</trkpt>
<trkpt lat="34.8471909" lon="33.5718245">
<ele>27.81</ele>
<time>2015-05-01T08:50:42Z</time>
</trkpt>
<trkpt lat="34.8472588" lon="33.5717497">
<ele>27.96</ele>
<time>2015-05-01T08:50:44Z</time>
</trkpt>
<trkpt lat="34.8472993" lon="33.5717161">
<ele>27.49</ele>
<time>2015-05-01T08:50:45Z</time>
</trkpt>
<trkpt lat="34.8473397" lon="33.5716774">
<ele>26.75</ele>
<time>2015-05-01T08:50:46Z</time>
</trkpt>
<trkpt lat="34.8473816" lon="33.5716565">
<ele>25.38</ele>
<time>2015-05-01T08:50:47Z</time>
</trkpt>
<trkpt lat="34.8474154" lon="33.5716198">
<ele>24.70</ele>
<time>2015-05-01T08:50:48Z</time>
</trkpt>
<trkpt lat="34.8474550" lon="33.5715903">
<ele>24.36</ele>
<time>2015-05-01T08:50:49Z</time>
</trkpt>
<trkpt lat="34.8475262" lon="33.5715326">
<ele>25.35</ele>
<time>2015-05-01T08:50:51Z</time>
</trkpt>
<trkpt lat="34.8475628" lon="33.5715005">
<ele>26.18</ele>
<time>2015-05-01T08:50:52Z</time>
</trkpt>
<trkpt lat="34.8476274" lon="33.5714452">
<ele>28.06</ele>
<time>2015-05-01T08:50:54Z</time>
</trkpt>
<trkpt lat="34.8476880" lon="33.5713885">
<ele>29.53</ele>
<time>2015-05-01T08:50:56Z</time>
</trkpt>
<trkpt lat="34.8477445" lon="33.5713429">
<ele>30.14</ele>
<time>2015-05-01T08:50:58Z</time>
</trkpt>
<trkpt lat="34.8477922" lon="33.5713198">
<ele>29.30</ele>
<time>2015-05-01T08:51:00Z</time>
</trkpt>
<trkpt lat="34.8478281" lon="33.5712797">
<ele>29.84</ele>
<time>2015-05-01T08:51:02Z</time>
</trkpt>
<trkpt lat="34.8478665" lon="33.5712358">
<ele>29.97</ele>
<time>2015-05-01T08:51:04Z</time>
</trkpt>
<trkpt lat="34.8479069" lon="33.5712004">
<ele>28.25</ele>
<time>2015-05-01T08:51:06Z</time>
</trkpt>
<trkpt lat="34.8479523" lon="33.5711534">
<ele>28.42</ele>
<time>2015-05-01T08:51:09Z</time>
</trkpt>
<trkpt lat="34.8479672" lon="33.5711006">
<ele>29.75</ele>
<time>2015-05-01T08:51:16Z</time>
</trkpt>
<trkpt lat="34.8479280" lon="33.5710643">
<ele>29.95</ele>
<time>2015-05-01T08:51:21Z</time>
</trkpt>
<trkpt lat="34.8479521" lon="33.5710134">
<ele>26.68</ele>
<time>2015-05-01T08:51:39Z</time>
</trkpt>
<trkpt lat="34.8479556" lon="33.5709529">
<ele>27.42</ele>
<time>2015-05-01T08:51:48Z</time>
</trkpt>
<trkpt lat="34.8479485" lon="33.5708972">
<ele>27.19</ele>
<time>2015-05-01T08:51:51Z</time>
</trkpt>
<trkpt lat="34.8479272" lon="33.5708309">
<ele>24.91</ele>
<time>2015-05-01T08:51:54Z</time>
</trkpt>
<trkpt lat="34.8479002" lon="33.5707585">
<ele>25.00</ele>
<time>2015-05-01T08:51:57Z</time>
</trkpt>
<trkpt lat="34.8478821" lon="33.5707064">
<ele>25.26</ele>
<time>2015-05-01T08:51:59Z</time>
</trkpt>
<trkpt lat="34.8478418" lon="33.5706414">
<ele>26.80</ele>
<time>2015-05-01T08:52:02Z</time>
</trkpt>
<trkpt lat="34.8477862" lon="33.5706095">
<ele>27.24</ele>
<time>2015-05-01T08:52:05Z</time>
</trkpt>
<trkpt lat="34.8477398" lon="33.5706431">
<ele>29.29</ele>
<time>2015-05-01T08:52:08Z</time>
</trkpt>
<trkpt lat="34.8476870" lon="33.5706600">
<ele>29.05</ele>
<time>2015-05-01T08:52:11Z</time>
</trkpt>
<trkpt lat="34.8476399" lon="33.5706564">
<ele>30.02</ele>
<time>2015-05-01T08:52:36Z</time>
</trkpt>
<trkpt lat="34.8475852" lon="33.5706772">
<ele>29.73</ele>
<time>2015-05-01T08:52:41Z</time>
</trkpt>
<trkpt lat="34.8475346" lon="33.5706979">
<ele>29.23</ele>
<time>2015-05-01T08:52:44Z</time>
</trkpt>
<trkpt lat="34.8474889" lon="33.5707352">
<ele>29.92</ele>
<time>2015-05-01T08:52:47Z</time>
</trkpt>
<trkpt lat="34.8474553" lon="33.5707808">
<ele>30.50</ele>
<time>2015-05-01T08:52:50Z</time>
</trkpt>
<trkpt lat="34.8474264" lon="33.5708252">
<ele>30.95</ele>
<time>2015-05-01T08:52:53Z</time>
</trkpt>
<trkpt lat="34.8474108" lon="33.5708892">
<ele>30.26</ele>
<time>2015-05-01T08:52:57Z</time>
</trkpt>
<trkpt lat="34.8474123" lon="33.5709457">
<ele>29.27</ele>
<time>2015-05-01T08:53:54Z</time>
</trkpt>
<trkpt lat="34.8473908" lon="33.5710049">
<ele>27.22</ele>
<time>2015-05-01T08:53:58Z</time>
</trkpt>
<trkpt lat="34.8473901" lon="33.5710782">
<ele>26.54</ele>
<time>2015-05-01T08:54:01Z</time>
</trkpt>
<trkpt lat="34.8473868" lon="33.5711444">
<ele>26.58</ele>
<time>2015-05-01T08:54:04Z</time>
</trkpt>
<trkpt lat="34.8474302" lon="33.5711764">
<ele>28.42</ele>
<time>2015-05-01T08:54:10Z</time>
</trkpt>
<trkpt lat="34.8474771" lon="33.5711504">
<ele>28.98</ele>
<time>2015-05-01T08:54:14Z</time>
</trkpt>
<trkpt lat="34.8475201" lon="33.5711313">
<ele>27.58</ele>
<time>2015-05-01T08:54:18Z</time>
</trkpt>
<trkpt lat="34.8474768" lon="33.5711714">
<ele>26.74</ele>
<time>2015-05-01T08:54:24Z</time>
</trkpt>
<trkpt lat="34.8474240" lon="33.5711937">
<ele>26.56</ele>
<time>2015-05-01T08:54:28Z</time>
</trkpt>
<trkpt lat="34.8474326" lon="33.5712478">
<ele>27.03</ele>
<time>2015-05-01T08:54:45Z</time>
</trkpt>
<trkpt lat="34.8474507" lon="33.5713086">
<ele>26.01</ele>
<time>2015-05-01T08:54:55Z</time>
</trkpt>
<trkpt lat="34.8474591" lon="33.5713633">
<ele>25.27</ele>
<time>2015-05-01T08:54:59Z</time>
</trkpt>
<trkpt lat="34.8474733" lon="33.5714239">
<ele>25.02</ele>
<time>2015-05-01T08:55:08Z</time>
</trkpt>
<trkpt lat="34.8474548" lon="33.5713562">
<ele>29.75</ele>
<time>2015-05-01T08:55:58Z</time>
</trkpt>
<trkpt lat="34.8474461" lon="33.5712807">
<ele>30.73</ele>
<time>2015-05-01T08:56:01Z</time>
</trkpt>
<trkpt lat="34.8474518" lon="33.5712235">
<ele>31.70</ele>
<time>2015-05-01T08:56:03Z</time>
</trkpt>
<trkpt lat="34.8474487" lon="33.5711633">
<ele>29.69</ele>
<time>2015-05-01T08:56:05Z</time>
</trkpt>
<trkpt lat="34.8474329" lon="33.5711103">
<ele>28.43</ele>
<time>2015-05-01T08:56:07Z</time>
</trkpt>
<trkpt lat="34.8474107" lon="33.5710376">
<ele>27.94</ele>
<time>2015-05-01T08:56:10Z</time>
</trkpt>
<trkpt lat="34.8473993" lon="33.5709785">
<ele>28.38</ele>
<time>2015-05-01T08:56:13Z</time>
</trkpt>
<trkpt lat="34.8473516" lon="33.5710097">
<ele>28.73</ele>
<time>2015-05-01T08:56:17Z</time>
</trkpt>
<trkpt lat="34.8473285" lon="33.5710674">
<ele>30.85</ele>
<time>2015-05-01T08:56:20Z</time>
</trkpt>
<trkpt lat="34.8473316" lon="33.5711267">
<ele>31.87</ele>
<time>2015-05-01T08:56:23Z</time>
</trkpt>
<trkpt lat="34.8473742" lon="33.5711521">
<ele>32.00</ele>
<time>2015-05-01T08:56:26Z</time>
</trkpt>
<trkpt lat="34.8474086" lon="33.5710989">
<ele>30.26</ele>
<time>2015-05-01T08:56:29Z</time>
</trkpt>
<trkpt lat="34.8474126" lon="33.5710409">
<ele>30.08</ele>
<time>2015-05-01T08:56:31Z</time>
</trkpt>
<trkpt lat="34.8474254" lon="33.5709756">
<ele>30.03</ele>
<time>2015-05-01T08:56:33Z</time>
</trkpt>
<trkpt lat="34.8474218" lon="33.5709041">
<ele>29.52</ele>
<time>2015-05-01T08:56:36Z</time>
</trkpt>
<trkpt lat="34.8474677" lon="33.5708665">
<ele>27.14</ele>
<time>2015-05-01T09:01:16Z</time>
</trkpt>
<trkpt lat="34.8475269" lon="33.5708464">
<ele>26.78</ele>
<time>2015-05-01T09:01:19Z</time>
</trkpt>
<trkpt lat="34.8475910" lon="33.5708231">
<ele>26.24</ele>
<time>2015-05-01T09:01:22Z</time>
</trkpt>
<trkpt lat="34.8476528" lon="33.5708510">
<ele>27.42</ele>
<time>2015-05-01T09:01:25Z</time>
</trkpt>
<trkpt lat="34.8476810" lon="33.5708973">
<ele>27.12</ele>
<time>2015-05-01T09:01:27Z</time>
</trkpt>
<trkpt lat="34.8477195" lon="33.5709594">
<ele>27.90</ele>
<time>2015-05-01T09:01:30Z</time>
</trkpt>
<trkpt lat="34.8477728" lon="33.5709412">
<ele>28.08</ele>
<time>2015-05-01T09:01:40Z</time>
</trkpt>
<trkpt lat="34.8478205" lon="33.5709506">
<ele>28.02</ele>
<time>2015-05-01T09:01:43Z</time>
</trkpt>
<trkpt lat="34.8478669" lon="33.5709863">
<ele>29.39</ele>
<time>2015-05-01T09:01:46Z</time>
</trkpt>
<trkpt lat="34.8479036" lon="33.5710339">
<ele>29.31</ele>
<time>2015-05-01T09:01:49Z</time>
</trkpt>
<trkpt lat="34.8479446" lon="33.5710722">
<ele>29.05</ele>
<time>2015-05-01T09:01:52Z</time>
</trkpt>
<trkpt lat="34.8479741" lon="33.5711205">
<ele>29.08</ele>
<time>2015-05-01T09:01:56Z</time>
</trkpt>
<trkpt lat="34.8480228" lon="33.5711004">
<ele>29.02</ele>
<time>2015-05-01T09:02:00Z</time>
</trkpt>
<trkpt lat="34.8480702" lon="33.5710559">
<ele>29.70</ele>
<time>2015-05-01T09:02:04Z</time>
</trkpt>
<trkpt lat="34.8481070" lon="33.5710108">
<ele>30.15</ele>
<time>2015-05-01T09:02:20Z</time>
</trkpt>
<trkpt lat="34.8481661" lon="33.5709768">
<ele>30.53</ele>
<time>2015-05-01T09:02:23Z</time>
</trkpt>
<trkpt lat="34.8482134" lon="33.5709471">
<ele>30.15</ele>
<time>2015-05-01T09:02:25Z</time>
</trkpt>
<trkpt lat="34.8482607" lon="33.5709036">
<ele>31.30</ele>
<time>2015-05-01T09:02:27Z</time>
</trkpt>
<trkpt lat="34.8483091" lon="33.5708529">
<ele>31.34</ele>
<time>2015-05-01T09:02:29Z</time>
</trkpt>
<trkpt lat="34.8483560" lon="33.5707952">
<ele>30.35</ele>
<time>2015-05-01T09:02:31Z</time>
</trkpt>
<trkpt lat="34.8484016" lon="33.5707283">
<ele>30.10</ele>
<time>2015-05-01T09:02:33Z</time>
</trkpt>
<trkpt lat="34.8484399" lon="33.5706615">
<ele>30.04</ele>
<time>2015-05-01T09:02:35Z</time>
</trkpt>
<trkpt lat="34.8484748" lon="33.5705909">
<ele>29.27</ele>
<time>2015-05-01T09:02:37Z</time>
</trkpt>
<trkpt lat="34.8485047" lon="33.5705133">
<ele>29.08</ele>
<time>2015-05-01T09:02:39Z</time>
</trkpt>
<trkpt lat="34.8485357" lon="33.5704285">
<ele>29.53</ele>
<time>2015-05-01T09:02:41Z</time>
</trkpt>
<trkpt lat="34.8485670" lon="33.5703445">
<ele>29.89</ele>
<time>2015-05-01T09:02:43Z</time>
</trkpt>
<trkpt lat="34.8485965" lon="33.5702520">
<ele>29.99</ele>
<time>2015-05-01T09:02:45Z</time>
</trkpt>
<trkpt lat="34.8486182" lon="33.5701588">
<ele>29.51</ele>
<time>2015-05-01T09:02:47Z</time>
</trkpt>
<trkpt lat="34.8486376" lon="33.5700616">
<ele>29.14</ele>
<time>2015-05-01T09:02:49Z</time>
</trkpt>
<trkpt lat="34.8486563" lon="33.5699653">
<ele>29.30</ele>
<time>2015-05-01T09:02:51Z</time>
</trkpt>
<trkpt lat="34.8486723" lon="33.5698647">
<ele>29.09</ele>
<time>2015-05-01T09:02:53Z</time>
</trkpt>
<trkpt lat="34.8486915" lon="33.5697631">
<ele>29.03</ele>
<time>2015-05-01T09:02:55Z</time>
</trkpt>
<trkpt lat="34.8487185" lon="33.5696609">
<ele>29.52</ele>
<time>2015-05-01T09:02:57Z</time>
</trkpt>
<trkpt lat="34.8487449" lon="33.5695610">
<ele>28.64</ele>
<time>2015-05-01T09:02:59Z</time>
</trkpt>
<trkpt lat="34.8487629" lon="33.5694660">
<ele>28.17</ele>
<time>2015-05-01T09:03:01Z</time>
</trkpt>
<trkpt lat="34.8487883" lon="33.5693630">
<ele>28.06</ele>
<time>2015-05-01T09:03:03Z</time>
</trkpt>
<trkpt lat="34.8488121" lon="33.5692626">
<ele>28.78</ele>
<time>2015-05-01T09:03:05Z</time>
</trkpt>
<trkpt lat="34.8488320" lon="33.5691613">
<ele>28.96</ele>
<time>2015-05-01T09:03:07Z</time>
</trkpt>
<trkpt lat="34.8488418" lon="33.5691035">
<ele>28.99</ele>
<time>2015-05-01T09:03:08Z</time>
</trkpt>
<trkpt lat="34.8488504" lon="33.5690485">
<ele>28.50</ele>
<time>2015-05-01T09:03:09Z</time>
</trkpt>
<trkpt lat="34.8488582" lon="33.5689940">
<ele>28.26</ele>
<time>2015-05-01T09:03:10Z</time>
</trkpt>
<trkpt lat="34.8488650" lon="33.5689379">
<ele>28.64</ele>
<time>2015-05-01T09:03:11Z</time>
</trkpt>
<trkpt lat="34.8488787" lon="33.5688322">
<ele>28.92</ele>
<time>2015-05-01T09:03:13Z</time>
</trkpt>
<trkpt lat="34.8488852" lon="33.5687273">
<ele>28.99</ele>
<time>2015-05-01T09:03:15Z</time>
</trkpt>
<trkpt lat="34.8488855" lon="33.5686214">
<ele>29.01</ele>
<time>2015-05-01T09:03:17Z</time>
</trkpt>
<trkpt lat="34.8488778" lon="33.5685143">
<ele>29.76</ele>
<time>2015-05-01T09:03:19Z</time>
</trkpt>
<trkpt lat="34.8488513" lon="33.5684600">
<ele>29.89</ele>
<time>2015-05-01T09:03:20Z</time>
</trkpt>
<trkpt lat="34.8488242" lon="33.5684136">
<ele>29.95</ele>
<time>2015-05-01T09:03:21Z</time>
</trkpt>
<trkpt lat="34.8487779" lon="33.5683303">
<ele>30.00</ele>
<time>2015-05-01T09:03:23Z</time>
</trkpt>
<trkpt lat="34.8487323" lon="33.5682507">
<ele>29.51</ele>
<time>2015-05-01T09:03:25Z</time>
</trkpt>
<trkpt lat="34.8486751" lon="33.5681712">
<ele>29.14</ele>
<time>2015-05-01T09:03:27Z</time>
</trkpt>
<trkpt lat="34.8486157" lon="33.5680903">
<ele>29.05</ele>
<time>2015-05-01T09:03:29Z</time>
</trkpt>
<trkpt lat="34.8485858" lon="33.5680484">
<ele>29.03</ele>
<time>2015-05-01T09:03:30Z</time>
</trkpt>
<trkpt lat="34.8485559" lon="33.5680050">
<ele>29.52</ele>
<time>2015-05-01T09:03:31Z</time>
</trkpt>
<trkpt lat="34.8485249" lon="33.5679615">
<ele>29.27</ele>
<time>2015-05-01T09:03:32Z</time>
</trkpt>
<trkpt lat="34.8484991" lon="33.5679164">
<ele>29.64</ele>
<time>2015-05-01T09:03:33Z</time>
</trkpt>
<trkpt lat="34.8484689" lon="33.5678703">
<ele>29.83</ele>
<time>2015-05-01T09:03:34Z</time>
</trkpt>
<trkpt lat="34.8484370" lon="33.5678292">
<ele>29.92</ele>
<time>2015-05-01T09:03:35Z</time>
</trkpt>
<trkpt lat="34.8483805" lon="33.5677435">
<ele>30.74</ele>
<time>2015-05-01T09:03:37Z</time>
</trkpt>
<trkpt lat="34.8483527" lon="33.5676973">
<ele>31.88</ele>
<time>2015-05-01T09:03:38Z</time>
</trkpt>
<trkpt lat="34.8483210" lon="33.5676442">
<ele>32.45</ele>
<time>2015-05-01T09:03:39Z</time>
</trkpt>
<trkpt lat="34.8482860" lon="33.5675914">
<ele>32.23</ele>
<time>2015-05-01T09:03:40Z</time>
</trkpt>
<trkpt lat="34.8482480" lon="33.5675592">
<ele>32.12</ele>
<time>2015-05-01T09:03:41Z</time>
</trkpt>
<trkpt lat="34.8482218" lon="33.5675069">
<ele>32.07</ele>
<time>2015-05-01T09:03:42Z</time>
</trkpt>
<trkpt lat="34.8481889" lon="33.5674641">
<ele>32.04</ele>
<time>2015-05-01T09:03:43Z</time>
</trkpt>
<trkpt lat="34.8481660" lon="33.5674168">
<ele>32.03</ele>
<time>2015-05-01T09:03:44Z</time>
</trkpt>
<trkpt lat="34.8481301" lon="33.5673721">
<ele>32.02</ele>
<time>2015-05-01T09:03:45Z</time>
</trkpt>
<trkpt lat="34.8480979" lon="33.5673261">
<ele>32.02</ele>
<time>2015-05-01T09:03:46Z</time>
</trkpt>
<trkpt lat="34.8480285" lon="33.5672469">
<ele>32.77</ele>
<time>2015-05-01T09:03:48Z</time>
</trkpt>
<trkpt lat="34.8479863" lon="33.5672045">
<ele>32.89</ele>
<time>2015-05-01T09:03:49Z</time>
</trkpt>
<trkpt lat="34.8479249" lon="33.5671170">
<ele>32.48</ele>
<time>2015-05-01T09:03:51Z</time>
</trkpt>
<trkpt lat="34.8478980" lon="33.5670706">
<ele>32.25</ele>
<time>2015-05-01T09:03:52Z</time>
</trkpt>
<trkpt lat="34.8478633" lon="33.5670235">
<ele>32.13</ele>
<time>2015-05-01T09:03:53Z</time>
</trkpt>
<trkpt lat="34.8478307" lon="33.5669820">
<ele>32.07</ele>
<time>2015-05-01T09:03:54Z</time>
</trkpt>
<trkpt lat="34.8477984" lon="33.5669405">
<ele>32.05</ele>
<time>2015-05-01T09:03:55Z</time>
</trkpt>
<trkpt lat="34.8477652" lon="33.5668952">
<ele>32.53</ele>
<time>2015-05-01T09:03:56Z</time>
</trkpt>
<trkpt lat="34.8477323" lon="33.5668402">
<ele>31.77</ele>
<time>2015-05-01T09:03:57Z</time>
</trkpt>
<trkpt lat="34.8476976" lon="33.5667957">
<ele>31.39</ele>
<time>2015-05-01T09:03:58Z</time>
</trkpt>
<trkpt lat="34.8476643" lon="33.5667550">
<ele>30.71</ele>
<time>2015-05-01T09:03:59Z</time>
</trkpt>
<trkpt lat="34.8476320" lon="33.5667122">
<ele>30.86</ele>
<time>2015-05-01T09:04:00Z</time>
</trkpt>
<trkpt lat="34.8475991" lon="33.5666673">
<ele>30.44</ele>
<time>2015-05-01T09:04:01Z</time>
</trkpt>
<trkpt lat="34.8475655" lon="33.5666214">
<ele>30.23</ele>
<time>2015-05-01T09:04:02Z</time>
</trkpt>
<trkpt lat="34.8475264" lon="33.5665811">
<ele>30.12</ele>
<time>2015-05-01T09:04:03Z</time>
</trkpt>
<trkpt lat="34.8474918" lon="33.5665267">
<ele>30.07</ele>
<time>2015-05-01T09:04:04Z</time>
</trkpt>
<trkpt lat="34.8474602" lon="33.5664822">
<ele>30.04</ele>
<time>2015-05-01T09:04:05Z</time>
</trkpt>
<trkpt lat="34.8474216" lon="33.5664412">
<ele>29.53</ele>
<time>2015-05-01T09:04:06Z</time>
</trkpt>
<trkpt lat="34.8473828" lon="33.5663857">
<ele>29.27</ele>
<time>2015-05-01T09:04:07Z</time>
</trkpt>
<trkpt lat="34.8473493" lon="33.5663419">
<ele>29.14</ele>
<time>2015-05-01T09:04:08Z</time>
</trkpt>
<trkpt lat="34.8473134" lon="33.5663053">
<ele>29.08</ele>
<time>2015-05-01T09:04:09Z</time>
</trkpt>
<trkpt lat="34.8472787" lon="33.5662622">
<ele>29.05</ele>
<time>2015-05-01T09:04:10Z</time>
</trkpt>
<trkpt lat="34.8472424" lon="33.5662121">
<ele>29.03</ele>
<time>2015-05-01T09:04:11Z</time>
</trkpt>
<trkpt lat="34.8472009" lon="33.5661691">
<ele>28.52</ele>
<time>2015-05-01T09:04:12Z</time>
</trkpt>
<trkpt lat="34.8471678" lon="33.5661120">
<ele>28.27</ele>
<time>2015-05-01T09:04:13Z</time>
</trkpt>
<trkpt lat="34.8471356" lon="33.5660579">
<ele>27.14</ele>
<time>2015-05-01T09:04:14Z</time>
</trkpt>
<trkpt lat="34.8471004" lon="33.5660074">
<ele>26.58</ele>
<time>2015-05-01T09:04:15Z</time>
</trkpt>
<trkpt lat="34.8470619" lon="33.5659678">
<ele>26.30</ele>
<time>2015-05-01T09:04:16Z</time>
</trkpt>
<trkpt lat="34.8470322" lon="33.5659061">
<ele>25.16</ele>
<time>2015-05-01T09:04:17Z</time>
</trkpt>
<trkpt lat="34.8469999" lon="33.5658507">
<ele>24.59</ele>
<time>2015-05-01T09:04:18Z</time>
</trkpt>
<trkpt lat="34.8469654" lon="33.5658083">
<ele>24.30</ele>
<time>2015-05-01T09:04:19Z</time>
</trkpt>
<trkpt lat="34.8469304" lon="33.5657606">
<ele>23.66</ele>
<time>2015-05-01T09:04:20Z</time>
</trkpt>
<trkpt lat="34.8468913" lon="33.5657144">
<ele>23.34</ele>
<time>2015-05-01T09:04:21Z</time>
</trkpt>
<trkpt lat="34.8468548" lon="33.5656718">
<ele>23.18</ele>
<time>2015-05-01T09:04:22Z</time>
</trkpt>
<trkpt lat="34.8468110" lon="33.5656244">
<ele>23.60</ele>
<time>2015-05-01T09:04:23Z</time>
</trkpt>
<trkpt lat="34.8467790" lon="33.5655765">
<ele>24.31</ele>
<time>2015-05-01T09:04:24Z</time>
</trkpt>
<trkpt lat="34.8467436" lon="33.5655296">
<ele>24.66</ele>
<time>2015-05-01T09:04:25Z</time>
</trkpt>
<trkpt lat="34.8467038" lon="33.5654962">
<ele>25.34</ele>
<time>2015-05-01T09:04:26Z</time>
</trkpt>
<trkpt lat="34.8466701" lon="33.5654528">
<ele>25.68</ele>
<time>2015-05-01T09:04:27Z</time>
</trkpt>
<trkpt lat="34.8466345" lon="33.5654070">
<ele>26.35</ele>
<time>2015-05-01T09:04:28Z</time>
</trkpt>
<trkpt lat="34.8465974" lon="33.5653626">
<ele>26.68</ele>
<time>2015-05-01T09:04:29Z</time>
</trkpt>
<trkpt lat="34.8465609" lon="33.5653225">
<ele>26.85</ele>
<time>2015-05-01T09:04:30Z</time>
</trkpt>
<trkpt lat="34.8465235" lon="33.5652694">
<ele>26.43</ele>
<time>2015-05-01T09:04:31Z</time>
</trkpt>
<trkpt lat="34.8464859" lon="33.5652133">
<ele>26.22</ele>
<time>2015-05-01T09:04:32Z</time>
</trkpt>
<trkpt lat="34.8464549" lon="33.5651602">
<ele>26.12</ele>
<time>2015-05-01T09:04:33Z</time>
</trkpt>
<trkpt lat="34.8464159" lon="33.5651060">
<ele>26.57</ele>
<time>2015-05-01T09:04:34Z</time>
</trkpt>
<trkpt lat="34.8463850" lon="33.5650601">
<ele>27.29</ele>
<time>2015-05-01T09:04:35Z</time>
</trkpt>
<trkpt lat="34.8463390" lon="33.5650136">
<ele>27.65</ele>
<time>2015-05-01T09:04:36Z</time>
</trkpt>
<trkpt lat="34.8463014" lon="33.5649707">
<ele>27.84</ele>
<time>2015-05-01T09:04:37Z</time>
</trkpt>
<trkpt lat="34.8462613" lon="33.5649221">
<ele>27.93</ele>
<time>2015-05-01T09:04:38Z</time>
</trkpt>
<trkpt lat="34.8462264" lon="33.5648801">
<ele>28.47</ele>
<time>2015-05-01T09:04:39Z</time>
</trkpt>
<trkpt lat="34.8461865" lon="33.5648337">
<ele>28.74</ele>
<time>2015-05-01T09:04:40Z</time>
</trkpt>
<trkpt lat="34.8461509" lon="33.5647785">
<ele>28.88</ele>
<time>2015-05-01T09:04:41Z</time>
</trkpt>
<trkpt lat="34.8461174" lon="33.5647266">
<ele>28.45</ele>
<time>2015-05-01T09:04:42Z</time>
</trkpt>
<trkpt lat="34.8460878" lon="33.5646807">
<ele>28.23</ele>
<time>2015-05-01T09:04:43Z</time>
</trkpt>
<trkpt lat="34.8460509" lon="33.5646373">
<ele>28.12</ele>
<time>2015-05-01T09:04:44Z</time>
</trkpt>
<trkpt lat="34.8460197" lon="33.5645912">
<ele>28.07</ele>
<time>2015-05-01T09:04:45Z</time>
</trkpt>
<trkpt lat="34.8459542" lon="33.5645250">
<ele>27.78</ele>
<time>2015-05-01T09:04:47Z</time>
</trkpt>
<trkpt lat="34.8459110" lon="33.5644765">
<ele>27.90</ele>
<time>2015-05-01T09:04:48Z</time>
</trkpt>
<trkpt lat="34.8458796" lon="33.5644268">
<ele>27.46</ele>
<time>2015-05-01T09:04:49Z</time>
</trkpt>
<trkpt lat="34.8458419" lon="33.5643631">
<ele>27.24</ele>
<time>2015-05-01T09:04:50Z</time>
</trkpt>
<trkpt lat="34.8458060" lon="33.5643164">
<ele>27.63</ele>
<time>2015-05-01T09:04:51Z</time>
</trkpt>
<trkpt lat="34.8457716" lon="33.5642665">
<ele>27.82</ele>
<time>2015-05-01T09:04:52Z</time>
</trkpt>
<trkpt lat="34.8457333" lon="33.5642181">
<ele>27.92</ele>
<time>2015-05-01T09:04:53Z</time>
</trkpt>
<trkpt lat="34.8457005" lon="33.5641754">
<ele>27.97</ele>
<time>2015-05-01T09:04:54Z</time>
</trkpt>
<trkpt lat="34.8456616" lon="33.5641263">
<ele>27.99</ele>
<time>2015-05-01T09:04:55Z</time>
</trkpt>
<trkpt lat="34.8456290" lon="33.5640739">
<ele>28.00</ele>
<time>2015-05-01T09:04:56Z</time>
</trkpt>
<trkpt lat="34.8455974" lon="33.5640299">
<ele>27.51</ele>
<time>2015-05-01T09:04:57Z</time>
</trkpt>
<trkpt lat="34.8455617" lon="33.5639896">
<ele>27.26</ele>
<time>2015-05-01T09:04:58Z</time>
</trkpt>
<trkpt lat="34.8455099" lon="33.5639122">
<ele>27.58</ele>
<time>2015-05-01T09:05:00Z</time>
</trkpt>
<trkpt lat="34.8454522" lon="33.5638421">
<ele>27.41</ele>
<time>2015-05-01T09:05:02Z</time>
</trkpt>
<trkpt lat="34.8454055" lon="33.5638112">
<ele>27.02</ele>
<time>2015-05-01T09:05:30Z</time>
</trkpt>
<trkpt lat="34.8453627" lon="33.5637468">
<ele>27.89</ele>
<time>2015-05-01T09:05:33Z</time>
</trkpt>
<trkpt lat="34.8453191" lon="33.5636794">
<ele>27.98</ele>
<time>2015-05-01T09:05:35Z</time>
</trkpt>
<trkpt lat="34.8452445" lon="33.5635659">
<ele>27.76</ele>
<time>2015-05-01T09:05:37Z</time>
</trkpt>
<trkpt lat="34.8452077" lon="33.5635208">
<ele>27.89</ele>
<time>2015-05-01T09:05:38Z</time>
</trkpt>
<trkpt lat="34.8451721" lon="33.5634774">
<ele>27.45</ele>
<time>2015-05-01T09:05:39Z</time>
</trkpt>
<trkpt lat="34.8451373" lon="33.5634283">
<ele>27.73</ele>
<time>2015-05-01T09:05:40Z</time>
</trkpt>
<trkpt lat="34.8451030" lon="33.5633807">
<ele>27.87</ele>
<time>2015-05-01T09:05:41Z</time>
</trkpt>
<trkpt lat="34.8450652" lon="33.5633254">
<ele>27.45</ele>
<time>2015-05-01T09:05:42Z</time>
</trkpt>
<trkpt lat="34.8450274" lon="33.5632755">
<ele>26.73</ele>
<time>2015-05-01T09:05:43Z</time>
</trkpt>
<trkpt lat="34.8449921" lon="33.5632244">
<ele>26.87</ele>
<time>2015-05-01T09:05:44Z</time>
</trkpt>
<trkpt lat="34.8449540" lon="33.5631680">
<ele>26.94</ele>
<time>2015-05-01T09:05:45Z</time>
</trkpt>
<trkpt lat="34.8449136" lon="33.5631212">
<ele>26.98</ele>
<time>2015-05-01T09:05:46Z</time>
</trkpt>
<trkpt lat="34.8448749" lon="33.5630726">
<ele>26.50</ele>
<time>2015-05-01T09:05:47Z</time>
</trkpt>
<trkpt lat="34.8448284" lon="33.5630135">
<ele>26.76</ele>
<time>2015-05-01T09:05:48Z</time>
</trkpt>
<trkpt lat="34.8447921" lon="33.5629571">
<ele>26.89</ele>
<time>2015-05-01T09:05:49Z</time>
</trkpt>
<trkpt lat="34.8447585" lon="33.5629014">
<ele>26.95</ele>
<time>2015-05-01T09:05:50Z</time>
</trkpt>
<trkpt lat="34.8447234" lon="33.5628538">
<ele>26.48</ele>
<time>2015-05-01T09:05:51Z</time>
</trkpt>
<trkpt lat="34.8446820" lon="33.5627995">
<ele>26.25</ele>
<time>2015-05-01T09:05:52Z</time>
</trkpt>
<trkpt lat="34.8446472" lon="33.5627401">
<ele>26.13</ele>
<time>2015-05-01T09:05:53Z</time>
</trkpt>
<trkpt lat="34.8446129" lon="33.5626870">
<ele>26.07</ele>
<time>2015-05-01T09:05:54Z</time>
</trkpt>
<trkpt lat="34.8445710" lon="33.5626429">
<ele>26.55</ele>
<time>2015-05-01T09:05:55Z</time>
</trkpt>
<trkpt lat="34.8445324" lon="33.5625848">
<ele>26.28</ele>
<time>2015-05-01T09:05:56Z</time>
</trkpt>
<trkpt lat="34.8444934" lon="33.5625240">
<ele>26.15</ele>
<time>2015-05-01T09:05:57Z</time>
</trkpt>
<trkpt lat="34.8444506" lon="33.5624679">
<ele>25.58</ele>
<time>2015-05-01T09:05:58Z</time>
</trkpt>
<trkpt lat="34.8444109" lon="33.5624284">
<ele>25.30</ele>
<time>2015-05-01T09:05:59Z</time>
</trkpt>
<trkpt lat="34.8443677" lon="33.5623784">
<ele>24.66</ele>
<time>2015-05-01T09:06:00Z</time>
</trkpt>
<trkpt lat="34.8443259" lon="33.5623180">
<ele>24.84</ele>
<time>2015-05-01T09:06:01Z</time>
</trkpt>
<trkpt lat="34.8442817" lon="33.5622708">
<ele>24.93</ele>
<time>2015-05-01T09:06:02Z</time>
</trkpt>
<trkpt lat="34.8442416" lon="33.5622069">
<ele>24.97</ele>
<time>2015-05-01T09:06:03Z</time>
</trkpt>
<trkpt lat="34.8441995" lon="33.5621514">
<ele>24.99</ele>
<time>2015-05-01T09:06:04Z</time>
</trkpt>
<trkpt lat="34.8441559" lon="33.5620922">
<ele>25.00</ele>
<time>2015-05-01T09:06:05Z</time>
</trkpt>
<trkpt lat="34.8441141" lon="33.5620379">
<ele>25.51</ele>
<time>2015-05-01T09:06:06Z</time>
</trkpt>
<trkpt lat="34.8440733" lon="33.5619869">
<ele>26.76</ele>
<time>2015-05-01T09:06:07Z</time>
</trkpt>
<trkpt lat="34.8440291" lon="33.5619282">
<ele>26.89</ele>
<time>2015-05-01T09:06:08Z</time>
</trkpt>
<trkpt lat="34.8439912" lon="33.5618751">
<ele>27.45</ele>
<time>2015-05-01T09:06:09Z</time>
</trkpt>
<trkpt lat="34.8439486" lon="33.5618258">
<ele>28.23</ele>
<time>2015-05-01T09:06:10Z</time>
</trkpt>
<trkpt lat="34.8439159" lon="33.5617712">
<ele>28.13</ele>
<time>2015-05-01T09:06:11Z</time>
</trkpt>
<trkpt lat="34.8438745" lon="33.5617193">
<ele>28.07</ele>
<time>2015-05-01T09:06:12Z</time>
</trkpt>
<trkpt lat="34.8438300" lon="33.5616732">
<ele>27.54</ele>
<time>2015-05-01T09:06:13Z</time>
</trkpt>
<trkpt lat="34.8437948" lon="33.5616293">
<ele>27.28</ele>
<time>2015-05-01T09:06:14Z</time>
</trkpt>
<trkpt lat="34.8437607" lon="33.5615757">
<ele>27.15</ele>
<time>2015-05-01T09:06:15Z</time>
</trkpt>
<trkpt lat="34.8437207" lon="33.5615218">
<ele>27.08</ele>
<time>2015-05-01T09:06:16Z</time>
</trkpt>
<trkpt lat="34.8436793" lon="33.5614687">
<ele>27.05</ele>
<time>2015-05-01T09:06:17Z</time>
</trkpt>
<trkpt lat="34.8436367" lon="33.5614089">
<ele>27.53</ele>
<time>2015-05-01T09:06:18Z</time>
</trkpt>
<trkpt lat="34.8435975" lon="33.5613616">
<ele>27.27</ele>
<time>2015-05-01T09:06:19Z</time>
</trkpt>
<trkpt lat="34.8435647" lon="33.5612992">
<ele>27.15</ele>
<time>2015-05-01T09:06:20Z</time>
</trkpt>
<trkpt lat="34.8435287" lon="33.5612612">
<ele>27.08</ele>
<time>2015-05-01T09:06:21Z</time>
</trkpt>
<trkpt lat="34.8434934" lon="33.5612190">
<ele>27.05</ele>
<time>2015-05-01T09:06:22Z</time>
</trkpt>
<trkpt lat="34.8434588" lon="33.5611769">
<ele>27.03</ele>
<time>2015-05-01T09:06:23Z</time>
</trkpt>
<trkpt lat="34.8434179" lon="33.5611165">
<ele>27.02</ele>
<time>2015-05-01T09:06:24Z</time>
</trkpt>
<trkpt lat="34.8433829" lon="33.5610673">
<ele>26.52</ele>
<time>2015-05-01T09:06:25Z</time>
</trkpt>
<trkpt lat="34.8433507" lon="33.5610247">
<ele>26.27</ele>
<time>2015-05-01T09:06:26Z</time>
</trkpt>
<trkpt lat="34.8433158" lon="33.5609562">
<ele>26.14</ele>
<time>2015-05-01T09:06:27Z</time>
</trkpt>
<trkpt lat="34.8432783" lon="33.5608994">
<ele>26.08</ele>
<time>2015-05-01T09:06:28Z</time>
</trkpt>
<trkpt lat="34.8432384" lon="33.5608472">
<ele>26.05</ele>
<time>2015-05-01T09:06:29Z</time>
</trkpt>
<trkpt lat="34.8431997" lon="33.5607938">
<ele>25.53</ele>
<time>2015-05-01T09:06:30Z</time>
</trkpt>
<trkpt lat="34.8431622" lon="33.5607402">
<ele>25.77</ele>
<time>2015-05-01T09:06:31Z</time>
</trkpt>
<trkpt lat="34.8431168" lon="33.5606883">
<ele>25.89</ele>
<time>2015-05-01T09:06:32Z</time>
</trkpt>
<trkpt lat="34.8430732" lon="33.5606358">
<ele>25.96</ele>
<time>2015-05-01T09:06:33Z</time>
</trkpt>
<trkpt lat="34.8430326" lon="33.5605813">
<ele>25.99</ele>
<time>2015-05-01T09:06:34Z</time>
</trkpt>
<trkpt lat="34.8429978" lon="33.5605219">
<ele>26.00</ele>
<time>2015-05-01T09:06:35Z</time>
</trkpt>
<trkpt lat="34.8429613" lon="33.5604818">
<ele>25.51</ele>
<time>2015-05-01T09:06:36Z</time>
</trkpt>
<trkpt lat="34.8429290" lon="33.5604343">
<ele>24.76</ele>
<time>2015-05-01T09:06:37Z</time>
</trkpt>
<trkpt lat="34.8428938" lon="33.5603842">
<ele>24.39</ele>
<time>2015-05-01T09:06:38Z</time>
</trkpt>
<trkpt lat="34.8428587" lon="33.5603383">
<ele>24.20</ele>
<time>2015-05-01T09:06:39Z</time>
</trkpt>
<trkpt lat="34.8428191" lon="33.5602785">
<ele>24.11</ele>
<time>2015-05-01T09:06:40Z</time>
</trkpt>
<trkpt lat="34.8427839" lon="33.5602230">
<ele>24.06</ele>
<time>2015-05-01T09:06:41Z</time>
</trkpt>
<trkpt lat="34.8427408" lon="33.5601872">
<ele>23.54</ele>
<time>2015-05-01T09:06:42Z</time>
</trkpt>
<trkpt lat="34.8427041" lon="33.5601363">
<ele>23.28</ele>
<time>2015-05-01T09:06:43Z</time>
</trkpt>
<trkpt lat="34.8426589" lon="33.5600887">
<ele>23.15</ele>
<time>2015-05-01T09:06:44Z</time>
</trkpt>
<trkpt lat="34.8426223" lon="33.5600442">
<ele>22.58</ele>
<time>2015-05-01T09:06:45Z</time>
</trkpt>
<trkpt lat="34.8425872" lon="33.5599936">
<ele>22.30</ele>
<time>2015-05-01T09:06:46Z</time>
</trkpt>
<trkpt lat="34.8425461" lon="33.5599426">
<ele>22.16</ele>
<time>2015-05-01T09:06:47Z</time>
</trkpt>
<trkpt lat="34.8425078" lon="33.5598936">
<ele>22.09</ele>
<time>2015-05-01T09:06:48Z</time>
</trkpt>
<trkpt lat="34.8424755" lon="33.5598493">
<ele>21.55</ele>
<time>2015-05-01T09:06:49Z</time>
</trkpt>
<trkpt lat="34.8424395" lon="33.5598016">
<ele>21.28</ele>
<time>2015-05-01T09:06:50Z</time>
</trkpt>
<trkpt lat="34.8424064" lon="33.5597481">
<ele>21.15</ele>
<time>2015-05-01T09:06:51Z</time>
</trkpt>
<trkpt lat="34.8423674" lon="33.5596987">
<ele>21.08</ele>
<time>2015-05-01T09:06:52Z</time>
</trkpt>
<trkpt lat="34.8423293" lon="33.5596508">
<ele>21.05</ele>
<time>2015-05-01T09:06:53Z</time>
</trkpt>
<trkpt lat="34.8422985" lon="33.5596000">
<ele>21.03</ele>
<time>2015-05-01T09:06:54Z</time>
</trkpt>
<trkpt lat="34.8422581" lon="33.5595487">
<ele>21.02</ele>
<time>2015-05-01T09:06:55Z</time>
</trkpt>
<trkpt lat="34.8422150" lon="33.5594963">
<ele>21.02</ele>
<time>2015-05-01T09:06:56Z</time>
</trkpt>
<trkpt lat="34.8421767" lon="33.5594479">
<ele>21.02</ele>
<time>2015-05-01T09:06:57Z</time>
</trkpt>
<trkpt lat="34.8421439" lon="33.5593949">
<ele>21.02</ele>
<time>2015-05-01T09:06:58Z</time>
</trkpt>
<trkpt lat="34.8421042" lon="33.5593448">
<ele>21.02</ele>
<time>2015-05-01T09:06:59Z</time>
</trkpt>
<trkpt lat="34.8420630" lon="33.5592909">
<ele>21.02</ele>
<time>2015-05-01T09:07:00Z</time>
</trkpt>
<trkpt lat="34.8420206" lon="33.5592387">
<ele>21.02</ele>
<time>2015-05-01T09:07:01Z</time>
</trkpt>
<trkpt lat="34.8419832" lon="33.5591836">
<ele>21.02</ele>
<time>2015-05-01T09:07:02Z</time>
</trkpt>
<trkpt lat="34.8419388" lon="33.5591316">
<ele>21.02</ele>
<time>2015-05-01T09:07:03Z</time>
</trkpt>
<trkpt lat="34.8418981" lon="33.5590777">
<ele>21.02</ele>
<time>2015-05-01T09:07:04Z</time>
</trkpt>
<trkpt lat="34.8418613" lon="33.5590234">
<ele>21.02</ele>
<time>2015-05-01T09:07:05Z</time>
</trkpt>
<trkpt lat="34.8418222" lon="33.5589715">
<ele>21.02</ele>
<time>2015-05-01T09:07:06Z</time>
</trkpt>
<trkpt lat="34.8417826" lon="33.5589244">
<ele>21.02</ele>
<time>2015-05-01T09:07:07Z</time>
</trkpt>
<trkpt lat="34.8417404" lon="33.5588727">
<ele>21.02</ele>
<time>2015-05-01T09:07:08Z</time>
</trkpt>
<trkpt lat="34.8417053" lon="33.5588232">
<ele>21.02</ele>
<time>2015-05-01T09:07:09Z</time>
</trkpt>
<trkpt lat="34.8416684" lon="33.5587778">
<ele>21.02</ele>
<time>2015-05-01T09:07:10Z</time>
</trkpt>
<trkpt lat="34.8416305" lon="33.5587269">
<ele>21.02</ele>
<time>2015-05-01T09:07:11Z</time>
</trkpt>
<trkpt lat="34.8415921" lon="33.5586744">
<ele>21.02</ele>
<time>2015-05-01T09:07:12Z</time>
</trkpt>
<trkpt lat="34.8415542" lon="33.5586240">
<ele>21.02</ele>
<time>2015-05-01T09:07:13Z</time>
</trkpt>
<trkpt lat="34.8415140" lon="33.5585734">
<ele>21.52</ele>
<time>2015-05-01T09:07:14Z</time>
</trkpt>
<trkpt lat="34.8414787" lon="33.5585266">
<ele>21.77</ele>
<time>2015-05-01T09:07:15Z</time>
</trkpt>
<trkpt lat="34.8414327" lon="33.5584751">
<ele>21.89</ele>
<time>2015-05-01T09:07:16Z</time>
</trkpt>
<trkpt lat="34.8413977" lon="33.5584251">
<ele>21.95</ele>
<time>2015-05-01T09:07:17Z</time>
</trkpt>
<trkpt lat="34.8413566" lon="33.5583844">
<ele>22.48</ele>
<time>2015-05-01T09:07:18Z</time>
</trkpt>
<trkpt lat="34.8413193" lon="33.5583330">
<ele>23.25</ele>
<time>2015-05-01T09:07:19Z</time>
</trkpt>
<trkpt lat="34.8412799" lon="33.5582827">
<ele>23.63</ele>
<time>2015-05-01T09:07:20Z</time>
</trkpt>
<trkpt lat="34.8412497" lon="33.5582365">
<ele>23.32</ele>
<time>2015-05-01T09:07:21Z</time>
</trkpt>
<trkpt lat="34.8412206" lon="33.5581941">
<ele>22.67</ele>
<time>2015-05-01T09:07:22Z</time>
</trkpt>
<trkpt lat="34.8411621" lon="33.5581078">
<ele>22.18</ele>
<time>2015-05-01T09:07:24Z</time>
</trkpt>
<trkpt lat="34.8411300" lon="33.5580668">
<ele>22.10</ele>
<time>2015-05-01T09:07:25Z</time>
</trkpt>
<trkpt lat="34.8410749" lon="33.5579872">
<ele>22.79</ele>
<time>2015-05-01T09:07:27Z</time>
</trkpt>
<trkpt lat="34.8410426" lon="33.5579410">
<ele>22.90</ele>
<time>2015-05-01T09:07:28Z</time>
</trkpt>
<trkpt lat="34.8410028" lon="33.5579036">
<ele>22.96</ele>
<time>2015-05-01T09:07:29Z</time>
</trkpt>
<trkpt lat="34.8409699" lon="33.5578641">
<ele>22.99</ele>
<time>2015-05-01T09:07:30Z</time>
</trkpt>
<trkpt lat="34.8409030" lon="33.5577860">
<ele>22.26</ele>
<time>2015-05-01T09:07:32Z</time>
</trkpt>
<trkpt lat="34.8408703" lon="33.5577445">
<ele>21.64</ele>
<time>2015-05-01T09:07:33Z</time>
</trkpt>
<trkpt lat="34.8408333" lon="33.5577000">
<ele>21.33</ele>
<time>2015-05-01T09:07:34Z</time>
</trkpt>
<trkpt lat="34.8408012" lon="33.5576548">
<ele>20.67</ele>
<time>2015-05-01T09:07:35Z</time>
</trkpt>
<trkpt lat="34.8407665" lon="33.5576113">
<ele>20.34</ele>
<time>2015-05-01T09:07:36Z</time>
</trkpt>
<trkpt lat="34.8407360" lon="33.5575693">
<ele>20.18</ele>
<time>2015-05-01T09:07:37Z</time>
</trkpt>
<trkpt lat="34.8407015" lon="33.5575252">
<ele>20.10</ele>
<time>2015-05-01T09:07:38Z</time>
</trkpt>
<trkpt lat="34.8406647" lon="33.5574781">
<ele>19.56</ele>
<time>2015-05-01T09:07:39Z</time>
</trkpt>
<trkpt lat="34.8406279" lon="33.5574318">
<ele>19.29</ele>
<time>2015-05-01T09:07:40Z</time>
</trkpt>
<trkpt lat="34.8405874" lon="33.5573875">
<ele>19.65</ele>
<time>2015-05-01T09:07:41Z</time>
</trkpt>
<trkpt lat="34.8405526" lon="33.5573378">
<ele>19.83</ele>
<time>2015-05-01T09:07:42Z</time>
</trkpt>
<trkpt lat="34.8405151" lon="33.5572914">
<ele>19.92</ele>
<time>2015-05-01T09:07:43Z</time>
</trkpt>
<trkpt lat="34.8404758" lon="33.5572422">
<ele>20.47</ele>
<time>2015-05-01T09:07:44Z</time>
</trkpt>
<trkpt lat="34.8404381" lon="33.5571949">
<ele>20.74</ele>
<time>2015-05-01T09:07:45Z</time>
</trkpt>
<trkpt lat="34.8404008" lon="33.5571492">
<ele>20.88</ele>
<time>2015-05-01T09:07:46Z</time>
</trkpt>
<trkpt lat="34.8403655" lon="33.5571078">
<ele>20.95</ele>
<time>2015-05-01T09:07:47Z</time>
</trkpt>
<trkpt lat="34.8403347" lon="33.5570542">
<ele>20.98</ele>
<time>2015-05-01T09:07:48Z</time>
</trkpt>
<trkpt lat="34.8402969" lon="33.5570087">
<ele>21.50</ele>
<time>2015-05-01T09:07:49Z</time>
</trkpt>
<trkpt lat="34.8402552" lon="33.5569670">
<ele>21.76</ele>
<time>2015-05-01T09:07:50Z</time>
</trkpt>
<trkpt lat="34.8402248" lon="33.5569238">
<ele>21.39</ele>
<time>2015-05-01T09:07:51Z</time>
</trkpt>
<trkpt lat="34.8401877" lon="33.5568770">
<ele>21.20</ele>
<time>2015-05-01T09:07:52Z</time>
</trkpt>
<trkpt lat="34.8401491" lon="33.5568326">
<ele>21.11</ele>
<time>2015-05-01T09:07:53Z</time>
</trkpt>
<trkpt lat="34.8401129" lon="33.5567859">
<ele>21.06</ele>
<time>2015-05-01T09:07:54Z</time>
</trkpt>
<trkpt lat="34.8400759" lon="33.5567414">
<ele>21.04</ele>
<time>2015-05-01T09:07:55Z</time>
</trkpt>
<trkpt lat="34.8400423" lon="33.5566962">
<ele>21.03</ele>
<time>2015-05-01T09:07:56Z</time>
</trkpt>
<trkpt lat="34.8400036" lon="33.5566479">
<ele>21.02</ele>
<time>2015-05-01T09:07:57Z</time>
</trkpt>
<trkpt lat="34.8399666" lon="33.5566010">
<ele>21.02</ele>
<time>2015-05-01T09:07:58Z</time>
</trkpt>
<trkpt lat="34.8399309" lon="33.5565559">
<ele>21.02</ele>
<time>2015-05-01T09:07:59Z</time>
</trkpt>
<trkpt lat="34.8398973" lon="33.5565106">
<ele>20.52</ele>
<time>2015-05-01T09:08:00Z</time>
</trkpt>
<trkpt lat="34.8398619" lon="33.5564646">
<ele>20.27</ele>
<time>2015-05-01T09:08:01Z</time>
</trkpt>
<trkpt lat="34.8398275" lon="33.5564198">
<ele>20.14</ele>
<time>2015-05-01T09:08:02Z</time>
</trkpt>
<trkpt lat="34.8397915" lon="33.5563747">
<ele>20.08</ele>
<time>2015-05-01T09:08:03Z</time>
</trkpt>
<trkpt lat="34.8397555" lon="33.5563302">
<ele>20.05</ele>
<time>2015-05-01T09:08:04Z</time>
</trkpt>
<trkpt lat="34.8397295" lon="33.5562805">
<ele>20.53</ele>
<time>2015-05-01T09:08:05Z</time>
</trkpt>
<trkpt lat="34.8396994" lon="33.5562365">
<ele>20.77</ele>
<time>2015-05-01T09:08:06Z</time>
</trkpt>
<trkpt lat="34.8396402" lon="33.5561617">
<ele>20.21</ele>
<time>2015-05-01T09:08:08Z</time>
</trkpt>
<trkpt lat="34.8396070" lon="33.5561210">
<ele>20.11</ele>
<time>2015-05-01T09:08:09Z</time>
</trkpt>
<trkpt lat="34.8395742" lon="33.5560784">
<ele>20.06</ele>
<time>2015-05-01T09:08:10Z</time>
</trkpt>
<trkpt lat="34.8395395" lon="33.5560398">
<ele>20.04</ele>
<time>2015-05-01T09:08:11Z</time>
</trkpt>
<trkpt lat="34.8394997" lon="33.5559960">
<ele>20.03</ele>
<time>2015-05-01T09:08:12Z</time>
</trkpt>
<trkpt lat="34.8394630" lon="33.5559515">
<ele>20.02</ele>
<time>2015-05-01T09:08:13Z</time>
</trkpt>
<trkpt lat="34.8394099" lon="33.5558650">
<ele>20.02</ele>
<time>2015-05-01T09:08:15Z</time>
</trkpt>
<trkpt lat="34.8393761" lon="33.5558246">
<ele>20.02</ele>
<time>2015-05-01T09:08:16Z</time>
</trkpt>
<trkpt lat="34.8393452" lon="33.5557830">
<ele>20.02</ele>
<time>2015-05-01T09:08:17Z</time>
</trkpt>
<trkpt lat="34.8393086" lon="33.5557412">
<ele>19.52</ele>
<time>2015-05-01T09:08:18Z</time>
</trkpt>
<trkpt lat="34.8392776" lon="33.5556977">
<ele>19.77</ele>
<time>2015-05-01T09:08:19Z</time>
</trkpt>
<trkpt lat="34.8392432" lon="33.5556605">
<ele>19.39</ele>
<time>2015-05-01T09:08:20Z</time>
</trkpt>
<trkpt lat="34.8392112" lon="33.5556146">
<ele>19.70</ele>
<time>2015-05-01T09:08:21Z</time>
</trkpt>
<trkpt lat="34.8391807" lon="33.5555718">
<ele>19.36</ele>
<time>2015-05-01T09:08:22Z</time>
</trkpt>
<trkpt lat="34.8391187" lon="33.5554915">
<ele>19.85</ele>
<time>2015-05-01T09:08:24Z</time>
</trkpt>
<trkpt lat="34.8390785" lon="33.5554460">
<ele>19.93</ele>
<time>2015-05-01T09:08:25Z</time>
</trkpt>
<trkpt lat="34.8390462" lon="33.5554039">
<ele>19.97</ele>
<time>2015-05-01T09:08:26Z</time>
</trkpt>
<trkpt lat="34.8390119" lon="33.5553585">
<ele>20.00</ele>
<time>2015-05-01T09:08:27Z</time>
</trkpt>
<trkpt lat="34.8389809" lon="33.5553144">
<ele>20.01</ele>
<time>2015-05-01T09:08:28Z</time>
</trkpt>
<trkpt lat="34.8389467" lon="33.5552730">
<ele>20.01</ele>
<time>2015-05-01T09:08:29Z</time>
</trkpt>
<trkpt lat="34.8389098" lon="33.5552261">
<ele>20.01</ele>
<time>2015-05-01T09:08:30Z</time>
</trkpt>
<trkpt lat="34.8388781" lon="33.5551802">
<ele>20.01</ele>
<time>2015-05-01T09:08:31Z</time>
</trkpt>
<trkpt lat="34.8388146" lon="33.5550980">
<ele>20.02</ele>
<time>2015-05-01T09:08:33Z</time>
</trkpt>
<trkpt lat="34.8387670" lon="33.5550141">
<ele>20.02</ele>
<time>2015-05-01T09:08:35Z</time>
</trkpt>
<trkpt lat="34.8386976" lon="33.5549428">
<ele>20.02</ele>
<time>2015-05-01T09:08:37Z</time>
</trkpt>
<trkpt lat="34.8386684" lon="33.5549000">
<ele>20.02</ele>
<time>2015-05-01T09:08:38Z</time>
</trkpt>
<trkpt lat="34.8386156" lon="33.5548208">
<ele>20.02</ele>
<time>2015-05-01T09:08:40Z</time>
</trkpt>
<trkpt lat="34.8385818" lon="33.5547789">
<ele>20.02</ele>
<time>2015-05-01T09:08:41Z</time>
</trkpt>
<trkpt lat="34.8385496" lon="33.5547385">
<ele>20.02</ele>
<time>2015-05-01T09:08:42Z</time>
</trkpt>
<trkpt lat="34.8385187" lon="33.5546940">
<ele>20.02</ele>
<time>2015-05-01T09:08:43Z</time>
</trkpt>
<trkpt lat="34.8384814" lon="33.5546491">
<ele>20.02</ele>
<time>2015-05-01T09:08:44Z</time>
</trkpt>
<trkpt lat="34.8384512" lon="33.5546024">
<ele>20.02</ele>
<time>2015-05-01T09:08:45Z</time>
</trkpt>
<trkpt lat="34.8383911" lon="33.5545252">
<ele>20.02</ele>
<time>2015-05-01T09:08:47Z</time>
</trkpt>
<trkpt lat="34.8383559" lon="33.5544823">
<ele>20.02</ele>
<time>2015-05-01T09:08:48Z</time>
</trkpt>
<trkpt lat="34.8383247" lon="33.5544423">
<ele>20.02</ele>
<time>2015-05-01T09:08:49Z</time>
</trkpt>
<trkpt lat="34.8382951" lon="33.5544007">
<ele>20.02</ele>
<time>2015-05-01T09:08:50Z</time>
</trkpt>
<trkpt lat="34.8382661" lon="33.5543562">
<ele>20.02</ele>
<time>2015-05-01T09:08:51Z</time>
</trkpt>
<trkpt lat="34.8382388" lon="33.5543085">
<ele>20.02</ele>
<time>2015-05-01T09:08:52Z</time>
</trkpt>
<trkpt lat="34.8382000" lon="33.5542702">
<ele>20.02</ele>
<time>2015-05-01T09:08:53Z</time>
</trkpt>
<trkpt lat="34.8381404" lon="33.5541840">
<ele>20.27</ele>
<time>2015-05-01T09:08:55Z</time>
</trkpt>
<trkpt lat="34.8381052" lon="33.5541403">
<ele>20.14</ele>
<time>2015-05-01T09:08:56Z</time>
</trkpt>
<trkpt lat="34.8380733" lon="33.5540956">
<ele>20.58</ele>
<time>2015-05-01T09:08:57Z</time>
</trkpt>
<trkpt lat="34.8380399" lon="33.5540499">
<ele>20.80</ele>
<time>2015-05-01T09:08:58Z</time>
</trkpt>
<trkpt lat="34.8380042" lon="33.5540025">
<ele>20.41</ele>
<time>2015-05-01T09:08:59Z</time>
</trkpt>
<trkpt lat="34.8379722" lon="33.5539575">
<ele>20.21</ele>
<time>2015-05-01T09:09:00Z</time>
</trkpt>
<trkpt lat="34.8379226" lon="33.5538850">
<ele>20.06</ele>
<time>2015-05-01T09:09:02Z</time>
</trkpt>
<trkpt lat="34.8378750" lon="33.5538077">
<ele>20.03</ele>
<time>2015-05-01T09:09:04Z</time>
</trkpt>
<trkpt lat="34.8378265" lon="33.5537416">
<ele>20.52</ele>
<time>2015-05-01T09:09:06Z</time>
</trkpt>
<trkpt lat="34.8377654" lon="33.5536727">
<ele>20.89</ele>
<time>2015-05-01T09:09:08Z</time>
</trkpt>
<trkpt lat="34.8377144" lon="33.5535896">
<ele>20.48</ele>
<time>2015-05-01T09:09:10Z</time>
</trkpt>
<trkpt lat="34.8376772" lon="33.5535441">
<ele>20.75</ele>
<time>2015-05-01T09:09:11Z</time>
</trkpt>
<trkpt lat="34.8376466" lon="33.5535024">
<ele>20.88</ele>
<time>2015-05-01T09:09:12Z</time>
</trkpt>
<trkpt lat="34.8376055" lon="33.5534582">
<ele>20.95</ele>
<time>2015-05-01T09:09:13Z</time>
</trkpt>
<trkpt lat="34.8375738" lon="33.5534168">
<ele>20.98</ele>
<time>2015-05-01T09:09:14Z</time>
</trkpt>
<trkpt lat="34.8375074" lon="33.5533343">
<ele>21.01</ele>
<time>2015-05-01T09:09:16Z</time>
</trkpt>
<trkpt lat="34.8374752" lon="33.5532889">
<ele>21.01</ele>
<time>2015-05-01T09:09:17Z</time>
</trkpt>
<trkpt lat="34.8374466" lon="33.5532435">
<ele>20.51</ele>
<time>2015-05-01T09:09:18Z</time>
</trkpt>
<trkpt lat="34.8374132" lon="33.5531980">
<ele>20.26</ele>
<time>2015-05-01T09:09:19Z</time>
</trkpt>
<trkpt lat="34.8373791" lon="33.5531516">
<ele>20.14</ele>
<time>2015-05-01T09:09:20Z</time>
</trkpt>
<trkpt lat="34.8373450" lon="33.5531067">
<ele>20.08</ele>
<time>2015-05-01T09:09:21Z</time>
</trkpt>
<trkpt lat="34.8373108" lon="33.5530621">
<ele>20.05</ele>
<time>2015-05-01T09:09:22Z</time>
</trkpt>
<trkpt lat="34.8372802" lon="33.5530210">
<ele>20.53</ele>
<time>2015-05-01T09:09:23Z</time>
</trkpt>
<trkpt lat="34.8372432" lon="33.5529766">
<ele>20.77</ele>
<time>2015-05-01T09:09:24Z</time>
</trkpt>
<trkpt lat="34.8372055" lon="33.5529318">
<ele>21.39</ele>
<time>2015-05-01T09:09:25Z</time>
</trkpt>
<trkpt lat="34.8371755" lon="33.5528857">
<ele>21.21</ele>
<time>2015-05-01T09:09:26Z</time>
</trkpt>
<trkpt lat="34.8371417" lon="33.5528388">
<ele>21.61</ele>
<time>2015-05-01T09:09:27Z</time>
</trkpt>
<trkpt lat="34.8371089" lon="33.5527934">
<ele>21.81</ele>
<time>2015-05-01T09:09:28Z</time>
</trkpt>
<trkpt lat="34.8370627" lon="33.5527194">
<ele>21.22</ele>
<time>2015-05-01T09:09:30Z</time>
</trkpt>
<trkpt lat="34.8370128" lon="33.5526495">
<ele>21.57</ele>
<time>2015-05-01T09:09:32Z</time>
</trkpt>
<trkpt lat="34.8369616" lon="33.5525686">
<ele>21.65</ele>
<time>2015-05-01T09:09:34Z</time>
</trkpt>
<trkpt lat="34.8369046" lon="33.5524911">
<ele>21.93</ele>
<time>2015-05-01T09:09:36Z</time>
</trkpt>
<trkpt lat="34.8368474" lon="33.5524132">
<ele>21.99</ele>
<time>2015-05-01T09:09:38Z</time>
</trkpt>
<trkpt lat="34.8367823" lon="33.5523287">
<ele>22.01</ele>
<time>2015-05-01T09:09:40Z</time>
</trkpt>
<trkpt lat="34.8367497" lon="33.5522855">
<ele>22.01</ele>
<time>2015-05-01T09:09:41Z</time>
</trkpt>
<trkpt lat="34.8366899" lon="33.5522085">
<ele>22.02</ele>
<time>2015-05-01T09:09:43Z</time>
</trkpt>
<trkpt lat="34.8366581" lon="33.5521671">
<ele>22.02</ele>
<time>2015-05-01T09:09:44Z</time>
</trkpt>
<trkpt lat="34.8366259" lon="33.5521230">
<ele>22.52</ele>
<time>2015-05-01T09:09:45Z</time>
</trkpt>
<trkpt lat="34.8365954" lon="33.5520824">
<ele>22.77</ele>
<time>2015-05-01T09:09:46Z</time>
</trkpt>
<trkpt lat="34.8365328" lon="33.5520022">
<ele>22.20</ele>
<time>2015-05-01T09:09:48Z</time>
</trkpt>
<trkpt lat="34.8364682" lon="33.5519174">
<ele>22.06</ele>
<time>2015-05-01T09:09:50Z</time>
</trkpt>
<trkpt lat="34.8364364" lon="33.5518762">
<ele>22.04</ele>
<time>2015-05-01T09:09:51Z</time>
</trkpt>
<trkpt lat="34.8364042" lon="33.5518291">
<ele>22.03</ele>
<time>2015-05-01T09:09:52Z</time>
</trkpt>
<trkpt lat="34.8363720" lon="33.5517856">
<ele>22.02</ele>
<time>2015-05-01T09:09:53Z</time>
</trkpt>
<trkpt lat="34.8363377" lon="33.5517425">
<ele>21.52</ele>
<time>2015-05-01T09:09:54Z</time>
</trkpt>
<trkpt lat="34.8362994" lon="33.5516978">
<ele>21.27</ele>
<time>2015-05-01T09:09:55Z</time>
</trkpt>
<trkpt lat="34.8362637" lon="33.5516510">
<ele>21.14</ele>
<time>2015-05-01T09:09:56Z</time>
</trkpt>
<trkpt lat="34.8362297" lon="33.5516004">
<ele>21.08</ele>
<time>2015-05-01T09:09:57Z</time>
</trkpt>
<trkpt lat="34.8361884" lon="33.5515506">
<ele>21.05</ele>
<time>2015-05-01T09:09:58Z</time>
</trkpt>
<trkpt lat="34.8361542" lon="33.5515124">
<ele>21.03</ele>
<time>2015-05-01T09:09:59Z</time>
</trkpt>
<trkpt lat="34.8361171" lon="33.5514653">
<ele>21.02</ele>
<time>2015-05-01T09:10:00Z</time>
</trkpt>
<trkpt lat="34.8360886" lon="33.5514188">
<ele>21.02</ele>
<time>2015-05-01T09:10:01Z</time>
</trkpt>
<trkpt lat="34.8360533" lon="33.5513720">
<ele>21.02</ele>
<time>2015-05-01T09:10:02Z</time>
</trkpt>
<trkpt lat="34.8360154" lon="33.5513290">
<ele>21.02</ele>
<time>2015-05-01T09:10:03Z</time>
</trkpt>
<trkpt lat="34.8359779" lon="33.5512774">
<ele>21.02</ele>
<time>2015-05-01T09:10:04Z</time>
</trkpt>
<trkpt lat="34.8359382" lon="33.5512248">
<ele>21.02</ele>
<time>2015-05-01T09:10:05Z</time>
</trkpt>
<trkpt lat="34.8358983" lon="33.5511752">
<ele>21.02</ele>
<time>2015-05-01T09:10:06Z</time>
</trkpt>
<trkpt lat="34.8358604" lon="33.5511264">
<ele>21.02</ele>
<time>2015-05-01T09:10:07Z</time>
</trkpt>
<trkpt lat="34.8358213" lon="33.5510734">
<ele>21.02</ele>
<time>2015-05-01T09:10:08Z</time>
</trkpt>
<trkpt lat="34.8357834" lon="33.5510234">
<ele>21.02</ele>
<time>2015-05-01T09:10:09Z</time>
</trkpt>
<trkpt lat="34.8357427" lon="33.5509706">
<ele>21.02</ele>
<time>2015-05-01T09:10:10Z</time>
</trkpt>
<trkpt lat="34.8357061" lon="33.5509220">
<ele>21.02</ele>
<time>2015-05-01T09:10:11Z</time>
</trkpt>
<trkpt lat="34.8356674" lon="33.5508736">
<ele>21.02</ele>
<time>2015-05-01T09:10:12Z</time>
</trkpt>
<trkpt lat="34.8356308" lon="33.5508256">
<ele>21.02</ele>
<time>2015-05-01T09:10:13Z</time>
</trkpt>
<trkpt lat="34.8355987" lon="33.5507807">
<ele>21.02</ele>
<time>2015-05-01T09:10:14Z</time>
</trkpt>
<trkpt lat="34.8355556" lon="33.5507287">
<ele>21.02</ele>
<time>2015-05-01T09:10:15Z</time>
</trkpt>
<trkpt lat="34.8355181" lon="33.5506795">
<ele>21.02</ele>
<time>2015-05-01T09:10:16Z</time>
</trkpt>
<trkpt lat="34.8354890" lon="33.5506324">
<ele>21.02</ele>
<time>2015-05-01T09:10:17Z</time>
</trkpt>
<trkpt lat="34.8354520" lon="33.5505836">
<ele>21.02</ele>
<time>2015-05-01T09:10:18Z</time>
</trkpt>
<trkpt lat="34.8354184" lon="33.5505404">
<ele>21.02</ele>
<time>2015-05-01T09:10:19Z</time>
</trkpt>
<trkpt lat="34.8353844" lon="33.5504994">
<ele>21.02</ele>
<time>2015-05-01T09:10:20Z</time>
</trkpt>
<trkpt lat="34.8353562" lon="33.5504553">
<ele>21.02</ele>
<time>2015-05-01T09:10:21Z</time>
</trkpt>
<trkpt lat="34.8353250" lon="33.5504155">
<ele>21.02</ele>
<time>2015-05-01T09:10:22Z</time>
</trkpt>
<trkpt lat="34.8352912" lon="33.5503714">
<ele>21.02</ele>
<time>2015-05-01T09:10:23Z</time>
</trkpt>
<trkpt lat="34.8352468" lon="33.5503201">
<ele>20.52</ele>
<time>2015-05-01T09:10:24Z</time>
</trkpt>
<trkpt lat="34.8352111" lon="33.5502719">
<ele>20.27</ele>
<time>2015-05-01T09:10:25Z</time>
</trkpt>
<trkpt lat="34.8351707" lon="33.5502218">
<ele>20.14</ele>
<time>2015-05-01T09:10:26Z</time>
</trkpt>
<trkpt lat="34.8351330" lon="33.5501723">
<ele>20.08</ele>
<time>2015-05-01T09:10:27Z</time>
</trkpt>
<trkpt lat="34.8350987" lon="33.5501194">
<ele>20.05</ele>
<time>2015-05-01T09:10:28Z</time>
</trkpt>
<trkpt lat="34.8350591" lon="33.5500677">
<ele>19.53</ele>
<time>2015-05-01T09:10:29Z</time>
</trkpt>
<trkpt lat="34.8350205" lon="33.5500156">
<ele>19.77</ele>
<time>2015-05-01T09:10:30Z</time>
</trkpt>
<trkpt lat="34.8349818" lon="33.5499704">
<ele>19.89</ele>
<time>2015-05-01T09:10:31Z</time>
</trkpt>
<trkpt lat="34.8349431" lon="33.5499186">
<ele>19.46</ele>
<time>2015-05-01T09:10:32Z</time>
</trkpt>
<trkpt lat="34.8349040" lon="33.5498673">
<ele>19.24</ele>
<time>2015-05-01T09:10:33Z</time>
</trkpt>
<trkpt lat="34.8348666" lon="33.5498185">
<ele>19.13</ele>
<time>2015-05-01T09:10:34Z</time>
</trkpt>
<trkpt lat="34.8348336" lon="33.5497667">
<ele>19.07</ele>
<time>2015-05-01T09:10:35Z</time>
</trkpt>
<trkpt lat="34.8347923" lon="33.5497107">
<ele>19.04</ele>
<time>2015-05-01T09:10:36Z</time>
</trkpt>
<trkpt lat="34.8347532" lon="33.5496604">
<ele>19.03</ele>
<time>2015-05-01T09:10:37Z</time>
</trkpt>
<trkpt lat="34.8347219" lon="33.5496074">
<ele>19.02</ele>
<time>2015-05-01T09:10:38Z</time>
</trkpt>
<trkpt lat="34.8346840" lon="33.5495562">
<ele>19.02</ele>
<time>2015-05-01T09:10:39Z</time>
</trkpt>
<trkpt lat="34.8346386" lon="33.5495060">
<ele>19.02</ele>
<time>2015-05-01T09:10:40Z</time>
</trkpt>
<trkpt lat="34.8346000" lon="33.5494542">
<ele>19.02</ele>
<time>2015-05-01T09:10:41Z</time>
</trkpt>
<trkpt lat="34.8345588" lon="33.5494040">
<ele>19.02</ele>
<time>2015-05-01T09:10:42Z</time>
</trkpt>
<trkpt lat="34.8345198" lon="33.5493522">
<ele>18.52</ele>
<time>2015-05-01T09:10:43Z</time>
</trkpt>
<trkpt lat="34.8344814" lon="33.5492888">
<ele>18.27</ele>
<time>2015-05-01T09:10:44Z</time>
</trkpt>
<trkpt lat="34.8344461" lon="33.5492382">
<ele>18.14</ele>
<time>2015-05-01T09:10:45Z</time>
</trkpt>
<trkpt lat="34.8344110" lon="33.5491889">
<ele>18.08</ele>
<time>2015-05-01T09:10:46Z</time>
</trkpt>
<trkpt lat="34.8343818" lon="33.5491462">
<ele>18.05</ele>
<time>2015-05-01T09:10:47Z</time>
</trkpt>
<trkpt lat="34.8343464" lon="33.5490968">
<ele>18.03</ele>
<time>2015-05-01T09:10:48Z</time>
</trkpt>
<trkpt lat="34.8342984" lon="33.5490425">
<ele>17.52</ele>
<time>2015-05-01T09:10:49Z</time>
</trkpt>
<trkpt lat="34.8342594" lon="33.5489957">
<ele>17.27</ele>
<time>2015-05-01T09:10:50Z</time>
</trkpt>
<trkpt lat="34.8342289" lon="33.5489452">
<ele>17.14</ele>
<time>2015-05-01T09:10:51Z</time>
</trkpt>
<trkpt lat="34.8341881" lon="33.5488920">
<ele>17.58</ele>
<time>2015-05-01T09:10:52Z</time>
</trkpt>
<trkpt lat="34.8341482" lon="33.5488433">
<ele>17.30</ele>
<time>2015-05-01T09:10:53Z</time>
</trkpt>
<trkpt lat="34.8341116" lon="33.5487995">
<ele>17.66</ele>
<time>2015-05-01T09:10:54Z</time>
</trkpt>
<trkpt lat="34.8340740" lon="33.5487524">
<ele>17.84</ele>
<time>2015-05-01T09:10:55Z</time>
</trkpt>
<trkpt lat="34.8340423" lon="33.5487009">
<ele>18.43</ele>
<time>2015-05-01T09:10:56Z</time>
</trkpt>
<trkpt lat="34.8340061" lon="33.5486538">
<ele>18.22</ele>
<time>2015-05-01T09:10:57Z</time>
</trkpt>
<trkpt lat="34.8339698" lon="33.5486063">
<ele>18.12</ele>
<time>2015-05-01T09:10:58Z</time>
</trkpt>
<trkpt lat="34.8339338" lon="33.5485566">
<ele>18.57</ele>
<time>2015-05-01T09:10:59Z</time>
</trkpt>
<trkpt lat="34.8338992" lon="33.5485135">
<ele>18.79</ele>
<time>2015-05-01T09:11:00Z</time>
</trkpt>
<trkpt lat="34.8338732" lon="33.5484612">
<ele>18.90</ele>
<time>2015-05-01T09:11:01Z</time>
</trkpt>
<trkpt lat="34.8338173" lon="33.5483910">
<ele>18.24</ele>
<time>2015-05-01T09:11:03Z</time>
</trkpt>
<trkpt lat="34.8337590" lon="33.5483179">
<ele>18.07</ele>
<time>2015-05-01T09:11:05Z</time>
</trkpt>
<trkpt lat="34.8337045" lon="33.5482448">
<ele>18.53</ele>
<time>2015-05-01T09:11:07Z</time>
</trkpt>
<trkpt lat="34.8336371" lon="33.5481695">
<ele>18.89</ele>
<time>2015-05-01T09:11:09Z</time>
</trkpt>
<trkpt lat="34.8336080" lon="33.5481231">
<ele>18.46</ele>
<time>2015-05-01T09:11:10Z</time>
</trkpt>
<trkpt lat="34.8335770" lon="33.5480786">
<ele>18.24</ele>
<time>2015-05-01T09:11:11Z</time>
</trkpt>
<trkpt lat="34.8335395" lon="33.5480232">
<ele>18.63</ele>
<time>2015-05-01T09:11:12Z</time>
</trkpt>
<trkpt lat="34.8335058" lon="33.5479782">
<ele>18.32</ele>
<time>2015-05-01T09:11:13Z</time>
</trkpt>
<trkpt lat="34.8334678" lon="33.5479281">
<ele>18.67</ele>
<time>2015-05-01T09:11:14Z</time>
</trkpt>
<trkpt lat="34.8334308" lon="33.5478865">
<ele>18.34</ele>
<time>2015-05-01T09:11:15Z</time>
</trkpt>
<trkpt lat="34.8333973" lon="33.5478371">
<ele>18.18</ele>
<time>2015-05-01T09:11:16Z</time>
</trkpt>
<trkpt lat="34.8333678" lon="33.5477945">
<ele>18.10</ele>
<time>2015-05-01T09:11:17Z</time>
</trkpt>
<trkpt lat="34.8333360" lon="33.5477507">
<ele>18.06</ele>
<time>2015-05-01T09:11:18Z</time>
</trkpt>
<trkpt lat="34.8332732" lon="33.5476767">
<ele>18.78</ele>
<time>2015-05-01T09:11:20Z</time>
</trkpt>
<trkpt lat="34.8332173" lon="33.5476004">
<ele>18.96</ele>
<time>2015-05-01T09:11:22Z</time>
</trkpt>
<trkpt lat="34.8331882" lon="33.5475570">
<ele>18.99</ele>
<time>2015-05-01T09:11:23Z</time>
</trkpt>
<trkpt lat="34.8331542" lon="33.5475074">
<ele>18.50</ele>
<time>2015-05-01T09:11:24Z</time>
</trkpt>
<trkpt lat="34.8331162" lon="33.5474587">
<ele>18.76</ele>
<time>2015-05-01T09:11:25Z</time>
</trkpt>
<trkpt lat="34.8330840" lon="33.5474049">
<ele>18.89</ele>
<time>2015-05-01T09:11:26Z</time>
</trkpt>
<trkpt lat="34.8330536" lon="33.5473580">
<ele>18.95</ele>
<time>2015-05-01T09:11:27Z</time>
</trkpt>
<trkpt lat="34.8330177" lon="33.5473169">
<ele>18.98</ele>
<time>2015-05-01T09:11:28Z</time>
</trkpt>
<trkpt lat="34.8329842" lon="33.5472777">
<ele>19.00</ele>
<time>2015-05-01T09:11:29Z</time>
</trkpt>
<trkpt lat="34.8329566" lon="33.5472341">
<ele>19.01</ele>
<time>2015-05-01T09:11:30Z</time>
</trkpt>
<trkpt lat="34.8329206" lon="33.5471877">
<ele>19.01</ele>
<time>2015-05-01T09:11:31Z</time>
</trkpt>
<trkpt lat="34.8328846" lon="33.5471374">
<ele>19.51</ele>
<time>2015-05-01T09:11:32Z</time>
</trkpt>
<trkpt lat="34.8328470" lon="33.5470964">
<ele>19.26</ele>
<time>2015-05-01T09:11:33Z</time>
</trkpt>
<trkpt lat="34.8328118" lon="33.5470516">
<ele>19.14</ele>
<time>2015-05-01T09:11:34Z</time>
</trkpt>
<trkpt lat="34.8327790" lon="33.5469968">
<ele>18.58</ele>
<time>2015-05-01T09:11:35Z</time>
</trkpt>
<trkpt lat="34.8327436" lon="33.5469513">
<ele>18.30</ele>
<time>2015-05-01T09:11:36Z</time>
</trkpt>
<trkpt lat="34.8327090" lon="33.5469041">
<ele>18.16</ele>
<time>2015-05-01T09:11:37Z</time>
</trkpt>
<trkpt lat="34.8326679" lon="33.5468610">
<ele>18.09</ele>
<time>2015-05-01T09:11:38Z</time>
</trkpt>
<trkpt lat="34.8326336" lon="33.5468145">
<ele>18.55</ele>
<time>2015-05-01T09:11:39Z</time>
</trkpt>
<trkpt lat="34.8325963" lon="33.5467610">
<ele>18.28</ele>
<time>2015-05-01T09:11:40Z</time>
</trkpt>
<trkpt lat="34.8325583" lon="33.5467108">
<ele>18.15</ele>
<time>2015-05-01T09:11:41Z</time>
</trkpt>
<trkpt lat="34.8325216" lon="33.5466629">
<ele>18.08</ele>
<time>2015-05-01T09:11:42Z</time>
</trkpt>
<trkpt lat="34.8324879" lon="33.5466228">
<ele>18.55</ele>
<time>2015-05-01T09:11:43Z</time>
</trkpt>
<trkpt lat="34.8324458" lon="33.5465771">
<ele>18.78</ele>
<time>2015-05-01T09:11:44Z</time>
</trkpt>
<trkpt lat="34.8323932" lon="33.5464991">
<ele>18.21</ele>
<time>2015-05-01T09:11:46Z</time>
</trkpt>
<trkpt lat="34.8323296" lon="33.5464212">
<ele>18.06</ele>
<time>2015-05-01T09:11:48Z</time>
</trkpt>
<trkpt lat="34.8322717" lon="33.5463371">
<ele>17.28</ele>
<time>2015-05-01T09:11:50Z</time>
</trkpt>
<trkpt lat="34.8322067" lon="33.5462537">
<ele>17.08</ele>
<time>2015-05-01T09:11:52Z</time>
</trkpt>
<trkpt lat="34.8321506" lon="33.5461704">
<ele>17.03</ele>
<time>2015-05-01T09:11:54Z</time>
</trkpt>
<trkpt lat="34.8320947" lon="33.5461000">
<ele>17.52</ele>
<time>2015-05-01T09:11:56Z</time>
</trkpt>
<trkpt lat="34.8320488" lon="33.5460220">
<ele>17.14</ele>
<time>2015-05-01T09:11:58Z</time>
</trkpt>
<trkpt lat="34.8319946" lon="33.5459386">
<ele>17.05</ele>
<time>2015-05-01T09:12:00Z</time>
</trkpt>
<trkpt lat="34.8319627" lon="33.5458991">
<ele>16.53</ele>
<time>2015-05-01T09:12:01Z</time>
</trkpt>
<trkpt lat="34.8319048" lon="33.5458210">
<ele>16.39</ele>
<time>2015-05-01T09:12:03Z</time>
</trkpt>
<trkpt lat="34.8318752" lon="33.5457795">
<ele>16.21</ele>
<time>2015-05-01T09:12:04Z</time>
</trkpt>
<trkpt lat="34.8318429" lon="33.5457369">
<ele>16.11</ele>
<time>2015-05-01T09:12:05Z</time>
</trkpt>
<trkpt lat="34.8318044" lon="33.5456950">
<ele>15.56</ele>
<time>2015-05-01T09:12:06Z</time>
</trkpt>
<trkpt lat="34.8317404" lon="33.5456112">
<ele>15.15</ele>
<time>2015-05-01T09:12:08Z</time>
</trkpt>
<trkpt lat="34.8317074" lon="33.5455683">
<ele>15.08</ele>
<time>2015-05-01T09:12:09Z</time>
</trkpt>
<trkpt lat="34.8316750" lon="33.5455257">
<ele>15.05</ele>
<time>2015-05-01T09:12:10Z</time>
</trkpt>
<trkpt lat="34.8316478" lon="33.5454807">
<ele>15.03</ele>
<time>2015-05-01T09:12:11Z</time>
</trkpt>
<trkpt lat="34.8316108" lon="33.5454429">
<ele>15.02</ele>
<time>2015-05-01T09:12:12Z</time>
</trkpt>
<trkpt lat="34.8315786" lon="33.5453938">
<ele>15.02</ele>
<time>2015-05-01T09:12:13Z</time>
</trkpt>
<trkpt lat="34.8315187" lon="33.5453102">
<ele>15.02</ele>
<time>2015-05-01T09:12:15Z</time>
</trkpt>
<trkpt lat="34.8314607" lon="33.5452364">
<ele>15.77</ele>
<time>2015-05-01T09:12:17Z</time>
</trkpt>
<trkpt lat="34.8314141" lon="33.5451722">
<ele>15.95</ele>
<time>2015-05-01T09:12:19Z</time>
</trkpt>
<trkpt lat="34.8313672" lon="33.5451092">
<ele>15.50</ele>
<time>2015-05-01T09:12:21Z</time>
</trkpt>
<trkpt lat="34.8313186" lon="33.5450454">
<ele>15.14</ele>
<time>2015-05-01T09:12:23Z</time>
</trkpt>
<trkpt lat="34.8312729" lon="33.5449755">
<ele>14.55</ele>
<time>2015-05-01T09:12:25Z</time>
</trkpt>
<trkpt lat="34.8312284" lon="33.5449114">
<ele>14.15</ele>
<time>2015-05-01T09:12:27Z</time>
</trkpt>
<trkpt lat="34.8311837" lon="33.5448506">
<ele>14.05</ele>
<time>2015-05-01T09:12:29Z</time>
</trkpt>
<trkpt lat="34.8311443" lon="33.5447918">
<ele>14.77</ele>
<time>2015-05-01T09:12:31Z</time>
</trkpt>
<trkpt lat="34.8310961" lon="33.5447361">
<ele>14.96</ele>
<time>2015-05-01T09:12:33Z</time>
</trkpt>
<trkpt lat="34.8310399" lon="33.5446757">
<ele>15.00</ele>
<time>2015-05-01T09:12:35Z</time>
</trkpt>
<trkpt lat="34.8309813" lon="33.5445988">
<ele>15.01</ele>
<time>2015-05-01T09:12:37Z</time>
</trkpt>
<trkpt lat="34.8309196" lon="33.5445137">
<ele>15.02</ele>
<time>2015-05-01T09:12:39Z</time>
</trkpt>
<trkpt lat="34.8308877" lon="33.5444702">
<ele>15.02</ele>
<time>2015-05-01T09:12:40Z</time>
</trkpt>
<trkpt lat="34.8308506" lon="33.5444220">
<ele>15.02</ele>
<time>2015-05-01T09:12:41Z</time>
</trkpt>
<trkpt lat="34.8308168" lon="33.5443793">
<ele>15.02</ele>
<time>2015-05-01T09:12:42Z</time>
</trkpt>
<trkpt lat="34.8307765" lon="33.5443318">
<ele>14.52</ele>
<time>2015-05-01T09:12:43Z</time>
</trkpt>
<trkpt lat="34.8307414" lon="33.5442853">
<ele>14.27</ele>
<time>2015-05-01T09:12:44Z</time>
</trkpt>
<trkpt lat="34.8307058" lon="33.5442381">
<ele>14.64</ele>
<time>2015-05-01T09:12:45Z</time>
</trkpt>
<trkpt lat="34.8306754" lon="33.5441933">
<ele>14.83</ele>
<time>2015-05-01T09:12:46Z</time>
</trkpt>
<trkpt lat="34.8306435" lon="33.5441476">
<ele>14.92</ele>
<time>2015-05-01T09:12:47Z</time>
</trkpt>
<trkpt lat="34.8306154" lon="33.5440980">
<ele>14.97</ele>
<time>2015-05-01T09:12:48Z</time>
</trkpt>
<trkpt lat="34.8305809" lon="33.5440544">
<ele>14.99</ele>
<time>2015-05-01T09:12:49Z</time>
</trkpt>
<trkpt lat="34.8305517" lon="33.5440087">
<ele>15.00</ele>
<time>2015-05-01T09:12:50Z</time>
</trkpt>
<trkpt lat="34.8304958" lon="33.5439319">
<ele>15.01</ele>
<time>2015-05-01T09:12:52Z</time>
</trkpt>
<trkpt lat="34.8304429" lon="33.5438519">
<ele>15.02</ele>
<time>2015-05-01T09:12:54Z</time>
</trkpt>
<trkpt lat="34.8303902" lon="33.5437884">
<ele>15.02</ele>
<time>2015-05-01T09:12:56Z</time>
</trkpt>
<trkpt lat="34.8303393" lon="33.5437140">
<ele>15.77</ele>
<time>2015-05-01T09:12:58Z</time>
</trkpt>
<trkpt lat="34.8302760" lon="33.5436343">
<ele>15.45</ele>
<time>2015-05-01T09:13:00Z</time>
</trkpt>
<trkpt lat="34.8302446" lon="33.5435930">
<ele>15.23</ele>
<time>2015-05-01T09:13:01Z</time>
</trkpt>
<trkpt lat="34.8301828" lon="33.5435127">
<ele>15.07</ele>
<time>2015-05-01T09:13:03Z</time>
</trkpt>
<trkpt lat="34.8301467" lon="33.5434712">
<ele>15.04</ele>
<time>2015-05-01T09:13:04Z</time>
</trkpt>
<trkpt lat="34.8301139" lon="33.5434322">
<ele>15.03</ele>
<time>2015-05-01T09:13:05Z</time>
</trkpt>
<trkpt lat="34.8300790" lon="33.5433890">
<ele>15.02</ele>
<time>2015-05-01T09:13:06Z</time>
</trkpt>
<trkpt lat="34.8300169" lon="33.5432983">
<ele>15.02</ele>
<time>2015-05-01T09:13:08Z</time>
</trkpt>
<trkpt lat="34.8299851" lon="33.5432584">
<ele>15.52</ele>
<time>2015-05-01T09:13:09Z</time>
</trkpt>
<trkpt lat="34.8299522" lon="33.5432143">
<ele>15.77</ele>
<time>2015-05-01T09:13:10Z</time>
</trkpt>
<trkpt lat="34.8298899" lon="33.5431369">
<ele>15.95</ele>
<time>2015-05-01T09:13:12Z</time>
</trkpt>
<trkpt lat="34.8298569" lon="33.5430950">
<ele>15.98</ele>
<time>2015-05-01T09:13:13Z</time>
</trkpt>
<trkpt lat="34.8298267" lon="33.5430538">
<ele>16.00</ele>
<time>2015-05-01T09:13:14Z</time>
</trkpt>
<trkpt lat="34.8297946" lon="33.5430098">
<ele>16.01</ele>
<time>2015-05-01T09:13:15Z</time>
</trkpt>
<trkpt lat="34.8297616" lon="33.5429625">
<ele>16.01</ele>
<time>2015-05-01T09:13:16Z</time>
</trkpt>
<trkpt lat="34.8297318" lon="33.5429160">
<ele>15.51</ele>
<time>2015-05-01T09:13:17Z</time>
</trkpt>
<trkpt lat="34.8296970" lon="33.5428677">
<ele>15.27</ele>
<time>2015-05-01T09:13:18Z</time>
</trkpt>
<trkpt lat="34.8296616" lon="33.5428259">
<ele>15.14</ele>
<time>2015-05-01T09:13:19Z</time>
</trkpt>
<trkpt lat="34.8296275" lon="33.5427772">
<ele>15.08</ele>
<time>2015-05-01T09:13:20Z</time>
</trkpt>
<trkpt lat="34.8295938" lon="33.5427369">
<ele>15.05</ele>
<time>2015-05-01T09:13:21Z</time>
</trkpt>
<trkpt lat="34.8295370" lon="33.5426634">
<ele>15.02</ele>
<time>2015-05-01T09:13:23Z</time>
</trkpt>
<trkpt lat="34.8294783" lon="33.5425820">
<ele>15.02</ele>
<time>2015-05-01T09:13:25Z</time>
</trkpt>
<trkpt lat="34.8294169" lon="33.5425109">
<ele>15.52</ele>
<time>2015-05-01T09:13:27Z</time>
</trkpt>
<trkpt lat="34.8293857" lon="33.5424703">
<ele>15.77</ele>
<time>2015-05-01T09:13:28Z</time>
</trkpt>
<trkpt lat="34.8293274" lon="33.5423883">
<ele>15.95</ele>
<time>2015-05-01T09:13:30Z</time>
</trkpt>
<trkpt lat="34.8293016" lon="33.5423416">
<ele>15.98</ele>
<time>2015-05-01T09:13:31Z</time>
</trkpt>
<trkpt lat="34.8292699" lon="33.5422987">
<ele>16.00</ele>
<time>2015-05-01T09:13:32Z</time>
</trkpt>
<trkpt lat="34.8292403" lon="33.5422563">
<ele>16.51</ele>
<time>2015-05-01T09:13:33Z</time>
</trkpt>
<trkpt lat="34.8292083" lon="33.5422150">
<ele>16.76</ele>
<time>2015-05-01T09:13:34Z</time>
</trkpt>
<trkpt lat="34.8291490" lon="33.5421365">
<ele>16.95</ele>
<time>2015-05-01T09:13:36Z</time>
</trkpt>
<trkpt lat="34.8291188" lon="33.5420958">
<ele>16.98</ele>
<time>2015-05-01T09:13:37Z</time>
</trkpt>
<trkpt lat="34.8290897" lon="33.5420510">
<ele>17.00</ele>
<time>2015-05-01T09:13:38Z</time>
</trkpt>
<trkpt lat="34.8290603" lon="33.5420084">
<ele>17.01</ele>
<time>2015-05-01T09:13:39Z</time>
</trkpt>
<trkpt lat="34.8289972" lon="33.5419307">
<ele>17.01</ele>
<time>2015-05-01T09:13:41Z</time>
</trkpt>
<trkpt lat="34.8289658" lon="33.5418891">
<ele>17.02</ele>
<time>2015-05-01T09:13:42Z</time>
</trkpt>
<trkpt lat="34.8289029" lon="33.5418041">
<ele>17.02</ele>
<time>2015-05-01T09:13:44Z</time>
</trkpt>
<trkpt lat="34.8288659" lon="33.5417590">
<ele>17.02</ele>
<time>2015-05-01T09:13:45Z</time>
</trkpt>
<trkpt lat="34.8288307" lon="33.5417131">
<ele>17.02</ele>
<time>2015-05-01T09:13:46Z</time>
</trkpt>
<trkpt lat="34.8287978" lon="33.5416678">
<ele>17.02</ele>
<time>2015-05-01T09:13:47Z</time>
</trkpt>
<trkpt lat="34.8287637" lon="33.5416210">
<ele>17.02</ele>
<time>2015-05-01T09:13:48Z</time>
</trkpt>
<trkpt lat="34.8287246" lon="33.5415702">
<ele>17.02</ele>
<time>2015-05-01T09:13:49Z</time>
</trkpt>
<trkpt lat="34.8286893" lon="33.5415255">
<ele>17.02</ele>
<time>2015-05-01T09:13:50Z</time>
</trkpt>
<trkpt lat="34.8286581" lon="33.5414807">
<ele>17.02</ele>
<time>2015-05-01T09:13:51Z</time>
</trkpt>
<trkpt lat="34.8286258" lon="33.5414321">
<ele>17.02</ele>
<time>2015-05-01T09:13:52Z</time>
</trkpt>
<trkpt lat="34.8285915" lon="33.5413882">
<ele>17.02</ele>
<time>2015-05-01T09:13:53Z</time>
</trkpt>
<trkpt lat="34.8285363" lon="33.5413183">
<ele>16.52</ele>
<time>2015-05-01T09:13:55Z</time>
</trkpt>
<trkpt lat="34.8284842" lon="33.5412433">
<ele>16.64</ele>
<time>2015-05-01T09:13:57Z</time>
</trkpt>
<trkpt lat="34.8284410" lon="33.5411781">
<ele>16.92</ele>
<time>2015-05-01T09:13:59Z</time>
</trkpt>
<trkpt lat="34.8284050" lon="33.5411200">
<ele>16.99</ele>
<time>2015-05-01T09:14:01Z</time>
</trkpt>
<trkpt lat="34.8283670" lon="33.5410627">
<ele>17.01</ele>
<time>2015-05-01T09:14:03Z</time>
</trkpt>
<trkpt lat="34.8283178" lon="33.5410001">
<ele>17.01</ele>
<time>2015-05-01T09:14:05Z</time>
</trkpt>
<trkpt lat="34.8282632" lon="33.5409316">
<ele>17.02</ele>
<time>2015-05-01T09:14:07Z</time>
</trkpt>
<trkpt lat="34.8282051" lon="33.5408552">
<ele>17.02</ele>
<time>2015-05-01T09:14:09Z</time>
</trkpt>
<trkpt lat="34.8281512" lon="33.5407773">
<ele>17.02</ele>
<time>2015-05-01T09:14:11Z</time>
</trkpt>
<trkpt lat="34.8280933" lon="33.5406970">
<ele>17.02</ele>
<time>2015-05-01T09:14:13Z</time>
</trkpt>
<trkpt lat="34.8280584" lon="33.5406484">
<ele>17.02</ele>
<time>2015-05-01T09:14:14Z</time>
</trkpt>
<trkpt lat="34.8279952" lon="33.5405642">
<ele>17.02</ele>
<time>2015-05-01T09:14:16Z</time>
</trkpt>
<trkpt lat="34.8279636" lon="33.5405236">
<ele>17.02</ele>
<time>2015-05-01T09:14:17Z</time>
</trkpt>
<trkpt lat="34.8279323" lon="33.5404802">
<ele>17.02</ele>
<time>2015-05-01T09:14:18Z</time>
</trkpt>
<trkpt lat="34.8278960" lon="33.5404416">
<ele>17.52</ele>
<time>2015-05-01T09:14:19Z</time>
</trkpt>
<trkpt lat="34.8278622" lon="33.5403980">
<ele>17.77</ele>
<time>2015-05-01T09:14:20Z</time>
</trkpt>
<trkpt lat="34.8278284" lon="33.5403512">
<ele>17.39</ele>
<time>2015-05-01T09:14:21Z</time>
</trkpt>
<trkpt lat="34.8277919" lon="33.5403073">
<ele>17.20</ele>
<time>2015-05-01T09:14:22Z</time>
</trkpt>
<trkpt lat="34.8277628" lon="33.5402586">
<ele>17.11</ele>
<time>2015-05-01T09:14:23Z</time>
</trkpt>
<trkpt lat="34.8277268" lon="33.5402104">
<ele>17.06</ele>
<time>2015-05-01T09:14:24Z</time>
</trkpt>
<trkpt lat="34.8276942" lon="33.5401637">
<ele>17.04</ele>
<time>2015-05-01T09:14:25Z</time>
</trkpt>
<trkpt lat="34.8276601" lon="33.5401182">
<ele>17.03</ele>
<time>2015-05-01T09:14:26Z</time>
</trkpt>
<trkpt lat="34.8276324" lon="33.5400731">
<ele>17.02</ele>
<time>2015-05-01T09:14:27Z</time>
</trkpt>
<trkpt lat="34.8275992" lon="33.5400322">
<ele>17.02</ele>
<time>2015-05-01T09:14:28Z</time>
</trkpt>
<trkpt lat="34.8275599" lon="33.5399950">
<ele>16.52</ele>
<time>2015-05-01T09:14:29Z</time>
</trkpt>
<trkpt lat="34.8275021" lon="33.5399128">
<ele>16.64</ele>
<time>2015-05-01T09:14:31Z</time>
</trkpt>
<trkpt lat="34.8274688" lon="33.5398676">
<ele>16.83</ele>
<time>2015-05-01T09:14:32Z</time>
</trkpt>
<trkpt lat="34.8274357" lon="33.5398237">
<ele>16.92</ele>
<time>2015-05-01T09:14:33Z</time>
</trkpt>
<trkpt lat="34.8274048" lon="33.5397813">
<ele>16.97</ele>
<time>2015-05-01T09:14:34Z</time>
</trkpt>
<trkpt lat="34.8273441" lon="33.5396997">
<ele>16.50</ele>
<time>2015-05-01T09:14:36Z</time>
</trkpt>
<trkpt lat="34.8273106" lon="33.5396569">
<ele>16.26</ele>
<time>2015-05-01T09:14:37Z</time>
</trkpt>
<trkpt lat="34.8272504" lon="33.5395799">
<ele>16.58</ele>
<time>2015-05-01T09:14:39Z</time>
</trkpt>
<trkpt lat="34.8272181" lon="33.5395372">
<ele>16.30</ele>
<time>2015-05-01T09:14:40Z</time>
</trkpt>
<trkpt lat="34.8271925" lon="33.5394912">
<ele>16.16</ele>
<time>2015-05-01T09:14:41Z</time>
</trkpt>
<trkpt lat="34.8271589" lon="33.5394466">
<ele>16.09</ele>
<time>2015-05-01T09:14:42Z</time>
</trkpt>
<trkpt lat="34.8271318" lon="33.5394021">
<ele>16.05</ele>
<time>2015-05-01T09:14:43Z</time>
</trkpt>
<trkpt lat="34.8271000" lon="33.5393576">
<ele>16.03</ele>
<time>2015-05-01T09:14:44Z</time>
</trkpt>
<trkpt lat="34.8270637" lon="33.5393166">
<ele>15.52</ele>
<time>2015-05-01T09:14:45Z</time>
</trkpt>
<trkpt lat="34.8270261" lon="33.5392768">
<ele>15.77</ele>
<time>2015-05-01T09:14:46Z</time>
</trkpt>
<trkpt lat="34.8269968" lon="33.5392267">
<ele>15.89</ele>
<time>2015-05-01T09:14:47Z</time>
</trkpt>
<trkpt lat="34.8269604" lon="33.5391815">
<ele>15.95</ele>
<time>2015-05-01T09:14:48Z</time>
</trkpt>
<trkpt lat="34.8269270" lon="33.5391378">
<ele>15.99</ele>
<time>2015-05-01T09:14:49Z</time>
</trkpt>
<trkpt lat="34.8268917" lon="33.5390857">
<ele>16.00</ele>
<time>2015-05-01T09:14:50Z</time>
</trkpt>
<trkpt lat="34.8268587" lon="33.5390423">
<ele>16.01</ele>
<time>2015-05-01T09:14:51Z</time>
</trkpt>
<trkpt lat="34.8268245" lon="33.5389954">
<ele>16.01</ele>
<time>2015-05-01T09:14:52Z</time>
</trkpt>
<trkpt lat="34.8267935" lon="33.5389540">
<ele>16.01</ele>
<time>2015-05-01T09:14:53Z</time>
</trkpt>
<trkpt lat="34.8267581" lon="33.5389094">
<ele>16.02</ele>
<time>2015-05-01T09:14:54Z</time>
</trkpt>
<trkpt lat="34.8267260" lon="33.5388568">
<ele>16.02</ele>
<time>2015-05-01T09:14:55Z</time>
</trkpt>
<trkpt lat="34.8266878" lon="33.5388100">
<ele>15.52</ele>
<time>2015-05-01T09:14:56Z</time>
</trkpt>
<trkpt lat="34.8266520" lon="33.5387639">
<ele>15.27</ele>
<time>2015-05-01T09:14:57Z</time>
</trkpt>
<trkpt lat="34.8266170" lon="33.5387167">
<ele>15.14</ele>
<time>2015-05-01T09:14:58Z</time>
</trkpt>
<trkpt lat="34.8265846" lon="33.5386673">
<ele>15.58</ele>
<time>2015-05-01T09:14:59Z</time>
</trkpt>
<trkpt lat="34.8265445" lon="33.5386158">
<ele>15.30</ele>
<time>2015-05-01T09:15:00Z</time>
</trkpt>
<trkpt lat="34.8265080" lon="33.5385692">
<ele>15.16</ele>
<time>2015-05-01T09:15:01Z</time>
</trkpt>
<trkpt lat="34.8264726" lon="33.5385216">
<ele>15.09</ele>
<time>2015-05-01T09:15:02Z</time>
</trkpt>
<trkpt lat="34.8264388" lon="33.5384749">
<ele>15.05</ele>
<time>2015-05-01T09:15:03Z</time>
</trkpt>
<trkpt lat="34.8263997" lon="33.5384282">
<ele>15.03</ele>
<time>2015-05-01T09:15:04Z</time>
</trkpt>
<trkpt lat="34.8263620" lon="33.5383783">
<ele>15.02</ele>
<time>2015-05-01T09:15:05Z</time>
</trkpt>
<trkpt lat="34.8263282" lon="33.5383299">
<ele>15.02</ele>
<time>2015-05-01T09:15:06Z</time>
</trkpt>
<trkpt lat="34.8262948" lon="33.5382826">
<ele>15.02</ele>
<time>2015-05-01T09:15:07Z</time>
</trkpt>
<trkpt lat="34.8262608" lon="33.5382312">
<ele>15.02</ele>
<time>2015-05-01T09:15:08Z</time>
</trkpt>
<trkpt lat="34.8262283" lon="33.5381862">
<ele>15.02</ele>
<time>2015-05-01T09:15:09Z</time>
</trkpt>
<trkpt lat="34.8261889" lon="33.5381385">
<ele>15.02</ele>
<time>2015-05-01T09:15:10Z</time>
</trkpt>
<trkpt lat="34.8261577" lon="33.5380920">
<ele>15.02</ele>
<time>2015-05-01T09:15:11Z</time>
</trkpt>
<trkpt lat="34.8261225" lon="33.5380453">
<ele>15.02</ele>
<time>2015-05-01T09:15:12Z</time>
</trkpt>
<trkpt lat="34.8260595" lon="33.5379608">
<ele>15.02</ele>
<time>2015-05-01T09:15:14Z</time>
</trkpt>
<trkpt lat="34.8260280" lon="33.5379185">
<ele>15.02</ele>
<time>2015-05-01T09:15:15Z</time>
</trkpt>
<trkpt lat="34.8259918" lon="33.5378764">
<ele>15.02</ele>
<time>2015-05-01T09:15:16Z</time>
</trkpt>
<trkpt lat="34.8259601" lon="33.5378354">
<ele>15.02</ele>
<time>2015-05-01T09:15:17Z</time>
</trkpt>
<trkpt lat="34.8258983" lon="33.5377587">
<ele>15.02</ele>
<time>2015-05-01T09:15:19Z</time>
</trkpt>
<trkpt lat="34.8258646" lon="33.5377178">
<ele>15.52</ele>
<time>2015-05-01T09:15:20Z</time>
</trkpt>
<trkpt lat="34.8258340" lon="33.5376740">
<ele>15.77</ele>
<time>2015-05-01T09:15:21Z</time>
</trkpt>
<trkpt lat="34.8258007" lon="33.5376334">
<ele>15.89</ele>
<time>2015-05-01T09:15:22Z</time>
</trkpt>
<trkpt lat="34.8257724" lon="33.5375893">
<ele>15.95</ele>
<time>2015-05-01T09:15:23Z</time>
</trkpt>
<trkpt lat="34.8257449" lon="33.5375359">
<ele>15.98</ele>
<time>2015-05-01T09:15:24Z</time>
</trkpt>
<trkpt lat="34.8257150" lon="33.5374946">
<ele>15.50</ele>
<time>2015-05-01T09:15:25Z</time>
</trkpt>
<trkpt lat="34.8256832" lon="33.5374540">
<ele>15.26</ele>
<time>2015-05-01T09:15:26Z</time>
</trkpt>
<trkpt lat="34.8256200" lon="33.5373760">
<ele>15.08</ele>
<time>2015-05-01T09:15:28Z</time>
</trkpt>
<trkpt lat="34.8255880" lon="33.5373373">
<ele>15.05</ele>
<time>2015-05-01T09:15:29Z</time>
</trkpt>
<trkpt lat="34.8255281" lon="33.5372616">
<ele>15.02</ele>
<time>2015-05-01T09:15:31Z</time>
</trkpt>
<trkpt lat="34.8254983" lon="33.5372181">
<ele>15.02</ele>
<time>2015-05-01T09:15:32Z</time>
</trkpt>
<trkpt lat="34.8254675" lon="33.5371769">
<ele>15.52</ele>
<time>2015-05-01T09:15:33Z</time>
</trkpt>
<trkpt lat="34.8254133" lon="33.5371039">
<ele>15.89</ele>
<time>2015-05-01T09:15:35Z</time>
</trkpt>
<trkpt lat="34.8253498" lon="33.5370274">
<ele>15.98</ele>
<time>2015-05-01T09:15:37Z</time>
</trkpt>
<trkpt lat="34.8252977" lon="33.5369516">
<ele>16.01</ele>
<time>2015-05-01T09:15:39Z</time>
</trkpt>
<trkpt lat="34.8252417" lon="33.5368678">
<ele>16.01</ele>
<time>2015-05-01T09:15:41Z</time>
</trkpt>
<trkpt lat="34.8251853" lon="33.5367961">
<ele>16.02</ele>
<time>2015-05-01T09:15:43Z</time>
</trkpt>
<trkpt lat="34.8251265" lon="33.5367203">
<ele>16.02</ele>
<time>2015-05-01T09:15:45Z</time>
</trkpt>
<trkpt lat="34.8250700" lon="33.5366467">
<ele>16.02</ele>
<time>2015-05-01T09:15:47Z</time>
</trkpt>
<trkpt lat="34.8250120" lon="33.5365737">
<ele>16.02</ele>
<time>2015-05-01T09:15:49Z</time>
</trkpt>
<trkpt lat="34.8249596" lon="33.5365003">
<ele>16.02</ele>
<time>2015-05-01T09:15:51Z</time>
</trkpt>
<trkpt lat="34.8249037" lon="33.5364256">
<ele>16.52</ele>
<time>2015-05-01T09:15:53Z</time>
</trkpt>
<trkpt lat="34.8248529" lon="33.5363557">
<ele>16.89</ele>
<time>2015-05-01T09:15:55Z</time>
</trkpt>
<trkpt lat="34.8248009" lon="33.5362846">
<ele>17.73</ele>
<time>2015-05-01T09:15:57Z</time>
</trkpt>
<trkpt lat="34.8247497" lon="33.5362170">
<ele>17.95</ele>
<time>2015-05-01T09:15:59Z</time>
</trkpt>
<trkpt lat="34.8246967" lon="33.5361480">
<ele>17.50</ele>
<time>2015-05-01T09:16:01Z</time>
</trkpt>
<trkpt lat="34.8246442" lon="33.5360836">
<ele>17.64</ele>
<time>2015-05-01T09:16:03Z</time>
</trkpt>
<trkpt lat="34.8245921" lon="33.5360141">
<ele>17.92</ele>
<time>2015-05-01T09:16:05Z</time>
</trkpt>
<trkpt lat="34.8245397" lon="33.5359483">
<ele>17.99</ele>
<time>2015-05-01T09:16:07Z</time>
</trkpt>
<trkpt lat="34.8244841" lon="33.5358783">
<ele>18.01</ele>
<time>2015-05-01T09:16:09Z</time>
</trkpt>
<trkpt lat="34.8244338" lon="33.5358088">
<ele>18.01</ele>
<time>2015-05-01T09:16:11Z</time>
</trkpt>
<trkpt lat="34.8243808" lon="33.5357403">
<ele>18.52</ele>
<time>2015-05-01T09:16:13Z</time>
</trkpt>
<trkpt lat="34.8243307" lon="33.5356735">
<ele>18.89</ele>
<time>2015-05-01T09:16:15Z</time>
</trkpt>
<trkpt lat="34.8242807" lon="33.5356050">
<ele>18.98</ele>
<time>2015-05-01T09:16:17Z</time>
</trkpt>
<trkpt lat="34.8242336" lon="33.5355402">
<ele>19.76</ele>
<time>2015-05-01T09:16:19Z</time>
</trkpt>
<trkpt lat="34.8241882" lon="33.5354798">
<ele>19.95</ele>
<time>2015-05-01T09:16:21Z</time>
</trkpt>
<trkpt lat="34.8241427" lon="33.5354203">
<ele>20.00</ele>
<time>2015-05-01T09:16:23Z</time>
</trkpt>
<trkpt lat="34.8240945" lon="33.5353557">
<ele>20.76</ele>
<time>2015-05-01T09:16:25Z</time>
</trkpt>
<trkpt lat="34.8240463" lon="33.5352916">
<ele>20.95</ele>
<time>2015-05-01T09:16:27Z</time>
</trkpt>
<trkpt lat="34.8239962" lon="33.5352312">
<ele>21.50</ele>
<time>2015-05-01T09:16:29Z</time>
</trkpt>
<trkpt lat="34.8239555" lon="33.5351794">
<ele>21.89</ele>
<time>2015-05-01T09:16:31Z</time>
</trkpt>
<trkpt lat="34.8239115" lon="33.5351188">
<ele>21.98</ele>
<time>2015-05-01T09:16:33Z</time>
</trkpt>
<trkpt lat="34.8238661" lon="33.5350596">
<ele>22.01</ele>
<time>2015-05-01T09:16:35Z</time>
</trkpt>
<trkpt lat="34.8238194" lon="33.5349969">
<ele>22.01</ele>
<time>2015-05-01T09:16:37Z</time>
</trkpt>
<trkpt lat="34.8237733" lon="33.5349328">
<ele>22.02</ele>
<time>2015-05-01T09:16:39Z</time>
</trkpt>
<trkpt lat="34.8237234" lon="33.5348639">
<ele>22.02</ele>
<time>2015-05-01T09:16:41Z</time>
</trkpt>
<trkpt lat="34.8236730" lon="33.5348014">
<ele>22.02</ele>
<time>2015-05-01T09:16:43Z</time>
</trkpt>
<trkpt lat="34.8236256" lon="33.5347379">
<ele>22.27</ele>
<time>2015-05-01T09:16:45Z</time>
</trkpt>
<trkpt lat="34.8235797" lon="33.5346752">
<ele>22.08</ele>
<time>2015-05-01T09:16:47Z</time>
</trkpt>
<trkpt lat="34.8235284" lon="33.5346048">
<ele>22.03</ele>
<time>2015-05-01T09:16:49Z</time>
</trkpt>
<trkpt lat="34.8234761" lon="33.5345343">
<ele>22.02</ele>
<time>2015-05-01T09:16:51Z</time>
</trkpt>
<trkpt lat="34.8234203" lon="33.5344624">
<ele>22.02</ele>
<time>2015-05-01T09:16:53Z</time>
</trkpt>
<trkpt lat="34.8233674" lon="33.5343935">
<ele>22.02</ele>
<time>2015-05-01T09:16:55Z</time>
</trkpt>
<trkpt lat="34.8233152" lon="33.5343205">
<ele>22.02</ele>
<time>2015-05-01T09:16:57Z</time>
</trkpt>
<trkpt lat="34.8232682" lon="33.5342565">
<ele>22.02</ele>
<time>2015-05-01T09:16:59Z</time>
</trkpt>
<trkpt lat="34.8232220" lon="33.5342183">
<ele>22.02</ele>
<time>2015-05-01T09:17:33Z</time>
</trkpt>
<trkpt lat="34.8231830" lon="33.5341656">
<ele>22.02</ele>
<time>2015-05-01T09:17:35Z</time>
</trkpt>
<trkpt lat="34.8231305" lon="33.5340960">
<ele>22.02</ele>
<time>2015-05-01T09:17:37Z</time>
</trkpt>
<trkpt lat="34.8230775" lon="33.5340191">
<ele>21.52</ele>
<time>2015-05-01T09:17:39Z</time>
</trkpt>
<trkpt lat="34.8230280" lon="33.5339385">
<ele>21.89</ele>
<time>2015-05-01T09:17:41Z</time>
</trkpt>
<trkpt lat="34.8229744" lon="33.5338650">
<ele>21.98</ele>
<time>2015-05-01T09:17:43Z</time>
</trkpt>
<trkpt lat="34.8229161" lon="33.5337925">
<ele>22.01</ele>
<time>2015-05-01T09:17:45Z</time>
</trkpt>
<trkpt lat="34.8228631" lon="33.5337201">
<ele>22.51</ele>
<time>2015-05-01T09:17:47Z</time>
</trkpt>
<trkpt lat="34.8228066" lon="33.5336487">
<ele>22.89</ele>
<time>2015-05-01T09:17:49Z</time>
</trkpt>
<trkpt lat="34.8227523" lon="33.5335794">
<ele>22.98</ele>
<time>2015-05-01T09:17:51Z</time>
</trkpt>
<trkpt lat="34.8226982" lon="33.5335035">
<ele>23.01</ele>
<time>2015-05-01T09:17:53Z</time>
</trkpt>
<trkpt lat="34.8226420" lon="33.5334307">
<ele>23.26</ele>
<time>2015-05-01T09:17:55Z</time>
</trkpt>
<trkpt lat="34.8225828" lon="33.5333558">
<ele>23.08</ele>
<time>2015-05-01T09:17:57Z</time>
</trkpt>
<trkpt lat="34.8225275" lon="33.5332822">
<ele>23.03</ele>
<time>2015-05-01T09:17:59Z</time>
</trkpt>
<trkpt lat="34.8224703" lon="33.5332047">
<ele>23.02</ele>
<time>2015-05-01T09:18:01Z</time>
</trkpt>
<trkpt lat="34.8224153" lon="33.5331309">
<ele>23.52</ele>
<time>2015-05-01T09:18:03Z</time>
</trkpt>
<trkpt lat="34.8223566" lon="33.5330602">
<ele>23.89</ele>
<time>2015-05-01T09:18:05Z</time>
</trkpt>
<trkpt lat="34.8223023" lon="33.5329904">
<ele>23.98</ele>
<time>2015-05-01T09:18:07Z</time>
</trkpt>
<trkpt lat="34.8222449" lon="33.5329198">
<ele>24.01</ele>
<time>2015-05-01T09:18:09Z</time>
</trkpt>
<trkpt lat="34.8221917" lon="33.5328516">
<ele>24.01</ele>
<time>2015-05-01T09:18:11Z</time>
</trkpt>
<trkpt lat="34.8221407" lon="33.5327780">
<ele>24.02</ele>
<time>2015-05-01T09:18:13Z</time>
</trkpt>
<trkpt lat="34.8220899" lon="33.5327095">
<ele>24.02</ele>
<time>2015-05-01T09:18:15Z</time>
</trkpt>
<trkpt lat="34.8220359" lon="33.5326390">
<ele>24.02</ele>
<time>2015-05-01T09:18:17Z</time>
</trkpt>
<trkpt lat="34.8219825" lon="33.5325690">
<ele>24.02</ele>
<time>2015-05-01T09:18:19Z</time>
</trkpt>
<trkpt lat="34.8219281" lon="33.5324950">
<ele>24.02</ele>
<time>2015-05-01T09:18:21Z</time>
</trkpt>
<trkpt lat="34.8218734" lon="33.5324218">
<ele>24.02</ele>
<time>2015-05-01T09:18:23Z</time>
</trkpt>
<trkpt lat="34.8218149" lon="33.5323476">
<ele>24.02</ele>
<time>2015-05-01T09:18:25Z</time>
</trkpt>
<trkpt lat="34.8217563" lon="33.5322770">
<ele>24.02</ele>
<time>2015-05-01T09:18:27Z</time>
</trkpt>
<trkpt lat="34.8216967" lon="33.5322017">
<ele>24.02</ele>
<time>2015-05-01T09:18:29Z</time>
</trkpt>
<trkpt lat="34.8216391" lon="33.5321279">
<ele>24.02</ele>
<time>2015-05-01T09:18:31Z</time>
</trkpt>
<trkpt lat="34.8215802" lon="33.5320515">
<ele>24.02</ele>
<time>2015-05-01T09:18:33Z</time>
</trkpt>
<trkpt lat="34.8215231" lon="33.5319772">
<ele>24.02</ele>
<time>2015-05-01T09:18:35Z</time>
</trkpt>
<trkpt lat="34.8214643" lon="33.5319000">
<ele>24.02</ele>
<time>2015-05-01T09:18:37Z</time>
</trkpt>
<trkpt lat="34.8214068" lon="33.5318235">
<ele>24.02</ele>
<time>2015-05-01T09:18:39Z</time>
</trkpt>
<trkpt lat="34.8213452" lon="33.5317410">
<ele>24.02</ele>
<time>2015-05-01T09:18:41Z</time>
</trkpt>
<trkpt lat="34.8213111" lon="33.5316925">
<ele>24.02</ele>
<time>2015-05-01T09:18:42Z</time>
</trkpt>
<trkpt lat="34.8212505" lon="33.5316131">
<ele>24.02</ele>
<time>2015-05-01T09:18:44Z</time>
</trkpt>
<trkpt lat="34.8212204" lon="33.5315722">
<ele>24.02</ele>
<time>2015-05-01T09:18:45Z</time>
</trkpt>
<trkpt lat="34.8211646" lon="33.5314937">
<ele>24.02</ele>
<time>2015-05-01T09:18:47Z</time>
</trkpt>
<trkpt lat="34.8211338" lon="33.5314507">
<ele>24.02</ele>
<time>2015-05-01T09:18:48Z</time>
</trkpt>
<trkpt lat="34.8211057" lon="33.5314058">
<ele>24.02</ele>
<time>2015-05-01T09:18:49Z</time>
</trkpt>
<trkpt lat="34.8210762" lon="33.5313604">
<ele>24.02</ele>
<time>2015-05-01T09:18:50Z</time>
</trkpt>
<trkpt lat="34.8210450" lon="33.5313191">
<ele>24.02</ele>
<time>2015-05-01T09:18:51Z</time>
</trkpt>
<trkpt lat="34.8210105" lon="33.5312811">
<ele>24.02</ele>
<time>2015-05-01T09:18:52Z</time>
</trkpt>
<trkpt lat="34.8209499" lon="33.5312050">
<ele>24.02</ele>
<time>2015-05-01T09:18:54Z</time>
</trkpt>
<trkpt lat="34.8209180" lon="33.5311629">
<ele>24.02</ele>
<time>2015-05-01T09:18:55Z</time>
</trkpt>
<trkpt lat="34.8208874" lon="33.5311177">
<ele>24.02</ele>
<time>2015-05-01T09:18:56Z</time>
</trkpt>
<trkpt lat="34.8208560" lon="33.5310732">
<ele>24.02</ele>
<time>2015-05-01T09:18:57Z</time>
</trkpt>
<trkpt lat="34.8208237" lon="33.5310320">
<ele>24.02</ele>
<time>2015-05-01T09:18:58Z</time>
</trkpt>
<trkpt lat="34.8207888" lon="33.5309890">
<ele>24.02</ele>
<time>2015-05-01T09:18:59Z</time>
</trkpt>
<trkpt lat="34.8207566" lon="33.5309452">
<ele>24.02</ele>
<time>2015-05-01T09:19:00Z</time>
</trkpt>
<trkpt lat="34.8207256" lon="33.5309037">
<ele>24.52</ele>
<time>2015-05-01T09:19:01Z</time>
</trkpt>
<trkpt lat="34.8206880" lon="33.5308608">
<ele>24.77</ele>
<time>2015-05-01T09:19:02Z</time>
</trkpt>
<trkpt lat="34.8206246" lon="33.5307841">
<ele>24.95</ele>
<time>2015-05-01T09:19:04Z</time>
</trkpt>
<trkpt lat="34.8205614" lon="33.5307064">
<ele>25.00</ele>
<time>2015-05-01T09:19:06Z</time>
</trkpt>
<trkpt lat="34.8205260" lon="33.5306657">
<ele>25.01</ele>
<time>2015-05-01T09:19:07Z</time>
</trkpt>
<trkpt lat="34.8204878" lon="33.5306217">
<ele>25.01</ele>
<time>2015-05-01T09:19:08Z</time>
</trkpt>
<trkpt lat="34.8204544" lon="33.5305800">
<ele>25.01</ele>
<time>2015-05-01T09:19:09Z</time>
</trkpt>
<trkpt lat="34.8204224" lon="33.5305385">
<ele>25.02</ele>
<time>2015-05-01T09:19:10Z</time>
</trkpt>
<trkpt lat="34.8203622" lon="33.5304555">
<ele>25.77</ele>
<time>2015-05-01T09:19:12Z</time>
</trkpt>
<trkpt lat="34.8203069" lon="33.5303863">
<ele>25.95</ele>
<time>2015-05-01T09:19:14Z</time>
</trkpt>
<trkpt lat="34.8202519" lon="33.5303107">
<ele>26.00</ele>
<time>2015-05-01T09:19:16Z</time>
</trkpt>
<trkpt lat="34.8202119" lon="33.5302705">
<ele>26.01</ele>
<time>2015-05-01T09:19:17Z</time>
</trkpt>
<trkpt lat="34.8201579" lon="33.5301956">
<ele>25.51</ele>
<time>2015-05-01T09:19:19Z</time>
</trkpt>
<trkpt lat="34.8201248" lon="33.5301570">
<ele>25.27</ele>
<time>2015-05-01T09:19:20Z</time>
</trkpt>
<trkpt lat="34.8200668" lon="33.5300807">
<ele>25.83</ele>
<time>2015-05-01T09:19:22Z</time>
</trkpt>
<trkpt lat="34.8200072" lon="33.5300048">
<ele>25.97</ele>
<time>2015-05-01T09:19:24Z</time>
</trkpt>
<trkpt lat="34.8199478" lon="33.5299298">
<ele>26.50</ele>
<time>2015-05-01T09:19:26Z</time>
</trkpt>
<trkpt lat="34.8198901" lon="33.5298570">
<ele>26.14</ele>
<time>2015-05-01T09:19:28Z</time>
</trkpt>
<trkpt lat="34.8198353" lon="33.5297858">
<ele>26.05</ele>
<time>2015-05-01T09:19:30Z</time>
</trkpt>
<trkpt lat="34.8197819" lon="33.5297125">
<ele>26.02</ele>
<time>2015-05-01T09:19:32Z</time>
</trkpt>
<trkpt lat="34.8197263" lon="33.5296429">
<ele>26.77</ele>
<time>2015-05-01T09:19:34Z</time>
</trkpt>
<trkpt lat="34.8196703" lon="33.5295738">
<ele>27.70</ele>
<time>2015-05-01T09:19:36Z</time>
</trkpt>
<trkpt lat="34.8196160" lon="33.5295033">
<ele>27.94</ele>
<time>2015-05-01T09:19:38Z</time>
</trkpt>
<trkpt lat="34.8195610" lon="33.5294315">
<ele>28.00</ele>
<time>2015-05-01T09:19:40Z</time>
</trkpt>
<trkpt lat="34.8195038" lon="33.5293603">
<ele>28.01</ele>
<time>2015-05-01T09:19:42Z</time>
</trkpt>
<trkpt lat="34.8194474" lon="33.5292855">
<ele>28.01</ele>
<time>2015-05-01T09:19:44Z</time>
</trkpt>
<trkpt lat="34.8193889" lon="33.5292070">
<ele>27.52</ele>
<time>2015-05-01T09:19:46Z</time>
</trkpt>
<trkpt lat="34.8193329" lon="33.5291334">
<ele>27.64</ele>
<time>2015-05-01T09:19:48Z</time>
</trkpt>
<trkpt lat="34.8192786" lon="33.5290614">
<ele>27.67</ele>
<time>2015-05-01T09:19:50Z</time>
</trkpt>
<trkpt lat="34.8192252" lon="33.5289894">
<ele>27.93</ele>
<time>2015-05-01T09:19:52Z</time>
</trkpt>
<trkpt lat="34.8191686" lon="33.5289141">
<ele>27.74</ele>
<time>2015-05-01T09:19:54Z</time>
</trkpt>
<trkpt lat="34.8191111" lon="33.5288389">
<ele>27.95</ele>
<time>2015-05-01T09:19:56Z</time>
</trkpt>
<trkpt lat="34.8190716" lon="33.5287889">
<ele>27.98</ele>
<time>2015-05-01T09:19:57Z</time>
</trkpt>
<trkpt lat="34.8190411" lon="33.5287464">
<ele>28.00</ele>
<time>2015-05-01T09:19:58Z</time>
</trkpt>
<trkpt lat="34.8190078" lon="33.5287066">
<ele>28.01</ele>
<time>2015-05-01T09:19:59Z</time>
</trkpt>
<trkpt lat="34.8189722" lon="33.5286640">
<ele>28.01</ele>
<time>2015-05-01T09:20:00Z</time>
</trkpt>
<trkpt lat="34.8189089" lon="33.5285872">
<ele>28.01</ele>
<time>2015-05-01T09:20:02Z</time>
</trkpt>
<trkpt lat="34.8188450" lon="33.5285074">
<ele>28.02</ele>
<time>2015-05-01T09:20:04Z</time>
</trkpt>
<trkpt lat="34.8188122" lon="33.5284655">
<ele>28.02</ele>
<time>2015-05-01T09:20:05Z</time>
</trkpt>
<trkpt lat="34.8187526" lon="33.5283881">
<ele>28.02</ele>
<time>2015-05-01T09:20:07Z</time>
</trkpt>
<trkpt lat="34.8187166" lon="33.5283546">
<ele>28.02</ele>
<time>2015-05-01T09:20:08Z</time>
</trkpt>
<trkpt lat="34.8186505" lon="33.5282820">
<ele>28.02</ele>
<time>2015-05-01T09:20:10Z</time>
</trkpt>
<trkpt lat="34.8185879" lon="33.5282046">
<ele>28.77</ele>
<time>2015-05-01T09:20:12Z</time>
</trkpt>
<trkpt lat="34.8185532" lon="33.5281657">
<ele>28.89</ele>
<time>2015-05-01T09:20:13Z</time>
</trkpt>
<trkpt lat="34.8185187" lon="33.5281272">
<ele>28.95</ele>
<time>2015-05-01T09:20:14Z</time>
</trkpt>
<trkpt lat="34.8184845" lon="33.5280866">
<ele>28.98</ele>
<time>2015-05-01T09:20:15Z</time>
</trkpt>
<trkpt lat="34.8184516" lon="33.5280480">
<ele>29.00</ele>
<time>2015-05-01T09:20:16Z</time>
</trkpt>
<trkpt lat="34.8183844" lon="33.5279834">
<ele>29.01</ele>
<time>2015-05-01T09:20:18Z</time>
</trkpt>
<trkpt lat="34.8183175" lon="33.5279201">
<ele>29.02</ele>
<time>2015-05-01T09:20:20Z</time>
</trkpt>
<trkpt lat="34.8182513" lon="33.5278520">
<ele>28.77</ele>
<time>2015-05-01T09:20:22Z</time>
</trkpt>
<trkpt lat="34.8181827" lon="33.5277829">
<ele>28.95</ele>
<time>2015-05-01T09:20:24Z</time>
</trkpt>
<trkpt lat="34.8181136" lon="33.5277129">
<ele>28.25</ele>
<time>2015-05-01T09:20:26Z</time>
</trkpt>
<trkpt lat="34.8180463" lon="33.5276418">
<ele>28.07</ele>
<time>2015-05-01T09:20:28Z</time>
</trkpt>
<trkpt lat="34.8180103" lon="33.5276086">
<ele>28.05</ele>
<time>2015-05-01T09:20:29Z</time>
</trkpt>
<trkpt lat="34.8179412" lon="33.5275413">
<ele>28.02</ele>
<time>2015-05-01T09:20:31Z</time>
</trkpt>
<trkpt lat="34.8178770" lon="33.5274767">
<ele>28.02</ele>
<time>2015-05-01T09:20:33Z</time>
</trkpt>
<trkpt lat="34.8178226" lon="33.5274236">
<ele>28.02</ele>
<time>2015-05-01T09:20:35Z</time>
</trkpt>
<trkpt lat="34.8177652" lon="33.5273698">
<ele>28.02</ele>
<time>2015-05-01T09:20:37Z</time>
</trkpt>
<trkpt lat="34.8177126" lon="33.5273144">
<ele>28.02</ele>
<time>2015-05-01T09:20:39Z</time>
</trkpt>
<trkpt lat="34.8176630" lon="33.5272714">
<ele>28.02</ele>
<time>2015-05-01T09:20:41Z</time>
</trkpt>
<trkpt lat="34.8176090" lon="33.5272196">
<ele>27.77</ele>
<time>2015-05-01T09:20:43Z</time>
</trkpt>
<trkpt lat="34.8175458" lon="33.5271604">
<ele>27.95</ele>
<time>2015-05-01T09:20:45Z</time>
</trkpt>
<trkpt lat="34.8174806" lon="33.5271018">
<ele>28.00</ele>
<time>2015-05-01T09:20:47Z</time>
</trkpt>
<trkpt lat="34.8174085" lon="33.5270443">
<ele>28.01</ele>
<time>2015-05-01T09:20:49Z</time>
</trkpt>
<trkpt lat="34.8173389" lon="33.5269830">
<ele>28.02</ele>
<time>2015-05-01T09:20:51Z</time>
</trkpt>
<trkpt lat="34.8172561" lon="33.5269078">
<ele>27.52</ele>
<time>2015-05-01T09:20:53Z</time>
</trkpt>
<trkpt lat="34.8172185" lon="33.5268766">
<ele>27.27</ele>
<time>2015-05-01T09:20:54Z</time>
</trkpt>
<trkpt lat="34.8171802" lon="33.5268454">
<ele>27.14</ele>
<time>2015-05-01T09:20:55Z</time>
</trkpt>
<trkpt lat="34.8171364" lon="33.5268093">
<ele>27.08</ele>
<time>2015-05-01T09:20:56Z</time>
</trkpt>
<trkpt lat="34.8170993" lon="33.5267736">
<ele>27.05</ele>
<time>2015-05-01T09:20:57Z</time>
</trkpt>
<trkpt lat="34.8170606" lon="33.5267382">
<ele>27.03</ele>
<time>2015-05-01T09:20:58Z</time>
</trkpt>
<trkpt lat="34.8169946" lon="33.5266852">
<ele>27.02</ele>
<time>2015-05-01T09:21:00Z</time>
</trkpt>
<trkpt lat="34.8169297" lon="33.5266366">
<ele>27.02</ele>
<time>2015-05-01T09:21:02Z</time>
</trkpt>
<trkpt lat="34.8168741" lon="33.5265826">
<ele>27.02</ele>
<time>2015-05-01T09:21:04Z</time>
</trkpt>
<trkpt lat="34.8168112" lon="33.5265350">
<ele>27.77</ele>
<time>2015-05-01T09:21:06Z</time>
</trkpt>
<trkpt lat="34.8167454" lon="33.5264790">
<ele>27.20</ele>
<time>2015-05-01T09:21:08Z</time>
</trkpt>
<trkpt lat="34.8166795" lon="33.5264211">
<ele>27.06</ele>
<time>2015-05-01T09:21:10Z</time>
</trkpt>
<trkpt lat="34.8166117" lon="33.5263631">
<ele>27.03</ele>
<time>2015-05-01T09:21:12Z</time>
</trkpt>
<trkpt lat="34.8165446" lon="33.5263032">
<ele>26.27</ele>
<time>2015-05-01T09:21:14Z</time>
</trkpt>
<trkpt lat="34.8164760" lon="33.5262461">
<ele>26.33</ele>
<time>2015-05-01T09:21:16Z</time>
</trkpt>
<trkpt lat="34.8164075" lon="33.5261887">
<ele>26.59</ele>
<time>2015-05-01T09:21:18Z</time>
</trkpt>
<trkpt lat="34.8163372" lon="33.5261318">
<ele>26.91</ele>
<time>2015-05-01T09:21:20Z</time>
</trkpt>
<trkpt lat="34.8162995" lon="33.5261018">
<ele>26.96</ele>
<time>2015-05-01T09:21:21Z</time>
</trkpt>
<trkpt lat="34.8162286" lon="33.5260416">
<ele>27.00</ele>
<time>2015-05-01T09:21:23Z</time>
</trkpt>
<trkpt lat="34.8161479" lon="33.5259723">
<ele>26.51</ele>
<time>2015-05-01T09:21:25Z</time>
</trkpt>
<trkpt lat="34.8161109" lon="33.5259398">
<ele>26.26</ele>
<time>2015-05-01T09:21:26Z</time>
</trkpt>
<trkpt lat="34.8160367" lon="33.5258743">
<ele>26.08</ele>
<time>2015-05-01T09:21:28Z</time>
</trkpt>
<trkpt lat="34.8159986" lon="33.5258438">
<ele>26.05</ele>
<time>2015-05-01T09:21:29Z</time>
</trkpt>
<trkpt lat="34.8159300" lon="33.5257805">
<ele>26.02</ele>
<time>2015-05-01T09:21:31Z</time>
</trkpt>
<trkpt lat="34.8158930" lon="33.5257492">
<ele>26.02</ele>
<time>2015-05-01T09:21:32Z</time>
</trkpt>
<trkpt lat="34.8158309" lon="33.5256916">
<ele>26.77</ele>
<time>2015-05-01T09:21:34Z</time>
</trkpt>
<trkpt lat="34.8157576" lon="33.5256323">
<ele>26.95</ele>
<time>2015-05-01T09:21:36Z</time>
</trkpt>
<trkpt lat="34.8156874" lon="33.5255701">
<ele>27.25</ele>
<time>2015-05-01T09:21:38Z</time>
</trkpt>
<trkpt lat="34.8156162" lon="33.5255087">
<ele>27.07</ele>
<time>2015-05-01T09:21:40Z</time>
</trkpt>
<trkpt lat="34.8155488" lon="33.5254484">
<ele>27.03</ele>
<time>2015-05-01T09:21:42Z</time>
</trkpt>
<trkpt lat="34.8154924" lon="33.5254007">
<ele>27.02</ele>
<time>2015-05-01T09:21:44Z</time>
</trkpt>
<trkpt lat="34.8154446" lon="33.5253681">
<ele>27.02</ele>
<time>2015-05-01T09:21:46Z</time>
</trkpt>
<trkpt lat="34.8153964" lon="33.5253429">
<ele>26.27</ele>
<time>2015-05-01T09:21:48Z</time>
</trkpt>
<trkpt lat="34.8153557" lon="33.5253876">
<ele>26.05</ele>
<time>2015-05-01T09:21:51Z</time>
</trkpt>
<trkpt lat="34.8153265" lon="33.5254323">
<ele>26.02</ele>
<time>2015-05-01T09:21:53Z</time>
</trkpt>
<trkpt lat="34.8152864" lon="33.5254991">
<ele>26.52</ele>
<time>2015-05-01T09:21:55Z</time>
</trkpt>
<trkpt lat="34.8152420" lon="33.5255738">
<ele>26.89</ele>
<time>2015-05-01T09:21:57Z</time>
</trkpt>
<trkpt lat="34.8151922" lon="33.5256504">
<ele>26.98</ele>
<time>2015-05-01T09:21:59Z</time>
</trkpt>
<trkpt lat="34.8151398" lon="33.5257366">
<ele>27.01</ele>
<time>2015-05-01T09:22:01Z</time>
</trkpt>
<trkpt lat="34.8150793" lon="33.5258264">
<ele>27.01</ele>
<time>2015-05-01T09:22:03Z</time>
</trkpt>
<trkpt lat="34.8150435" lon="33.5258668">
<ele>27.02</ele>
<time>2015-05-01T09:22:04Z</time>
</trkpt>
<trkpt lat="34.8150053" lon="33.5259081">
<ele>26.52</ele>
<time>2015-05-01T09:22:05Z</time>
</trkpt>
<trkpt lat="34.8149665" lon="33.5259432">
<ele>26.27</ele>
<time>2015-05-01T09:22:06Z</time>
</trkpt>
<trkpt lat="34.8149215" lon="33.5259801">
<ele>26.14</ele>
<time>2015-05-01T09:22:07Z</time>
</trkpt>
<trkpt lat="34.8148774" lon="33.5260182">
<ele>26.08</ele>
<time>2015-05-01T09:22:08Z</time>
</trkpt>
<trkpt lat="34.8148374" lon="33.5260564">
<ele>26.05</ele>
<time>2015-05-01T09:22:09Z</time>
</trkpt>
<trkpt lat="34.8147917" lon="33.5260959">
<ele>26.03</ele>
<time>2015-05-01T09:22:10Z</time>
</trkpt>
<trkpt lat="34.8147299" lon="33.5261200">
<ele>26.02</ele>
<time>2015-05-01T09:22:11Z</time>
</trkpt>
<trkpt lat="34.8146742" lon="33.5261527">
<ele>26.02</ele>
<time>2015-05-01T09:22:12Z</time>
</trkpt>
<trkpt lat="34.8146214" lon="33.5261847">
<ele>26.02</ele>
<time>2015-05-01T09:22:13Z</time>
</trkpt>
<trkpt lat="34.8145685" lon="33.5262161">
<ele>26.02</ele>
<time>2015-05-01T09:22:14Z</time>
</trkpt>
<trkpt lat="34.8145139" lon="33.5262387">
<ele>26.02</ele>
<time>2015-05-01T09:22:15Z</time>
</trkpt>
<trkpt lat="34.8144652" lon="33.5262650">
<ele>26.02</ele>
<time>2015-05-01T09:22:16Z</time>
</trkpt>
<trkpt lat="34.8144162" lon="33.5262960">
<ele>26.02</ele>
<time>2015-05-01T09:22:17Z</time>
</trkpt>
<trkpt lat="34.8143668" lon="33.5263215">
<ele>26.02</ele>
<time>2015-05-01T09:22:18Z</time>
</trkpt>
<trkpt lat="34.8143153" lon="33.5263455">
<ele>25.52</ele>
<time>2015-05-01T09:22:19Z</time>
</trkpt>
<trkpt lat="34.8142684" lon="33.5263709">
<ele>25.27</ele>
<time>2015-05-01T09:22:20Z</time>
</trkpt>
<trkpt lat="34.8142162" lon="33.5264024">
<ele>25.14</ele>
<time>2015-05-01T09:22:21Z</time>
</trkpt>
<trkpt lat="34.8141684" lon="33.5264299">
<ele>25.08</ele>
<time>2015-05-01T09:22:22Z</time>
</trkpt>
<trkpt lat="34.8141185" lon="33.5264587">
<ele>25.55</ele>
<time>2015-05-01T09:22:23Z</time>
</trkpt>
<trkpt lat="34.8140652" lon="33.5264852">
<ele>25.28</ele>
<time>2015-05-01T09:22:24Z</time>
</trkpt>
<trkpt lat="34.8140105" lon="33.5265212">
<ele>25.15</ele>
<time>2015-05-01T09:22:25Z</time>
</trkpt>
<trkpt lat="34.8139573" lon="33.5265481">
<ele>24.58</ele>
<time>2015-05-01T09:22:26Z</time>
</trkpt>
<trkpt lat="34.8139006" lon="33.5265758">
<ele>24.30</ele>
<time>2015-05-01T09:22:27Z</time>
</trkpt>
<trkpt lat="34.8138443" lon="33.5266050">
<ele>24.16</ele>
<time>2015-05-01T09:22:28Z</time>
</trkpt>
<trkpt lat="34.8137889" lon="33.5266373">
<ele>24.09</ele>
<time>2015-05-01T09:22:29Z</time>
</trkpt>
<trkpt lat="34.8137372" lon="33.5266678">
<ele>24.05</ele>
<time>2015-05-01T09:22:30Z</time>
</trkpt>
<trkpt lat="34.8136874" lon="33.5266869">
<ele>24.03</ele>
<time>2015-05-01T09:22:31Z</time>
</trkpt>
<trkpt lat="34.8136372" lon="33.5267129">
<ele>23.52</ele>
<time>2015-05-01T09:22:32Z</time>
</trkpt>
<trkpt lat="34.8135882" lon="33.5267449">
<ele>23.27</ele>
<time>2015-05-01T09:22:33Z</time>
</trkpt>
<trkpt lat="34.8135393" lon="33.5267735">
<ele>23.14</ele>
<time>2015-05-01T09:22:34Z</time>
</trkpt>
<trkpt lat="34.8134878" lon="33.5267877">
<ele>23.08</ele>
<time>2015-05-01T09:22:35Z</time>
</trkpt>
<trkpt lat="34.8134362" lon="33.5268132">
<ele>23.05</ele>
<time>2015-05-01T09:22:36Z</time>
</trkpt>
<trkpt lat="34.8133885" lon="33.5268406">
<ele>23.03</ele>
<time>2015-05-01T09:22:37Z</time>
</trkpt>
<trkpt lat="34.8133367" lon="33.5268765">
<ele>23.02</ele>
<time>2015-05-01T09:22:38Z</time>
</trkpt>
<trkpt lat="34.8132898" lon="33.5269065">
<ele>23.02</ele>
<time>2015-05-01T09:22:39Z</time>
</trkpt>
<trkpt lat="34.8132375" lon="33.5269344">
<ele>23.02</ele>
<time>2015-05-01T09:22:40Z</time>
</trkpt>
<trkpt lat="34.8131929" lon="33.5269652">
<ele>23.02</ele>
<time>2015-05-01T09:22:41Z</time>
</trkpt>
<trkpt lat="34.8131434" lon="33.5269924">
<ele>23.02</ele>
<time>2015-05-01T09:22:42Z</time>
</trkpt>
<trkpt lat="34.8130962" lon="33.5270195">
<ele>23.02</ele>
<time>2015-05-01T09:22:43Z</time>
</trkpt>
<trkpt lat="34.8130414" lon="33.5270502">
<ele>23.02</ele>
<time>2015-05-01T09:22:44Z</time>
</trkpt>
<trkpt lat="34.8129910" lon="33.5270765">
<ele>23.02</ele>
<time>2015-05-01T09:22:45Z</time>
</trkpt>
<trkpt lat="34.8129434" lon="33.5270982">
<ele>23.02</ele>
<time>2015-05-01T09:22:46Z</time>
</trkpt>
<trkpt lat="34.8128964" lon="33.5271315">
<ele>23.02</ele>
<time>2015-05-01T09:22:47Z</time>
</trkpt>
<trkpt lat="34.8128489" lon="33.5271658">
<ele>22.52</ele>
<time>2015-05-01T09:22:48Z</time>
</trkpt>
<trkpt lat="34.8127959" lon="33.5271928">
<ele>22.77</ele>
<time>2015-05-01T09:22:49Z</time>
</trkpt>
<trkpt lat="34.8127482" lon="33.5272202">
<ele>22.39</ele>
<time>2015-05-01T09:22:50Z</time>
</trkpt>
<trkpt lat="34.8126650" lon="33.5272794">
<ele>22.11</ele>
<time>2015-05-01T09:22:52Z</time>
</trkpt>
<trkpt lat="34.8126088" lon="33.5273140">
<ele>22.56</ele>
<time>2015-05-01T09:22:53Z</time>
</trkpt>
<trkpt lat="34.8125633" lon="33.5273460">
<ele>22.29</ele>
<time>2015-05-01T09:22:54Z</time>
</trkpt>
<trkpt lat="34.8125132" lon="33.5273790">
<ele>22.15</ele>
<time>2015-05-01T09:22:55Z</time>
</trkpt>
<trkpt lat="34.8124640" lon="33.5274145">
<ele>22.08</ele>
<time>2015-05-01T09:22:56Z</time>
</trkpt>
<trkpt lat="34.8124183" lon="33.5274626">
<ele>21.55</ele>
<time>2015-05-01T09:22:57Z</time>
</trkpt>
<trkpt lat="34.8123694" lon="33.5274990">
<ele>21.28</ele>
<time>2015-05-01T09:22:58Z</time>
</trkpt>
<trkpt lat="34.8123210" lon="33.5275374">
<ele>21.65</ele>
<time>2015-05-01T09:22:59Z</time>
</trkpt>
<trkpt lat="34.8122688" lon="33.5275775">
<ele>21.83</ele>
<time>2015-05-01T09:23:00Z</time>
</trkpt>
<trkpt lat="34.8122186" lon="33.5276155">
<ele>21.92</ele>
<time>2015-05-01T09:23:01Z</time>
</trkpt>
<trkpt lat="34.8121700" lon="33.5276524">
<ele>21.97</ele>
<time>2015-05-01T09:23:02Z</time>
</trkpt>
<trkpt lat="34.8121278" lon="33.5276960">
<ele>21.99</ele>
<time>2015-05-01T09:23:03Z</time>
</trkpt>
<trkpt lat="34.8120810" lon="33.5277340">
<ele>22.00</ele>
<time>2015-05-01T09:23:04Z</time>
</trkpt>
<trkpt lat="34.8120380" lon="33.5277680">
<ele>21.51</ele>
<time>2015-05-01T09:23:05Z</time>
</trkpt>
<trkpt lat="34.8119920" lon="33.5278104">
<ele>21.26</ele>
<time>2015-05-01T09:23:06Z</time>
</trkpt>
<trkpt lat="34.8119494" lon="33.5278519">
<ele>21.14</ele>
<time>2015-05-01T09:23:07Z</time>
</trkpt>
<trkpt lat="34.8119055" lon="33.5278899">
<ele>21.08</ele>
<time>2015-05-01T09:23:08Z</time>
</trkpt>
<trkpt lat="34.8118676" lon="33.5279215">
<ele>21.05</ele>
<time>2015-05-01T09:23:09Z</time>
</trkpt>
<trkpt lat="34.8118265" lon="33.5279576">
<ele>20.53</ele>
<time>2015-05-01T09:23:10Z</time>
</trkpt>
<trkpt lat="34.8117879" lon="33.5279858">
<ele>20.77</ele>
<time>2015-05-01T09:23:11Z</time>
</trkpt>
<trkpt lat="34.8117498" lon="33.5280239">
<ele>20.89</ele>
<time>2015-05-01T09:23:12Z</time>
</trkpt>
<trkpt lat="34.8116824" lon="33.5280948">
<ele>20.24</ele>
<time>2015-05-01T09:23:14Z</time>
</trkpt>
<trkpt lat="34.8116438" lon="33.5281267">
<ele>20.63</ele>
<time>2015-05-01T09:23:15Z</time>
</trkpt>
<trkpt lat="34.8116048" lon="33.5281594">
<ele>20.82</ele>
<time>2015-05-01T09:23:16Z</time>
</trkpt>
<trkpt lat="34.8115692" lon="33.5281979">
<ele>20.42</ele>
<time>2015-05-01T09:23:17Z</time>
</trkpt>
<trkpt lat="34.8115295" lon="33.5282378">
<ele>20.22</ele>
<time>2015-05-01T09:23:18Z</time>
</trkpt>
<trkpt lat="34.8114936" lon="33.5282724">
<ele>20.12</ele>
<time>2015-05-01T09:23:19Z</time>
</trkpt>
<trkpt lat="34.8114540" lon="33.5283036">
<ele>19.57</ele>
<time>2015-05-01T09:23:20Z</time>
</trkpt>
<trkpt lat="34.8113834" lon="33.5283652">
<ele>19.15</ele>
<time>2015-05-01T09:23:22Z</time>
</trkpt>
<trkpt lat="34.8113127" lon="33.5284139">
<ele>19.05</ele>
<time>2015-05-01T09:23:24Z</time>
</trkpt>
<trkpt lat="34.8112499" lon="33.5284754">
<ele>18.27</ele>
<time>2015-05-01T09:23:26Z</time>
</trkpt>
<trkpt lat="34.8111895" lon="33.5285283">
<ele>18.83</ele>
<time>2015-05-01T09:23:28Z</time>
</trkpt>
<trkpt lat="34.8111254" lon="33.5285823">
<ele>18.97</ele>
<time>2015-05-01T09:23:30Z</time>
</trkpt>
<trkpt lat="34.8110860" lon="33.5286107">
<ele>18.49</ele>
<time>2015-05-01T09:23:31Z</time>
</trkpt>
<trkpt lat="34.8109958" lon="33.5286732">
<ele>18.14</ele>
<time>2015-05-01T09:23:33Z</time>
</trkpt>
<trkpt lat="34.8109556" lon="33.5287009">
<ele>18.08</ele>
<time>2015-05-01T09:23:34Z</time>
</trkpt>
<trkpt lat="34.8109118" lon="33.5287247">
<ele>18.05</ele>
<time>2015-05-01T09:23:35Z</time>
</trkpt>
<trkpt lat="34.8108701" lon="33.5287468">
<ele>18.53</ele>
<time>2015-05-01T09:23:36Z</time>
</trkpt>
<trkpt lat="34.8107923" lon="33.5287921">
<ele>18.89</ele>
<time>2015-05-01T09:23:38Z</time>
</trkpt>
<trkpt lat="34.8107155" lon="33.5288219">
<ele>18.24</ele>
<time>2015-05-01T09:23:40Z</time>
</trkpt>
<trkpt lat="34.8106519" lon="33.5288543">
<ele>18.07</ele>
<time>2015-05-01T09:23:42Z</time>
</trkpt>
<trkpt lat="34.8105744" lon="33.5288877">
<ele>17.28</ele>
<time>2015-05-01T09:23:44Z</time>
</trkpt>
<trkpt lat="34.8104898" lon="33.5289146">
<ele>17.08</ele>
<time>2015-05-01T09:23:46Z</time>
</trkpt>
<trkpt lat="34.8104394" lon="33.5289245">
<ele>17.05</ele>
<time>2015-05-01T09:23:47Z</time>
</trkpt>
<trkpt lat="34.8103953" lon="33.5289392">
<ele>17.03</ele>
<time>2015-05-01T09:23:48Z</time>
</trkpt>
<trkpt lat="34.8103140" lon="33.5289588">
<ele>16.27</ele>
<time>2015-05-01T09:23:50Z</time>
</trkpt>
<trkpt lat="34.8102355" lon="33.5289746">
<ele>16.08</ele>
<time>2015-05-01T09:23:52Z</time>
</trkpt>
<trkpt lat="34.8101628" lon="33.5289898">
<ele>16.03</ele>
<time>2015-05-01T09:23:54Z</time>
</trkpt>
<trkpt lat="34.8100981" lon="33.5289973">
<ele>16.02</ele>
<time>2015-05-01T09:23:56Z</time>
</trkpt>
<trkpt lat="34.8100378" lon="33.5290189">
<ele>16.02</ele>
<time>2015-05-01T09:23:58Z</time>
</trkpt>
<trkpt lat="34.8099757" lon="33.5290308">
<ele>16.02</ele>
<time>2015-05-01T09:24:00Z</time>
</trkpt>
<trkpt lat="34.8099113" lon="33.5290382">
<ele>16.02</ele>
<time>2015-05-01T09:24:02Z</time>
</trkpt>
<trkpt lat="34.8098462" lon="33.5290530">
<ele>16.02</ele>
<time>2015-05-01T09:24:04Z</time>
</trkpt>
<trkpt lat="34.8097743" lon="33.5290886">
<ele>16.02</ele>
<time>2015-05-01T09:24:06Z</time>
</trkpt>
<trkpt lat="34.8096997" lon="33.5291222">
<ele>16.02</ele>
<time>2015-05-01T09:24:08Z</time>
</trkpt>
<trkpt lat="34.8096298" lon="33.5291600">
<ele>16.02</ele>
<time>2015-05-01T09:24:10Z</time>
</trkpt>
<trkpt lat="34.8095646" lon="33.5292014">
<ele>16.02</ele>
<time>2015-05-01T09:24:12Z</time>
</trkpt>
<trkpt lat="34.8095094" lon="33.5292443">
<ele>15.27</ele>
<time>2015-05-01T09:24:14Z</time>
</trkpt>
<trkpt lat="34.8094502" lon="33.5293024">
<ele>15.08</ele>
<time>2015-05-01T09:24:16Z</time>
</trkpt>
<trkpt lat="34.8094123" lon="33.5293499">
<ele>15.05</ele>
<time>2015-05-01T09:24:17Z</time>
</trkpt>
<trkpt lat="34.8093758" lon="33.5293960">
<ele>15.03</ele>
<time>2015-05-01T09:24:18Z</time>
</trkpt>
<trkpt lat="34.8093165" lon="33.5294692">
<ele>15.02</ele>
<time>2015-05-01T09:24:20Z</time>
</trkpt>
<trkpt lat="34.8092707" lon="33.5295510">
<ele>15.02</ele>
<time>2015-05-01T09:24:22Z</time>
</trkpt>
<trkpt lat="34.8092283" lon="33.5296257">
<ele>14.27</ele>
<time>2015-05-01T09:24:24Z</time>
</trkpt>
<trkpt lat="34.8091894" lon="33.5297004">
<ele>14.33</ele>
<time>2015-05-01T09:24:26Z</time>
</trkpt>
<trkpt lat="34.8091554" lon="33.5297648">
<ele>14.59</ele>
<time>2015-05-01T09:24:28Z</time>
</trkpt>
<trkpt lat="34.8091215" lon="33.5298193">
<ele>14.16</ele>
<time>2015-05-01T09:24:30Z</time>
</trkpt>
<trkpt lat="34.8090903" lon="33.5298594">
<ele>14.05</ele>
<time>2015-05-01T09:24:32Z</time>
</trkpt>
<trkpt lat="34.8090469" lon="33.5298842">
<ele>14.03</ele>
<time>2015-05-01T09:24:34Z</time>
</trkpt>
<trkpt lat="34.8090022" lon="33.5299152">
<ele>13.52</ele>
<time>2015-05-01T09:24:36Z</time>
</trkpt>
<trkpt lat="34.8089317" lon="33.5299387">
<ele>13.89</ele>
<time>2015-05-01T09:24:38Z</time>
</trkpt>
<trkpt lat="34.8088741" lon="33.5299636">
<ele>13.98</ele>
<time>2015-05-01T09:24:40Z</time>
</trkpt>
<trkpt lat="34.8088554" lon="33.5300245">
<ele>14.01</ele>
<time>2015-05-01T09:24:44Z</time>
</trkpt>
<trkpt lat="34.8088489" lon="33.5299557">
<ele>15.01</ele>
<time>2015-05-01T09:25:09Z</time>
</trkpt>
<trkpt lat="34.8088180" lon="33.5299096">
<ele>15.76</ele>
<time>2015-05-01T09:25:11Z</time>
</trkpt>
<trkpt lat="34.8087709" lon="33.5298632">
<ele>15.95</ele>
<time>2015-05-01T09:25:13Z</time>
</trkpt>
<trkpt lat="34.8087148" lon="33.5298121">
<ele>16.00</ele>
<time>2015-05-01T09:25:15Z</time>
</trkpt>
<trkpt lat="34.8086593" lon="33.5297594">
<ele>16.01</ele>
<time>2015-05-01T09:25:17Z</time>
</trkpt>
<trkpt lat="34.8086049" lon="33.5297092">
<ele>16.02</ele>
<time>2015-05-01T09:25:19Z</time>
</trkpt>
<trkpt lat="34.8085454" lon="33.5296527">
<ele>16.02</ele>
<time>2015-05-01T09:25:21Z</time>
</trkpt>
<trkpt lat="34.8084914" lon="33.5295946">
<ele>16.02</ele>
<time>2015-05-01T09:25:23Z</time>
</trkpt>
<trkpt lat="34.8084414" lon="33.5295387">
<ele>16.02</ele>
<time>2015-05-01T09:25:25Z</time>
</trkpt>
<trkpt lat="34.8084752" lon="33.5295930">
<ele>15.02</ele>
<time>2015-05-01T09:32:38Z</time>
</trkpt>
<trkpt lat="34.8085235" lon="33.5296324">
<ele>15.02</ele>
<time>2015-05-01T09:32:41Z</time>
</trkpt>
<trkpt lat="34.8085668" lon="33.5296718">
<ele>15.02</ele>
<time>2015-05-01T09:32:44Z</time>
</trkpt>
<trkpt lat="34.8085987" lon="33.5297151">
<ele>15.02</ele>
<time>2015-05-01T09:32:47Z</time>
</trkpt>
<trkpt lat="34.8086525" lon="33.5297456">
<ele>15.14</ele>
<time>2015-05-01T09:34:04Z</time>
</trkpt>
<trkpt lat="34.8087057" lon="33.5297842">
<ele>15.03</ele>
<time>2015-05-01T09:34:07Z</time>
</trkpt>
<trkpt lat="34.8087544" lon="33.5298371">
<ele>15.02</ele>
<time>2015-05-01T09:34:09Z</time>
</trkpt>
<trkpt lat="34.8088024" lon="33.5298848">
<ele>15.02</ele>
<time>2015-05-01T09:34:11Z</time>
</trkpt>
<trkpt lat="34.8088491" lon="33.5299325">
<ele>15.02</ele>
<time>2015-05-01T09:34:13Z</time>
</trkpt>
<trkpt lat="34.8088972" lon="33.5299593">
<ele>15.02</ele>
<time>2015-05-01T09:34:15Z</time>
</trkpt>
<trkpt lat="34.8089406" lon="33.5299065">
<ele>14.14</ele>
<time>2015-05-01T09:34:18Z</time>
</trkpt>
<trkpt lat="34.8090034" lon="33.5298703">
<ele>14.05</ele>
<time>2015-05-01T09:34:20Z</time>
</trkpt>
<trkpt lat="34.8090632" lon="33.5297944">
<ele>14.02</ele>
<time>2015-05-01T09:34:22Z</time>
</trkpt>
<trkpt lat="34.8090774" lon="33.5297387">
<ele>14.02</ele>
<time>2015-05-01T09:34:23Z</time>
</trkpt>
<trkpt lat="34.8091229" lon="33.5296527">
<ele>14.77</ele>
<time>2015-05-01T09:34:25Z</time>
</trkpt>
<trkpt lat="34.8091714" lon="33.5295729">
<ele>14.95</ele>
<time>2015-05-01T09:34:27Z</time>
</trkpt>
<trkpt lat="34.8092184" lon="33.5294881">
<ele>15.75</ele>
<time>2015-05-01T09:34:29Z</time>
</trkpt>
<trkpt lat="34.8092696" lon="33.5294109">
<ele>15.95</ele>
<time>2015-05-01T09:34:31Z</time>
</trkpt>
<trkpt lat="34.8093297" lon="33.5293366">
<ele>16.00</ele>
<time>2015-05-01T09:34:33Z</time>
</trkpt>
<trkpt lat="34.8093648" lon="33.5292969">
<ele>16.01</ele>
<time>2015-05-01T09:34:34Z</time>
</trkpt>
<trkpt lat="34.8094458" lon="33.5292187">
<ele>16.01</ele>
<time>2015-05-01T09:34:36Z</time>
</trkpt>
<trkpt lat="34.8095206" lon="33.5291577">
<ele>16.02</ele>
<time>2015-05-01T09:34:38Z</time>
</trkpt>
<trkpt lat="34.8095602" lon="33.5291293">
<ele>16.02</ele>
<time>2015-05-01T09:34:39Z</time>
</trkpt>
<trkpt lat="34.8096016" lon="33.5290984">
<ele>16.02</ele>
<time>2015-05-01T09:34:40Z</time>
</trkpt>
<trkpt lat="34.8096489" lon="33.5290784">
<ele>16.02</ele>
<time>2015-05-01T09:34:41Z</time>
</trkpt>
<trkpt lat="34.8096911" lon="33.5290546">
<ele>16.02</ele>
<time>2015-05-01T09:34:42Z</time>
</trkpt>
<trkpt lat="34.8097354" lon="33.5290392">
<ele>16.02</ele>
<time>2015-05-01T09:34:43Z</time>
</trkpt>
<trkpt lat="34.8097804" lon="33.5290180">
<ele>16.02</ele>
<time>2015-05-01T09:34:44Z</time>
</trkpt>
<trkpt lat="34.8098266" lon="33.5290048">
<ele>16.02</ele>
<time>2015-05-01T09:34:45Z</time>
</trkpt>
<trkpt lat="34.8098710" lon="33.5289889">
<ele>16.02</ele>
<time>2015-05-01T09:34:46Z</time>
</trkpt>
<trkpt lat="34.8099191" lon="33.5289828">
<ele>16.02</ele>
<time>2015-05-01T09:34:47Z</time>
</trkpt>
<trkpt lat="34.8099706" lon="33.5289782">
<ele>16.02</ele>
<time>2015-05-01T09:34:48Z</time>
</trkpt>
<trkpt lat="34.8100168" lon="33.5289698">
<ele>16.02</ele>
<time>2015-05-01T09:34:49Z</time>
</trkpt>
<trkpt lat="34.8100634" lon="33.5289567">
<ele>16.02</ele>
<time>2015-05-01T09:34:50Z</time>
</trkpt>
<trkpt lat="34.8101102" lon="33.5289443">
<ele>16.02</ele>
<time>2015-05-01T09:34:51Z</time>
</trkpt>
<trkpt lat="34.8101612" lon="33.5289370">
<ele>16.02</ele>
<time>2015-05-01T09:34:52Z</time>
</trkpt>
<trkpt lat="34.8102085" lon="33.5289262">
<ele>16.02</ele>
<time>2015-05-01T09:34:53Z</time>
</trkpt>
<trkpt lat="34.8102570" lon="33.5289161">
<ele>16.02</ele>
<time>2015-05-01T09:34:54Z</time>
</trkpt>
<trkpt lat="34.8103064" lon="33.5289013">
<ele>16.02</ele>
<time>2015-05-01T09:34:55Z</time>
</trkpt>
<trkpt lat="34.8103562" lon="33.5288901">
<ele>16.02</ele>
<time>2015-05-01T09:34:56Z</time>
</trkpt>
<trkpt lat="34.8104028" lon="33.5288764">
<ele>16.02</ele>
<time>2015-05-01T09:34:57Z</time>
</trkpt>
<trkpt lat="34.8104509" lon="33.5288653">
<ele>16.02</ele>
<time>2015-05-01T09:34:58Z</time>
</trkpt>
<trkpt lat="34.8104946" lon="33.5288450">
<ele>16.02</ele>
<time>2015-05-01T09:34:59Z</time>
</trkpt>
<trkpt lat="34.8105437" lon="33.5288305">
<ele>16.52</ele>
<time>2015-05-01T09:35:00Z</time>
</trkpt>
<trkpt lat="34.8105909" lon="33.5288071">
<ele>16.77</ele>
<time>2015-05-01T09:35:01Z</time>
</trkpt>
<trkpt lat="34.8106381" lon="33.5287904">
<ele>16.89</ele>
<time>2015-05-01T09:35:02Z</time>
</trkpt>
<trkpt lat="34.8106827" lon="33.5287695">
<ele>16.95</ele>
<time>2015-05-01T09:35:03Z</time>
</trkpt>
<trkpt lat="34.8107310" lon="33.5287544">
<ele>16.98</ele>
<time>2015-05-01T09:35:04Z</time>
</trkpt>
<trkpt lat="34.8108190" lon="33.5287162">
<ele>17.01</ele>
<time>2015-05-01T09:35:06Z</time>
</trkpt>
<trkpt lat="34.8108644" lon="33.5286915">
<ele>17.01</ele>
<time>2015-05-01T09:35:07Z</time>
</trkpt>
<trkpt lat="34.8109091" lon="33.5286655">
<ele>17.01</ele>
<time>2015-05-01T09:35:08Z</time>
</trkpt>
<trkpt lat="34.8109852" lon="33.5286009">
<ele>17.02</ele>
<time>2015-05-01T09:35:10Z</time>
</trkpt>
<trkpt lat="34.8110269" lon="33.5285686">
<ele>17.02</ele>
<time>2015-05-01T09:35:11Z</time>
</trkpt>
<trkpt lat="34.8110705" lon="33.5285376">
<ele>17.02</ele>
<time>2015-05-01T09:35:12Z</time>
</trkpt>
<trkpt lat="34.8111115" lon="33.5285048">
<ele>17.52</ele>
<time>2015-05-01T09:35:13Z</time>
</trkpt>
<trkpt lat="34.8111516" lon="33.5284713">
<ele>17.77</ele>
<time>2015-05-01T09:35:14Z</time>
</trkpt>
<trkpt lat="34.8111899" lon="33.5284407">
<ele>17.39</ele>
<time>2015-05-01T09:35:15Z</time>
</trkpt>
<trkpt lat="34.8112317" lon="33.5284068">
<ele>17.70</ele>
<time>2015-05-01T09:35:16Z</time>
</trkpt>
<trkpt lat="34.8112759" lon="33.5283717">
<ele>17.86</ele>
<time>2015-05-01T09:35:17Z</time>
</trkpt>
<trkpt lat="34.8113150" lon="33.5283367">
<ele>17.94</ele>
<time>2015-05-01T09:35:18Z</time>
</trkpt>
<trkpt lat="34.8113513" lon="33.5283009">
<ele>17.98</ele>
<time>2015-05-01T09:35:19Z</time>
</trkpt>
<trkpt lat="34.8114048" lon="33.5282381">
<ele>18.01</ele>
<time>2015-05-01T09:35:21Z</time>
</trkpt>
<trkpt lat="34.8114526" lon="33.5282242">
<ele>18.77</ele>
<time>2015-05-01T09:36:28Z</time>
</trkpt>
<trkpt lat="34.8114955" lon="33.5281750">
<ele>18.98</ele>
<time>2015-05-01T09:36:31Z</time>
</trkpt>
<trkpt lat="34.8115471" lon="33.5281259">
<ele>19.01</ele>
<time>2015-05-01T09:36:33Z</time>
</trkpt>
<trkpt lat="34.8116122" lon="33.5280755">
<ele>19.01</ele>
<time>2015-05-01T09:36:35Z</time>
</trkpt>
<trkpt lat="34.8116763" lon="33.5280195">
<ele>19.02</ele>
<time>2015-05-01T09:36:37Z</time>
</trkpt>
<trkpt lat="34.8117117" lon="33.5279852">
<ele>19.02</ele>
<time>2015-05-01T09:36:38Z</time>
</trkpt>
<trkpt lat="34.8117857" lon="33.5279187">
<ele>19.02</ele>
<time>2015-05-01T09:36:40Z</time>
</trkpt>
<trkpt lat="34.8118672" lon="33.5278419">
<ele>19.52</ele>
<time>2015-05-01T09:36:42Z</time>
</trkpt>
<trkpt lat="34.8119045" lon="33.5278080">
<ele>19.77</ele>
<time>2015-05-01T09:36:43Z</time>
</trkpt>
<trkpt lat="34.8119435" lon="33.5277758">
<ele>19.89</ele>
<time>2015-05-01T09:36:44Z</time>
</trkpt>
<trkpt lat="34.8119832" lon="33.5277402">
<ele>19.95</ele>
<time>2015-05-01T09:36:45Z</time>
</trkpt>
<trkpt lat="34.8120279" lon="33.5277082">
<ele>19.98</ele>
<time>2015-05-01T09:36:46Z</time>
</trkpt>
<trkpt lat="34.8120680" lon="33.5276732">
<ele>20.00</ele>
<time>2015-05-01T09:36:47Z</time>
</trkpt>
<trkpt lat="34.8121075" lon="33.5276323">
<ele>20.01</ele>
<time>2015-05-01T09:36:48Z</time>
</trkpt>
<trkpt lat="34.8121520" lon="33.5276001">
<ele>20.01</ele>
<time>2015-05-01T09:36:49Z</time>
</trkpt>
<trkpt lat="34.8121950" lon="33.5275662">
<ele>20.01</ele>
<time>2015-05-01T09:36:50Z</time>
</trkpt>
<trkpt lat="34.8122364" lon="33.5275314">
<ele>20.02</ele>
<time>2015-05-01T09:36:51Z</time>
</trkpt>
<trkpt lat="34.8122793" lon="33.5274971">
<ele>20.02</ele>
<time>2015-05-01T09:36:52Z</time>
</trkpt>
<trkpt lat="34.8123222" lon="33.5274637">
<ele>20.52</ele>
<time>2015-05-01T09:36:53Z</time>
</trkpt>
<trkpt lat="34.8123664" lon="33.5274315">
<ele>20.27</ele>
<time>2015-05-01T09:36:54Z</time>
</trkpt>
<trkpt lat="34.8124078" lon="33.5274005">
<ele>20.14</ele>
<time>2015-05-01T09:36:55Z</time>
</trkpt>
<trkpt lat="34.8124815" lon="33.5273518">
<ele>20.05</ele>
<time>2015-05-01T09:36:57Z</time>
</trkpt>
<trkpt lat="34.8125223" lon="33.5273197">
<ele>20.03</ele>
<time>2015-05-01T09:36:58Z</time>
</trkpt>
<trkpt lat="34.8125616" lon="33.5272898">
<ele>20.52</ele>
<time>2015-05-01T09:36:59Z</time>
</trkpt>
<trkpt lat="34.8126104" lon="33.5272569">
<ele>20.77</ele>
<time>2015-05-01T09:37:00Z</time>
</trkpt>
<trkpt lat="34.8126499" lon="33.5272276">
<ele>20.89</ele>
<time>2015-05-01T09:37:01Z</time>
</trkpt>
<trkpt lat="34.8126924" lon="33.5271996">
<ele>20.95</ele>
<time>2015-05-01T09:37:02Z</time>
</trkpt>
<trkpt lat="34.8127316" lon="33.5271695">
<ele>20.99</ele>
<time>2015-05-01T09:37:03Z</time>
</trkpt>
<trkpt lat="34.8127720" lon="33.5271384">
<ele>21.50</ele>
<time>2015-05-01T09:37:04Z</time>
</trkpt>
<trkpt lat="34.8128528" lon="33.5270856">
<ele>21.89</ele>
<time>2015-05-01T09:37:06Z</time>
</trkpt>
<trkpt lat="34.8128955" lon="33.5270587">
<ele>21.95</ele>
<time>2015-05-01T09:37:07Z</time>
</trkpt>
<trkpt lat="34.8129451" lon="33.5270268">
<ele>21.98</ele>
<time>2015-05-01T09:37:08Z</time>
</trkpt>
<trkpt lat="34.8129879" lon="33.5269993">
<ele>22.00</ele>
<time>2015-05-01T09:37:09Z</time>
</trkpt>
<trkpt lat="34.8130306" lon="33.5269768">
<ele>22.01</ele>
<time>2015-05-01T09:37:10Z</time>
</trkpt>
<trkpt lat="34.8130739" lon="33.5269534">
<ele>22.01</ele>
<time>2015-05-01T09:37:11Z</time>
</trkpt>
<trkpt lat="34.8131553" lon="33.5269005">
<ele>21.26</ele>
<time>2015-05-01T09:37:13Z</time>
</trkpt>
<trkpt lat="34.8132040" lon="33.5268771">
<ele>21.14</ele>
<time>2015-05-01T09:37:14Z</time>
</trkpt>
<trkpt lat="34.8132481" lon="33.5268536">
<ele>21.08</ele>
<time>2015-05-01T09:37:15Z</time>
</trkpt>
<trkpt lat="34.8132982" lon="33.5268293">
<ele>21.55</ele>
<time>2015-05-01T09:37:16Z</time>
</trkpt>
<trkpt lat="34.8133404" lon="33.5268023">
<ele>21.78</ele>
<time>2015-05-01T09:37:17Z</time>
</trkpt>
<trkpt lat="34.8133853" lon="33.5267776">
<ele>21.90</ele>
<time>2015-05-01T09:37:18Z</time>
</trkpt>
<trkpt lat="34.8134732" lon="33.5267340">
<ele>22.74</ele>
<time>2015-05-01T09:37:20Z</time>
</trkpt>
<trkpt lat="34.8135230" lon="33.5267094">
<ele>22.88</ele>
<time>2015-05-01T09:37:21Z</time>
</trkpt>
<trkpt lat="34.8135676" lon="33.5266857">
<ele>22.95</ele>
<time>2015-05-01T09:37:22Z</time>
</trkpt>
<trkpt lat="34.8136122" lon="33.5266618">
<ele>22.98</ele>
<time>2015-05-01T09:37:23Z</time>
</trkpt>
<trkpt lat="34.8136561" lon="33.5266322">
<ele>23.50</ele>
<time>2015-05-01T09:37:24Z</time>
</trkpt>
<trkpt lat="34.8137008" lon="33.5266064">
<ele>23.76</ele>
<time>2015-05-01T09:37:25Z</time>
</trkpt>
<trkpt lat="34.8137440" lon="33.5265808">
<ele>23.89</ele>
<time>2015-05-01T09:37:26Z</time>
</trkpt>
<trkpt lat="34.8137893" lon="33.5265557">
<ele>23.95</ele>
<time>2015-05-01T09:37:27Z</time>
</trkpt>
<trkpt lat="34.8138345" lon="33.5265338">
<ele>23.98</ele>
<time>2015-05-01T09:37:28Z</time>
</trkpt>
<trkpt lat="34.8138796" lon="33.5265090">
<ele>24.00</ele>
<time>2015-05-01T09:37:29Z</time>
</trkpt>
<trkpt lat="34.8139262" lon="33.5264885">
<ele>24.01</ele>
<time>2015-05-01T09:37:30Z</time>
</trkpt>
<trkpt lat="34.8139706" lon="33.5264637">
<ele>24.01</ele>
<time>2015-05-01T09:37:31Z</time>
</trkpt>
<trkpt lat="34.8140180" lon="33.5264356">
<ele>24.01</ele>
<time>2015-05-01T09:37:32Z</time>
</trkpt>
<trkpt lat="34.8140634" lon="33.5264101">
<ele>24.01</ele>
<time>2015-05-01T09:37:33Z</time>
</trkpt>
<trkpt lat="34.8141074" lon="33.5263861">
<ele>24.52</ele>
<time>2015-05-01T09:37:34Z</time>
</trkpt>
<trkpt lat="34.8141954" lon="33.5263454">
<ele>24.89</ele>
<time>2015-05-01T09:37:36Z</time>
</trkpt>
<trkpt lat="34.8142393" lon="33.5263236">
<ele>24.95</ele>
<time>2015-05-01T09:37:37Z</time>
</trkpt>
<trkpt lat="34.8142837" lon="33.5263001">
<ele>24.98</ele>
<time>2015-05-01T09:37:38Z</time>
</trkpt>
<trkpt lat="34.8143270" lon="33.5262760">
<ele>25.00</ele>
<time>2015-05-01T09:37:39Z</time>
</trkpt>
<trkpt lat="34.8143702" lon="33.5262528">
<ele>25.01</ele>
<time>2015-05-01T09:37:40Z</time>
</trkpt>
<trkpt lat="34.8144124" lon="33.5262285">
<ele>25.01</ele>
<time>2015-05-01T09:37:41Z</time>
</trkpt>
<trkpt lat="34.8144922" lon="33.5261847">
<ele>25.02</ele>
<time>2015-05-01T09:37:43Z</time>
</trkpt>
<trkpt lat="34.8145383" lon="33.5261613">
<ele>25.02</ele>
<time>2015-05-01T09:37:44Z</time>
</trkpt>
<trkpt lat="34.8145815" lon="33.5261396">
<ele>25.02</ele>
<time>2015-05-01T09:37:45Z</time>
</trkpt>
<trkpt lat="34.8146232" lon="33.5261145">
<ele>24.52</ele>
<time>2015-05-01T09:37:46Z</time>
</trkpt>
<trkpt lat="34.8146651" lon="33.5260897">
<ele>24.27</ele>
<time>2015-05-01T09:37:47Z</time>
</trkpt>
<trkpt lat="34.8147121" lon="33.5260694">
<ele>24.64</ele>
<time>2015-05-01T09:37:48Z</time>
</trkpt>
<trkpt lat="34.8147919" lon="33.5260184">
<ele>24.92</ele>
<time>2015-05-01T09:37:50Z</time>
</trkpt>
<trkpt lat="34.8148332" lon="33.5259851">
<ele>25.47</ele>
<time>2015-05-01T09:37:51Z</time>
</trkpt>
<trkpt lat="34.8148711" lon="33.5259490">
<ele>25.74</ele>
<time>2015-05-01T09:37:52Z</time>
</trkpt>
<trkpt lat="34.8149117" lon="33.5259145">
<ele>25.88</ele>
<time>2015-05-01T09:37:53Z</time>
</trkpt>
<trkpt lat="34.8149512" lon="33.5258821">
<ele>25.95</ele>
<time>2015-05-01T09:37:54Z</time>
</trkpt>
<trkpt lat="34.8149892" lon="33.5258399">
<ele>25.98</ele>
<time>2015-05-01T09:37:55Z</time>
</trkpt>
<trkpt lat="34.8150236" lon="33.5258000">
<ele>26.00</ele>
<time>2015-05-01T09:37:56Z</time>
</trkpt>
<trkpt lat="34.8150607" lon="33.5257626">
<ele>26.01</ele>
<time>2015-05-01T09:37:57Z</time>
</trkpt>
<trkpt lat="34.8151232" lon="33.5256835">
<ele>26.01</ele>
<time>2015-05-01T09:37:59Z</time>
</trkpt>
<trkpt lat="34.8151844" lon="33.5256060">
<ele>25.27</ele>
<time>2015-05-01T09:38:01Z</time>
</trkpt>
<trkpt lat="34.8152350" lon="33.5255215">
<ele>25.58</ele>
<time>2015-05-01T09:38:03Z</time>
</trkpt>
<trkpt lat="34.8152764" lon="33.5254449">
<ele>25.16</ele>
<time>2015-05-01T09:38:05Z</time>
</trkpt>
<trkpt lat="34.8153129" lon="33.5253631">
<ele>25.05</ele>
<time>2015-05-01T09:38:07Z</time>
</trkpt>
<trkpt lat="34.8153166" lon="33.5252806">
<ele>25.02</ele>
<time>2015-05-01T09:38:09Z</time>
</trkpt>
<trkpt lat="34.8152804" lon="33.5252142">
<ele>25.02</ele>
<time>2015-05-01T09:38:11Z</time>
</trkpt>
<trkpt lat="34.8152344" lon="33.5251481">
<ele>25.77</ele>
<time>2015-05-01T09:38:13Z</time>
</trkpt>
<trkpt lat="34.8151956" lon="33.5251159">
<ele>25.89</ele>
<time>2015-05-01T09:38:14Z</time>
</trkpt>
<trkpt lat="34.8151235" lon="33.5250532">
<ele>25.98</ele>
<time>2015-05-01T09:38:16Z</time>
</trkpt>
<trkpt lat="34.8150380" lon="33.5249872">
<ele>26.01</ele>
<time>2015-05-01T09:38:18Z</time>
</trkpt>
<trkpt lat="34.8150015" lon="33.5249552">
<ele>26.01</ele>
<time>2015-05-01T09:38:19Z</time>
</trkpt>
<trkpt lat="34.8149277" lon="33.5248934">
<ele>26.02</ele>
<time>2015-05-01T09:38:21Z</time>
</trkpt>
<trkpt lat="34.8148892" lon="33.5248611">
<ele>26.02</ele>
<time>2015-05-01T09:38:22Z</time>
</trkpt>
<trkpt lat="34.8148191" lon="33.5248022">
<ele>26.02</ele>
<time>2015-05-01T09:38:24Z</time>
</trkpt>
<trkpt lat="34.8147485" lon="33.5247462">
<ele>25.27</ele>
<time>2015-05-01T09:38:26Z</time>
</trkpt>
<trkpt lat="34.8147109" lon="33.5247152">
<ele>25.14</ele>
<time>2015-05-01T09:38:27Z</time>
</trkpt>
<trkpt lat="34.8146730" lon="33.5246840">
<ele>25.08</ele>
<time>2015-05-01T09:38:28Z</time>
</trkpt>
<trkpt lat="34.8145998" lon="33.5246283">
<ele>24.53</ele>
<time>2015-05-01T09:38:30Z</time>
</trkpt>
<trkpt lat="34.8145271" lon="33.5245647">
<ele>24.14</ele>
<time>2015-05-01T09:38:32Z</time>
</trkpt>
<trkpt lat="34.8144553" lon="33.5244990">
<ele>24.05</ele>
<time>2015-05-01T09:38:34Z</time>
</trkpt>
<trkpt lat="34.8143827" lon="33.5244391">
<ele>24.02</ele>
<time>2015-05-01T09:38:36Z</time>
</trkpt>
<trkpt lat="34.8143086" lon="33.5243772">
<ele>24.02</ele>
<time>2015-05-01T09:38:38Z</time>
</trkpt>
<trkpt lat="34.8142346" lon="33.5243161">
<ele>24.02</ele>
<time>2015-05-01T09:38:40Z</time>
</trkpt>
<trkpt lat="34.8141609" lon="33.5242564">
<ele>24.02</ele>
<time>2015-05-01T09:38:42Z</time>
</trkpt>
<trkpt lat="34.8140904" lon="33.5241951">
<ele>24.02</ele>
<time>2015-05-01T09:38:44Z</time>
</trkpt>
<trkpt lat="34.8140193" lon="33.5241354">
<ele>24.02</ele>
<time>2015-05-01T09:38:46Z</time>
</trkpt>
<trkpt lat="34.8139483" lon="33.5240747">
<ele>24.02</ele>
<time>2015-05-01T09:38:48Z</time>
</trkpt>
<trkpt lat="34.8138789" lon="33.5240118">
<ele>24.02</ele>
<time>2015-05-01T09:38:50Z</time>
</trkpt>
<trkpt lat="34.8138083" lon="33.5239502">
<ele>24.02</ele>
<time>2015-05-01T09:38:52Z</time>
</trkpt>
<trkpt lat="34.8137370" lon="33.5238884">
<ele>24.02</ele>
<time>2015-05-01T09:38:54Z</time>
</trkpt>
<trkpt lat="34.8136652" lon="33.5238267">
<ele>24.02</ele>
<time>2015-05-01T09:38:56Z</time>
</trkpt>
<trkpt lat="34.8135955" lon="33.5237625">
<ele>23.52</ele>
<time>2015-05-01T09:38:58Z</time>
</trkpt>
<trkpt lat="34.8135239" lon="33.5236974">
<ele>23.14</ele>
<time>2015-05-01T09:39:00Z</time>
</trkpt>
<trkpt lat="34.8134523" lon="33.5236336">
<ele>23.05</ele>
<time>2015-05-01T09:39:02Z</time>
</trkpt>
<trkpt lat="34.8133760" lon="33.5235764">
<ele>23.02</ele>
<time>2015-05-01T09:39:04Z</time>
</trkpt>
<trkpt lat="34.8133069" lon="33.5235115">
<ele>23.02</ele>
<time>2015-05-01T09:39:06Z</time>
</trkpt>
<trkpt lat="34.8132339" lon="33.5234477">
<ele>23.02</ele>
<time>2015-05-01T09:39:08Z</time>
</trkpt>
<trkpt lat="34.8131974" lon="33.5234152">
<ele>23.02</ele>
<time>2015-05-01T09:39:09Z</time>
</trkpt>
<trkpt lat="34.8131611" lon="33.5233810">
<ele>23.02</ele>
<time>2015-05-01T09:39:10Z</time>
</trkpt>
<trkpt lat="34.8130957" lon="33.5233195">
<ele>23.02</ele>
<time>2015-05-01T09:39:12Z</time>
</trkpt>
<trkpt lat="34.8130248" lon="33.5232569">
<ele>23.02</ele>
<time>2015-05-01T09:39:14Z</time>
</trkpt>
<trkpt lat="34.8129536" lon="33.5231961">
<ele>23.02</ele>
<time>2015-05-01T09:39:16Z</time>
</trkpt>
<trkpt lat="34.8129166" lon="33.5231649">
<ele>23.02</ele>
<time>2015-05-01T09:39:17Z</time>
</trkpt>
<trkpt lat="34.8128767" lon="33.5231356">
<ele>22.52</ele>
<time>2015-05-01T09:39:18Z</time>
</trkpt>
<trkpt lat="34.8128394" lon="33.5231040">
<ele>22.27</ele>
<time>2015-05-01T09:39:19Z</time>
</trkpt>
<trkpt lat="34.8127680" lon="33.5230386">
<ele>22.08</ele>
<time>2015-05-01T09:39:21Z</time>
</trkpt>
<trkpt lat="34.8127294" lon="33.5230091">
<ele>22.05</ele>
<time>2015-05-01T09:39:22Z</time>
</trkpt>
<trkpt lat="34.8126920" lon="33.5229770">
<ele>22.03</ele>
<time>2015-05-01T09:39:23Z</time>
</trkpt>
<trkpt lat="34.8126554" lon="33.5229397">
<ele>22.02</ele>
<time>2015-05-01T09:39:24Z</time>
</trkpt>
<trkpt lat="34.8126178" lon="33.5229069">
<ele>22.02</ele>
<time>2015-05-01T09:39:25Z</time>
</trkpt>
<trkpt lat="34.8125436" lon="33.5228489">
<ele>22.02</ele>
<time>2015-05-01T09:39:27Z</time>
</trkpt>
<trkpt lat="34.8125026" lon="33.5228172">
<ele>22.02</ele>
<time>2015-05-01T09:39:28Z</time>
</trkpt>
<trkpt lat="34.8124641" lon="33.5227832">
<ele>22.52</ele>
<time>2015-05-01T09:39:29Z</time>
</trkpt>
<trkpt lat="34.8123917" lon="33.5227239">
<ele>22.64</ele>
<time>2015-05-01T09:39:31Z</time>
</trkpt>
<trkpt lat="34.8123201" lon="33.5226635">
<ele>22.92</ele>
<time>2015-05-01T09:39:33Z</time>
</trkpt>
<trkpt lat="34.8122476" lon="33.5226021">
<ele>22.99</ele>
<time>2015-05-01T09:39:35Z</time>
</trkpt>
<trkpt lat="34.8121756" lon="33.5225386">
<ele>23.01</ele>
<time>2015-05-01T09:39:37Z</time>
</trkpt>
<trkpt lat="34.8121341" lon="33.5225064">
<ele>23.01</ele>
<time>2015-05-01T09:39:38Z</time>
</trkpt>
<trkpt lat="34.8120649" lon="33.5224432">
<ele>23.02</ele>
<time>2015-05-01T09:39:40Z</time>
</trkpt>
<trkpt lat="34.8119955" lon="33.5223802">
<ele>23.02</ele>
<time>2015-05-01T09:39:42Z</time>
</trkpt>
<trkpt lat="34.8119246" lon="33.5223163">
<ele>23.02</ele>
<time>2015-05-01T09:39:44Z</time>
</trkpt>
<trkpt lat="34.8118532" lon="33.5222524">
<ele>23.02</ele>
<time>2015-05-01T09:39:46Z</time>
</trkpt>
<trkpt lat="34.8118155" lon="33.5222215">
<ele>23.02</ele>
<time>2015-05-01T09:39:47Z</time>
</trkpt>
<trkpt lat="34.8117473" lon="33.5221556">
<ele>23.02</ele>
<time>2015-05-01T09:39:49Z</time>
</trkpt>
<trkpt lat="34.8117101" lon="33.5221216">
<ele>23.02</ele>
<time>2015-05-01T09:39:50Z</time>
</trkpt>
<trkpt lat="34.8116352" lon="33.5220594">
<ele>23.02</ele>
<time>2015-05-01T09:39:52Z</time>
</trkpt>
<trkpt lat="34.8115975" lon="33.5220277">
<ele>22.52</ele>
<time>2015-05-01T09:39:53Z</time>
</trkpt>
<trkpt lat="34.8115563" lon="33.5219945">
<ele>22.77</ele>
<time>2015-05-01T09:39:54Z</time>
</trkpt>
<trkpt lat="34.8115193" lon="33.5219612">
<ele>22.89</ele>
<time>2015-05-01T09:39:55Z</time>
</trkpt>
<trkpt lat="34.8114575" lon="33.5219076">
<ele>22.98</ele>
<time>2015-05-01T09:39:57Z</time>
</trkpt>
<trkpt lat="34.8113982" lon="33.5218501">
<ele>23.01</ele>
<time>2015-05-01T09:39:59Z</time>
</trkpt>
<trkpt lat="34.8113600" lon="33.5218199">
<ele>23.01</ele>
<time>2015-05-01T09:40:00Z</time>
</trkpt>
<trkpt lat="34.8112932" lon="33.5217564">
<ele>22.27</ele>
<time>2015-05-01T09:40:02Z</time>
</trkpt>
<trkpt lat="34.8112239" lon="33.5216956">
<ele>22.83</ele>
<time>2015-05-01T09:40:04Z</time>
</trkpt>
<trkpt lat="34.8111605" lon="33.5216382">
<ele>22.22</ele>
<time>2015-05-01T09:40:06Z</time>
</trkpt>
<trkpt lat="34.8110991" lon="33.5215865">
<ele>22.07</ele>
<time>2015-05-01T09:40:08Z</time>
</trkpt>
<trkpt lat="34.8110344" lon="33.5215384">
<ele>22.03</ele>
<time>2015-05-01T09:40:10Z</time>
</trkpt>
<trkpt lat="34.8109678" lon="33.5214848">
<ele>22.52</ele>
<time>2015-05-01T09:40:12Z</time>
</trkpt>
<trkpt lat="34.8109004" lon="33.5214278">
<ele>22.89</ele>
<time>2015-05-01T09:40:14Z</time>
</trkpt>
<trkpt lat="34.8108320" lon="33.5213712">
<ele>22.98</ele>
<time>2015-05-01T09:40:16Z</time>
</trkpt>
<trkpt lat="34.8107647" lon="33.5213150">
<ele>23.01</ele>
<time>2015-05-01T09:40:18Z</time>
</trkpt>
<trkpt lat="34.8106942" lon="33.5212544">
<ele>22.26</ele>
<time>2015-05-01T09:40:20Z</time>
</trkpt>
<trkpt lat="34.8106271" lon="33.5211947">
<ele>22.58</ele>
<time>2015-05-01T09:40:22Z</time>
</trkpt>
<trkpt lat="34.8105607" lon="33.5211332">
<ele>22.41</ele>
<time>2015-05-01T09:40:24Z</time>
</trkpt>
<trkpt lat="34.8104915" lon="33.5210722">
<ele>22.11</ele>
<time>2015-05-01T09:40:26Z</time>
</trkpt>
<trkpt lat="34.8104208" lon="33.5210093">
<ele>22.04</ele>
<time>2015-05-01T09:40:28Z</time>
</trkpt>
<trkpt lat="34.8103383" lon="33.5209355">
<ele>22.02</ele>
<time>2015-05-01T09:40:30Z</time>
</trkpt>
<trkpt lat="34.8103021" lon="33.5209018">
<ele>22.02</ele>
<time>2015-05-01T09:40:31Z</time>
</trkpt>
<trkpt lat="34.8102613" lon="33.5208674">
<ele>22.02</ele>
<time>2015-05-01T09:40:32Z</time>
</trkpt>
<trkpt lat="34.8102199" lon="33.5208372">
<ele>22.02</ele>
<time>2015-05-01T09:40:33Z</time>
</trkpt>
<trkpt lat="34.8101792" lon="33.5207992">
<ele>22.52</ele>
<time>2015-05-01T09:40:34Z</time>
</trkpt>
<trkpt lat="34.8101398" lon="33.5207647">
<ele>22.77</ele>
<time>2015-05-01T09:40:35Z</time>
</trkpt>
<trkpt lat="34.8100986" lon="33.5207301">
<ele>22.89</ele>
<time>2015-05-01T09:40:36Z</time>
</trkpt>
<trkpt lat="34.8100580" lon="33.5206966">
<ele>22.45</ele>
<time>2015-05-01T09:40:37Z</time>
</trkpt>
<trkpt lat="34.8099850" lon="33.5206281">
<ele>22.38</ele>
<time>2015-05-01T09:40:39Z</time>
</trkpt>
<trkpt lat="34.8099467" lon="33.5205994">
<ele>22.20</ele>
<time>2015-05-01T09:40:40Z</time>
</trkpt>
<trkpt lat="34.8099088" lon="33.5205662">
<ele>22.11</ele>
<time>2015-05-01T09:40:41Z</time>
</trkpt>
<trkpt lat="34.8098676" lon="33.5205346">
<ele>22.06</ele>
<time>2015-05-01T09:40:42Z</time>
</trkpt>
<trkpt lat="34.8098294" lon="33.5205012">
<ele>22.04</ele>
<time>2015-05-01T09:40:43Z</time>
</trkpt>
<trkpt lat="34.8097913" lon="33.5204690">
<ele>22.03</ele>
<time>2015-05-01T09:40:44Z</time>
</trkpt>
<trkpt lat="34.8097538" lon="33.5204344">
<ele>22.02</ele>
<time>2015-05-01T09:40:45Z</time>
</trkpt>
<trkpt lat="34.8096866" lon="33.5203762">
<ele>21.52</ele>
<time>2015-05-01T09:40:47Z</time>
</trkpt>
<trkpt lat="34.8096208" lon="33.5203126">
<ele>21.89</ele>
<time>2015-05-01T09:40:49Z</time>
</trkpt>
<trkpt lat="34.8095629" lon="33.5202514">
<ele>21.98</ele>
<time>2015-05-01T09:40:51Z</time>
</trkpt>
<trkpt lat="34.8094917" lon="33.5201908">
<ele>22.01</ele>
<time>2015-05-01T09:40:53Z</time>
</trkpt>
<trkpt lat="34.8094523" lon="33.5201568">
<ele>22.01</ele>
<time>2015-05-01T09:40:54Z</time>
</trkpt>
<trkpt lat="34.8093774" lon="33.5200941">
<ele>22.02</ele>
<time>2015-05-01T09:40:56Z</time>
</trkpt>
<trkpt lat="34.8093401" lon="33.5200614">
<ele>22.02</ele>
<time>2015-05-01T09:40:57Z</time>
</trkpt>
<trkpt lat="34.8093104" lon="33.5200182">
<ele>22.02</ele>
<time>2015-05-01T09:40:58Z</time>
</trkpt>
<trkpt lat="34.8092744" lon="33.5199841">
<ele>22.02</ele>
<time>2015-05-01T09:40:59Z</time>
</trkpt>
<trkpt lat="34.8092354" lon="33.5199457">
<ele>21.52</ele>
<time>2015-05-01T09:41:00Z</time>
</trkpt>
<trkpt lat="34.8091983" lon="33.5199121">
<ele>21.27</ele>
<time>2015-05-01T09:41:01Z</time>
</trkpt>
<trkpt lat="34.8091563" lon="33.5198721">
<ele>21.14</ele>
<time>2015-05-01T09:41:02Z</time>
</trkpt>
<trkpt lat="34.8091194" lon="33.5198370">
<ele>21.08</ele>
<time>2015-05-01T09:41:03Z</time>
</trkpt>
<trkpt lat="34.8090771" lon="33.5197977">
<ele>21.55</ele>
<time>2015-05-01T09:41:04Z</time>
</trkpt>
<trkpt lat="34.8090368" lon="33.5197609">
<ele>21.28</ele>
<time>2015-05-01T09:41:05Z</time>
</trkpt>
<trkpt lat="34.8089972" lon="33.5197248">
<ele>21.15</ele>
<time>2015-05-01T09:41:06Z</time>
</trkpt>
<trkpt lat="34.8089203" lon="33.5196619">
<ele>21.80</ele>
<time>2015-05-01T09:41:08Z</time>
</trkpt>
<trkpt lat="34.8088804" lon="33.5196247">
<ele>21.91</ele>
<time>2015-05-01T09:41:09Z</time>
</trkpt>
<trkpt lat="34.8088361" lon="33.5195873">
<ele>21.96</ele>
<time>2015-05-01T09:41:10Z</time>
</trkpt>
<trkpt lat="34.8087952" lon="33.5195497">
<ele>21.99</ele>
<time>2015-05-01T09:41:11Z</time>
</trkpt>
<trkpt lat="34.8087588" lon="33.5195078">
<ele>22.00</ele>
<time>2015-05-01T09:41:12Z</time>
</trkpt>
<trkpt lat="34.8087186" lon="33.5194703">
<ele>22.01</ele>
<time>2015-05-01T09:41:13Z</time>
</trkpt>
<trkpt lat="34.8086766" lon="33.5194382">
<ele>22.01</ele>
<time>2015-05-01T09:41:14Z</time>
</trkpt>
<trkpt lat="34.8086368" lon="33.5194015">
<ele>22.01</ele>
<time>2015-05-01T09:41:15Z</time>
</trkpt>
<trkpt lat="34.8085998" lon="33.5193702">
<ele>22.02</ele>
<time>2015-05-01T09:41:16Z</time>
</trkpt>
<trkpt lat="34.8085610" lon="33.5193348">
<ele>22.02</ele>
<time>2015-05-01T09:41:17Z</time>
</trkpt>
<trkpt lat="34.8084948" lon="33.5192653">
<ele>22.02</ele>
<time>2015-05-01T09:41:19Z</time>
</trkpt>
<trkpt lat="34.8084592" lon="33.5192264">
<ele>22.02</ele>
<time>2015-05-01T09:41:20Z</time>
</trkpt>
<trkpt lat="34.8084157" lon="33.5191934">
<ele>22.02</ele>
<time>2015-05-01T09:41:21Z</time>
</trkpt>
<trkpt lat="34.8083789" lon="33.5191533">
<ele>22.52</ele>
<time>2015-05-01T09:41:22Z</time>
</trkpt>
<trkpt lat="34.8083090" lon="33.5190910">
<ele>22.14</ele>
<time>2015-05-01T09:41:24Z</time>
</trkpt>
<trkpt lat="34.8082372" lon="33.5190202">
<ele>22.55</ele>
<time>2015-05-01T09:41:26Z</time>
</trkpt>
<trkpt lat="34.8082023" lon="33.5189844">
<ele>22.78</ele>
<time>2015-05-01T09:41:27Z</time>
</trkpt>
<trkpt lat="34.8081642" lon="33.5189478">
<ele>22.90</ele>
<time>2015-05-01T09:41:28Z</time>
</trkpt>
<trkpt lat="34.8081276" lon="33.5189136">
<ele>22.96</ele>
<time>2015-05-01T09:41:29Z</time>
</trkpt>
<trkpt lat="34.8080956" lon="33.5188711">
<ele>22.99</ele>
<time>2015-05-01T09:41:30Z</time>
</trkpt>
<trkpt lat="34.8080603" lon="33.5188360">
<ele>23.00</ele>
<time>2015-05-01T09:41:31Z</time>
</trkpt>
<trkpt lat="34.8080215" lon="33.5188034">
<ele>23.01</ele>
<time>2015-05-01T09:41:32Z</time>
</trkpt>
<trkpt lat="34.8079576" lon="33.5187348">
<ele>23.01</ele>
<time>2015-05-01T09:41:34Z</time>
</trkpt>
<trkpt lat="34.8078954" lon="33.5186852">
<ele>23.02</ele>
<time>2015-05-01T09:41:36Z</time>
</trkpt>
<trkpt lat="34.8078364" lon="33.5186144">
<ele>23.02</ele>
<time>2015-05-01T09:41:38Z</time>
</trkpt>
<trkpt lat="34.8077743" lon="33.5185447">
<ele>23.02</ele>
<time>2015-05-01T09:41:40Z</time>
</trkpt>
<trkpt lat="34.8077368" lon="33.5185124">
<ele>23.02</ele>
<time>2015-05-01T09:41:41Z</time>
</trkpt>
<trkpt lat="34.8077015" lon="33.5184764">
<ele>23.02</ele>
<time>2015-05-01T09:41:42Z</time>
</trkpt>
<trkpt lat="34.8076651" lon="33.5184398">
<ele>23.02</ele>
<time>2015-05-01T09:41:43Z</time>
</trkpt>
<trkpt lat="34.8075951" lon="33.5183727">
<ele>23.02</ele>
<time>2015-05-01T09:41:45Z</time>
</trkpt>
<trkpt lat="34.8075287" lon="33.5183024">
<ele>23.02</ele>
<time>2015-05-01T09:41:47Z</time>
</trkpt>
<trkpt lat="34.8074941" lon="33.5182638">
<ele>23.02</ele>
<time>2015-05-01T09:41:48Z</time>
</trkpt>
<trkpt lat="34.8074200" lon="33.5182038">
<ele>23.02</ele>
<time>2015-05-01T09:41:50Z</time>
</trkpt>
<trkpt lat="34.8073821" lon="33.5181737">
<ele>23.02</ele>
<time>2015-05-01T09:41:51Z</time>
</trkpt>
<trkpt lat="34.8073398" lon="33.5181395">
<ele>22.52</ele>
<time>2015-05-01T09:41:52Z</time>
</trkpt>
<trkpt lat="34.8073010" lon="33.5181056">
<ele>22.27</ele>
<time>2015-05-01T09:41:53Z</time>
</trkpt>
<trkpt lat="34.8072612" lon="33.5180697">
<ele>22.14</ele>
<time>2015-05-01T09:41:54Z</time>
</trkpt>
<trkpt lat="34.8072209" lon="33.5180330">
<ele>21.58</ele>
<time>2015-05-01T09:41:55Z</time>
</trkpt>
<trkpt lat="34.8071780" lon="33.5179938">
<ele>21.30</ele>
<time>2015-05-01T09:41:56Z</time>
</trkpt>
<trkpt lat="34.8071358" lon="33.5179574">
<ele>21.16</ele>
<time>2015-05-01T09:41:57Z</time>
</trkpt>
<trkpt lat="34.8070922" lon="33.5179222">
<ele>21.09</ele>
<time>2015-05-01T09:41:58Z</time>
</trkpt>
<trkpt lat="34.8070498" lon="33.5178862">
<ele>20.55</ele>
<time>2015-05-01T09:41:59Z</time>
</trkpt>
<trkpt lat="34.8070030" lon="33.5178512">
<ele>19.78</ele>
<time>2015-05-01T09:42:00Z</time>
</trkpt>
<trkpt lat="34.8069588" lon="33.5178138">
<ele>19.40</ele>
<time>2015-05-01T09:42:01Z</time>
</trkpt>
<trkpt lat="34.8069121" lon="33.5177715">
<ele>19.71</ele>
<time>2015-05-01T09:42:02Z</time>
</trkpt>
<trkpt lat="34.8068676" lon="33.5177330">
<ele>19.36</ele>
<time>2015-05-01T09:42:03Z</time>
</trkpt>
<trkpt lat="34.8068211" lon="33.5176936">
<ele>19.69</ele>
<time>2015-05-01T09:42:04Z</time>
</trkpt>
<trkpt lat="34.8067752" lon="33.5176557">
<ele>19.85</ele>
<time>2015-05-01T09:42:05Z</time>
</trkpt>
<trkpt lat="34.8067277" lon="33.5176244">
<ele>19.93</ele>
<time>2015-05-01T09:42:06Z</time>
</trkpt>
<trkpt lat="34.8066822" lon="33.5175880">
<ele>19.98</ele>
<time>2015-05-01T09:42:07Z</time>
</trkpt>
<trkpt lat="34.8066404" lon="33.5175464">
<ele>19.50</ele>
<time>2015-05-01T09:42:08Z</time>
</trkpt>
<trkpt lat="34.8066027" lon="33.5175019">
<ele>19.76</ele>
<time>2015-05-01T09:42:09Z</time>
</trkpt>
<trkpt lat="34.8065566" lon="33.5174611">
<ele>19.39</ele>
<time>2015-05-01T09:42:10Z</time>
</trkpt>
<trkpt lat="34.8065148" lon="33.5174236">
<ele>19.20</ele>
<time>2015-05-01T09:42:11Z</time>
</trkpt>
<trkpt lat="34.8064673" lon="33.5173798">
<ele>19.11</ele>
<time>2015-05-01T09:42:12Z</time>
</trkpt>
<trkpt lat="34.8064243" lon="33.5173379">
<ele>19.06</ele>
<time>2015-05-01T09:42:13Z</time>
</trkpt>
<trkpt lat="34.8063805" lon="33.5172945">
<ele>19.04</ele>
<time>2015-05-01T09:42:14Z</time>
</trkpt>
<trkpt lat="34.8063384" lon="33.5172520">
<ele>19.03</ele>
<time>2015-05-01T09:42:15Z</time>
</trkpt>
<trkpt lat="34.8062953" lon="33.5172105">
<ele>19.52</ele>
<time>2015-05-01T09:42:16Z</time>
</trkpt>
<trkpt lat="34.8062542" lon="33.5171685">
<ele>19.77</ele>
<time>2015-05-01T09:42:17Z</time>
</trkpt>
<trkpt lat="34.8062113" lon="33.5171293">
<ele>19.89</ele>
<time>2015-05-01T09:42:18Z</time>
</trkpt>
<trkpt lat="34.8061712" lon="33.5170874">
<ele>19.95</ele>
<time>2015-05-01T09:42:19Z</time>
</trkpt>
<trkpt lat="34.8061327" lon="33.5170409">
<ele>19.99</ele>
<time>2015-05-01T09:42:20Z</time>
</trkpt>
<trkpt lat="34.8060922" lon="33.5169969">
<ele>20.00</ele>
<time>2015-05-01T09:42:21Z</time>
</trkpt>
<trkpt lat="34.8060534" lon="33.5169463">
<ele>20.01</ele>
<time>2015-05-01T09:42:22Z</time>
</trkpt>
<trkpt lat="34.8060200" lon="33.5168966">
<ele>20.01</ele>
<time>2015-05-01T09:42:23Z</time>
</trkpt>
<trkpt lat="34.8059805" lon="33.5168460">
<ele>20.01</ele>
<time>2015-05-01T09:42:24Z</time>
</trkpt>
<trkpt lat="34.8059366" lon="33.5167949">
<ele>19.52</ele>
<time>2015-05-01T09:42:25Z</time>
</trkpt>
<trkpt lat="34.8058936" lon="33.5167460">
<ele>19.27</ele>
<time>2015-05-01T09:42:26Z</time>
</trkpt>
<trkpt lat="34.8058526" lon="33.5166960">
<ele>19.14</ele>
<time>2015-05-01T09:42:27Z</time>
</trkpt>
<trkpt lat="34.8058128" lon="33.5166512">
<ele>19.08</ele>
<time>2015-05-01T09:42:28Z</time>
</trkpt>
<trkpt lat="34.8057739" lon="33.5166012">
<ele>19.05</ele>
<time>2015-05-01T09:42:29Z</time>
</trkpt>
<trkpt lat="34.8057318" lon="33.5165511">
<ele>19.03</ele>
<time>2015-05-01T09:42:30Z</time>
</trkpt>
<trkpt lat="34.8056923" lon="33.5165004">
<ele>19.02</ele>
<time>2015-05-01T09:42:31Z</time>
</trkpt>
<trkpt lat="34.8056539" lon="33.5164442">
<ele>19.02</ele>
<time>2015-05-01T09:42:32Z</time>
</trkpt>
<trkpt lat="34.8056168" lon="33.5163935">
<ele>19.02</ele>
<time>2015-05-01T09:42:33Z</time>
</trkpt>
<trkpt lat="34.8055832" lon="33.5163398">
<ele>19.02</ele>
<time>2015-05-01T09:42:34Z</time>
</trkpt>
<trkpt lat="34.8055480" lon="33.5162889">
<ele>19.02</ele>
<time>2015-05-01T09:42:35Z</time>
</trkpt>
<trkpt lat="34.8055170" lon="33.5162353">
<ele>19.52</ele>
<time>2015-05-01T09:42:36Z</time>
</trkpt>
<trkpt lat="34.8054823" lon="33.5161848">
<ele>19.77</ele>
<time>2015-05-01T09:42:37Z</time>
</trkpt>
<trkpt lat="34.8054515" lon="33.5161280">
<ele>19.89</ele>
<time>2015-05-01T09:42:38Z</time>
</trkpt>
<trkpt lat="34.8054210" lon="33.5160757">
<ele>19.95</ele>
<time>2015-05-01T09:42:39Z</time>
</trkpt>
<trkpt lat="34.8053856" lon="33.5160183">
<ele>19.98</ele>
<time>2015-05-01T09:42:40Z</time>
</trkpt>
<trkpt lat="34.8053576" lon="33.5159689">
<ele>19.50</ele>
<time>2015-05-01T09:42:41Z</time>
</trkpt>
<trkpt lat="34.8053265" lon="33.5159150">
<ele>19.26</ele>
<time>2015-05-01T09:42:42Z</time>
</trkpt>
<trkpt lat="34.8052929" lon="33.5158600">
<ele>19.64</ele>
<time>2015-05-01T09:42:43Z</time>
</trkpt>
<trkpt lat="34.8052606" lon="33.5158025">
<ele>19.83</ele>
<time>2015-05-01T09:42:44Z</time>
</trkpt>
<trkpt lat="34.8052287" lon="33.5157484">
<ele>19.92</ele>
<time>2015-05-01T09:42:45Z</time>
</trkpt>
<trkpt lat="34.8052026" lon="33.5156910">
<ele>19.47</ele>
<time>2015-05-01T09:42:46Z</time>
</trkpt>
<trkpt lat="34.8051738" lon="33.5156361">
<ele>19.24</ele>
<time>2015-05-01T09:42:47Z</time>
</trkpt>
<trkpt lat="34.8051423" lon="33.5155836">
<ele>19.13</ele>
<time>2015-05-01T09:42:48Z</time>
</trkpt>
<trkpt lat="34.8051130" lon="33.5155284">
<ele>19.07</ele>
<time>2015-05-01T09:42:49Z</time>
</trkpt>
<trkpt lat="34.8050802" lon="33.5154724">
<ele>19.04</ele>
<time>2015-05-01T09:42:50Z</time>
</trkpt>
<trkpt lat="34.8050519" lon="33.5154165">
<ele>19.03</ele>
<time>2015-05-01T09:42:51Z</time>
</trkpt>
<trkpt lat="34.8050217" lon="33.5153532">
<ele>18.52</ele>
<time>2015-05-01T09:42:52Z</time>
</trkpt>
<trkpt lat="34.8049904" lon="33.5153013">
<ele>18.27</ele>
<time>2015-05-01T09:42:53Z</time>
</trkpt>
<trkpt lat="34.8049667" lon="33.5152496">
<ele>18.14</ele>
<time>2015-05-01T09:42:54Z</time>
</trkpt>
<trkpt lat="34.8049390" lon="33.5151948">
<ele>18.08</ele>
<time>2015-05-01T09:42:55Z</time>
</trkpt>
<trkpt lat="34.8049203" lon="33.5151374">
<ele>18.05</ele>
<time>2015-05-01T09:42:56Z</time>
</trkpt>
<trkpt lat="34.8048935" lon="33.5150826">
<ele>18.03</ele>
<time>2015-05-01T09:42:57Z</time>
</trkpt>
<trkpt lat="34.8048746" lon="33.5150229">
<ele>18.02</ele>
<time>2015-05-01T09:42:58Z</time>
</trkpt>
<trkpt lat="34.8048279" lon="33.5149269">
<ele>18.02</ele>
<time>2015-05-01T09:43:00Z</time>
</trkpt>
<trkpt lat="34.8048040" lon="33.5148735">
<ele>18.02</ele>
<time>2015-05-01T09:43:01Z</time>
</trkpt>
<trkpt lat="34.8047844" lon="33.5148104">
<ele>18.02</ele>
<time>2015-05-01T09:43:02Z</time>
</trkpt>
<trkpt lat="34.8047645" lon="33.5147540">
<ele>18.02</ele>
<time>2015-05-01T09:43:03Z</time>
</trkpt>
<trkpt lat="34.8047406" lon="33.5146918">
<ele>19.02</ele>
<time>2015-05-01T09:43:04Z</time>
</trkpt>
<trkpt lat="34.8047180" lon="33.5146366">
<ele>19.52</ele>
<time>2015-05-01T09:43:05Z</time>
</trkpt>
<trkpt lat="34.8046919" lon="33.5145895">
<ele>20.27</ele>
<time>2015-05-01T09:43:06Z</time>
</trkpt>
<trkpt lat="34.8046679" lon="33.5145343">
<ele>20.64</ele>
<time>2015-05-01T09:43:07Z</time>
</trkpt>
<trkpt lat="34.8046461" lon="33.5144775">
<ele>20.83</ele>
<time>2015-05-01T09:43:08Z</time>
</trkpt>
<trkpt lat="34.8046223" lon="33.5144216">
<ele>20.92</ele>
<time>2015-05-01T09:43:09Z</time>
</trkpt>
<trkpt lat="34.8045914" lon="33.5143658">
<ele>21.47</ele>
<time>2015-05-01T09:43:10Z</time>
</trkpt>
<trkpt lat="34.8045673" lon="33.5143122">
<ele>21.74</ele>
<time>2015-05-01T09:43:11Z</time>
</trkpt>
<trkpt lat="34.8045515" lon="33.5142607">
<ele>22.38</ele>
<time>2015-05-01T09:43:12Z</time>
</trkpt>
<trkpt lat="34.8045302" lon="33.5142070">
<ele>22.20</ele>
<time>2015-05-01T09:43:13Z</time>
</trkpt>
<trkpt lat="34.8045055" lon="33.5141561">
<ele>22.11</ele>
<time>2015-05-01T09:43:14Z</time>
</trkpt>
<trkpt lat="34.8044791" lon="33.5141068">
<ele>22.06</ele>
<time>2015-05-01T09:43:15Z</time>
</trkpt>
<trkpt lat="34.8044535" lon="33.5140548">
<ele>22.04</ele>
<time>2015-05-01T09:43:16Z</time>
</trkpt>
<trkpt lat="34.8044298" lon="33.5139955">
<ele>21.53</ele>
<time>2015-05-01T09:43:17Z</time>
</trkpt>
<trkpt lat="34.8044065" lon="33.5139440">
<ele>21.77</ele>
<time>2015-05-01T09:43:18Z</time>
</trkpt>
<trkpt lat="34.8043825" lon="33.5138942">
<ele>21.89</ele>
<time>2015-05-01T09:43:19Z</time>
</trkpt>
<trkpt lat="34.8043622" lon="33.5138428">
<ele>21.95</ele>
<time>2015-05-01T09:43:20Z</time>
</trkpt>
<trkpt lat="34.8043210" lon="33.5137463">
<ele>22.50</ele>
<time>2015-05-01T09:43:22Z</time>
</trkpt>
<trkpt lat="34.8042800" lon="33.5136560">
<ele>22.89</ele>
<time>2015-05-01T09:43:24Z</time>
</trkpt>
<trkpt lat="34.8042383" lon="33.5135706">
<ele>22.98</ele>
<time>2015-05-01T09:43:26Z</time>
</trkpt>
<trkpt lat="34.8041948" lon="33.5134710">
<ele>23.01</ele>
<time>2015-05-01T09:43:28Z</time>
</trkpt>
<trkpt lat="34.8041565" lon="33.5133715">
<ele>23.01</ele>
<time>2015-05-01T09:43:30Z</time>
</trkpt>
<trkpt lat="34.8041156" lon="33.5132749">
<ele>23.02</ele>
<time>2015-05-01T09:43:32Z</time>
</trkpt>
<trkpt lat="34.8040764" lon="33.5131783">
<ele>23.02</ele>
<time>2015-05-01T09:43:34Z</time>
</trkpt>
<trkpt lat="34.8040385" lon="33.5130828">
<ele>23.02</ele>
<time>2015-05-01T09:43:36Z</time>
</trkpt>
<trkpt lat="34.8039946" lon="33.5129906">
<ele>23.02</ele>
<time>2015-05-01T09:43:38Z</time>
</trkpt>
<trkpt lat="34.8039506" lon="33.5128982">
<ele>23.27</ele>
<time>2015-05-01T09:43:40Z</time>
</trkpt>
<trkpt lat="34.8039090" lon="33.5128035">
<ele>23.08</ele>
<time>2015-05-01T09:43:42Z</time>
</trkpt>
<trkpt lat="34.8038660" lon="33.5127102">
<ele>23.03</ele>
<time>2015-05-01T09:43:44Z</time>
</trkpt>
<trkpt lat="34.8038252" lon="33.5126178">
<ele>23.02</ele>
<time>2015-05-01T09:43:46Z</time>
</trkpt>
<trkpt lat="34.8037857" lon="33.5125281">
<ele>23.02</ele>
<time>2015-05-01T09:43:48Z</time>
</trkpt>
<trkpt lat="34.8037462" lon="33.5124379">
<ele>22.52</ele>
<time>2015-05-01T09:43:50Z</time>
</trkpt>
<trkpt lat="34.8037096" lon="33.5123463">
<ele>22.89</ele>
<time>2015-05-01T09:43:52Z</time>
</trkpt>
<trkpt lat="34.8036709" lon="33.5122546">
<ele>22.98</ele>
<time>2015-05-01T09:43:54Z</time>
</trkpt>
<trkpt lat="34.8036353" lon="33.5121670">
<ele>23.01</ele>
<time>2015-05-01T09:43:56Z</time>
</trkpt>
<trkpt lat="34.8036066" lon="33.5121014">
<ele>23.51</ele>
<time>2015-05-01T09:43:58Z</time>
</trkpt>
<trkpt lat="34.8035779" lon="33.5120415">
<ele>23.89</ele>
<time>2015-05-01T09:44:00Z</time>
</trkpt>
<trkpt lat="34.8035565" lon="33.5119818">
<ele>23.98</ele>
<time>2015-05-01T09:44:02Z</time>
</trkpt>
<trkpt lat="34.8035331" lon="33.5119264">
<ele>24.01</ele>
<time>2015-05-01T09:44:04Z</time>
</trkpt>
<trkpt lat="34.8035085" lon="33.5118658">
<ele>24.01</ele>
<time>2015-05-01T09:44:06Z</time>
</trkpt>
<trkpt lat="34.8034785" lon="33.5117896">
<ele>24.02</ele>
<time>2015-05-01T09:44:08Z</time>
</trkpt>
<trkpt lat="34.8034412" lon="33.5117064">
<ele>24.02</ele>
<time>2015-05-01T09:44:10Z</time>
</trkpt>
<trkpt lat="34.8034014" lon="33.5116174">
<ele>24.02</ele>
<time>2015-05-01T09:44:12Z</time>
</trkpt>
<trkpt lat="34.8033618" lon="33.5115257">
<ele>23.52</ele>
<time>2015-05-01T09:44:14Z</time>
</trkpt>
<trkpt lat="34.8033104" lon="33.5114176">
<ele>23.64</ele>
<time>2015-05-01T09:44:16Z</time>
</trkpt>
<trkpt lat="34.8032672" lon="33.5113277">
<ele>23.92</ele>
<time>2015-05-01T09:44:18Z</time>
</trkpt>
<trkpt lat="34.8032302" lon="33.5112462">
<ele>23.99</ele>
<time>2015-05-01T09:44:20Z</time>
</trkpt>
<trkpt lat="34.8031972" lon="33.5111679">
<ele>24.01</ele>
<time>2015-05-01T09:44:22Z</time>
</trkpt>
<trkpt lat="34.8031666" lon="33.5110852">
<ele>24.01</ele>
<time>2015-05-01T09:44:24Z</time>
</trkpt>
<trkpt lat="34.8031277" lon="33.5110144">
<ele>24.02</ele>
<time>2015-05-01T09:44:26Z</time>
</trkpt>
<trkpt lat="34.8030955" lon="33.5109374">
<ele>24.52</ele>
<time>2015-05-01T09:44:28Z</time>
</trkpt>
<trkpt lat="34.8030658" lon="33.5108593">
<ele>24.39</ele>
<time>2015-05-01T09:44:30Z</time>
</trkpt>
<trkpt lat="34.8030331" lon="33.5107803">
<ele>24.36</ele>
<time>2015-05-01T09:44:32Z</time>
</trkpt>
<trkpt lat="34.8029965" lon="33.5107002">
<ele>24.10</ele>
<time>2015-05-01T09:44:34Z</time>
</trkpt>
<trkpt lat="34.8029629" lon="33.5106213">
<ele>24.04</ele>
<time>2015-05-01T09:44:36Z</time>
</trkpt>
<trkpt lat="34.8029364" lon="33.5105527">
<ele>24.02</ele>
<time>2015-05-01T09:44:38Z</time>
</trkpt>
<trkpt lat="34.8029049" lon="33.5104792">
<ele>24.02</ele>
<time>2015-05-01T09:44:40Z</time>
</trkpt>
<trkpt lat="34.8028718" lon="33.5104016">
<ele>24.02</ele>
<time>2015-05-01T09:44:42Z</time>
</trkpt>
<trkpt lat="34.8028399" lon="33.5103253">
<ele>24.02</ele>
<time>2015-05-01T09:44:44Z</time>
</trkpt>
<trkpt lat="34.8028068" lon="33.5102510">
<ele>24.02</ele>
<time>2015-05-01T09:44:46Z</time>
</trkpt>
<trkpt lat="34.8027701" lon="33.5101776">
<ele>23.77</ele>
<time>2015-05-01T09:44:48Z</time>
</trkpt>
<trkpt lat="34.8027308" lon="33.5100859">
<ele>23.45</ele>
<time>2015-05-01T09:44:50Z</time>
</trkpt>
<trkpt lat="34.8026881" lon="33.5099830">
<ele>23.13</ele>
<time>2015-05-01T09:44:52Z</time>
</trkpt>
<trkpt lat="34.8026533" lon="33.5098855">
<ele>23.04</ele>
<time>2015-05-01T09:44:54Z</time>
</trkpt>
<trkpt lat="34.8026102" lon="33.5097937">
<ele>23.02</ele>
<time>2015-05-01T09:44:56Z</time>
</trkpt>
<trkpt lat="34.8025904" lon="33.5097444">
<ele>23.02</ele>
<time>2015-05-01T09:44:57Z</time>
</trkpt>
<trkpt lat="34.8025489" lon="33.5096506">
<ele>23.02</ele>
<time>2015-05-01T09:44:59Z</time>
</trkpt>
<trkpt lat="34.8025238" lon="33.5095960">
<ele>23.02</ele>
<time>2015-05-01T09:45:00Z</time>
</trkpt>
<trkpt lat="34.8025031" lon="33.5095450">
<ele>23.02</ele>
<time>2015-05-01T09:45:01Z</time>
</trkpt>
<trkpt lat="34.8024775" lon="33.5094887">
<ele>22.52</ele>
<time>2015-05-01T09:45:02Z</time>
</trkpt>
<trkpt lat="34.8024548" lon="33.5094363">
<ele>22.27</ele>
<time>2015-05-01T09:45:03Z</time>
</trkpt>
<trkpt lat="34.8024158" lon="33.5093436">
<ele>22.08</ele>
<time>2015-05-01T09:45:05Z</time>
</trkpt>
<trkpt lat="34.8023924" lon="33.5092942">
<ele>22.05</ele>
<time>2015-05-01T09:45:06Z</time>
</trkpt>
<trkpt lat="34.8023567" lon="33.5092001">
<ele>22.02</ele>
<time>2015-05-01T09:45:08Z</time>
</trkpt>
<trkpt lat="34.8023110" lon="33.5090976">
<ele>22.02</ele>
<time>2015-05-01T09:45:10Z</time>
</trkpt>
<trkpt lat="34.8022880" lon="33.5090500">
<ele>22.02</ele>
<time>2015-05-01T09:45:11Z</time>
</trkpt>
<trkpt lat="34.8022639" lon="33.5089944">
<ele>22.02</ele>
<time>2015-05-01T09:45:12Z</time>
</trkpt>
<trkpt lat="34.8022182" lon="33.5089019">
<ele>22.02</ele>
<time>2015-05-01T09:45:14Z</time>
</trkpt>
<trkpt lat="34.8021780" lon="33.5088064">
<ele>22.02</ele>
<time>2015-05-01T09:45:16Z</time>
</trkpt>
<trkpt lat="34.8021360" lon="33.5087052">
<ele>22.02</ele>
<time>2015-05-01T09:45:18Z</time>
</trkpt>
<trkpt lat="34.8021141" lon="33.5086570">
<ele>22.02</ele>
<time>2015-05-01T09:45:19Z</time>
</trkpt>
<trkpt lat="34.8020715" lon="33.5085656">
<ele>22.02</ele>
<time>2015-05-01T09:45:21Z</time>
</trkpt>
<trkpt lat="34.8020382" lon="33.5084919">
<ele>22.77</ele>
<time>2015-05-01T09:45:23Z</time>
</trkpt>
<trkpt lat="34.8019948" lon="33.5084071">
<ele>22.95</ele>
<time>2015-05-01T09:45:25Z</time>
</trkpt>
<trkpt lat="34.8019567" lon="33.5083157">
<ele>23.00</ele>
<time>2015-05-01T09:45:27Z</time>
</trkpt>
<trkpt lat="34.8019349" lon="33.5082676">
<ele>23.01</ele>
<time>2015-05-01T09:45:28Z</time>
</trkpt>
<trkpt lat="34.8018920" lon="33.5081767">
<ele>23.01</ele>
<time>2015-05-01T09:45:30Z</time>
</trkpt>
<trkpt lat="34.8018524" lon="33.5080872">
<ele>23.52</ele>
<time>2015-05-01T09:45:32Z</time>
</trkpt>
<trkpt lat="34.8018146" lon="33.5079977">
<ele>23.89</ele>
<time>2015-05-01T09:45:34Z</time>
</trkpt>
<trkpt lat="34.8017722" lon="33.5079108">
<ele>24.73</ele>
<time>2015-05-01T09:45:36Z</time>
</trkpt>
<trkpt lat="34.8017284" lon="33.5078265">
<ele>24.95</ele>
<time>2015-05-01T09:45:38Z</time>
</trkpt>
<trkpt lat="34.8016855" lon="33.5077477">
<ele>25.75</ele>
<time>2015-05-01T09:45:40Z</time>
</trkpt>
<trkpt lat="34.8016491" lon="33.5076808">
<ele>25.95</ele>
<time>2015-05-01T09:45:42Z</time>
</trkpt>
<trkpt lat="34.8016189" lon="33.5076271">
<ele>26.00</ele>
<time>2015-05-01T09:45:44Z</time>
</trkpt>
<trkpt lat="34.8015910" lon="33.5075777">
<ele>27.26</ele>
<time>2015-05-01T09:45:46Z</time>
</trkpt>
<trkpt lat="34.8015592" lon="33.5075124">
<ele>27.05</ele>
<time>2015-05-01T09:45:49Z</time>
</trkpt>
<trkpt lat="34.8015208" lon="33.5074591">
<ele>27.89</ele>
<time>2015-05-01T09:45:53Z</time>
</trkpt>
<trkpt lat="34.8014883" lon="33.5074095">
<ele>27.13</ele>
<time>2015-05-01T09:45:56Z</time>
</trkpt>
<trkpt lat="34.8014547" lon="33.5073540">
<ele>26.53</ele>
<time>2015-05-01T09:45:59Z</time>
</trkpt>
<trkpt lat="34.8014192" lon="33.5073019">
<ele>27.74</ele>
<time>2015-05-01T09:46:03Z</time>
</trkpt>
<trkpt lat="34.8013812" lon="33.5072648">
<ele>24.84</ele>
<time>2015-05-01T09:46:30Z</time>
</trkpt>
<trkpt lat="34.8013585" lon="33.5071780">
<ele>25.74</ele>
<time>2015-05-01T09:46:33Z</time>
</trkpt>
<trkpt lat="34.8013306" lon="33.5071147">
<ele>26.70</ele>
<time>2015-05-01T09:46:35Z</time>
</trkpt>
<trkpt lat="34.8013083" lon="33.5070595">
<ele>26.94</ele>
<time>2015-05-01T09:46:37Z</time>
</trkpt>
<trkpt lat="34.8012768" lon="33.5069894">
<ele>26.38</ele>
<time>2015-05-01T09:46:40Z</time>
</trkpt>
<trkpt lat="34.8012402" lon="33.5069198">
<ele>26.94</ele>
<time>2015-05-01T09:46:43Z</time>
</trkpt>
<trkpt lat="34.8012148" lon="33.5068729">
<ele>25.75</ele>
<time>2015-05-01T09:46:45Z</time>
</trkpt>
<trkpt lat="34.8011906" lon="33.5068032">
<ele>25.98</ele>
<time>2015-05-01T09:46:48Z</time>
</trkpt>
<trkpt lat="34.8011726" lon="33.5067413">
<ele>27.64</ele>
<time>2015-05-01T09:46:51Z</time>
</trkpt>
<trkpt lat="34.8011499" lon="33.5066902">
<ele>27.97</ele>
<time>2015-05-01T09:46:54Z</time>
</trkpt>
<trkpt lat="34.8011867" lon="33.5066473">
<ele>27.08</ele>
<time>2015-05-01T09:46:58Z</time>
</trkpt>
<trkpt lat="34.8012425" lon="33.5066477">
<ele>27.53</ele>
<time>2015-05-01T09:47:00Z</time>
</trkpt>
<trkpt lat="34.8013161" lon="33.5066270">
<ele>27.39</ele>
<time>2015-05-01T09:47:02Z</time>
</trkpt>
<trkpt lat="34.8013904" lon="33.5065861">
<ele>27.61</ele>
<time>2015-05-01T09:47:04Z</time>
</trkpt>
<trkpt lat="34.8014659" lon="33.5065375">
<ele>27.91</ele>
<time>2015-05-01T09:47:06Z</time>
</trkpt>
<trkpt lat="34.8015420" lon="33.5064896">
<ele>27.99</ele>
<time>2015-05-01T09:47:08Z</time>
</trkpt>
<trkpt lat="34.8016190" lon="33.5064394">
<ele>28.01</ele>
<time>2015-05-01T09:47:10Z</time>
</trkpt>
<trkpt lat="34.8016946" lon="33.5063839">
<ele>27.76</ele>
<time>2015-05-01T09:47:12Z</time>
</trkpt>
<trkpt lat="34.8017591" lon="33.5063131">
<ele>27.45</ele>
<time>2015-05-01T09:47:14Z</time>
</trkpt>
<trkpt lat="34.8018158" lon="33.5062313">
<ele>27.38</ele>
<time>2015-05-01T09:47:16Z</time>
</trkpt>
<trkpt lat="34.8018447" lon="33.5061666">
<ele>27.20</ele>
<time>2015-05-01T09:47:17Z</time>
</trkpt>
<trkpt lat="34.8018725" lon="33.5061219">
<ele>27.61</ele>
<time>2015-05-01T09:47:18Z</time>
</trkpt>
<trkpt lat="34.8019206" lon="33.5060301">
<ele>27.16</ele>
<time>2015-05-01T09:47:20Z</time>
</trkpt>
<trkpt lat="34.8019501" lon="33.5059870">
<ele>27.09</ele>
<time>2015-05-01T09:47:21Z</time>
</trkpt>
<trkpt lat="34.8019772" lon="33.5059356">
<ele>27.55</ele>
<time>2015-05-01T09:47:22Z</time>
</trkpt>
<trkpt lat="34.8020161" lon="33.5058330">
<ele>27.15</ele>
<time>2015-05-01T09:47:24Z</time>
</trkpt>
<trkpt lat="34.8020592" lon="33.5057500">
<ele>27.05</ele>
<time>2015-05-01T09:47:26Z</time>
</trkpt>
<trkpt lat="34.8021055" lon="33.5056546">
<ele>27.02</ele>
<time>2015-05-01T09:47:28Z</time>
</trkpt>
<trkpt lat="34.8021474" lon="33.5055602">
<ele>27.02</ele>
<time>2015-05-01T09:47:30Z</time>
</trkpt>
<trkpt lat="34.8021749" lon="33.5055098">
<ele>27.52</ele>
<time>2015-05-01T09:47:31Z</time>
</trkpt>
<trkpt lat="34.8022033" lon="33.5054647">
<ele>27.27</ele>
<time>2015-05-01T09:47:32Z</time>
</trkpt>
<trkpt lat="34.8022370" lon="33.5054156">
<ele>27.14</ele>
<time>2015-05-01T09:47:33Z</time>
</trkpt>
<trkpt lat="34.8022655" lon="33.5053641">
<ele>27.58</ele>
<time>2015-05-01T09:47:34Z</time>
</trkpt>
<trkpt lat="34.8022913" lon="33.5053154">
<ele>27.80</ele>
<time>2015-05-01T09:47:35Z</time>
</trkpt>
<trkpt lat="34.8023144" lon="33.5052566">
<ele>27.91</ele>
<time>2015-05-01T09:47:36Z</time>
</trkpt>
<trkpt lat="34.8023391" lon="33.5052090">
<ele>27.96</ele>
<time>2015-05-01T09:47:37Z</time>
</trkpt>
<trkpt lat="34.8023827" lon="33.5051256">
<ele>28.50</ele>
<time>2015-05-01T09:47:39Z</time>
</trkpt>
<trkpt lat="34.8024116" lon="33.5050806">
<ele>28.76</ele>
<time>2015-05-01T09:47:40Z</time>
</trkpt>
<trkpt lat="34.8024608" lon="33.5049930">
<ele>28.20</ele>
<time>2015-05-01T09:47:42Z</time>
</trkpt>
<trkpt lat="34.8025101" lon="33.5048972">
<ele>28.06</ele>
<time>2015-05-01T09:47:44Z</time>
</trkpt>
<trkpt lat="34.8025394" lon="33.5048531">
<ele>28.04</ele>
<time>2015-05-01T09:47:45Z</time>
</trkpt>
<trkpt lat="34.8025655" lon="33.5048023">
<ele>27.53</ele>
<time>2015-05-01T09:47:46Z</time>
</trkpt>
<trkpt lat="34.8025904" lon="33.5047561">
<ele>27.27</ele>
<time>2015-05-01T09:47:47Z</time>
</trkpt>
<trkpt lat="34.8026400" lon="33.5046630">
<ele>27.58</ele>
<time>2015-05-01T09:47:49Z</time>
</trkpt>
<trkpt lat="34.8026625" lon="33.5046120">
<ele>27.80</ele>
<time>2015-05-01T09:47:50Z</time>
</trkpt>
<trkpt lat="34.8027158" lon="33.5045207">
<ele>28.71</ele>
<time>2015-05-01T09:47:52Z</time>
</trkpt>
<trkpt lat="34.8027410" lon="33.5044715">
<ele>28.36</ele>
<time>2015-05-01T09:47:53Z</time>
</trkpt>
<trkpt lat="34.8027683" lon="33.5044234">
<ele>28.19</ele>
<time>2015-05-01T09:47:54Z</time>
</trkpt>
<trkpt lat="34.8027937" lon="33.5043762">
<ele>28.60</ele>
<time>2015-05-01T09:47:55Z</time>
</trkpt>
<trkpt lat="34.8028227" lon="33.5043310">
<ele>28.81</ele>
<time>2015-05-01T09:47:56Z</time>
</trkpt>
<trkpt lat="34.8028451" lon="33.5042825">
<ele>28.91</ele>
<time>2015-05-01T09:47:57Z</time>
</trkpt>
<trkpt lat="34.8028675" lon="33.5042322">
<ele>28.96</ele>
<time>2015-05-01T09:47:58Z</time>
</trkpt>
<trkpt lat="34.8029127" lon="33.5041499">
<ele>29.50</ele>
<time>2015-05-01T09:48:00Z</time>
</trkpt>
<trkpt lat="34.8029576" lon="33.5040571">
<ele>29.89</ele>
<time>2015-05-01T09:48:02Z</time>
</trkpt>
<trkpt lat="34.8030068" lon="33.5039677">
<ele>29.23</ele>
<time>2015-05-01T09:48:04Z</time>
</trkpt>
<trkpt lat="34.8030312" lon="33.5039197">
<ele>29.12</ele>
<time>2015-05-01T09:48:05Z</time>
</trkpt>
<trkpt lat="34.8030576" lon="33.5038646">
<ele>29.07</ele>
<time>2015-05-01T09:48:06Z</time>
</trkpt>
<trkpt lat="34.8031043" lon="33.5037762">
<ele>29.03</ele>
<time>2015-05-01T09:48:08Z</time>
</trkpt>
<trkpt lat="34.8031281" lon="33.5037270">
<ele>29.02</ele>
<time>2015-05-01T09:48:09Z</time>
</trkpt>
<trkpt lat="34.8031533" lon="33.5036746">
<ele>29.02</ele>
<time>2015-05-01T09:48:10Z</time>
</trkpt>
<trkpt lat="34.8031769" lon="33.5036279">
<ele>29.52</ele>
<time>2015-05-01T09:48:11Z</time>
</trkpt>
<trkpt lat="34.8032003" lon="33.5035776">
<ele>30.27</ele>
<time>2015-05-01T09:48:12Z</time>
</trkpt>
<trkpt lat="34.8032239" lon="33.5035254">
<ele>30.14</ele>
<time>2015-05-01T09:48:13Z</time>
</trkpt>
<trkpt lat="34.8032658" lon="33.5034364">
<ele>30.55</ele>
<time>2015-05-01T09:48:15Z</time>
</trkpt>
<trkpt lat="34.8033110" lon="33.5033397">
<ele>31.40</ele>
<time>2015-05-01T09:48:17Z</time>
</trkpt>
<trkpt lat="34.8033328" lon="33.5032848">
<ele>31.71</ele>
<time>2015-05-01T09:48:18Z</time>
</trkpt>
<trkpt lat="34.8033553" lon="33.5032373">
<ele>31.86</ele>
<time>2015-05-01T09:48:19Z</time>
</trkpt>
<trkpt lat="34.8033835" lon="33.5031881">
<ele>31.94</ele>
<time>2015-05-01T09:48:20Z</time>
</trkpt>
<trkpt lat="34.8034079" lon="33.5031376">
<ele>32.48</ele>
<time>2015-05-01T09:48:21Z</time>
</trkpt>
<trkpt lat="34.8034309" lon="33.5030856">
<ele>32.75</ele>
<time>2015-05-01T09:48:22Z</time>
</trkpt>
<trkpt lat="34.8034483" lon="33.5030306">
<ele>32.88</ele>
<time>2015-05-01T09:48:23Z</time>
</trkpt>
<trkpt lat="34.8034736" lon="33.5029756">
<ele>32.95</ele>
<time>2015-05-01T09:48:24Z</time>
</trkpt>
<trkpt lat="34.8034994" lon="33.5029269">
<ele>32.98</ele>
<time>2015-05-01T09:48:25Z</time>
</trkpt>
<trkpt lat="34.8035221" lon="33.5028719">
<ele>33.00</ele>
<time>2015-05-01T09:48:26Z</time>
</trkpt>
<trkpt lat="34.8035462" lon="33.5028214">
<ele>33.01</ele>
<time>2015-05-01T09:48:27Z</time>
</trkpt>
<trkpt lat="34.8035763" lon="33.5027360">
<ele>32.51</ele>
<time>2015-05-01T09:48:29Z</time>
</trkpt>
<trkpt lat="34.8036150" lon="33.5026506">
<ele>32.64</ele>
<time>2015-05-01T09:48:31Z</time>
</trkpt>
<trkpt lat="34.8036449" lon="33.5025863">
<ele>32.92</ele>
<time>2015-05-01T09:48:33Z</time>
</trkpt>
<trkpt lat="34.8036687" lon="33.5025194">
<ele>32.99</ele>
<time>2015-05-01T09:48:35Z</time>
</trkpt>
<trkpt lat="34.8036963" lon="33.5024291">
<ele>33.01</ele>
<time>2015-05-01T09:48:37Z</time>
</trkpt>
<trkpt lat="34.8037257" lon="33.5023452">
<ele>33.01</ele>
<time>2015-05-01T09:48:39Z</time>
</trkpt>
<trkpt lat="34.8037526" lon="33.5022515">
<ele>33.77</ele>
<time>2015-05-01T09:48:41Z</time>
</trkpt>
<trkpt lat="34.8037705" lon="33.5021538">
<ele>33.95</ele>
<time>2015-05-01T09:48:43Z</time>
</trkpt>
<trkpt lat="34.8037822" lon="33.5020500">
<ele>34.00</ele>
<time>2015-05-01T09:48:45Z</time>
</trkpt>
<trkpt lat="34.8037846" lon="33.5019530">
<ele>34.01</ele>
<time>2015-05-01T09:48:47Z</time>
</trkpt>
<trkpt lat="34.8037792" lon="33.5018615">
<ele>33.52</ele>
<time>2015-05-01T09:48:49Z</time>
</trkpt>
<trkpt lat="34.8037688" lon="33.5017758">
<ele>33.64</ele>
<time>2015-05-01T09:48:51Z</time>
</trkpt>
<trkpt lat="34.8037560" lon="33.5016855">
<ele>33.42</ele>
<time>2015-05-01T09:48:53Z</time>
</trkpt>
<trkpt lat="34.8037393" lon="33.5015961">
<ele>33.12</ele>
<time>2015-05-01T09:48:55Z</time>
</trkpt>
<trkpt lat="34.8037231" lon="33.5014987">
<ele>33.04</ele>
<time>2015-05-01T09:48:57Z</time>
</trkpt>
<trkpt lat="34.8037024" lon="33.5014026">
<ele>33.52</ele>
<time>2015-05-01T09:48:59Z</time>
</trkpt>
<trkpt lat="34.8036807" lon="33.5013004">
<ele>33.89</ele>
<time>2015-05-01T09:49:01Z</time>
</trkpt>
<trkpt lat="34.8036590" lon="33.5012002">
<ele>33.99</ele>
<time>2015-05-01T09:49:03Z</time>
</trkpt>
<trkpt lat="34.8036384" lon="33.5011239">
<ele>34.00</ele>
<time>2015-05-01T09:49:04Z</time>
</trkpt>
<trkpt lat="34.8036117" lon="33.5010391">
<ele>34.01</ele>
<time>2015-05-01T09:49:06Z</time>
</trkpt>
<trkpt lat="34.8035842" lon="33.5009933">
<ele>34.51</ele>
<time>2015-05-01T09:49:07Z</time>
</trkpt>
<trkpt lat="34.8035699" lon="33.5009320">
<ele>34.77</ele>
<time>2015-05-01T09:49:08Z</time>
</trkpt>
<trkpt lat="34.8035609" lon="33.5008708">
<ele>34.89</ele>
<time>2015-05-01T09:49:09Z</time>
</trkpt>
<trkpt lat="34.8035500" lon="33.5008152">
<ele>34.95</ele>
<time>2015-05-01T09:49:10Z</time>
</trkpt>
<trkpt lat="34.8035198" lon="33.5007117">
<ele>35.00</ele>
<time>2015-05-01T09:49:12Z</time>
</trkpt>
<trkpt lat="34.8034964" lon="33.5006148">
<ele>35.51</ele>
<time>2015-05-01T09:49:14Z</time>
</trkpt>
<trkpt lat="34.8034732" lon="33.5005346">
<ele>35.89</ele>
<time>2015-05-01T09:49:16Z</time>
</trkpt>
<trkpt lat="34.8034416" lon="33.5004538">
<ele>35.98</ele>
<time>2015-05-01T09:49:18Z</time>
</trkpt>
<trkpt lat="34.8034147" lon="33.5003608">
<ele>35.26</ele>
<time>2015-05-01T09:49:20Z</time>
</trkpt>
<trkpt lat="34.8033992" lon="33.5003081">
<ele>35.14</ele>
<time>2015-05-01T09:49:21Z</time>
</trkpt>
<trkpt lat="34.8033830" lon="33.5002567">
<ele>34.58</ele>
<time>2015-05-01T09:49:22Z</time>
</trkpt>
<trkpt lat="34.8033656" lon="33.5002006">
<ele>34.30</ele>
<time>2015-05-01T09:49:23Z</time>
</trkpt>
<trkpt lat="34.8033430" lon="33.5001306">
<ele>34.16</ele>
<time>2015-05-01T09:49:24Z</time>
</trkpt>
<trkpt lat="34.8033264" lon="33.5000708">
<ele>34.09</ele>
<time>2015-05-01T09:49:25Z</time>
</trkpt>
<trkpt lat="34.8033103" lon="33.5000022">
<ele>34.05</ele>
<time>2015-05-01T09:49:26Z</time>
</trkpt>
<trkpt lat="34.8032881" lon="33.4999427">
<ele>33.53</ele>
<time>2015-05-01T09:49:27Z</time>
</trkpt>
<trkpt lat="34.8032703" lon="33.4998660">
<ele>32.77</ele>
<time>2015-05-01T09:49:28Z</time>
</trkpt>
<trkpt lat="34.8032493" lon="33.4997833">
<ele>31.90</ele>
<time>2015-05-01T09:49:29Z</time>
</trkpt>
<trkpt lat="34.8032359" lon="33.4996955">
<ele>30.96</ele>
<time>2015-05-01T09:49:30Z</time>
</trkpt>
<trkpt lat="34.8032267" lon="33.4996031">
<ele>30.99</ele>
<time>2015-05-01T09:49:31Z</time>
</trkpt>
<trkpt lat="34.8032117" lon="33.4995164">
<ele>31.00</ele>
<time>2015-05-01T09:49:32Z</time>
</trkpt>
<trkpt lat="34.8031958" lon="33.4994284">
<ele>30.51</ele>
<time>2015-05-01T09:49:33Z</time>
</trkpt>
<trkpt lat="34.8031850" lon="33.4993440">
<ele>30.26</ele>
<time>2015-05-01T09:49:34Z</time>
</trkpt>
<trkpt lat="34.8031755" lon="33.4992556">
<ele>29.64</ele>
<time>2015-05-01T09:49:35Z</time>
</trkpt>
<trkpt lat="34.8031636" lon="33.4991781">
<ele>29.33</ele>
<time>2015-05-01T09:49:36Z</time>
</trkpt>
<trkpt lat="34.8031505" lon="33.4990901">
<ele>29.17</ele>
<time>2015-05-01T09:49:37Z</time>
</trkpt>
<trkpt lat="34.8031348" lon="33.4990052">
<ele>28.59</ele>
<time>2015-05-01T09:49:38Z</time>
</trkpt>
<trkpt lat="34.8031342" lon="33.4989337">
<ele>27.80</ele>
<time>2015-05-01T09:49:39Z</time>
</trkpt>
<trkpt lat="34.8031201" lon="33.4988516">
<ele>27.41</ele>
<time>2015-05-01T09:49:40Z</time>
</trkpt>
<trkpt lat="34.8031108" lon="33.4987698">
<ele>26.71</ele>
<time>2015-05-01T09:49:41Z</time>
</trkpt>
<trkpt lat="34.8030996" lon="33.4986937">
<ele>26.36</ele>
<time>2015-05-01T09:49:42Z</time>
</trkpt>
<trkpt lat="34.8030823" lon="33.4986190">
<ele>26.19</ele>
<time>2015-05-01T09:49:43Z</time>
</trkpt>
<trkpt lat="34.8030693" lon="33.4985424">
<ele>26.60</ele>
<time>2015-05-01T09:49:44Z</time>
</trkpt>
<trkpt lat="34.8030631" lon="33.4984661">
<ele>26.81</ele>
<time>2015-05-01T09:49:45Z</time>
</trkpt>
<trkpt lat="34.8030563" lon="33.4983818">
<ele>26.91</ele>
<time>2015-05-01T09:49:46Z</time>
</trkpt>
<trkpt lat="34.8030428" lon="33.4983106">
<ele>26.96</ele>
<time>2015-05-01T09:49:47Z</time>
</trkpt>
<trkpt lat="34.8030278" lon="33.4982435">
<ele>26.99</ele>
<time>2015-05-01T09:49:48Z</time>
</trkpt>
<trkpt lat="34.8030224" lon="33.4981747">
<ele>27.00</ele>
<time>2015-05-01T09:49:49Z</time>
</trkpt>
<trkpt lat="34.8030080" lon="33.4981172">
<ele>27.51</ele>
<time>2015-05-01T09:49:50Z</time>
</trkpt>
<trkpt lat="34.8029952" lon="33.4980610">
<ele>27.76</ele>
<time>2015-05-01T09:49:51Z</time>
</trkpt>
<trkpt lat="34.8029851" lon="33.4980042">
<ele>27.89</ele>
<time>2015-05-01T09:49:52Z</time>
</trkpt>
<trkpt lat="34.8029732" lon="33.4979468">
<ele>28.45</ele>
<time>2015-05-01T09:49:53Z</time>
</trkpt>
<trkpt lat="34.8029827" lon="33.4978827">
<ele>28.73</ele>
<time>2015-05-01T09:49:54Z</time>
</trkpt>
<trkpt lat="34.8029673" lon="33.4978265">
<ele>29.38</ele>
<time>2015-05-01T09:49:55Z</time>
</trkpt>
<trkpt lat="34.8029409" lon="33.4977132">
<ele>28.61</ele>
<time>2015-05-01T09:49:57Z</time>
</trkpt>
<trkpt lat="34.8029217" lon="33.4976542">
<ele>28.31</ele>
<time>2015-05-01T09:49:58Z</time>
</trkpt>
<trkpt lat="34.8028939" lon="33.4975481">
<ele>28.84</ele>
<time>2015-05-01T09:50:00Z</time>
</trkpt>
<trkpt lat="34.8028745" lon="33.4974986">
<ele>28.93</ele>
<time>2015-05-01T09:50:01Z</time>
</trkpt>
<trkpt lat="34.8028466" lon="33.4974136">
<ele>28.99</ele>
<time>2015-05-01T09:50:03Z</time>
</trkpt>
<trkpt lat="34.8028325" lon="33.4973576">
<ele>29.00</ele>
<time>2015-05-01T09:50:04Z</time>
</trkpt>
<trkpt lat="34.8028064" lon="33.4972700">
<ele>29.01</ele>
<time>2015-05-01T09:50:06Z</time>
</trkpt>
<trkpt lat="34.8027612" lon="33.4971812">
<ele>29.02</ele>
<time>2015-05-01T09:50:08Z</time>
</trkpt>
<trkpt lat="34.8027296" lon="33.4970936">
<ele>29.77</ele>
<time>2015-05-01T09:50:10Z</time>
</trkpt>
<trkpt lat="34.8026944" lon="33.4970006">
<ele>30.20</ele>
<time>2015-05-01T09:50:12Z</time>
</trkpt>
<trkpt lat="34.8026602" lon="33.4969113">
<ele>30.81</ele>
<time>2015-05-01T09:50:14Z</time>
</trkpt>
<trkpt lat="34.8026268" lon="33.4968210">
<ele>30.97</ele>
<time>2015-05-01T09:50:16Z</time>
</trkpt>
<trkpt lat="34.8025973" lon="33.4967262">
<ele>31.00</ele>
<time>2015-05-01T09:50:18Z</time>
</trkpt>
<trkpt lat="34.8025741" lon="33.4966329">
<ele>30.51</ele>
<time>2015-05-01T09:50:20Z</time>
</trkpt>
<trkpt lat="34.8025566" lon="33.4965406">
<ele>30.14</ele>
<time>2015-05-01T09:50:22Z</time>
</trkpt>
<trkpt lat="34.8025434" lon="33.4964429">
<ele>29.55</ele>
<time>2015-05-01T09:50:24Z</time>
</trkpt>
<trkpt lat="34.8025324" lon="33.4963478">
<ele>29.40</ele>
<time>2015-05-01T09:50:26Z</time>
</trkpt>
<trkpt lat="34.8025237" lon="33.4962577">
<ele>29.11</ele>
<time>2015-05-01T09:50:28Z</time>
</trkpt>
<trkpt lat="34.8025179" lon="33.4961703">
<ele>29.04</ele>
<time>2015-05-01T09:50:30Z</time>
</trkpt>
<trkpt lat="34.8025052" lon="33.4960886">
<ele>29.02</ele>
<time>2015-05-01T09:50:32Z</time>
</trkpt>
<trkpt lat="34.8024870" lon="33.4960144">
<ele>30.02</ele>
<time>2015-05-01T09:50:34Z</time>
</trkpt>
<trkpt lat="34.8024681" lon="33.4959348">
<ele>30.02</ele>
<time>2015-05-01T09:50:36Z</time>
</trkpt>
<trkpt lat="34.8024496" lon="33.4958795">
<ele>29.52</ele>
<time>2015-05-01T09:50:38Z</time>
</trkpt>
<trkpt lat="34.8024256" lon="33.4958067">
<ele>29.14</ele>
<time>2015-05-01T09:50:40Z</time>
</trkpt>
<trkpt lat="34.8023861" lon="33.4957155">
<ele>28.55</ele>
<time>2015-05-01T09:50:42Z</time>
</trkpt>
<trkpt lat="34.8023646" lon="33.4956590">
<ele>28.28</ele>
<time>2015-05-01T09:50:43Z</time>
</trkpt>
<trkpt lat="34.8023393" lon="33.4955992">
<ele>28.15</ele>
<time>2015-05-01T09:50:44Z</time>
</trkpt>
<trkpt lat="34.8023235" lon="33.4955350">
<ele>28.08</ele>
<time>2015-05-01T09:50:45Z</time>
</trkpt>
<trkpt lat="34.8023016" lon="33.4954716">
<ele>28.05</ele>
<time>2015-05-01T09:50:46Z</time>
</trkpt>
<trkpt lat="34.8022827" lon="33.4954108">
<ele>28.03</ele>
<time>2015-05-01T09:50:47Z</time>
</trkpt>
<trkpt lat="34.8022592" lon="33.4953509">
<ele>28.52</ele>
<time>2015-05-01T09:50:48Z</time>
</trkpt>
<trkpt lat="34.8022452" lon="33.4952910">
<ele>28.77</ele>
<time>2015-05-01T09:50:49Z</time>
</trkpt>
<trkpt lat="34.8022423" lon="33.4952194">
<ele>28.89</ele>
<time>2015-05-01T09:50:50Z</time>
</trkpt>
<trkpt lat="34.8022466" lon="33.4951416">
<ele>28.95</ele>
<time>2015-05-01T09:50:51Z</time>
</trkpt>
<trkpt lat="34.8022511" lon="33.4950548">
<ele>28.99</ele>
<time>2015-05-01T09:50:52Z</time>
</trkpt>
<trkpt lat="34.8022570" lon="33.4949633">
<ele>28.50</ele>
<time>2015-05-01T09:50:53Z</time>
</trkpt>
<trkpt lat="34.8022643" lon="33.4948888">
<ele>27.76</ele>
<time>2015-05-01T09:50:54Z</time>
</trkpt>
<trkpt lat="34.8022759" lon="33.4947949">
<ele>27.39</ele>
<time>2015-05-01T09:50:55Z</time>
</trkpt>
<trkpt lat="34.8022940" lon="33.4947098">
<ele>27.20</ele>
<time>2015-05-01T09:50:56Z</time>
</trkpt>
<trkpt lat="34.8023146" lon="33.4946249">
<ele>26.61</ele>
<time>2015-05-01T09:50:57Z</time>
</trkpt>
<trkpt lat="34.8023388" lon="33.4945411">
<ele>26.81</ele>
<time>2015-05-01T09:50:58Z</time>
</trkpt>
<trkpt lat="34.8023598" lon="33.4944528">
<ele>25.91</ele>
<time>2015-05-01T09:50:59Z</time>
</trkpt>
<trkpt lat="34.8023865" lon="33.4943696">
<ele>25.47</ele>
<time>2015-05-01T09:51:00Z</time>
</trkpt>
<trkpt lat="34.8024051" lon="33.4942935">
<ele>24.74</ele>
<time>2015-05-01T09:51:01Z</time>
</trkpt>
<trkpt lat="34.8024122" lon="33.4942269">
<ele>24.38</ele>
<time>2015-05-01T09:51:02Z</time>
</trkpt>
<trkpt lat="34.8024344" lon="33.4941663">
<ele>23.70</ele>
<time>2015-05-01T09:51:03Z</time>
</trkpt>
<trkpt lat="34.8024513" lon="33.4940897">
<ele>23.86</ele>
<time>2015-05-01T09:51:04Z</time>
</trkpt>
<trkpt lat="34.8024672" lon="33.4940235">
<ele>23.44</ele>
<time>2015-05-01T09:51:05Z</time>
</trkpt>
<trkpt lat="34.8024883" lon="33.4939584">
<ele>23.23</ele>
<time>2015-05-01T09:51:06Z</time>
</trkpt>
<trkpt lat="34.8025014" lon="33.4938894">
<ele>23.12</ele>
<time>2015-05-01T09:51:07Z</time>
</trkpt>
<trkpt lat="34.8025165" lon="33.4938224">
<ele>23.57</ele>
<time>2015-05-01T09:51:08Z</time>
</trkpt>
<trkpt lat="34.8025388" lon="33.4937604">
<ele>23.79</ele>
<time>2015-05-01T09:51:09Z</time>
</trkpt>
<trkpt lat="34.8025590" lon="33.4936978">
<ele>23.90</ele>
<time>2015-05-01T09:51:10Z</time>
</trkpt>
<trkpt lat="34.8025732" lon="33.4936409">
<ele>23.46</ele>
<time>2015-05-01T09:51:11Z</time>
</trkpt>
<trkpt lat="34.8025826" lon="33.4935802">
<ele>23.74</ele>
<time>2015-05-01T09:51:12Z</time>
</trkpt>
<trkpt lat="34.8025904" lon="33.4935218">
<ele>23.88</ele>
<time>2015-05-01T09:51:13Z</time>
</trkpt>
<trkpt lat="34.8026045" lon="33.4934629">
<ele>23.95</ele>
<time>2015-05-01T09:51:14Z</time>
</trkpt>
<trkpt lat="34.8026264" lon="33.4934102">
<ele>23.98</ele>
<time>2015-05-01T09:51:15Z</time>
</trkpt>
<trkpt lat="34.8026772" lon="33.4933037">
<ele>23.26</ele>
<time>2015-05-01T09:51:17Z</time>
</trkpt>
<trkpt lat="34.8026943" lon="33.4932456">
<ele>23.64</ele>
<time>2015-05-01T09:51:18Z</time>
</trkpt>
<trkpt lat="34.8027047" lon="33.4931849">
<ele>23.83</ele>
<time>2015-05-01T09:51:19Z</time>
</trkpt>
<trkpt lat="34.8027338" lon="33.4930749">
<ele>23.97</ele>
<time>2015-05-01T09:51:21Z</time>
</trkpt>
<trkpt lat="34.8027450" lon="33.4930170">
<ele>23.49</ele>
<time>2015-05-01T09:51:22Z</time>
</trkpt>
<trkpt lat="34.8027633" lon="33.4929568">
<ele>22.75</ele>
<time>2015-05-01T09:51:23Z</time>
</trkpt>
<trkpt lat="34.8027900" lon="33.4928471">
<ele>22.95</ele>
<time>2015-05-01T09:51:25Z</time>
</trkpt>
<trkpt lat="34.8027992" lon="33.4927928">
<ele>23.48</ele>
<time>2015-05-01T09:51:26Z</time>
</trkpt>
<trkpt lat="34.8028068" lon="33.4927384">
<ele>23.25</ele>
<time>2015-05-01T09:51:27Z</time>
</trkpt>
<trkpt lat="34.8028387" lon="33.4926423">
<ele>23.82</ele>
<time>2015-05-01T09:51:29Z</time>
</trkpt>
<trkpt lat="34.8028679" lon="33.4925931">
<ele>24.42</ele>
<time>2015-05-01T09:51:30Z</time>
</trkpt>
<trkpt lat="34.8028924" lon="33.4925414">
<ele>24.72</ele>
<time>2015-05-01T09:51:31Z</time>
</trkpt>
<trkpt lat="34.8029215" lon="33.4924960">
<ele>24.87</ele>
<time>2015-05-01T09:51:32Z</time>
</trkpt>
<trkpt lat="34.8029568" lon="33.4924530">
<ele>24.44</ele>
<time>2015-05-01T09:51:33Z</time>
</trkpt>
<trkpt lat="34.8030158" lon="33.4923664">
<ele>25.37</ele>
<time>2015-05-01T09:51:35Z</time>
</trkpt>
<trkpt lat="34.8030543" lon="33.4923266">
<ele>25.69</ele>
<time>2015-05-01T09:51:36Z</time>
</trkpt>
<trkpt lat="34.8031273" lon="33.4922691">
<ele>25.94</ele>
<time>2015-05-01T09:51:38Z</time>
</trkpt>
<trkpt lat="34.8031982" lon="33.4922020">
<ele>26.00</ele>
<time>2015-05-01T09:51:40Z</time>
</trkpt>
<trkpt lat="34.8032542" lon="33.4921399">
<ele>26.01</ele>
<time>2015-05-01T09:51:42Z</time>
</trkpt>
<trkpt lat="34.8033113" lon="33.4921009">
<ele>26.01</ele>
<time>2015-05-01T09:51:44Z</time>
</trkpt>
<trkpt lat="34.8033550" lon="33.4920556">
<ele>26.52</ele>
<time>2015-05-01T09:51:46Z</time>
</trkpt>
<trkpt lat="34.8033943" lon="33.4919994">
<ele>26.89</ele>
<time>2015-05-01T09:51:48Z</time>
</trkpt>
<trkpt lat="34.8034250" lon="33.4919474">
<ele>26.48</ele>
<time>2015-05-01T09:51:50Z</time>
</trkpt>
<trkpt lat="34.8034572" lon="33.4919015">
<ele>25.95</ele>
<time>2015-05-01T09:51:53Z</time>
</trkpt>
<trkpt lat="34.8034985" lon="33.4918538">
<ele>25.89</ele>
<time>2015-05-01T09:51:58Z</time>
</trkpt>
<trkpt lat="34.8035311" lon="33.4918150">
<ele>27.38</ele>
<time>2015-05-01T09:52:01Z</time>
</trkpt>
<trkpt lat="34.8035624" lon="33.4917663">
<ele>27.94</ele>
<time>2015-05-01T09:52:04Z</time>
</trkpt>
<trkpt lat="34.8035905" lon="33.4917041">
<ele>27.20</ele>
<time>2015-05-01T09:52:08Z</time>
</trkpt>
<trkpt lat="34.8036133" lon="33.4916411">
<ele>27.16</ele>
<time>2015-05-01T09:52:11Z</time>
</trkpt>
<trkpt lat="34.8036266" lon="33.4915661">
<ele>26.28</ele>
<time>2015-05-01T09:52:14Z</time>
</trkpt>
<trkpt lat="34.8036366" lon="33.4915107">
<ele>26.83</ele>
<time>2015-05-01T09:52:16Z</time>
</trkpt>
<trkpt lat="34.8036461" lon="33.4914564">
<ele>28.47</ele>
<time>2015-05-01T09:52:18Z</time>
</trkpt>
<trkpt lat="34.8036559" lon="33.4913963">
<ele>30.13</ele>
<time>2015-05-01T09:52:20Z</time>
</trkpt>
<trkpt lat="34.8036662" lon="33.4913341">
<ele>30.79</ele>
<time>2015-05-01T09:52:22Z</time>
</trkpt>
<trkpt lat="34.8036741" lon="33.4912719">
<ele>30.96</ele>
<time>2015-05-01T09:52:24Z</time>
</trkpt>
<trkpt lat="34.8036821" lon="33.4912076">
<ele>31.00</ele>
<time>2015-05-01T09:52:26Z</time>
</trkpt>
<trkpt lat="34.8036874" lon="33.4911299">
<ele>31.01</ele>
<time>2015-05-01T09:52:28Z</time>
</trkpt>
<trkpt lat="34.8036937" lon="33.4910468">
<ele>30.52</ele>
<time>2015-05-01T09:52:30Z</time>
</trkpt>
<trkpt lat="34.8036968" lon="33.4909655">
<ele>30.14</ele>
<time>2015-05-01T09:52:32Z</time>
</trkpt>
<trkpt lat="34.8036936" lon="33.4908854">
<ele>30.05</ele>
<time>2015-05-01T09:52:34Z</time>
</trkpt>
<trkpt lat="34.8036857" lon="33.4908032">
<ele>30.52</ele>
<time>2015-05-01T09:52:36Z</time>
</trkpt>
<trkpt lat="34.8036765" lon="33.4907265">
<ele>30.64</ele>
<time>2015-05-01T09:52:38Z</time>
</trkpt>
<trkpt lat="34.8036680" lon="33.4906523">
<ele>30.92</ele>
<time>2015-05-01T09:52:40Z</time>
</trkpt>
<trkpt lat="34.8036606" lon="33.4905778">
<ele>30.99</ele>
<time>2015-05-01T09:52:42Z</time>
</trkpt>
<trkpt lat="34.8036485" lon="33.4905027">
<ele>32.26</ele>
<time>2015-05-01T09:52:44Z</time>
</trkpt>
<trkpt lat="34.8036339" lon="33.4904285">
<ele>32.33</ele>
<time>2015-05-01T09:52:46Z</time>
</trkpt>
<trkpt lat="34.8036221" lon="33.4903546">
<ele>32.09</ele>
<time>2015-05-01T09:52:48Z</time>
</trkpt>
<trkpt lat="34.8036136" lon="33.4902827">
<ele>32.79</ele>
<time>2015-05-01T09:52:50Z</time>
</trkpt>
<trkpt lat="34.8036068" lon="33.4902108">
<ele>32.96</ele>
<time>2015-05-01T09:52:52Z</time>
</trkpt>
<trkpt lat="34.8036010" lon="33.4901351">
<ele>33.00</ele>
<time>2015-05-01T09:52:54Z</time>
</trkpt>
<trkpt lat="34.8035955" lon="33.4900584">
<ele>33.51</ele>
<time>2015-05-01T09:52:56Z</time>
</trkpt>
<trkpt lat="34.8035929" lon="33.4899792">
<ele>33.14</ele>
<time>2015-05-01T09:52:58Z</time>
</trkpt>
<trkpt lat="34.8035946" lon="33.4898998">
<ele>33.05</ele>
<time>2015-05-01T09:53:00Z</time>
</trkpt>
<trkpt lat="34.8035985" lon="33.4898240">
<ele>33.02</ele>
<time>2015-05-01T09:53:02Z</time>
</trkpt>
<trkpt lat="34.8036050" lon="33.4897543">
<ele>32.27</ele>
<time>2015-05-01T09:53:04Z</time>
</trkpt>
<trkpt lat="34.8036059" lon="33.4896836">
<ele>31.55</ele>
<time>2015-05-01T09:53:07Z</time>
</trkpt>
<trkpt lat="34.8036113" lon="33.4896272">
<ele>31.65</ele>
<time>2015-05-01T09:53:09Z</time>
</trkpt>
<trkpt lat="34.8036148" lon="33.4895714">
<ele>31.92</ele>
<time>2015-05-01T09:53:11Z</time>
</trkpt>
<trkpt lat="34.8036204" lon="33.4895121">
<ele>31.49</ele>
<time>2015-05-01T09:53:13Z</time>
</trkpt>
<trkpt lat="34.8036261" lon="33.4894529">
<ele>31.14</ele>
<time>2015-05-01T09:53:15Z</time>
</trkpt>
<trkpt lat="34.8036268" lon="33.4893937">
<ele>30.55</ele>
<time>2015-05-01T09:53:17Z</time>
</trkpt>
<trkpt lat="34.8036360" lon="33.4893390">
<ele>29.65</ele>
<time>2015-05-01T09:53:19Z</time>
</trkpt>
<trkpt lat="34.8036430" lon="33.4892789">
<ele>27.92</ele>
<time>2015-05-01T09:53:21Z</time>
</trkpt>
<trkpt lat="34.8036565" lon="33.4892191">
<ele>27.24</ele>
<time>2015-05-01T09:53:23Z</time>
</trkpt>
<trkpt lat="34.8036808" lon="33.4891640">
<ele>27.57</ele>
<time>2015-05-01T09:53:25Z</time>
</trkpt>
<trkpt lat="34.8037100" lon="33.4891172">
<ele>26.66</ele>
<time>2015-05-01T09:53:27Z</time>
</trkpt>
<trkpt lat="34.8037193" lon="33.4890380">
<ele>25.60</ele>
<time>2015-05-01T09:53:30Z</time>
</trkpt>
<trkpt lat="34.8037103" lon="33.4889611">
<ele>24.96</ele>
<time>2015-05-01T09:53:33Z</time>
</trkpt>
<trkpt lat="34.8037036" lon="33.4888924">
<ele>25.26</ele>
<time>2015-05-01T09:53:36Z</time>
</trkpt>
<trkpt lat="34.8037035" lon="33.4888136">
<ele>26.67</ele>
<time>2015-05-01T09:53:39Z</time>
</trkpt>
<trkpt lat="34.8036966" lon="33.4887549">
<ele>26.18</ele>
<time>2015-05-01T09:53:41Z</time>
</trkpt>
<trkpt lat="34.8036937" lon="33.4886906">
<ele>26.81</ele>
<time>2015-05-01T09:53:43Z</time>
</trkpt>
<trkpt lat="34.8036836" lon="33.4886270">
<ele>26.71</ele>
<time>2015-05-01T09:53:45Z</time>
</trkpt>
<trkpt lat="34.8036697" lon="33.4885706">
<ele>26.69</ele>
<time>2015-05-01T09:53:47Z</time>
</trkpt>
<trkpt lat="34.8036580" lon="33.4884999">
<ele>27.48</ele>
<time>2015-05-01T09:53:50Z</time>
</trkpt>
<trkpt lat="34.8036322" lon="33.4884549">
<ele>27.89</ele>
<time>2015-05-01T09:54:08Z</time>
</trkpt>
<trkpt lat="34.8036128" lon="33.4883901">
<ele>28.08</ele>
<time>2015-05-01T09:54:23Z</time>
</trkpt>
<trkpt lat="34.8035996" lon="33.4883218">
<ele>28.03</ele>
<time>2015-05-01T09:54:25Z</time>
</trkpt>
<trkpt lat="34.8035979" lon="33.4882476">
<ele>28.02</ele>
<time>2015-05-01T09:54:27Z</time>
</trkpt>
<trkpt lat="34.8036022" lon="33.4881727">
<ele>29.27</ele>
<time>2015-05-01T09:54:29Z</time>
</trkpt>
<trkpt lat="34.8035984" lon="33.4881031">
<ele>29.58</ele>
<time>2015-05-01T09:54:31Z</time>
</trkpt>
<trkpt lat="34.8035874" lon="33.4880370">
<ele>30.16</ele>
<time>2015-05-01T09:54:33Z</time>
</trkpt>
<trkpt lat="34.8035732" lon="33.4879776">
<ele>30.30</ele>
<time>2015-05-01T09:54:35Z</time>
</trkpt>
<trkpt lat="34.8035600" lon="33.4879202">
<ele>28.84</ele>
<time>2015-05-01T09:54:37Z</time>
</trkpt>
<trkpt lat="34.8035332" lon="33.4878719">
<ele>28.97</ele>
<time>2015-05-01T09:54:39Z</time>
</trkpt>
<trkpt lat="34.8035120" lon="33.4878164">
<ele>29.00</ele>
<time>2015-05-01T09:54:41Z</time>
</trkpt>
<trkpt lat="34.8034940" lon="33.4877546">
<ele>28.76</ele>
<time>2015-05-01T09:54:43Z</time>
</trkpt>
<trkpt lat="34.8034828" lon="33.4876766">
<ele>28.20</ele>
<time>2015-05-01T09:54:45Z</time>
</trkpt>
<trkpt lat="34.8034753" lon="33.4875800">
<ele>27.81</ele>
<time>2015-05-01T09:54:47Z</time>
</trkpt>
<trkpt lat="34.8034786" lon="33.4874712">
<ele>27.97</ele>
<time>2015-05-01T09:54:49Z</time>
</trkpt>
<trkpt lat="34.8034890" lon="33.4873938">
<ele>27.99</ele>
<time>2015-05-01T09:54:50Z</time>
</trkpt>
<trkpt lat="34.8035004" lon="33.4872955">
<ele>27.26</ele>
<time>2015-05-01T09:54:52Z</time>
</trkpt>
<trkpt lat="34.8035186" lon="33.4872224">
<ele>26.83</ele>
<time>2015-05-01T09:54:54Z</time>
</trkpt>
<trkpt lat="34.8035341" lon="33.4871607">
<ele>26.22</ele>
<time>2015-05-01T09:54:56Z</time>
</trkpt>
<trkpt lat="34.8035348" lon="33.4870992">
<ele>25.82</ele>
<time>2015-05-01T09:54:58Z</time>
</trkpt>
<trkpt lat="34.8035413" lon="33.4870257">
<ele>27.62</ele>
<time>2015-05-01T09:55:01Z</time>
</trkpt>
<trkpt lat="34.8035867" lon="33.4869825">
<ele>27.23</ele>
<time>2015-05-01T09:55:18Z</time>
</trkpt>
<trkpt lat="34.8036319" lon="33.4869924">
<ele>27.32</ele>
<time>2015-05-01T09:55:20Z</time>
</trkpt>
<trkpt lat="34.8036835" lon="33.4870157">
<ele>27.34</ele>
<time>2015-05-01T09:55:22Z</time>
</trkpt>
<trkpt lat="34.8037352" lon="33.4870468">
<ele>27.85</ele>
<time>2015-05-01T09:55:24Z</time>
</trkpt>
<trkpt lat="34.8037802" lon="33.4870828">
<ele>28.47</ele>
<time>2015-05-01T09:55:26Z</time>
</trkpt>
<trkpt lat="34.8038182" lon="33.4871148">
<ele>28.88</ele>
<time>2015-05-01T09:55:28Z</time>
</trkpt>
<trkpt lat="34.8038589" lon="33.4871684">
<ele>29.50</ele>
<time>2015-05-01T09:55:31Z</time>
</trkpt>
<trkpt lat="34.8039130" lon="33.4871596">
<ele>29.05</ele>
<time>2015-05-01T09:55:35Z</time>
</trkpt>
<trkpt lat="34.8039415" lon="33.4871070">
<ele>28.27</ele>
<time>2015-05-01T09:55:37Z</time>
</trkpt>
<trkpt lat="34.8039754" lon="33.4870566">
<ele>27.33</ele>
<time>2015-05-01T09:55:39Z</time>
</trkpt>
<trkpt lat="34.8040167" lon="33.4870072">
<ele>27.09</ele>
<time>2015-05-01T09:55:41Z</time>
</trkpt>
<trkpt lat="34.8040605" lon="33.4869617">
<ele>27.79</ele>
<time>2015-05-01T09:55:43Z</time>
</trkpt>
<trkpt lat="34.8041080" lon="33.4869124">
<ele>28.46</ele>
<time>2015-05-01T09:55:45Z</time>
</trkpt>
<trkpt lat="34.8041643" lon="33.4868508">
<ele>28.88</ele>
<time>2015-05-01T09:55:47Z</time>
</trkpt>
<trkpt lat="34.8042270" lon="33.4867842">
<ele>28.98</ele>
<time>2015-05-01T09:55:49Z</time>
</trkpt>
<trkpt lat="34.8042888" lon="33.4867164">
<ele>29.51</ele>
<time>2015-05-01T09:55:51Z</time>
</trkpt>
<trkpt lat="34.8043463" lon="33.4866416">
<ele>29.89</ele>
<time>2015-05-01T09:55:53Z</time>
</trkpt>
<trkpt lat="34.8043986" lon="33.4865703">
<ele>29.98</ele>
<time>2015-05-01T09:55:55Z</time>
</trkpt>
<trkpt lat="34.8044478" lon="33.4864985">
<ele>29.26</ele>
<time>2015-05-01T09:55:57Z</time>
</trkpt>
<trkpt lat="34.8044872" lon="33.4864245">
<ele>28.33</ele>
<time>2015-05-01T09:55:59Z</time>
</trkpt>
<trkpt lat="34.8045253" lon="33.4863408">
<ele>28.59</ele>
<time>2015-05-01T09:56:01Z</time>
</trkpt>
<trkpt lat="34.8045600" lon="33.4862504">
<ele>28.91</ele>
<time>2015-05-01T09:56:03Z</time>
</trkpt>
<trkpt lat="34.8045836" lon="33.4861715">
<ele>28.96</ele>
<time>2015-05-01T09:56:04Z</time>
</trkpt>
<trkpt lat="34.8046083" lon="33.4860666">
<ele>29.50</ele>
<time>2015-05-01T09:56:06Z</time>
</trkpt>
<trkpt lat="34.8046280" lon="33.4859663">
<ele>29.14</ele>
<time>2015-05-01T09:56:08Z</time>
</trkpt>
<trkpt lat="34.8046378" lon="33.4858666">
<ele>28.30</ele>
<time>2015-05-01T09:56:10Z</time>
</trkpt>
<trkpt lat="34.8046364" lon="33.4858080">
<ele>28.66</ele>
<time>2015-05-01T09:56:11Z</time>
</trkpt>
<trkpt lat="34.8046346" lon="33.4857441">
<ele>28.84</ele>
<time>2015-05-01T09:56:12Z</time>
</trkpt>
<trkpt lat="34.8046168" lon="33.4856881">
<ele>28.43</ele>
<time>2015-05-01T09:56:13Z</time>
</trkpt>
<trkpt lat="34.8046094" lon="33.4856286">
<ele>28.72</ele>
<time>2015-05-01T09:56:14Z</time>
</trkpt>
<trkpt lat="34.8046023" lon="33.4855735">
<ele>28.87</ele>
<time>2015-05-01T09:56:15Z</time>
</trkpt>
<trkpt lat="34.8045944" lon="33.4855134">
<ele>28.44</ele>
<time>2015-05-01T09:56:16Z</time>
</trkpt>
<trkpt lat="34.8045727" lon="33.4853979">
<ele>27.87</ele>
<time>2015-05-01T09:56:18Z</time>
</trkpt>
<trkpt lat="34.8045708" lon="33.4853358">
<ele>27.44</ele>
<time>2015-05-01T09:56:19Z</time>
</trkpt>
<trkpt lat="34.8045498" lon="33.4852799">
<ele>27.23</ele>
<time>2015-05-01T09:56:20Z</time>
</trkpt>
<trkpt lat="34.8045419" lon="33.4852206">
<ele>27.12</ele>
<time>2015-05-01T09:56:21Z</time>
</trkpt>
<trkpt lat="34.8045415" lon="33.4851641">
<ele>27.57</ele>
<time>2015-05-01T09:56:22Z</time>
</trkpt>
<trkpt lat="34.8045445" lon="33.4851054">
<ele>27.79</ele>
<time>2015-05-01T09:56:23Z</time>
</trkpt>
<trkpt lat="34.8045434" lon="33.4850500">
<ele>27.90</ele>
<time>2015-05-01T09:56:24Z</time>
</trkpt>
<trkpt lat="34.8045488" lon="33.4849533">
<ele>26.74</ele>
<time>2015-05-01T09:56:26Z</time>
</trkpt>
<trkpt lat="34.8045709" lon="33.4848704">
<ele>26.95</ele>
<time>2015-05-01T09:56:28Z</time>
</trkpt>
<trkpt lat="34.8046031" lon="33.4847875">
<ele>28.00</ele>
<time>2015-05-01T09:56:30Z</time>
</trkpt>
<trkpt lat="34.8046273" lon="33.4846946">
<ele>28.51</ele>
<time>2015-05-01T09:56:32Z</time>
</trkpt>
<trkpt lat="34.8046529" lon="33.4846030">
<ele>28.89</ele>
<time>2015-05-01T09:56:34Z</time>
</trkpt>
<trkpt lat="34.8046788" lon="33.4845124">
<ele>28.98</ele>
<time>2015-05-01T09:56:36Z</time>
</trkpt>
<trkpt lat="34.8047044" lon="33.4844268">
<ele>29.01</ele>
<time>2015-05-01T09:56:38Z</time>
</trkpt>
<trkpt lat="34.8047320" lon="33.4843459">
<ele>29.01</ele>
<time>2015-05-01T09:56:40Z</time>
</trkpt>
<trkpt lat="34.8047572" lon="33.4842720">
<ele>28.27</ele>
<time>2015-05-01T09:56:42Z</time>
</trkpt>
<trkpt lat="34.8047820" lon="33.4841984">
<ele>28.08</ele>
<time>2015-05-01T09:56:44Z</time>
</trkpt>
<trkpt lat="34.8048079" lon="33.4841198">
<ele>28.03</ele>
<time>2015-05-01T09:56:46Z</time>
</trkpt>
<trkpt lat="34.8048329" lon="33.4840353">
<ele>28.02</ele>
<time>2015-05-01T09:56:48Z</time>
</trkpt>
<trkpt lat="34.8048585" lon="33.4839438">
<ele>28.02</ele>
<time>2015-05-01T09:56:50Z</time>
</trkpt>
<trkpt lat="34.8048757" lon="33.4838831">
<ele>28.02</ele>
<time>2015-05-01T09:56:51Z</time>
</trkpt>
<trkpt lat="34.8048814" lon="33.4838278">
<ele>27.52</ele>
<time>2015-05-01T09:56:52Z</time>
</trkpt>
<trkpt lat="34.8048893" lon="33.4837720">
<ele>27.27</ele>
<time>2015-05-01T09:56:53Z</time>
</trkpt>
<trkpt lat="34.8048919" lon="33.4837148">
<ele>27.14</ele>
<time>2015-05-01T09:56:54Z</time>
</trkpt>
<trkpt lat="34.8048879" lon="33.4836491">
<ele>27.08</ele>
<time>2015-05-01T09:56:55Z</time>
</trkpt>
<trkpt lat="34.8048888" lon="33.4835810">
<ele>27.55</ele>
<time>2015-05-01T09:56:56Z</time>
</trkpt>
<trkpt lat="34.8048878" lon="33.4835209">
<ele>27.28</ele>
<time>2015-05-01T09:56:57Z</time>
</trkpt>
<trkpt lat="34.8048936" lon="33.4834656">
<ele>27.65</ele>
<time>2015-05-01T09:56:58Z</time>
</trkpt>
<trkpt lat="34.8048946" lon="33.4834063">
<ele>27.83</ele>
<time>2015-05-01T09:56:59Z</time>
</trkpt>
<trkpt lat="34.8048898" lon="33.4833436">
<ele>27.92</ele>
<time>2015-05-01T09:57:00Z</time>
</trkpt>
<trkpt lat="34.8048844" lon="33.4832878">
<ele>27.97</ele>
<time>2015-05-01T09:57:01Z</time>
</trkpt>
<trkpt lat="34.8048703" lon="33.4831876">
<ele>27.50</ele>
<time>2015-05-01T09:57:03Z</time>
</trkpt>
<trkpt lat="34.8048617" lon="33.4830920">
<ele>27.14</ele>
<time>2015-05-01T09:57:05Z</time>
</trkpt>
<trkpt lat="34.8048457" lon="33.4829978">
<ele>27.05</ele>
<time>2015-05-01T09:57:07Z</time>
</trkpt>
<trkpt lat="34.8048262" lon="33.4829480">
<ele>28.03</ele>
<time>2015-05-01T09:57:08Z</time>
</trkpt>
<trkpt lat="34.8048038" lon="33.4828979">
<ele>29.02</ele>
<time>2015-05-01T09:57:09Z</time>
</trkpt>
<trkpt lat="34.8047600" lon="33.4828158">
<ele>30.52</ele>
<time>2015-05-01T09:57:11Z</time>
</trkpt>
<trkpt lat="34.8047342" lon="33.4827688">
<ele>31.27</ele>
<time>2015-05-01T09:57:12Z</time>
</trkpt>
<trkpt lat="34.8046957" lon="33.4826676">
<ele>31.83</ele>
<time>2015-05-01T09:57:14Z</time>
</trkpt>
<trkpt lat="34.8046624" lon="33.4825626">
<ele>31.97</ele>
<time>2015-05-01T09:57:16Z</time>
</trkpt>
<trkpt lat="34.8046366" lon="33.4825113">
<ele>31.99</ele>
<time>2015-05-01T09:57:17Z</time>
</trkpt>
<trkpt lat="34.8046106" lon="33.4824602">
<ele>32.00</ele>
<time>2015-05-01T09:57:18Z</time>
</trkpt>
<trkpt lat="34.8045866" lon="33.4824046">
<ele>32.01</ele>
<time>2015-05-01T09:57:19Z</time>
</trkpt>
<trkpt lat="34.8045559" lon="33.4823030">
<ele>32.51</ele>
<time>2015-05-01T09:57:21Z</time>
</trkpt>
<trkpt lat="34.8045263" lon="33.4822116">
<ele>32.14</ele>
<time>2015-05-01T09:57:23Z</time>
</trkpt>
<trkpt lat="34.8045053" lon="33.4821568">
<ele>32.08</ele>
<time>2015-05-01T09:57:24Z</time>
</trkpt>
<trkpt lat="34.8044726" lon="33.4820541">
<ele>32.03</ele>
<time>2015-05-01T09:57:26Z</time>
</trkpt>
<trkpt lat="34.8044647" lon="33.4819543">
<ele>32.02</ele>
<time>2015-05-01T09:57:28Z</time>
</trkpt>
<trkpt lat="34.8044671" lon="33.4818426">
<ele>30.77</ele>
<time>2015-05-01T09:57:30Z</time>
</trkpt>
<trkpt lat="34.8044550" lon="33.4817373">
<ele>30.20</ele>
<time>2015-05-01T09:57:32Z</time>
</trkpt>
<trkpt lat="34.8044569" lon="33.4816405">
<ele>31.31</ele>
<time>2015-05-01T09:57:34Z</time>
</trkpt>
<trkpt lat="34.8044660" lon="33.4815369">
<ele>32.34</ele>
<time>2015-05-01T09:57:36Z</time>
</trkpt>
<trkpt lat="34.8044805" lon="33.4814381">
<ele>32.85</ele>
<time>2015-05-01T09:57:38Z</time>
</trkpt>
<trkpt lat="34.8045009" lon="33.4813376">
<ele>32.47</ele>
<time>2015-05-01T09:57:40Z</time>
</trkpt>
<trkpt lat="34.8045202" lon="33.4812402">
<ele>32.88</ele>
<time>2015-05-01T09:57:42Z</time>
</trkpt>
<trkpt lat="34.8045429" lon="33.4811412">
<ele>32.23</ele>
<time>2015-05-01T09:57:44Z</time>
</trkpt>
<trkpt lat="34.8045632" lon="33.4810431">
<ele>31.32</ele>
<time>2015-05-01T09:57:46Z</time>
</trkpt>
<trkpt lat="34.8045806" lon="33.4809432">
<ele>31.84</ele>
<time>2015-05-01T09:57:48Z</time>
</trkpt>
<trkpt lat="34.8045960" lon="33.4808488">
<ele>31.97</ele>
<time>2015-05-01T09:57:50Z</time>
</trkpt>
<trkpt lat="34.8046098" lon="33.4807567">
<ele>32.01</ele>
<time>2015-05-01T09:57:52Z</time>
</trkpt>
<trkpt lat="34.8046210" lon="33.4806656">
<ele>32.51</ele>
<time>2015-05-01T09:57:54Z</time>
</trkpt>
<trkpt lat="34.8046317" lon="33.4805694">
<ele>32.64</ele>
<time>2015-05-01T09:57:56Z</time>
</trkpt>
<trkpt lat="34.8046436" lon="33.4804729">
<ele>32.92</ele>
<time>2015-05-01T09:57:58Z</time>
</trkpt>
<trkpt lat="34.8046543" lon="33.4803762">
<ele>32.49</ele>
<time>2015-05-01T09:58:00Z</time>
</trkpt>
<trkpt lat="34.8046578" lon="33.4802796">
<ele>32.64</ele>
<time>2015-05-01T09:58:02Z</time>
</trkpt>
<trkpt lat="34.8046484" lon="33.4801818">
<ele>32.92</ele>
<time>2015-05-01T09:58:04Z</time>
</trkpt>
<trkpt lat="34.8046389" lon="33.4800831">
<ele>32.24</ele>
<time>2015-05-01T09:58:06Z</time>
</trkpt>
<trkpt lat="34.8046171" lon="33.4799805">
<ele>33.32</ele>
<time>2015-05-01T09:58:08Z</time>
</trkpt>
<trkpt lat="34.8045888" lon="33.4798801">
<ele>33.84</ele>
<time>2015-05-01T09:58:10Z</time>
</trkpt>
<trkpt lat="34.8045623" lon="33.4797792">
<ele>33.22</ele>
<time>2015-05-01T09:58:12Z</time>
</trkpt>
<trkpt lat="34.8045337" lon="33.4796792">
<ele>33.07</ele>
<time>2015-05-01T09:58:14Z</time>
</trkpt>
<trkpt lat="34.8045049" lon="33.4795807">
<ele>33.03</ele>
<time>2015-05-01T09:58:16Z</time>
</trkpt>
<trkpt lat="34.8044812" lon="33.4794840">
<ele>32.77</ele>
<time>2015-05-01T09:58:18Z</time>
</trkpt>
<trkpt lat="34.8044546" lon="33.4793912">
<ele>32.45</ele>
<time>2015-05-01T09:58:20Z</time>
</trkpt>
<trkpt lat="34.8044284" lon="33.4792968">
<ele>32.13</ele>
<time>2015-05-01T09:58:22Z</time>
</trkpt>
<trkpt lat="34.8043999" lon="33.4792026">
<ele>32.79</ele>
<time>2015-05-01T09:58:24Z</time>
</trkpt>
<trkpt lat="34.8043715" lon="33.4791100">
<ele>33.46</ele>
<time>2015-05-01T09:58:26Z</time>
</trkpt>
<trkpt lat="34.8043439" lon="33.4790164">
<ele>33.88</ele>
<time>2015-05-01T09:58:28Z</time>
</trkpt>
<trkpt lat="34.8043168" lon="33.4789205">
<ele>34.48</ele>
<time>2015-05-01T09:58:30Z</time>
</trkpt>
<trkpt lat="34.8042921" lon="33.4788234">
<ele>34.13</ele>
<time>2015-05-01T09:58:32Z</time>
</trkpt>
<trkpt lat="34.8042695" lon="33.4787273">
<ele>34.80</ele>
<time>2015-05-01T09:58:34Z</time>
</trkpt>
<trkpt lat="34.8042501" lon="33.4786337">
<ele>34.96</ele>
<time>2015-05-01T09:58:36Z</time>
</trkpt>
<trkpt lat="34.8042300" lon="33.4785414">
<ele>35.50</ele>
<time>2015-05-01T09:58:38Z</time>
</trkpt>
<trkpt lat="34.8042061" lon="33.4784540">
<ele>35.64</ele>
<time>2015-05-01T09:58:40Z</time>
</trkpt>
<trkpt lat="34.8041848" lon="33.4783702">
<ele>35.92</ele>
<time>2015-05-01T09:58:42Z</time>
</trkpt>
<trkpt lat="34.8041689" lon="33.4782964">
<ele>35.49</ele>
<time>2015-05-01T09:58:44Z</time>
</trkpt>
<trkpt lat="34.8041514" lon="33.4782409">
<ele>35.89</ele>
<time>2015-05-01T09:58:46Z</time>
</trkpt>
<trkpt lat="34.8041355" lon="33.4781893">
<ele>36.23</ele>
<time>2015-05-01T09:58:48Z</time>
</trkpt>
<trkpt lat="34.8041228" lon="33.4781299">
<ele>35.57</ele>
<time>2015-05-01T09:58:50Z</time>
</trkpt>
<trkpt lat="34.8041113" lon="33.4780628">
<ele>35.40</ele>
<time>2015-05-01T09:58:52Z</time>
</trkpt>
<trkpt lat="34.8040985" lon="33.4779929">
<ele>35.11</ele>
<time>2015-05-01T09:58:54Z</time>
</trkpt>
<trkpt lat="34.8040840" lon="33.4779183">
<ele>35.79</ele>
<time>2015-05-01T09:58:56Z</time>
</trkpt>
<trkpt lat="34.8040681" lon="33.4778416">
<ele>36.71</ele>
<time>2015-05-01T09:58:58Z</time>
</trkpt>
<trkpt lat="34.8040565" lon="33.4777689">
<ele>36.94</ele>
<time>2015-05-01T09:59:00Z</time>
</trkpt>
<trkpt lat="34.8040453" lon="33.4777027">
<ele>37.00</ele>
<time>2015-05-01T09:59:02Z</time>
</trkpt>
<trkpt lat="34.8040344" lon="33.4776466">
<ele>37.01</ele>
<time>2015-05-01T09:59:04Z</time>
</trkpt>
<trkpt lat="34.8040264" lon="33.4775831">
<ele>37.02</ele>
<time>2015-05-01T09:59:07Z</time>
</trkpt>
<trkpt lat="34.8040144" lon="33.4775166">
<ele>37.02</ele>
<time>2015-05-01T09:59:10Z</time>
</trkpt>
<trkpt lat="34.8040032" lon="33.4774435">
<ele>37.02</ele>
<time>2015-05-01T09:59:13Z</time>
</trkpt>
<trkpt lat="34.8039903" lon="33.4773848">
<ele>37.02</ele>
<time>2015-05-01T09:59:15Z</time>
</trkpt>
<trkpt lat="34.8039770" lon="33.4773137">
<ele>37.02</ele>
<time>2015-05-01T09:59:17Z</time>
</trkpt>
<trkpt lat="34.8039606" lon="33.4772284">
<ele>37.02</ele>
<time>2015-05-01T09:59:19Z</time>
</trkpt>
<trkpt lat="34.8039495" lon="33.4771333">
<ele>36.27</ele>
<time>2015-05-01T09:59:21Z</time>
</trkpt>
<trkpt lat="34.8039406" lon="33.4770453">
<ele>35.83</ele>
<time>2015-05-01T09:59:23Z</time>
</trkpt>
<trkpt lat="34.8039330" lon="33.4769538">
<ele>35.22</ele>
<time>2015-05-01T09:59:25Z</time>
</trkpt>
<trkpt lat="34.8039181" lon="33.4768648">
<ele>35.57</ele>
<time>2015-05-01T09:59:27Z</time>
</trkpt>
<trkpt lat="34.8039059" lon="33.4767753">
<ele>35.90</ele>
<time>2015-05-01T09:59:29Z</time>
</trkpt>
<trkpt lat="34.8038945" lon="33.4766904">
<ele>36.74</ele>
<time>2015-05-01T09:59:31Z</time>
</trkpt>
<trkpt lat="34.8038857" lon="33.4766036">
<ele>36.95</ele>
<time>2015-05-01T09:59:33Z</time>
</trkpt>
<trkpt lat="34.8038783" lon="33.4765191">
<ele>37.00</ele>
<time>2015-05-01T09:59:35Z</time>
</trkpt>
<trkpt lat="34.8038662" lon="33.4764359">
<ele>37.01</ele>
<time>2015-05-01T09:59:37Z</time>
</trkpt>
<trkpt lat="34.8038523" lon="33.4763544">
<ele>37.01</ele>
<time>2015-05-01T09:59:39Z</time>
</trkpt>
<trkpt lat="34.8038425" lon="33.4762690">
<ele>37.77</ele>
<time>2015-05-01T09:59:41Z</time>
</trkpt>
<trkpt lat="34.8038361" lon="33.4761828">
<ele>37.45</ele>
<time>2015-05-01T09:59:43Z</time>
</trkpt>
<trkpt lat="34.8038290" lon="33.4761082">
<ele>37.13</ele>
<time>2015-05-01T09:59:45Z</time>
</trkpt>
<trkpt lat="34.8038208" lon="33.4760383">
<ele>36.54</ele>
<time>2015-05-01T09:59:47Z</time>
</trkpt>
<trkpt lat="34.8038130" lon="33.4759686">
<ele>36.15</ele>
<time>2015-05-01T09:59:49Z</time>
</trkpt>
<trkpt lat="34.8038012" lon="33.4759039">
<ele>35.55</ele>
<time>2015-05-01T09:59:51Z</time>
</trkpt>
<trkpt lat="34.8037938" lon="33.4758350">
<ele>35.90</ele>
<time>2015-05-01T09:59:53Z</time>
</trkpt>
<trkpt lat="34.8037862" lon="33.4757635">
<ele>35.99</ele>
<time>2015-05-01T09:59:55Z</time>
</trkpt>
<trkpt lat="34.8037789" lon="33.4756890">
<ele>36.01</ele>
<time>2015-05-01T09:59:57Z</time>
</trkpt>
<trkpt lat="34.8037690" lon="33.4756144">
<ele>36.01</ele>
<time>2015-05-01T09:59:59Z</time>
</trkpt>
<trkpt lat="34.8037617" lon="33.4755408">
<ele>36.02</ele>
<time>2015-05-01T10:00:01Z</time>
</trkpt>
<trkpt lat="34.8037538" lon="33.4754709">
<ele>35.27</ele>
<time>2015-05-01T10:00:03Z</time>
</trkpt>
<trkpt lat="34.8037453" lon="33.4753999">
<ele>35.08</ele>
<time>2015-05-01T10:00:05Z</time>
</trkpt>
<trkpt lat="34.8037349" lon="33.4753212">
<ele>35.03</ele>
<time>2015-05-01T10:00:07Z</time>
</trkpt>
<trkpt lat="34.8037251" lon="33.4752382">
<ele>35.02</ele>
<time>2015-05-01T10:00:09Z</time>
</trkpt>
<trkpt lat="34.8037206" lon="33.4751523">
<ele>35.02</ele>
<time>2015-05-01T10:00:11Z</time>
</trkpt>
<trkpt lat="34.8037082" lon="33.4750649">
<ele>35.02</ele>
<time>2015-05-01T10:00:13Z</time>
</trkpt>
<trkpt lat="34.8036970" lon="33.4749812">
<ele>35.02</ele>
<time>2015-05-01T10:00:15Z</time>
</trkpt>
<trkpt lat="34.8036910" lon="33.4749020">
<ele>35.77</ele>
<time>2015-05-01T10:00:17Z</time>
</trkpt>
<trkpt lat="34.8036859" lon="33.4748230">
<ele>35.45</ele>
<time>2015-05-01T10:00:19Z</time>
</trkpt>
<trkpt lat="34.8036829" lon="33.4747413">
<ele>35.88</ele>
<time>2015-05-01T10:00:21Z</time>
</trkpt>
<trkpt lat="34.8036800" lon="33.4746576">
<ele>36.48</ele>
<time>2015-05-01T10:00:23Z</time>
</trkpt>
<trkpt lat="34.8036788" lon="33.4745672">
<ele>36.13</ele>
<time>2015-05-01T10:00:25Z</time>
</trkpt>
<trkpt lat="34.8036768" lon="33.4744796">
<ele>36.05</ele>
<time>2015-05-01T10:00:27Z</time>
</trkpt>
<trkpt lat="34.8036734" lon="33.4743968">
<ele>36.02</ele>
<time>2015-05-01T10:00:29Z</time>
</trkpt>
<trkpt lat="34.8036757" lon="33.4743316">
<ele>36.02</ele>
<time>2015-05-01T10:00:31Z</time>
</trkpt>
<trkpt lat="34.8036785" lon="33.4742560">
<ele>36.02</ele>
<time>2015-05-01T10:00:33Z</time>
</trkpt>
<trkpt lat="34.8036845" lon="33.4741749">
<ele>36.02</ele>
<time>2015-05-01T10:00:35Z</time>
</trkpt>
<trkpt lat="34.8036940" lon="33.4740851">
<ele>36.02</ele>
<time>2015-05-01T10:00:37Z</time>
</trkpt>
<trkpt lat="34.8037132" lon="33.4739973">
<ele>36.02</ele>
<time>2015-05-01T10:00:39Z</time>
</trkpt>
<trkpt lat="34.8037297" lon="33.4739163">
<ele>36.02</ele>
<time>2015-05-01T10:00:41Z</time>
</trkpt>
<trkpt lat="34.8037445" lon="33.4738369">
<ele>35.27</ele>
<time>2015-05-01T10:00:43Z</time>
</trkpt>
<trkpt lat="34.8037596" lon="33.4737580">
<ele>35.83</ele>
<time>2015-05-01T10:00:45Z</time>
</trkpt>
<trkpt lat="34.8037762" lon="33.4736798">
<ele>35.97</ele>
<time>2015-05-01T10:00:47Z</time>
</trkpt>
<trkpt lat="34.8037911" lon="33.4735994">
<ele>36.00</ele>
<time>2015-05-01T10:00:49Z</time>
</trkpt>
<trkpt lat="34.8038041" lon="33.4735250">
<ele>36.01</ele>
<time>2015-05-01T10:00:51Z</time>
</trkpt>
<trkpt lat="34.8038162" lon="33.4734518">
<ele>36.14</ele>
<time>2015-05-01T10:00:54Z</time>
</trkpt>
<trkpt lat="34.8038285" lon="33.4733987">
<ele>36.05</ele>
<time>2015-05-01T10:00:56Z</time>
</trkpt>
<trkpt lat="34.8038373" lon="33.4733300">
<ele>36.02</ele>
<time>2015-05-01T10:00:58Z</time>
</trkpt>
<trkpt lat="34.8038482" lon="33.4732529">
<ele>36.52</ele>
<time>2015-05-01T10:01:00Z</time>
</trkpt>
<trkpt lat="34.8038617" lon="33.4731753">
<ele>36.89</ele>
<time>2015-05-01T10:01:02Z</time>
</trkpt>
<trkpt lat="34.8038736" lon="33.4730971">
<ele>36.98</ele>
<time>2015-05-01T10:01:04Z</time>
</trkpt>
<trkpt lat="34.8038879" lon="33.4730193">
<ele>37.01</ele>
<time>2015-05-01T10:01:06Z</time>
</trkpt>
<trkpt lat="34.8039047" lon="33.4729429">
<ele>36.26</ele>
<time>2015-05-01T10:01:08Z</time>
</trkpt>
<trkpt lat="34.8039211" lon="33.4728674">
<ele>36.08</ele>
<time>2015-05-01T10:01:10Z</time>
</trkpt>
<trkpt lat="34.8039382" lon="33.4727899">
<ele>36.03</ele>
<time>2015-05-01T10:01:12Z</time>
</trkpt>
<trkpt lat="34.8039575" lon="33.4727117">
<ele>36.27</ele>
<time>2015-05-01T10:01:14Z</time>
</trkpt>
<trkpt lat="34.8039776" lon="33.4726341">
<ele>36.83</ele>
<time>2015-05-01T10:01:16Z</time>
</trkpt>
<trkpt lat="34.8039984" lon="33.4725554">
<ele>36.97</ele>
<time>2015-05-01T10:01:18Z</time>
</trkpt>
<trkpt lat="34.8040211" lon="33.4724776">
<ele>37.00</ele>
<time>2015-05-01T10:01:20Z</time>
</trkpt>
<trkpt lat="34.8040412" lon="33.4723994">
<ele>37.01</ele>
<time>2015-05-01T10:01:22Z</time>
</trkpt>
<trkpt lat="34.8040639" lon="33.4723209">
<ele>37.02</ele>
<time>2015-05-01T10:01:24Z</time>
</trkpt>
<trkpt lat="34.8040894" lon="33.4722438">
<ele>37.52</ele>
<time>2015-05-01T10:01:26Z</time>
</trkpt>
<trkpt lat="34.8041113" lon="33.4721667">
<ele>37.39</ele>
<time>2015-05-01T10:01:28Z</time>
</trkpt>
<trkpt lat="34.8041360" lon="33.4720918">
<ele>37.36</ele>
<time>2015-05-01T10:01:30Z</time>
</trkpt>
<trkpt lat="34.8041703" lon="33.4720230">
<ele>37.10</ele>
<time>2015-05-01T10:01:32Z</time>
</trkpt>
<trkpt lat="34.8042017" lon="33.4719523">
<ele>37.54</ele>
<time>2015-05-01T10:01:34Z</time>
</trkpt>
<trkpt lat="34.8042260" lon="33.4718742">
<ele>37.90</ele>
<time>2015-05-01T10:01:36Z</time>
</trkpt>
<trkpt lat="34.8042541" lon="33.4717992">
<ele>37.99</ele>
<time>2015-05-01T10:01:38Z</time>
</trkpt>
<trkpt lat="34.8042836" lon="33.4717238">
<ele>38.01</ele>
<time>2015-05-01T10:01:40Z</time>
</trkpt>
<trkpt lat="34.8043147" lon="33.4716482">
<ele>38.01</ele>
<time>2015-05-01T10:01:42Z</time>
</trkpt>
<trkpt lat="34.8043480" lon="33.4715739">
<ele>38.02</ele>
<time>2015-05-01T10:01:44Z</time>
</trkpt>
<trkpt lat="34.8043816" lon="33.4714979">
<ele>38.52</ele>
<time>2015-05-01T10:01:46Z</time>
</trkpt>
<trkpt lat="34.8044149" lon="33.4714196">
<ele>38.89</ele>
<time>2015-05-01T10:01:48Z</time>
</trkpt>
<trkpt lat="34.8044482" lon="33.4713395">
<ele>38.98</ele>
<time>2015-05-01T10:01:50Z</time>
</trkpt>
<trkpt lat="34.8044810" lon="33.4712596">
<ele>39.01</ele>
<time>2015-05-01T10:01:52Z</time>
</trkpt>
<trkpt lat="34.8045174" lon="33.4711770">
<ele>39.76</ele>
<time>2015-05-01T10:01:54Z</time>
</trkpt>
<trkpt lat="34.8045499" lon="33.4711010">
<ele>39.95</ele>
<time>2015-05-01T10:01:56Z</time>
</trkpt>
<trkpt lat="34.8045770" lon="33.4710353">
<ele>40.00</ele>
<time>2015-05-01T10:01:58Z</time>
</trkpt>
<trkpt lat="34.8046108" lon="33.4709728">
<ele>40.01</ele>
<time>2015-05-01T10:02:00Z</time>
</trkpt>
<trkpt lat="34.8046403" lon="33.4709125">
<ele>40.77</ele>
<time>2015-05-01T10:02:02Z</time>
</trkpt>
<trkpt lat="34.8046649" lon="33.4708424">
<ele>40.98</ele>
<time>2015-05-01T10:02:05Z</time>
</trkpt>
<trkpt lat="34.8046886" lon="33.4707770">
<ele>40.26</ele>
<time>2015-05-01T10:02:09Z</time>
</trkpt>
<trkpt lat="34.8047054" lon="33.4707206">
<ele>40.17</ele>
<time>2015-05-01T10:02:12Z</time>
</trkpt>
<trkpt lat="34.8047279" lon="33.4706582">
<ele>40.04</ele>
<time>2015-05-01T10:02:15Z</time>
</trkpt>
<trkpt lat="34.8047481" lon="33.4705909">
<ele>40.02</ele>
<time>2015-05-01T10:02:18Z</time>
</trkpt>
<trkpt lat="34.8047708" lon="33.4705208">
<ele>40.02</ele>
<time>2015-05-01T10:02:20Z</time>
</trkpt>
<trkpt lat="34.8047906" lon="33.4704493">
<ele>40.02</ele>
<time>2015-05-01T10:02:22Z</time>
</trkpt>
<trkpt lat="34.8048121" lon="33.4703823">
<ele>40.02</ele>
<time>2015-05-01T10:02:24Z</time>
</trkpt>
<trkpt lat="34.8048339" lon="33.4703153">
<ele>40.77</ele>
<time>2015-05-01T10:02:26Z</time>
</trkpt>
<trkpt lat="34.8048590" lon="33.4702385">
<ele>40.95</ele>
<time>2015-05-01T10:02:28Z</time>
</trkpt>
<trkpt lat="34.8048846" lon="33.4701536">
<ele>41.50</ele>
<time>2015-05-01T10:02:30Z</time>
</trkpt>
<trkpt lat="34.8049121" lon="33.4700678">
<ele>41.89</ele>
<time>2015-05-01T10:02:32Z</time>
</trkpt>
<trkpt lat="34.8049410" lon="33.4699819">
<ele>41.98</ele>
<time>2015-05-01T10:02:34Z</time>
</trkpt>
<trkpt lat="34.8049701" lon="33.4698975">
<ele>42.01</ele>
<time>2015-05-01T10:02:36Z</time>
</trkpt>
<trkpt lat="34.8049961" lon="33.4698128">
<ele>42.51</ele>
<time>2015-05-01T10:02:38Z</time>
</trkpt>
<trkpt lat="34.8050206" lon="33.4697294">
<ele>42.89</ele>
<time>2015-05-01T10:02:40Z</time>
</trkpt>
<trkpt lat="34.8050444" lon="33.4696486">
<ele>42.98</ele>
<time>2015-05-01T10:02:42Z</time>
</trkpt>
<trkpt lat="34.8050707" lon="33.4695674">
<ele>43.01</ele>
<time>2015-05-01T10:02:44Z</time>
</trkpt>
<trkpt lat="34.8050976" lon="33.4694944">
<ele>43.26</ele>
<time>2015-05-01T10:02:46Z</time>
</trkpt>
<trkpt lat="34.8051235" lon="33.4694158">
<ele>43.83</ele>
<time>2015-05-01T10:02:48Z</time>
</trkpt>
<trkpt lat="34.8051511" lon="33.4693366">
<ele>43.72</ele>
<time>2015-05-01T10:02:50Z</time>
</trkpt>
<trkpt lat="34.8051796" lon="33.4692563">
<ele>43.94</ele>
<time>2015-05-01T10:02:52Z</time>
</trkpt>
<trkpt lat="34.8052091" lon="33.4691809">
<ele>44.00</ele>
<time>2015-05-01T10:02:54Z</time>
</trkpt>
<trkpt lat="34.8052392" lon="33.4691053">
<ele>44.01</ele>
<time>2015-05-01T10:02:56Z</time>
</trkpt>
<trkpt lat="34.8052713" lon="33.4690321">
<ele>44.01</ele>
<time>2015-05-01T10:02:58Z</time>
</trkpt>
<trkpt lat="34.8053003" lon="33.4689566">
<ele>44.02</ele>
<time>2015-05-01T10:03:00Z</time>
</trkpt>
<trkpt lat="34.8053286" lon="33.4688820">
<ele>44.02</ele>
<time>2015-05-01T10:03:02Z</time>
</trkpt>
<trkpt lat="34.8053541" lon="33.4688184">
<ele>44.02</ele>
<time>2015-05-01T10:03:04Z</time>
</trkpt>
<trkpt lat="34.8053765" lon="33.4687616">
<ele>44.02</ele>
<time>2015-05-01T10:03:06Z</time>
</trkpt>
<trkpt lat="34.8054104" lon="33.4687004">
<ele>43.14</ele>
<time>2015-05-01T10:03:09Z</time>
</trkpt>
<trkpt lat="34.8054358" lon="33.4686483">
<ele>43.03</ele>
<time>2015-05-01T10:03:12Z</time>
</trkpt>
<trkpt lat="34.8054634" lon="33.4686036">
<ele>43.02</ele>
<time>2015-05-01T10:03:15Z</time>
</trkpt>
<trkpt lat="34.8054926" lon="33.4685326">
<ele>43.02</ele>
<time>2015-05-01T10:03:18Z</time>
</trkpt>
<trkpt lat="34.8055199" lon="33.4684696">
<ele>43.02</ele>
<time>2015-05-01T10:03:21Z</time>
</trkpt>
<trkpt lat="34.8055442" lon="33.4684168">
<ele>43.02</ele>
<time>2015-05-01T10:03:25Z</time>
</trkpt>
<trkpt lat="34.8055674" lon="33.4683446">
<ele>43.02</ele>
<time>2015-05-01T10:03:28Z</time>
</trkpt>
<trkpt lat="34.8056002" lon="33.4682665">
<ele>43.02</ele>
<time>2015-05-01T10:03:30Z</time>
</trkpt>
<trkpt lat="34.8056305" lon="33.4681845">
<ele>43.02</ele>
<time>2015-05-01T10:03:32Z</time>
</trkpt>
<trkpt lat="34.8056598" lon="33.4681072">
<ele>43.02</ele>
<time>2015-05-01T10:03:34Z</time>
</trkpt>
<trkpt lat="34.8056906" lon="33.4680243">
<ele>43.02</ele>
<time>2015-05-01T10:03:36Z</time>
</trkpt>
<trkpt lat="34.8057206" lon="33.4679404">
<ele>43.02</ele>
<time>2015-05-01T10:03:38Z</time>
</trkpt>
<trkpt lat="34.8057468" lon="33.4678576">
<ele>43.77</ele>
<time>2015-05-01T10:03:40Z</time>
</trkpt>
<trkpt lat="34.8057643" lon="33.4677926">
<ele>43.95</ele>
<time>2015-05-01T10:03:42Z</time>
</trkpt>
<trkpt lat="34.8057863" lon="33.4677370">
<ele>44.00</ele>
<time>2015-05-01T10:03:44Z</time>
</trkpt>
<trkpt lat="34.8058093" lon="33.4676724">
<ele>44.01</ele>
<time>2015-05-01T10:03:47Z</time>
</trkpt>
<trkpt lat="34.8058199" lon="33.4675942">
<ele>44.02</ele>
<time>2015-05-01T10:03:49Z</time>
</trkpt>
<trkpt lat="34.8058370" lon="33.4675077">
<ele>44.02</ele>
<time>2015-05-01T10:03:51Z</time>
</trkpt>
<trkpt lat="34.8058555" lon="33.4674302">
<ele>44.02</ele>
<time>2015-05-01T10:03:53Z</time>
</trkpt>
<trkpt lat="34.8058669" lon="33.4673727">
<ele>44.52</ele>
<time>2015-05-01T10:03:55Z</time>
</trkpt>
<trkpt lat="34.8058782" lon="33.4673060">
<ele>44.89</ele>
<time>2015-05-01T10:03:57Z</time>
</trkpt>
<trkpt lat="34.8058983" lon="33.4672167">
<ele>44.98</ele>
<time>2015-05-01T10:03:59Z</time>
</trkpt>
<trkpt lat="34.8059160" lon="33.4671400">
<ele>45.01</ele>
<time>2015-05-01T10:04:01Z</time>
</trkpt>
<trkpt lat="34.8059299" lon="33.4670645">
<ele>45.01</ele>
<time>2015-05-01T10:04:03Z</time>
</trkpt>
<trkpt lat="34.8059471" lon="33.4669852">
<ele>45.02</ele>
<time>2015-05-01T10:04:05Z</time>
</trkpt>
<trkpt lat="34.8059635" lon="33.4669065">
<ele>45.52</ele>
<time>2015-05-01T10:04:07Z</time>
</trkpt>
<trkpt lat="34.8059720" lon="33.4668429">
<ele>45.14</ele>
<time>2015-05-01T10:04:09Z</time>
</trkpt>
<trkpt lat="34.8059892" lon="33.4667817">
<ele>45.55</ele>
<time>2015-05-01T10:04:11Z</time>
</trkpt>
<trkpt lat="34.8060077" lon="33.4667126">
<ele>45.90</ele>
<time>2015-05-01T10:04:13Z</time>
</trkpt>
<trkpt lat="34.8060236" lon="33.4666176">
<ele>45.99</ele>
<time>2015-05-01T10:04:15Z</time>
</trkpt>
<trkpt lat="34.8060422" lon="33.4665270">
<ele>46.01</ele>
<time>2015-05-01T10:04:17Z</time>
</trkpt>
<trkpt lat="34.8060612" lon="33.4664411">
<ele>46.01</ele>
<time>2015-05-01T10:04:19Z</time>
</trkpt>
<trkpt lat="34.8060661" lon="33.4663764">
<ele>46.02</ele>
<time>2015-05-01T10:04:21Z</time>
</trkpt>
<trkpt lat="34.8060244" lon="33.4663525">
<ele>46.02</ele>
<time>2015-05-01T10:04:31Z</time>
</trkpt>
<trkpt lat="34.8059800" lon="33.4663370">
<ele>45.27</ele>
<time>2015-05-01T10:05:30Z</time>
</trkpt>
<trkpt lat="34.8059328" lon="33.4663402">
<ele>45.31</ele>
<time>2015-05-01T10:05:43Z</time>
</trkpt>
<trkpt lat="34.8058836" lon="33.4663392">
<ele>45.05</ele>
<time>2015-05-01T10:05:46Z</time>
</trkpt>
<trkpt lat="34.8058338" lon="33.4663456">
<ele>44.27</ele>
<time>2015-05-01T10:05:49Z</time>
</trkpt>
<trkpt lat="34.8057812" lon="33.4663507">
<ele>44.17</ele>
<time>2015-05-01T10:05:52Z</time>
</trkpt>
<trkpt lat="34.8057251" lon="33.4663546">
<ele>44.79</ele>
<time>2015-05-01T10:05:55Z</time>
</trkpt>
<trkpt lat="34.8056593" lon="33.4663625">
<ele>45.49</ele>
<time>2015-05-01T10:05:58Z</time>
</trkpt>
<trkpt lat="34.8056061" lon="33.4663626">
<ele>45.88</ele>
<time>2015-05-01T10:06:00Z</time>
</trkpt>
<trkpt lat="34.8055547" lon="33.4663729">
<ele>45.98</ele>
<time>2015-05-01T10:06:02Z</time>
</trkpt>
<trkpt lat="34.8055040" lon="33.4663940">
<ele>46.76</ele>
<time>2015-05-01T10:06:04Z</time>
</trkpt>
<trkpt lat="34.8054523" lon="33.4664056">
<ele>46.95</ele>
<time>2015-05-01T10:06:06Z</time>
</trkpt>
<trkpt lat="34.8054008" lon="33.4664154">
<ele>47.75</ele>
<time>2015-05-01T10:06:08Z</time>
</trkpt>
<trkpt lat="34.8053534" lon="33.4664273">
<ele>47.95</ele>
<time>2015-05-01T10:06:10Z</time>
</trkpt>
<trkpt lat="34.8053024" lon="33.4664292">
<ele>48.01</ele>
<time>2015-05-01T10:06:13Z</time>
</trkpt>
<trkpt lat="34.8052509" lon="33.4664502">
<ele>48.02</ele>
<time>2015-05-01T10:06:17Z</time>
</trkpt>
<trkpt lat="34.8052077" lon="33.4664781">
<ele>48.02</ele>
<time>2015-05-01T10:06:20Z</time>
</trkpt>
<trkpt lat="34.8051663" lon="33.4665144">
<ele>48.89</ele>
<time>2015-05-01T10:06:23Z</time>
</trkpt>
<trkpt lat="34.8051227" lon="33.4665483">
<ele>49.00</ele>
<time>2015-05-01T10:06:26Z</time>
</trkpt>
<trkpt lat="34.8050872" lon="33.4665843">
<ele>49.51</ele>
<time>2015-05-01T10:06:29Z</time>
</trkpt>
<trkpt lat="34.8050482" lon="33.4666189">
<ele>50.83</ele>
<time>2015-05-01T10:06:32Z</time>
</trkpt>
<trkpt lat="34.8050126" lon="33.4666537">
<ele>50.99</ele>
<time>2015-05-01T10:06:35Z</time>
</trkpt>
<trkpt lat="34.8049691" lon="33.4666948">
<ele>51.95</ele>
<time>2015-05-01T10:06:39Z</time>
</trkpt>
<trkpt lat="34.8049331" lon="33.4667416">
<ele>52.01</ele>
<time>2015-05-01T10:06:43Z</time>
</trkpt>
<trkpt lat="34.8048970" lon="33.4667802">
<ele>52.27</ele>
<time>2015-05-01T10:06:47Z</time>
</trkpt>
<trkpt lat="34.8048700" lon="33.4668264">
<ele>53.41</ele>
<time>2015-05-01T10:06:51Z</time>
</trkpt>
<trkpt lat="34.8048478" lon="33.4668778">
<ele>53.98</ele>
<time>2015-05-01T10:06:55Z</time>
</trkpt>
<trkpt lat="34.8048315" lon="33.4669318">
<ele>54.95</ele>
<time>2015-05-01T10:06:59Z</time>
</trkpt>
<trkpt lat="34.8048105" lon="33.4669848">
<ele>56.64</ele>
<time>2015-05-01T10:07:03Z</time>
</trkpt>
<trkpt lat="34.8047980" lon="33.4670424">
<ele>56.99</ele>
<time>2015-05-01T10:07:07Z</time>
</trkpt>
<trkpt lat="34.8047793" lon="33.4670983">
<ele>57.89</ele>
<time>2015-05-01T10:07:11Z</time>
</trkpt>
<trkpt lat="34.8047605" lon="33.4671576">
<ele>58.88</ele>
<time>2015-05-01T10:07:15Z</time>
</trkpt>
<trkpt lat="34.8047247" lon="33.4672033">
<ele>59.01</ele>
<time>2015-05-01T10:07:19Z</time>
</trkpt>
<trkpt lat="34.8046803" lon="33.4672398">
<ele>59.77</ele>
<time>2015-05-01T10:07:23Z</time>
</trkpt>
<trkpt lat="34.8046297" lon="33.4672638">
<ele>60.00</ele>
<time>2015-05-01T10:07:27Z</time>
</trkpt>
<trkpt lat="34.8045771" lon="33.4672718">
<ele>61.39</ele>
<time>2015-05-01T10:07:31Z</time>
</trkpt>
<trkpt lat="34.8045237" lon="33.4672692">
<ele>61.29</ele>
<time>2015-05-01T10:07:35Z</time>
</trkpt>
<trkpt lat="34.8044783" lon="33.4672671">
<ele>62.02</ele>
<time>2015-05-01T10:08:00Z</time>
</trkpt>
<trkpt lat="34.8045447" lon="33.4672717">
<ele>59.40</ele>
<time>2015-05-01T10:08:07Z</time>
</trkpt>
<trkpt lat="34.8046040" lon="33.4672678">
<ele>59.36</ele>
<time>2015-05-01T10:08:09Z</time>
</trkpt>
<trkpt lat="34.8046643" lon="33.4672466">
<ele>58.85</ele>
<time>2015-05-01T10:08:11Z</time>
</trkpt>
<trkpt lat="34.8047197" lon="33.4672015">
<ele>58.98</ele>
<time>2015-05-01T10:08:13Z</time>
</trkpt>
<trkpt lat="34.8047639" lon="33.4671401">
<ele>57.76</ele>
<time>2015-05-01T10:08:15Z</time>
</trkpt>
<trkpt lat="34.8048002" lon="33.4670657">
<ele>57.20</ele>
<time>2015-05-01T10:08:17Z</time>
</trkpt>
<trkpt lat="34.8048240" lon="33.4669821">
<ele>56.56</ele>
<time>2015-05-01T10:08:19Z</time>
</trkpt>
<trkpt lat="34.8048484" lon="33.4668983">
<ele>56.15</ele>
<time>2015-05-01T10:08:21Z</time>
</trkpt>
<trkpt lat="34.8048840" lon="33.4668125">
<ele>54.55</ele>
<time>2015-05-01T10:08:23Z</time>
</trkpt>
<trkpt lat="34.8049416" lon="33.4667286">
<ele>54.28</ele>
<time>2015-05-01T10:08:24Z</time>
</trkpt>
<trkpt lat="34.8049888" lon="33.4666770">
<ele>53.65</ele>
<time>2015-05-01T10:08:25Z</time>
</trkpt>
<trkpt lat="34.8050456" lon="33.4666213">
<ele>52.83</ele>
<time>2015-05-01T10:08:26Z</time>
</trkpt>
<trkpt lat="34.8051031" lon="33.4665792">
<ele>51.92</ele>
<time>2015-05-01T10:08:27Z</time>
</trkpt>
<trkpt lat="34.8051617" lon="33.4665281">
<ele>50.97</ele>
<time>2015-05-01T10:08:28Z</time>
</trkpt>
<trkpt lat="34.8052256" lon="33.4664835">
<ele>49.99</ele>
<time>2015-05-01T10:08:29Z</time>
</trkpt>
<trkpt lat="34.8052801" lon="33.4664482">
<ele>49.00</ele>
<time>2015-05-01T10:08:30Z</time>
</trkpt>
<trkpt lat="34.8053292" lon="33.4664326">
<ele>48.01</ele>
<time>2015-05-01T10:08:31Z</time>
</trkpt>
<trkpt lat="34.8053943" lon="33.4664162">
<ele>47.51</ele>
<time>2015-05-01T10:08:32Z</time>
</trkpt>
<trkpt lat="34.8054525" lon="33.4663998">
<ele>47.76</ele>
<time>2015-05-01T10:08:33Z</time>
</trkpt>
<trkpt lat="34.8055136" lon="33.4663901">
<ele>48.39</ele>
<time>2015-05-01T10:08:34Z</time>
</trkpt>
<trkpt lat="34.8055644" lon="33.4663900">
<ele>48.70</ele>
<time>2015-05-01T10:08:35Z</time>
</trkpt>
<trkpt lat="34.8056290" lon="33.4663910">
<ele>48.36</ele>
<time>2015-05-01T10:08:36Z</time>
</trkpt>
<trkpt lat="34.8056912" lon="33.4663898">
<ele>47.19</ele>
<time>2015-05-01T10:08:37Z</time>
</trkpt>
<trkpt lat="34.8057579" lon="33.4663891">
<ele>46.60</ele>
<time>2015-05-01T10:08:38Z</time>
</trkpt>
<trkpt lat="34.8058195" lon="33.4663848">
<ele>46.31</ele>
<time>2015-05-01T10:08:39Z</time>
</trkpt>
<trkpt lat="34.8058795" lon="33.4663774">
<ele>46.16</ele>
<time>2015-05-01T10:08:40Z</time>
</trkpt>
<trkpt lat="34.8059285" lon="33.4663758">
<ele>46.09</ele>
<time>2015-05-01T10:08:41Z</time>
</trkpt>
<trkpt lat="34.8059931" lon="33.4663601">
<ele>45.28</ele>
<time>2015-05-01T10:08:43Z</time>
</trkpt>
<trkpt lat="34.8060463" lon="33.4663330">
<ele>45.83</ele>
<time>2015-05-01T10:08:45Z</time>
</trkpt>
<trkpt lat="34.8060758" lon="33.4662905">
<ele>45.22</ele>
<time>2015-05-01T10:08:47Z</time>
</trkpt>
<trkpt lat="34.8060997" lon="33.4662192">
<ele>45.79</ele>
<time>2015-05-01T10:08:50Z</time>
</trkpt>
<trkpt lat="34.8061078" lon="33.4661372">
<ele>46.74</ele>
<time>2015-05-01T10:08:53Z</time>
</trkpt>
<trkpt lat="34.8061192" lon="33.4660730">
<ele>46.20</ele>
<time>2015-05-01T10:08:55Z</time>
</trkpt>
<trkpt lat="34.8061313" lon="33.4660019">
<ele>46.81</ele>
<time>2015-05-01T10:08:57Z</time>
</trkpt>
<trkpt lat="34.8061438" lon="33.4659269">
<ele>46.96</ele>
<time>2015-05-01T10:08:59Z</time>
</trkpt>
<trkpt lat="34.8061601" lon="33.4658447">
<ele>47.75</ele>
<time>2015-05-01T10:09:01Z</time>
</trkpt>
<trkpt lat="34.8061786" lon="33.4657633">
<ele>47.95</ele>
<time>2015-05-01T10:09:03Z</time>
</trkpt>
<trkpt lat="34.8061948" lon="33.4656828">
<ele>48.00</ele>
<time>2015-05-01T10:09:05Z</time>
</trkpt>
<trkpt lat="34.8062118" lon="33.4656137">
<ele>48.76</ele>
<time>2015-05-01T10:09:07Z</time>
</trkpt>
<trkpt lat="34.8062382" lon="33.4655480">
<ele>49.20</ele>
<time>2015-05-01T10:09:09Z</time>
</trkpt>
<trkpt lat="34.8062660" lon="33.4654839">
<ele>49.06</ele>
<time>2015-05-01T10:09:11Z</time>
</trkpt>
<trkpt lat="34.8063017" lon="33.4654220">
<ele>49.03</ele>
<time>2015-05-01T10:09:13Z</time>
</trkpt>
<trkpt lat="34.8063452" lon="33.4653613">
<ele>49.77</ele>
<time>2015-05-01T10:09:15Z</time>
</trkpt>
<trkpt lat="34.8064053" lon="33.4652985">
<ele>49.95</ele>
<time>2015-05-01T10:09:17Z</time>
</trkpt>
<trkpt lat="34.8064745" lon="33.4652366">
<ele>50.00</ele>
<time>2015-05-01T10:09:19Z</time>
</trkpt>
<trkpt lat="34.8065452" lon="33.4651842">
<ele>50.01</ele>
<time>2015-05-01T10:09:21Z</time>
</trkpt>
<trkpt lat="34.8066123" lon="33.4651379">
<ele>50.02</ele>
<time>2015-05-01T10:09:23Z</time>
</trkpt>
<trkpt lat="34.8066811" lon="33.4650909">
<ele>50.77</ele>
<time>2015-05-01T10:09:25Z</time>
</trkpt>
<trkpt lat="34.8067494" lon="33.4650460">
<ele>50.45</ele>
<time>2015-05-01T10:09:27Z</time>
</trkpt>
<trkpt lat="34.8068399" lon="33.4649901">
<ele>50.13</ele>
<time>2015-05-01T10:09:29Z</time>
</trkpt>
<trkpt lat="34.8068828" lon="33.4649672">
<ele>50.07</ele>
<time>2015-05-01T10:09:30Z</time>
</trkpt>
<trkpt lat="34.8069229" lon="33.4649358">
<ele>50.54</ele>
<time>2015-05-01T10:09:31Z</time>
</trkpt>
<trkpt lat="34.8069633" lon="33.4649056">
<ele>50.78</ele>
<time>2015-05-01T10:09:32Z</time>
</trkpt>
<trkpt lat="34.8070009" lon="33.4648743">
<ele>50.90</ele>
<time>2015-05-01T10:09:33Z</time>
</trkpt>
<trkpt lat="34.8070615" lon="33.4648236">
<ele>51.49</ele>
<time>2015-05-01T10:09:35Z</time>
</trkpt>
<trkpt lat="34.8071334" lon="33.4647742">
<ele>52.13</ele>
<time>2015-05-01T10:09:37Z</time>
</trkpt>
<trkpt lat="34.8071941" lon="33.4647231">
<ele>52.80</ele>
<time>2015-05-01T10:09:39Z</time>
</trkpt>
<trkpt lat="34.8072595" lon="33.4646655">
<ele>52.96</ele>
<time>2015-05-01T10:09:41Z</time>
</trkpt>
<trkpt lat="34.8073212" lon="33.4645975">
<ele>53.00</ele>
<time>2015-05-01T10:09:43Z</time>
</trkpt>
<trkpt lat="34.8073829" lon="33.4645234">
<ele>53.51</ele>
<time>2015-05-01T10:09:45Z</time>
</trkpt>
<trkpt lat="34.8074386" lon="33.4644497">
<ele>53.64</ele>
<time>2015-05-01T10:09:47Z</time>
</trkpt>
<trkpt lat="34.8074932" lon="33.4643711">
<ele>53.92</ele>
<time>2015-05-01T10:09:49Z</time>
</trkpt>
<trkpt lat="34.8075398" lon="33.4642860">
<ele>53.49</ele>
<time>2015-05-01T10:09:51Z</time>
</trkpt>
<trkpt lat="34.8075628" lon="33.4642383">
<ele>53.75</ele>
<time>2015-05-01T10:09:52Z</time>
</trkpt>
<trkpt lat="34.8076007" lon="33.4641432">
<ele>53.95</ele>
<time>2015-05-01T10:09:54Z</time>
</trkpt>
<trkpt lat="34.8076331" lon="33.4640436">
<ele>54.50</ele>
<time>2015-05-01T10:09:56Z</time>
</trkpt>
<trkpt lat="34.8076580" lon="33.4639416">
<ele>54.89</ele>
<time>2015-05-01T10:09:58Z</time>
</trkpt>
<trkpt lat="34.8076822" lon="33.4638366">
<ele>54.48</ele>
<time>2015-05-01T10:10:00Z</time>
</trkpt>
<trkpt lat="34.8077029" lon="33.4637342">
<ele>54.13</ele>
<time>2015-05-01T10:10:02Z</time>
</trkpt>
<trkpt lat="34.8077240" lon="33.4636339">
<ele>54.80</ele>
<time>2015-05-01T10:10:04Z</time>
</trkpt>
<trkpt lat="34.8077406" lon="33.4635357">
<ele>54.96</ele>
<time>2015-05-01T10:10:06Z</time>
</trkpt>
<trkpt lat="34.8077567" lon="33.4634345">
<ele>54.50</ele>
<time>2015-05-01T10:10:08Z</time>
</trkpt>
<trkpt lat="34.8077750" lon="33.4633383">
<ele>54.14</ele>
<time>2015-05-01T10:10:10Z</time>
</trkpt>
<trkpt lat="34.8077927" lon="33.4632399">
<ele>54.05</ele>
<time>2015-05-01T10:10:12Z</time>
</trkpt>
<trkpt lat="34.8078099" lon="33.4631463">
<ele>54.02</ele>
<time>2015-05-01T10:10:14Z</time>
</trkpt>
<trkpt lat="34.8078327" lon="33.4630510">
<ele>54.02</ele>
<time>2015-05-01T10:10:16Z</time>
</trkpt>
<trkpt lat="34.8078523" lon="33.4629569">
<ele>54.02</ele>
<time>2015-05-01T10:10:18Z</time>
</trkpt>
<trkpt lat="34.8078603" lon="33.4628648">
<ele>54.02</ele>
<time>2015-05-01T10:10:20Z</time>
</trkpt>
<trkpt lat="34.8078720" lon="33.4627812">
<ele>54.52</ele>
<time>2015-05-01T10:10:22Z</time>
</trkpt>
<trkpt lat="34.8078820" lon="33.4627147">
<ele>54.89</ele>
<time>2015-05-01T10:10:24Z</time>
</trkpt>
<trkpt lat="34.8078966" lon="33.4626504">
<ele>54.98</ele>
<time>2015-05-01T10:10:26Z</time>
</trkpt>
<trkpt lat="34.8079099" lon="33.4625738">
<ele>54.76</ele>
<time>2015-05-01T10:10:28Z</time>
</trkpt>
<trkpt lat="34.8079192" lon="33.4624920">
<ele>54.20</ele>
<time>2015-05-01T10:10:30Z</time>
</trkpt>
<trkpt lat="34.8079372" lon="33.4624015">
<ele>53.81</ele>
<time>2015-05-01T10:10:32Z</time>
</trkpt>
<trkpt lat="34.8079570" lon="33.4623080">
<ele>53.72</ele>
<time>2015-05-01T10:10:34Z</time>
</trkpt>
<trkpt lat="34.8079742" lon="33.4622088">
<ele>53.19</ele>
<time>2015-05-01T10:10:36Z</time>
</trkpt>
<trkpt lat="34.8079928" lon="33.4621082">
<ele>52.31</ele>
<time>2015-05-01T10:10:38Z</time>
</trkpt>
<trkpt lat="34.8080073" lon="33.4620132">
<ele>52.84</ele>
<time>2015-05-01T10:10:40Z</time>
</trkpt>
<trkpt lat="34.8080199" lon="33.4619304">
<ele>52.97</ele>
<time>2015-05-01T10:10:42Z</time>
</trkpt>
<trkpt lat="34.8080291" lon="33.4618678">
<ele>53.50</ele>
<time>2015-05-01T10:10:44Z</time>
</trkpt>
<trkpt lat="34.8080343" lon="33.4617924">
<ele>54.45</ele>
<time>2015-05-01T10:10:47Z</time>
</trkpt>
<trkpt lat="34.8080350" lon="33.4617143">
<ele>54.95</ele>
<time>2015-05-01T10:10:50Z</time>
</trkpt>
<trkpt lat="34.8080396" lon="33.4616345">
<ele>55.88</ele>
<time>2015-05-01T10:10:53Z</time>
</trkpt>
<trkpt lat="34.8080428" lon="33.4615714">
<ele>55.98</ele>
<time>2015-05-01T10:10:55Z</time>
</trkpt>
<trkpt lat="34.8080480" lon="33.4614926">
<ele>56.01</ele>
<time>2015-05-01T10:10:57Z</time>
</trkpt>
<trkpt lat="34.8080528" lon="33.4613962">
<ele>55.76</ele>
<time>2015-05-01T10:10:59Z</time>
</trkpt>
<trkpt lat="34.8080553" lon="33.4612948">
<ele>56.45</ele>
<time>2015-05-01T10:11:01Z</time>
</trkpt>
<trkpt lat="34.8080586" lon="33.4611950">
<ele>56.13</ele>
<time>2015-05-01T10:11:03Z</time>
</trkpt>
<trkpt lat="34.8080610" lon="33.4610938">
<ele>56.04</ele>
<time>2015-05-01T10:11:05Z</time>
</trkpt>
<trkpt lat="34.8080594" lon="33.4609953">
<ele>56.02</ele>
<time>2015-05-01T10:11:07Z</time>
</trkpt>
<trkpt lat="34.8080571" lon="33.4608943">
<ele>55.27</ele>
<time>2015-05-01T10:11:09Z</time>
</trkpt>
<trkpt lat="34.8080576" lon="33.4607926">
<ele>54.58</ele>
<time>2015-05-01T10:11:11Z</time>
</trkpt>
<trkpt lat="34.8080535" lon="33.4607160">
<ele>54.30</ele>
<time>2015-05-01T10:11:12Z</time>
</trkpt>
<trkpt lat="34.8080525" lon="33.4606512">
<ele>54.66</ele>
<time>2015-05-01T10:11:13Z</time>
</trkpt>
<trkpt lat="34.8080556" lon="33.4605833">
<ele>54.34</ele>
<time>2015-05-01T10:11:14Z</time>
</trkpt>
<trkpt lat="34.8080551" lon="33.4605150">
<ele>54.18</ele>
<time>2015-05-01T10:11:15Z</time>
</trkpt>
<trkpt lat="34.8080596" lon="33.4604485">
<ele>54.10</ele>
<time>2015-05-01T10:11:16Z</time>
</trkpt>
<trkpt lat="34.8080624" lon="33.4603824">
<ele>54.06</ele>
<time>2015-05-01T10:11:17Z</time>
</trkpt>
<trkpt lat="34.8080640" lon="33.4603266">
<ele>54.04</ele>
<time>2015-05-01T10:11:18Z</time>
</trkpt>
<trkpt lat="34.8080626" lon="33.4602633">
<ele>54.03</ele>
<time>2015-05-01T10:11:19Z</time>
</trkpt>
<trkpt lat="34.8080606" lon="33.4602017">
<ele>54.02</ele>
<time>2015-05-01T10:11:20Z</time>
</trkpt>
<trkpt lat="34.8080617" lon="33.4601341">
<ele>54.52</ele>
<time>2015-05-01T10:11:21Z</time>
</trkpt>
<trkpt lat="34.8080666" lon="33.4600766">
<ele>54.27</ele>
<time>2015-05-01T10:11:22Z</time>
</trkpt>
<trkpt lat="34.8080764" lon="33.4600037">
<ele>54.14</ele>
<time>2015-05-01T10:11:23Z</time>
</trkpt>
<trkpt lat="34.8080687" lon="33.4599442">
<ele>54.08</ele>
<time>2015-05-01T10:11:24Z</time>
</trkpt>
<trkpt lat="34.8080740" lon="33.4598834">
<ele>54.05</ele>
<time>2015-05-01T10:11:25Z</time>
</trkpt>
<trkpt lat="34.8080767" lon="33.4597806">
<ele>53.52</ele>
<time>2015-05-01T10:11:27Z</time>
</trkpt>
<trkpt lat="34.8080874" lon="33.4597185">
<ele>52.27</ele>
<time>2015-05-01T10:11:28Z</time>
</trkpt>
<trkpt lat="34.8080929" lon="33.4596574">
<ele>52.14</ele>
<time>2015-05-01T10:11:29Z</time>
</trkpt>
<trkpt lat="34.8080848" lon="33.4596000">
<ele>52.08</ele>
<time>2015-05-01T10:11:30Z</time>
</trkpt>
<trkpt lat="34.8080827" lon="33.4594941">
<ele>52.78</ele>
<time>2015-05-01T10:11:32Z</time>
</trkpt>
<trkpt lat="34.8080801" lon="33.4593861">
<ele>52.21</ele>
<time>2015-05-01T10:11:34Z</time>
</trkpt>
<trkpt lat="34.8080878" lon="33.4593299">
<ele>52.11</ele>
<time>2015-05-01T10:11:35Z</time>
</trkpt>
<trkpt lat="34.8080918" lon="33.4592720">
<ele>52.06</ele>
<time>2015-05-01T10:11:36Z</time>
</trkpt>
<trkpt lat="34.8080897" lon="33.4592149">
<ele>52.04</ele>
<time>2015-05-01T10:11:37Z</time>
</trkpt>
<trkpt lat="34.8080851" lon="33.4591531">
<ele>52.03</ele>
<time>2015-05-01T10:11:38Z</time>
</trkpt>
<trkpt lat="34.8080835" lon="33.4590875">
<ele>52.02</ele>
<time>2015-05-01T10:11:39Z</time>
</trkpt>
<trkpt lat="34.8080835" lon="33.4590241">
<ele>52.52</ele>
<time>2015-05-01T10:11:40Z</time>
</trkpt>
<trkpt lat="34.8080895" lon="33.4589627">
<ele>53.27</ele>
<time>2015-05-01T10:11:41Z</time>
</trkpt>
<trkpt lat="34.8080960" lon="33.4589017">
<ele>53.14</ele>
<time>2015-05-01T10:11:42Z</time>
</trkpt>
<trkpt lat="34.8080982" lon="33.4588436">
<ele>53.08</ele>
<time>2015-05-01T10:11:43Z</time>
</trkpt>
<trkpt lat="34.8080936" lon="33.4587878">
<ele>53.05</ele>
<time>2015-05-01T10:11:44Z</time>
</trkpt>
<trkpt lat="34.8081046" lon="33.4587335">
<ele>52.53</ele>
<time>2015-05-01T10:11:45Z</time>
</trkpt>
<trkpt lat="34.8081001" lon="33.4586766">
<ele>52.27</ele>
<time>2015-05-01T10:11:46Z</time>
</trkpt>
<trkpt lat="34.8081006" lon="33.4585567">
<ele>50.83</ele>
<time>2015-05-01T10:11:48Z</time>
</trkpt>
<trkpt lat="34.8081041" lon="33.4584994">
<ele>50.42</ele>
<time>2015-05-01T10:11:49Z</time>
</trkpt>
<trkpt lat="34.8081104" lon="33.4583968">
<ele>50.62</ele>
<time>2015-05-01T10:11:51Z</time>
</trkpt>
<trkpt lat="34.8081108" lon="33.4583388">
<ele>50.82</ele>
<time>2015-05-01T10:11:52Z</time>
</trkpt>
<trkpt lat="34.8081130" lon="33.4582358">
<ele>51.22</ele>
<time>2015-05-01T10:11:54Z</time>
</trkpt>
<trkpt lat="34.8081209" lon="33.4581495">
<ele>51.07</ele>
<time>2015-05-01T10:11:56Z</time>
</trkpt>
<trkpt lat="34.8081150" lon="33.4580623">
<ele>52.28</ele>
<time>2015-05-01T10:11:58Z</time>
</trkpt>
<trkpt lat="34.8081272" lon="33.4579720">
<ele>51.33</ele>
<time>2015-05-01T10:12:00Z</time>
</trkpt>
<trkpt lat="34.8081272" lon="33.4578803">
<ele>52.34</ele>
<time>2015-05-01T10:12:02Z</time>
</trkpt>
<trkpt lat="34.8081342" lon="33.4577810">
<ele>53.60</ele>
<time>2015-05-01T10:12:04Z</time>
</trkpt>
<trkpt lat="34.8081365" lon="33.4576818">
<ele>53.66</ele>
<time>2015-05-01T10:12:06Z</time>
</trkpt>
<trkpt lat="34.8081385" lon="33.4575770">
<ele>53.93</ele>
<time>2015-05-01T10:12:08Z</time>
</trkpt>
<trkpt lat="34.8081320" lon="33.4574600">
<ele>53.99</ele>
<time>2015-05-01T10:12:10Z</time>
</trkpt>
<trkpt lat="34.8081352" lon="33.4574034">
<ele>54.00</ele>
<time>2015-05-01T10:12:11Z</time>
</trkpt>
<trkpt lat="34.8081382" lon="33.4573461">
<ele>54.01</ele>
<time>2015-05-01T10:12:12Z</time>
</trkpt>
<trkpt lat="34.8081450" lon="33.4572844">
<ele>53.51</ele>
<time>2015-05-01T10:12:13Z</time>
</trkpt>
<trkpt lat="34.8081472" lon="33.4572242">
<ele>53.26</ele>
<time>2015-05-01T10:12:14Z</time>
</trkpt>
<trkpt lat="34.8081452" lon="33.4571619">
<ele>53.14</ele>
<time>2015-05-01T10:12:15Z</time>
</trkpt>
<trkpt lat="34.8081475" lon="33.4571040">
<ele>53.08</ele>
<time>2015-05-01T10:12:16Z</time>
</trkpt>
<trkpt lat="34.8081516" lon="33.4570470">
<ele>53.05</ele>
<time>2015-05-01T10:12:17Z</time>
</trkpt>
<trkpt lat="34.8081546" lon="33.4569382">
<ele>53.52</ele>
<time>2015-05-01T10:12:19Z</time>
</trkpt>
<trkpt lat="34.8081545" lon="33.4568310">
<ele>53.89</ele>
<time>2015-05-01T10:12:21Z</time>
</trkpt>
<trkpt lat="34.8081548" lon="33.4567757">
<ele>53.95</ele>
<time>2015-05-01T10:12:22Z</time>
</trkpt>
<trkpt lat="34.8081548" lon="33.4566699">
<ele>53.75</ele>
<time>2015-05-01T10:12:24Z</time>
</trkpt>
<trkpt lat="34.8081525" lon="33.4566141">
<ele>54.38</ele>
<time>2015-05-01T10:12:25Z</time>
</trkpt>
<trkpt lat="34.8081626" lon="33.4565588">
<ele>53.70</ele>
<time>2015-05-01T10:12:26Z</time>
</trkpt>
<trkpt lat="34.8081693" lon="33.4564514">
<ele>53.19</ele>
<time>2015-05-01T10:12:28Z</time>
</trkpt>
<trkpt lat="34.8081790" lon="33.4563514">
<ele>53.06</ele>
<time>2015-05-01T10:12:30Z</time>
</trkpt>
<trkpt lat="34.8081786" lon="33.4562540">
<ele>53.03</ele>
<time>2015-05-01T10:12:32Z</time>
</trkpt>
<trkpt lat="34.8081792" lon="33.4561528">
<ele>53.52</ele>
<time>2015-05-01T10:12:34Z</time>
</trkpt>
<trkpt lat="34.8081819" lon="33.4560486">
<ele>54.14</ele>
<time>2015-05-01T10:12:36Z</time>
</trkpt>
<trkpt lat="34.8081831" lon="33.4559504">
<ele>54.05</ele>
<time>2015-05-01T10:12:38Z</time>
</trkpt>
<trkpt lat="34.8081815" lon="33.4558533">
<ele>54.77</ele>
<time>2015-05-01T10:12:40Z</time>
</trkpt>
<trkpt lat="34.8081883" lon="33.4557622">
<ele>55.71</ele>
<time>2015-05-01T10:12:42Z</time>
</trkpt>
<trkpt lat="34.8081940" lon="33.4556744">
<ele>55.94</ele>
<time>2015-05-01T10:12:44Z</time>
</trkpt>
<trkpt lat="34.8081924" lon="33.4555900">
<ele>56.25</ele>
<time>2015-05-01T10:12:46Z</time>
</trkpt>
<trkpt lat="34.8081909" lon="33.4555048">
<ele>56.07</ele>
<time>2015-05-01T10:12:48Z</time>
</trkpt>
<trkpt lat="34.8081931" lon="33.4554206">
<ele>56.03</ele>
<time>2015-05-01T10:12:50Z</time>
</trkpt>
<trkpt lat="34.8081983" lon="33.4553376">
<ele>57.27</ele>
<time>2015-05-01T10:12:52Z</time>
</trkpt>
<trkpt lat="34.8082000" lon="33.4552572">
<ele>57.83</ele>
<time>2015-05-01T10:12:54Z</time>
</trkpt>
<trkpt lat="34.8081972" lon="33.4551758">
<ele>57.97</ele>
<time>2015-05-01T10:12:56Z</time>
</trkpt>
<trkpt lat="34.8081927" lon="33.4551021">
<ele>58.00</ele>
<time>2015-05-01T10:12:58Z</time>
</trkpt>
<trkpt lat="34.8081934" lon="33.4550293">
<ele>58.51</ele>
<time>2015-05-01T10:13:00Z</time>
</trkpt>
<trkpt lat="34.8081959" lon="33.4549608">
<ele>58.89</ele>
<time>2015-05-01T10:13:02Z</time>
</trkpt>
<trkpt lat="34.8081995" lon="33.4548916">
<ele>58.48</ele>
<time>2015-05-01T10:13:04Z</time>
</trkpt>
<trkpt lat="34.8082050" lon="33.4548251">
<ele>58.13</ele>
<time>2015-05-01T10:13:06Z</time>
</trkpt>
<trkpt lat="34.8082098" lon="33.4547575">
<ele>58.05</ele>
<time>2015-05-01T10:13:08Z</time>
</trkpt>
<trkpt lat="34.8082118" lon="33.4546935">
<ele>58.77</ele>
<time>2015-05-01T10:13:10Z</time>
</trkpt>
<trkpt lat="34.8082036" lon="33.4546307">
<ele>58.21</ele>
<time>2015-05-01T10:13:12Z</time>
</trkpt>
<trkpt lat="34.8082015" lon="33.4545673">
<ele>59.31</ele>
<time>2015-05-01T10:13:14Z</time>
</trkpt>
<trkpt lat="34.8082022" lon="33.4545008">
<ele>60.34</ele>
<time>2015-05-01T10:13:16Z</time>
</trkpt>
<trkpt lat="34.8082022" lon="33.4544340">
<ele>60.85</ele>
<time>2015-05-01T10:13:18Z</time>
</trkpt>
<trkpt lat="34.8082028" lon="33.4543653">
<ele>60.22</ele>
<time>2015-05-01T10:13:20Z</time>
</trkpt>
<trkpt lat="34.8082067" lon="33.4542944">
<ele>60.07</ele>
<time>2015-05-01T10:13:22Z</time>
</trkpt>
<trkpt lat="34.8082074" lon="33.4542220">
<ele>61.28</ele>
<time>2015-05-01T10:13:24Z</time>
</trkpt>
<trkpt lat="34.8082036" lon="33.4541482">
<ele>62.33</ele>
<time>2015-05-01T10:13:26Z</time>
</trkpt>
<trkpt lat="34.8082036" lon="33.4540740">
<ele>62.84</ele>
<time>2015-05-01T10:13:28Z</time>
</trkpt>
<trkpt lat="34.8082007" lon="33.4540011">
<ele>62.97</ele>
<time>2015-05-01T10:13:30Z</time>
</trkpt>
<trkpt lat="34.8082018" lon="33.4539268">
<ele>62.51</ele>
<time>2015-05-01T10:13:32Z</time>
</trkpt>
<trkpt lat="34.8082044" lon="33.4538524">
<ele>62.14</ele>
<time>2015-05-01T10:13:34Z</time>
</trkpt>
<trkpt lat="34.8082049" lon="33.4537771">
<ele>61.30</ele>
<time>2015-05-01T10:13:36Z</time>
</trkpt>
<trkpt lat="34.8082036" lon="33.4537005">
<ele>61.09</ele>
<time>2015-05-01T10:13:38Z</time>
</trkpt>
<trkpt lat="34.8081983" lon="33.4536243">
<ele>61.03</ele>
<time>2015-05-01T10:13:40Z</time>
</trkpt>
<trkpt lat="34.8081908" lon="33.4535490">
<ele>61.02</ele>
<time>2015-05-01T10:13:42Z</time>
</trkpt>
<trkpt lat="34.8081857" lon="33.4534723">
<ele>60.77</ele>
<time>2015-05-01T10:13:44Z</time>
</trkpt>
<trkpt lat="34.8081791" lon="33.4533941">
<ele>60.95</ele>
<time>2015-05-01T10:13:46Z</time>
</trkpt>
<trkpt lat="34.8081678" lon="33.4533168">
<ele>61.00</ele>
<time>2015-05-01T10:13:48Z</time>
</trkpt>
<trkpt lat="34.8081556" lon="33.4532404">
<ele>61.76</ele>
<time>2015-05-01T10:13:50Z</time>
</trkpt>
<trkpt lat="34.8081459" lon="33.4531657">
<ele>62.20</ele>
<time>2015-05-01T10:13:52Z</time>
</trkpt>
<trkpt lat="34.8081332" lon="33.4530959">
<ele>61.56</ele>
<time>2015-05-01T10:13:54Z</time>
</trkpt>
<trkpt lat="34.8081207" lon="33.4530290">
<ele>61.15</ele>
<time>2015-05-01T10:13:56Z</time>
</trkpt>
<trkpt lat="34.8081077" lon="33.4529618">
<ele>61.80</ele>
<time>2015-05-01T10:13:58Z</time>
</trkpt>
<trkpt lat="34.8080947" lon="33.4528940">
<ele>61.96</ele>
<time>2015-05-01T10:14:00Z</time>
</trkpt>
<trkpt lat="34.8080819" lon="33.4528260">
<ele>62.00</ele>
<time>2015-05-01T10:14:02Z</time>
</trkpt>
<trkpt lat="34.8080694" lon="33.4527588">
<ele>62.01</ele>
<time>2015-05-01T10:14:04Z</time>
</trkpt>
<trkpt lat="34.8080570" lon="33.4526908">
<ele>62.02</ele>
<time>2015-05-01T10:14:06Z</time>
</trkpt>
<trkpt lat="34.8080420" lon="33.4526217">
<ele>62.77</ele>
<time>2015-05-01T10:14:08Z</time>
</trkpt>
<trkpt lat="34.8080253" lon="33.4525489">
<ele>63.70</ele>
<time>2015-05-01T10:14:10Z</time>
</trkpt>
<trkpt lat="34.8080113" lon="33.4524732">
<ele>64.44</ele>
<time>2015-05-01T10:14:12Z</time>
</trkpt>
<trkpt lat="34.8079900" lon="33.4524001">
<ele>65.37</ele>
<time>2015-05-01T10:14:14Z</time>
</trkpt>
<trkpt lat="34.8079668" lon="33.4523257">
<ele>67.10</ele>
<time>2015-05-01T10:14:16Z</time>
</trkpt>
<trkpt lat="34.8079497" lon="33.4522507">
<ele>67.04</ele>
<time>2015-05-01T10:14:18Z</time>
</trkpt>
<trkpt lat="34.8079299" lon="33.4521775">
<ele>66.77</ele>
<time>2015-05-01T10:14:20Z</time>
</trkpt>
<trkpt lat="34.8079037" lon="33.4521054">
<ele>68.95</ele>
<time>2015-05-01T10:14:22Z</time>
</trkpt>
<trkpt lat="34.8078792" lon="33.4520422">
<ele>69.75</ele>
<time>2015-05-01T10:14:24Z</time>
</trkpt>
<trkpt lat="34.8078647" lon="33.4519904">
<ele>69.95</ele>
<time>2015-05-01T10:14:26Z</time>
</trkpt>
<trkpt lat="34.8078431" lon="33.4519401">
<ele>69.32</ele>
<time>2015-05-01T10:14:30Z</time>
</trkpt>
<trkpt lat="34.8078188" lon="33.4518914">
<ele>69.05</ele>
<time>2015-05-01T10:14:36Z</time>
</trkpt>
<trkpt lat="34.8078051" lon="33.4518271">
<ele>63.28</ele>
<time>2015-05-01T10:15:07Z</time>
</trkpt>
<trkpt lat="34.8077908" lon="33.4517635">
<ele>61.08</ele>
<time>2015-05-01T10:15:09Z</time>
</trkpt>
<trkpt lat="34.8077704" lon="33.4516960">
<ele>61.78</ele>
<time>2015-05-01T10:15:11Z</time>
</trkpt>
<trkpt lat="34.8077458" lon="33.4516236">
<ele>62.46</ele>
<time>2015-05-01T10:15:13Z</time>
</trkpt>
<trkpt lat="34.8077203" lon="33.4515545">
<ele>62.38</ele>
<time>2015-05-01T10:15:15Z</time>
</trkpt>
<trkpt lat="34.8076910" lon="33.4514804">
<ele>62.11</ele>
<time>2015-05-01T10:15:17Z</time>
</trkpt>
<trkpt lat="34.8076633" lon="33.4514033">
<ele>61.29</ele>
<time>2015-05-01T10:15:19Z</time>
</trkpt>
<trkpt lat="34.8076355" lon="33.4513214">
<ele>61.08</ele>
<time>2015-05-01T10:15:21Z</time>
</trkpt>
<trkpt lat="34.8076043" lon="33.4512362">
<ele>62.28</ele>
<time>2015-05-01T10:15:23Z</time>
</trkpt>
<trkpt lat="34.8075672" lon="33.4511391">
<ele>62.83</ele>
<time>2015-05-01T10:15:25Z</time>
</trkpt>
<trkpt lat="34.8075322" lon="33.4510429">
<ele>63.47</ele>
<time>2015-05-01T10:15:27Z</time>
</trkpt>
<trkpt lat="34.8074973" lon="33.4509445">
<ele>63.88</ele>
<time>2015-05-01T10:15:29Z</time>
</trkpt>
<trkpt lat="34.8074620" lon="33.4508532">
<ele>63.48</ele>
<time>2015-05-01T10:15:31Z</time>
</trkpt>
<trkpt lat="34.8074286" lon="33.4507598">
<ele>63.13</ele>
<time>2015-05-01T10:15:33Z</time>
</trkpt>
<trkpt lat="34.8073980" lon="33.4506645">
<ele>63.05</ele>
<time>2015-05-01T10:15:35Z</time>
</trkpt>
<trkpt lat="34.8073660" lon="33.4505646">
<ele>63.02</ele>
<time>2015-05-01T10:15:37Z</time>
</trkpt>
<trkpt lat="34.8073336" lon="33.4504686">
<ele>63.02</ele>
<time>2015-05-01T10:15:39Z</time>
</trkpt>
<trkpt lat="34.8073150" lon="33.4504179">
<ele>63.52</ele>
<time>2015-05-01T10:15:40Z</time>
</trkpt>
<trkpt lat="34.8072890" lon="33.4503641">
<ele>63.27</ele>
<time>2015-05-01T10:15:41Z</time>
</trkpt>
<trkpt lat="34.8072630" lon="33.4502830">
<ele>62.08</ele>
<time>2015-05-01T10:15:43Z</time>
</trkpt>
<trkpt lat="34.8072299" lon="33.4501881">
<ele>62.03</ele>
<time>2015-05-01T10:15:45Z</time>
</trkpt>
<trkpt lat="34.8071961" lon="33.4500960">
<ele>62.52</ele>
<time>2015-05-01T10:15:47Z</time>
</trkpt>
<trkpt lat="34.8071764" lon="33.4500028">
<ele>61.89</ele>
<time>2015-05-01T10:15:49Z</time>
</trkpt>
<trkpt lat="34.8071470" lon="33.4499220">
<ele>61.98</ele>
<time>2015-05-01T10:15:51Z</time>
</trkpt>
<trkpt lat="34.8071133" lon="33.4498314">
<ele>62.51</ele>
<time>2015-05-01T10:15:53Z</time>
</trkpt>
<trkpt lat="34.8070798" lon="33.4497422">
<ele>62.64</ele>
<time>2015-05-01T10:15:55Z</time>
</trkpt>
<trkpt lat="34.8070435" lon="33.4496444">
<ele>62.42</ele>
<time>2015-05-01T10:15:57Z</time>
</trkpt>
<trkpt lat="34.8070025" lon="33.4495319">
<ele>61.62</ele>
<time>2015-05-01T10:15:59Z</time>
</trkpt>
<trkpt lat="34.8069822" lon="33.4494694">
<ele>61.82</ele>
<time>2015-05-01T10:16:00Z</time>
</trkpt>
<trkpt lat="34.8069623" lon="33.4494147">
<ele>61.92</ele>
<time>2015-05-01T10:16:01Z</time>
</trkpt>
<trkpt lat="34.8069409" lon="33.4493596">
<ele>61.97</ele>
<time>2015-05-01T10:16:02Z</time>
</trkpt>
<trkpt lat="34.8069194" lon="33.4493044">
<ele>62.49</ele>
<time>2015-05-01T10:16:03Z</time>
</trkpt>
<trkpt lat="34.8068989" lon="33.4492478">
<ele>63.25</ele>
<time>2015-05-01T10:16:04Z</time>
</trkpt>
<trkpt lat="34.8068772" lon="33.4491927">
<ele>63.13</ele>
<time>2015-05-01T10:16:05Z</time>
</trkpt>
<trkpt lat="34.8068556" lon="33.4491328">
<ele>63.08</ele>
<time>2015-05-01T10:16:06Z</time>
</trkpt>
<trkpt lat="34.8068372" lon="33.4490779">
<ele>63.05</ele>
<time>2015-05-01T10:16:07Z</time>
</trkpt>
<trkpt lat="34.8068117" lon="33.4490172">
<ele>63.03</ele>
<time>2015-05-01T10:16:08Z</time>
</trkpt>
<trkpt lat="34.8067777" lon="33.4489704">
<ele>63.52</ele>
<time>2015-05-01T10:16:09Z</time>
</trkpt>
<trkpt lat="34.8067626" lon="33.4489118">
<ele>63.77</ele>
<time>2015-05-01T10:16:10Z</time>
</trkpt>
<trkpt lat="34.8067440" lon="33.4488570">
<ele>64.39</ele>
<time>2015-05-01T10:16:11Z</time>
</trkpt>
<trkpt lat="34.8067266" lon="33.4487977">
<ele>64.70</ele>
<time>2015-05-01T10:16:12Z</time>
</trkpt>
<trkpt lat="34.8066859" lon="33.4486992">
<ele>64.69</ele>
<time>2015-05-01T10:16:14Z</time>
</trkpt>
<trkpt lat="34.8066480" lon="33.4485914">
<ele>64.68</ele>
<time>2015-05-01T10:16:16Z</time>
</trkpt>
<trkpt lat="34.8066317" lon="33.4485320">
<ele>64.85</ele>
<time>2015-05-01T10:16:17Z</time>
</trkpt>
<trkpt lat="34.8066073" lon="33.4484816">
<ele>64.93</ele>
<time>2015-05-01T10:16:18Z</time>
</trkpt>
<trkpt lat="34.8065921" lon="33.4484269">
<ele>64.97</ele>
<time>2015-05-01T10:16:19Z</time>
</trkpt>
<trkpt lat="34.8065772" lon="33.4483698">
<ele>65.00</ele>
<time>2015-05-01T10:16:20Z</time>
</trkpt>
<trkpt lat="34.8065571" lon="33.4483167">
<ele>65.51</ele>
<time>2015-05-01T10:16:21Z</time>
</trkpt>
<trkpt lat="34.8065263" lon="33.4482242">
<ele>65.89</ele>
<time>2015-05-01T10:16:23Z</time>
</trkpt>
<trkpt lat="34.8065070" lon="33.4481694">
<ele>65.95</ele>
<time>2015-05-01T10:16:24Z</time>
</trkpt>
<trkpt lat="34.8064753" lon="33.4480778">
<ele>66.75</ele>
<time>2015-05-01T10:16:26Z</time>
</trkpt>
<trkpt lat="34.8064610" lon="33.4479928">
<ele>66.20</ele>
<time>2015-05-01T10:16:28Z</time>
</trkpt>
<trkpt lat="34.8064344" lon="33.4479018">
<ele>66.06</ele>
<time>2015-05-01T10:16:30Z</time>
</trkpt>
<trkpt lat="34.8064045" lon="33.4478137">
<ele>66.03</ele>
<time>2015-05-01T10:16:32Z</time>
</trkpt>
<trkpt lat="34.8063809" lon="33.4477289">
<ele>66.02</ele>
<time>2015-05-01T10:16:34Z</time>
</trkpt>
<trkpt lat="34.8063634" lon="33.4476489">
<ele>65.77</ele>
<time>2015-05-01T10:16:36Z</time>
</trkpt>
<trkpt lat="34.8063508" lon="33.4475718">
<ele>65.70</ele>
<time>2015-05-01T10:16:38Z</time>
</trkpt>
<trkpt lat="34.8063367" lon="33.4474955">
<ele>65.19</ele>
<time>2015-05-01T10:16:40Z</time>
</trkpt>
<trkpt lat="34.8063212" lon="33.4474194">
<ele>65.56</ele>
<time>2015-05-01T10:16:42Z</time>
</trkpt>
<trkpt lat="34.8063124" lon="33.4473439">
<ele>65.15</ele>
<time>2015-05-01T10:16:44Z</time>
</trkpt>
<trkpt lat="34.8063027" lon="33.4472698">
<ele>65.80</ele>
<time>2015-05-01T10:16:46Z</time>
</trkpt>
<trkpt lat="34.8062944" lon="33.4471934">
<ele>65.71</ele>
<time>2015-05-01T10:16:48Z</time>
</trkpt>
<trkpt lat="34.8062816" lon="33.4471142">
<ele>65.94</ele>
<time>2015-05-01T10:16:50Z</time>
</trkpt>
<trkpt lat="34.8062682" lon="33.4470340">
<ele>66.00</ele>
<time>2015-05-01T10:16:52Z</time>
</trkpt>
<trkpt lat="34.8062579" lon="33.4469545">
<ele>65.26</ele>
<time>2015-05-01T10:16:54Z</time>
</trkpt>
<trkpt lat="34.8062498" lon="33.4468718">
<ele>66.33</ele>
<time>2015-05-01T10:16:56Z</time>
</trkpt>
<trkpt lat="34.8062407" lon="33.4467844">
<ele>66.84</ele>
<time>2015-05-01T10:16:58Z</time>
</trkpt>
<trkpt lat="34.8062305" lon="33.4466970">
<ele>67.72</ele>
<time>2015-05-01T10:17:00Z</time>
</trkpt>
<trkpt lat="34.8062240" lon="33.4466167">
<ele>67.94</ele>
<time>2015-05-01T10:17:02Z</time>
</trkpt>
<trkpt lat="34.8062218" lon="33.4465429">
<ele>68.00</ele>
<time>2015-05-01T10:17:04Z</time>
</trkpt>
<trkpt lat="34.8062270" lon="33.4464822">
<ele>67.26</ele>
<time>2015-05-01T10:17:06Z</time>
</trkpt>
<trkpt lat="34.8062300" lon="33.4464219">
<ele>67.58</ele>
<time>2015-05-01T10:17:08Z</time>
</trkpt>
<trkpt lat="34.8062336" lon="33.4463566">
<ele>67.16</ele>
<time>2015-05-01T10:17:10Z</time>
</trkpt>
<trkpt lat="34.8062333" lon="33.4462849">
<ele>67.55</ele>
<time>2015-05-01T10:17:12Z</time>
</trkpt>
<trkpt lat="34.8062292" lon="33.4462076">
<ele>67.90</ele>
<time>2015-05-01T10:17:14Z</time>
</trkpt>
<trkpt lat="34.8062256" lon="33.4461307">
<ele>68.74</ele>
<time>2015-05-01T10:17:16Z</time>
</trkpt>
<trkpt lat="34.8062235" lon="33.4460572">
<ele>69.70</ele>
<time>2015-05-01T10:17:18Z</time>
</trkpt>
<trkpt lat="34.8062230" lon="33.4459882">
<ele>70.19</ele>
<time>2015-05-01T10:17:20Z</time>
</trkpt>
<trkpt lat="34.8062229" lon="33.4459228">
<ele>70.56</ele>
<time>2015-05-01T10:17:22Z</time>
</trkpt>
<trkpt lat="34.8062196" lon="33.4458526">
<ele>71.40</ele>
<time>2015-05-01T10:17:24Z</time>
</trkpt>
<trkpt lat="34.8062160" lon="33.4457816">
<ele>71.61</ele>
<time>2015-05-01T10:17:26Z</time>
</trkpt>
<trkpt lat="34.8062113" lon="33.4457085">
<ele>72.42</ele>
<time>2015-05-01T10:17:28Z</time>
</trkpt>
<trkpt lat="34.8062085" lon="33.4456343">
<ele>72.87</ele>
<time>2015-05-01T10:17:30Z</time>
</trkpt>
<trkpt lat="34.8062057" lon="33.4455589">
<ele>72.98</ele>
<time>2015-05-01T10:17:32Z</time>
</trkpt>
<trkpt lat="34.8062082" lon="33.4454815">
<ele>72.26</ele>
<time>2015-05-01T10:17:34Z</time>
</trkpt>
<trkpt lat="34.8062119" lon="33.4454009">
<ele>71.58</ele>
<time>2015-05-01T10:17:36Z</time>
</trkpt>
<trkpt lat="34.8062146" lon="33.4453212">
<ele>70.16</ele>
<time>2015-05-01T10:17:38Z</time>
</trkpt>
<trkpt lat="34.8062183" lon="33.4452429">
<ele>68.30</ele>
<time>2015-05-01T10:17:40Z</time>
</trkpt>
<trkpt lat="34.8062216" lon="33.4451636">
<ele>66.59</ele>
<time>2015-05-01T10:17:42Z</time>
</trkpt>
<trkpt lat="34.8062218" lon="33.4450867">
<ele>65.91</ele>
<time>2015-05-01T10:17:44Z</time>
</trkpt>
<trkpt lat="34.8062268" lon="33.4450087">
<ele>65.99</ele>
<time>2015-05-01T10:17:46Z</time>
</trkpt>
<trkpt lat="34.8062321" lon="33.4449315">
<ele>66.26</ele>
<time>2015-05-01T10:17:48Z</time>
</trkpt>
<trkpt lat="34.8062334" lon="33.4448564">
<ele>67.33</ele>
<time>2015-05-01T10:17:50Z</time>
</trkpt>
<trkpt lat="34.8062361" lon="33.4447815">
<ele>67.84</ele>
<time>2015-05-01T10:17:52Z</time>
</trkpt>
<trkpt lat="34.8062388" lon="33.4447096">
<ele>67.97</ele>
<time>2015-05-01T10:17:54Z</time>
</trkpt>
<trkpt lat="34.8062444" lon="33.4446376">
<ele>68.01</ele>
<time>2015-05-01T10:17:56Z</time>
</trkpt>
<trkpt lat="34.8062536" lon="33.4445671">
<ele>68.01</ele>
<time>2015-05-01T10:17:58Z</time>
</trkpt>
<trkpt lat="34.8062623" lon="33.4444957">
<ele>69.27</ele>
<time>2015-05-01T10:18:00Z</time>
</trkpt>
<trkpt lat="34.8062674" lon="33.4444215">
<ele>70.33</ele>
<time>2015-05-01T10:18:02Z</time>
</trkpt>
<trkpt lat="34.8062742" lon="33.4443436">
<ele>71.34</ele>
<time>2015-05-01T10:18:04Z</time>
</trkpt>
<trkpt lat="34.8062840" lon="33.4442674">
<ele>72.10</ele>
<time>2015-05-01T10:18:06Z</time>
</trkpt>
<trkpt lat="34.8062926" lon="33.4441899">
<ele>72.54</ele>
<time>2015-05-01T10:18:08Z</time>
</trkpt>
<trkpt lat="34.8062975" lon="33.4441160">
<ele>73.40</ele>
<time>2015-05-01T10:18:10Z</time>
</trkpt>
<trkpt lat="34.8063043" lon="33.4440407">
<ele>74.11</ele>
<time>2015-05-01T10:18:12Z</time>
</trkpt>
<trkpt lat="34.8063140" lon="33.4439658">
<ele>74.04</ele>
<time>2015-05-01T10:18:14Z</time>
</trkpt>
<trkpt lat="34.8063270" lon="33.4438946">
<ele>74.02</ele>
<time>2015-05-01T10:18:16Z</time>
</trkpt>
<trkpt lat="34.8063372" lon="33.4438246">
<ele>74.02</ele>
<time>2015-05-01T10:18:18Z</time>
</trkpt>
<trkpt lat="34.8063414" lon="33.4437532">
<ele>74.77</ele>
<time>2015-05-01T10:18:20Z</time>
</trkpt>
<trkpt lat="34.8063452" lon="33.4436830">
<ele>74.95</ele>
<time>2015-05-01T10:18:22Z</time>
</trkpt>
<trkpt lat="34.8063535" lon="33.4436150">
<ele>75.00</ele>
<time>2015-05-01T10:18:24Z</time>
</trkpt>
<trkpt lat="34.8063614" lon="33.4435492">
<ele>75.51</ele>
<time>2015-05-01T10:18:26Z</time>
</trkpt>
<trkpt lat="34.8063704" lon="33.4434842">
<ele>76.39</ele>
<time>2015-05-01T10:18:28Z</time>
</trkpt>
<trkpt lat="34.8063814" lon="33.4434186">
<ele>75.86</ele>
<time>2015-05-01T10:18:30Z</time>
</trkpt>
<trkpt lat="34.8063935" lon="33.4433503">
<ele>75.23</ele>
<time>2015-05-01T10:18:32Z</time>
</trkpt>
<trkpt lat="34.8064038" lon="33.4432829">
<ele>74.82</ele>
<time>2015-05-01T10:18:34Z</time>
</trkpt>
<trkpt lat="34.8064125" lon="33.4432146">
<ele>74.97</ele>
<time>2015-05-01T10:18:36Z</time>
</trkpt>
<trkpt lat="34.8064232" lon="33.4431449">
<ele>73.75</ele>
<time>2015-05-01T10:18:38Z</time>
</trkpt>
<trkpt lat="34.8064331" lon="33.4430746">
<ele>72.45</ele>
<time>2015-05-01T10:18:40Z</time>
</trkpt>
<trkpt lat="34.8064432" lon="33.4429993">
<ele>72.12</ele>
<time>2015-05-01T10:18:42Z</time>
</trkpt>
<trkpt lat="34.8064499" lon="33.4429208">
<ele>72.79</ele>
<time>2015-05-01T10:18:44Z</time>
</trkpt>
<trkpt lat="34.8064577" lon="33.4428423">
<ele>72.21</ele>
<time>2015-05-01T10:18:46Z</time>
</trkpt>
<trkpt lat="34.8064675" lon="33.4427625">
<ele>72.06</ele>
<time>2015-05-01T10:18:48Z</time>
</trkpt>
<trkpt lat="34.8064724" lon="33.4426835">
<ele>72.78</ele>
<time>2015-05-01T10:18:50Z</time>
</trkpt>
<trkpt lat="34.8064778" lon="33.4426018">
<ele>72.96</ele>
<time>2015-05-01T10:18:52Z</time>
</trkpt>
<trkpt lat="34.8064886" lon="33.4425170">
<ele>71.25</ele>
<time>2015-05-01T10:18:54Z</time>
</trkpt>
<trkpt lat="34.8064991" lon="33.4424283">
<ele>70.57</ele>
<time>2015-05-01T10:18:56Z</time>
</trkpt>
<trkpt lat="34.8065091" lon="33.4423369">
<ele>69.16</ele>
<time>2015-05-01T10:18:58Z</time>
</trkpt>
<trkpt lat="34.8065137" lon="33.4422427">
<ele>69.55</ele>
<time>2015-05-01T10:19:00Z</time>
</trkpt>
<trkpt lat="34.8065168" lon="33.4421501">
<ele>69.40</ele>
<time>2015-05-01T10:19:02Z</time>
</trkpt>
<trkpt lat="34.8065239" lon="33.4420609">
<ele>69.86</ele>
<time>2015-05-01T10:19:04Z</time>
</trkpt>
<trkpt lat="34.8065254" lon="33.4419806">
<ele>69.23</ele>
<time>2015-05-01T10:19:06Z</time>
</trkpt>
<trkpt lat="34.8065288" lon="33.4419063">
<ele>69.07</ele>
<time>2015-05-01T10:19:08Z</time>
</trkpt>
<trkpt lat="34.8065370" lon="33.4418374">
<ele>69.03</ele>
<time>2015-05-01T10:19:10Z</time>
</trkpt>
<trkpt lat="34.8065439" lon="33.4417661">
<ele>69.77</ele>
<time>2015-05-01T10:19:12Z</time>
</trkpt>
<trkpt lat="34.8065466" lon="33.4416910">
<ele>69.70</ele>
<time>2015-05-01T10:19:14Z</time>
</trkpt>
<trkpt lat="34.8065474" lon="33.4416124">
<ele>70.19</ele>
<time>2015-05-01T10:19:16Z</time>
</trkpt>
<trkpt lat="34.8065544" lon="33.4415299">
<ele>70.06</ele>
<time>2015-05-01T10:19:18Z</time>
</trkpt>
<trkpt lat="34.8065610" lon="33.4414444">
<ele>70.28</ele>
<time>2015-05-01T10:19:20Z</time>
</trkpt>
<trkpt lat="34.8065698" lon="33.4413551">
<ele>70.58</ele>
<time>2015-05-01T10:19:22Z</time>
</trkpt>
<trkpt lat="34.8065750" lon="33.4412638">
<ele>70.66</ele>
<time>2015-05-01T10:19:24Z</time>
</trkpt>
<trkpt lat="34.8065746" lon="33.4411709">
<ele>71.68</ele>
<time>2015-05-01T10:19:26Z</time>
</trkpt>
<trkpt lat="34.8065716" lon="33.4410812">
<ele>73.18</ele>
<time>2015-05-01T10:19:28Z</time>
</trkpt>
<trkpt lat="34.8065709" lon="33.4409939">
<ele>73.81</ele>
<time>2015-05-01T10:19:30Z</time>
</trkpt>
<trkpt lat="34.8065666" lon="33.4409086">
<ele>73.96</ele>
<time>2015-05-01T10:19:32Z</time>
</trkpt>
<trkpt lat="34.8065673" lon="33.4408179">
<ele>74.75</ele>
<time>2015-05-01T10:19:34Z</time>
</trkpt>
<trkpt lat="34.8065684" lon="33.4407232">
<ele>76.20</ele>
<time>2015-05-01T10:19:36Z</time>
</trkpt>
<trkpt lat="34.8065671" lon="33.4406263">
<ele>77.31</ele>
<time>2015-05-01T10:19:38Z</time>
</trkpt>
<trkpt lat="34.8065698" lon="33.4405329">
<ele>78.34</ele>
<time>2015-05-01T10:19:40Z</time>
</trkpt>
<trkpt lat="34.8065696" lon="33.4404437">
<ele>78.10</ele>
<time>2015-05-01T10:19:42Z</time>
</trkpt>
<trkpt lat="34.8065640" lon="33.4403500">
<ele>78.54</ele>
<time>2015-05-01T10:19:44Z</time>
</trkpt>
<trkpt lat="34.8065624" lon="33.4402564">
<ele>78.65</ele>
<time>2015-05-01T10:19:46Z</time>
</trkpt>
<trkpt lat="34.8065631" lon="33.4401607">
<ele>78.17</ele>
<time>2015-05-01T10:19:48Z</time>
</trkpt>
<trkpt lat="34.8065639" lon="33.4400621">
<ele>78.06</ele>
<time>2015-05-01T10:19:50Z</time>
</trkpt>
<trkpt lat="34.8065653" lon="33.4399637">
<ele>77.53</ele>
<time>2015-05-01T10:19:52Z</time>
</trkpt>
<trkpt lat="34.8065675" lon="33.4398676">
<ele>77.14</ele>
<time>2015-05-01T10:19:54Z</time>
</trkpt>
<trkpt lat="34.8065723" lon="33.4397772">
<ele>77.05</ele>
<time>2015-05-01T10:19:56Z</time>
</trkpt>
<trkpt lat="34.8065739" lon="33.4396884">
<ele>77.77</ele>
<time>2015-05-01T10:19:58Z</time>
</trkpt>
<trkpt lat="34.8065740" lon="33.4395972">
<ele>77.21</ele>
<time>2015-05-01T10:20:00Z</time>
</trkpt>
<trkpt lat="34.8065731" lon="33.4395033">
<ele>77.81</ele>
<time>2015-05-01T10:20:02Z</time>
</trkpt>
<trkpt lat="34.8065732" lon="33.4394091">
<ele>78.47</ele>
<time>2015-05-01T10:20:04Z</time>
</trkpt>
<trkpt lat="34.8065726" lon="33.4393173">
<ele>78.63</ele>
<time>2015-05-01T10:20:06Z</time>
</trkpt>
<trkpt lat="34.8065712" lon="33.4392329">
<ele>79.42</ele>
<time>2015-05-01T10:20:08Z</time>
</trkpt>
<trkpt lat="34.8065702" lon="33.4391553">
<ele>79.37</ele>
<time>2015-05-01T10:20:10Z</time>
</trkpt>
<trkpt lat="34.8065692" lon="33.4390810">
<ele>79.85</ele>
<time>2015-05-01T10:20:12Z</time>
</trkpt>
<trkpt lat="34.8065719" lon="33.4390103">
<ele>80.23</ele>
<time>2015-05-01T10:20:14Z</time>
</trkpt>
<trkpt lat="34.8065741" lon="33.4389436">
<ele>78.57</ele>
<time>2015-05-01T10:20:16Z</time>
</trkpt>
<trkpt lat="34.8065591" lon="33.4388685">
<ele>78.96</ele>
<time>2015-05-01T10:20:19Z</time>
</trkpt>
<trkpt lat="34.8065567" lon="33.4387842">
<ele>78.88</ele>
<time>2015-05-01T10:20:22Z</time>
</trkpt>
<trkpt lat="34.8065525" lon="33.4387166">
<ele>79.23</ele>
<time>2015-05-01T10:20:24Z</time>
</trkpt>
<trkpt lat="34.8065466" lon="33.4386430">
<ele>78.32</ele>
<time>2015-05-01T10:20:26Z</time>
</trkpt>
<trkpt lat="34.8065386" lon="33.4385641">
<ele>78.09</ele>
<time>2015-05-01T10:20:28Z</time>
</trkpt>
<trkpt lat="34.8065309" lon="33.4384815">
<ele>77.29</ele>
<time>2015-05-01T10:20:30Z</time>
</trkpt>
<trkpt lat="34.8065204" lon="33.4384046">
<ele>77.08</ele>
<time>2015-05-01T10:20:32Z</time>
</trkpt>
<trkpt lat="34.8065084" lon="33.4383366">
<ele>77.03</ele>
<time>2015-05-01T10:20:34Z</time>
</trkpt>
<trkpt lat="34.8064944" lon="33.4382762">
<ele>76.77</ele>
<time>2015-05-01T10:20:36Z</time>
</trkpt>
<trkpt lat="34.8064765" lon="33.4382124">
<ele>76.95</ele>
<time>2015-05-01T10:20:38Z</time>
</trkpt>
<trkpt lat="34.8064590" lon="33.4381427">
<ele>77.00</ele>
<time>2015-05-01T10:20:40Z</time>
</trkpt>
<trkpt lat="34.8064443" lon="33.4380708">
<ele>77.01</ele>
<time>2015-05-01T10:20:42Z</time>
</trkpt>
<trkpt lat="34.8064315" lon="33.4379957">
<ele>77.02</ele>
<time>2015-05-01T10:20:44Z</time>
</trkpt>
<trkpt lat="34.8064158" lon="33.4379195">
<ele>77.02</ele>
<time>2015-05-01T10:20:46Z</time>
</trkpt>
<trkpt lat="34.8063985" lon="33.4378461">
<ele>77.27</ele>
<time>2015-05-01T10:20:48Z</time>
</trkpt>
<trkpt lat="34.8063844" lon="33.4377732">
<ele>76.08</ele>
<time>2015-05-01T10:20:50Z</time>
</trkpt>
<trkpt lat="34.8063728" lon="33.4377027">
<ele>75.28</ele>
<time>2015-05-01T10:20:52Z</time>
</trkpt>
<trkpt lat="34.8063622" lon="33.4376338">
<ele>75.58</ele>
<time>2015-05-01T10:20:54Z</time>
</trkpt>
<trkpt lat="34.8063521" lon="33.4375694">
<ele>73.66</ele>
<time>2015-05-01T10:20:56Z</time>
</trkpt>
<trkpt lat="34.8063395" lon="33.4375079">
<ele>72.43</ele>
<time>2015-05-01T10:20:58Z</time>
</trkpt>
<trkpt lat="34.8063454" lon="33.4374518">
<ele>74.37</ele>
<time>2015-05-01T10:21:09Z</time>
</trkpt>
<trkpt lat="34.8063881" lon="33.4373834">
<ele>73.81</ele>
<time>2015-05-01T10:21:12Z</time>
</trkpt>
<trkpt lat="34.8064347" lon="33.4373536">
<ele>73.96</ele>
<time>2015-05-01T10:21:14Z</time>
</trkpt>
<trkpt lat="34.8064816" lon="33.4373277">
<ele>74.00</ele>
<time>2015-05-01T10:21:16Z</time>
</trkpt>
<trkpt lat="34.8065216" lon="33.4372931">
<ele>73.76</ele>
<time>2015-05-01T10:21:18Z</time>
</trkpt>
<trkpt lat="34.8065638" lon="33.4372553">
<ele>73.20</ele>
<time>2015-05-01T10:21:20Z</time>
</trkpt>
<trkpt lat="34.8066166" lon="33.4372223">
<ele>73.81</ele>
<time>2015-05-01T10:21:22Z</time>
</trkpt>
<trkpt lat="34.8066710" lon="33.4371867">
<ele>74.47</ele>
<time>2015-05-01T10:21:24Z</time>
</trkpt>
<trkpt lat="34.8067243" lon="33.4371452">
<ele>75.13</ele>
<time>2015-05-01T10:21:26Z</time>
</trkpt>
<trkpt lat="34.8067717" lon="33.4371000">
<ele>75.04</ele>
<time>2015-05-01T10:21:28Z</time>
</trkpt>
<trkpt lat="34.8068330" lon="33.4370354">
<ele>75.77</ele>
<time>2015-05-01T10:21:30Z</time>
</trkpt>
<trkpt lat="34.8068832" lon="33.4369753">
<ele>75.21</ele>
<time>2015-05-01T10:21:32Z</time>
</trkpt>
<trkpt lat="34.8069295" lon="33.4369231">
<ele>74.81</ele>
<time>2015-05-01T10:21:34Z</time>
</trkpt>
<trkpt lat="34.8069758" lon="33.4368776">
<ele>75.22</ele>
<time>2015-05-01T10:21:36Z</time>
</trkpt>
<trkpt lat="34.8070158" lon="33.4368319">
<ele>75.57</ele>
<time>2015-05-01T10:21:38Z</time>
</trkpt>
<trkpt lat="34.8070536" lon="33.4367866">
<ele>75.40</ele>
<time>2015-05-01T10:21:40Z</time>
</trkpt>
<trkpt lat="34.8070910" lon="33.4367438">
<ele>74.61</ele>
<time>2015-05-01T10:21:42Z</time>
</trkpt>
<trkpt lat="34.8071200" lon="33.4366938">
<ele>74.17</ele>
<time>2015-05-01T10:21:44Z</time>
</trkpt>
<trkpt lat="34.8071443" lon="33.4366347">
<ele>74.30</ele>
<time>2015-05-01T10:21:46Z</time>
</trkpt>
<trkpt lat="34.8071543" lon="33.4365592">
<ele>73.34</ele>
<time>2015-05-01T10:21:48Z</time>
</trkpt>
<trkpt lat="34.8071530" lon="33.4364753">
<ele>73.10</ele>
<time>2015-05-01T10:21:50Z</time>
</trkpt>
<trkpt lat="34.8071450" lon="33.4363880">
<ele>72.54</ele>
<time>2015-05-01T10:21:52Z</time>
</trkpt>
<trkpt lat="34.8071564" lon="33.4362915">
<ele>71.15</ele>
<time>2015-05-01T10:21:54Z</time>
</trkpt>
<trkpt lat="34.8072029" lon="33.4362048">
<ele>70.08</ele>
<time>2015-05-01T10:21:55Z</time>
</trkpt>
<trkpt lat="34.8072454" lon="33.4361698">
<ele>69.55</ele>
<time>2015-05-01T10:21:56Z</time>
</trkpt>
<trkpt lat="34.8072834" lon="33.4361298">
<ele>69.78</ele>
<time>2015-05-01T10:21:57Z</time>
</trkpt>
<trkpt lat="34.8073299" lon="33.4360854">
<ele>69.90</ele>
<time>2015-05-01T10:21:58Z</time>
</trkpt>
<trkpt lat="34.8073777" lon="33.4360447">
<ele>69.96</ele>
<time>2015-05-01T10:21:59Z</time>
</trkpt>
<trkpt lat="34.8074334" lon="33.4360044">
<ele>69.99</ele>
<time>2015-05-01T10:22:00Z</time>
</trkpt>
<trkpt lat="34.8074913" lon="33.4359614">
<ele>70.50</ele>
<time>2015-05-01T10:22:01Z</time>
</trkpt>
<trkpt lat="34.8075498" lon="33.4359266">
<ele>70.76</ele>
<time>2015-05-01T10:22:02Z</time>
</trkpt>
<trkpt lat="34.8076040" lon="33.4358764">
<ele>70.89</ele>
<time>2015-05-01T10:22:03Z</time>
</trkpt>
<trkpt lat="34.8076642" lon="33.4358258">
<ele>70.95</ele>
<time>2015-05-01T10:22:04Z</time>
</trkpt>
<trkpt lat="34.8077167" lon="33.4357760">
<ele>71.48</ele>
<time>2015-05-01T10:22:05Z</time>
</trkpt>
<trkpt lat="34.8077548" lon="33.4357383">
<ele>72.25</ele>
<time>2015-05-01T10:22:06Z</time>
</trkpt>
<trkpt lat="34.8077947" lon="33.4357032">
<ele>72.63</ele>
<time>2015-05-01T10:22:07Z</time>
</trkpt>
<trkpt lat="34.8078316" lon="33.4356716">
<ele>72.82</ele>
<time>2015-05-01T10:22:08Z</time>
</trkpt>
<trkpt lat="34.8078900" lon="33.4356241">
<ele>73.72</ele>
<time>2015-05-01T10:22:10Z</time>
</trkpt>
<trkpt lat="34.8079530" lon="33.4355840">
<ele>74.69</ele>
<time>2015-05-01T10:22:12Z</time>
</trkpt>
<trkpt lat="34.8080124" lon="33.4355375">
<ele>74.68</ele>
<time>2015-05-01T10:22:14Z</time>
</trkpt>
<trkpt lat="34.8080710" lon="33.4354899">
<ele>75.68</ele>
<time>2015-05-01T10:22:16Z</time>
</trkpt>
<trkpt lat="34.8081247" lon="33.4354429">
<ele>75.93</ele>
<time>2015-05-01T10:22:18Z</time>
</trkpt>
<trkpt lat="34.8081846" lon="33.4353932">
<ele>76.00</ele>
<time>2015-05-01T10:22:20Z</time>
</trkpt>
<trkpt lat="34.8082410" lon="33.4353355">
<ele>76.01</ele>
<time>2015-05-01T10:22:22Z</time>
</trkpt>
<trkpt lat="34.8083010" lon="33.4352748">
<ele>76.01</ele>
<time>2015-05-01T10:22:24Z</time>
</trkpt>
<trkpt lat="34.8083627" lon="33.4352144">
<ele>77.27</ele>
<time>2015-05-01T10:22:26Z</time>
</trkpt>
<trkpt lat="34.8084165" lon="33.4351576">
<ele>78.33</ele>
<time>2015-05-01T10:22:28Z</time>
</trkpt>
<trkpt lat="34.8084650" lon="33.4351090">
<ele>78.84</ele>
<time>2015-05-01T10:22:30Z</time>
</trkpt>
<trkpt lat="34.8085116" lon="33.4350626">
<ele>78.72</ele>
<time>2015-05-01T10:22:32Z</time>
</trkpt>
<trkpt lat="34.8085585" lon="33.4350134">
<ele>78.94</ele>
<time>2015-05-01T10:22:34Z</time>
</trkpt>
<trkpt lat="34.8086022" lon="33.4349620">
<ele>78.50</ele>
<time>2015-05-01T10:22:36Z</time>
</trkpt>
<trkpt lat="34.8086451" lon="33.4349078">
<ele>78.14</ele>
<time>2015-05-01T10:22:38Z</time>
</trkpt>
<trkpt lat="34.8086912" lon="33.4348554">
<ele>77.55</ele>
<time>2015-05-01T10:22:40Z</time>
</trkpt>
<trkpt lat="34.8087418" lon="33.4348054">
<ele>77.15</ele>
<time>2015-05-01T10:22:42Z</time>
</trkpt>
<trkpt lat="34.8087963" lon="33.4347582">
<ele>76.55</ele>
<time>2015-05-01T10:22:44Z</time>
</trkpt>
<trkpt lat="34.8088575" lon="33.4347122">
<ele>76.15</ele>
<time>2015-05-01T10:22:46Z</time>
</trkpt>
<trkpt lat="34.8089255" lon="33.4346651">
<ele>76.80</ele>
<time>2015-05-01T10:22:48Z</time>
</trkpt>
<trkpt lat="34.8090192" lon="33.4346030">
<ele>76.21</ele>
<time>2015-05-01T10:22:50Z</time>
</trkpt>
<trkpt lat="34.8090626" lon="33.4345741">
<ele>76.11</ele>
<time>2015-05-01T10:22:51Z</time>
</trkpt>
<trkpt lat="34.8091097" lon="33.4345457">
<ele>75.56</ele>
<time>2015-05-01T10:22:52Z</time>
</trkpt>
<trkpt lat="34.8091665" lon="33.4345183">
<ele>75.29</ele>
<time>2015-05-01T10:22:53Z</time>
</trkpt>
<trkpt lat="34.8092112" lon="33.4344943">
<ele>75.65</ele>
<time>2015-05-01T10:22:54Z</time>
</trkpt>
<trkpt lat="34.8092665" lon="33.4344581">
<ele>75.33</ele>
<time>2015-05-01T10:22:55Z</time>
</trkpt>
<trkpt lat="34.8093178" lon="33.4344232">
<ele>75.18</ele>
<time>2015-05-01T10:22:56Z</time>
</trkpt>
<trkpt lat="34.8093742" lon="33.4343899">
<ele>75.10</ele>
<time>2015-05-01T10:22:57Z</time>
</trkpt>
<trkpt lat="34.8094270" lon="33.4343606">
<ele>75.06</ele>
<time>2015-05-01T10:22:58Z</time>
</trkpt>
<trkpt lat="34.8094735" lon="33.4343324">
<ele>74.54</ele>
<time>2015-05-01T10:22:59Z</time>
</trkpt>
<trkpt lat="34.8095401" lon="33.4342924">
<ele>74.28</ele>
<time>2015-05-01T10:23:00Z</time>
</trkpt>
<trkpt lat="34.8096005" lon="33.4342658">
<ele>74.65</ele>
<time>2015-05-01T10:23:01Z</time>
</trkpt>
<trkpt lat="34.8096537" lon="33.4342142">
<ele>75.33</ele>
<time>2015-05-01T10:23:02Z</time>
</trkpt>
<trkpt lat="34.8096960" lon="33.4341710">
<ele>75.67</ele>
<time>2015-05-01T10:23:03Z</time>
</trkpt>
<trkpt lat="34.8097545" lon="33.4341202">
<ele>75.84</ele>
<time>2015-05-01T10:23:04Z</time>
</trkpt>
<trkpt lat="34.8098024" lon="33.4340522">
<ele>75.93</ele>
<time>2015-05-01T10:23:05Z</time>
</trkpt>
<trkpt lat="34.8098496" lon="33.4339914">
<ele>75.97</ele>
<time>2015-05-01T10:23:06Z</time>
</trkpt>
<trkpt lat="34.8098954" lon="33.4339292">
<ele>75.99</ele>
<time>2015-05-01T10:23:07Z</time>
</trkpt>
<trkpt lat="34.8099381" lon="33.4338678">
<ele>76.01</ele>
<time>2015-05-01T10:23:08Z</time>
</trkpt>
<trkpt lat="34.8099858" lon="33.4338208">
<ele>75.51</ele>
<time>2015-05-01T10:23:09Z</time>
</trkpt>
<trkpt lat="34.8100293" lon="33.4337623">
<ele>75.26</ele>
<time>2015-05-01T10:23:10Z</time>
</trkpt>
<trkpt lat="34.8100682" lon="33.4337076">
<ele>75.14</ele>
<time>2015-05-01T10:23:11Z</time>
</trkpt>
<trkpt lat="34.8101174" lon="33.4336475">
<ele>75.08</ele>
<time>2015-05-01T10:23:12Z</time>
</trkpt>
<trkpt lat="34.8101658" lon="33.4335860">
<ele>74.55</ele>
<time>2015-05-01T10:23:13Z</time>
</trkpt>
<trkpt lat="34.8102088" lon="33.4335212">
<ele>74.28</ele>
<time>2015-05-01T10:23:14Z</time>
</trkpt>
<trkpt lat="34.8102547" lon="33.4334660">
<ele>74.15</ele>
<time>2015-05-01T10:23:15Z</time>
</trkpt>
<trkpt lat="34.8102935" lon="33.4333999">
<ele>74.08</ele>
<time>2015-05-01T10:23:16Z</time>
</trkpt>
<trkpt lat="34.8103318" lon="33.4333501">
<ele>74.05</ele>
<time>2015-05-01T10:23:17Z</time>
</trkpt>
<trkpt lat="34.8103628" lon="33.4333070">
<ele>74.03</ele>
<time>2015-05-01T10:23:18Z</time>
</trkpt>
<trkpt lat="34.8104280" lon="33.4332250">
<ele>74.02</ele>
<time>2015-05-01T10:23:20Z</time>
</trkpt>
<trkpt lat="34.8104874" lon="33.4331436">
<ele>73.27</ele>
<time>2015-05-01T10:23:22Z</time>
</trkpt>
<trkpt lat="34.8105280" lon="33.4330549">
<ele>72.58</ele>
<time>2015-05-01T10:23:24Z</time>
</trkpt>
<trkpt lat="34.8105570" lon="33.4329552">
<ele>72.91</ele>
<time>2015-05-01T10:23:26Z</time>
</trkpt>
<trkpt lat="34.8105641" lon="33.4328732">
<ele>73.74</ele>
<time>2015-05-01T10:23:28Z</time>
</trkpt>
<trkpt lat="34.8105680" lon="33.4327957">
<ele>73.95</ele>
<time>2015-05-01T10:23:30Z</time>
</trkpt>
<trkpt lat="34.8105806" lon="33.4327198">
<ele>74.00</ele>
<time>2015-05-01T10:23:32Z</time>
</trkpt>
<trkpt lat="34.8106012" lon="33.4326368">
<ele>73.76</ele>
<time>2015-05-01T10:23:34Z</time>
</trkpt>
<trkpt lat="34.8106128" lon="33.4325548">
<ele>73.95</ele>
<time>2015-05-01T10:23:36Z</time>
</trkpt>
<trkpt lat="34.8106205" lon="33.4324736">
<ele>74.75</ele>
<time>2015-05-01T10:23:38Z</time>
</trkpt>
<trkpt lat="34.8106298" lon="33.4323912">
<ele>75.70</ele>
<time>2015-05-01T10:23:40Z</time>
</trkpt>
<trkpt lat="34.8106377" lon="33.4323117">
<ele>76.19</ele>
<time>2015-05-01T10:23:42Z</time>
</trkpt>
<trkpt lat="34.8106477" lon="33.4322322">
<ele>77.31</ele>
<time>2015-05-01T10:23:44Z</time>
</trkpt>
<trkpt lat="34.8106562" lon="33.4321592">
<ele>78.09</ele>
<time>2015-05-01T10:23:46Z</time>
</trkpt>
<trkpt lat="34.8106655" lon="33.4320966">
<ele>78.03</ele>
<time>2015-05-01T10:23:48Z</time>
</trkpt>
<trkpt lat="34.8106737" lon="33.4320191">
<ele>78.02</ele>
<time>2015-05-01T10:23:51Z</time>
</trkpt>
<trkpt lat="34.8106869" lon="33.4319608">
<ele>77.52</ele>
<time>2015-05-01T10:23:53Z</time>
</trkpt>
<trkpt lat="34.8107034" lon="33.4318978">
<ele>77.39</ele>
<time>2015-05-01T10:23:55Z</time>
</trkpt>
<trkpt lat="34.8107259" lon="33.4318330">
<ele>78.36</ele>
<time>2015-05-01T10:23:57Z</time>
</trkpt>
<trkpt lat="34.8107486" lon="33.4317715">
<ele>78.10</ele>
<time>2015-05-01T10:23:59Z</time>
</trkpt>
<trkpt lat="34.8107696" lon="33.4317154">
<ele>78.29</ele>
<time>2015-05-01T10:24:01Z</time>
</trkpt>
<trkpt lat="34.8107929" lon="33.4316401">
<ele>78.42</ele>
<time>2015-05-01T10:24:04Z</time>
</trkpt>
<trkpt lat="34.8108207" lon="33.4315666">
<ele>77.82</ele>
<time>2015-05-01T10:24:07Z</time>
</trkpt>
<trkpt lat="34.8108444" lon="33.4315072">
<ele>77.47</ele>
<time>2015-05-01T10:24:09Z</time>
</trkpt>
<trkpt lat="34.8108698" lon="33.4314330">
<ele>77.88</ele>
<time>2015-05-01T10:24:11Z</time>
</trkpt>
<trkpt lat="34.8108993" lon="33.4313351">
<ele>77.23</ele>
<time>2015-05-01T10:24:13Z</time>
</trkpt>
<trkpt lat="34.8109282" lon="33.4312417">
<ele>77.82</ele>
<time>2015-05-01T10:24:15Z</time>
</trkpt>
<trkpt lat="34.8109577" lon="33.4311516">
<ele>78.72</ele>
<time>2015-05-01T10:24:17Z</time>
</trkpt>
<trkpt lat="34.8109823" lon="33.4310682">
<ele>78.44</ele>
<time>2015-05-01T10:24:19Z</time>
</trkpt>
<trkpt lat="34.8110048" lon="33.4309861">
<ele>77.62</ele>
<time>2015-05-01T10:24:21Z</time>
</trkpt>
<trkpt lat="34.8110274" lon="33.4309126">
<ele>76.67</ele>
<time>2015-05-01T10:24:23Z</time>
</trkpt>
<trkpt lat="34.8110493" lon="33.4308373">
<ele>76.93</ele>
<time>2015-05-01T10:24:25Z</time>
</trkpt>
<trkpt lat="34.8110694" lon="33.4307654">
<ele>77.49</ele>
<time>2015-05-01T10:24:27Z</time>
</trkpt>
<trkpt lat="34.8110907" lon="33.4306907">
<ele>77.64</ele>
<time>2015-05-01T10:24:29Z</time>
</trkpt>
<trkpt lat="34.8111114" lon="33.4306316">
<ele>78.67</ele>
<time>2015-05-01T10:24:31Z</time>
</trkpt>
<trkpt lat="34.8111603" lon="33.4306378">
<ele>78.22</ele>
<time>2015-05-01T10:24:34Z</time>
</trkpt>
<trkpt lat="34.8111916" lon="33.4306835">
<ele>78.82</ele>
<time>2015-05-01T10:24:36Z</time>
</trkpt>
<trkpt lat="34.8111645" lon="33.4306350">
<ele>82.66</ele>
<time>2015-05-01T10:29:23Z</time>
</trkpt>
<trkpt lat="34.8111655" lon="33.4305722">
<ele>80.85</ele>
<time>2015-05-01T10:29:26Z</time>
</trkpt>
<trkpt lat="34.8111710" lon="33.4305156">
<ele>79.72</ele>
<time>2015-05-01T10:29:28Z</time>
</trkpt>
<trkpt lat="34.8111916" lon="33.4304443">
<ele>79.19</ele>
<time>2015-05-01T10:29:30Z</time>
</trkpt>
<trkpt lat="34.8112238" lon="33.4303778">
<ele>77.81</ele>
<time>2015-05-01T10:29:32Z</time>
</trkpt>
<trkpt lat="34.8112597" lon="33.4303104">
<ele>77.21</ele>
<time>2015-05-01T10:29:34Z</time>
</trkpt>
<trkpt lat="34.8112960" lon="33.4302395">
<ele>77.07</ele>
<time>2015-05-01T10:29:36Z</time>
</trkpt>
<trkpt lat="34.8113328" lon="33.4301690">
<ele>77.03</ele>
<time>2015-05-01T10:29:38Z</time>
</trkpt>
<trkpt lat="34.8113706" lon="33.4300949">
<ele>76.52</ele>
<time>2015-05-01T10:29:40Z</time>
</trkpt>
<trkpt lat="34.8114097" lon="33.4300190">
<ele>76.89</ele>
<time>2015-05-01T10:29:42Z</time>
</trkpt>
<trkpt lat="34.8114491" lon="33.4299424">
<ele>76.98</ele>
<time>2015-05-01T10:29:44Z</time>
</trkpt>
<trkpt lat="34.8114891" lon="33.4298700">
<ele>77.01</ele>
<time>2015-05-01T10:29:46Z</time>
</trkpt>
<trkpt lat="34.8115233" lon="33.4297984">
<ele>77.01</ele>
<time>2015-05-01T10:29:48Z</time>
</trkpt>
<trkpt lat="34.8115563" lon="33.4297332">
<ele>77.02</ele>
<time>2015-05-01T10:29:50Z</time>
</trkpt>
<trkpt lat="34.8115886" lon="33.4296742">
<ele>77.77</ele>
<time>2015-05-01T10:29:52Z</time>
</trkpt>
<trkpt lat="34.8116215" lon="33.4296208">
<ele>77.95</ele>
<time>2015-05-01T10:29:54Z</time>
</trkpt>
<trkpt lat="34.8116593" lon="33.4295646">
<ele>78.50</ele>
<time>2015-05-01T10:29:56Z</time>
</trkpt>
<trkpt lat="34.8116980" lon="33.4294984">
<ele>78.64</ele>
<time>2015-05-01T10:29:58Z</time>
</trkpt>
<trkpt lat="34.8117403" lon="33.4294216">
<ele>78.92</ele>
<time>2015-05-01T10:30:00Z</time>
</trkpt>
<trkpt lat="34.8118106" lon="33.4293046">
<ele>78.99</ele>
<time>2015-05-01T10:30:02Z</time>
</trkpt>
<trkpt lat="34.8118542" lon="33.4292107">
<ele>79.26</ele>
<time>2015-05-01T10:30:04Z</time>
</trkpt>
<trkpt lat="34.8118808" lon="33.4291636">
<ele>79.14</ele>
<time>2015-05-01T10:30:05Z</time>
</trkpt>
<trkpt lat="34.8119223" lon="33.4290902">
<ele>79.05</ele>
<time>2015-05-01T10:30:07Z</time>
</trkpt>
<trkpt lat="34.8119698" lon="33.4290102">
<ele>79.52</ele>
<time>2015-05-01T10:30:09Z</time>
</trkpt>
<trkpt lat="34.8120160" lon="33.4289254">
<ele>79.89</ele>
<time>2015-05-01T10:30:11Z</time>
</trkpt>
<trkpt lat="34.8120596" lon="33.4288451">
<ele>80.74</ele>
<time>2015-05-01T10:30:13Z</time>
</trkpt>
<trkpt lat="34.8120974" lon="33.4287528">
<ele>80.95</ele>
<time>2015-05-01T10:30:15Z</time>
</trkpt>
<trkpt lat="34.8121221" lon="33.4287059">
<ele>80.98</ele>
<time>2015-05-01T10:30:16Z</time>
</trkpt>
<trkpt lat="34.8121712" lon="33.4286144">
<ele>81.01</ele>
<time>2015-05-01T10:30:18Z</time>
</trkpt>
<trkpt lat="34.8121952" lon="33.4285591">
<ele>81.51</ele>
<time>2015-05-01T10:30:19Z</time>
</trkpt>
<trkpt lat="34.8122382" lon="33.4284666">
<ele>81.89</ele>
<time>2015-05-01T10:30:21Z</time>
</trkpt>
<trkpt lat="34.8122696" lon="33.4283837">
<ele>81.98</ele>
<time>2015-05-01T10:30:23Z</time>
</trkpt>
<trkpt lat="34.8122886" lon="33.4283042">
<ele>82.01</ele>
<time>2015-05-01T10:30:25Z</time>
</trkpt>
<trkpt lat="34.8123199" lon="33.4282178">
<ele>82.01</ele>
<time>2015-05-01T10:30:27Z</time>
</trkpt>
<trkpt lat="34.8123512" lon="33.4281264">
<ele>82.77</ele>
<time>2015-05-01T10:30:29Z</time>
</trkpt>
<trkpt lat="34.8123775" lon="33.4280347">
<ele>83.45</ele>
<time>2015-05-01T10:30:31Z</time>
</trkpt>
<trkpt lat="34.8124056" lon="33.4279397">
<ele>83.88</ele>
<time>2015-05-01T10:30:33Z</time>
</trkpt>
<trkpt lat="34.8124350" lon="33.4278433">
<ele>83.23</ele>
<time>2015-05-01T10:30:35Z</time>
</trkpt>
<trkpt lat="34.8124682" lon="33.4277434">
<ele>83.07</ele>
<time>2015-05-01T10:30:37Z</time>
</trkpt>
<trkpt lat="34.8125069" lon="33.4276515">
<ele>83.03</ele>
<time>2015-05-01T10:30:39Z</time>
</trkpt>
<trkpt lat="34.8125473" lon="33.4275617">
<ele>83.02</ele>
<time>2015-05-01T10:30:41Z</time>
</trkpt>
<trkpt lat="34.8125946" lon="33.4274777">
<ele>82.52</ele>
<time>2015-05-01T10:30:43Z</time>
</trkpt>
<trkpt lat="34.8126215" lon="33.4274336">
<ele>82.27</ele>
<time>2015-05-01T10:30:44Z</time>
</trkpt>
<trkpt lat="34.8126623" lon="33.4273737">
<ele>81.64</ele>
<time>2015-05-01T10:30:45Z</time>
</trkpt>
<trkpt lat="34.8126845" lon="33.4273255">
<ele>81.83</ele>
<time>2015-05-01T10:30:46Z</time>
</trkpt>
<trkpt lat="34.8127126" lon="33.4272819">
<ele>81.92</ele>
<time>2015-05-01T10:30:47Z</time>
</trkpt>
<trkpt lat="34.8127424" lon="33.4272407">
<ele>81.97</ele>
<time>2015-05-01T10:30:48Z</time>
</trkpt>
<trkpt lat="34.8127730" lon="33.4271928">
<ele>81.99</ele>
<time>2015-05-01T10:30:49Z</time>
</trkpt>
<trkpt lat="34.8127960" lon="33.4271435">
<ele>82.00</ele>
<time>2015-05-01T10:30:50Z</time>
</trkpt>
<trkpt lat="34.8128671" lon="33.4270542">
<ele>81.01</ele>
<time>2015-05-01T10:30:52Z</time>
</trkpt>
<trkpt lat="34.8128979" lon="33.4270040">
<ele>81.01</ele>
<time>2015-05-01T10:30:53Z</time>
</trkpt>
<trkpt lat="34.8129282" lon="33.4269536">
<ele>80.52</ele>
<time>2015-05-01T10:30:54Z</time>
</trkpt>
<trkpt lat="34.8129580" lon="33.4269020">
<ele>80.27</ele>
<time>2015-05-01T10:30:55Z</time>
</trkpt>
<trkpt lat="34.8129906" lon="33.4268554">
<ele>80.14</ele>
<time>2015-05-01T10:30:56Z</time>
</trkpt>
<trkpt lat="34.8130474" lon="33.4267711">
<ele>79.80</ele>
<time>2015-05-01T10:30:58Z</time>
</trkpt>
<trkpt lat="34.8130930" lon="33.4266780">
<ele>79.96</ele>
<time>2015-05-01T10:31:00Z</time>
</trkpt>
<trkpt lat="34.8131406" lon="33.4265981">
<ele>80.00</ele>
<time>2015-05-01T10:31:02Z</time>
</trkpt>
<trkpt lat="34.8131869" lon="33.4265222">
<ele>80.51</ele>
<time>2015-05-01T10:31:04Z</time>
</trkpt>
<trkpt lat="34.8132358" lon="33.4264580">
<ele>80.89</ele>
<time>2015-05-01T10:31:06Z</time>
</trkpt>
<trkpt lat="34.8132803" lon="33.4264031">
<ele>80.48</ele>
<time>2015-05-01T10:31:08Z</time>
</trkpt>
<trkpt lat="34.8133180" lon="33.4263521">
<ele>79.38</ele>
<time>2015-05-01T10:31:10Z</time>
</trkpt>
<trkpt lat="34.8133478" lon="33.4263069">
<ele>79.86</ele>
<time>2015-05-01T10:31:12Z</time>
</trkpt>
<trkpt lat="34.8133767" lon="33.4262630">
<ele>79.23</ele>
<time>2015-05-01T10:31:14Z</time>
</trkpt>
<trkpt lat="34.8134078" lon="33.4262137">
<ele>78.82</ele>
<time>2015-05-01T10:31:16Z</time>
</trkpt>
<trkpt lat="34.8134450" lon="33.4261576">
<ele>79.47</ele>
<time>2015-05-01T10:31:18Z</time>
</trkpt>
<trkpt lat="34.8134896" lon="33.4260895">
<ele>80.38</ele>
<time>2015-05-01T10:31:20Z</time>
</trkpt>
<trkpt lat="34.8135382" lon="33.4260106">
<ele>80.86</ele>
<time>2015-05-01T10:31:22Z</time>
</trkpt>
<trkpt lat="34.8135897" lon="33.4259285">
<ele>80.98</ele>
<time>2015-05-01T10:31:24Z</time>
</trkpt>
<trkpt lat="34.8136454" lon="33.4258439">
<ele>80.26</ele>
<time>2015-05-01T10:31:26Z</time>
</trkpt>
<trkpt lat="34.8136710" lon="33.4257895">
<ele>80.64</ele>
<time>2015-05-01T10:31:27Z</time>
</trkpt>
<trkpt lat="34.8137188" lon="33.4256968">
<ele>80.92</ele>
<time>2015-05-01T10:31:29Z</time>
</trkpt>
<trkpt lat="34.8137422" lon="33.4256410">
<ele>80.97</ele>
<time>2015-05-01T10:31:30Z</time>
</trkpt>
<trkpt lat="34.8137681" lon="33.4255699">
<ele>81.49</ele>
<time>2015-05-01T10:31:31Z</time>
</trkpt>
<trkpt lat="34.8137972" lon="33.4255125">
<ele>81.25</ele>
<time>2015-05-01T10:31:32Z</time>
</trkpt>
<trkpt lat="34.8138199" lon="33.4254604">
<ele>80.64</ele>
<time>2015-05-01T10:31:33Z</time>
</trkpt>
<trkpt lat="34.8138378" lon="33.4253955">
<ele>80.33</ele>
<time>2015-05-01T10:31:34Z</time>
</trkpt>
<trkpt lat="34.8138603" lon="33.4253391">
<ele>79.67</ele>
<time>2015-05-01T10:31:35Z</time>
</trkpt>
<trkpt lat="34.8138754" lon="33.4252828">
<ele>79.84</ele>
<time>2015-05-01T10:31:36Z</time>
</trkpt>
<trkpt lat="34.8138890" lon="33.4252158">
<ele>79.93</ele>
<time>2015-05-01T10:31:37Z</time>
</trkpt>
<trkpt lat="34.8139033" lon="33.4251604">
<ele>79.97</ele>
<time>2015-05-01T10:31:38Z</time>
</trkpt>
<trkpt lat="34.8139229" lon="33.4251067">
<ele>79.99</ele>
<time>2015-05-01T10:31:39Z</time>
</trkpt>
<trkpt lat="34.8139406" lon="33.4250448">
<ele>80.01</ele>
<time>2015-05-01T10:31:40Z</time>
</trkpt>
<trkpt lat="34.8139694" lon="33.4249360">
<ele>80.01</ele>
<time>2015-05-01T10:31:42Z</time>
</trkpt>
<trkpt lat="34.8139738" lon="33.4248760">
<ele>80.01</ele>
<time>2015-05-01T10:31:43Z</time>
</trkpt>
<trkpt lat="34.8139880" lon="33.4248131">
<ele>80.02</ele>
<time>2015-05-01T10:31:44Z</time>
</trkpt>
<trkpt lat="34.8140280" lon="33.4247239">
<ele>80.02</ele>
<time>2015-05-01T10:31:46Z</time>
</trkpt>
<trkpt lat="34.8140378" lon="33.4246668">
<ele>80.52</ele>
<time>2015-05-01T10:31:47Z</time>
</trkpt>
<trkpt lat="34.8140654" lon="33.4245726">
<ele>81.64</ele>
<time>2015-05-01T10:31:49Z</time>
</trkpt>
<trkpt lat="34.8140964" lon="33.4244846">
<ele>83.92</ele>
<time>2015-05-01T10:31:51Z</time>
</trkpt>
<trkpt lat="34.8141284" lon="33.4244091">
<ele>85.24</ele>
<time>2015-05-01T10:31:53Z</time>
</trkpt>
<trkpt lat="34.8141504" lon="33.4243385">
<ele>86.57</ele>
<time>2015-05-01T10:31:55Z</time>
</trkpt>
<trkpt lat="34.8141776" lon="33.4242861">
<ele>86.16</ele>
<time>2015-05-01T10:31:57Z</time>
</trkpt>
<trkpt lat="34.8142055" lon="33.4242139">
<ele>85.91</ele>
<time>2015-05-01T10:32:00Z</time>
</trkpt>
<trkpt lat="34.8142190" lon="33.4241580">
<ele>85.99</ele>
<time>2015-05-01T10:32:02Z</time>
</trkpt>
<trkpt lat="34.8142410" lon="33.4240818">
<ele>85.14</ele>
<time>2015-05-01T10:32:05Z</time>
</trkpt>
<trkpt lat="34.8142611" lon="33.4240034">
<ele>85.53</ele>
<time>2015-05-01T10:32:08Z</time>
</trkpt>
<trkpt lat="34.8142828" lon="33.4239256">
<ele>87.33</ele>
<time>2015-05-01T10:32:11Z</time>
</trkpt>
<trkpt lat="34.8143033" lon="33.4238718">
<ele>87.84</ele>
<time>2015-05-01T10:32:13Z</time>
</trkpt>
<trkpt lat="34.8143233" lon="33.4238124">
<ele>88.47</ele>
<time>2015-05-01T10:32:15Z</time>
</trkpt>
<trkpt lat="34.8143477" lon="33.4237490">
<ele>89.63</ele>
<time>2015-05-01T10:32:17Z</time>
</trkpt>
<trkpt lat="34.8143728" lon="33.4236863">
<ele>89.92</ele>
<time>2015-05-01T10:32:19Z</time>
</trkpt>
<trkpt lat="34.8143997" lon="33.4236226">
<ele>89.99</ele>
<time>2015-05-01T10:32:21Z</time>
</trkpt>
<trkpt lat="34.8144285" lon="33.4235632">
<ele>90.51</ele>
<time>2015-05-01T10:32:23Z</time>
</trkpt>
<trkpt lat="34.8144554" lon="33.4235097">
<ele>91.64</ele>
<time>2015-05-01T10:32:25Z</time>
</trkpt>
<trkpt lat="34.8144765" lon="33.4234606">
<ele>91.90</ele>
<time>2015-05-01T10:33:19Z</time>
</trkpt>
<trkpt lat="34.8144980" lon="33.4234112">
<ele>92.75</ele>
<time>2015-05-01T10:33:22Z</time>
</trkpt>
<trkpt lat="34.8145252" lon="33.4233339">
<ele>92.73</ele>
<time>2015-05-01T10:33:25Z</time>
</trkpt>
<trkpt lat="34.8145476" lon="33.4232768">
<ele>92.95</ele>
<time>2015-05-01T10:33:27Z</time>
</trkpt>
<trkpt lat="34.8145733" lon="33.4232163">
<ele>93.25</ele>
<time>2015-05-01T10:33:29Z</time>
</trkpt>
<trkpt lat="34.8145965" lon="33.4231558">
<ele>93.57</ele>
<time>2015-05-01T10:33:31Z</time>
</trkpt>
<trkpt lat="34.8146227" lon="33.4230941">
<ele>94.66</ele>
<time>2015-05-01T10:33:33Z</time>
</trkpt>
<trkpt lat="34.8146480" lon="33.4230300">
<ele>94.18</ele>
<time>2015-05-01T10:33:35Z</time>
</trkpt>
<trkpt lat="34.8146737" lon="33.4229608">
<ele>94.56</ele>
<time>2015-05-01T10:33:37Z</time>
</trkpt>
<trkpt lat="34.8147020" lon="33.4228905">
<ele>94.15</ele>
<time>2015-05-01T10:33:39Z</time>
</trkpt>
<trkpt lat="34.8147305" lon="33.4228177">
<ele>94.05</ele>
<time>2015-05-01T10:33:41Z</time>
</trkpt>
<trkpt lat="34.8147577" lon="33.4227534">
<ele>94.02</ele>
<time>2015-05-01T10:33:43Z</time>
</trkpt>
<trkpt lat="34.8147844" lon="33.4226992">
<ele>93.52</ele>
<time>2015-05-01T10:33:45Z</time>
</trkpt>
<trkpt lat="34.8148087" lon="33.4226506">
<ele>93.14</ele>
<time>2015-05-01T10:33:47Z</time>
</trkpt>
<trkpt lat="34.8148328" lon="33.4226001">
<ele>93.05</ele>
<time>2015-05-01T10:33:49Z</time>
</trkpt>
<trkpt lat="34.8148579" lon="33.4225480">
<ele>93.02</ele>
<time>2015-05-01T10:33:51Z</time>
</trkpt>
<trkpt lat="34.8148817" lon="33.4224896">
<ele>93.02</ele>
<time>2015-05-01T10:33:53Z</time>
</trkpt>
<trkpt lat="34.8149034" lon="33.4224342">
<ele>94.27</ele>
<time>2015-05-01T10:33:55Z</time>
</trkpt>
<trkpt lat="34.8149278" lon="33.4223764">
<ele>94.33</ele>
<time>2015-05-01T10:33:57Z</time>
</trkpt>
<trkpt lat="34.8149555" lon="33.4223218">
<ele>94.09</ele>
<time>2015-05-01T10:33:59Z</time>
</trkpt>
<trkpt lat="34.8149824" lon="33.4222621">
<ele>94.54</ele>
<time>2015-05-01T10:34:01Z</time>
</trkpt>
<trkpt lat="34.8150103" lon="33.4222058">
<ele>94.90</ele>
<time>2015-05-01T10:34:03Z</time>
</trkpt>
<trkpt lat="34.8150361" lon="33.4221422">
<ele>94.99</ele>
<time>2015-05-01T10:34:05Z</time>
</trkpt>
<trkpt lat="34.8150550" lon="33.4220764">
<ele>95.01</ele>
<time>2015-05-01T10:34:07Z</time>
</trkpt>
<trkpt lat="34.8150779" lon="33.4220142">
<ele>95.01</ele>
<time>2015-05-01T10:34:09Z</time>
</trkpt>
<trkpt lat="34.8150963" lon="33.4219527">
<ele>95.27</ele>
<time>2015-05-01T10:34:11Z</time>
</trkpt>
<trkpt lat="34.8151191" lon="33.4218890">
<ele>95.83</ele>
<time>2015-05-01T10:34:13Z</time>
</trkpt>
<trkpt lat="34.8151428" lon="33.4218313">
<ele>95.97</ele>
<time>2015-05-01T10:34:15Z</time>
</trkpt>
<trkpt lat="34.8151664" lon="33.4217702">
<ele>96.00</ele>
<time>2015-05-01T10:34:17Z</time>
</trkpt>
<trkpt lat="34.8151878" lon="33.4217126">
<ele>96.51</ele>
<time>2015-05-01T10:34:19Z</time>
</trkpt>
<trkpt lat="34.8152088" lon="33.4216532">
<ele>96.89</ele>
<time>2015-05-01T10:34:21Z</time>
</trkpt>
<trkpt lat="34.8152271" lon="33.4215911">
<ele>96.98</ele>
<time>2015-05-01T10:34:23Z</time>
</trkpt>
<trkpt lat="34.8152456" lon="33.4215254">
<ele>97.26</ele>
<time>2015-05-01T10:34:25Z</time>
</trkpt>
<trkpt lat="34.8152687" lon="33.4214593">
<ele>97.58</ele>
<time>2015-05-01T10:34:27Z</time>
</trkpt>
<trkpt lat="34.8152939" lon="33.4213949">
<ele>97.91</ele>
<time>2015-05-01T10:34:29Z</time>
</trkpt>
<trkpt lat="34.8153156" lon="33.4213364">
<ele>97.99</ele>
<time>2015-05-01T10:34:31Z</time>
</trkpt>
<trkpt lat="34.8153244" lon="33.4212800">
<ele>98.26</ele>
<time>2015-05-01T10:34:33Z</time>
</trkpt>
<trkpt lat="34.8153460" lon="33.4212009">
<ele>98.05</ele>
<time>2015-05-01T10:34:36Z</time>
</trkpt>
<trkpt lat="34.8153626" lon="33.4211440">
<ele>98.27</ele>
<time>2015-05-01T10:34:38Z</time>
</trkpt>
<trkpt lat="34.8153798" lon="33.4210818">
<ele>97.83</ele>
<time>2015-05-01T10:34:40Z</time>
</trkpt>
<trkpt lat="34.8153949" lon="33.4210173">
<ele>97.97</ele>
<time>2015-05-01T10:34:42Z</time>
</trkpt>
<trkpt lat="34.8154110" lon="33.4209529">
<ele>99.25</ele>
<time>2015-05-01T10:34:44Z</time>
</trkpt>
<trkpt lat="34.8154218" lon="33.4208869">
<ele>100.08</ele>
<time>2015-05-01T10:34:46Z</time>
</trkpt>
<trkpt lat="34.8154344" lon="33.4208186">
<ele>100.78</ele>
<time>2015-05-01T10:34:48Z</time>
</trkpt>
<trkpt lat="34.8154512" lon="33.4207495">
<ele>100.96</ele>
<time>2015-05-01T10:34:50Z</time>
</trkpt>
<trkpt lat="34.8154664" lon="33.4206763">
<ele>101.50</ele>
<time>2015-05-01T10:34:52Z</time>
</trkpt>
<trkpt lat="34.8154785" lon="33.4206043">
<ele>102.64</ele>
<time>2015-05-01T10:34:54Z</time>
</trkpt>
<trkpt lat="34.8154930" lon="33.4205316">
<ele>102.92</ele>
<time>2015-05-01T10:34:56Z</time>
</trkpt>
<trkpt lat="34.8155135" lon="33.4204576">
<ele>102.74</ele>
<time>2015-05-01T10:34:58Z</time>
</trkpt>
<trkpt lat="34.8155330" lon="33.4203832">
<ele>102.70</ele>
<time>2015-05-01T10:35:00Z</time>
</trkpt>
<trkpt lat="34.8155474" lon="33.4203051">
<ele>103.19</ele>
<time>2015-05-01T10:35:02Z</time>
</trkpt>
<trkpt lat="34.8155611" lon="33.4202242">
<ele>104.06</ele>
<time>2015-05-01T10:35:04Z</time>
</trkpt>
<trkpt lat="34.8155794" lon="33.4201441">
<ele>104.78</ele>
<time>2015-05-01T10:35:06Z</time>
</trkpt>
<trkpt lat="34.8155988" lon="33.4200573">
<ele>104.96</ele>
<time>2015-05-01T10:35:08Z</time>
</trkpt>
<trkpt lat="34.8156207" lon="33.4199635">
<ele>104.50</ele>
<time>2015-05-01T10:35:10Z</time>
</trkpt>
<trkpt lat="34.8156425" lon="33.4198754">
<ele>105.39</ele>
<time>2015-05-01T10:35:12Z</time>
</trkpt>
<trkpt lat="34.8156643" lon="33.4197958">
<ele>104.61</ele>
<time>2015-05-01T10:35:14Z</time>
</trkpt>
<trkpt lat="34.8156803" lon="33.4197202">
<ele>104.91</ele>
<time>2015-05-01T10:35:16Z</time>
</trkpt>
<trkpt lat="34.8156941" lon="33.4196503">
<ele>104.99</ele>
<time>2015-05-01T10:35:18Z</time>
</trkpt>
<trkpt lat="34.8157110" lon="33.4195790">
<ele>105.51</ele>
<time>2015-05-01T10:35:20Z</time>
</trkpt>
<trkpt lat="34.8157297" lon="33.4195028">
<ele>105.64</ele>
<time>2015-05-01T10:35:22Z</time>
</trkpt>
<trkpt lat="34.8157494" lon="33.4194307">
<ele>105.92</ele>
<time>2015-05-01T10:35:24Z</time>
</trkpt>
<trkpt lat="34.8157618" lon="33.4193584">
<ele>106.74</ele>
<time>2015-05-01T10:35:26Z</time>
</trkpt>
<trkpt lat="34.8157760" lon="33.4192821">
<ele>106.95</ele>
<time>2015-05-01T10:35:28Z</time>
</trkpt>
<trkpt lat="34.8157960" lon="33.4192026">
<ele>107.00</ele>
<time>2015-05-01T10:35:30Z</time>
</trkpt>
<trkpt lat="34.8158167" lon="33.4191127">
<ele>107.01</ele>
<time>2015-05-01T10:35:32Z</time>
</trkpt>
<trkpt lat="34.8158371" lon="33.4190103">
<ele>106.51</ele>
<time>2015-05-01T10:35:34Z</time>
</trkpt>
<trkpt lat="34.8158594" lon="33.4189043">
<ele>106.14</ele>
<time>2015-05-01T10:35:36Z</time>
</trkpt>
<trkpt lat="34.8158772" lon="33.4188329">
<ele>105.58</ele>
<time>2015-05-01T10:35:37Z</time>
</trkpt>
<trkpt lat="34.8158901" lon="33.4187301">
<ele>105.16</ele>
<time>2015-05-01T10:35:39Z</time>
</trkpt>
<trkpt lat="34.8159140" lon="33.4186304">
<ele>106.30</ele>
<time>2015-05-01T10:35:41Z</time>
</trkpt>
<trkpt lat="34.8159336" lon="33.4185657">
<ele>106.66</ele>
<time>2015-05-01T10:35:42Z</time>
</trkpt>
<trkpt lat="34.8159414" lon="33.4185114">
<ele>106.84</ele>
<time>2015-05-01T10:35:43Z</time>
</trkpt>
<trkpt lat="34.8159516" lon="33.4184453">
<ele>106.43</ele>
<time>2015-05-01T10:35:44Z</time>
</trkpt>
<trkpt lat="34.8159628" lon="33.4183899">
<ele>106.72</ele>
<time>2015-05-01T10:35:45Z</time>
</trkpt>
<trkpt lat="34.8159734" lon="33.4183287">
<ele>106.87</ele>
<time>2015-05-01T10:35:46Z</time>
</trkpt>
<trkpt lat="34.8159735" lon="33.4182729">
<ele>106.94</ele>
<time>2015-05-01T10:35:47Z</time>
</trkpt>
<trkpt lat="34.8159919" lon="33.4181668">
<ele>106.25</ele>
<time>2015-05-01T10:35:49Z</time>
</trkpt>
<trkpt lat="34.8160200" lon="33.4180757">
<ele>105.57</ele>
<time>2015-05-01T10:35:51Z</time>
</trkpt>
<trkpt lat="34.8160435" lon="33.4179662">
<ele>104.66</ele>
<time>2015-05-01T10:35:53Z</time>
</trkpt>
<trkpt lat="34.8160596" lon="33.4178648">
<ele>104.18</ele>
<time>2015-05-01T10:35:55Z</time>
</trkpt>
<trkpt lat="34.8160747" lon="33.4178061">
<ele>104.10</ele>
<time>2015-05-01T10:35:56Z</time>
</trkpt>
<trkpt lat="34.8160964" lon="33.4177071">
<ele>104.04</ele>
<time>2015-05-01T10:35:58Z</time>
</trkpt>
<trkpt lat="34.8161023" lon="33.4176523">
<ele>104.53</ele>
<time>2015-05-01T10:35:59Z</time>
</trkpt>
<trkpt lat="34.8161331" lon="33.4175621">
<ele>105.39</ele>
<time>2015-05-01T10:36:01Z</time>
</trkpt>
<trkpt lat="34.8161488" lon="33.4174881">
<ele>107.11</ele>
<time>2015-05-01T10:36:03Z</time>
</trkpt>
<trkpt lat="34.8161705" lon="33.4174234">
<ele>107.79</ele>
<time>2015-05-01T10:36:05Z</time>
</trkpt>
<trkpt lat="34.8161878" lon="33.4173682">
<ele>107.96</ele>
<time>2015-05-01T10:36:07Z</time>
</trkpt>
<trkpt lat="34.8161993" lon="33.4173108">
<ele>107.25</ele>
<time>2015-05-01T10:36:09Z</time>
</trkpt>
<trkpt lat="34.8162140" lon="33.4172519">
<ele>106.32</ele>
<time>2015-05-01T10:36:11Z</time>
</trkpt>
<trkpt lat="34.8162288" lon="33.4171810">
<ele>106.09</ele>
<time>2015-05-01T10:36:13Z</time>
</trkpt>
<trkpt lat="34.8162408" lon="33.4171069">
<ele>106.29</ele>
<time>2015-05-01T10:36:15Z</time>
</trkpt>
<trkpt lat="34.8162573" lon="33.4170242">
<ele>107.58</ele>
<time>2015-05-01T10:36:17Z</time>
</trkpt>
<trkpt lat="34.8162741" lon="33.4169385">
<ele>107.91</ele>
<time>2015-05-01T10:36:19Z</time>
</trkpt>
<trkpt lat="34.8162930" lon="33.4168469">
<ele>107.99</ele>
<time>2015-05-01T10:36:21Z</time>
</trkpt>
<trkpt lat="34.8163058" lon="33.4167524">
<ele>108.01</ele>
<time>2015-05-01T10:36:23Z</time>
</trkpt>
<trkpt lat="34.8163204" lon="33.4166602">
<ele>108.76</ele>
<time>2015-05-01T10:36:25Z</time>
</trkpt>
<trkpt lat="34.8163346" lon="33.4165749">
<ele>108.95</ele>
<time>2015-05-01T10:36:27Z</time>
</trkpt>
<trkpt lat="34.8163428" lon="33.4164950">
<ele>109.75</ele>
<time>2015-05-01T10:36:29Z</time>
</trkpt>
<trkpt lat="34.8163537" lon="33.4164212">
<ele>110.70</ele>
<time>2015-05-01T10:36:31Z</time>
</trkpt>
<trkpt lat="34.8163642" lon="33.4163466">
<ele>110.94</ele>
<time>2015-05-01T10:36:33Z</time>
</trkpt>
<trkpt lat="34.8163798" lon="33.4162745">
<ele>111.25</ele>
<time>2015-05-01T10:36:35Z</time>
</trkpt>
<trkpt lat="34.8163980" lon="33.4161980">
<ele>111.07</ele>
<time>2015-05-01T10:36:37Z</time>
</trkpt>
<trkpt lat="34.8164112" lon="33.4161189">
<ele>111.03</ele>
<time>2015-05-01T10:36:39Z</time>
</trkpt>
<trkpt lat="34.8164225" lon="33.4160348">
<ele>110.52</ele>
<time>2015-05-01T10:36:41Z</time>
</trkpt>
<trkpt lat="34.8164335" lon="33.4159550">
<ele>110.14</ele>
<time>2015-05-01T10:36:43Z</time>
</trkpt>
<trkpt lat="34.8164460" lon="33.4158712">
<ele>110.05</ele>
<time>2015-05-01T10:36:45Z</time>
</trkpt>
<trkpt lat="34.8164578" lon="33.4157871">
<ele>110.52</ele>
<time>2015-05-01T10:36:47Z</time>
</trkpt>
<trkpt lat="34.8164685" lon="33.4156971">
<ele>110.14</ele>
<time>2015-05-01T10:36:49Z</time>
</trkpt>
<trkpt lat="34.8164807" lon="33.4156072">
<ele>109.30</ele>
<time>2015-05-01T10:36:51Z</time>
</trkpt>
<trkpt lat="34.8164957" lon="33.4155148">
<ele>108.84</ele>
<time>2015-05-01T10:36:53Z</time>
</trkpt>
<trkpt lat="34.8165100" lon="33.4154254">
<ele>107.72</ele>
<time>2015-05-01T10:36:55Z</time>
</trkpt>
<trkpt lat="34.8165217" lon="33.4153316">
<ele>107.94</ele>
<time>2015-05-01T10:36:57Z</time>
</trkpt>
<trkpt lat="34.8165337" lon="33.4152412">
<ele>108.00</ele>
<time>2015-05-01T10:36:59Z</time>
</trkpt>
<trkpt lat="34.8165428" lon="33.4151477">
<ele>108.76</ele>
<time>2015-05-01T10:37:01Z</time>
</trkpt>
<trkpt lat="34.8165531" lon="33.4150557">
<ele>108.95</ele>
<time>2015-05-01T10:37:03Z</time>
</trkpt>
<trkpt lat="34.8165664" lon="33.4149614">
<ele>109.00</ele>
<time>2015-05-01T10:37:05Z</time>
</trkpt>
<trkpt lat="34.8165806" lon="33.4148716">
<ele>109.26</ele>
<time>2015-05-01T10:37:07Z</time>
</trkpt>
<trkpt lat="34.8165954" lon="33.4147826">
<ele>109.83</ele>
<time>2015-05-01T10:37:09Z</time>
</trkpt>
<trkpt lat="34.8166078" lon="33.4146918">
<ele>108.72</ele>
<time>2015-05-01T10:37:11Z</time>
</trkpt>
<trkpt lat="34.8166201" lon="33.4145983">
<ele>107.94</ele>
<time>2015-05-01T10:37:13Z</time>
</trkpt>
<trkpt lat="34.8166336" lon="33.4145083">
<ele>107.50</ele>
<time>2015-05-01T10:37:15Z</time>
</trkpt>
<trkpt lat="34.8166461" lon="33.4144151">
<ele>107.64</ele>
<time>2015-05-01T10:37:17Z</time>
</trkpt>
<trkpt lat="34.8166572" lon="33.4143273">
<ele>107.17</ele>
<time>2015-05-01T10:37:19Z</time>
</trkpt>
<trkpt lat="34.8166721" lon="33.4142338">
<ele>107.80</ele>
<time>2015-05-01T10:37:21Z</time>
</trkpt>
<trkpt lat="34.8166864" lon="33.4141432">
<ele>108.71</ele>
<time>2015-05-01T10:37:23Z</time>
</trkpt>
<trkpt lat="34.8166944" lon="33.4140503">
<ele>108.94</ele>
<time>2015-05-01T10:37:25Z</time>
</trkpt>
<trkpt lat="34.8167024" lon="33.4139569">
<ele>108.75</ele>
<time>2015-05-01T10:37:27Z</time>
</trkpt>
<trkpt lat="34.8167154" lon="33.4138593">
<ele>109.45</ele>
<time>2015-05-01T10:37:29Z</time>
</trkpt>
<trkpt lat="34.8167248" lon="33.4137624">
<ele>110.62</ele>
<time>2015-05-01T10:37:31Z</time>
</trkpt>
<trkpt lat="34.8167401" lon="33.4136617">
<ele>110.92</ele>
<time>2015-05-01T10:37:33Z</time>
</trkpt>
<trkpt lat="34.8167548" lon="33.4135630">
<ele>111.49</ele>
<time>2015-05-01T10:37:35Z</time>
</trkpt>
<trkpt lat="34.8167779" lon="33.4134751">
<ele>111.25</ele>
<time>2015-05-01T10:37:36Z</time>
</trkpt>
<trkpt lat="34.8167900" lon="33.4133831">
<ele>111.33</ele>
<time>2015-05-01T10:37:38Z</time>
</trkpt>
<trkpt lat="34.8167979" lon="33.4132901">
<ele>111.09</ele>
<time>2015-05-01T10:37:40Z</time>
</trkpt>
<trkpt lat="34.8168042" lon="33.4132144">
<ele>111.79</ele>
<time>2015-05-01T10:37:42Z</time>
</trkpt>
<trkpt lat="34.8168029" lon="33.4131383">
<ele>112.46</ele>
<time>2015-05-01T10:37:44Z</time>
</trkpt>
<trkpt lat="34.8168228" lon="33.4130649">
<ele>112.88</ele>
<time>2015-05-01T10:37:46Z</time>
</trkpt>
<trkpt lat="34.8168348" lon="33.4129810">
<ele>113.73</ele>
<time>2015-05-01T10:37:48Z</time>
</trkpt>
<trkpt lat="34.8168456" lon="33.4128928">
<ele>114.69</ele>
<time>2015-05-01T10:37:50Z</time>
</trkpt>
<trkpt lat="34.8168515" lon="33.4128032">
<ele>115.69</ele>
<time>2015-05-01T10:37:52Z</time>
</trkpt>
<trkpt lat="34.8168624" lon="33.4127190">
<ele>115.93</ele>
<time>2015-05-01T10:37:54Z</time>
</trkpt>
<trkpt lat="34.8168699" lon="33.4126430">
<ele>116.00</ele>
<time>2015-05-01T10:37:56Z</time>
</trkpt>
<trkpt lat="34.8168753" lon="33.4125662">
<ele>115.76</ele>
<time>2015-05-01T10:37:58Z</time>
</trkpt>
<trkpt lat="34.8168818" lon="33.4124902">
<ele>116.95</ele>
<time>2015-05-01T10:38:00Z</time>
</trkpt>
<trkpt lat="34.8168902" lon="33.4124119">
<ele>117.25</ele>
<time>2015-05-01T10:38:02Z</time>
</trkpt>
<trkpt lat="34.8169040" lon="33.4123238">
<ele>117.07</ele>
<time>2015-05-01T10:38:04Z</time>
</trkpt>
<trkpt lat="34.8169164" lon="33.4122318">
<ele>118.28</ele>
<time>2015-05-01T10:38:06Z</time>
</trkpt>
<trkpt lat="34.8169281" lon="33.4121373">
<ele>118.33</ele>
<time>2015-05-01T10:38:08Z</time>
</trkpt>
<trkpt lat="34.8169405" lon="33.4120422">
<ele>118.85</ele>
<time>2015-05-01T10:38:10Z</time>
</trkpt>
<trkpt lat="34.8169554" lon="33.4119512">
<ele>118.97</ele>
<time>2015-05-01T10:38:12Z</time>
</trkpt>
<trkpt lat="34.8169720" lon="33.4118658">
<ele>119.76</ele>
<time>2015-05-01T10:38:14Z</time>
</trkpt>
<trkpt lat="34.8169948" lon="33.4117777">
<ele>119.20</ele>
<time>2015-05-01T10:38:16Z</time>
</trkpt>
<trkpt lat="34.8170186" lon="33.4116922">
<ele>119.06</ele>
<time>2015-05-01T10:38:18Z</time>
</trkpt>
<trkpt lat="34.8170478" lon="33.4116060">
<ele>119.28</ele>
<time>2015-05-01T10:38:20Z</time>
</trkpt>
<trkpt lat="34.8170825" lon="33.4115203">
<ele>120.58</ele>
<time>2015-05-01T10:38:22Z</time>
</trkpt>
<trkpt lat="34.8171171" lon="33.4114322">
<ele>121.41</ele>
<time>2015-05-01T10:38:24Z</time>
</trkpt>
<trkpt lat="34.8171540" lon="33.4113503">
<ele>122.36</ele>
<time>2015-05-01T10:38:26Z</time>
</trkpt>
<trkpt lat="34.8171948" lon="33.4112818">
<ele>123.10</ele>
<time>2015-05-01T10:38:28Z</time>
</trkpt>
<trkpt lat="34.8172288" lon="33.4112252">
<ele>123.04</ele>
<time>2015-05-01T10:38:30Z</time>
</trkpt>
<trkpt lat="34.8172635" lon="33.4111645">
<ele>123.77</ele>
<time>2015-05-01T10:38:33Z</time>
</trkpt>
<trkpt lat="34.8172858" lon="33.4110923">
<ele>123.61</ele>
<time>2015-05-01T10:38:36Z</time>
</trkpt>
<trkpt lat="34.8173106" lon="33.4110393">
<ele>123.66</ele>
<time>2015-05-01T10:38:38Z</time>
</trkpt>
<trkpt lat="34.8173442" lon="33.4109816">
<ele>123.18</ele>
<time>2015-05-01T10:38:40Z</time>
</trkpt>
<trkpt lat="34.8173810" lon="33.4109192">
<ele>122.31</ele>
<time>2015-05-01T10:38:42Z</time>
</trkpt>
<trkpt lat="34.8174148" lon="33.4108486">
<ele>121.59</ele>
<time>2015-05-01T10:38:44Z</time>
</trkpt>
<trkpt lat="34.8174491" lon="33.4107746">
<ele>120.66</ele>
<time>2015-05-01T10:38:46Z</time>
</trkpt>
<trkpt lat="34.8174886" lon="33.4107054">
<ele>120.93</ele>
<time>2015-05-01T10:38:48Z</time>
</trkpt>
<trkpt lat="34.8175306" lon="33.4106404">
<ele>120.24</ele>
<time>2015-05-01T10:38:50Z</time>
</trkpt>
<trkpt lat="34.8175719" lon="33.4105691">
<ele>120.82</ele>
<time>2015-05-01T10:38:52Z</time>
</trkpt>
<trkpt lat="34.8176147" lon="33.4104949">
<ele>120.47</ele>
<time>2015-05-01T10:38:54Z</time>
</trkpt>
<trkpt lat="34.8176532" lon="33.4104167">
<ele>120.63</ele>
<time>2015-05-01T10:38:56Z</time>
</trkpt>
<trkpt lat="34.8176929" lon="33.4103356">
<ele>120.92</ele>
<time>2015-05-01T10:38:58Z</time>
</trkpt>
<trkpt lat="34.8177357" lon="33.4102566">
<ele>120.99</ele>
<time>2015-05-01T10:39:00Z</time>
</trkpt>
<trkpt lat="34.8177798" lon="33.4101785">
<ele>121.76</ele>
<time>2015-05-01T10:39:02Z</time>
</trkpt>
<trkpt lat="34.8178252" lon="33.4100970">
<ele>121.95</ele>
<time>2015-05-01T10:39:04Z</time>
</trkpt>
<trkpt lat="34.8178692" lon="33.4100125">
<ele>122.00</ele>
<time>2015-05-01T10:39:06Z</time>
</trkpt>
<trkpt lat="34.8179164" lon="33.4099277">
<ele>122.01</ele>
<time>2015-05-01T10:39:08Z</time>
</trkpt>
<trkpt lat="34.8179674" lon="33.4098423">
<ele>122.01</ele>
<time>2015-05-01T10:39:10Z</time>
</trkpt>
<trkpt lat="34.8180191" lon="33.4097556">
<ele>122.52</ele>
<time>2015-05-01T10:39:12Z</time>
</trkpt>
<trkpt lat="34.8180666" lon="33.4096704">
<ele>122.64</ele>
<time>2015-05-01T10:39:14Z</time>
</trkpt>
<trkpt lat="34.8181100" lon="33.4095835">
<ele>123.67</ele>
<time>2015-05-01T10:39:16Z</time>
</trkpt>
<trkpt lat="34.8181518" lon="33.4095010">
<ele>124.43</ele>
<time>2015-05-01T10:39:18Z</time>
</trkpt>
<trkpt lat="34.8181962" lon="33.4094279">
<ele>124.87</ele>
<time>2015-05-01T10:39:20Z</time>
</trkpt>
<trkpt lat="34.8182358" lon="33.4093586">
<ele>124.98</ele>
<time>2015-05-01T10:39:22Z</time>
</trkpt>
<trkpt lat="34.8182698" lon="33.4092953">
<ele>124.51</ele>
<time>2015-05-01T10:39:24Z</time>
</trkpt>
<trkpt lat="34.8183061" lon="33.4092364">
<ele>124.14</ele>
<time>2015-05-01T10:39:26Z</time>
</trkpt>
<trkpt lat="34.8183366" lon="33.4091730">
<ele>124.05</ele>
<time>2015-05-01T10:39:28Z</time>
</trkpt>
<trkpt lat="34.8183683" lon="33.4091081">
<ele>124.02</ele>
<time>2015-05-01T10:39:30Z</time>
</trkpt>
<trkpt lat="34.8184035" lon="33.4090431">
<ele>123.52</ele>
<time>2015-05-01T10:39:32Z</time>
</trkpt>
<trkpt lat="34.8184334" lon="33.4089694">
<ele>123.14</ele>
<time>2015-05-01T10:39:34Z</time>
</trkpt>
<trkpt lat="34.8184669" lon="33.4088970">
<ele>123.05</ele>
<time>2015-05-01T10:39:36Z</time>
</trkpt>
<trkpt lat="34.8185031" lon="33.4088287">
<ele>123.02</ele>
<time>2015-05-01T10:39:38Z</time>
</trkpt>
<trkpt lat="34.8185349" lon="33.4087534">
<ele>122.52</ele>
<time>2015-05-01T10:39:40Z</time>
</trkpt>
<trkpt lat="34.8185597" lon="33.4086678">
<ele>122.89</ele>
<time>2015-05-01T10:39:42Z</time>
</trkpt>
<trkpt lat="34.8185808" lon="33.4085816">
<ele>123.48</ele>
<time>2015-05-01T10:39:44Z</time>
</trkpt>
<trkpt lat="34.8185988" lon="33.4084953">
<ele>123.88</ele>
<time>2015-05-01T10:39:46Z</time>
</trkpt>
<trkpt lat="34.8186118" lon="33.4084148">
<ele>124.73</ele>
<time>2015-05-01T10:39:48Z</time>
</trkpt>
<trkpt lat="34.8186203" lon="33.4083343">
<ele>124.45</ele>
<time>2015-05-01T10:39:50Z</time>
</trkpt>
<trkpt lat="34.8186313" lon="33.4082474">
<ele>124.12</ele>
<time>2015-05-01T10:39:52Z</time>
</trkpt>
<trkpt lat="34.8186420" lon="33.4081578">
<ele>124.04</ele>
<time>2015-05-01T10:39:54Z</time>
</trkpt>
<trkpt lat="34.8186524" lon="33.4080749">
<ele>124.02</ele>
<time>2015-05-01T10:39:56Z</time>
</trkpt>
<trkpt lat="34.8186593" lon="33.4080011">
<ele>123.27</ele>
<time>2015-05-01T10:39:58Z</time>
</trkpt>
<trkpt lat="34.8186616" lon="33.4079405">
<ele>123.83</ele>
<time>2015-05-01T10:40:00Z</time>
</trkpt>
<trkpt lat="34.8186692" lon="33.4078765">
<ele>123.47</ele>
<time>2015-05-01T10:40:02Z</time>
</trkpt>
<trkpt lat="34.8186819" lon="33.4078028">
<ele>123.13</ele>
<time>2015-05-01T10:40:04Z</time>
</trkpt>
<trkpt lat="34.8186952" lon="33.4077233">
<ele>123.04</ele>
<time>2015-05-01T10:40:06Z</time>
</trkpt>
<trkpt lat="34.8187044" lon="33.4076370">
<ele>123.77</ele>
<time>2015-05-01T10:40:08Z</time>
</trkpt>
<trkpt lat="34.8187131" lon="33.4075458">
<ele>124.46</ele>
<time>2015-05-01T10:40:10Z</time>
</trkpt>
<trkpt lat="34.8187237" lon="33.4074494">
<ele>124.88</ele>
<time>2015-05-01T10:40:12Z</time>
</trkpt>
<trkpt lat="34.8187365" lon="33.4073516">
<ele>124.48</ele>
<time>2015-05-01T10:40:14Z</time>
</trkpt>
<trkpt lat="34.8187524" lon="33.4072512">
<ele>123.38</ele>
<time>2015-05-01T10:40:16Z</time>
</trkpt>
<trkpt lat="34.8187666" lon="33.4071484">
<ele>123.61</ele>
<time>2015-05-01T10:40:18Z</time>
</trkpt>
<trkpt lat="34.8187768" lon="33.4070481">
<ele>123.91</ele>
<time>2015-05-01T10:40:20Z</time>
</trkpt>
<trkpt lat="34.8187898" lon="33.4069563">
<ele>123.24</ele>
<time>2015-05-01T10:40:22Z</time>
</trkpt>
<trkpt lat="34.8187982" lon="33.4068694">
<ele>123.07</ele>
<time>2015-05-01T10:40:24Z</time>
</trkpt>
<trkpt lat="34.8188095" lon="33.4067946">
<ele>123.03</ele>
<time>2015-05-01T10:40:26Z</time>
</trkpt>
<trkpt lat="34.8188338" lon="33.4067236">
<ele>123.89</ele>
<time>2015-05-01T10:40:29Z</time>
</trkpt>
<trkpt lat="34.8188506" lon="33.4066571">
<ele>124.95</ele>
<time>2015-05-01T10:40:33Z</time>
</trkpt>
<trkpt lat="34.8188614" lon="33.4065823">
<ele>125.01</ele>
<time>2015-05-01T10:40:36Z</time>
</trkpt>
<trkpt lat="34.8188701" lon="33.4065209">
<ele>125.51</ele>
<time>2015-05-01T10:40:38Z</time>
</trkpt>
<trkpt lat="34.8188865" lon="33.4064506">
<ele>125.14</ele>
<time>2015-05-01T10:40:40Z</time>
</trkpt>
<trkpt lat="34.8189054" lon="33.4063677">
<ele>126.30</ele>
<time>2015-05-01T10:40:42Z</time>
</trkpt>
<trkpt lat="34.8189181" lon="33.4062753">
<ele>125.84</ele>
<time>2015-05-01T10:40:44Z</time>
</trkpt>
<trkpt lat="34.8189338" lon="33.4061788">
<ele>125.22</ele>
<time>2015-05-01T10:40:46Z</time>
</trkpt>
<trkpt lat="34.8189520" lon="33.4060787">
<ele>125.57</ele>
<time>2015-05-01T10:40:48Z</time>
</trkpt>
<trkpt lat="34.8189799" lon="33.4059492">
<ele>126.40</ele>
<time>2015-05-01T10:40:50Z</time>
</trkpt>
<trkpt lat="34.8189876" lon="33.4058899">
<ele>127.21</ele>
<time>2015-05-01T10:40:51Z</time>
</trkpt>
<trkpt lat="34.8190117" lon="33.4058384">
<ele>128.11</ele>
<time>2015-05-01T10:40:52Z</time>
</trkpt>
<trkpt lat="34.8190293" lon="33.4057766">
<ele>128.56</ele>
<time>2015-05-01T10:40:53Z</time>
</trkpt>
<trkpt lat="34.8190548" lon="33.4057198">
<ele>128.79</ele>
<time>2015-05-01T10:40:54Z</time>
</trkpt>
<trkpt lat="34.8190782" lon="33.4056146">
<ele>128.96</ele>
<time>2015-05-01T10:40:56Z</time>
</trkpt>
<trkpt lat="34.8190976" lon="33.4055646">
<ele>128.99</ele>
<time>2015-05-01T10:40:57Z</time>
</trkpt>
<trkpt lat="34.8191186" lon="33.4055127">
<ele>128.50</ele>
<time>2015-05-01T10:40:58Z</time>
</trkpt>
<trkpt lat="34.8191318" lon="33.4054576">
<ele>128.26</ele>
<time>2015-05-01T10:40:59Z</time>
</trkpt>
<trkpt lat="34.8191523" lon="33.4053695">
<ele>128.33</ele>
<time>2015-05-01T10:41:01Z</time>
</trkpt>
<trkpt lat="34.8191744" lon="33.4052809">
<ele>128.09</ele>
<time>2015-05-01T10:41:03Z</time>
</trkpt>
<trkpt lat="34.8192037" lon="33.4051961">
<ele>128.04</ele>
<time>2015-05-01T10:41:05Z</time>
</trkpt>
<trkpt lat="34.8192339" lon="33.4051070">
<ele>128.02</ele>
<time>2015-05-01T10:41:07Z</time>
</trkpt>
<trkpt lat="34.8192687" lon="33.4050207">
<ele>127.52</ele>
<time>2015-05-01T10:41:09Z</time>
</trkpt>
<trkpt lat="34.8192991" lon="33.4049318">
<ele>127.14</ele>
<time>2015-05-01T10:41:11Z</time>
</trkpt>
<trkpt lat="34.8193309" lon="33.4048362">
<ele>127.55</ele>
<time>2015-05-01T10:41:13Z</time>
</trkpt>
<trkpt lat="34.8193578" lon="33.4047400">
<ele>127.90</ele>
<time>2015-05-01T10:41:15Z</time>
</trkpt>
<trkpt lat="34.8193807" lon="33.4046370">
<ele>128.49</ele>
<time>2015-05-01T10:41:17Z</time>
</trkpt>
<trkpt lat="34.8194084" lon="33.4045203">
<ele>129.63</ele>
<time>2015-05-01T10:41:19Z</time>
</trkpt>
<trkpt lat="34.8194264" lon="33.4044668">
<ele>129.82</ele>
<time>2015-05-01T10:41:20Z</time>
</trkpt>
<trkpt lat="34.8194635" lon="33.4043696">
<ele>129.97</ele>
<time>2015-05-01T10:41:22Z</time>
</trkpt>
<trkpt lat="34.8194920" lon="33.4042659">
<ele>130.50</ele>
<time>2015-05-01T10:41:24Z</time>
</trkpt>
<trkpt lat="34.8195233" lon="33.4041711">
<ele>130.39</ele>
<time>2015-05-01T10:41:26Z</time>
</trkpt>
<trkpt lat="34.8195470" lon="33.4040917">
<ele>130.11</ele>
<time>2015-05-01T10:41:28Z</time>
</trkpt>
<trkpt lat="34.8195661" lon="33.4040211">
<ele>130.54</ele>
<time>2015-05-01T10:41:30Z</time>
</trkpt>
<trkpt lat="34.8195824" lon="33.4039543">
<ele>130.90</ele>
<time>2015-05-01T10:41:32Z</time>
</trkpt>
<trkpt lat="34.8196025" lon="33.4038881">
<ele>130.99</ele>
<time>2015-05-01T10:41:34Z</time>
</trkpt>
<trkpt lat="34.8196254" lon="33.4038175">
<ele>130.76</ele>
<time>2015-05-01T10:41:36Z</time>
</trkpt>
<trkpt lat="34.8196470" lon="33.4037408">
<ele>131.95</ele>
<time>2015-05-01T10:41:38Z</time>
</trkpt>
<trkpt lat="34.8196697" lon="33.4036533">
<ele>132.00</ele>
<time>2015-05-01T10:41:40Z</time>
</trkpt>
<trkpt lat="34.8196976" lon="33.4035557">
<ele>132.01</ele>
<time>2015-05-01T10:41:42Z</time>
</trkpt>
<trkpt lat="34.8197288" lon="33.4034565">
<ele>132.01</ele>
<time>2015-05-01T10:41:44Z</time>
</trkpt>
<trkpt lat="34.8197610" lon="33.4033649">
<ele>132.52</ele>
<time>2015-05-01T10:41:46Z</time>
</trkpt>
<trkpt lat="34.8197912" lon="33.4032823">
<ele>131.64</ele>
<time>2015-05-01T10:41:48Z</time>
</trkpt>
<trkpt lat="34.8198130" lon="33.4032060">
<ele>131.42</ele>
<time>2015-05-01T10:41:50Z</time>
</trkpt>
<trkpt lat="34.8198326" lon="33.4031270">
<ele>131.12</ele>
<time>2015-05-01T10:41:52Z</time>
</trkpt>
<trkpt lat="34.8198587" lon="33.4030459">
<ele>131.04</ele>
<time>2015-05-01T10:41:54Z</time>
</trkpt>
<trkpt lat="34.8198878" lon="33.4029622">
<ele>131.02</ele>
<time>2015-05-01T10:41:56Z</time>
</trkpt>
<trkpt lat="34.8199162" lon="33.4028750">
<ele>131.02</ele>
<time>2015-05-01T10:41:58Z</time>
</trkpt>
<trkpt lat="34.8199420" lon="33.4027872">
<ele>130.52</ele>
<time>2015-05-01T10:42:00Z</time>
</trkpt>
<trkpt lat="34.8199667" lon="33.4027060">
<ele>130.39</ele>
<time>2015-05-01T10:42:02Z</time>
</trkpt>
<trkpt lat="34.8199876" lon="33.4026314">
<ele>130.11</ele>
<time>2015-05-01T10:42:04Z</time>
</trkpt>
<trkpt lat="34.8200049" lon="33.4025575">
<ele>130.04</ele>
<time>2015-05-01T10:42:06Z</time>
</trkpt>
<trkpt lat="34.8200348" lon="33.4024846">
<ele>129.77</ele>
<time>2015-05-01T10:42:08Z</time>
</trkpt>
<trkpt lat="34.8200663" lon="33.4024159">
<ele>130.45</ele>
<time>2015-05-01T10:42:10Z</time>
</trkpt>
<trkpt lat="34.8200971" lon="33.4023437">
<ele>130.88</ele>
<time>2015-05-01T10:42:12Z</time>
</trkpt>
<trkpt lat="34.8201238" lon="33.4022666">
<ele>132.23</ele>
<time>2015-05-01T10:42:14Z</time>
</trkpt>
<trkpt lat="34.8201495" lon="33.4021857">
<ele>131.57</ele>
<time>2015-05-01T10:42:16Z</time>
</trkpt>
<trkpt lat="34.8201721" lon="33.4021053">
<ele>132.65</ele>
<time>2015-05-01T10:42:18Z</time>
</trkpt>
<trkpt lat="34.8201886" lon="33.4020290">
<ele>133.68</ele>
<time>2015-05-01T10:42:20Z</time>
</trkpt>
<trkpt lat="34.8202130" lon="33.4019588">
<ele>133.93</ele>
<time>2015-05-01T10:42:22Z</time>
</trkpt>
<trkpt lat="34.8202387" lon="33.4018950">
<ele>133.99</ele>
<time>2015-05-01T10:42:24Z</time>
</trkpt>
<trkpt lat="34.8202644" lon="33.4018342">
<ele>133.26</ele>
<time>2015-05-01T10:42:26Z</time>
</trkpt>
<trkpt lat="34.8202871" lon="33.4017703">
<ele>133.58</ele>
<time>2015-05-01T10:42:28Z</time>
</trkpt>
<trkpt lat="34.8203102" lon="33.4017007">
<ele>133.41</ele>
<time>2015-05-01T10:42:30Z</time>
</trkpt>
<trkpt lat="34.8203356" lon="33.4016275">
<ele>133.11</ele>
<time>2015-05-01T10:42:32Z</time>
</trkpt>
<trkpt lat="34.8203609" lon="33.4015487">
<ele>134.29</ele>
<time>2015-05-01T10:42:34Z</time>
</trkpt>
<trkpt lat="34.8203921" lon="33.4014681">
<ele>134.83</ele>
<time>2015-05-01T10:42:36Z</time>
</trkpt>
<trkpt lat="34.8204279" lon="33.4013906">
<ele>134.97</ele>
<time>2015-05-01T10:42:38Z</time>
</trkpt>
<trkpt lat="34.8204680" lon="33.4013171">
<ele>135.75</ele>
<time>2015-05-01T10:42:40Z</time>
</trkpt>
<trkpt lat="34.8205096" lon="33.4012446">
<ele>135.20</ele>
<time>2015-05-01T10:42:42Z</time>
</trkpt>
<trkpt lat="34.8205496" lon="33.4011715">
<ele>135.56</ele>
<time>2015-05-01T10:42:44Z</time>
</trkpt>
<trkpt lat="34.8205949" lon="33.4011037">
<ele>135.40</ele>
<time>2015-05-01T10:42:46Z</time>
</trkpt>
<trkpt lat="34.8206392" lon="33.4010362">
<ele>134.61</ele>
<time>2015-05-01T10:42:48Z</time>
</trkpt>
<trkpt lat="34.8206792" lon="33.4009717">
<ele>134.92</ele>
<time>2015-05-01T10:42:50Z</time>
</trkpt>
<trkpt lat="34.8207237" lon="33.4009122">
<ele>134.99</ele>
<time>2015-05-01T10:42:52Z</time>
</trkpt>
<trkpt lat="34.8207703" lon="33.4008534">
<ele>135.51</ele>
<time>2015-05-01T10:42:54Z</time>
</trkpt>
<trkpt lat="34.8208132" lon="33.4007924">
<ele>135.89</ele>
<time>2015-05-01T10:42:56Z</time>
</trkpt>
<trkpt lat="34.8208586" lon="33.4007308">
<ele>135.98</ele>
<time>2015-05-01T10:42:58Z</time>
</trkpt>
<trkpt lat="34.8209037" lon="33.4006702">
<ele>135.26</ele>
<time>2015-05-01T10:43:00Z</time>
</trkpt>
<trkpt lat="34.8209501" lon="33.4006120">
<ele>135.58</ele>
<time>2015-05-01T10:43:02Z</time>
</trkpt>
<trkpt lat="34.8209953" lon="33.4005494">
<ele>135.91</ele>
<time>2015-05-01T10:43:04Z</time>
</trkpt>
<trkpt lat="34.8210420" lon="33.4004891">
<ele>135.99</ele>
<time>2015-05-01T10:43:06Z</time>
</trkpt>
<trkpt lat="34.8210886" lon="33.4004307">
<ele>135.76</ele>
<time>2015-05-01T10:43:08Z</time>
</trkpt>
<trkpt lat="34.8211307" lon="33.4003703">
<ele>135.95</ele>
<time>2015-05-01T10:43:10Z</time>
</trkpt>
<trkpt lat="34.8211767" lon="33.4003073">
<ele>135.75</ele>
<time>2015-05-01T10:43:12Z</time>
</trkpt>
<trkpt lat="34.8212242" lon="33.4002449">
<ele>136.45</ele>
<time>2015-05-01T10:43:14Z</time>
</trkpt>
<trkpt lat="34.8212734" lon="33.4001816">
<ele>136.62</ele>
<time>2015-05-01T10:43:16Z</time>
</trkpt>
<trkpt lat="34.8213234" lon="33.4001149">
<ele>137.67</ele>
<time>2015-05-01T10:43:18Z</time>
</trkpt>
<trkpt lat="34.8213743" lon="33.4000414">
<ele>137.43</ele>
<time>2015-05-01T10:43:20Z</time>
</trkpt>
<trkpt lat="34.8214220" lon="33.3999657">
<ele>137.12</ele>
<time>2015-05-01T10:43:22Z</time>
</trkpt>
<trkpt lat="34.8214723" lon="33.3998891">
<ele>137.04</ele>
<time>2015-05-01T10:43:24Z</time>
</trkpt>
<trkpt lat="34.8215272" lon="33.3998113">
<ele>137.77</ele>
<time>2015-05-01T10:43:26Z</time>
</trkpt>
<trkpt lat="34.8215833" lon="33.3997324">
<ele>138.21</ele>
<time>2015-05-01T10:43:28Z</time>
</trkpt>
<trkpt lat="34.8216398" lon="33.3996632">
<ele>138.11</ele>
<time>2015-05-01T10:43:29Z</time>
</trkpt>
<trkpt lat="34.8216854" lon="33.3995969">
<ele>138.04</ele>
<time>2015-05-01T10:43:31Z</time>
</trkpt>
<trkpt lat="34.8217138" lon="33.3995491">
<ele>138.03</ele>
<time>2015-05-01T10:43:32Z</time>
</trkpt>
<trkpt lat="34.8217706" lon="33.3994714">
<ele>138.02</ele>
<time>2015-05-01T10:43:34Z</time>
</trkpt>
<trkpt lat="34.8218259" lon="33.3993919">
<ele>138.02</ele>
<time>2015-05-01T10:43:36Z</time>
</trkpt>
<trkpt lat="34.8218784" lon="33.3993076">
<ele>138.02</ele>
<time>2015-05-01T10:43:38Z</time>
</trkpt>
<trkpt lat="34.8219345" lon="33.3992334">
<ele>138.52</ele>
<time>2015-05-01T10:43:40Z</time>
</trkpt>
<trkpt lat="34.8219902" lon="33.3991617">
<ele>139.64</ele>
<time>2015-05-01T10:43:42Z</time>
</trkpt>
<trkpt lat="34.8220388" lon="33.3990963">
<ele>139.42</ele>
<time>2015-05-01T10:43:44Z</time>
</trkpt>
<trkpt lat="34.8220826" lon="33.3990484">
<ele>139.87</ele>
<time>2015-05-01T10:43:46Z</time>
</trkpt>
<trkpt lat="34.8221170" lon="33.3990111">
<ele>139.48</ele>
<time>2015-05-01T10:43:48Z</time>
</trkpt>
<trkpt lat="34.8221507" lon="33.3989688">
<ele>139.13</ele>
<time>2015-05-01T10:43:50Z</time>
</trkpt>
<trkpt lat="34.8221894" lon="33.3989232">
<ele>139.79</ele>
<time>2015-05-01T10:43:52Z</time>
</trkpt>
<trkpt lat="34.8222290" lon="33.3988710">
<ele>139.96</ele>
<time>2015-05-01T10:43:54Z</time>
</trkpt>
<trkpt lat="34.8222712" lon="33.3988164">
<ele>140.75</ele>
<time>2015-05-01T10:43:56Z</time>
</trkpt>
<trkpt lat="34.8223124" lon="33.3987567">
<ele>141.45</ele>
<time>2015-05-01T10:43:58Z</time>
</trkpt>
<trkpt lat="34.8223633" lon="33.3986980">
<ele>141.87</ele>
<time>2015-05-01T10:44:00Z</time>
</trkpt>
<trkpt lat="34.8224168" lon="33.3986395">
<ele>142.48</ele>
<time>2015-05-01T10:44:02Z</time>
</trkpt>
<trkpt lat="34.8224724" lon="33.3985802">
<ele>142.88</ele>
<time>2015-05-01T10:44:04Z</time>
</trkpt>
<trkpt lat="34.8225250" lon="33.3985199">
<ele>143.48</ele>
<time>2015-05-01T10:44:06Z</time>
</trkpt>
<trkpt lat="34.8225802" lon="33.3984578">
<ele>143.13</ele>
<time>2015-05-01T10:44:08Z</time>
</trkpt>
<trkpt lat="34.8226373" lon="33.3983954">
<ele>142.80</ele>
<time>2015-05-01T10:44:10Z</time>
</trkpt>
<trkpt lat="34.8226951" lon="33.3983296">
<ele>142.21</ele>
<time>2015-05-01T10:44:12Z</time>
</trkpt>
<trkpt lat="34.8227526" lon="33.3982620">
<ele>142.81</ele>
<time>2015-05-01T10:44:14Z</time>
</trkpt>
<trkpt lat="34.8228120" lon="33.3981978">
<ele>143.72</ele>
<time>2015-05-01T10:44:16Z</time>
</trkpt>
<trkpt lat="34.8228717" lon="33.3981330">
<ele>143.94</ele>
<time>2015-05-01T10:44:18Z</time>
</trkpt>
<trkpt lat="34.8229298" lon="33.3980675">
<ele>144.50</ele>
<time>2015-05-01T10:44:20Z</time>
</trkpt>
<trkpt lat="34.8229876" lon="33.3979986">
<ele>144.89</ele>
<time>2015-05-01T10:44:22Z</time>
</trkpt>
<trkpt lat="34.8230453" lon="33.3979282">
<ele>144.98</ele>
<time>2015-05-01T10:44:24Z</time>
</trkpt>
<trkpt lat="34.8231021" lon="33.3978648">
<ele>144.51</ele>
<time>2015-05-01T10:44:26Z</time>
</trkpt>
<trkpt lat="34.8231530" lon="33.3978083">
<ele>144.89</ele>
<time>2015-05-01T10:44:28Z</time>
</trkpt>
<trkpt lat="34.8232028" lon="33.3977488">
<ele>144.98</ele>
<time>2015-05-01T10:44:30Z</time>
</trkpt>
<trkpt lat="34.8232529" lon="33.3976895">
<ele>146.26</ele>
<time>2015-05-01T10:44:32Z</time>
</trkpt>
<trkpt lat="34.8233080" lon="33.3976276">
<ele>146.58</ele>
<time>2015-05-01T10:44:34Z</time>
</trkpt>
<trkpt lat="34.8233643" lon="33.3975612">
<ele>146.66</ele>
<time>2015-05-01T10:44:36Z</time>
</trkpt>
<trkpt lat="34.8234205" lon="33.3974957">
<ele>146.18</ele>
<time>2015-05-01T10:44:38Z</time>
</trkpt>
<trkpt lat="34.8234746" lon="33.3974328">
<ele>146.81</ele>
<time>2015-05-01T10:44:40Z</time>
</trkpt>
<trkpt lat="34.8235280" lon="33.3973722">
<ele>146.96</ele>
<time>2015-05-01T10:44:42Z</time>
</trkpt>
<trkpt lat="34.8235790" lon="33.3973142">
<ele>147.75</ele>
<time>2015-05-01T10:44:44Z</time>
</trkpt>
<trkpt lat="34.8236299" lon="33.3972527">
<ele>147.70</ele>
<time>2015-05-01T10:44:46Z</time>
</trkpt>
<trkpt lat="34.8236850" lon="33.3971906">
<ele>147.19</ele>
<time>2015-05-01T10:44:48Z</time>
</trkpt>
<trkpt lat="34.8237397" lon="33.3971270">
<ele>147.56</ele>
<time>2015-05-01T10:44:50Z</time>
</trkpt>
<trkpt lat="34.8237921" lon="33.3970626">
<ele>148.40</ele>
<time>2015-05-01T10:44:52Z</time>
</trkpt>
<trkpt lat="34.8238479" lon="33.3969952">
<ele>148.86</ele>
<time>2015-05-01T10:44:54Z</time>
</trkpt>
<trkpt lat="34.8238908" lon="33.3969456">
<ele>148.94</ele>
<time>2015-05-01T10:44:55Z</time>
</trkpt>
<trkpt lat="34.8239564" lon="33.3968743">
<ele>149.00</ele>
<time>2015-05-01T10:44:57Z</time>
</trkpt>
<trkpt lat="34.8240177" lon="33.3968089">
<ele>149.01</ele>
<time>2015-05-01T10:44:59Z</time>
</trkpt>
<trkpt lat="34.8240492" lon="33.3967658">
<ele>149.01</ele>
<time>2015-05-01T10:45:00Z</time>
</trkpt>
<trkpt lat="34.8240998" lon="33.3967042">
<ele>149.02</ele>
<time>2015-05-01T10:45:02Z</time>
</trkpt>
<trkpt lat="34.8241611" lon="33.3966297">
<ele>149.52</ele>
<time>2015-05-01T10:45:04Z</time>
</trkpt>
<trkpt lat="34.8241932" lon="33.3965899">
<ele>149.77</ele>
<time>2015-05-01T10:45:05Z</time>
</trkpt>
<trkpt lat="34.8242299" lon="33.3965530">
<ele>149.89</ele>
<time>2015-05-01T10:45:06Z</time>
</trkpt>
<trkpt lat="34.8242655" lon="33.3965099">
<ele>149.45</ele>
<time>2015-05-01T10:45:07Z</time>
</trkpt>
<trkpt lat="34.8242982" lon="33.3964638">
<ele>149.23</ele>
<time>2015-05-01T10:45:08Z</time>
</trkpt>
<trkpt lat="34.8243402" lon="33.3964332">
<ele>149.13</ele>
<time>2015-05-01T10:45:09Z</time>
</trkpt>
<trkpt lat="34.8243873" lon="33.3963642">
<ele>149.04</ele>
<time>2015-05-01T10:45:11Z</time>
</trkpt>
<trkpt lat="34.8244347" lon="33.3962911">
<ele>148.27</ele>
<time>2015-05-01T10:45:13Z</time>
</trkpt>
<trkpt lat="34.8244755" lon="33.3962324">
<ele>148.08</ele>
<time>2015-05-01T10:45:15Z</time>
</trkpt>
<trkpt lat="34.8245079" lon="33.3961817">
<ele>147.53</ele>
<time>2015-05-01T10:45:17Z</time>
</trkpt>
<trkpt lat="34.8245486" lon="33.3961276">
<ele>147.15</ele>
<time>2015-05-01T10:45:19Z</time>
</trkpt>
<trkpt lat="34.8245875" lon="33.3960626">
<ele>147.05</ele>
<time>2015-05-01T10:45:21Z</time>
</trkpt>
<trkpt lat="34.8246284" lon="33.3959975">
<ele>147.02</ele>
<time>2015-05-01T10:45:23Z</time>
</trkpt>
<trkpt lat="34.8246753" lon="33.3959254">
<ele>147.77</ele>
<time>2015-05-01T10:45:25Z</time>
</trkpt>
<trkpt lat="34.8247244" lon="33.3958525">
<ele>148.70</ele>
<time>2015-05-01T10:45:27Z</time>
</trkpt>
<trkpt lat="34.8247751" lon="33.3957771">
<ele>148.94</ele>
<time>2015-05-01T10:45:29Z</time>
</trkpt>
<trkpt lat="34.8248082" lon="33.3957040">
<ele>150.25</ele>
<time>2015-05-01T10:45:31Z</time>
</trkpt>
<trkpt lat="34.8248193" lon="33.3956400">
<ele>150.82</ele>
<time>2015-05-01T10:45:33Z</time>
</trkpt>
<trkpt lat="34.8247892" lon="33.3955767">
<ele>151.52</ele>
<time>2015-05-01T10:46:18Z</time>
</trkpt>
<trkpt lat="34.8256663" lon="33.3908565">
<ele>167.02</ele>
<time>2015-05-01T10:49:45Z</time>
</trkpt>
<trkpt lat="34.8256726" lon="33.3908307">
<ele>168.02</ele>
<time>2015-05-01T10:53:35Z</time>
</trkpt>
<trkpt lat="34.8256215" lon="33.3908338">
<ele>168.02</ele>
<time>2015-05-01T10:53:56Z</time>
</trkpt>
<trkpt lat="34.8255767" lon="33.3908481">
<ele>168.02</ele>
<time>2015-05-01T10:54:00Z</time>
</trkpt>
<trkpt lat="34.8255178" lon="33.3908294">
<ele>168.02</ele>
<time>2015-05-01T10:54:03Z</time>
</trkpt>
<trkpt lat="34.8255126" lon="33.3907705">
<ele>166.77</ele>
<time>2015-05-01T10:54:06Z</time>
</trkpt>
<trkpt lat="34.8255280" lon="33.3907155">
<ele>166.11</ele>
<time>2015-05-01T10:54:09Z</time>
</trkpt>
<trkpt lat="34.8254882" lon="33.3906631">
<ele>166.03</ele>
<time>2015-05-01T10:54:12Z</time>
</trkpt>
<trkpt lat="34.8254450" lon="33.3906220">
<ele>165.52</ele>
<time>2015-05-01T10:54:15Z</time>
</trkpt>
<trkpt lat="34.8254148" lon="33.3905751">
<ele>165.08</ele>
<time>2015-05-01T10:54:18Z</time>
</trkpt>
<trkpt lat="34.8254008" lon="33.3905220">
<ele>165.52</ele>
<time>2015-05-01T10:54:21Z</time>
</trkpt>
<trkpt lat="34.8254606" lon="33.3905295">
<ele>165.80</ele>
<time>2015-05-01T10:54:25Z</time>
</trkpt>
<trkpt lat="34.8255099" lon="33.3905647">
<ele>164.71</ele>
<time>2015-05-01T10:54:27Z</time>
</trkpt>
<trkpt lat="34.8255600" lon="33.3906200">
<ele>163.94</ele>
<time>2015-05-01T10:54:29Z</time>
</trkpt>
<trkpt lat="34.8256156" lon="33.3906804">
<ele>163.50</ele>
<time>2015-05-01T10:54:31Z</time>
</trkpt>
<trkpt lat="34.8256729" lon="33.3907376">
<ele>163.14</ele>
<time>2015-05-01T10:54:33Z</time>
</trkpt>
<trkpt lat="34.8257277" lon="33.3907957">
<ele>163.55</ele>
<time>2015-05-01T10:54:35Z</time>
</trkpt>
<trkpt lat="34.8257922" lon="33.3908474">
<ele>163.90</ele>
<time>2015-05-01T10:54:37Z</time>
</trkpt>
<trkpt lat="34.8258591" lon="33.3908918">
<ele>164.74</ele>
<time>2015-05-01T10:54:39Z</time>
</trkpt>
<trkpt lat="34.8259265" lon="33.3909517">
<ele>164.70</ele>
<time>2015-05-01T10:54:41Z</time>
</trkpt>
<trkpt lat="34.8259775" lon="33.3909938">
<ele>164.36</ele>
<time>2015-05-01T10:54:42Z</time>
</trkpt>
<trkpt lat="34.8260440" lon="33.3910571">
<ele>164.10</ele>
<time>2015-05-01T10:54:44Z</time>
</trkpt>
<trkpt lat="34.8261113" lon="33.3911261">
<ele>164.04</ele>
<time>2015-05-01T10:54:46Z</time>
</trkpt>
<trkpt lat="34.8261884" lon="33.3911951">
<ele>164.02</ele>
<time>2015-05-01T10:54:48Z</time>
</trkpt>
<trkpt lat="34.8262314" lon="33.3912373">
<ele>164.02</ele>
<time>2015-05-01T10:54:49Z</time>
</trkpt>
<trkpt lat="34.8262728" lon="33.3912780">
<ele>164.52</ele>
<time>2015-05-01T10:54:50Z</time>
</trkpt>
<trkpt lat="34.8263086" lon="33.3913184">
<ele>164.77</ele>
<time>2015-05-01T10:54:51Z</time>
</trkpt>
<trkpt lat="34.8263736" lon="33.3913810">
<ele>163.89</ele>
<time>2015-05-01T10:54:52Z</time>
</trkpt>
<trkpt lat="34.8264294" lon="33.3914329">
<ele>163.95</ele>
<time>2015-05-01T10:54:53Z</time>
</trkpt>
<trkpt lat="34.8264801" lon="33.3914700">
<ele>163.98</ele>
<time>2015-05-01T10:54:54Z</time>
</trkpt>
<trkpt lat="34.8265317" lon="33.3915048">
<ele>163.50</ele>
<time>2015-05-01T10:54:55Z</time>
</trkpt>
<trkpt lat="34.8265950" lon="33.3915424">
<ele>163.26</ele>
<time>2015-05-01T10:54:56Z</time>
</trkpt>
<trkpt lat="34.8266490" lon="33.3915824">
<ele>163.14</ele>
<time>2015-05-01T10:54:57Z</time>
</trkpt>
<trkpt lat="34.8266904" lon="33.3916049">
<ele>162.58</ele>
<time>2015-05-01T10:54:58Z</time>
</trkpt>
<trkpt lat="34.8267432" lon="33.3916429">
<ele>162.80</ele>
<time>2015-05-01T10:54:59Z</time>
</trkpt>
<trkpt lat="34.8268020" lon="33.3916869">
<ele>163.41</ele>
<time>2015-05-01T10:55:00Z</time>
</trkpt>
<trkpt lat="34.8268627" lon="33.3917111">
<ele>163.71</ele>
<time>2015-05-01T10:55:01Z</time>
</trkpt>
<trkpt lat="34.8269125" lon="33.3917433">
<ele>163.86</ele>
<time>2015-05-01T10:55:02Z</time>
</trkpt>
<trkpt lat="34.8269642" lon="33.3917672">
<ele>163.94</ele>
<time>2015-05-01T10:55:03Z</time>
</trkpt>
<trkpt lat="34.8270151" lon="33.3917930">
<ele>163.48</ele>
<time>2015-05-01T10:55:04Z</time>
</trkpt>
<trkpt lat="34.8270558" lon="33.3918187">
<ele>163.75</ele>
<time>2015-05-01T10:55:05Z</time>
</trkpt>
<trkpt lat="34.8271014" lon="33.3918344">
<ele>163.88</ele>
<time>2015-05-01T10:55:06Z</time>
</trkpt>
<trkpt lat="34.8271758" lon="33.3918714">
<ele>163.48</ele>
<time>2015-05-01T10:55:08Z</time>
</trkpt>
<trkpt lat="34.8272566" lon="33.3919008">
<ele>163.88</ele>
<time>2015-05-01T10:55:10Z</time>
</trkpt>
<trkpt lat="34.8273433" lon="33.3919301">
<ele>163.98</ele>
<time>2015-05-01T10:55:12Z</time>
</trkpt>
<trkpt lat="34.8274092" lon="33.3919616">
<ele>164.01</ele>
<time>2015-05-01T10:55:14Z</time>
</trkpt>
<trkpt lat="34.8274883" lon="33.3919808">
<ele>164.01</ele>
<time>2015-05-01T10:55:16Z</time>
</trkpt>
<trkpt lat="34.8275339" lon="33.3919893">
<ele>164.01</ele>
<time>2015-05-01T10:55:17Z</time>
</trkpt>
<trkpt lat="34.8276246" lon="33.3920088">
<ele>163.02</ele>
<time>2015-05-01T10:55:19Z</time>
</trkpt>
<trkpt lat="34.8276741" lon="33.3920123">
<ele>162.02</ele>
<time>2015-05-01T10:55:20Z</time>
</trkpt>
<trkpt lat="34.8277595" lon="33.3920144">
<ele>161.27</ele>
<time>2015-05-01T10:55:22Z</time>
</trkpt>
<trkpt lat="34.8278400" lon="33.3920110">
<ele>160.83</ele>
<time>2015-05-01T10:55:24Z</time>
</trkpt>
<trkpt lat="34.8279168" lon="33.3920069">
<ele>160.97</ele>
<time>2015-05-01T10:55:26Z</time>
</trkpt>
<trkpt lat="34.8279996" lon="33.3919903">
<ele>161.25</ele>
<time>2015-05-01T10:55:28Z</time>
</trkpt>
<trkpt lat="34.8280475" lon="33.3919838">
<ele>160.64</ele>
<time>2015-05-01T10:55:29Z</time>
</trkpt>
<trkpt lat="34.8281224" lon="33.3919854">
<ele>160.92</ele>
<time>2015-05-01T10:55:31Z</time>
</trkpt>
<trkpt lat="34.8281944" lon="33.3919725">
<ele>162.24</ele>
<time>2015-05-01T10:55:33Z</time>
</trkpt>
<trkpt lat="34.8282651" lon="33.3919574">
<ele>162.32</ele>
<time>2015-05-01T10:55:35Z</time>
</trkpt>
<trkpt lat="34.8282909" lon="33.3919077">
<ele>162.55</ele>
<time>2015-05-01T10:55:38Z</time>
</trkpt>
<trkpt lat="34.8283478" lon="33.3919269">
<ele>162.26</ele>
<time>2015-05-01T10:56:01Z</time>
</trkpt>
<trkpt lat="34.8284025" lon="33.3919298">
<ele>161.53</ele>
<time>2015-05-01T10:56:05Z</time>
</trkpt>
<trkpt lat="34.8284750" lon="33.3918943">
<ele>161.55</ele>
<time>2015-05-01T10:56:09Z</time>
</trkpt>
<trkpt lat="34.8285300" lon="33.3918960">
<ele>161.40</ele>
<time>2015-05-01T10:56:11Z</time>
</trkpt>
<trkpt lat="34.8285840" lon="33.3919110">
<ele>161.36</ele>
<time>2015-05-01T10:56:13Z</time>
</trkpt>
<trkpt lat="34.8286375" lon="33.3919402">
<ele>161.10</ele>
<time>2015-05-01T10:56:15Z</time>
</trkpt>
<trkpt lat="34.8287000" lon="33.3919866">
<ele>161.29</ele>
<time>2015-05-01T10:56:17Z</time>
</trkpt>
<trkpt lat="34.8287608" lon="33.3920324">
<ele>161.58</ele>
<time>2015-05-01T10:56:19Z</time>
</trkpt>
<trkpt lat="34.8288252" lon="33.3920756">
<ele>161.66</ele>
<time>2015-05-01T10:56:21Z</time>
</trkpt>
<trkpt lat="34.8288922" lon="33.3921210">
<ele>161.68</ele>
<time>2015-05-01T10:56:23Z</time>
</trkpt>
<trkpt lat="34.8289586" lon="33.3921719">
<ele>161.93</ele>
<time>2015-05-01T10:56:25Z</time>
</trkpt>
<trkpt lat="34.8290223" lon="33.3922210">
<ele>161.74</ele>
<time>2015-05-01T10:56:27Z</time>
</trkpt>
<trkpt lat="34.8290894" lon="33.3922728">
<ele>162.45</ele>
<time>2015-05-01T10:56:29Z</time>
</trkpt>
<trkpt lat="34.8291548" lon="33.3923305">
<ele>163.37</ele>
<time>2015-05-01T10:56:31Z</time>
</trkpt>
<trkpt lat="34.8291942" lon="33.3923633">
<ele>163.20</ele>
<time>2015-05-01T10:56:32Z</time>
</trkpt>
<trkpt lat="34.8292304" lon="33.3923959">
<ele>163.61</ele>
<time>2015-05-01T10:56:33Z</time>
</trkpt>
<trkpt lat="34.8292991" lon="33.3924586">
<ele>163.91</ele>
<time>2015-05-01T10:56:35Z</time>
</trkpt>
<trkpt lat="34.8293679" lon="33.3925173">
<ele>163.99</ele>
<time>2015-05-01T10:56:37Z</time>
</trkpt>
<trkpt lat="34.8294285" lon="33.3925772">
<ele>164.01</ele>
<time>2015-05-01T10:56:39Z</time>
</trkpt>
<trkpt lat="34.8294880" lon="33.3926373">
<ele>164.51</ele>
<time>2015-05-01T10:56:41Z</time>
</trkpt>
<trkpt lat="34.8295420" lon="33.3926933">
<ele>164.89</ele>
<time>2015-05-01T10:56:43Z</time>
</trkpt>
<trkpt lat="34.8295994" lon="33.3927539">
<ele>165.23</ele>
<time>2015-05-01T10:56:45Z</time>
</trkpt>
<trkpt lat="34.8296569" lon="33.3928183">
<ele>165.07</ele>
<time>2015-05-01T10:56:47Z</time>
</trkpt>
<trkpt lat="34.8296897" lon="33.3928560">
<ele>165.04</ele>
<time>2015-05-01T10:56:48Z</time>
</trkpt>
<trkpt lat="34.8297499" lon="33.3929296">
<ele>164.52</ele>
<time>2015-05-01T10:56:50Z</time>
</trkpt>
<trkpt lat="34.8298095" lon="33.3930010">
<ele>164.64</ele>
<time>2015-05-01T10:56:52Z</time>
</trkpt>
<trkpt lat="34.8298700" lon="33.3930626">
<ele>164.17</ele>
<time>2015-05-01T10:56:54Z</time>
</trkpt>
<trkpt lat="34.8299249" lon="33.3931269">
<ele>164.81</ele>
<time>2015-05-01T10:56:56Z</time>
</trkpt>
<trkpt lat="34.8299743" lon="33.3931974">
<ele>164.96</ele>
<time>2015-05-01T10:56:58Z</time>
</trkpt>
<trkpt lat="34.8300305" lon="33.3932644">
<ele>164.25</ele>
<time>2015-05-01T10:57:00Z</time>
</trkpt>
<trkpt lat="34.8300864" lon="33.3933302">
<ele>164.08</ele>
<time>2015-05-01T10:57:02Z</time>
</trkpt>
<trkpt lat="34.8301495" lon="33.3933924">
<ele>163.28</ele>
<time>2015-05-01T10:57:04Z</time>
</trkpt>
<trkpt lat="34.8302063" lon="33.3934558">
<ele>162.58</ele>
<time>2015-05-01T10:57:06Z</time>
</trkpt>
<trkpt lat="34.8302633" lon="33.3935237">
<ele>162.16</ele>
<time>2015-05-01T10:57:08Z</time>
</trkpt>
<trkpt lat="34.8303196" lon="33.3935914">
<ele>162.80</ele>
<time>2015-05-01T10:57:10Z</time>
</trkpt>
<trkpt lat="34.8303804" lon="33.3936573">
<ele>162.21</ele>
<time>2015-05-01T10:57:12Z</time>
</trkpt>
<trkpt lat="34.8304412" lon="33.3937176">
<ele>162.82</ele>
<time>2015-05-01T10:57:14Z</time>
</trkpt>
<trkpt lat="34.8304957" lon="33.3937802">
<ele>162.97</ele>
<time>2015-05-01T10:57:16Z</time>
</trkpt>
<trkpt lat="34.8305350" lon="33.3938309">
<ele>163.00</ele>
<time>2015-05-01T10:57:18Z</time>
</trkpt>
<trkpt lat="34.8305789" lon="33.3938904">
<ele>162.51</ele>
<time>2015-05-01T10:57:20Z</time>
</trkpt>
<trkpt lat="34.8306252" lon="33.3939482">
<ele>162.89</ele>
<time>2015-05-01T10:57:22Z</time>
</trkpt>
<trkpt lat="34.8306717" lon="33.3940109">
<ele>162.98</ele>
<time>2015-05-01T10:57:24Z</time>
</trkpt>
<trkpt lat="34.8307197" lon="33.3940731">
<ele>163.01</ele>
<time>2015-05-01T10:57:26Z</time>
</trkpt>
<trkpt lat="34.8307698" lon="33.3941313">
<ele>163.01</ele>
<time>2015-05-01T10:57:28Z</time>
</trkpt>
<trkpt lat="34.8308225" lon="33.3941827">
<ele>163.77</ele>
<time>2015-05-01T10:57:30Z</time>
</trkpt>
<trkpt lat="34.8308722" lon="33.3942414">
<ele>163.20</ele>
<time>2015-05-01T10:57:32Z</time>
</trkpt>
<trkpt lat="34.8309203" lon="33.3943050">
<ele>163.06</ele>
<time>2015-05-01T10:57:34Z</time>
</trkpt>
<trkpt lat="34.8309745" lon="33.3943773">
<ele>163.78</ele>
<time>2015-05-01T10:57:36Z</time>
</trkpt>
<trkpt lat="34.8310071" lon="33.3944184">
<ele>163.40</ele>
<time>2015-05-01T10:57:37Z</time>
</trkpt>
<trkpt lat="34.8310386" lon="33.3944625">
<ele>163.71</ele>
<time>2015-05-01T10:57:38Z</time>
</trkpt>
<trkpt lat="34.8311056" lon="33.3945432">
<ele>163.19</ele>
<time>2015-05-01T10:57:40Z</time>
</trkpt>
<trkpt lat="34.8311692" lon="33.3946163">
<ele>163.56</ele>
<time>2015-05-01T10:57:42Z</time>
</trkpt>
<trkpt lat="34.8312113" lon="33.3946560">
<ele>163.29</ele>
<time>2015-05-01T10:57:43Z</time>
</trkpt>
<trkpt lat="34.8312494" lon="33.3946985">
<ele>163.15</ele>
<time>2015-05-01T10:57:44Z</time>
</trkpt>
<trkpt lat="34.8312822" lon="33.3947486">
<ele>163.58</ele>
<time>2015-05-01T10:57:45Z</time>
</trkpt>
<trkpt lat="34.8313250" lon="33.3947880">
<ele>163.30</ele>
<time>2015-05-01T10:57:46Z</time>
</trkpt>
<trkpt lat="34.8313664" lon="33.3948381">
<ele>163.16</ele>
<time>2015-05-01T10:57:47Z</time>
</trkpt>
<trkpt lat="34.8314115" lon="33.3948850">
<ele>163.09</ele>
<time>2015-05-01T10:57:48Z</time>
</trkpt>
<trkpt lat="34.8314503" lon="33.3949346">
<ele>163.05</ele>
<time>2015-05-01T10:57:49Z</time>
</trkpt>
<trkpt lat="34.8314919" lon="33.3949846">
<ele>163.03</ele>
<time>2015-05-01T10:57:50Z</time>
</trkpt>
<trkpt lat="34.8315344" lon="33.3950376">
<ele>163.02</ele>
<time>2015-05-01T10:57:51Z</time>
</trkpt>
<trkpt lat="34.8315799" lon="33.3950905">
<ele>163.02</ele>
<time>2015-05-01T10:57:52Z</time>
</trkpt>
<trkpt lat="34.8316324" lon="33.3951419">
<ele>163.02</ele>
<time>2015-05-01T10:57:53Z</time>
</trkpt>
<trkpt lat="34.8316782" lon="33.3951945">
<ele>163.02</ele>
<time>2015-05-01T10:57:54Z</time>
</trkpt>
<trkpt lat="34.8317341" lon="33.3952439">
<ele>162.52</ele>
<time>2015-05-01T10:57:55Z</time>
</trkpt>
<trkpt lat="34.8317849" lon="33.3952962">
<ele>162.27</ele>
<time>2015-05-01T10:57:56Z</time>
</trkpt>
<trkpt lat="34.8318371" lon="33.3953518">
<ele>162.14</ele>
<time>2015-05-01T10:57:57Z</time>
</trkpt>
<trkpt lat="34.8318872" lon="33.3954037">
<ele>162.08</ele>
<time>2015-05-01T10:57:58Z</time>
</trkpt>
<trkpt lat="34.8319368" lon="33.3954517">
<ele>162.05</ele>
<time>2015-05-01T10:57:59Z</time>
</trkpt>
<trkpt lat="34.8319903" lon="33.3955041">
<ele>161.53</ele>
<time>2015-05-01T10:58:00Z</time>
</trkpt>
<trkpt lat="34.8320454" lon="33.3955520">
<ele>161.27</ele>
<time>2015-05-01T10:58:01Z</time>
</trkpt>
<trkpt lat="34.8320921" lon="33.3955986">
<ele>161.14</ele>
<time>2015-05-01T10:58:02Z</time>
</trkpt>
<trkpt lat="34.8321451" lon="33.3956518">
<ele>161.08</ele>
<time>2015-05-01T10:58:03Z</time>
</trkpt>
<trkpt lat="34.8322008" lon="33.3957013">
<ele>160.55</ele>
<time>2015-05-01T10:58:04Z</time>
</trkpt>
<trkpt lat="34.8322624" lon="33.3957484">
<ele>160.28</ele>
<time>2015-05-01T10:58:05Z</time>
</trkpt>
<trkpt lat="34.8323169" lon="33.3957959">
<ele>160.15</ele>
<time>2015-05-01T10:58:06Z</time>
</trkpt>
<trkpt lat="34.8323744" lon="33.3958434">
<ele>160.08</ele>
<time>2015-05-01T10:58:07Z</time>
</trkpt>
<trkpt lat="34.8324344" lon="33.3958925">
<ele>160.05</ele>
<time>2015-05-01T10:58:08Z</time>
</trkpt>
<trkpt lat="34.8324863" lon="33.3959500">
<ele>159.53</ele>
<time>2015-05-01T10:58:09Z</time>
</trkpt>
<trkpt lat="34.8325460" lon="33.3960030">
<ele>159.27</ele>
<time>2015-05-01T10:58:10Z</time>
</trkpt>
<trkpt lat="34.8326097" lon="33.3960573">
<ele>159.15</ele>
<time>2015-05-01T10:58:11Z</time>
</trkpt>
<trkpt lat="34.8326733" lon="33.3961127">
<ele>159.08</ele>
<time>2015-05-01T10:58:12Z</time>
</trkpt>
<trkpt lat="34.8327378" lon="33.3961687">
<ele>159.05</ele>
<time>2015-05-01T10:58:13Z</time>
</trkpt>
<trkpt lat="34.8327989" lon="33.3962262">
<ele>159.03</ele>
<time>2015-05-01T10:58:14Z</time>
</trkpt>
<trkpt lat="34.8328605" lon="33.3962837">
<ele>159.02</ele>
<time>2015-05-01T10:58:15Z</time>
</trkpt>
<trkpt lat="34.8329181" lon="33.3963344">
<ele>159.52</ele>
<time>2015-05-01T10:58:16Z</time>
</trkpt>
<trkpt lat="34.8329790" lon="33.3963904">
<ele>159.77</ele>
<time>2015-05-01T10:58:17Z</time>
</trkpt>
<trkpt lat="34.8330382" lon="33.3964320">
<ele>159.89</ele>
<time>2015-05-01T10:58:18Z</time>
</trkpt>
<trkpt lat="34.8330964" lon="33.3964757">
<ele>160.45</ele>
<time>2015-05-01T10:58:19Z</time>
</trkpt>
<trkpt lat="34.8331437" lon="33.3965172">
<ele>160.74</ele>
<time>2015-05-01T10:58:20Z</time>
</trkpt>
<trkpt lat="34.8331955" lon="33.3965552">
<ele>161.38</ele>
<time>2015-05-01T10:58:21Z</time>
</trkpt>
<trkpt lat="34.8332374" lon="33.3965886">
<ele>161.70</ele>
<time>2015-05-01T10:58:22Z</time>
</trkpt>
<trkpt lat="34.8333123" lon="33.3966477">
<ele>163.44</ele>
<time>2015-05-01T10:58:24Z</time>
</trkpt>
<trkpt lat="34.8333748" lon="33.3966861">
<ele>163.87</ele>
<time>2015-05-01T10:58:26Z</time>
</trkpt>
<trkpt lat="34.8334313" lon="33.3967221">
<ele>164.48</ele>
<time>2015-05-01T10:58:28Z</time>
</trkpt>
<trkpt lat="34.8334858" lon="33.3967547">
<ele>164.88</ele>
<time>2015-05-01T10:58:30Z</time>
</trkpt>
<trkpt lat="34.8335250" lon="33.3968059">
<ele>165.50</ele>
<time>2015-05-01T10:58:33Z</time>
</trkpt>
<trkpt lat="34.8335756" lon="33.3968273">
<ele>165.95</ele>
<time>2015-05-01T10:58:36Z</time>
</trkpt>
<trkpt lat="34.8336250" lon="33.3968651">
<ele>166.01</ele>
<time>2015-05-01T10:58:39Z</time>
</trkpt>
<trkpt lat="34.8336772" lon="33.3969006">
<ele>166.01</ele>
<time>2015-05-01T10:58:42Z</time>
</trkpt>
<trkpt lat="34.8337308" lon="33.3969418">
<ele>166.02</ele>
<time>2015-05-01T10:58:45Z</time>
</trkpt>
<trkpt lat="34.8337854" lon="33.3969814">
<ele>166.02</ele>
<time>2015-05-01T10:58:48Z</time>
</trkpt>
<trkpt lat="34.8338419" lon="33.3970227">
<ele>165.27</ele>
<time>2015-05-01T10:58:51Z</time>
</trkpt>
<trkpt lat="34.8338839" lon="33.3970534">
<ele>165.58</ele>
<time>2015-05-01T10:58:53Z</time>
</trkpt>
<trkpt lat="34.8339264" lon="33.3970909">
<ele>165.96</ele>
<time>2015-05-01T10:58:56Z</time>
</trkpt>
<trkpt lat="34.8339771" lon="33.3971280">
<ele>165.95</ele>
<time>2015-05-01T10:59:00Z</time>
</trkpt>
<trkpt lat="34.8340524" lon="33.3971791">
<ele>165.51</ele>
<time>2015-05-01T10:59:03Z</time>
</trkpt>
<trkpt lat="34.8341095" lon="33.3972219">
<ele>165.14</ele>
<time>2015-05-01T10:59:05Z</time>
</trkpt>
<trkpt lat="34.8341621" lon="33.3972627">
<ele>164.30</ele>
<time>2015-05-01T10:59:07Z</time>
</trkpt>
<trkpt lat="34.8342168" lon="33.3973029">
<ele>164.09</ele>
<time>2015-05-01T10:59:09Z</time>
</trkpt>
<trkpt lat="34.8342686" lon="33.3973408">
<ele>164.03</ele>
<time>2015-05-01T10:59:11Z</time>
</trkpt>
<trkpt lat="34.8343196" lon="33.3973798">
<ele>163.52</ele>
<time>2015-05-01T10:59:13Z</time>
</trkpt>
<trkpt lat="34.8343671" lon="33.3974172">
<ele>163.64</ele>
<time>2015-05-01T10:59:15Z</time>
</trkpt>
<trkpt lat="34.8344170" lon="33.3974529">
<ele>163.92</ele>
<time>2015-05-01T10:59:17Z</time>
</trkpt>
<trkpt lat="34.8344675" lon="33.3974877">
<ele>163.24</ele>
<time>2015-05-01T10:59:19Z</time>
</trkpt>
<trkpt lat="34.8345201" lon="33.3975274">
<ele>162.57</ele>
<time>2015-05-01T10:59:21Z</time>
</trkpt>
<trkpt lat="34.8345887" lon="33.3975757">
<ele>162.41</ele>
<time>2015-05-01T10:59:23Z</time>
</trkpt>
<trkpt lat="34.8346608" lon="33.3976257">
<ele>162.11</ele>
<time>2015-05-01T10:59:25Z</time>
</trkpt>
<trkpt lat="34.8347311" lon="33.3976819">
<ele>162.04</ele>
<time>2015-05-01T10:59:27Z</time>
</trkpt>
<trkpt lat="34.8348318" lon="33.3977548">
<ele>161.52</ele>
<time>2015-05-01T10:59:29Z</time>
</trkpt>
<trkpt lat="34.8348760" lon="33.3977884">
<ele>161.27</ele>
<time>2015-05-01T10:59:30Z</time>
</trkpt>
<trkpt lat="34.8349281" lon="33.3978366">
<ele>160.64</ele>
<time>2015-05-01T10:59:31Z</time>
</trkpt>
<trkpt lat="34.8349822" lon="33.3978777">
<ele>160.33</ele>
<time>2015-05-01T10:59:32Z</time>
</trkpt>
<trkpt lat="34.8350521" lon="33.3979184">
<ele>160.17</ele>
<time>2015-05-01T10:59:33Z</time>
</trkpt>
<trkpt lat="34.8351109" lon="33.3979622">
<ele>159.59</ele>
<time>2015-05-01T10:59:34Z</time>
</trkpt>
<trkpt lat="34.8351818" lon="33.3980125">
<ele>159.31</ele>
<time>2015-05-01T10:59:35Z</time>
</trkpt>
<trkpt lat="34.8352498" lon="33.3980675">
<ele>159.16</ele>
<time>2015-05-01T10:59:36Z</time>
</trkpt>
<trkpt lat="34.8353159" lon="33.3981176">
<ele>159.09</ele>
<time>2015-05-01T10:59:37Z</time>
</trkpt>
<trkpt lat="34.8353843" lon="33.3981721">
<ele>159.05</ele>
<time>2015-05-01T10:59:38Z</time>
</trkpt>
<trkpt lat="34.8354547" lon="33.3982271">
<ele>159.03</ele>
<time>2015-05-01T10:59:39Z</time>
</trkpt>
<trkpt lat="34.8355268" lon="33.3982812">
<ele>159.03</ele>
<time>2015-05-01T10:59:40Z</time>
</trkpt>
<trkpt lat="34.8355936" lon="33.3983339">
<ele>159.02</ele>
<time>2015-05-01T10:59:41Z</time>
</trkpt>
<trkpt lat="34.8356642" lon="33.3983886">
<ele>159.02</ele>
<time>2015-05-01T10:59:42Z</time>
</trkpt>
<trkpt lat="34.8357305" lon="33.3984448">
<ele>159.02</ele>
<time>2015-05-01T10:59:43Z</time>
</trkpt>
<trkpt lat="34.8358013" lon="33.3984988">
<ele>159.02</ele>
<time>2015-05-01T10:59:44Z</time>
</trkpt>
<trkpt lat="34.8358640" lon="33.3985409">
<ele>159.02</ele>
<time>2015-05-01T10:59:45Z</time>
</trkpt>
<trkpt lat="34.8359303" lon="33.3985902">
<ele>159.02</ele>
<time>2015-05-01T10:59:46Z</time>
</trkpt>
<trkpt lat="34.8359864" lon="33.3986333">
<ele>159.52</ele>
<time>2015-05-01T10:59:47Z</time>
</trkpt>
<trkpt lat="34.8360507" lon="33.3986826">
<ele>159.77</ele>
<time>2015-05-01T10:59:48Z</time>
</trkpt>
<trkpt lat="34.8361105" lon="33.3987272">
<ele>160.39</ele>
<time>2015-05-01T10:59:49Z</time>
</trkpt>
<trkpt lat="34.8361673" lon="33.3987680">
<ele>160.70</ele>
<time>2015-05-01T10:59:50Z</time>
</trkpt>
<trkpt lat="34.8362071" lon="33.3988025">
<ele>161.86</ele>
<time>2015-05-01T10:59:51Z</time>
</trkpt>
<trkpt lat="34.8362577" lon="33.3988371">
<ele>162.44</ele>
<time>2015-05-01T10:59:52Z</time>
</trkpt>
<trkpt lat="34.8363072" lon="33.3988710">
<ele>162.73</ele>
<time>2015-05-01T10:59:53Z</time>
</trkpt>
<trkpt lat="34.8363831" lon="33.3989244">
<ele>162.44</ele>
<time>2015-05-01T10:59:55Z</time>
</trkpt>
<trkpt lat="34.8364252" lon="33.3989535">
<ele>162.23</ele>
<time>2015-05-01T10:59:56Z</time>
</trkpt>
<trkpt lat="34.8364646" lon="33.3989906">
<ele>162.62</ele>
<time>2015-05-01T10:59:57Z</time>
</trkpt>
<trkpt lat="34.8365038" lon="33.3990209">
<ele>162.82</ele>
<time>2015-05-01T10:59:58Z</time>
</trkpt>
<trkpt lat="34.8365778" lon="33.3990775">
<ele>162.97</ele>
<time>2015-05-01T11:00:00Z</time>
</trkpt>
<trkpt lat="34.8366146" lon="33.3991111">
<ele>162.99</ele>
<time>2015-05-01T11:00:01Z</time>
</trkpt>
<trkpt lat="34.8366908" lon="33.3991624">
<ele>163.01</ele>
<time>2015-05-01T11:00:03Z</time>
</trkpt>
<trkpt lat="34.8367291" lon="33.3991912">
<ele>163.01</ele>
<time>2015-05-01T11:00:04Z</time>
</trkpt>
<trkpt lat="34.8368093" lon="33.3992352">
<ele>163.02</ele>
<time>2015-05-01T11:00:06Z</time>
</trkpt>
<trkpt lat="34.8368889" lon="33.3992844">
<ele>163.77</ele>
<time>2015-05-01T11:00:08Z</time>
</trkpt>
<trkpt lat="34.8369327" lon="33.3993207">
<ele>163.89</ele>
<time>2015-05-01T11:00:09Z</time>
</trkpt>
<trkpt lat="34.8369965" lon="33.3993605">
<ele>163.98</ele>
<time>2015-05-01T11:00:11Z</time>
</trkpt>
<trkpt lat="34.8370635" lon="33.3994070">
<ele>163.76</ele>
<time>2015-05-01T11:00:13Z</time>
</trkpt>
<trkpt lat="34.8371306" lon="33.3994525">
<ele>163.45</ele>
<time>2015-05-01T11:00:15Z</time>
</trkpt>
<trkpt lat="34.8372008" lon="33.3994878">
<ele>163.87</ele>
<time>2015-05-01T11:00:17Z</time>
</trkpt>
<trkpt lat="34.8372572" lon="33.3995222">
<ele>164.48</ele>
<time>2015-05-01T11:00:19Z</time>
</trkpt>
<trkpt lat="34.8373093" lon="33.3995591">
<ele>164.88</ele>
<time>2015-05-01T11:00:21Z</time>
</trkpt>
<trkpt lat="34.8373672" lon="33.3995943">
<ele>164.12</ele>
<time>2015-05-01T11:00:24Z</time>
</trkpt>
<trkpt lat="34.8374111" lon="33.3996204">
<ele>164.39</ele>
<time>2015-05-01T11:00:29Z</time>
</trkpt>
<trkpt lat="34.8374573" lon="33.3996350">
<ele>164.04</ele>
<time>2015-05-01T11:00:33Z</time>
</trkpt>
<trkpt lat="34.8375095" lon="33.3996614">
<ele>164.02</ele>
<time>2015-05-01T11:00:35Z</time>
</trkpt>
<trkpt lat="34.8375436" lon="33.3997085">
<ele>163.02</ele>
<time>2015-05-01T11:01:11Z</time>
</trkpt>
<trkpt lat="34.8375915" lon="33.3997646">
<ele>163.02</ele>
<time>2015-05-01T11:01:13Z</time>
</trkpt>
<trkpt lat="34.8376446" lon="33.3998075">
<ele>163.02</ele>
<time>2015-05-01T11:01:15Z</time>
</trkpt>
<trkpt lat="34.8376949" lon="33.3998361">
<ele>163.02</ele>
<time>2015-05-01T11:01:17Z</time>
</trkpt>
<trkpt lat="34.8377498" lon="33.3998668">
<ele>163.02</ele>
<time>2015-05-01T11:01:21Z</time>
</trkpt>
<trkpt lat="34.8378034" lon="33.3999028">
<ele>162.77</ele>
<time>2015-05-01T11:01:25Z</time>
</trkpt>
<trkpt lat="34.8378494" lon="33.3999397">
<ele>162.98</ele>
<time>2015-05-01T11:01:28Z</time>
</trkpt>
<trkpt lat="34.8378980" lon="33.3999671">
<ele>163.01</ele>
<time>2015-05-01T11:01:31Z</time>
</trkpt>
<trkpt lat="34.8379403" lon="33.4000008">
<ele>164.39</ele>
<time>2015-05-01T11:01:34Z</time>
</trkpt>
<trkpt lat="34.8379804" lon="33.4000306">
<ele>164.56</ele>
<time>2015-05-01T11:01:37Z</time>
</trkpt>
<trkpt lat="34.8380236" lon="33.4000593">
<ele>164.46</ele>
<time>2015-05-01T11:01:40Z</time>
</trkpt>
<trkpt lat="34.8380658" lon="33.4000929">
<ele>164.88</ele>
<time>2015-05-01T11:01:42Z</time>
</trkpt>
<trkpt lat="34.8380908" lon="33.4001519">
<ele>164.98</ele>
<time>2015-05-01T11:01:44Z</time>
</trkpt>
<trkpt lat="34.8380851" lon="33.4002098">
<ele>165.50</ele>
<time>2015-05-01T11:01:45Z</time>
</trkpt>
<trkpt lat="34.8380765" lon="33.4002998">
<ele>165.89</ele>
<time>2015-05-01T11:01:47Z</time>
</trkpt>
<trkpt lat="34.8380863" lon="33.4003961">
<ele>165.73</ele>
<time>2015-05-01T11:01:49Z</time>
</trkpt>
<trkpt lat="34.8381381" lon="33.4004657">
<ele>166.45</ele>
<time>2015-05-01T11:01:51Z</time>
</trkpt>
<trkpt lat="34.8382101" lon="33.4005012">
<ele>166.87</ele>
<time>2015-05-01T11:01:53Z</time>
</trkpt>
<trkpt lat="34.8382819" lon="33.4005156">
<ele>166.98</ele>
<time>2015-05-01T11:01:55Z</time>
</trkpt>
<trkpt lat="34.8383578" lon="33.4005264">
<ele>167.51</ele>
<time>2015-05-01T11:01:57Z</time>
</trkpt>
<trkpt lat="34.8384363" lon="33.4005485">
<ele>167.89</ele>
<time>2015-05-01T11:01:59Z</time>
</trkpt>
<trkpt lat="34.8385214" lon="33.4005744">
<ele>168.23</ele>
<time>2015-05-01T11:02:01Z</time>
</trkpt>
<trkpt lat="34.8386012" lon="33.4006067">
<ele>168.07</ele>
<time>2015-05-01T11:02:03Z</time>
</trkpt>
<trkpt lat="34.8386808" lon="33.4006503">
<ele>168.78</ele>
<time>2015-05-01T11:02:05Z</time>
</trkpt>
<trkpt lat="34.8387572" lon="33.4006985">
<ele>168.96</ele>
<time>2015-05-01T11:02:07Z</time>
</trkpt>
<trkpt lat="34.8387962" lon="33.4007275">
<ele>169.49</ele>
<time>2015-05-01T11:02:08Z</time>
</trkpt>
<trkpt lat="34.8388759" lon="33.4008062">
<ele>169.88</ele>
<time>2015-05-01T11:02:10Z</time>
</trkpt>
<trkpt lat="34.8389144" lon="33.4008408">
<ele>169.95</ele>
<time>2015-05-01T11:02:11Z</time>
</trkpt>
<trkpt lat="34.8389715" lon="33.4009019">
<ele>170.00</ele>
<time>2015-05-01T11:02:13Z</time>
</trkpt>
<trkpt lat="34.8390182" lon="33.4009618">
<ele>170.01</ele>
<time>2015-05-01T11:02:15Z</time>
</trkpt>
<trkpt lat="34.8390648" lon="33.4010297">
<ele>170.51</ele>
<time>2015-05-01T11:02:17Z</time>
</trkpt>
<trkpt lat="34.8391204" lon="33.4011047">
<ele>170.89</ele>
<time>2015-05-01T11:02:19Z</time>
</trkpt>
<trkpt lat="34.8391738" lon="33.4011909">
<ele>171.48</ele>
<time>2015-05-01T11:02:21Z</time>
</trkpt>
<trkpt lat="34.8392193" lon="33.4012795">
<ele>171.88</ele>
<time>2015-05-01T11:02:23Z</time>
</trkpt>
<trkpt lat="34.8392461" lon="33.4013265">
<ele>171.95</ele>
<time>2015-05-01T11:02:24Z</time>
</trkpt>
<trkpt lat="34.8392774" lon="33.4013692">
<ele>171.98</ele>
<time>2015-05-01T11:02:25Z</time>
</trkpt>
<trkpt lat="34.8393204" lon="33.4014476">
<ele>172.01</ele>
<time>2015-05-01T11:02:27Z</time>
</trkpt>
<trkpt lat="34.8393579" lon="33.4015302">
<ele>172.01</ele>
<time>2015-05-01T11:02:29Z</time>
</trkpt>
<trkpt lat="34.8393902" lon="33.4016009">
<ele>172.52</ele>
<time>2015-05-01T11:02:31Z</time>
</trkpt>
<trkpt lat="34.8394270" lon="33.4016708">
<ele>172.89</ele>
<time>2015-05-01T11:02:33Z</time>
</trkpt>
<trkpt lat="34.8394501" lon="33.4017393">
<ele>172.23</ele>
<time>2015-05-01T11:02:35Z</time>
</trkpt>
<trkpt lat="34.8394697" lon="33.4018150">
<ele>172.57</ele>
<time>2015-05-01T11:02:37Z</time>
</trkpt>
<trkpt lat="34.8394944" lon="33.4018897">
<ele>172.65</ele>
<time>2015-05-01T11:02:39Z</time>
</trkpt>
<trkpt lat="34.8395256" lon="33.4019656">
<ele>172.18</ele>
<time>2015-05-01T11:02:41Z</time>
</trkpt>
<trkpt lat="34.8395546" lon="33.4020394">
<ele>172.06</ele>
<time>2015-05-01T11:02:43Z</time>
</trkpt>
<trkpt lat="34.8395824" lon="33.4021466">
<ele>172.03</ele>
<time>2015-05-01T11:02:45Z</time>
</trkpt>
<trkpt lat="34.8396160" lon="33.4022654">
<ele>171.52</ele>
<time>2015-05-01T11:02:47Z</time>
</trkpt>
<trkpt lat="34.8396361" lon="33.4023238">
<ele>171.27</ele>
<time>2015-05-01T11:02:48Z</time>
</trkpt>
<trkpt lat="34.8396581" lon="33.4023956">
<ele>170.64</ele>
<time>2015-05-01T11:02:49Z</time>
</trkpt>
<trkpt lat="34.8396755" lon="33.4024600">
<ele>170.33</ele>
<time>2015-05-01T11:02:50Z</time>
</trkpt>
<trkpt lat="34.8396896" lon="33.4025383">
<ele>170.17</ele>
<time>2015-05-01T11:02:51Z</time>
</trkpt>
<trkpt lat="34.8397077" lon="33.4026139">
<ele>170.09</ele>
<time>2015-05-01T11:02:52Z</time>
</trkpt>
<trkpt lat="34.8397338" lon="33.4026965">
<ele>169.56</ele>
<time>2015-05-01T11:02:53Z</time>
</trkpt>
<trkpt lat="34.8397576" lon="33.4027749">
<ele>169.29</ele>
<time>2015-05-01T11:02:54Z</time>
</trkpt>
<trkpt lat="34.8397832" lon="33.4028576">
<ele>169.15</ele>
<time>2015-05-01T11:02:55Z</time>
</trkpt>
<trkpt lat="34.8398099" lon="33.4029436">
<ele>168.58</ele>
<time>2015-05-01T11:02:56Z</time>
</trkpt>
<trkpt lat="34.8398349" lon="33.4030272">
<ele>168.30</ele>
<time>2015-05-01T11:02:57Z</time>
</trkpt>
<trkpt lat="34.8398677" lon="33.4031131">
<ele>167.66</ele>
<time>2015-05-01T11:02:58Z</time>
</trkpt>
<trkpt lat="34.8398961" lon="33.4031980">
<ele>167.34</ele>
<time>2015-05-01T11:02:59Z</time>
</trkpt>
<trkpt lat="34.8399278" lon="33.4032910">
<ele>166.68</ele>
<time>2015-05-01T11:03:00Z</time>
</trkpt>
<trkpt lat="34.8399595" lon="33.4033864">
<ele>166.35</ele>
<time>2015-05-01T11:03:01Z</time>
</trkpt>
<trkpt lat="34.8399897" lon="33.4034731">
<ele>166.18</ele>
<time>2015-05-01T11:03:02Z</time>
</trkpt>
<trkpt lat="34.8400274" lon="33.4035548">
<ele>166.10</ele>
<time>2015-05-01T11:03:03Z</time>
</trkpt>
<trkpt lat="34.8400613" lon="33.4036444">
<ele>165.56</ele>
<time>2015-05-01T11:03:04Z</time>
</trkpt>
<trkpt lat="34.8400960" lon="33.4037317">
<ele>164.79</ele>
<time>2015-05-01T11:03:05Z</time>
</trkpt>
<trkpt lat="34.8401313" lon="33.4038204">
<ele>164.40</ele>
<time>2015-05-01T11:03:06Z</time>
</trkpt>
<trkpt lat="34.8401744" lon="33.4039012">
<ele>164.21</ele>
<time>2015-05-01T11:03:07Z</time>
</trkpt>
<trkpt lat="34.8402168" lon="33.4039901">
<ele>164.11</ele>
<time>2015-05-01T11:03:08Z</time>
</trkpt>
<trkpt lat="34.8402658" lon="33.4040754">
<ele>164.06</ele>
<time>2015-05-01T11:03:09Z</time>
</trkpt>
<trkpt lat="34.8403138" lon="33.4041552">
<ele>164.04</ele>
<time>2015-05-01T11:03:10Z</time>
</trkpt>
<trkpt lat="34.8403649" lon="33.4042318">
<ele>164.03</ele>
<time>2015-05-01T11:03:11Z</time>
</trkpt>
<trkpt lat="34.8404121" lon="33.4043160">
<ele>163.52</ele>
<time>2015-05-01T11:03:12Z</time>
</trkpt>
<trkpt lat="34.8404604" lon="33.4043930">
<ele>163.27</ele>
<time>2015-05-01T11:03:13Z</time>
</trkpt>
<trkpt lat="34.8405044" lon="33.4044618">
<ele>163.14</ele>
<time>2015-05-01T11:03:14Z</time>
</trkpt>
<trkpt lat="34.8405537" lon="33.4045361">
<ele>163.08</ele>
<time>2015-05-01T11:03:15Z</time>
</trkpt>
<trkpt lat="34.8406015" lon="33.4046052">
<ele>163.05</ele>
<time>2015-05-01T11:03:16Z</time>
</trkpt>
<trkpt lat="34.8406535" lon="33.4046757">
<ele>163.03</ele>
<time>2015-05-01T11:03:17Z</time>
</trkpt>
<trkpt lat="34.8407044" lon="33.4047449">
<ele>163.02</ele>
<time>2015-05-01T11:03:18Z</time>
</trkpt>
<trkpt lat="34.8407575" lon="33.4048053">
<ele>163.02</ele>
<time>2015-05-01T11:03:19Z</time>
</trkpt>
<trkpt lat="34.8408099" lon="33.4048759">
<ele>163.02</ele>
<time>2015-05-01T11:03:20Z</time>
</trkpt>
<trkpt lat="34.8408716" lon="33.4049399">
<ele>162.52</ele>
<time>2015-05-01T11:03:21Z</time>
</trkpt>
<trkpt lat="34.8409277" lon="33.4050038">
<ele>162.27</ele>
<time>2015-05-01T11:03:22Z</time>
</trkpt>
<trkpt lat="34.8409862" lon="33.4050674">
<ele>162.14</ele>
<time>2015-05-01T11:03:23Z</time>
</trkpt>
<trkpt lat="34.8410466" lon="33.4051316">
<ele>162.08</ele>
<time>2015-05-01T11:03:24Z</time>
</trkpt>
<trkpt lat="34.8410988" lon="33.4051974">
<ele>161.55</ele>
<time>2015-05-01T11:03:25Z</time>
</trkpt>
<trkpt lat="34.8411555" lon="33.4052515">
<ele>161.78</ele>
<time>2015-05-01T11:03:26Z</time>
</trkpt>
<trkpt lat="34.8412107" lon="33.4053117">
<ele>161.40</ele>
<time>2015-05-01T11:03:27Z</time>
</trkpt>
<trkpt lat="34.8412725" lon="33.4053692">
<ele>161.21</ele>
<time>2015-05-01T11:03:28Z</time>
</trkpt>
<trkpt lat="34.8413336" lon="33.4054215">
<ele>161.11</ele>
<time>2015-05-01T11:03:29Z</time>
</trkpt>
<trkpt lat="34.8413888" lon="33.4054711">
<ele>161.06</ele>
<time>2015-05-01T11:03:30Z</time>
</trkpt>
<trkpt lat="34.8414428" lon="33.4055241">
<ele>161.54</ele>
<time>2015-05-01T11:03:31Z</time>
</trkpt>
<trkpt lat="34.8415011" lon="33.4055774">
<ele>161.78</ele>
<time>2015-05-01T11:03:32Z</time>
</trkpt>
<trkpt lat="34.8415561" lon="33.4056262">
<ele>161.90</ele>
<time>2015-05-01T11:03:33Z</time>
</trkpt>
<trkpt lat="34.8416104" lon="33.4056790">
<ele>161.96</ele>
<time>2015-05-01T11:03:34Z</time>
</trkpt>
<trkpt lat="34.8416546" lon="33.4057377">
<ele>161.99</ele>
<time>2015-05-01T11:03:35Z</time>
</trkpt>
<trkpt lat="34.8417071" lon="33.4057943">
<ele>162.00</ele>
<time>2015-05-01T11:03:36Z</time>
</trkpt>
<trkpt lat="34.8417795" lon="33.4058190">
<ele>162.01</ele>
<time>2015-05-01T11:03:37Z</time>
</trkpt>
<trkpt lat="34.8418362" lon="33.4058613">
<ele>162.01</ele>
<time>2015-05-01T11:03:38Z</time>
</trkpt>
<trkpt lat="34.8418850" lon="33.4059125">
<ele>162.01</ele>
<time>2015-05-01T11:03:39Z</time>
</trkpt>
<trkpt lat="34.8419386" lon="33.4059627">
<ele>162.02</ele>
<time>2015-05-01T11:03:40Z</time>
</trkpt>
<trkpt lat="34.8419861" lon="33.4060142">
<ele>161.52</ele>
<time>2015-05-01T11:03:41Z</time>
</trkpt>
<trkpt lat="34.8420300" lon="33.4060612">
<ele>161.77</ele>
<time>2015-05-01T11:03:42Z</time>
</trkpt>
<trkpt lat="34.8420797" lon="33.4061085">
<ele>161.89</ele>
<time>2015-05-01T11:03:43Z</time>
</trkpt>
<trkpt lat="34.8421241" lon="33.4061607">
<ele>161.95</ele>
<time>2015-05-01T11:03:44Z</time>
</trkpt>
<trkpt lat="34.8421762" lon="33.4061981">
<ele>161.98</ele>
<time>2015-05-01T11:03:45Z</time>
</trkpt>
<trkpt lat="34.8422284" lon="33.4062341">
<ele>161.50</ele>
<time>2015-05-01T11:03:46Z</time>
</trkpt>
<trkpt lat="34.8422768" lon="33.4062787">
<ele>161.26</ele>
<time>2015-05-01T11:03:47Z</time>
</trkpt>
<trkpt lat="34.8423276" lon="33.4063208">
<ele>161.14</ele>
<time>2015-05-01T11:03:48Z</time>
</trkpt>
<trkpt lat="34.8423757" lon="33.4063659">
<ele>161.08</ele>
<time>2015-05-01T11:03:49Z</time>
</trkpt>
<trkpt lat="34.8424226" lon="33.4064096">
<ele>161.05</ele>
<time>2015-05-01T11:03:50Z</time>
</trkpt>
<trkpt lat="34.8424682" lon="33.4064526">
<ele>161.03</ele>
<time>2015-05-01T11:03:51Z</time>
</trkpt>
<trkpt lat="34.8425160" lon="33.4064974">
<ele>161.02</ele>
<time>2015-05-01T11:03:52Z</time>
</trkpt>
<trkpt lat="34.8425622" lon="33.4065409">
<ele>161.02</ele>
<time>2015-05-01T11:03:53Z</time>
</trkpt>
<trkpt lat="34.8426078" lon="33.4065858">
<ele>161.02</ele>
<time>2015-05-01T11:03:54Z</time>
</trkpt>
<trkpt lat="34.8426563" lon="33.4066371">
<ele>161.02</ele>
<time>2015-05-01T11:03:55Z</time>
</trkpt>
<trkpt lat="34.8427058" lon="33.4066840">
<ele>161.02</ele>
<time>2015-05-01T11:03:56Z</time>
</trkpt>
<trkpt lat="34.8427564" lon="33.4067269">
<ele>161.02</ele>
<time>2015-05-01T11:03:57Z</time>
</trkpt>
<trkpt lat="34.8428026" lon="33.4067678">
<ele>161.52</ele>
<time>2015-05-01T11:03:58Z</time>
</trkpt>
<trkpt lat="34.8428554" lon="33.4068070">
<ele>161.77</ele>
<time>2015-05-01T11:03:59Z</time>
</trkpt>
<trkpt lat="34.8429083" lon="33.4068531">
<ele>161.89</ele>
<time>2015-05-01T11:04:00Z</time>
</trkpt>
<trkpt lat="34.8429525" lon="33.4068997">
<ele>161.95</ele>
<time>2015-05-01T11:04:01Z</time>
</trkpt>
<trkpt lat="34.8430002" lon="33.4069402">
<ele>161.98</ele>
<time>2015-05-01T11:04:02Z</time>
</trkpt>
<trkpt lat="34.8430431" lon="33.4069813">
<ele>162.00</ele>
<time>2015-05-01T11:04:03Z</time>
</trkpt>
<trkpt lat="34.8430890" lon="33.4070226">
<ele>162.01</ele>
<time>2015-05-01T11:04:04Z</time>
</trkpt>
<trkpt lat="34.8431217" lon="33.4070649">
<ele>162.01</ele>
<time>2015-05-01T11:04:05Z</time>
</trkpt>
<trkpt lat="34.8431596" lon="33.4071035">
<ele>162.51</ele>
<time>2015-05-01T11:04:06Z</time>
</trkpt>
<trkpt lat="34.8432021" lon="33.4071423">
<ele>162.77</ele>
<time>2015-05-01T11:04:07Z</time>
</trkpt>
<trkpt lat="34.8432459" lon="33.4071806">
<ele>162.89</ele>
<time>2015-05-01T11:04:08Z</time>
</trkpt>
<trkpt lat="34.8432934" lon="33.4072247">
<ele>162.95</ele>
<time>2015-05-01T11:04:09Z</time>
</trkpt>
<trkpt lat="34.8433358" lon="33.4072633">
<ele>162.98</ele>
<time>2015-05-01T11:04:10Z</time>
</trkpt>
<trkpt lat="34.8433785" lon="33.4073055">
<ele>163.00</ele>
<time>2015-05-01T11:04:11Z</time>
</trkpt>
<trkpt lat="34.8434235" lon="33.4073482">
<ele>163.01</ele>
<time>2015-05-01T11:04:12Z</time>
</trkpt>
<trkpt lat="34.8434737" lon="33.4073816">
<ele>163.01</ele>
<time>2015-05-01T11:04:13Z</time>
</trkpt>
<trkpt lat="34.8435130" lon="33.4074172">
<ele>162.51</ele>
<time>2015-05-01T11:04:14Z</time>
</trkpt>
<trkpt lat="34.8435476" lon="33.4074583">
<ele>162.77</ele>
<time>2015-05-01T11:04:15Z</time>
</trkpt>
<trkpt lat="34.8435850" lon="33.4074969">
<ele>162.89</ele>
<time>2015-05-01T11:04:16Z</time>
</trkpt>
<trkpt lat="34.8436228" lon="33.4075333">
<ele>162.95</ele>
<time>2015-05-01T11:04:17Z</time>
</trkpt>
<trkpt lat="34.8436975" lon="33.4075942">
<ele>163.00</ele>
<time>2015-05-01T11:04:19Z</time>
</trkpt>
<trkpt lat="34.8437330" lon="33.4076332">
<ele>163.01</ele>
<time>2015-05-01T11:04:20Z</time>
</trkpt>
<trkpt lat="34.8438030" lon="33.4076772">
<ele>163.01</ele>
<time>2015-05-01T11:04:22Z</time>
</trkpt>
<trkpt lat="34.8438716" lon="33.4077152">
<ele>163.02</ele>
<time>2015-05-01T11:04:24Z</time>
</trkpt>
<trkpt lat="34.8439290" lon="33.4077743">
<ele>162.52</ele>
<time>2015-05-01T11:04:26Z</time>
</trkpt>
<trkpt lat="34.8440048" lon="33.4078222">
<ele>162.14</ele>
<time>2015-05-01T11:04:28Z</time>
</trkpt>
<trkpt lat="34.8440766" lon="33.4078528">
<ele>162.80</ele>
<time>2015-05-01T11:04:30Z</time>
</trkpt>
<trkpt lat="34.8441590" lon="33.4078912">
<ele>162.96</ele>
<time>2015-05-01T11:04:32Z</time>
</trkpt>
<trkpt lat="34.8442006" lon="33.4079133">
<ele>162.99</ele>
<time>2015-05-01T11:04:33Z</time>
</trkpt>
<trkpt lat="34.8442533" lon="33.4079347">
<ele>163.00</ele>
<time>2015-05-01T11:04:34Z</time>
</trkpt>
<trkpt lat="34.8442984" lon="33.4079539">
<ele>163.51</ele>
<time>2015-05-01T11:04:35Z</time>
</trkpt>
<trkpt lat="34.8443473" lon="33.4079737">
<ele>163.76</ele>
<time>2015-05-01T11:04:36Z</time>
</trkpt>
<trkpt lat="34.8444316" lon="33.4079876">
<ele>164.20</ele>
<time>2015-05-01T11:04:38Z</time>
</trkpt>
<trkpt lat="34.8444790" lon="33.4079995">
<ele>164.11</ele>
<time>2015-05-01T11:04:39Z</time>
</trkpt>
<trkpt lat="34.8445282" lon="33.4080078">
<ele>164.06</ele>
<time>2015-05-01T11:04:40Z</time>
</trkpt>
<trkpt lat="34.8445759" lon="33.4080120">
<ele>164.04</ele>
<time>2015-05-01T11:04:41Z</time>
</trkpt>
<trkpt lat="34.8446219" lon="33.4080192">
<ele>164.03</ele>
<time>2015-05-01T11:04:42Z</time>
</trkpt>
<trkpt lat="34.8446714" lon="33.4080224">
<ele>164.52</ele>
<time>2015-05-01T11:04:43Z</time>
</trkpt>
<trkpt lat="34.8447197" lon="33.4080246">
<ele>164.77</ele>
<time>2015-05-01T11:04:44Z</time>
</trkpt>
<trkpt lat="34.8447719" lon="33.4080250">
<ele>164.89</ele>
<time>2015-05-01T11:04:45Z</time>
</trkpt>
<trkpt lat="34.8448642" lon="33.4080258">
<ele>164.99</ele>
<time>2015-05-01T11:04:47Z</time>
</trkpt>
<trkpt lat="34.8449499" lon="33.4080258">
<ele>165.01</ele>
<time>2015-05-01T11:04:49Z</time>
</trkpt>
<trkpt lat="34.8450320" lon="33.4080151">
<ele>165.76</ele>
<time>2015-05-01T11:04:51Z</time>
</trkpt>
<trkpt lat="34.8451003" lon="33.4080060">
<ele>165.95</ele>
<time>2015-05-01T11:04:53Z</time>
</trkpt>
<trkpt lat="34.8451640" lon="33.4080012">
<ele>166.00</ele>
<time>2015-05-01T11:04:55Z</time>
</trkpt>
<trkpt lat="34.8452206" lon="33.4079944">
<ele>166.01</ele>
<time>2015-05-01T11:04:57Z</time>
</trkpt>
<trkpt lat="34.8452744" lon="33.4079781">
<ele>166.02</ele>
<time>2015-05-01T11:04:59Z</time>
</trkpt>
<trkpt lat="34.8453292" lon="33.4079624">
<ele>166.02</ele>
<time>2015-05-01T11:05:01Z</time>
</trkpt>
<trkpt lat="34.8453813" lon="33.4079537">
<ele>166.02</ele>
<time>2015-05-01T11:05:03Z</time>
</trkpt>
<trkpt lat="34.8454345" lon="33.4079430">
<ele>166.02</ele>
<time>2015-05-01T11:05:05Z</time>
</trkpt>
<trkpt lat="34.8454829" lon="33.4079322">
<ele>166.77</ele>
<time>2015-05-01T11:05:07Z</time>
</trkpt>
<trkpt lat="34.8455400" lon="33.4079153">
<ele>166.98</ele>
<time>2015-05-01T11:05:10Z</time>
</trkpt>
<trkpt lat="34.8455981" lon="33.4078878">
<ele>167.01</ele>
<time>2015-05-01T11:05:13Z</time>
</trkpt>
<trkpt lat="34.8456480" lon="33.4078520">
<ele>166.27</ele>
<time>2015-05-01T11:05:16Z</time>
</trkpt>
<trkpt lat="34.8456999" lon="33.4078240">
<ele>166.99</ele>
<time>2015-05-01T11:05:21Z</time>
</trkpt>
<trkpt lat="34.8457537" lon="33.4077915">
<ele>167.95</ele>
<time>2015-05-01T11:05:25Z</time>
</trkpt>
<trkpt lat="34.8457945" lon="33.4077629">
<ele>168.01</ele>
<time>2015-05-01T11:05:28Z</time>
</trkpt>
<trkpt lat="34.8458364" lon="33.4077298">
<ele>167.89</ele>
<time>2015-05-01T11:05:31Z</time>
</trkpt>
<trkpt lat="34.8458805" lon="33.4076992">
<ele>168.75</ele>
<time>2015-05-01T11:05:34Z</time>
</trkpt>
<trkpt lat="34.8459248" lon="33.4076722">
<ele>168.98</ele>
<time>2015-05-01T11:05:37Z</time>
</trkpt>
<trkpt lat="34.8459599" lon="33.4076309">
<ele>168.26</ele>
<time>2015-05-01T11:05:40Z</time>
</trkpt>
<trkpt lat="34.8460012" lon="33.4075950">
<ele>168.92</ele>
<time>2015-05-01T11:05:43Z</time>
</trkpt>
<trkpt lat="34.8460425" lon="33.4075592">
<ele>169.00</ele>
<time>2015-05-01T11:05:46Z</time>
</trkpt>
<trkpt lat="34.8460811" lon="33.4075202">
<ele>169.89</ele>
<time>2015-05-01T11:05:49Z</time>
</trkpt>
<trkpt lat="34.8461191" lon="33.4074786">
<ele>170.63</ele>
<time>2015-05-01T11:05:52Z</time>
</trkpt>
<trkpt lat="34.8461536" lon="33.4074313">
<ele>170.97</ele>
<time>2015-05-01T11:05:55Z</time>
</trkpt>
<trkpt lat="34.8461943" lon="33.4073832">
<ele>171.01</ele>
<time>2015-05-01T11:05:58Z</time>
</trkpt>
<trkpt lat="34.8462378" lon="33.4073372">
<ele>171.89</ele>
<time>2015-05-01T11:06:01Z</time>
</trkpt>
<trkpt lat="34.8462736" lon="33.4072863">
<ele>172.00</ele>
<time>2015-05-01T11:06:04Z</time>
</trkpt>
<trkpt lat="34.8463101" lon="33.4072385">
<ele>172.89</ele>
<time>2015-05-01T11:06:07Z</time>
</trkpt>
<trkpt lat="34.8463461" lon="33.4071920">
<ele>173.75</ele>
<time>2015-05-01T11:06:10Z</time>
</trkpt>
<trkpt lat="34.8463732" lon="33.4071465">
<ele>173.98</ele>
<time>2015-05-01T11:06:13Z</time>
</trkpt>
<trkpt lat="34.8464107" lon="33.4071000">
<ele>174.02</ele>
<time>2015-05-01T11:08:05Z</time>
</trkpt>
<trkpt lat="34.8464364" lon="33.4070378">
<ele>173.77</ele>
<time>2015-05-01T11:08:12Z</time>
</trkpt>
<trkpt lat="34.8464683" lon="33.4069940">
<ele>173.99</ele>
<time>2015-05-01T11:08:15Z</time>
</trkpt>
<trkpt lat="34.8464978" lon="33.4069491">
<ele>174.01</ele>
<time>2015-05-01T11:08:18Z</time>
</trkpt>
<trkpt lat="34.8465331" lon="33.4068921">
<ele>174.02</ele>
<time>2015-05-01T11:08:22Z</time>
</trkpt>
<trkpt lat="34.8465678" lon="33.4068421">
<ele>174.02</ele>
<time>2015-05-01T11:08:26Z</time>
</trkpt>
<trkpt lat="34.8466009" lon="33.4067939">
<ele>175.89</ele>
<time>2015-05-01T11:08:47Z</time>
</trkpt>
<trkpt lat="34.8466386" lon="33.4067404">
<ele>177.63</ele>
<time>2015-05-01T11:08:50Z</time>
</trkpt>
<trkpt lat="34.8466731" lon="33.4066821">
<ele>178.84</ele>
<time>2015-05-01T11:08:53Z</time>
</trkpt>
<trkpt lat="34.8467086" lon="33.4066261">
<ele>179.74</ele>
<time>2015-05-01T11:08:56Z</time>
</trkpt>
<trkpt lat="34.8467394" lon="33.4065665">
<ele>179.98</ele>
<time>2015-05-01T11:08:59Z</time>
</trkpt>
<trkpt lat="34.8467670" lon="33.4065105">
<ele>180.01</ele>
<time>2015-05-01T11:09:02Z</time>
</trkpt>
<trkpt lat="34.8467981" lon="33.4064610">
<ele>180.02</ele>
<time>2015-05-01T11:09:05Z</time>
</trkpt>
<trkpt lat="34.8468302" lon="33.4064115">
<ele>180.77</ele>
<time>2015-05-01T11:09:08Z</time>
</trkpt>
<trkpt lat="34.8468605" lon="33.4063578">
<ele>180.98</ele>
<time>2015-05-01T11:09:11Z</time>
</trkpt>
<trkpt lat="34.8468904" lon="33.4063016">
<ele>181.89</ele>
<time>2015-05-01T11:09:14Z</time>
</trkpt>
<trkpt lat="34.8469255" lon="33.4062443">
<ele>182.75</ele>
<time>2015-05-01T11:09:17Z</time>
</trkpt>
<trkpt lat="34.8469594" lon="33.4061858">
<ele>182.98</ele>
<time>2015-05-01T11:09:20Z</time>
</trkpt>
<trkpt lat="34.8469919" lon="33.4061266">
<ele>183.01</ele>
<time>2015-05-01T11:09:23Z</time>
</trkpt>
<trkpt lat="34.8470259" lon="33.4060697">
<ele>184.64</ele>
<time>2015-05-01T11:09:26Z</time>
</trkpt>
<trkpt lat="34.8470584" lon="33.4060122">
<ele>184.97</ele>
<time>2015-05-01T11:09:29Z</time>
</trkpt>
<trkpt lat="34.8470910" lon="33.4059579">
<ele>185.76</ele>
<time>2015-05-01T11:09:32Z</time>
</trkpt>
<trkpt lat="34.8471188" lon="33.4059011">
<ele>186.48</ele>
<time>2015-05-01T11:09:35Z</time>
</trkpt>
<trkpt lat="34.8471502" lon="33.4058463">
<ele>186.95</ele>
<time>2015-05-01T11:09:38Z</time>
</trkpt>
<trkpt lat="34.8471804" lon="33.4057897">
<ele>187.01</ele>
<time>2015-05-01T11:09:41Z</time>
</trkpt>
<trkpt lat="34.8472110" lon="33.4057347">
<ele>187.76</ele>
<time>2015-05-01T11:09:44Z</time>
</trkpt>
<trkpt lat="34.8472380" lon="33.4056781">
<ele>187.98</ele>
<time>2015-05-01T11:09:47Z</time>
</trkpt>
<trkpt lat="34.8472677" lon="33.4056217">
<ele>188.01</ele>
<time>2015-05-01T11:09:50Z</time>
</trkpt>
<trkpt lat="34.8473039" lon="33.4055675">
<ele>188.52</ele>
<time>2015-05-01T11:09:53Z</time>
</trkpt>
<trkpt lat="34.8473363" lon="33.4055108">
<ele>188.95</ele>
<time>2015-05-01T11:09:56Z</time>
</trkpt>
<trkpt lat="34.8473668" lon="33.4054543">
<ele>189.76</ele>
<time>2015-05-01T11:09:59Z</time>
</trkpt>
<trkpt lat="34.8473940" lon="33.4054059">
<ele>189.98</ele>
<time>2015-05-01T11:10:02Z</time>
</trkpt>
<trkpt lat="34.8474254" lon="33.4053502">
<ele>190.95</ele>
<time>2015-05-01T11:10:06Z</time>
</trkpt>
<trkpt lat="34.8474560" lon="33.4052950">
<ele>191.01</ele>
<time>2015-05-01T11:10:10Z</time>
</trkpt>
<trkpt lat="34.8474827" lon="33.4052323">
<ele>191.02</ele>
<time>2015-05-01T11:10:14Z</time>
</trkpt>
<trkpt lat="34.8475149" lon="33.4051727">
<ele>191.95</ele>
<time>2015-05-01T11:10:18Z</time>
</trkpt>
<trkpt lat="34.8475453" lon="33.4051140">
<ele>192.01</ele>
<time>2015-05-01T11:10:22Z</time>
</trkpt>
<trkpt lat="34.8475826" lon="33.4050616">
<ele>192.02</ele>
<time>2015-05-01T11:10:26Z</time>
</trkpt>
<trkpt lat="34.8476117" lon="33.4050084">
<ele>192.02</ele>
<time>2015-05-01T11:10:30Z</time>
</trkpt>
<trkpt lat="34.8476466" lon="33.4049589">
<ele>191.27</ele>
<time>2015-05-01T11:10:34Z</time>
</trkpt>
<trkpt lat="34.8476781" lon="33.4049063">
<ele>191.03</ele>
<time>2015-05-01T11:10:38Z</time>
</trkpt>
<trkpt lat="34.8477111" lon="33.4048543">
<ele>191.02</ele>
<time>2015-05-01T11:10:42Z</time>
</trkpt>
<trkpt lat="34.8477480" lon="33.4048086">
<ele>191.02</ele>
<time>2015-05-01T11:10:46Z</time>
</trkpt>
<trkpt lat="34.8477701" lon="33.4047563">
<ele>190.27</ele>
<time>2015-05-01T11:10:50Z</time>
</trkpt>
<trkpt lat="34.8477963" lon="33.4046972">
<ele>190.97</ele>
<time>2015-05-01T11:10:54Z</time>
</trkpt>
<trkpt lat="34.8478226" lon="33.4046510">
<ele>191.01</ele>
<time>2015-05-01T11:10:57Z</time>
</trkpt>
<trkpt lat="34.8478511" lon="33.4046004">
<ele>191.02</ele>
<time>2015-05-01T11:11:00Z</time>
</trkpt>
<trkpt lat="34.8478813" lon="33.4045530">
<ele>191.02</ele>
<time>2015-05-01T11:11:03Z</time>
</trkpt>
<trkpt lat="34.8479126" lon="33.4045066">
<ele>191.02</ele>
<time>2015-05-01T11:11:06Z</time>
</trkpt>
<trkpt lat="34.8479405" lon="33.4044579">
<ele>190.52</ele>
<time>2015-05-01T11:11:09Z</time>
</trkpt>
<trkpt lat="34.8479684" lon="33.4044108">
<ele>190.58</ele>
<time>2015-05-01T11:11:12Z</time>
</trkpt>
<trkpt lat="34.8480054" lon="33.4043754">
<ele>191.46</ele>
<time>2015-05-01T11:11:15Z</time>
</trkpt>
<trkpt lat="34.8480440" lon="33.4043232">
<ele>191.11</ele>
<time>2015-05-01T11:11:19Z</time>
</trkpt>
<trkpt lat="34.8480782" lon="33.4042682">
<ele>191.02</ele>
<time>2015-05-01T11:11:23Z</time>
</trkpt>
<trkpt lat="34.8481180" lon="33.4042155">
<ele>191.52</ele>
<time>2015-05-01T11:11:27Z</time>
</trkpt>
<trkpt lat="34.8481579" lon="33.4041631">
<ele>191.92</ele>
<time>2015-05-01T11:11:31Z</time>
</trkpt>
<trkpt lat="34.8481920" lon="33.4041245">
<ele>192.00</ele>
<time>2015-05-01T11:11:34Z</time>
</trkpt>
<trkpt lat="34.8482513" lon="33.4041112">
<ele>192.76</ele>
<time>2015-05-01T11:11:37Z</time>
</trkpt>
<trkpt lat="34.8483007" lon="33.4040853">
<ele>193.45</ele>
<time>2015-05-01T11:11:39Z</time>
</trkpt>
<trkpt lat="34.8483487" lon="33.4040543">
<ele>194.38</ele>
<time>2015-05-01T11:11:41Z</time>
</trkpt>
<trkpt lat="34.8483913" lon="33.4040337">
<ele>194.86</ele>
<time>2015-05-01T11:11:43Z</time>
</trkpt>
<trkpt lat="34.8484006" lon="33.4039723">
<ele>193.06</ele>
<time>2015-05-01T11:12:50Z</time>
</trkpt>
<trkpt lat="34.8483869" lon="33.4039164">
<ele>193.14</ele>
<time>2015-05-01T11:12:55Z</time>
</trkpt>
<trkpt lat="34.8483880" lon="33.4038498">
<ele>193.02</ele>
<time>2015-05-01T11:13:00Z</time>
</trkpt>
<trkpt lat="34.8484218" lon="33.4038107">
<ele>192.27</ele>
<time>2015-05-01T11:13:08Z</time>
</trkpt>
<trkpt lat="34.8484684" lon="33.4037638">
<ele>192.16</ele>
<time>2015-05-01T11:13:12Z</time>
</trkpt>
<trkpt lat="34.8485065" lon="33.4037112">
<ele>193.41</ele>
<time>2015-05-01T11:13:15Z</time>
</trkpt>
<trkpt lat="34.8485502" lon="33.4036644">
<ele>194.44</ele>
<time>2015-05-01T11:13:18Z</time>
</trkpt>
<trkpt lat="34.8485918" lon="33.4036228">
<ele>195.69</ele>
<time>2015-05-01T11:13:21Z</time>
</trkpt>
<trkpt lat="34.8486287" lon="33.4035826">
<ele>196.73</ele>
<time>2015-05-01T11:13:24Z</time>
</trkpt>
<trkpt lat="34.8486627" lon="33.4035465">
<ele>197.73</ele>
<time>2015-05-01T11:13:27Z</time>
</trkpt>
<trkpt lat="34.8487003" lon="33.4035155">
<ele>197.98</ele>
<time>2015-05-01T11:13:30Z</time>
</trkpt>
<trkpt lat="34.8487345" lon="33.4034752">
<ele>198.76</ele>
<time>2015-05-01T11:13:33Z</time>
</trkpt>
<trkpt lat="34.8487733" lon="33.4034339">
<ele>199.48</ele>
<time>2015-05-01T11:13:36Z</time>
</trkpt>
<trkpt lat="34.8488143" lon="33.4033954">
<ele>199.95</ele>
<time>2015-05-01T11:13:39Z</time>
</trkpt>
<trkpt lat="34.8488515" lon="33.4033516">
<ele>200.88</ele>
<time>2015-05-01T11:13:42Z</time>
</trkpt>
<trkpt lat="34.8488870" lon="33.4033027">
<ele>201.00</ele>
<time>2015-05-01T11:13:45Z</time>
</trkpt>
<trkpt lat="34.8489285" lon="33.4032552">
<ele>201.89</ele>
<time>2015-05-01T11:13:48Z</time>
</trkpt>
<trkpt lat="34.8489622" lon="33.4032088">
<ele>202.48</ele>
<time>2015-05-01T11:13:50Z</time>
</trkpt>
<trkpt lat="34.8490070" lon="33.4031566">
<ele>202.95</ele>
<time>2015-05-01T11:13:53Z</time>
</trkpt>
<trkpt lat="34.8490440" lon="33.4031077">
<ele>203.89</ele>
<time>2015-05-01T11:13:57Z</time>
</trkpt>
<trkpt lat="34.8490807" lon="33.4030526">
<ele>204.00</ele>
<time>2015-05-01T11:14:00Z</time>
</trkpt>
<trkpt lat="34.8491182" lon="33.4030040">
<ele>204.89</ele>
<time>2015-05-01T11:14:03Z</time>
</trkpt>
<trkpt lat="34.8491548" lon="33.4029498">
<ele>205.00</ele>
<time>2015-05-01T11:14:06Z</time>
</trkpt>
<trkpt lat="34.8491836" lon="33.4029026">
<ele>205.01</ele>
<time>2015-05-01T11:14:08Z</time>
</trkpt>
<trkpt lat="34.8492113" lon="33.4028593">
<ele>205.77</ele>
<time>2015-05-01T11:14:10Z</time>
</trkpt>
<trkpt lat="34.8492363" lon="33.4028127">
<ele>205.95</ele>
<time>2015-05-01T11:14:12Z</time>
</trkpt>
<trkpt lat="34.8492644" lon="33.4027588">
<ele>206.01</ele>
<time>2015-05-01T11:14:15Z</time>
</trkpt>
<trkpt lat="34.8492920" lon="33.4027038">
<ele>206.02</ele>
<time>2015-05-01T11:14:18Z</time>
</trkpt>
<trkpt lat="34.8493241" lon="33.4026427">
<ele>206.02</ele>
<time>2015-05-01T11:14:21Z</time>
</trkpt>
<trkpt lat="34.8493590" lon="33.4025812">
<ele>206.02</ele>
<time>2015-05-01T11:14:24Z</time>
</trkpt>
<trkpt lat="34.8493960" lon="33.4025129">
<ele>206.89</ele>
<time>2015-05-01T11:14:27Z</time>
</trkpt>
<trkpt lat="34.8494246" lon="33.4024541">
<ele>206.98</ele>
<time>2015-05-01T11:14:29Z</time>
</trkpt>
<trkpt lat="34.8494486" lon="33.4024001">
<ele>207.01</ele>
<time>2015-05-01T11:14:31Z</time>
</trkpt>
<trkpt lat="34.8494719" lon="33.4023464">
<ele>207.01</ele>
<time>2015-05-01T11:14:33Z</time>
</trkpt>
<trkpt lat="34.8494977" lon="33.4022970">
<ele>207.52</ele>
<time>2015-05-01T11:14:35Z</time>
</trkpt>
<trkpt lat="34.8495238" lon="33.4022445">
<ele>207.89</ele>
<time>2015-05-01T11:14:37Z</time>
</trkpt>
<trkpt lat="34.8495463" lon="33.4021920">
<ele>207.98</ele>
<time>2015-05-01T11:14:39Z</time>
</trkpt>
<trkpt lat="34.8495748" lon="33.4021413">
<ele>208.76</ele>
<time>2015-05-01T11:14:41Z</time>
</trkpt>
<trkpt lat="34.8496017" lon="33.4020926">
<ele>208.95</ele>
<time>2015-05-01T11:14:43Z</time>
</trkpt>
<trkpt lat="34.8496272" lon="33.4020399">
<ele>209.00</ele>
<time>2015-05-01T11:14:45Z</time>
</trkpt>
<trkpt lat="34.8496540" lon="33.4019893">
<ele>209.01</ele>
<time>2015-05-01T11:14:47Z</time>
</trkpt>
<trkpt lat="34.8496828" lon="33.4019370">
<ele>209.76</ele>
<time>2015-05-01T11:14:49Z</time>
</trkpt>
<trkpt lat="34.8497112" lon="33.4018847">
<ele>210.70</ele>
<time>2015-05-01T11:14:51Z</time>
</trkpt>
<trkpt lat="34.8497397" lon="33.4018295">
<ele>211.69</ele>
<time>2015-05-01T11:14:53Z</time>
</trkpt>
<trkpt lat="34.8497655" lon="33.4017744">
<ele>211.93</ele>
<time>2015-05-01T11:14:55Z</time>
</trkpt>
<trkpt lat="34.8497940" lon="33.4017195">
<ele>212.50</ele>
<time>2015-05-01T11:14:57Z</time>
</trkpt>
<trkpt lat="34.8498221" lon="33.4016686">
<ele>212.89</ele>
<time>2015-05-01T11:14:59Z</time>
</trkpt>
<trkpt lat="34.8498475" lon="33.4016190">
<ele>212.98</ele>
<time>2015-05-01T11:15:01Z</time>
</trkpt>
<trkpt lat="34.8498716" lon="33.4015614">
<ele>213.89</ele>
<time>2015-05-01T11:15:04Z</time>
</trkpt>
<trkpt lat="34.8499027" lon="33.4015031">
<ele>214.75</ele>
<time>2015-05-01T11:15:07Z</time>
</trkpt>
<trkpt lat="34.8499329" lon="33.4014396">
<ele>214.98</ele>
<time>2015-05-01T11:15:10Z</time>
</trkpt>
<trkpt lat="34.8499646" lon="33.4013742">
<ele>215.01</ele>
<time>2015-05-01T11:15:13Z</time>
</trkpt>
<trkpt lat="34.8499961" lon="33.4013104">
<ele>215.02</ele>
<time>2015-05-01T11:15:16Z</time>
</trkpt>
<trkpt lat="34.8500268" lon="33.4012495">
<ele>215.89</ele>
<time>2015-05-01T11:15:19Z</time>
</trkpt>
<trkpt lat="34.8500643" lon="33.4011926">
<ele>216.00</ele>
<time>2015-05-01T11:15:22Z</time>
</trkpt>
<trkpt lat="34.8500962" lon="33.4011272">
<ele>216.01</ele>
<time>2015-05-01T11:15:25Z</time>
</trkpt>
<trkpt lat="34.8501268" lon="33.4010589">
<ele>216.77</ele>
<time>2015-05-01T11:15:28Z</time>
</trkpt>
<trkpt lat="34.8501558" lon="33.4009886">
<ele>216.98</ele>
<time>2015-05-01T11:15:31Z</time>
</trkpt>
<trkpt lat="34.8501806" lon="33.4009420">
<ele>217.01</ele>
<time>2015-05-01T11:15:33Z</time>
</trkpt>
<trkpt lat="34.8502041" lon="33.4008950">
<ele>217.01</ele>
<time>2015-05-01T11:15:35Z</time>
</trkpt>
<trkpt lat="34.8502267" lon="33.4008451">
<ele>217.77</ele>
<time>2015-05-01T11:15:37Z</time>
</trkpt>
<trkpt lat="34.8502512" lon="33.4007952">
<ele>217.95</ele>
<time>2015-05-01T11:15:39Z</time>
</trkpt>
<trkpt lat="34.8502831" lon="33.4007371">
<ele>218.00</ele>
<time>2015-05-01T11:15:41Z</time>
</trkpt>
<trkpt lat="34.8503150" lon="33.4006893">
<ele>218.89</ele>
<time>2015-05-01T11:15:44Z</time>
</trkpt>
<trkpt lat="34.8503404" lon="33.4006343">
<ele>218.26</ele>
<time>2015-05-01T11:15:48Z</time>
</trkpt>
<trkpt lat="34.8503762" lon="33.4005750">
<ele>218.92</ele>
<time>2015-05-01T11:15:51Z</time>
</trkpt>
<trkpt lat="34.8504068" lon="33.4005098">
<ele>219.00</ele>
<time>2015-05-01T11:15:54Z</time>
</trkpt>
<trkpt lat="34.8504407" lon="33.4004412">
<ele>219.01</ele>
<time>2015-05-01T11:15:57Z</time>
</trkpt>
<trkpt lat="34.8504672" lon="33.4003894">
<ele>219.02</ele>
<time>2015-05-01T11:16:00Z</time>
</trkpt>
<trkpt lat="34.8504963" lon="33.4003326">
<ele>219.02</ele>
<time>2015-05-01T11:16:04Z</time>
</trkpt>
<trkpt lat="34.8505211" lon="33.4002826">
<ele>219.02</ele>
<time>2015-05-01T11:16:07Z</time>
</trkpt>
<trkpt lat="34.8505464" lon="33.4002280">
<ele>219.02</ele>
<time>2015-05-01T11:16:10Z</time>
</trkpt>
<trkpt lat="34.8505768" lon="33.4001705">
<ele>219.02</ele>
<time>2015-05-01T11:16:13Z</time>
</trkpt>
<trkpt lat="34.8506082" lon="33.4001106">
<ele>219.02</ele>
<time>2015-05-01T11:16:16Z</time>
</trkpt>
<trkpt lat="34.8506360" lon="33.4000465">
<ele>219.02</ele>
<time>2015-05-01T11:16:19Z</time>
</trkpt>
<trkpt lat="34.8506641" lon="33.3999828">
<ele>219.02</ele>
<time>2015-05-01T11:16:22Z</time>
</trkpt>
<trkpt lat="34.8506892" lon="33.3999164">
<ele>219.52</ele>
<time>2015-05-01T11:16:25Z</time>
</trkpt>
<trkpt lat="34.8507201" lon="33.3998582">
<ele>219.70</ele>
<time>2015-05-01T11:16:28Z</time>
</trkpt>
<trkpt lat="34.8507419" lon="33.3997947">
<ele>219.98</ele>
<time>2015-05-01T11:16:31Z</time>
</trkpt>
<trkpt lat="34.8507697" lon="33.3997320">
<ele>220.01</ele>
<time>2015-05-01T11:16:34Z</time>
</trkpt>
<trkpt lat="34.8508013" lon="33.3996711">
<ele>220.02</ele>
<time>2015-05-01T11:16:37Z</time>
</trkpt>
<trkpt lat="34.8508392" lon="33.3996158">
<ele>220.02</ele>
<time>2015-05-01T11:16:40Z</time>
</trkpt>
<trkpt lat="34.8508683" lon="33.3995408">
<ele>220.52</ele>
<time>2015-05-01T11:16:43Z</time>
</trkpt>
<trkpt lat="34.8508924" lon="33.3994817">
<ele>220.89</ele>
<time>2015-05-01T11:16:45Z</time>
</trkpt>
<trkpt lat="34.8509139" lon="33.3994322">
<ele>220.98</ele>
<time>2015-05-01T11:16:47Z</time>
</trkpt>
<trkpt lat="34.8509473" lon="33.3993642">
<ele>221.01</ele>
<time>2015-05-01T11:16:50Z</time>
</trkpt>
<trkpt lat="34.8509717" lon="33.3993167">
<ele>221.02</ele>
<time>2015-05-01T11:16:52Z</time>
</trkpt>
<trkpt lat="34.8509966" lon="33.3992692">
<ele>221.77</ele>
<time>2015-05-01T11:16:54Z</time>
</trkpt>
<trkpt lat="34.8510229" lon="33.3992180">
<ele>221.95</ele>
<time>2015-05-01T11:16:56Z</time>
</trkpt>
<trkpt lat="34.8510518" lon="33.3991697">
<ele>222.00</ele>
<time>2015-05-01T11:16:58Z</time>
</trkpt>
<trkpt lat="34.8510814" lon="33.3991190">
<ele>222.76</ele>
<time>2015-05-01T11:17:00Z</time>
</trkpt>
<trkpt lat="34.8511096" lon="33.3990684">
<ele>222.95</ele>
<time>2015-05-01T11:17:02Z</time>
</trkpt>
<trkpt lat="34.8511368" lon="33.3990152">
<ele>223.00</ele>
<time>2015-05-01T11:17:04Z</time>
</trkpt>
<trkpt lat="34.8511663" lon="33.3989665">
<ele>223.51</ele>
<time>2015-05-01T11:17:06Z</time>
</trkpt>
<trkpt lat="34.8511968" lon="33.3989159">
<ele>223.89</ele>
<time>2015-05-01T11:17:08Z</time>
</trkpt>
<trkpt lat="34.8512279" lon="33.3988677">
<ele>223.98</ele>
<time>2015-05-01T11:17:10Z</time>
</trkpt>
<trkpt lat="34.8512608" lon="33.3988178">
<ele>224.51</ele>
<time>2015-05-01T11:17:12Z</time>
</trkpt>
<trkpt lat="34.8512905" lon="33.3987681">
<ele>224.89</ele>
<time>2015-05-01T11:17:14Z</time>
</trkpt>
<trkpt lat="34.8513228" lon="33.3987194">
<ele>224.98</ele>
<time>2015-05-01T11:17:16Z</time>
</trkpt>
<trkpt lat="34.8513523" lon="33.3986726">
<ele>225.51</ele>
<time>2015-05-01T11:17:18Z</time>
</trkpt>
<trkpt lat="34.8513806" lon="33.3986169">
<ele>225.98</ele>
<time>2015-05-01T11:17:22Z</time>
</trkpt>
<trkpt lat="34.8514148" lon="33.3985705">
<ele>226.01</ele>
<time>2015-05-01T11:17:25Z</time>
</trkpt>
<trkpt lat="34.8514590" lon="33.3985100">
<ele>226.02</ele>
<time>2015-05-01T11:17:28Z</time>
</trkpt>
<trkpt lat="34.8515014" lon="33.3984464">
<ele>226.77</ele>
<time>2015-05-01T11:17:31Z</time>
</trkpt>
<trkpt lat="34.8515363" lon="33.3984066">
<ele>227.45</ele>
<time>2015-05-01T11:17:33Z</time>
</trkpt>
<trkpt lat="34.8515663" lon="33.3983636">
<ele>227.88</ele>
<time>2015-05-01T11:17:35Z</time>
</trkpt>
<trkpt lat="34.8516008" lon="33.3983233">
<ele>227.98</ele>
<time>2015-05-01T11:17:37Z</time>
</trkpt>
<trkpt lat="34.8516327" lon="33.3982830">
<ele>228.51</ele>
<time>2015-05-01T11:17:39Z</time>
</trkpt>
<trkpt lat="34.8516643" lon="33.3982390">
<ele>228.89</ele>
<time>2015-05-01T11:17:41Z</time>
</trkpt>
<trkpt lat="34.8517130" lon="33.3981817">
<ele>229.50</ele>
<time>2015-05-01T11:17:44Z</time>
</trkpt>
<trkpt lat="34.8517548" lon="33.3981232">
<ele>229.95</ele>
<time>2015-05-01T11:17:47Z</time>
</trkpt>
<trkpt lat="34.8517987" lon="33.3980787">
<ele>229.76</ele>
<time>2015-05-01T11:17:51Z</time>
</trkpt>
<trkpt lat="34.8518416" lon="33.3980509">
<ele>229.98</ele>
<time>2015-05-01T11:17:54Z</time>
</trkpt>
<trkpt lat="34.8518708" lon="33.3979990">
<ele>230.26</ele>
<time>2015-05-01T11:17:57Z</time>
</trkpt>
<trkpt lat="34.8519026" lon="33.3979483">
<ele>230.67</ele>
<time>2015-05-01T11:18:00Z</time>
</trkpt>
<trkpt lat="34.8519455" lon="33.3978982">
<ele>230.97</ele>
<time>2015-05-01T11:18:03Z</time>
</trkpt>
<trkpt lat="34.8519870" lon="33.3978370">
<ele>231.51</ele>
<time>2015-05-01T11:18:06Z</time>
</trkpt>
<trkpt lat="34.8520289" lon="33.3977899">
<ele>231.83</ele>
<time>2015-05-01T11:18:09Z</time>
</trkpt>
<trkpt lat="34.8520689" lon="33.3977389">
<ele>231.94</ele>
<time>2015-05-01T11:18:13Z</time>
</trkpt>
<trkpt lat="34.8521001" lon="33.3976960">
<ele>232.01</ele>
<time>2015-05-01T11:18:16Z</time>
</trkpt>
<trkpt lat="34.8521454" lon="33.3976567">
<ele>232.51</ele>
<time>2015-05-01T11:18:19Z</time>
</trkpt>
<trkpt lat="34.8521903" lon="33.3976046">
<ele>232.95</ele>
<time>2015-05-01T11:18:22Z</time>
</trkpt>
<trkpt lat="34.8522301" lon="33.3975603">
<ele>233.63</ele>
<time>2015-05-01T11:18:25Z</time>
</trkpt>
<trkpt lat="34.8522715" lon="33.3975146">
<ele>233.97</ele>
<time>2015-05-01T11:18:28Z</time>
</trkpt>
<trkpt lat="34.8523136" lon="33.3974682">
<ele>235.39</ele>
<time>2015-05-01T11:18:31Z</time>
</trkpt>
<trkpt lat="34.8523536" lon="33.3974198">
<ele>235.94</ele>
<time>2015-05-01T11:18:34Z</time>
</trkpt>
<trkpt lat="34.8523925" lon="33.3973784">
<ele>236.88</ele>
<time>2015-05-01T11:18:37Z</time>
</trkpt>
<trkpt lat="34.8524349" lon="33.3973398">
<ele>237.50</ele>
<time>2015-05-01T11:18:40Z</time>
</trkpt>
<trkpt lat="34.8524775" lon="33.3972985">
<ele>238.20</ele>
<time>2015-05-01T11:18:43Z</time>
</trkpt>
<trkpt lat="34.8525207" lon="33.3972592">
<ele>238.91</ele>
<time>2015-05-01T11:18:46Z</time>
</trkpt>
<trkpt lat="34.8525634" lon="33.3972073">
<ele>239.88</ele>
<time>2015-05-01T11:18:49Z</time>
</trkpt>
<trkpt lat="34.8526099" lon="33.3971722">
<ele>240.00</ele>
<time>2015-05-01T11:18:52Z</time>
</trkpt>
<trkpt lat="34.8526506" lon="33.3971250">
<ele>240.76</ele>
<time>2015-05-01T11:18:56Z</time>
</trkpt>
<trkpt lat="34.8526841" lon="33.3970838">
<ele>240.98</ele>
<time>2015-05-01T11:18:59Z</time>
</trkpt>
<trkpt lat="34.8527236" lon="33.3970508">
<ele>241.01</ele>
<time>2015-05-01T11:19:02Z</time>
</trkpt>
<trkpt lat="34.8527656" lon="33.3970136">
<ele>241.89</ele>
<time>2015-05-01T11:19:05Z</time>
</trkpt>
<trkpt lat="34.8528073" lon="33.3969702">
<ele>242.00</ele>
<time>2015-05-01T11:19:08Z</time>
</trkpt>
<trkpt lat="34.8528489" lon="33.3969288">
<ele>242.01</ele>
<time>2015-05-01T11:19:11Z</time>
</trkpt>
<trkpt lat="34.8528938" lon="33.3968861">
<ele>242.02</ele>
<time>2015-05-01T11:19:14Z</time>
</trkpt>
<trkpt lat="34.8529419" lon="33.3968457">
<ele>242.02</ele>
<time>2015-05-01T11:19:17Z</time>
</trkpt>
<trkpt lat="34.8529883" lon="33.3968055">
<ele>242.02</ele>
<time>2015-05-01T11:19:20Z</time>
</trkpt>
<trkpt lat="34.8530291" lon="33.3967583">
<ele>242.89</ele>
<time>2015-05-01T11:19:23Z</time>
</trkpt>
<trkpt lat="34.8530656" lon="33.3967261">
<ele>242.98</ele>
<time>2015-05-01T11:19:25Z</time>
</trkpt>
<trkpt lat="34.8531031" lon="33.3966904">
<ele>243.01</ele>
<time>2015-05-01T11:19:27Z</time>
</trkpt>
<trkpt lat="34.8531458" lon="33.3966504">
<ele>243.01</ele>
<time>2015-05-01T11:19:29Z</time>
</trkpt>
<trkpt lat="34.8531966" lon="33.3966095">
<ele>243.77</ele>
<time>2015-05-01T11:19:31Z</time>
</trkpt>
<trkpt lat="34.8532495" lon="33.3965705">
<ele>243.70</ele>
<time>2015-05-01T11:19:33Z</time>
</trkpt>
<trkpt lat="34.8532993" lon="33.3965311">
<ele>244.44</ele>
<time>2015-05-01T11:19:35Z</time>
</trkpt>
<trkpt lat="34.8533438" lon="33.3964927">
<ele>245.37</ele>
<time>2015-05-01T11:19:37Z</time>
</trkpt>
<trkpt lat="34.8533979" lon="33.3964479">
<ele>246.44</ele>
<time>2015-05-01T11:19:40Z</time>
</trkpt>
<trkpt lat="34.8534526" lon="33.3964072">
<ele>247.44</ele>
<time>2015-05-01T11:19:43Z</time>
</trkpt>
<trkpt lat="34.8534916" lon="33.3963793">
<ele>247.87</ele>
<time>2015-05-01T11:19:45Z</time>
</trkpt>
<trkpt lat="34.8535291" lon="33.3963483">
<ele>248.73</ele>
<time>2015-05-01T11:19:47Z</time>
</trkpt>
<trkpt lat="34.8535816" lon="33.3963001">
<ele>249.48</ele>
<time>2015-05-01T11:19:50Z</time>
</trkpt>
<trkpt lat="34.8536200" lon="33.3962710">
<ele>249.88</ele>
<time>2015-05-01T11:19:52Z</time>
</trkpt>
<trkpt lat="34.8536597" lon="33.3962448">
<ele>250.73</ele>
<time>2015-05-01T11:19:54Z</time>
</trkpt>
<trkpt lat="34.8537107" lon="33.3962010">
<ele>250.11</ele>
<time>2015-05-01T11:19:57Z</time>
</trkpt>
<trkpt lat="34.8537474" lon="33.3961668">
<ele>250.96</ele>
<time>2015-05-01T11:20:01Z</time>
</trkpt>
<trkpt lat="34.8537853" lon="33.3961364">
<ele>251.01</ele>
<time>2015-05-01T11:20:04Z</time>
</trkpt>
<trkpt lat="34.8538249" lon="33.3961104">
<ele>251.01</ele>
<time>2015-05-01T11:20:06Z</time>
</trkpt>
<trkpt lat="34.8538666" lon="33.3960843">
<ele>251.02</ele>
<time>2015-05-01T11:20:08Z</time>
</trkpt>
<trkpt lat="34.8539229" lon="33.3960399">
<ele>251.02</ele>
<time>2015-05-01T11:20:11Z</time>
</trkpt>
<trkpt lat="34.8539797" lon="33.3959966">
<ele>251.02</ele>
<time>2015-05-01T11:20:14Z</time>
</trkpt>
<trkpt lat="34.8540192" lon="33.3959701">
<ele>251.52</ele>
<time>2015-05-01T11:20:16Z</time>
</trkpt>
<trkpt lat="34.8540634" lon="33.3959395">
<ele>251.98</ele>
<time>2015-05-01T11:20:20Z</time>
</trkpt>
<trkpt lat="34.8541205" lon="33.3959125">
<ele>250.52</ele>
<time>2015-05-01T11:22:11Z</time>
</trkpt>
<trkpt lat="34.8541668" lon="33.3958821">
<ele>251.64</ele>
<time>2015-05-01T11:22:13Z</time>
</trkpt>
<trkpt lat="34.8542130" lon="33.3958514">
<ele>251.92</ele>
<time>2015-05-01T11:22:15Z</time>
</trkpt>
<trkpt lat="34.8542647" lon="33.3958265">
<ele>251.99</ele>
<time>2015-05-01T11:22:17Z</time>
</trkpt>
<trkpt lat="34.8543163" lon="33.3958038">
<ele>252.01</ele>
<time>2015-05-01T11:22:19Z</time>
</trkpt>
<trkpt lat="34.8543671" lon="33.3957795">
<ele>252.01</ele>
<time>2015-05-01T11:22:21Z</time>
</trkpt>
<trkpt lat="34.8544143" lon="33.3957549">
<ele>252.52</ele>
<time>2015-05-01T11:22:23Z</time>
</trkpt>
<trkpt lat="34.8544612" lon="33.3957274">
<ele>252.89</ele>
<time>2015-05-01T11:22:25Z</time>
</trkpt>
<trkpt lat="34.8545055" lon="33.3957016">
<ele>252.98</ele>
<time>2015-05-01T11:22:27Z</time>
</trkpt>
<trkpt lat="34.8545506" lon="33.3956728">
<ele>253.01</ele>
<time>2015-05-01T11:22:29Z</time>
</trkpt>
<trkpt lat="34.8545947" lon="33.3956453">
<ele>253.01</ele>
<time>2015-05-01T11:22:31Z</time>
</trkpt>
<trkpt lat="34.8546369" lon="33.3956160">
<ele>252.77</ele>
<time>2015-05-01T11:22:33Z</time>
</trkpt>
<trkpt lat="34.8546799" lon="33.3955911">
<ele>253.70</ele>
<time>2015-05-01T11:22:35Z</time>
</trkpt>
<trkpt lat="34.8547239" lon="33.3955658">
<ele>253.94</ele>
<time>2015-05-01T11:22:37Z</time>
</trkpt>
<trkpt lat="34.8547739" lon="33.3955420">
<ele>254.76</ele>
<time>2015-05-01T11:22:41Z</time>
</trkpt>
<trkpt lat="34.8548263" lon="33.3955203">
<ele>256.23</ele>
<time>2015-05-01T11:22:44Z</time>
</trkpt>
<trkpt lat="34.8548889" lon="33.3954845">
<ele>257.42</ele>
<time>2015-05-01T11:22:47Z</time>
</trkpt>
<trkpt lat="34.8549475" lon="33.3954540">
<ele>258.62</ele>
<time>2015-05-01T11:22:49Z</time>
</trkpt>
<trkpt lat="34.8549954" lon="33.3954261">
<ele>258.92</ele>
<time>2015-05-01T11:22:51Z</time>
</trkpt>
<trkpt lat="34.8550448" lon="33.3954033">
<ele>259.99</ele>
<time>2015-05-01T11:22:53Z</time>
</trkpt>
<trkpt lat="34.8550910" lon="33.3953835">
<ele>261.51</ele>
<time>2015-05-01T11:22:55Z</time>
</trkpt>
<trkpt lat="34.8551399" lon="33.3953637">
<ele>261.14</ele>
<time>2015-05-01T11:22:57Z</time>
</trkpt>
<trkpt lat="34.8551863" lon="33.3953492">
<ele>260.30</ele>
<time>2015-05-01T11:22:59Z</time>
</trkpt>
<trkpt lat="34.8552350" lon="33.3953173">
<ele>260.80</ele>
<time>2015-05-01T11:23:02Z</time>
</trkpt>
<trkpt lat="34.8552775" lon="33.3952957">
<ele>262.21</ele>
<time>2015-05-01T11:23:04Z</time>
</trkpt>
<trkpt lat="34.8553294" lon="33.3952725">
<ele>263.07</ele>
<time>2015-05-01T11:23:06Z</time>
</trkpt>
<trkpt lat="34.8553849" lon="33.3952458">
<ele>262.53</ele>
<time>2015-05-01T11:23:08Z</time>
</trkpt>
<trkpt lat="34.8554358" lon="33.3952171">
<ele>262.64</ele>
<time>2015-05-01T11:23:10Z</time>
</trkpt>
<trkpt lat="34.8554843" lon="33.3951864">
<ele>262.92</ele>
<time>2015-05-01T11:23:12Z</time>
</trkpt>
<trkpt lat="34.8555325" lon="33.3951636">
<ele>263.24</ele>
<time>2015-05-01T11:23:14Z</time>
</trkpt>
<trkpt lat="34.8555846" lon="33.3951398">
<ele>263.07</ele>
<time>2015-05-01T11:23:16Z</time>
</trkpt>
<trkpt lat="34.8556354" lon="33.3951196">
<ele>263.28</ele>
<time>2015-05-01T11:23:18Z</time>
</trkpt>
<trkpt lat="34.8556884" lon="33.3950988">
<ele>263.08</ele>
<time>2015-05-01T11:23:20Z</time>
</trkpt>
<trkpt lat="34.8557421" lon="33.3950812">
<ele>264.28</ele>
<time>2015-05-01T11:23:22Z</time>
</trkpt>
<trkpt lat="34.8557981" lon="33.3950639">
<ele>266.08</ele>
<time>2015-05-01T11:23:24Z</time>
</trkpt>
<trkpt lat="34.8558533" lon="33.3950504">
<ele>267.78</ele>
<time>2015-05-01T11:23:26Z</time>
</trkpt>
<trkpt lat="34.8559113" lon="33.3950315">
<ele>269.71</ele>
<time>2015-05-01T11:23:28Z</time>
</trkpt>
<trkpt lat="34.8559687" lon="33.3950115">
<ele>269.94</ele>
<time>2015-05-01T11:23:30Z</time>
</trkpt>
<trkpt lat="34.8560284" lon="33.3949893">
<ele>270.50</ele>
<time>2015-05-01T11:23:32Z</time>
</trkpt>
<trkpt lat="34.8560875" lon="33.3949704">
<ele>270.89</ele>
<time>2015-05-01T11:23:34Z</time>
</trkpt>
<trkpt lat="34.8561463" lon="33.3949503">
<ele>271.73</ele>
<time>2015-05-01T11:23:36Z</time>
</trkpt>
<trkpt lat="34.8562014" lon="33.3949326">
<ele>272.45</ele>
<time>2015-05-01T11:23:38Z</time>
</trkpt>
<trkpt lat="34.8562581" lon="33.3949131">
<ele>272.87</ele>
<time>2015-05-01T11:23:40Z</time>
</trkpt>
<trkpt lat="34.8563123" lon="33.3948910">
<ele>273.73</ele>
<time>2015-05-01T11:23:42Z</time>
</trkpt>
<trkpt lat="34.8563683" lon="33.3948720">
<ele>275.19</ele>
<time>2015-05-01T11:23:44Z</time>
</trkpt>
<trkpt lat="34.8564215" lon="33.3948524">
<ele>276.31</ele>
<time>2015-05-01T11:23:46Z</time>
</trkpt>
<trkpt lat="34.8564773" lon="33.3948335">
<ele>277.59</ele>
<time>2015-05-01T11:23:48Z</time>
</trkpt>
<trkpt lat="34.8565322" lon="33.3948173">
<ele>278.41</ele>
<time>2015-05-01T11:23:50Z</time>
</trkpt>
<trkpt lat="34.8565910" lon="33.3948012">
<ele>278.11</ele>
<time>2015-05-01T11:23:52Z</time>
</trkpt>
<trkpt lat="34.8566491" lon="33.3947854">
<ele>279.29</ele>
<time>2015-05-01T11:23:54Z</time>
</trkpt>
<trkpt lat="34.8567103" lon="33.3947692">
<ele>279.33</ele>
<time>2015-05-01T11:23:56Z</time>
</trkpt>
<trkpt lat="34.8567702" lon="33.3947545">
<ele>279.10</ele>
<time>2015-05-01T11:23:58Z</time>
</trkpt>
<trkpt lat="34.8568307" lon="33.3947429">
<ele>279.54</ele>
<time>2015-05-01T11:24:00Z</time>
</trkpt>
<trkpt lat="34.8568884" lon="33.3947353">
<ele>279.90</ele>
<time>2015-05-01T11:24:02Z</time>
</trkpt>
<trkpt lat="34.8569477" lon="33.3947223">
<ele>279.99</ele>
<time>2015-05-01T11:24:04Z</time>
</trkpt>
<trkpt lat="34.8570055" lon="33.3947112">
<ele>279.51</ele>
<time>2015-05-01T11:24:06Z</time>
</trkpt>
<trkpt lat="34.8570570" lon="33.3947028">
<ele>278.64</ele>
<time>2015-05-01T11:24:08Z</time>
</trkpt>
<trkpt lat="34.8571070" lon="33.3946877">
<ele>278.22</ele>
<time>2015-05-01T11:24:11Z</time>
</trkpt>
<trkpt lat="34.8571660" lon="33.3946757">
<ele>278.04</ele>
<time>2015-05-01T11:24:14Z</time>
</trkpt>
<trkpt lat="34.8572116" lon="33.3946666">
<ele>278.02</ele>
<time>2015-05-01T11:24:16Z</time>
</trkpt>
<trkpt lat="34.8572570" lon="33.3946565">
<ele>278.02</ele>
<time>2015-05-01T11:24:18Z</time>
</trkpt>
<trkpt lat="34.8573053" lon="33.3946490">
<ele>278.02</ele>
<time>2015-05-01T11:24:20Z</time>
</trkpt>
<trkpt lat="34.8573544" lon="33.3946419">
<ele>278.02</ele>
<time>2015-05-01T11:24:22Z</time>
</trkpt>
<trkpt lat="34.8574059" lon="33.3946316">
<ele>278.52</ele>
<time>2015-05-01T11:24:24Z</time>
</trkpt>
<trkpt lat="34.8574561" lon="33.3946225">
<ele>278.89</ele>
<time>2015-05-01T11:24:26Z</time>
</trkpt>
<trkpt lat="34.8575077" lon="33.3946144">
<ele>279.73</ele>
<time>2015-05-01T11:24:28Z</time>
</trkpt>
<trkpt lat="34.8575646" lon="33.3946041">
<ele>280.70</ele>
<time>2015-05-01T11:24:30Z</time>
</trkpt>
<trkpt lat="34.8576238" lon="33.3945950">
<ele>281.69</ele>
<time>2015-05-01T11:24:32Z</time>
</trkpt>
<trkpt lat="34.8576802" lon="33.3945818">
<ele>281.93</ele>
<time>2015-05-01T11:24:34Z</time>
</trkpt>
<trkpt lat="34.8577391" lon="33.3945696">
<ele>282.00</ele>
<time>2015-05-01T11:24:36Z</time>
</trkpt>
<trkpt lat="34.8577971" lon="33.3945584">
<ele>283.26</ele>
<time>2015-05-01T11:24:38Z</time>
</trkpt>
<trkpt lat="34.8578550" lon="33.3945481">
<ele>283.83</ele>
<time>2015-05-01T11:24:40Z</time>
</trkpt>
<trkpt lat="34.8579129" lon="33.3945424">
<ele>283.22</ele>
<time>2015-05-01T11:24:42Z</time>
</trkpt>
<trkpt lat="34.8579737" lon="33.3945374">
<ele>283.07</ele>
<time>2015-05-01T11:24:44Z</time>
</trkpt>
<trkpt lat="34.8580267" lon="33.3945362">
<ele>283.52</ele>
<time>2015-05-01T11:24:47Z</time>
</trkpt>
<trkpt lat="34.8580821" lon="33.3945402">
<ele>283.78</ele>
<time>2015-05-01T11:24:52Z</time>
</trkpt>
<trkpt lat="34.8581393" lon="33.3945311">
<ele>284.49</ele>
<time>2015-05-01T11:24:55Z</time>
</trkpt>
<trkpt lat="34.8581904" lon="33.3945243">
<ele>284.88</ele>
<time>2015-05-01T11:24:57Z</time>
</trkpt>
<trkpt lat="34.8582441" lon="33.3945166">
<ele>284.23</ele>
<time>2015-05-01T11:24:59Z</time>
</trkpt>
<trkpt lat="34.8583117" lon="33.3945092">
<ele>284.57</ele>
<time>2015-05-01T11:25:01Z</time>
</trkpt>
<trkpt lat="34.8583756" lon="33.3945028">
<ele>285.65</ele>
<time>2015-05-01T11:25:03Z</time>
</trkpt>
<trkpt lat="34.8584342" lon="33.3945001">
<ele>286.43</ele>
<time>2015-05-01T11:25:05Z</time>
</trkpt>
<trkpt lat="34.8584875" lon="33.3945017">
<ele>286.87</ele>
<time>2015-05-01T11:25:07Z</time>
</trkpt>
<trkpt lat="34.8585450" lon="33.3944981">
<ele>287.48</ele>
<time>2015-05-01T11:25:09Z</time>
</trkpt>
<trkpt lat="34.8586028" lon="33.3944898">
<ele>287.88</ele>
<time>2015-05-01T11:25:11Z</time>
</trkpt>
<trkpt lat="34.8586634" lon="33.3944849">
<ele>288.48</ele>
<time>2015-05-01T11:25:13Z</time>
</trkpt>
<trkpt lat="34.8587218" lon="33.3944846">
<ele>288.88</ele>
<time>2015-05-01T11:25:15Z</time>
</trkpt>
<trkpt lat="34.8587822" lon="33.3944837">
<ele>289.48</ele>
<time>2015-05-01T11:25:17Z</time>
</trkpt>
<trkpt lat="34.8588489" lon="33.3944807">
<ele>289.88</ele>
<time>2015-05-01T11:25:19Z</time>
</trkpt>
<trkpt lat="34.8589228" lon="33.3944784">
<ele>290.73</ele>
<time>2015-05-01T11:25:21Z</time>
</trkpt>
<trkpt lat="34.8589892" lon="33.3944831">
<ele>290.45</ele>
<time>2015-05-01T11:25:23Z</time>
</trkpt>
<trkpt lat="34.8590353" lon="33.3944852">
<ele>290.12</ele>
<time>2015-05-01T11:25:25Z</time>
</trkpt>
<trkpt lat="34.8590835" lon="33.3944880">
<ele>290.04</ele>
<time>2015-05-01T11:25:27Z</time>
</trkpt>
<trkpt lat="34.8591437" lon="33.3944905">
<ele>290.02</ele>
<time>2015-05-01T11:25:29Z</time>
</trkpt>
<trkpt lat="34.8592066" lon="33.3944959">
<ele>289.27</ele>
<time>2015-05-01T11:25:31Z</time>
</trkpt>
<trkpt lat="34.8592721" lon="33.3945053">
<ele>288.83</ele>
<time>2015-05-01T11:25:33Z</time>
</trkpt>
<trkpt lat="34.8593384" lon="33.3945095">
<ele>288.97</ele>
<time>2015-05-01T11:25:35Z</time>
</trkpt>
<trkpt lat="34.8594096" lon="33.3945111">
<ele>289.00</ele>
<time>2015-05-01T11:25:37Z</time>
</trkpt>
<trkpt lat="34.8594811" lon="33.3945118">
<ele>289.76</ele>
<time>2015-05-01T11:25:39Z</time>
</trkpt>
<trkpt lat="34.8595547" lon="33.3945145">
<ele>290.45</ele>
<time>2015-05-01T11:25:41Z</time>
</trkpt>
<trkpt lat="34.8596263" lon="33.3945210">
<ele>290.63</ele>
<time>2015-05-01T11:25:43Z</time>
</trkpt>
<trkpt lat="34.8597013" lon="33.3945317">
<ele>290.92</ele>
<time>2015-05-01T11:25:45Z</time>
</trkpt>
<trkpt lat="34.8597796" lon="33.3945409">
<ele>290.24</ele>
<time>2015-05-01T11:25:47Z</time>
</trkpt>
<trkpt lat="34.8598563" lon="33.3945466">
<ele>290.07</ele>
<time>2015-05-01T11:25:49Z</time>
</trkpt>
<trkpt lat="34.8599149" lon="33.3945506">
<ele>290.03</ele>
<time>2015-05-01T11:25:51Z</time>
</trkpt>
<trkpt lat="34.8599634" lon="33.3945518">
<ele>289.52</ele>
<time>2015-05-01T11:25:53Z</time>
</trkpt>
<trkpt lat="34.8600091" lon="33.3945575">
<ele>289.14</ele>
<time>2015-05-01T11:25:55Z</time>
</trkpt>
<trkpt lat="34.8600577" lon="33.3945613">
<ele>289.05</ele>
<time>2015-05-01T11:25:57Z</time>
</trkpt>
<trkpt lat="34.8601089" lon="33.3945653">
<ele>289.52</ele>
<time>2015-05-01T11:25:59Z</time>
</trkpt>
<trkpt lat="34.8601659" lon="33.3945700">
<ele>289.89</ele>
<time>2015-05-01T11:26:01Z</time>
</trkpt>
<trkpt lat="34.8602336" lon="33.3945759">
<ele>289.99</ele>
<time>2015-05-01T11:26:03Z</time>
</trkpt>
<trkpt lat="34.8603047" lon="33.3945809">
<ele>290.01</ele>
<time>2015-05-01T11:26:05Z</time>
</trkpt>
<trkpt lat="34.8603746" lon="33.3945864">
<ele>290.51</ele>
<time>2015-05-01T11:26:07Z</time>
</trkpt>
<trkpt lat="34.8604476" lon="33.3945935">
<ele>290.64</ele>
<time>2015-05-01T11:26:09Z</time>
</trkpt>
<trkpt lat="34.8605200" lon="33.3946004">
<ele>290.92</ele>
<time>2015-05-01T11:26:11Z</time>
</trkpt>
<trkpt lat="34.8605956" lon="33.3946124">
<ele>291.49</ele>
<time>2015-05-01T11:26:13Z</time>
</trkpt>
<trkpt lat="34.8606711" lon="33.3946249">
<ele>291.89</ele>
<time>2015-05-01T11:26:15Z</time>
</trkpt>
<trkpt lat="34.8607574" lon="33.3946368">
<ele>291.48</ele>
<time>2015-05-01T11:26:17Z</time>
</trkpt>
<trkpt lat="34.8608360" lon="33.3946446">
<ele>291.13</ele>
<time>2015-05-01T11:26:19Z</time>
</trkpt>
<trkpt lat="34.8609006" lon="33.3946588">
<ele>290.55</ele>
<time>2015-05-01T11:26:21Z</time>
</trkpt>
<trkpt lat="34.8609573" lon="33.3946704">
<ele>289.65</ele>
<time>2015-05-01T11:26:23Z</time>
</trkpt>
<trkpt lat="34.8610178" lon="33.3946920">
<ele>288.67</ele>
<time>2015-05-01T11:26:25Z</time>
</trkpt>
<trkpt lat="34.8610810" lon="33.3947073">
<ele>287.43</ele>
<time>2015-05-01T11:26:27Z</time>
</trkpt>
<trkpt lat="34.8611505" lon="33.3947223">
<ele>288.12</ele>
<time>2015-05-01T11:26:29Z</time>
</trkpt>
<trkpt lat="34.8612178" lon="33.3947372">
<ele>288.04</ele>
<time>2015-05-01T11:26:31Z</time>
</trkpt>
<trkpt lat="34.8612856" lon="33.3947487">
<ele>287.52</ele>
<time>2015-05-01T11:26:33Z</time>
</trkpt>
<trkpt lat="34.8613428" lon="33.3947680">
<ele>287.14</ele>
<time>2015-05-01T11:26:35Z</time>
</trkpt>
<trkpt lat="34.8614000" lon="33.3947890">
<ele>287.05</ele>
<time>2015-05-01T11:26:37Z</time>
</trkpt>
<trkpt lat="34.8614559" lon="33.3948013">
<ele>287.02</ele>
<time>2015-05-01T11:26:39Z</time>
</trkpt>
<trkpt lat="34.8615131" lon="33.3948146">
<ele>287.27</ele>
<time>2015-05-01T11:26:41Z</time>
</trkpt>
<trkpt lat="34.8615692" lon="33.3948314">
<ele>287.58</ele>
<time>2015-05-01T11:26:43Z</time>
</trkpt>
<trkpt lat="34.8616300" lon="33.3948551">
<ele>287.91</ele>
<time>2015-05-01T11:26:45Z</time>
</trkpt>
<trkpt lat="34.8616974" lon="33.3948747">
<ele>288.74</ele>
<time>2015-05-01T11:26:47Z</time>
</trkpt>
<trkpt lat="34.8617770" lon="33.3949071">
<ele>288.70</ele>
<time>2015-05-01T11:26:49Z</time>
</trkpt>
<trkpt lat="34.8618511" lon="33.3949322">
<ele>288.94</ele>
<time>2015-05-01T11:26:51Z</time>
</trkpt>
<trkpt lat="34.8619257" lon="33.3949614">
<ele>289.00</ele>
<time>2015-05-01T11:26:53Z</time>
</trkpt>
<trkpt lat="34.8619941" lon="33.3949946">
<ele>289.26</ele>
<time>2015-05-01T11:26:55Z</time>
</trkpt>
<trkpt lat="34.8620641" lon="33.3950257">
<ele>289.83</ele>
<time>2015-05-01T11:26:57Z</time>
</trkpt>
<trkpt lat="34.8621310" lon="33.3950500">
<ele>289.72</ele>
<time>2015-05-01T11:26:59Z</time>
</trkpt>
<trkpt lat="34.8621970" lon="33.3950777">
<ele>289.94</ele>
<time>2015-05-01T11:27:01Z</time>
</trkpt>
<trkpt lat="34.8622604" lon="33.3951036">
<ele>290.00</ele>
<time>2015-05-01T11:27:03Z</time>
</trkpt>
<trkpt lat="34.8623272" lon="33.3951301">
<ele>290.01</ele>
<time>2015-05-01T11:27:05Z</time>
</trkpt>
<trkpt lat="34.8623906" lon="33.3951613">
<ele>289.76</ele>
<time>2015-05-01T11:27:07Z</time>
</trkpt>
<trkpt lat="34.8624597" lon="33.3951813">
<ele>290.45</ele>
<time>2015-05-01T11:27:09Z</time>
</trkpt>
<trkpt lat="34.8625271" lon="33.3952016">
<ele>290.88</ele>
<time>2015-05-01T11:27:11Z</time>
</trkpt>
<trkpt lat="34.8625978" lon="33.3952268">
<ele>290.23</ele>
<time>2015-05-01T11:27:13Z</time>
</trkpt>
<trkpt lat="34.8626804" lon="33.3952503">
<ele>290.07</ele>
<time>2015-05-01T11:27:15Z</time>
</trkpt>
<trkpt lat="34.8627252" lon="33.3952609">
<ele>289.54</ele>
<time>2015-05-01T11:27:16Z</time>
</trkpt>
<trkpt lat="34.8627754" lon="33.3952707">
<ele>289.78</ele>
<time>2015-05-01T11:27:17Z</time>
</trkpt>
<trkpt lat="34.8628226" lon="33.3952776">
<ele>289.40</ele>
<time>2015-05-01T11:27:18Z</time>
</trkpt>
<trkpt lat="34.8628707" lon="33.3952906">
<ele>289.21</ele>
<time>2015-05-01T11:27:19Z</time>
</trkpt>
<trkpt lat="34.8629202" lon="33.3952951">
<ele>289.11</ele>
<time>2015-05-01T11:27:20Z</time>
</trkpt>
<trkpt lat="34.8629715" lon="33.3953012">
<ele>289.06</ele>
<time>2015-05-01T11:27:21Z</time>
</trkpt>
<trkpt lat="34.8630236" lon="33.3953063">
<ele>289.04</ele>
<time>2015-05-01T11:27:22Z</time>
</trkpt>
<trkpt lat="34.8630778" lon="33.3953098">
<ele>288.53</ele>
<time>2015-05-01T11:27:23Z</time>
</trkpt>
<trkpt lat="34.8631343" lon="33.3953179">
<ele>288.77</ele>
<time>2015-05-01T11:27:24Z</time>
</trkpt>
<trkpt lat="34.8631920" lon="33.3953219">
<ele>288.39</ele>
<time>2015-05-01T11:27:25Z</time>
</trkpt>
<trkpt lat="34.8632518" lon="33.3953317">
<ele>288.20</ele>
<time>2015-05-01T11:27:26Z</time>
</trkpt>
<trkpt lat="34.8633114" lon="33.3953375">
<ele>288.61</ele>
<time>2015-05-01T11:27:27Z</time>
</trkpt>
<trkpt lat="34.8633805" lon="33.3953354">
<ele>288.31</ele>
<time>2015-05-01T11:27:28Z</time>
</trkpt>
<trkpt lat="34.8634438" lon="33.3953453">
<ele>288.16</ele>
<time>2015-05-01T11:27:29Z</time>
</trkpt>
<trkpt lat="34.8635077" lon="33.3953494">
<ele>288.09</ele>
<time>2015-05-01T11:27:30Z</time>
</trkpt>
<trkpt lat="34.8635753" lon="33.3953467">
<ele>288.55</ele>
<time>2015-05-01T11:27:31Z</time>
</trkpt>
<trkpt lat="34.8636447" lon="33.3953479">
<ele>288.78</ele>
<time>2015-05-01T11:27:32Z</time>
</trkpt>
<trkpt lat="34.8637141" lon="33.3953518">
<ele>288.40</ele>
<time>2015-05-01T11:27:33Z</time>
</trkpt>
<trkpt lat="34.8637772" lon="33.3953570">
<ele>288.71</ele>
<time>2015-05-01T11:27:34Z</time>
</trkpt>
<trkpt lat="34.8638407" lon="33.3953567">
<ele>288.36</ele>
<time>2015-05-01T11:27:35Z</time>
</trkpt>
<trkpt lat="34.8639134" lon="33.3953531">
<ele>288.19</ele>
<time>2015-05-01T11:27:36Z</time>
</trkpt>
<trkpt lat="34.8639784" lon="33.3953610">
<ele>288.60</ele>
<time>2015-05-01T11:27:37Z</time>
</trkpt>
<trkpt lat="34.8640437" lon="33.3953629">
<ele>288.31</ele>
<time>2015-05-01T11:27:38Z</time>
</trkpt>
<trkpt lat="34.8641092" lon="33.3953729">
<ele>288.16</ele>
<time>2015-05-01T11:27:39Z</time>
</trkpt>
<trkpt lat="34.8641764" lon="33.3953776">
<ele>288.09</ele>
<time>2015-05-01T11:27:40Z</time>
</trkpt>
<trkpt lat="34.8642331" lon="33.3953795">
<ele>288.05</ele>
<time>2015-05-01T11:27:41Z</time>
</trkpt>
<trkpt lat="34.8642978" lon="33.3953830">
<ele>287.53</ele>
<time>2015-05-01T11:27:42Z</time>
</trkpt>
<trkpt lat="34.8643577" lon="33.3953883">
<ele>287.28</ele>
<time>2015-05-01T11:27:43Z</time>
</trkpt>
<trkpt lat="34.8644208" lon="33.3953907">
<ele>287.15</ele>
<time>2015-05-01T11:27:44Z</time>
</trkpt>
<trkpt lat="34.8644764" lon="33.3954000">
<ele>287.58</ele>
<time>2015-05-01T11:27:45Z</time>
</trkpt>
<trkpt lat="34.8645349" lon="33.3953995">
<ele>287.80</ele>
<time>2015-05-01T11:27:46Z</time>
</trkpt>
<trkpt lat="34.8645981" lon="33.3953976">
<ele>287.91</ele>
<time>2015-05-01T11:27:47Z</time>
</trkpt>
<trkpt lat="34.8646557" lon="33.3954071">
<ele>287.96</ele>
<time>2015-05-01T11:27:48Z</time>
</trkpt>
<trkpt lat="34.8647184" lon="33.3954128">
<ele>287.49</ele>
<time>2015-05-01T11:27:49Z</time>
</trkpt>
<trkpt lat="34.8647802" lon="33.3954135">
<ele>287.25</ele>
<time>2015-05-01T11:27:50Z</time>
</trkpt>
<trkpt lat="34.8648386" lon="33.3954173">
<ele>287.13</ele>
<time>2015-05-01T11:27:51Z</time>
</trkpt>
<trkpt lat="34.8649079" lon="33.3954184">
<ele>287.58</ele>
<time>2015-05-01T11:27:52Z</time>
</trkpt>
<trkpt lat="34.8649749" lon="33.3954232">
<ele>287.30</ele>
<time>2015-05-01T11:27:53Z</time>
</trkpt>
<trkpt lat="34.8650352" lon="33.3954307">
<ele>287.66</ele>
<time>2015-05-01T11:27:54Z</time>
</trkpt>
<trkpt lat="34.8651109" lon="33.3954390">
<ele>287.84</ele>
<time>2015-05-01T11:27:55Z</time>
</trkpt>
<trkpt lat="34.8651784" lon="33.3954452">
<ele>287.93</ele>
<time>2015-05-01T11:27:56Z</time>
</trkpt>
<trkpt lat="34.8652427" lon="33.3954556">
<ele>288.47</ele>
<time>2015-05-01T11:27:57Z</time>
</trkpt>
<trkpt lat="34.8653010" lon="33.3954603">
<ele>288.74</ele>
<time>2015-05-01T11:27:58Z</time>
</trkpt>
<trkpt lat="34.8653630" lon="33.3954642">
<ele>288.88</ele>
<time>2015-05-01T11:27:59Z</time>
</trkpt>
<trkpt lat="34.8654240" lon="33.3954643">
<ele>288.95</ele>
<time>2015-05-01T11:28:00Z</time>
</trkpt>
<trkpt lat="34.8654854" lon="33.3954682">
<ele>289.48</ele>
<time>2015-05-01T11:28:01Z</time>
</trkpt>
<trkpt lat="34.8655446" lon="33.3954650">
<ele>289.75</ele>
<time>2015-05-01T11:28:02Z</time>
</trkpt>
<trkpt lat="34.8656008" lon="33.3954721">
<ele>289.88</ele>
<time>2015-05-01T11:28:03Z</time>
</trkpt>
<trkpt lat="34.8656667" lon="33.3954705">
<ele>289.95</ele>
<time>2015-05-01T11:28:04Z</time>
</trkpt>
<trkpt lat="34.8657189" lon="33.3954734">
<ele>290.48</ele>
<time>2015-05-01T11:28:05Z</time>
</trkpt>
<trkpt lat="34.8657753" lon="33.3954701">
<ele>290.75</ele>
<time>2015-05-01T11:28:06Z</time>
</trkpt>
<trkpt lat="34.8658261" lon="33.3954724">
<ele>290.88</ele>
<time>2015-05-01T11:28:07Z</time>
</trkpt>
<trkpt lat="34.8658825" lon="33.3954739">
<ele>290.95</ele>
<time>2015-05-01T11:28:08Z</time>
</trkpt>
<trkpt lat="34.8659311" lon="33.3954807">
<ele>290.98</ele>
<time>2015-05-01T11:28:09Z</time>
</trkpt>
<trkpt lat="34.8660152" lon="33.3954829">
<ele>291.76</ele>
<time>2015-05-01T11:28:11Z</time>
</trkpt>
<trkpt lat="34.8660868" lon="33.3954866">
<ele>292.70</ele>
<time>2015-05-01T11:28:13Z</time>
</trkpt>
<trkpt lat="34.8661584" lon="33.3954950">
<ele>293.44</ele>
<time>2015-05-01T11:28:15Z</time>
</trkpt>
<trkpt lat="34.8662220" lon="33.3955045">
<ele>293.87</ele>
<time>2015-05-01T11:28:17Z</time>
</trkpt>
<trkpt lat="34.8662944" lon="33.3954983">
<ele>294.73</ele>
<time>2015-05-01T11:28:19Z</time>
</trkpt>
<trkpt lat="34.8663675" lon="33.3955078">
<ele>295.44</ele>
<time>2015-05-01T11:28:21Z</time>
</trkpt>
<trkpt lat="34.8664498" lon="33.3955182">
<ele>295.87</ele>
<time>2015-05-01T11:28:23Z</time>
</trkpt>
<trkpt lat="34.8665381" lon="33.3955281">
<ele>296.48</ele>
<time>2015-05-01T11:28:25Z</time>
</trkpt>
<trkpt lat="34.8666235" lon="33.3955457">
<ele>296.88</ele>
<time>2015-05-01T11:28:27Z</time>
</trkpt>
<trkpt lat="34.8666685" lon="33.3955559">
<ele>296.95</ele>
<time>2015-05-01T11:28:28Z</time>
</trkpt>
<trkpt lat="34.8667545" lon="33.3955711">
<ele>297.75</ele>
<time>2015-05-01T11:28:30Z</time>
</trkpt>
<trkpt lat="34.8668427" lon="33.3955897">
<ele>297.95</ele>
<time>2015-05-01T11:28:32Z</time>
</trkpt>
<trkpt lat="34.8669223" lon="33.3956153">
<ele>298.50</ele>
<time>2015-05-01T11:28:34Z</time>
</trkpt>
<trkpt lat="34.8669654" lon="33.3956538">
<ele>295.14</ele>
<time>2015-05-01T11:28:57Z</time>
</trkpt>
<trkpt lat="34.8670190" lon="33.3956656">
<ele>295.03</ele>
<time>2015-05-01T11:29:00Z</time>
</trkpt>
<trkpt lat="34.8670837" lon="33.3956908">
<ele>295.02</ele>
<time>2015-05-01T11:29:02Z</time>
</trkpt>
<trkpt lat="34.8671514" lon="33.3957159">
<ele>294.27</ele>
<time>2015-05-01T11:29:04Z</time>
</trkpt>
<trkpt lat="34.8672191" lon="33.3957410">
<ele>293.33</ele>
<time>2015-05-01T11:29:06Z</time>
</trkpt>
<trkpt lat="34.8672910" lon="33.3957670">
<ele>293.59</ele>
<time>2015-05-01T11:29:08Z</time>
</trkpt>
<trkpt lat="34.8673616" lon="33.3957895">
<ele>293.41</ele>
<time>2015-05-01T11:29:10Z</time>
</trkpt>
<trkpt lat="34.8674332" lon="33.3958121">
<ele>293.11</ele>
<time>2015-05-01T11:29:12Z</time>
</trkpt>
<trkpt lat="34.8675027" lon="33.3958369">
<ele>293.04</ele>
<time>2015-05-01T11:29:14Z</time>
</trkpt>
<trkpt lat="34.8675739" lon="33.3958620">
<ele>293.02</ele>
<time>2015-05-01T11:29:16Z</time>
</trkpt>
<trkpt lat="34.8676452" lon="33.3958897">
<ele>292.27</ele>
<time>2015-05-01T11:29:18Z</time>
</trkpt>
<trkpt lat="34.8677328" lon="33.3959219">
<ele>292.08</ele>
<time>2015-05-01T11:29:20Z</time>
</trkpt>
<trkpt lat="34.8677765" lon="33.3959381">
<ele>292.05</ele>
<time>2015-05-01T11:29:21Z</time>
</trkpt>
<trkpt lat="34.8678672" lon="33.3959726">
<ele>292.02</ele>
<time>2015-05-01T11:29:23Z</time>
</trkpt>
<trkpt lat="34.8679140" lon="33.3959907">
<ele>292.02</ele>
<time>2015-05-01T11:29:24Z</time>
</trkpt>
<trkpt lat="34.8679600" lon="33.3960055">
<ele>292.02</ele>
<time>2015-05-01T11:29:25Z</time>
</trkpt>
<trkpt lat="34.8680474" lon="33.3960438">
<ele>291.77</ele>
<time>2015-05-01T11:29:27Z</time>
</trkpt>
<trkpt lat="34.8680924" lon="33.3960615">
<ele>291.89</ele>
<time>2015-05-01T11:29:28Z</time>
</trkpt>
<trkpt lat="34.8681450" lon="33.3960751">
<ele>291.95</ele>
<time>2015-05-01T11:29:29Z</time>
</trkpt>
<trkpt lat="34.8681942" lon="33.3960951">
<ele>291.48</ele>
<time>2015-05-01T11:29:30Z</time>
</trkpt>
<trkpt lat="34.8682405" lon="33.3961146">
<ele>291.25</ele>
<time>2015-05-01T11:29:31Z</time>
</trkpt>
<trkpt lat="34.8682923" lon="33.3961390">
<ele>291.13</ele>
<time>2015-05-01T11:29:32Z</time>
</trkpt>
<trkpt lat="34.8683387" lon="33.3961632">
<ele>291.07</ele>
<time>2015-05-01T11:29:33Z</time>
</trkpt>
<trkpt lat="34.8683873" lon="33.3961797">
<ele>291.05</ele>
<time>2015-05-01T11:29:34Z</time>
</trkpt>
<trkpt lat="34.8684408" lon="33.3962009">
<ele>291.03</ele>
<time>2015-05-01T11:29:35Z</time>
</trkpt>
<trkpt lat="34.8684933" lon="33.3962242">
<ele>291.02</ele>
<time>2015-05-01T11:29:36Z</time>
</trkpt>
<trkpt lat="34.8685383" lon="33.3962461">
<ele>291.02</ele>
<time>2015-05-01T11:29:37Z</time>
</trkpt>
<trkpt lat="34.8685841" lon="33.3962655">
<ele>291.02</ele>
<time>2015-05-01T11:29:38Z</time>
</trkpt>
<trkpt lat="34.8686747" lon="33.3962884">
<ele>291.77</ele>
<time>2015-05-01T11:29:40Z</time>
</trkpt>
<trkpt lat="34.8687198" lon="33.3963058">
<ele>291.89</ele>
<time>2015-05-01T11:29:41Z</time>
</trkpt>
<trkpt lat="34.8687658" lon="33.3963167">
<ele>291.45</ele>
<time>2015-05-01T11:29:42Z</time>
</trkpt>
<trkpt lat="34.8688119" lon="33.3963323">
<ele>291.23</ele>
<time>2015-05-01T11:29:43Z</time>
</trkpt>
<trkpt lat="34.8688608" lon="33.3963532">
<ele>291.13</ele>
<time>2015-05-01T11:29:44Z</time>
</trkpt>
<trkpt lat="34.8689098" lon="33.3963739">
<ele>291.07</ele>
<time>2015-05-01T11:29:45Z</time>
</trkpt>
<trkpt lat="34.8689584" lon="33.3963884">
<ele>291.04</ele>
<time>2015-05-01T11:29:46Z</time>
</trkpt>
<trkpt lat="34.8690122" lon="33.3964123">
<ele>291.03</ele>
<time>2015-05-01T11:29:47Z</time>
</trkpt>
<trkpt lat="34.8690688" lon="33.3964371">
<ele>291.02</ele>
<time>2015-05-01T11:29:48Z</time>
</trkpt>
<trkpt lat="34.8691286" lon="33.3964595">
<ele>291.02</ele>
<time>2015-05-01T11:29:49Z</time>
</trkpt>
<trkpt lat="34.8691825" lon="33.3964768">
<ele>291.02</ele>
<time>2015-05-01T11:29:50Z</time>
</trkpt>
<trkpt lat="34.8692306" lon="33.3965023">
<ele>291.02</ele>
<time>2015-05-01T11:29:51Z</time>
</trkpt>
<trkpt lat="34.8692842" lon="33.3965263">
<ele>291.02</ele>
<time>2015-05-01T11:29:52Z</time>
</trkpt>
<trkpt lat="34.8693380" lon="33.3965465">
<ele>291.02</ele>
<time>2015-05-01T11:29:53Z</time>
</trkpt>
<trkpt lat="34.8693884" lon="33.3965615">
<ele>291.02</ele>
<time>2015-05-01T11:29:54Z</time>
</trkpt>
<trkpt lat="34.8694386" lon="33.3965785">
<ele>291.02</ele>
<time>2015-05-01T11:29:55Z</time>
</trkpt>
<trkpt lat="34.8694878" lon="33.3965963">
<ele>291.02</ele>
<time>2015-05-01T11:29:56Z</time>
</trkpt>
<trkpt lat="34.8695731" lon="33.3966262">
<ele>291.52</ele>
<time>2015-05-01T11:29:58Z</time>
</trkpt>
<trkpt lat="34.8696149" lon="33.3966491">
<ele>291.77</ele>
<time>2015-05-01T11:29:59Z</time>
</trkpt>
<trkpt lat="34.8696585" lon="33.3966629">
<ele>291.89</ele>
<time>2015-05-01T11:30:00Z</time>
</trkpt>
<trkpt lat="34.8697402" lon="33.3966915">
<ele>292.23</ele>
<time>2015-05-01T11:30:02Z</time>
</trkpt>
<trkpt lat="34.8698145" lon="33.3967152">
<ele>292.07</ele>
<time>2015-05-01T11:30:04Z</time>
</trkpt>
<trkpt lat="34.8698949" lon="33.3967443">
<ele>292.03</ele>
<time>2015-05-01T11:30:06Z</time>
</trkpt>
<trkpt lat="34.8699785" lon="33.3967728">
<ele>292.02</ele>
<time>2015-05-01T11:30:08Z</time>
</trkpt>
<trkpt lat="34.8700224" lon="33.3967874">
<ele>291.52</ele>
<time>2015-05-01T11:30:09Z</time>
</trkpt>
<trkpt lat="34.8701071" lon="33.3968252">
<ele>291.89</ele>
<time>2015-05-01T11:30:11Z</time>
</trkpt>
<trkpt lat="34.8701574" lon="33.3968411">
<ele>291.95</ele>
<time>2015-05-01T11:30:12Z</time>
</trkpt>
<trkpt lat="34.8701994" lon="33.3968635">
<ele>291.48</ele>
<time>2015-05-01T11:30:13Z</time>
</trkpt>
<trkpt lat="34.8702733" lon="33.3969000">
<ele>291.88</ele>
<time>2015-05-01T11:30:15Z</time>
</trkpt>
<trkpt lat="34.8703562" lon="33.3969290">
<ele>292.23</ele>
<time>2015-05-01T11:30:17Z</time>
</trkpt>
<trkpt lat="34.8704416" lon="33.3969527">
<ele>292.07</ele>
<time>2015-05-01T11:30:19Z</time>
</trkpt>
<trkpt lat="34.8705240" lon="33.3969813">
<ele>291.53</ele>
<time>2015-05-01T11:30:21Z</time>
</trkpt>
<trkpt lat="34.8705936" lon="33.3970095">
<ele>291.14</ele>
<time>2015-05-01T11:30:23Z</time>
</trkpt>
<trkpt lat="34.8706717" lon="33.3970364">
<ele>291.05</ele>
<time>2015-05-01T11:30:25Z</time>
</trkpt>
<trkpt lat="34.8707452" lon="33.3970633">
<ele>290.52</ele>
<time>2015-05-01T11:30:27Z</time>
</trkpt>
<trkpt lat="34.8708189" lon="33.3970918">
<ele>290.14</ele>
<time>2015-05-01T11:30:29Z</time>
</trkpt>
<trkpt lat="34.8708908" lon="33.3971180">
<ele>290.55</ele>
<time>2015-05-01T11:30:31Z</time>
</trkpt>
<trkpt lat="34.8709642" lon="33.3971484">
<ele>290.40</ele>
<time>2015-05-01T11:30:33Z</time>
</trkpt>
<trkpt lat="34.8710345" lon="33.3971771">
<ele>290.36</ele>
<time>2015-05-01T11:30:35Z</time>
</trkpt>
<trkpt lat="34.8711054" lon="33.3972094">
<ele>290.10</ele>
<time>2015-05-01T11:30:37Z</time>
</trkpt>
<trkpt lat="34.8711743" lon="33.3972477">
<ele>290.79</ele>
<time>2015-05-01T11:30:39Z</time>
</trkpt>
<trkpt lat="34.8712484" lon="33.3972798">
<ele>290.96</ele>
<time>2015-05-01T11:30:41Z</time>
</trkpt>
<trkpt lat="34.8713218" lon="33.3973097">
<ele>291.50</ele>
<time>2015-05-01T11:30:43Z</time>
</trkpt>
<trkpt lat="34.8713988" lon="33.3973443">
<ele>291.89</ele>
<time>2015-05-01T11:30:45Z</time>
</trkpt>
<trkpt lat="34.8714755" lon="33.3973834">
<ele>292.48</ele>
<time>2015-05-01T11:30:47Z</time>
</trkpt>
<trkpt lat="34.8715534" lon="33.3974277">
<ele>292.38</ele>
<time>2015-05-01T11:30:49Z</time>
</trkpt>
<trkpt lat="34.8716335" lon="33.3974707">
<ele>292.11</ele>
<time>2015-05-01T11:30:51Z</time>
</trkpt>
<trkpt lat="34.8716807" lon="33.3974930">
<ele>291.56</ele>
<time>2015-05-01T11:30:52Z</time>
</trkpt>
<trkpt lat="34.8717302" lon="33.3975144">
<ele>291.29</ele>
<time>2015-05-01T11:30:53Z</time>
</trkpt>
<trkpt lat="34.8718034" lon="33.3975529">
<ele>290.58</ele>
<time>2015-05-01T11:30:55Z</time>
</trkpt>
<trkpt lat="34.8718438" lon="33.3975784">
<ele>290.30</ele>
<time>2015-05-01T11:30:56Z</time>
</trkpt>
<trkpt lat="34.8719221" lon="33.3976273">
<ele>290.84</ele>
<time>2015-05-01T11:30:58Z</time>
</trkpt>
<trkpt lat="34.8720019" lon="33.3976782">
<ele>290.97</ele>
<time>2015-05-01T11:31:00Z</time>
</trkpt>
<trkpt lat="34.8720410" lon="33.3977066">
<ele>290.99</ele>
<time>2015-05-01T11:31:01Z</time>
</trkpt>
<trkpt lat="34.8721165" lon="33.3977534">
<ele>290.51</ele>
<time>2015-05-01T11:31:03Z</time>
</trkpt>
<trkpt lat="34.8721955" lon="33.3978054">
<ele>290.14</ele>
<time>2015-05-01T11:31:05Z</time>
</trkpt>
<trkpt lat="34.8722760" lon="33.3978577">
<ele>289.80</ele>
<time>2015-05-01T11:31:07Z</time>
</trkpt>
<trkpt lat="34.8723187" lon="33.3978784">
<ele>289.91</ele>
<time>2015-05-01T11:31:08Z</time>
</trkpt>
<trkpt lat="34.8723632" lon="33.3979005">
<ele>289.46</ele>
<time>2015-05-01T11:31:09Z</time>
</trkpt>
<trkpt lat="34.8724423" lon="33.3979453">
<ele>289.13</ele>
<time>2015-05-01T11:31:11Z</time>
</trkpt>
<trkpt lat="34.8724842" lon="33.3979683">
<ele>289.07</ele>
<time>2015-05-01T11:31:12Z</time>
</trkpt>
<trkpt lat="34.8725522" lon="33.3980169">
<ele>289.03</ele>
<time>2015-05-01T11:31:14Z</time>
</trkpt>
<trkpt lat="34.8726138" lon="33.3980613">
<ele>289.02</ele>
<time>2015-05-01T11:31:16Z</time>
</trkpt>
<trkpt lat="34.8726659" lon="33.3981041">
<ele>289.52</ele>
<time>2015-05-01T11:31:18Z</time>
</trkpt>
<trkpt lat="34.8727207" lon="33.3981485">
<ele>289.89</ele>
<time>2015-05-01T11:31:20Z</time>
</trkpt>
<trkpt lat="34.8727765" lon="33.3981873">
<ele>290.73</ele>
<time>2015-05-01T11:31:22Z</time>
</trkpt>
<trkpt lat="34.8728351" lon="33.3982183">
<ele>290.95</ele>
<time>2015-05-01T11:31:24Z</time>
</trkpt>
<trkpt lat="34.8728908" lon="33.3982484">
<ele>291.00</ele>
<time>2015-05-01T11:31:26Z</time>
</trkpt>
<trkpt lat="34.8729434" lon="33.3982829">
<ele>291.51</ele>
<time>2015-05-01T11:31:28Z</time>
</trkpt>
<trkpt lat="34.8729853" lon="33.3983146">
<ele>291.89</ele>
<time>2015-05-01T11:31:30Z</time>
</trkpt>
<trkpt lat="34.8730277" lon="33.3983477">
<ele>291.98</ele>
<time>2015-05-01T11:31:32Z</time>
</trkpt>
<trkpt lat="34.8730705" lon="33.3983787">
<ele>292.76</ele>
<time>2015-05-01T11:31:34Z</time>
</trkpt>
<trkpt lat="34.8731154" lon="33.3984138">
<ele>292.95</ele>
<time>2015-05-01T11:31:36Z</time>
</trkpt>
<trkpt lat="34.8731604" lon="33.3984501">
<ele>293.50</ele>
<time>2015-05-01T11:31:38Z</time>
</trkpt>
<trkpt lat="34.8732096" lon="33.3984864">
<ele>293.89</ele>
<time>2015-05-01T11:31:40Z</time>
</trkpt>
<trkpt lat="34.8732617" lon="33.3985301">
<ele>294.23</ele>
<time>2015-05-01T11:31:42Z</time>
</trkpt>
<trkpt lat="34.8733194" lon="33.3985846">
<ele>294.82</ele>
<time>2015-05-01T11:31:44Z</time>
</trkpt>
<trkpt lat="34.8733748" lon="33.3986324">
<ele>295.72</ele>
<time>2015-05-01T11:31:46Z</time>
</trkpt>
<trkpt lat="34.8734325" lon="33.3986814">
<ele>295.94</ele>
<time>2015-05-01T11:31:48Z</time>
</trkpt>
<trkpt lat="34.8734969" lon="33.3987360">
<ele>296.75</ele>
<time>2015-05-01T11:31:50Z</time>
</trkpt>
<trkpt lat="34.8735636" lon="33.3987955">
<ele>297.45</ele>
<time>2015-05-01T11:31:52Z</time>
</trkpt>
<trkpt lat="34.8736184" lon="33.3988429">
<ele>297.87</ele>
<time>2015-05-01T11:31:54Z</time>
</trkpt>
<trkpt lat="34.8736728" lon="33.3988930">
<ele>297.98</ele>
<time>2015-05-01T11:31:56Z</time>
</trkpt>
<trkpt lat="34.8737277" lon="33.3989450">
<ele>298.76</ele>
<time>2015-05-01T11:31:58Z</time>
</trkpt>
<trkpt lat="34.8737933" lon="33.3990028">
<ele>298.95</ele>
<time>2015-05-01T11:32:00Z</time>
</trkpt>
<trkpt lat="34.8738584" lon="33.3990605">
<ele>299.75</ele>
<time>2015-05-01T11:32:02Z</time>
</trkpt>
<trkpt lat="34.8739247" lon="33.3991179">
<ele>299.95</ele>
<time>2015-05-01T11:32:04Z</time>
</trkpt>
<trkpt lat="34.8739897" lon="33.3991738">
<ele>300.00</ele>
<time>2015-05-01T11:32:06Z</time>
</trkpt>
<trkpt lat="34.8740567" lon="33.3992339">
<ele>300.01</ele>
<time>2015-05-01T11:32:08Z</time>
</trkpt>
<trkpt lat="34.8741200" lon="33.3992877">
<ele>300.76</ele>
<time>2015-05-01T11:32:10Z</time>
</trkpt>
<trkpt lat="34.8741856" lon="33.3993363">
<ele>300.95</ele>
<time>2015-05-01T11:32:12Z</time>
</trkpt>
<trkpt lat="34.8742474" lon="33.3993864">
<ele>301.50</ele>
<time>2015-05-01T11:32:14Z</time>
</trkpt>
<trkpt lat="34.8743149" lon="33.3994395">
<ele>301.89</ele>
<time>2015-05-01T11:32:16Z</time>
</trkpt>
<trkpt lat="34.8743873" lon="33.3994994">
<ele>302.73</ele>
<time>2015-05-01T11:32:18Z</time>
</trkpt>
<trkpt lat="34.8744239" lon="33.3995320">
<ele>302.87</ele>
<time>2015-05-01T11:32:19Z</time>
</trkpt>
<trkpt lat="34.8744685" lon="33.3995703">
<ele>302.95</ele>
<time>2015-05-01T11:32:20Z</time>
</trkpt>
<trkpt lat="34.8745048" lon="33.3996034">
<ele>303.48</ele>
<time>2015-05-01T11:32:21Z</time>
</trkpt>
<trkpt lat="34.8745734" lon="33.3996628">
<ele>303.88</ele>
<time>2015-05-01T11:32:23Z</time>
</trkpt>
<trkpt lat="34.8746369" lon="33.3997163">
<ele>303.98</ele>
<time>2015-05-01T11:32:25Z</time>
</trkpt>
<trkpt lat="34.8747017" lon="33.3997693">
<ele>304.26</ele>
<time>2015-05-01T11:32:27Z</time>
</trkpt>
<trkpt lat="34.8747680" lon="33.3998141">
<ele>304.08</ele>
<time>2015-05-01T11:32:29Z</time>
</trkpt>
<trkpt lat="34.8748211" lon="33.3998453">
<ele>304.53</ele>
<time>2015-05-01T11:32:31Z</time>
</trkpt>
<trkpt lat="34.8748697" lon="33.3998770">
<ele>304.89</ele>
<time>2015-05-01T11:32:33Z</time>
</trkpt>
<trkpt lat="34.8749297" lon="33.3999137">
<ele>305.00</ele>
<time>2015-05-01T11:32:36Z</time>
</trkpt>
<trkpt lat="34.8749762" lon="33.3999397">
<ele>305.01</ele>
<time>2015-05-01T11:32:38Z</time>
</trkpt>
<trkpt lat="34.8750390" lon="33.3999706">
<ele>305.52</ele>
<time>2015-05-01T11:32:40Z</time>
</trkpt>
<trkpt lat="34.8751014" lon="33.4000046">
<ele>305.89</ele>
<time>2015-05-01T11:32:42Z</time>
</trkpt>
<trkpt lat="34.8751676" lon="33.4000422">
<ele>305.98</ele>
<time>2015-05-01T11:32:44Z</time>
</trkpt>
<trkpt lat="34.8752360" lon="33.4000751">
<ele>306.51</ele>
<time>2015-05-01T11:32:46Z</time>
</trkpt>
<trkpt lat="34.8753040" lon="33.4001080">
<ele>306.14</ele>
<time>2015-05-01T11:32:48Z</time>
</trkpt>
<trkpt lat="34.8753704" lon="33.4001307">
<ele>306.05</ele>
<time>2015-05-01T11:32:50Z</time>
</trkpt>
<trkpt lat="34.8754376" lon="33.4001474">
<ele>306.02</ele>
<time>2015-05-01T11:32:52Z</time>
</trkpt>
<trkpt lat="34.8755029" lon="33.4001607">
<ele>306.02</ele>
<time>2015-05-01T11:32:54Z</time>
</trkpt>
<trkpt lat="34.8755700" lon="33.4001762">
<ele>306.77</ele>
<time>2015-05-01T11:32:56Z</time>
</trkpt>
<trkpt lat="34.8756349" lon="33.4001906">
<ele>306.95</ele>
<time>2015-05-01T11:32:58Z</time>
</trkpt>
<trkpt lat="34.8757022" lon="33.4002046">
<ele>307.00</ele>
<time>2015-05-01T11:33:00Z</time>
</trkpt>
<trkpt lat="34.8757690" lon="33.4002136">
<ele>307.01</ele>
<time>2015-05-01T11:33:02Z</time>
</trkpt>
<trkpt lat="34.8758379" lon="33.4002247">
<ele>307.02</ele>
<time>2015-05-01T11:33:04Z</time>
</trkpt>
<trkpt lat="34.8759016" lon="33.4002357">
<ele>307.02</ele>
<time>2015-05-01T11:33:06Z</time>
</trkpt>
<trkpt lat="34.8759511" lon="33.4002451">
<ele>307.02</ele>
<time>2015-05-01T11:33:08Z</time>
</trkpt>
<trkpt lat="34.8760090" lon="33.4002604">
<ele>307.02</ele>
<time>2015-05-01T11:33:11Z</time>
</trkpt>
<trkpt lat="34.8760570" lon="33.4002689">
<ele>307.02</ele>
<time>2015-05-01T11:33:13Z</time>
</trkpt>
<trkpt lat="34.8761140" lon="33.4002775">
<ele>307.02</ele>
<time>2015-05-01T11:33:15Z</time>
</trkpt>
<trkpt lat="34.8761755" lon="33.4002796">
<ele>307.77</ele>
<time>2015-05-01T11:33:17Z</time>
</trkpt>
<trkpt lat="34.8762332" lon="33.4002836">
<ele>307.95</ele>
<time>2015-05-01T11:33:19Z</time>
</trkpt>
<trkpt lat="34.8762918" lon="33.4002863">
<ele>308.00</ele>
<time>2015-05-01T11:33:21Z</time>
</trkpt>
<trkpt lat="34.8763465" lon="33.4002899">
<ele>308.76</ele>
<time>2015-05-01T11:33:23Z</time>
</trkpt>
<trkpt lat="34.8764034" lon="33.4002954">
<ele>308.95</ele>
<time>2015-05-01T11:33:25Z</time>
</trkpt>
<trkpt lat="34.8764596" lon="33.4002980">
<ele>309.00</ele>
<time>2015-05-01T11:33:27Z</time>
</trkpt>
<trkpt lat="34.8765169" lon="33.4003043">
<ele>309.01</ele>
<time>2015-05-01T11:33:29Z</time>
</trkpt>
<trkpt lat="34.8765754" lon="33.4003104">
<ele>309.02</ele>
<time>2015-05-01T11:33:31Z</time>
</trkpt>
<trkpt lat="34.8766359" lon="33.4003142">
<ele>309.02</ele>
<time>2015-05-01T11:33:33Z</time>
</trkpt>
<trkpt lat="34.8766954" lon="33.4003167">
<ele>308.27</ele>
<time>2015-05-01T11:33:35Z</time>
</trkpt>
<trkpt lat="34.8767588" lon="33.4003207">
<ele>307.33</ele>
<time>2015-05-01T11:33:37Z</time>
</trkpt>
<trkpt lat="34.8768212" lon="33.4003247">
<ele>306.59</ele>
<time>2015-05-01T11:33:39Z</time>
</trkpt>
<trkpt lat="34.8768839" lon="33.4003360">
<ele>306.91</ele>
<time>2015-05-01T11:33:41Z</time>
</trkpt>
<trkpt lat="34.8769417" lon="33.4003447">
<ele>307.49</ele>
<time>2015-05-01T11:33:43Z</time>
</trkpt>
<trkpt lat="34.8769938" lon="33.4003522">
<ele>307.88</ele>
<time>2015-05-01T11:33:45Z</time>
</trkpt>
<trkpt lat="34.8770483" lon="33.4003520">
<ele>307.98</ele>
<time>2015-05-01T11:33:47Z</time>
</trkpt>
<trkpt lat="34.8771079" lon="33.4003477">
<ele>308.01</ele>
<time>2015-05-01T11:33:49Z</time>
</trkpt>
<trkpt lat="34.8771690" lon="33.4003405">
<ele>308.01</ele>
<time>2015-05-01T11:33:51Z</time>
</trkpt>
<trkpt lat="34.8772339" lon="33.4003388">
<ele>308.27</ele>
<time>2015-05-01T11:33:53Z</time>
</trkpt>
<trkpt lat="34.8773058" lon="33.4003358">
<ele>308.08</ele>
<time>2015-05-01T11:33:55Z</time>
</trkpt>
<trkpt lat="34.8773870" lon="33.4003299">
<ele>307.28</ele>
<time>2015-05-01T11:33:57Z</time>
</trkpt>
<trkpt lat="34.8774588" lon="33.4003235">
<ele>307.83</ele>
<time>2015-05-01T11:33:59Z</time>
</trkpt>
<trkpt lat="34.8775188" lon="33.4003161">
<ele>308.72</ele>
<time>2015-05-01T11:34:01Z</time>
</trkpt>
<trkpt lat="34.8775838" lon="33.4003066">
<ele>309.44</ele>
<time>2015-05-01T11:34:03Z</time>
</trkpt>
<trkpt lat="34.8776483" lon="33.4002951">
<ele>310.37</ele>
<time>2015-05-01T11:34:05Z</time>
</trkpt>
<trkpt lat="34.8776955" lon="33.4002798">
<ele>311.36</ele>
<time>2015-05-01T11:34:07Z</time>
</trkpt>
<trkpt lat="34.8777423" lon="33.4002582">
<ele>311.93</ele>
<time>2015-05-01T11:34:10Z</time>
</trkpt>
<trkpt lat="34.8777991" lon="33.4002574">
<ele>312.88</ele>
<time>2015-05-01T11:34:13Z</time>
</trkpt>
<trkpt lat="34.8778605" lon="33.4002411">
<ele>312.23</ele>
<time>2015-05-01T11:34:15Z</time>
</trkpt>
<trkpt lat="34.8779272" lon="33.4002172">
<ele>312.57</ele>
<time>2015-05-01T11:34:17Z</time>
</trkpt>
<trkpt lat="34.8780006" lon="33.4001916">
<ele>312.65</ele>
<time>2015-05-01T11:34:19Z</time>
</trkpt>
<trkpt lat="34.8780784" lon="33.4001590">
<ele>312.93</ele>
<time>2015-05-01T11:34:21Z</time>
</trkpt>
<trkpt lat="34.8781544" lon="33.4001238">
<ele>313.49</ele>
<time>2015-05-01T11:34:23Z</time>
</trkpt>
<trkpt lat="34.8782333" lon="33.4000902">
<ele>314.39</ele>
<time>2015-05-01T11:34:25Z</time>
</trkpt>
<trkpt lat="34.8783074" lon="33.4000540">
<ele>314.86</ele>
<time>2015-05-01T11:34:27Z</time>
</trkpt>
<trkpt lat="34.8783822" lon="33.4000151">
<ele>315.48</ele>
<time>2015-05-01T11:34:29Z</time>
</trkpt>
<trkpt lat="34.8784554" lon="33.3999788">
<ele>315.38</ele>
<time>2015-05-01T11:34:31Z</time>
</trkpt>
<trkpt lat="34.8785320" lon="33.3999373">
<ele>315.86</ele>
<time>2015-05-01T11:34:33Z</time>
</trkpt>
<trkpt lat="34.8786076" lon="33.3998955">
<ele>315.98</ele>
<time>2015-05-01T11:34:35Z</time>
</trkpt>
<trkpt lat="34.8786813" lon="33.3998561">
<ele>316.01</ele>
<time>2015-05-01T11:34:37Z</time>
</trkpt>
<trkpt lat="34.8787269" lon="33.3998318">
<ele>316.01</ele>
<time>2015-05-01T11:34:39Z</time>
</trkpt>
<trkpt lat="34.8787784" lon="33.3997972">
<ele>316.77</ele>
<time>2015-05-01T11:34:42Z</time>
</trkpt>
<trkpt lat="34.8788299" lon="33.3997896">
<ele>317.02</ele>
<time>2015-05-01T11:34:58Z</time>
</trkpt>
<trkpt lat="34.8788835" lon="33.3997670">
<ele>317.02</ele>
<time>2015-05-01T11:35:01Z</time>
</trkpt>
<trkpt lat="34.8789408" lon="33.3997297">
<ele>317.89</ele>
<time>2015-05-01T11:35:04Z</time>
</trkpt>
<trkpt lat="34.8789977" lon="33.3996990">
<ele>317.98</ele>
<time>2015-05-01T11:35:06Z</time>
</trkpt>
<trkpt lat="34.8790638" lon="33.3996691">
<ele>318.76</ele>
<time>2015-05-01T11:35:08Z</time>
</trkpt>
<trkpt lat="34.8791209" lon="33.3996440">
<ele>318.95</ele>
<time>2015-05-01T11:35:10Z</time>
</trkpt>
<trkpt lat="34.8791747" lon="33.3996173">
<ele>319.00</ele>
<time>2015-05-01T11:35:12Z</time>
</trkpt>
<trkpt lat="34.8792296" lon="33.3995926">
<ele>319.01</ele>
<time>2015-05-01T11:35:14Z</time>
</trkpt>
<trkpt lat="34.8792936" lon="33.3995612">
<ele>319.01</ele>
<time>2015-05-01T11:35:16Z</time>
</trkpt>
<trkpt lat="34.8793611" lon="33.3995251">
<ele>319.77</ele>
<time>2015-05-01T11:35:18Z</time>
</trkpt>
<trkpt lat="34.8794313" lon="33.3994830">
<ele>320.45</ele>
<time>2015-05-01T11:35:20Z</time>
</trkpt>
<trkpt lat="34.8795024" lon="33.3994449">
<ele>319.88</ele>
<time>2015-05-01T11:35:22Z</time>
</trkpt>
<trkpt lat="34.8795747" lon="33.3994082">
<ele>319.98</ele>
<time>2015-05-01T11:35:24Z</time>
</trkpt>
<trkpt lat="34.8796394" lon="33.3993771">
<ele>320.76</ele>
<time>2015-05-01T11:35:26Z</time>
</trkpt>
<trkpt lat="34.8797056" lon="33.3993461">
<ele>320.95</ele>
<time>2015-05-01T11:35:28Z</time>
</trkpt>
<trkpt lat="34.8797702" lon="33.3993168">
<ele>320.75</ele>
<time>2015-05-01T11:35:30Z</time>
</trkpt>
<trkpt lat="34.8798390" lon="33.3992878">
<ele>320.95</ele>
<time>2015-05-01T11:35:32Z</time>
</trkpt>
<trkpt lat="34.8799059" lon="33.3992639">
<ele>320.75</ele>
<time>2015-05-01T11:35:34Z</time>
</trkpt>
<trkpt lat="34.8799621" lon="33.3992454">
<ele>320.95</ele>
<time>2015-05-01T11:35:36Z</time>
</trkpt>
<trkpt lat="34.8800085" lon="33.3992281">
<ele>321.75</ele>
<time>2015-05-01T11:35:38Z</time>
</trkpt>
<trkpt lat="34.8800622" lon="33.3992107">
<ele>321.45</ele>
<time>2015-05-01T11:35:40Z</time>
</trkpt>
<trkpt lat="34.8801255" lon="33.3991853">
<ele>321.12</ele>
<time>2015-05-01T11:35:42Z</time>
</trkpt>
<trkpt lat="34.8802004" lon="33.3991572">
<ele>321.29</ele>
<time>2015-05-01T11:35:44Z</time>
</trkpt>
<trkpt lat="34.8802818" lon="33.3991261">
<ele>321.84</ele>
<time>2015-05-01T11:35:46Z</time>
</trkpt>
<trkpt lat="34.8803658" lon="33.3990964">
<ele>321.22</ele>
<time>2015-05-01T11:35:48Z</time>
</trkpt>
<trkpt lat="34.8804432" lon="33.3990743">
<ele>320.57</ele>
<time>2015-05-01T11:35:50Z</time>
</trkpt>
<trkpt lat="34.8805070" lon="33.3990554">
<ele>320.40</ele>
<time>2015-05-01T11:35:52Z</time>
</trkpt>
<trkpt lat="34.8805575" lon="33.3990409">
<ele>320.86</ele>
<time>2015-05-01T11:35:54Z</time>
</trkpt>
<trkpt lat="34.8806167" lon="33.3990202">
<ele>321.12</ele>
<time>2015-05-01T11:35:57Z</time>
</trkpt>
<trkpt lat="34.8806764" lon="33.3990035">
<ele>320.78</ele>
<time>2015-05-01T11:36:00Z</time>
</trkpt>
<trkpt lat="34.8807339" lon="33.3989885">
<ele>320.96</ele>
<time>2015-05-01T11:36:02Z</time>
</trkpt>
<trkpt lat="34.8808100" lon="33.3989656">
<ele>321.00</ele>
<time>2015-05-01T11:36:04Z</time>
</trkpt>
<trkpt lat="34.8808853" lon="33.3989374">
<ele>321.01</ele>
<time>2015-05-01T11:36:06Z</time>
</trkpt>
<trkpt lat="34.8809657" lon="33.3989052">
<ele>321.02</ele>
<time>2015-05-01T11:36:08Z</time>
</trkpt>
<trkpt lat="34.8810520" lon="33.3988769">
<ele>321.02</ele>
<time>2015-05-01T11:36:10Z</time>
</trkpt>
<trkpt lat="34.8810978" lon="33.3988629">
<ele>321.02</ele>
<time>2015-05-01T11:36:11Z</time>
</trkpt>
<trkpt lat="34.8811442" lon="33.3988486">
<ele>321.02</ele>
<time>2015-05-01T11:36:12Z</time>
</trkpt>
<trkpt lat="34.8811893" lon="33.3988352">
<ele>321.02</ele>
<time>2015-05-01T11:36:13Z</time>
</trkpt>
<trkpt lat="34.8812331" lon="33.3988223">
<ele>321.52</ele>
<time>2015-05-01T11:36:14Z</time>
</trkpt>
<trkpt lat="34.8812772" lon="33.3988086">
<ele>321.77</ele>
<time>2015-05-01T11:36:15Z</time>
</trkpt>
<trkpt lat="34.8813222" lon="33.3987945">
<ele>321.89</ele>
<time>2015-05-01T11:36:16Z</time>
</trkpt>
<trkpt lat="34.8813689" lon="33.3987808">
<ele>322.45</ele>
<time>2015-05-01T11:36:17Z</time>
</trkpt>
<trkpt lat="34.8814574" lon="33.3987560">
<ele>322.63</ele>
<time>2015-05-01T11:36:19Z</time>
</trkpt>
<trkpt lat="34.8815076" lon="33.3987421">
<ele>322.82</ele>
<time>2015-05-01T11:36:20Z</time>
</trkpt>
<trkpt lat="34.8815520" lon="33.3987267">
<ele>322.92</ele>
<time>2015-05-01T11:36:21Z</time>
</trkpt>
<trkpt lat="34.8816360" lon="33.3987170">
<ele>322.99</ele>
<time>2015-05-01T11:36:23Z</time>
</trkpt>
<trkpt lat="34.8817202" lon="33.3987041">
<ele>323.51</ele>
<time>2015-05-01T11:36:25Z</time>
</trkpt>
<trkpt lat="34.8818001" lon="33.3986974">
<ele>323.89</ele>
<time>2015-05-01T11:36:27Z</time>
</trkpt>
<trkpt lat="34.8818523" lon="33.3986964">
<ele>323.95</ele>
<time>2015-05-01T11:36:28Z</time>
</trkpt>
<trkpt lat="34.8819418" lon="33.3986994">
<ele>324.75</ele>
<time>2015-05-01T11:36:30Z</time>
</trkpt>
<trkpt lat="34.8820284" lon="33.3987086">
<ele>324.95</ele>
<time>2015-05-01T11:36:32Z</time>
</trkpt>
<trkpt lat="34.8821139" lon="33.3987135">
<ele>325.50</ele>
<time>2015-05-01T11:36:34Z</time>
</trkpt>
<trkpt lat="34.8821929" lon="33.3987182">
<ele>326.64</ele>
<time>2015-05-01T11:36:36Z</time>
</trkpt>
<trkpt lat="34.8822641" lon="33.3987293">
<ele>326.92</ele>
<time>2015-05-01T11:36:38Z</time>
</trkpt>
<trkpt lat="34.8823356" lon="33.3987511">
<ele>327.74</ele>
<time>2015-05-01T11:36:40Z</time>
</trkpt>
<trkpt lat="34.8824042" lon="33.3987721">
<ele>327.95</ele>
<time>2015-05-01T11:36:42Z</time>
</trkpt>
<trkpt lat="34.8824740" lon="33.3987991">
<ele>328.50</ele>
<time>2015-05-01T11:36:44Z</time>
</trkpt>
<trkpt lat="34.8825397" lon="33.3988307">
<ele>328.89</ele>
<time>2015-05-01T11:36:46Z</time>
</trkpt>
<trkpt lat="34.8826064" lon="33.3988650">
<ele>328.98</ele>
<time>2015-05-01T11:36:48Z</time>
</trkpt>
<trkpt lat="34.8826726" lon="33.3988927">
<ele>329.76</ele>
<time>2015-05-01T11:36:50Z</time>
</trkpt>
<trkpt lat="34.8827414" lon="33.3989200">
<ele>329.95</ele>
<time>2015-05-01T11:36:52Z</time>
</trkpt>
<trkpt lat="34.8828078" lon="33.3989450">
<ele>330.00</ele>
<time>2015-05-01T11:36:54Z</time>
</trkpt>
<trkpt lat="34.8828775" lon="33.3989673">
<ele>330.01</ele>
<time>2015-05-01T11:36:56Z</time>
</trkpt>
<trkpt lat="34.8829434" lon="33.3989862">
<ele>330.51</ele>
<time>2015-05-01T11:36:58Z</time>
</trkpt>
<trkpt lat="34.8830100" lon="33.3990106">
<ele>330.89</ele>
<time>2015-05-01T11:37:00Z</time>
</trkpt>
<trkpt lat="34.8830730" lon="33.3990402">
<ele>331.48</ele>
<time>2015-05-01T11:37:02Z</time>
</trkpt>
<trkpt lat="34.8831390" lon="33.3990685">
<ele>331.88</ele>
<time>2015-05-01T11:37:04Z</time>
</trkpt>
<trkpt lat="34.8832018" lon="33.3990937">
<ele>331.98</ele>
<time>2015-05-01T11:37:06Z</time>
</trkpt>
<trkpt lat="34.8832551" lon="33.3991186">
<ele>331.51</ele>
<time>2015-05-01T11:37:08Z</time>
</trkpt>
<trkpt lat="34.8833007" lon="33.3991391">
<ele>331.14</ele>
<time>2015-05-01T11:37:10Z</time>
</trkpt>
<trkpt lat="34.8833508" lon="33.3991570">
<ele>331.05</ele>
<time>2015-05-01T11:37:12Z</time>
</trkpt>
<trkpt lat="34.8834022" lon="33.3991757">
<ele>331.02</ele>
<time>2015-05-01T11:37:14Z</time>
</trkpt>
<trkpt lat="34.8834631" lon="33.3991992">
<ele>331.02</ele>
<time>2015-05-01T11:37:16Z</time>
</trkpt>
<trkpt lat="34.8835198" lon="33.3992227">
<ele>331.02</ele>
<time>2015-05-01T11:37:18Z</time>
</trkpt>
<trkpt lat="34.8835805" lon="33.3992485">
<ele>331.02</ele>
<time>2015-05-01T11:37:20Z</time>
</trkpt>
<trkpt lat="34.8836391" lon="33.3992744">
<ele>331.52</ele>
<time>2015-05-01T11:37:22Z</time>
</trkpt>
<trkpt lat="34.8836956" lon="33.3992968">
<ele>331.89</ele>
<time>2015-05-01T11:37:24Z</time>
</trkpt>
<trkpt lat="34.8837613" lon="33.3993183">
<ele>331.63</ele>
<time>2015-05-01T11:37:27Z</time>
</trkpt>
<trkpt lat="34.8838210" lon="33.3993458">
<ele>330.34</ele>
<time>2015-05-01T11:37:30Z</time>
</trkpt>
<trkpt lat="34.8838406" lon="33.3993975">
<ele>333.86</ele>
<time>2015-05-01T11:41:51Z</time>
</trkpt>
<trkpt lat="34.8838884" lon="33.3993982">
<ele>333.98</ele>
<time>2015-05-01T11:41:53Z</time>
</trkpt>
<trkpt lat="34.8839487" lon="33.3994156">
<ele>334.01</ele>
<time>2015-05-01T11:41:56Z</time>
</trkpt>
<trkpt lat="34.8839993" lon="33.3994365">
<ele>333.77</ele>
<time>2015-05-01T11:41:59Z</time>
</trkpt>
<trkpt lat="34.8840521" lon="33.3994492">
<ele>333.61</ele>
<time>2015-05-01T11:42:02Z</time>
</trkpt>
<trkpt lat="34.8841055" lon="33.3994755">
<ele>331.72</ele>
<time>2015-05-01T11:42:05Z</time>
</trkpt>
<trkpt lat="34.8841585" lon="33.3994985">
<ele>331.85</ele>
<time>2015-05-01T11:42:08Z</time>
</trkpt>
<trkpt lat="34.8842091" lon="33.3995122">
<ele>332.00</ele>
<time>2015-05-01T11:42:11Z</time>
</trkpt>
<trkpt lat="34.8842595" lon="33.3995338">
<ele>332.89</ele>
<time>2015-05-01T11:42:14Z</time>
</trkpt>
<trkpt lat="34.8843135" lon="33.3995550">
<ele>333.25</ele>
<time>2015-05-01T11:42:17Z</time>
</trkpt>
<trkpt lat="34.8843665" lon="33.3995726">
<ele>333.92</ele>
<time>2015-05-01T11:42:20Z</time>
</trkpt>
<trkpt lat="34.8844182" lon="33.3995930">
<ele>334.25</ele>
<time>2015-05-01T11:42:23Z</time>
</trkpt>
<trkpt lat="34.8844713" lon="33.3996153">
<ele>334.42</ele>
<time>2015-05-01T11:42:26Z</time>
</trkpt>
<trkpt lat="34.8845287" lon="33.3996396">
<ele>334.82</ele>
<time>2015-05-01T11:42:29Z</time>
</trkpt>
<trkpt lat="34.8845818" lon="33.3996812">
<ele>333.85</ele>
<time>2015-05-01T11:43:41Z</time>
</trkpt>
<trkpt lat="34.8846284" lon="33.3996950">
<ele>334.73</ele>
<time>2015-05-01T11:43:43Z</time>
</trkpt>
<trkpt lat="34.8846753" lon="33.3997081">
<ele>333.69</ele>
<time>2015-05-01T11:43:45Z</time>
</trkpt>
<trkpt lat="34.8847222" lon="33.3997234">
<ele>332.44</ele>
<time>2015-05-01T11:43:47Z</time>
</trkpt>
<trkpt lat="34.8847711" lon="33.3997413">
<ele>333.37</ele>
<time>2015-05-01T11:43:49Z</time>
</trkpt>
<trkpt lat="34.8848151" lon="33.3997546">
<ele>331.85</ele>
<time>2015-05-01T11:43:51Z</time>
</trkpt>
<trkpt lat="34.8848594" lon="33.3997661">
<ele>330.98</ele>
<time>2015-05-01T11:43:53Z</time>
</trkpt>
<trkpt lat="34.8849210" lon="33.3997928">
<ele>329.64</ele>
<time>2015-05-01T11:43:56Z</time>
</trkpt>
<trkpt lat="34.8849791" lon="33.3998150">
<ele>328.59</ele>
<time>2015-05-01T11:43:59Z</time>
</trkpt>
<trkpt lat="34.8850387" lon="33.3998317">
<ele>327.59</ele>
<time>2015-05-01T11:44:02Z</time>
</trkpt>
<trkpt lat="34.8850828" lon="33.3998486">
<ele>327.91</ele>
<time>2015-05-01T11:44:04Z</time>
</trkpt>
<trkpt lat="34.8851342" lon="33.3998702">
<ele>327.99</ele>
<time>2015-05-01T11:44:06Z</time>
</trkpt>
<trkpt lat="34.8851877" lon="33.3998936">
<ele>328.76</ele>
<time>2015-05-01T11:44:08Z</time>
</trkpt>
<trkpt lat="34.8852418" lon="33.3999161">
<ele>329.70</ele>
<time>2015-05-01T11:44:10Z</time>
</trkpt>
<trkpt lat="34.8852998" lon="33.3999402">
<ele>329.94</ele>
<time>2015-05-01T11:44:12Z</time>
</trkpt>
<trkpt lat="34.8853562" lon="33.3999630">
<ele>330.50</ele>
<time>2015-05-01T11:44:14Z</time>
</trkpt>
<trkpt lat="34.8854133" lon="33.3999894">
<ele>330.89</ele>
<time>2015-05-01T11:44:16Z</time>
</trkpt>
<trkpt lat="34.8854691" lon="33.4000140">
<ele>331.48</ele>
<time>2015-05-01T11:44:18Z</time>
</trkpt>
<trkpt lat="34.8855270" lon="33.4000384">
<ele>331.88</ele>
<time>2015-05-01T11:44:20Z</time>
</trkpt>
<trkpt lat="34.8855833" lon="33.4000608">
<ele>332.48</ele>
<time>2015-05-01T11:44:22Z</time>
</trkpt>
<trkpt lat="34.8856434" lon="33.4000834">
<ele>333.63</ele>
<time>2015-05-01T11:44:24Z</time>
</trkpt>
<trkpt lat="34.8857016" lon="33.4001072">
<ele>333.92</ele>
<time>2015-05-01T11:44:26Z</time>
</trkpt>
<trkpt lat="34.8857627" lon="33.4001307">
<ele>333.99</ele>
<time>2015-05-01T11:44:28Z</time>
</trkpt>
<trkpt lat="34.8858219" lon="33.4001519">
<ele>334.01</ele>
<time>2015-05-01T11:44:30Z</time>
</trkpt>
<trkpt lat="34.8858822" lon="33.4001697">
<ele>334.76</ele>
<time>2015-05-01T11:44:32Z</time>
</trkpt>
<trkpt lat="34.8859392" lon="33.4001862">
<ele>334.95</ele>
<time>2015-05-01T11:44:34Z</time>
</trkpt>
<trkpt lat="34.8859963" lon="33.4002033">
<ele>335.75</ele>
<time>2015-05-01T11:44:36Z</time>
</trkpt>
<trkpt lat="34.8860530" lon="33.4002178">
<ele>336.70</ele>
<time>2015-05-01T11:44:38Z</time>
</trkpt>
<trkpt lat="34.8861125" lon="33.4002329">
<ele>336.94</ele>
<time>2015-05-01T11:44:40Z</time>
</trkpt>
<trkpt lat="34.8861703" lon="33.4002473">
<ele>337.75</ele>
<time>2015-05-01T11:44:42Z</time>
</trkpt>
<trkpt lat="34.8862291" lon="33.4002604">
<ele>338.70</ele>
<time>2015-05-01T11:44:44Z</time>
</trkpt>
<trkpt lat="34.8862861" lon="33.4002706">
<ele>339.69</ele>
<time>2015-05-01T11:44:46Z</time>
</trkpt>
<trkpt lat="34.8863436" lon="33.4002794">
<ele>339.93</ele>
<time>2015-05-01T11:44:48Z</time>
</trkpt>
<trkpt lat="34.8864012" lon="33.4002868">
<ele>340.75</ele>
<time>2015-05-01T11:44:50Z</time>
</trkpt>
<trkpt lat="34.8864615" lon="33.4002974">
<ele>341.45</ele>
<time>2015-05-01T11:44:52Z</time>
</trkpt>
<trkpt lat="34.8865201" lon="33.4003046">
<ele>342.37</ele>
<time>2015-05-01T11:44:54Z</time>
</trkpt>
<trkpt lat="34.8865822" lon="33.4003079">
<ele>343.36</ele>
<time>2015-05-01T11:44:56Z</time>
</trkpt>
<trkpt lat="34.8866429" lon="33.4003124">
<ele>343.85</ele>
<time>2015-05-01T11:44:58Z</time>
</trkpt>
<trkpt lat="34.8867061" lon="33.4003137">
<ele>344.72</ele>
<time>2015-05-01T11:45:00Z</time>
</trkpt>
<trkpt lat="34.8867688" lon="33.4003139">
<ele>345.44</ele>
<time>2015-05-01T11:45:02Z</time>
</trkpt>
<trkpt lat="34.8868328" lon="33.4003159">
<ele>345.87</ele>
<time>2015-05-01T11:45:04Z</time>
</trkpt>
<trkpt lat="34.8868957" lon="33.4003156">
<ele>346.48</ele>
<time>2015-05-01T11:45:06Z</time>
</trkpt>
<trkpt lat="34.8869588" lon="33.4003162">
<ele>346.88</ele>
<time>2015-05-01T11:45:08Z</time>
</trkpt>
<trkpt lat="34.8870197" lon="33.4003160">
<ele>347.73</ele>
<time>2015-05-01T11:45:10Z</time>
</trkpt>
<trkpt lat="34.8870821" lon="33.4003116">
<ele>348.70</ele>
<time>2015-05-01T11:45:12Z</time>
</trkpt>
<trkpt lat="34.8871441" lon="33.4003042">
<ele>349.44</ele>
<time>2015-05-01T11:45:14Z</time>
</trkpt>
<trkpt lat="34.8872086" lon="33.4002936">
<ele>350.37</ele>
<time>2015-05-01T11:45:16Z</time>
</trkpt>
<trkpt lat="34.8872704" lon="33.4002839">
<ele>351.35</ele>
<time>2015-05-01T11:45:18Z</time>
</trkpt>
<trkpt lat="34.8873334" lon="33.4002727">
<ele>351.85</ele>
<time>2015-05-01T11:45:20Z</time>
</trkpt>
<trkpt lat="34.8873927" lon="33.4002609">
<ele>351.97</ele>
<time>2015-05-01T11:45:22Z</time>
</trkpt>
<trkpt lat="34.8874522" lon="33.4002437">
<ele>352.76</ele>
<time>2015-05-01T11:45:24Z</time>
</trkpt>
<trkpt lat="34.8875049" lon="33.4002298">
<ele>352.95</ele>
<time>2015-05-01T11:45:26Z</time>
</trkpt>
<trkpt lat="34.8875644" lon="33.4002144">
<ele>353.88</ele>
<time>2015-05-01T11:45:29Z</time>
</trkpt>
<trkpt lat="34.8876096" lon="33.4002076">
<ele>353.98</ele>
<time>2015-05-01T11:45:31Z</time>
</trkpt>
<trkpt lat="34.8876591" lon="33.4001982">
<ele>354.76</ele>
<time>2015-05-01T11:45:33Z</time>
</trkpt>
<trkpt lat="34.8877090" lon="33.4001872">
<ele>354.95</ele>
<time>2015-05-01T11:45:35Z</time>
</trkpt>
<trkpt lat="34.8877626" lon="33.4001765">
<ele>355.00</ele>
<time>2015-05-01T11:45:37Z</time>
</trkpt>
<trkpt lat="34.8878145" lon="33.4001631">
<ele>355.76</ele>
<time>2015-05-01T11:45:39Z</time>
</trkpt>
<trkpt lat="34.8878675" lon="33.4001475">
<ele>356.70</ele>
<time>2015-05-01T11:45:41Z</time>
</trkpt>
<trkpt lat="34.8879193" lon="33.4001321">
<ele>356.94</ele>
<time>2015-05-01T11:45:43Z</time>
</trkpt>
<trkpt lat="34.8879712" lon="33.4001202">
<ele>357.25</ele>
<time>2015-05-01T11:45:45Z</time>
</trkpt>
<trkpt lat="34.8880201" lon="33.4001106">
<ele>357.54</ele>
<time>2015-05-01T11:45:48Z</time>
</trkpt>
<trkpt lat="34.8880758" lon="33.4000947">
<ele>358.71</ele>
<time>2015-05-01T11:45:51Z</time>
</trkpt>
<trkpt lat="34.8881255" lon="33.4000817">
<ele>358.19</ele>
<time>2015-05-01T11:45:53Z</time>
</trkpt>
<trkpt lat="34.8881772" lon="33.4000696">
<ele>358.81</ele>
<time>2015-05-01T11:45:55Z</time>
</trkpt>
<trkpt lat="34.8882377" lon="33.4000510">
<ele>358.96</ele>
<time>2015-05-01T11:45:57Z</time>
</trkpt>
<trkpt lat="34.8882934" lon="33.4000347">
<ele>359.00</ele>
<time>2015-05-01T11:45:59Z</time>
</trkpt>
<trkpt lat="34.8883445" lon="33.4000242">
<ele>359.51</ele>
<time>2015-05-01T11:46:01Z</time>
</trkpt>
<trkpt lat="34.8883931" lon="33.4000154">
<ele>359.64</ele>
<time>2015-05-01T11:46:03Z</time>
</trkpt>
<trkpt lat="34.8884494" lon="33.4000071">
<ele>359.42</ele>
<time>2015-05-01T11:46:05Z</time>
</trkpt>
<trkpt lat="34.8885066" lon="33.3999976">
<ele>359.12</ele>
<time>2015-05-01T11:46:07Z</time>
</trkpt>
<trkpt lat="34.8885653" lon="33.3999869">
<ele>359.04</ele>
<time>2015-05-01T11:46:09Z</time>
</trkpt>
<trkpt lat="34.8886206" lon="33.3999814">
<ele>359.52</ele>
<time>2015-05-01T11:46:11Z</time>
</trkpt>
<trkpt lat="34.8886770" lon="33.3999732">
<ele>359.89</ele>
<time>2015-05-01T11:46:13Z</time>
</trkpt>
<trkpt lat="34.8887316" lon="33.3999658">
<ele>359.99</ele>
<time>2015-05-01T11:46:15Z</time>
</trkpt>
<trkpt lat="34.8887901" lon="33.3999625">
<ele>360.01</ele>
<time>2015-05-01T11:46:17Z</time>
</trkpt>
<trkpt lat="34.8888454" lon="33.3999588">
<ele>360.01</ele>
<time>2015-05-01T11:46:19Z</time>
</trkpt>
<trkpt lat="34.8889031" lon="33.3999552">
<ele>360.77</ele>
<time>2015-05-01T11:46:21Z</time>
</trkpt>
<trkpt lat="34.8889602" lon="33.3999541">
<ele>361.45</ele>
<time>2015-05-01T11:46:23Z</time>
</trkpt>
<trkpt lat="34.8890195" lon="33.3999518">
<ele>361.88</ele>
<time>2015-05-01T11:46:25Z</time>
</trkpt>
<trkpt lat="34.8890763" lon="33.3999592">
<ele>362.48</ele>
<time>2015-05-01T11:46:27Z</time>
</trkpt>
<trkpt lat="34.8891324" lon="33.3999697">
<ele>362.88</ele>
<time>2015-05-01T11:46:29Z</time>
</trkpt>
<trkpt lat="34.8891857" lon="33.3999800">
<ele>362.98</ele>
<time>2015-05-01T11:46:31Z</time>
</trkpt>
<trkpt lat="34.8892406" lon="33.3999910">
<ele>363.51</ele>
<time>2015-05-01T11:46:33Z</time>
</trkpt>
<trkpt lat="34.8892921" lon="33.4000064">
<ele>363.89</ele>
<time>2015-05-01T11:46:35Z</time>
</trkpt>
<trkpt lat="34.8893459" lon="33.4000162">
<ele>363.98</ele>
<time>2015-05-01T11:46:37Z</time>
</trkpt>
<trkpt lat="34.8893984" lon="33.4000250">
<ele>364.01</ele>
<time>2015-05-01T11:46:39Z</time>
</trkpt>
<trkpt lat="34.8894545" lon="33.4000368">
<ele>364.01</ele>
<time>2015-05-01T11:46:41Z</time>
</trkpt>
<trkpt lat="34.8895091" lon="33.4000528">
<ele>364.02</ele>
<time>2015-05-01T11:46:43Z</time>
</trkpt>
<trkpt lat="34.8895640" lon="33.4000698">
<ele>364.52</ele>
<time>2015-05-01T11:46:45Z</time>
</trkpt>
<trkpt lat="34.8896162" lon="33.4000875">
<ele>364.89</ele>
<time>2015-05-01T11:46:47Z</time>
</trkpt>
<trkpt lat="34.8896719" lon="33.4001039">
<ele>364.98</ele>
<time>2015-05-01T11:46:49Z</time>
</trkpt>
<trkpt lat="34.8897262" lon="33.4001208">
<ele>365.01</ele>
<time>2015-05-01T11:46:51Z</time>
</trkpt>
<trkpt lat="34.8897844" lon="33.4001388">
<ele>365.26</ele>
<time>2015-05-01T11:46:53Z</time>
</trkpt>
<trkpt lat="34.8898428" lon="33.4001562">
<ele>365.83</ele>
<time>2015-05-01T11:46:55Z</time>
</trkpt>
<trkpt lat="34.8899044" lon="33.4001758">
<ele>366.47</ele>
<time>2015-05-01T11:46:57Z</time>
</trkpt>
<trkpt lat="34.8899633" lon="33.4001956">
<ele>366.88</ele>
<time>2015-05-01T11:46:59Z</time>
</trkpt>
<trkpt lat="34.8900232" lon="33.4002128">
<ele>366.98</ele>
<time>2015-05-01T11:47:01Z</time>
</trkpt>
<trkpt lat="34.8900771" lon="33.4002266">
<ele>367.01</ele>
<time>2015-05-01T11:47:03Z</time>
</trkpt>
<trkpt lat="34.8901334" lon="33.4002414">
<ele>367.76</ele>
<time>2015-05-01T11:47:05Z</time>
</trkpt>
<trkpt lat="34.8901883" lon="33.4002598">
<ele>367.95</ele>
<time>2015-05-01T11:47:07Z</time>
</trkpt>
<trkpt lat="34.8902468" lon="33.4002773">
<ele>368.50</ele>
<time>2015-05-01T11:47:09Z</time>
</trkpt>
<trkpt lat="34.8903040" lon="33.4002941">
<ele>368.89</ele>
<time>2015-05-01T11:47:11Z</time>
</trkpt>
<trkpt lat="34.8903630" lon="33.4003107">
<ele>369.48</ele>
<time>2015-05-01T11:47:13Z</time>
</trkpt>
<trkpt lat="34.8904203" lon="33.4003301">
<ele>369.88</ele>
<time>2015-05-01T11:47:15Z</time>
</trkpt>
<trkpt lat="34.8904819" lon="33.4003468">
<ele>369.98</ele>
<time>2015-05-01T11:47:17Z</time>
</trkpt>
<trkpt lat="34.8905403" lon="33.4003594">
<ele>370.01</ele>
<time>2015-05-01T11:47:19Z</time>
</trkpt>
<trkpt lat="34.8906001" lon="33.4003724">
<ele>370.01</ele>
<time>2015-05-01T11:47:21Z</time>
</trkpt>
<trkpt lat="34.8906557" lon="33.4003895">
<ele>370.77</ele>
<time>2015-05-01T11:47:23Z</time>
</trkpt>
<trkpt lat="34.8907109" lon="33.4004044">
<ele>371.45</ele>
<time>2015-05-01T11:47:25Z</time>
</trkpt>
<trkpt lat="34.8907676" lon="33.4004162">
<ele>371.95</ele>
<time>2015-05-01T11:47:28Z</time>
</trkpt>
<trkpt lat="34.8908272" lon="33.4004268">
<ele>372.89</ele>
<time>2015-05-01T11:47:32Z</time>
</trkpt>
<trkpt lat="34.8908906" lon="33.4004412">
<ele>373.50</ele>
<time>2015-05-01T11:47:35Z</time>
</trkpt>
<trkpt lat="34.8909374" lon="33.4004490">
<ele>373.89</ele>
<time>2015-05-01T11:47:37Z</time>
</trkpt>
<trkpt lat="34.8909851" lon="33.4004519">
<ele>374.73</ele>
<time>2015-05-01T11:47:39Z</time>
</trkpt>
<trkpt lat="34.8910363" lon="33.4004536">
<ele>374.95</ele>
<time>2015-05-01T11:47:41Z</time>
</trkpt>
<trkpt lat="34.8910860" lon="33.4004557">
<ele>375.00</ele>
<time>2015-05-01T11:47:43Z</time>
</trkpt>
<trkpt lat="34.8911371" lon="33.4004559">
<ele>375.51</ele>
<time>2015-05-01T11:47:45Z</time>
</trkpt>
<trkpt lat="34.8911855" lon="33.4004544">
<ele>375.89</ele>
<time>2015-05-01T11:47:47Z</time>
</trkpt>
<trkpt lat="34.8912308" lon="33.4004519">
<ele>375.98</ele>
<time>2015-05-01T11:47:49Z</time>
</trkpt>
<trkpt lat="34.8912809" lon="33.4004472">
<ele>376.01</ele>
<time>2015-05-01T11:47:52Z</time>
</trkpt>
<trkpt lat="34.8913350" lon="33.4004390">
<ele>376.02</ele>
<time>2015-05-01T11:47:55Z</time>
</trkpt>
<trkpt lat="34.8913948" lon="33.4004336">
<ele>376.02</ele>
<time>2015-05-01T11:47:58Z</time>
</trkpt>
<trkpt lat="34.8914580" lon="33.4004289">
<ele>376.02</ele>
<time>2015-05-01T11:48:01Z</time>
</trkpt>
<trkpt lat="34.8915198" lon="33.4004201">
<ele>376.77</ele>
<time>2015-05-01T11:48:04Z</time>
</trkpt>
<trkpt lat="34.8915880" lon="33.4004107">
<ele>376.23</ele>
<time>2015-05-01T11:48:07Z</time>
</trkpt>
<trkpt lat="34.8916441" lon="33.4003992">
<ele>376.07</ele>
<time>2015-05-01T11:48:09Z</time>
</trkpt>
<trkpt lat="34.8916921" lon="33.4003957">
<ele>376.03</ele>
<time>2015-05-01T11:48:11Z</time>
</trkpt>
<trkpt lat="34.8917393" lon="33.4003896">
<ele>376.52</ele>
<time>2015-05-01T11:48:13Z</time>
</trkpt>
<trkpt lat="34.8917854" lon="33.4003809">
<ele>376.89</ele>
<time>2015-05-01T11:48:15Z</time>
</trkpt>
<trkpt lat="34.8918330" lon="33.4003670">
<ele>377.48</ele>
<time>2015-05-01T11:48:17Z</time>
</trkpt>
<trkpt lat="34.8918809" lon="33.4003566">
<ele>377.88</ele>
<time>2015-05-01T11:48:19Z</time>
</trkpt>
<trkpt lat="34.8919314" lon="33.4003487">
<ele>377.98</ele>
<time>2015-05-01T11:48:21Z</time>
</trkpt>
<trkpt lat="34.8919799" lon="33.4003350">
<ele>378.01</ele>
<time>2015-05-01T11:48:23Z</time>
</trkpt>
<trkpt lat="34.8920290" lon="33.4003260">
<ele>378.01</ele>
<time>2015-05-01T11:48:25Z</time>
</trkpt>
<trkpt lat="34.8920951" lon="33.4003128">
<ele>378.02</ele>
<time>2015-05-01T11:48:28Z</time>
</trkpt>
<trkpt lat="34.8921404" lon="33.4003029">
<ele>378.27</ele>
<time>2015-05-01T11:48:30Z</time>
</trkpt>
<trkpt lat="34.8921915" lon="33.4002940">
<ele>378.08</ele>
<time>2015-05-01T11:48:32Z</time>
</trkpt>
<trkpt lat="34.8922504" lon="33.4002814">
<ele>378.53</ele>
<time>2015-05-01T11:48:34Z</time>
</trkpt>
<trkpt lat="34.8923188" lon="33.4002680">
<ele>378.89</ele>
<time>2015-05-01T11:48:36Z</time>
</trkpt>
<trkpt lat="34.8923862" lon="33.4002570">
<ele>378.99</ele>
<time>2015-05-01T11:48:38Z</time>
</trkpt>
<trkpt lat="34.8924482" lon="33.4002418">
<ele>379.01</ele>
<time>2015-05-01T11:48:40Z</time>
</trkpt>
<trkpt lat="34.8925091" lon="33.4002290">
<ele>379.76</ele>
<time>2015-05-01T11:48:42Z</time>
</trkpt>
<trkpt lat="34.8925751" lon="33.4002184">
<ele>379.95</ele>
<time>2015-05-01T11:48:44Z</time>
</trkpt>
<trkpt lat="34.8926404" lon="33.4002036">
<ele>380.00</ele>
<time>2015-05-01T11:48:46Z</time>
</trkpt>
<trkpt lat="34.8927099" lon="33.4001872">
<ele>380.01</ele>
<time>2015-05-01T11:48:48Z</time>
</trkpt>
<trkpt lat="34.8927794" lon="33.4001739">
<ele>380.02</ele>
<time>2015-05-01T11:48:50Z</time>
</trkpt>
<trkpt lat="34.8928604" lon="33.4001590">
<ele>380.02</ele>
<time>2015-05-01T11:48:52Z</time>
</trkpt>
<trkpt lat="34.8929061" lon="33.4001477">
<ele>380.02</ele>
<time>2015-05-01T11:48:53Z</time>
</trkpt>
<trkpt lat="34.8929902" lon="33.4001254">
<ele>380.02</ele>
<time>2015-05-01T11:48:55Z</time>
</trkpt>
<trkpt lat="34.8930723" lon="33.4001080">
<ele>380.77</ele>
<time>2015-05-01T11:48:57Z</time>
</trkpt>
<trkpt lat="34.8931398" lon="33.4000914">
<ele>380.20</ele>
<time>2015-05-01T11:48:59Z</time>
</trkpt>
<trkpt lat="34.8932034" lon="33.4000839">
<ele>380.81</ele>
<time>2015-05-01T11:49:01Z</time>
</trkpt>
<trkpt lat="34.8932614" lon="33.4000766">
<ele>380.97</ele>
<time>2015-05-01T11:49:03Z</time>
</trkpt>
<trkpt lat="34.8933173" lon="33.4000617">
<ele>381.75</ele>
<time>2015-05-01T11:49:05Z</time>
</trkpt>
<trkpt lat="34.8933688" lon="33.4000494">
<ele>381.95</ele>
<time>2015-05-01T11:49:07Z</time>
</trkpt>
<trkpt lat="34.8934141" lon="33.4000382">
<ele>382.00</ele>
<time>2015-05-01T11:49:09Z</time>
</trkpt>
<trkpt lat="34.8934775" lon="33.4000275">
<ele>382.01</ele>
<time>2015-05-01T11:49:12Z</time>
</trkpt>
<trkpt lat="34.8935316" lon="33.4000112">
<ele>382.02</ele>
<time>2015-05-01T11:49:15Z</time>
</trkpt>
<trkpt lat="34.8935861" lon="33.4000016">
<ele>382.52</ele>
<time>2015-05-01T11:49:18Z</time>
</trkpt>
<trkpt lat="34.8936419" lon="33.3999881">
<ele>382.89</ele>
<time>2015-05-01T11:49:20Z</time>
</trkpt>
<trkpt lat="34.8937145" lon="33.3999722">
<ele>382.98</ele>
<time>2015-05-01T11:49:22Z</time>
</trkpt>
<trkpt lat="34.8937960" lon="33.3999579">
<ele>382.26</ele>
<time>2015-05-01T11:49:24Z</time>
</trkpt>
<trkpt lat="34.8938434" lon="33.3999481">
<ele>382.14</ele>
<time>2015-05-01T11:49:25Z</time>
</trkpt>
<trkpt lat="34.8939011" lon="33.3999342">
<ele>382.08</ele>
<time>2015-05-01T11:49:26Z</time>
</trkpt>
<trkpt lat="34.8939512" lon="33.3999278">
<ele>381.55</ele>
<time>2015-05-01T11:49:27Z</time>
</trkpt>
<trkpt lat="34.8940024" lon="33.3999202">
<ele>381.78</ele>
<time>2015-05-01T11:49:28Z</time>
</trkpt>
<trkpt lat="34.8940554" lon="33.3999099">
<ele>381.90</ele>
<time>2015-05-01T11:49:29Z</time>
</trkpt>
<trkpt lat="34.8941094" lon="33.3998942">
<ele>381.96</ele>
<time>2015-05-01T11:49:30Z</time>
</trkpt>
<trkpt lat="34.8941646" lon="33.3998793">
<ele>381.49</ele>
<time>2015-05-01T11:49:31Z</time>
</trkpt>
<trkpt lat="34.8942199" lon="33.3998671">
<ele>381.75</ele>
<time>2015-05-01T11:49:32Z</time>
</trkpt>
<trkpt lat="34.8942723" lon="33.3998579">
<ele>381.38</ele>
<time>2015-05-01T11:49:33Z</time>
</trkpt>
<trkpt lat="34.8943248" lon="33.3998472">
<ele>381.70</ele>
<time>2015-05-01T11:49:34Z</time>
</trkpt>
<trkpt lat="34.8943768" lon="33.3998417">
<ele>381.86</ele>
<time>2015-05-01T11:49:35Z</time>
</trkpt>
<trkpt lat="34.8944253" lon="33.3998348">
<ele>381.94</ele>
<time>2015-05-01T11:49:36Z</time>
</trkpt>
<trkpt lat="34.8944758" lon="33.3998217">
<ele>382.48</ele>
<time>2015-05-01T11:49:37Z</time>
</trkpt>
<trkpt lat="34.8945230" lon="33.3998150">
<ele>382.75</ele>
<time>2015-05-01T11:49:38Z</time>
</trkpt>
<trkpt lat="34.8945694" lon="33.3998097">
<ele>382.88</ele>
<time>2015-05-01T11:49:39Z</time>
</trkpt>
<trkpt lat="34.8946142" lon="33.3998000">
<ele>382.95</ele>
<time>2015-05-01T11:49:40Z</time>
</trkpt>
<trkpt lat="34.8946626" lon="33.3997911">
<ele>382.98</ele>
<time>2015-05-01T11:49:41Z</time>
</trkpt>
<trkpt lat="34.8947074" lon="33.3997824">
<ele>382.50</ele>
<time>2015-05-01T11:49:42Z</time>
</trkpt>
<trkpt lat="34.8948035" lon="33.3997618">
<ele>382.14</ele>
<time>2015-05-01T11:49:44Z</time>
</trkpt>
<trkpt lat="34.8948801" lon="33.3997467">
<ele>382.05</ele>
<time>2015-05-01T11:49:46Z</time>
</trkpt>
<trkpt lat="34.8949270" lon="33.3997427">
<ele>382.03</ele>
<time>2015-05-01T11:49:47Z</time>
</trkpt>
<trkpt lat="34.8950111" lon="33.3997268">
<ele>382.02</ele>
<time>2015-05-01T11:49:49Z</time>
</trkpt>
<trkpt lat="34.8950895" lon="33.3996996">
<ele>382.02</ele>
<time>2015-05-01T11:49:51Z</time>
</trkpt>
<trkpt lat="34.8951776" lon="33.3996863">
<ele>382.02</ele>
<time>2015-05-01T11:49:53Z</time>
</trkpt>
<trkpt lat="34.8952687" lon="33.3996618">
<ele>382.02</ele>
<time>2015-05-01T11:49:55Z</time>
</trkpt>
<trkpt lat="34.8953160" lon="33.3996534">
<ele>382.02</ele>
<time>2015-05-01T11:49:56Z</time>
</trkpt>
<trkpt lat="34.8953618" lon="33.3996435">
<ele>382.02</ele>
<time>2015-05-01T11:49:57Z</time>
</trkpt>
<trkpt lat="34.8954098" lon="33.3996346">
<ele>382.02</ele>
<time>2015-05-01T11:49:58Z</time>
</trkpt>
<trkpt lat="34.8955036" lon="33.3996243">
<ele>382.02</ele>
<time>2015-05-01T11:50:00Z</time>
</trkpt>
<trkpt lat="34.8955527" lon="33.3996151">
<ele>382.02</ele>
<time>2015-05-01T11:50:01Z</time>
</trkpt>
<trkpt lat="34.8956380" lon="33.3995937">
<ele>382.02</ele>
<time>2015-05-01T11:50:03Z</time>
</trkpt>
<trkpt lat="34.8956886" lon="33.3995836">
<ele>382.52</ele>
<time>2015-05-01T11:50:04Z</time>
</trkpt>
<trkpt lat="34.8957787" lon="33.3995550">
<ele>382.14</ele>
<time>2015-05-01T11:50:06Z</time>
</trkpt>
<trkpt lat="34.8958296" lon="33.3995461">
<ele>382.08</ele>
<time>2015-05-01T11:50:07Z</time>
</trkpt>
<trkpt lat="34.8958804" lon="33.3995349">
<ele>382.05</ele>
<time>2015-05-01T11:50:08Z</time>
</trkpt>
<trkpt lat="34.8959283" lon="33.3995200">
<ele>381.53</ele>
<time>2015-05-01T11:50:09Z</time>
</trkpt>
<trkpt lat="34.8959738" lon="33.3995039">
<ele>381.27</ele>
<time>2015-05-01T11:50:10Z</time>
</trkpt>
<trkpt lat="34.8960203" lon="33.3994947">
<ele>380.64</ele>
<time>2015-05-01T11:50:11Z</time>
</trkpt>
<trkpt lat="34.8960729" lon="33.3994870">
<ele>380.33</ele>
<time>2015-05-01T11:50:12Z</time>
</trkpt>
<trkpt lat="34.8961222" lon="33.3994789">
<ele>380.17</ele>
<time>2015-05-01T11:50:13Z</time>
</trkpt>
<trkpt lat="34.8961729" lon="33.3994736">
<ele>380.09</ele>
<time>2015-05-01T11:50:14Z</time>
</trkpt>
<trkpt lat="34.8962224" lon="33.3994705">
<ele>379.56</ele>
<time>2015-05-01T11:50:15Z</time>
</trkpt>
<trkpt lat="34.8962703" lon="33.3994694">
<ele>379.29</ele>
<time>2015-05-01T11:50:16Z</time>
</trkpt>
<trkpt lat="34.8963163" lon="33.3994575">
<ele>379.15</ele>
<time>2015-05-01T11:50:17Z</time>
</trkpt>
<trkpt lat="34.8963658" lon="33.3994440">
<ele>379.08</ele>
<time>2015-05-01T11:50:18Z</time>
</trkpt>
<trkpt lat="34.8964148" lon="33.3994371">
<ele>379.05</ele>
<time>2015-05-01T11:50:19Z</time>
</trkpt>
<trkpt lat="34.8964664" lon="33.3994278">
<ele>378.53</ele>
<time>2015-05-01T11:50:20Z</time>
</trkpt>
<trkpt lat="34.8965249" lon="33.3994222">
<ele>378.27</ele>
<time>2015-05-01T11:50:21Z</time>
</trkpt>
<trkpt lat="34.8965743" lon="33.3994182">
<ele>378.15</ele>
<time>2015-05-01T11:50:22Z</time>
</trkpt>
<trkpt lat="34.8966344" lon="33.3994134">
<ele>378.08</ele>
<time>2015-05-01T11:50:23Z</time>
</trkpt>
<trkpt lat="34.8967039" lon="33.3994083">
<ele>378.05</ele>
<time>2015-05-01T11:50:24Z</time>
</trkpt>
<trkpt lat="34.8967723" lon="33.3994119">
<ele>377.53</ele>
<time>2015-05-01T11:50:25Z</time>
</trkpt>
<trkpt lat="34.8968364" lon="33.3994216">
<ele>377.27</ele>
<time>2015-05-01T11:50:26Z</time>
</trkpt>
<trkpt lat="34.8969089" lon="33.3994301">
<ele>377.15</ele>
<time>2015-05-01T11:50:27Z</time>
</trkpt>
<trkpt lat="34.8969796" lon="33.3994439">
<ele>377.08</ele>
<time>2015-05-01T11:50:28Z</time>
</trkpt>
<trkpt lat="34.8970503" lon="33.3994557">
<ele>377.05</ele>
<time>2015-05-01T11:50:29Z</time>
</trkpt>
<trkpt lat="34.8971179" lon="33.3994702">
<ele>377.03</ele>
<time>2015-05-01T11:50:30Z</time>
</trkpt>
<trkpt lat="34.8971885" lon="33.3994829">
<ele>376.52</ele>
<time>2015-05-01T11:50:31Z</time>
</trkpt>
<trkpt lat="34.8972638" lon="33.3995005">
<ele>376.27</ele>
<time>2015-05-01T11:50:32Z</time>
</trkpt>
<trkpt lat="34.8973365" lon="33.3995208">
<ele>376.14</ele>
<time>2015-05-01T11:50:33Z</time>
</trkpt>
<trkpt lat="34.8974083" lon="33.3995464">
<ele>376.08</ele>
<time>2015-05-01T11:50:34Z</time>
</trkpt>
<trkpt lat="34.8974836" lon="33.3995822">
<ele>376.05</ele>
<time>2015-05-01T11:50:35Z</time>
</trkpt>
<trkpt lat="34.8975582" lon="33.3996266">
<ele>376.03</ele>
<time>2015-05-01T11:50:36Z</time>
</trkpt>
<trkpt lat="34.8976285" lon="33.3996632">
<ele>376.02</ele>
<time>2015-05-01T11:50:37Z</time>
</trkpt>
<trkpt lat="34.8977020" lon="33.3997023">
<ele>376.02</ele>
<time>2015-05-01T11:50:38Z</time>
</trkpt>
<trkpt lat="34.8977732" lon="33.3997542">
<ele>376.02</ele>
<time>2015-05-01T11:50:39Z</time>
</trkpt>
<trkpt lat="34.8978479" lon="33.3998064">
<ele>375.52</ele>
<time>2015-05-01T11:50:40Z</time>
</trkpt>
<trkpt lat="34.8979187" lon="33.3998580">
<ele>375.27</ele>
<time>2015-05-01T11:50:41Z</time>
</trkpt>
<trkpt lat="34.8979917" lon="33.3999058">
<ele>375.14</ele>
<time>2015-05-01T11:50:42Z</time>
</trkpt>
<trkpt lat="34.8980623" lon="33.3999603">
<ele>374.58</ele>
<time>2015-05-01T11:50:43Z</time>
</trkpt>
<trkpt lat="34.8981364" lon="33.4000209">
<ele>374.30</ele>
<time>2015-05-01T11:50:44Z</time>
</trkpt>
<trkpt lat="34.8982036" lon="33.4000794">
<ele>374.16</ele>
<time>2015-05-01T11:50:45Z</time>
</trkpt>
<trkpt lat="34.8982666" lon="33.4001403">
<ele>374.09</ele>
<time>2015-05-01T11:50:46Z</time>
</trkpt>
<trkpt lat="34.8983302" lon="33.4002046">
<ele>374.05</ele>
<time>2015-05-01T11:50:47Z</time>
</trkpt>
<trkpt lat="34.8983943" lon="33.4002740">
<ele>374.03</ele>
<time>2015-05-01T11:50:48Z</time>
</trkpt>
<trkpt lat="34.8984501" lon="33.4003426">
<ele>374.02</ele>
<time>2015-05-01T11:50:49Z</time>
</trkpt>
<trkpt lat="34.8985070" lon="33.4004092">
<ele>374.52</ele>
<time>2015-05-01T11:50:50Z</time>
</trkpt>
<trkpt lat="34.8985536" lon="33.4004810">
<ele>374.77</ele>
<time>2015-05-01T11:50:51Z</time>
</trkpt>
<trkpt lat="34.8986075" lon="33.4005490">
<ele>374.89</ele>
<time>2015-05-01T11:50:52Z</time>
</trkpt>
<trkpt lat="34.8986605" lon="33.4006127">
<ele>374.95</ele>
<time>2015-05-01T11:50:53Z</time>
</trkpt>
<trkpt lat="34.8987105" lon="33.4006779">
<ele>374.99</ele>
<time>2015-05-01T11:50:54Z</time>
</trkpt>
<trkpt lat="34.8987643" lon="33.4007431">
<ele>375.00</ele>
<time>2015-05-01T11:50:55Z</time>
</trkpt>
<trkpt lat="34.8988178" lon="33.4008125">
<ele>375.51</ele>
<time>2015-05-01T11:50:56Z</time>
</trkpt>
<trkpt lat="34.8988652" lon="33.4008780">
<ele>375.76</ele>
<time>2015-05-01T11:50:57Z</time>
</trkpt>
<trkpt lat="34.8989105" lon="33.4009386">
<ele>375.89</ele>
<time>2015-05-01T11:50:58Z</time>
</trkpt>
<trkpt lat="34.8989579" lon="33.4009976">
<ele>375.95</ele>
<time>2015-05-01T11:50:59Z</time>
</trkpt>
<trkpt lat="34.8990064" lon="33.4010586">
<ele>375.98</ele>
<time>2015-05-01T11:51:00Z</time>
</trkpt>
<trkpt lat="34.8990561" lon="33.4011183">
<ele>376.00</ele>
<time>2015-05-01T11:51:01Z</time>
</trkpt>
<trkpt lat="34.8990959" lon="33.4011704">
<ele>376.01</ele>
<time>2015-05-01T11:51:02Z</time>
</trkpt>
<trkpt lat="34.8991415" lon="33.4012264">
<ele>375.51</ele>
<time>2015-05-01T11:51:03Z</time>
</trkpt>
<trkpt lat="34.8991923" lon="33.4012893">
<ele>375.76</ele>
<time>2015-05-01T11:51:04Z</time>
</trkpt>
<trkpt lat="34.8992423" lon="33.4013423">
<ele>375.39</ele>
<time>2015-05-01T11:51:05Z</time>
</trkpt>
<trkpt lat="34.8992777" lon="33.4014036">
<ele>375.70</ele>
<time>2015-05-01T11:51:06Z</time>
</trkpt>
<trkpt lat="34.8993247" lon="33.4014566">
<ele>375.86</ele>
<time>2015-05-01T11:51:07Z</time>
</trkpt>
<trkpt lat="34.8993821" lon="33.4015091">
<ele>375.94</ele>
<time>2015-05-01T11:51:08Z</time>
</trkpt>
<trkpt lat="34.8994383" lon="33.4015606">
<ele>375.98</ele>
<time>2015-05-01T11:51:09Z</time>
</trkpt>
<trkpt lat="34.8994788" lon="33.4016034">
<ele>376.00</ele>
<time>2015-05-01T11:51:10Z</time>
</trkpt>
<trkpt lat="34.8995174" lon="33.4016409">
<ele>376.01</ele>
<time>2015-05-01T11:51:12Z</time>
</trkpt>
<trkpt lat="34.8995572" lon="33.4016933">
<ele>373.80</ele>
<time>2015-05-01T11:52:31Z</time>
</trkpt>
<trkpt lat="34.8995955" lon="33.4017228">
<ele>373.96</ele>
<time>2015-05-01T11:52:33Z</time>
</trkpt>
<trkpt lat="34.8996466" lon="33.4017677">
<ele>373.25</ele>
<time>2015-05-01T11:52:35Z</time>
</trkpt>
<trkpt lat="34.8997078" lon="33.4018164">
<ele>373.08</ele>
<time>2015-05-01T11:52:37Z</time>
</trkpt>
<trkpt lat="34.8997821" lon="33.4018668">
<ele>373.03</ele>
<time>2015-05-01T11:52:39Z</time>
</trkpt>
<trkpt lat="34.8998379" lon="33.4018944">
<ele>372.52</ele>
<time>2015-05-01T11:52:40Z</time>
</trkpt>
<trkpt lat="34.8998804" lon="33.4019210">
<ele>372.27</ele>
<time>2015-05-01T11:52:41Z</time>
</trkpt>
<trkpt lat="34.8999626" lon="33.4019594">
<ele>370.83</ele>
<time>2015-05-01T11:52:43Z</time>
</trkpt>
<trkpt lat="34.9000418" lon="33.4020035">
<ele>370.92</ele>
<time>2015-05-01T11:52:44Z</time>
</trkpt>
<trkpt lat="34.9000946" lon="33.4020302">
<ele>370.97</ele>
<time>2015-05-01T11:52:45Z</time>
</trkpt>
<trkpt lat="34.9001569" lon="33.4020510">
<ele>370.99</ele>
<time>2015-05-01T11:52:46Z</time>
</trkpt>
<trkpt lat="34.9002120" lon="33.4020820">
<ele>371.00</ele>
<time>2015-05-01T11:52:47Z</time>
</trkpt>
<trkpt lat="34.9002727" lon="33.4021052">
<ele>370.51</ele>
<time>2015-05-01T11:52:48Z</time>
</trkpt>
<trkpt lat="34.9003368" lon="33.4021302">
<ele>370.26</ele>
<time>2015-05-01T11:52:49Z</time>
</trkpt>
<trkpt lat="34.9004023" lon="33.4021463">
<ele>370.14</ele>
<time>2015-05-01T11:52:50Z</time>
</trkpt>
<trkpt lat="34.9004672" lon="33.4021649">
<ele>369.08</ele>
<time>2015-05-01T11:52:51Z</time>
</trkpt>
<trkpt lat="34.9005356" lon="33.4021793">
<ele>369.05</ele>
<time>2015-05-01T11:52:52Z</time>
</trkpt>
<trkpt lat="34.9006057" lon="33.4021939">
<ele>368.53</ele>
<time>2015-05-01T11:52:53Z</time>
</trkpt>
<trkpt lat="34.9006684" lon="33.4022076">
<ele>368.27</ele>
<time>2015-05-01T11:52:54Z</time>
</trkpt>
<trkpt lat="34.9007393" lon="33.4022048">
<ele>368.14</ele>
<time>2015-05-01T11:52:55Z</time>
</trkpt>
<trkpt lat="34.9008080" lon="33.4022120">
<ele>368.08</ele>
<time>2015-05-01T11:52:56Z</time>
</trkpt>
<trkpt lat="34.9008822" lon="33.4022217">
<ele>367.55</ele>
<time>2015-05-01T11:52:57Z</time>
</trkpt>
<trkpt lat="34.9009431" lon="33.4022310">
<ele>368.28</ele>
<time>2015-05-01T11:52:58Z</time>
</trkpt>
<trkpt lat="34.9010172" lon="33.4022246">
<ele>368.65</ele>
<time>2015-05-01T11:52:59Z</time>
</trkpt>
<trkpt lat="34.9010748" lon="33.4022226">
<ele>368.83</ele>
<time>2015-05-01T11:53:00Z</time>
</trkpt>
<trkpt lat="34.9011340" lon="33.4022141">
<ele>368.92</ele>
<time>2015-05-01T11:53:01Z</time>
</trkpt>
<trkpt lat="34.9011969" lon="33.4022151">
<ele>368.97</ele>
<time>2015-05-01T11:53:02Z</time>
</trkpt>
<trkpt lat="34.9012534" lon="33.4022133">
<ele>368.99</ele>
<time>2015-05-01T11:53:03Z</time>
</trkpt>
<trkpt lat="34.9013121" lon="33.4022110">
<ele>369.50</ele>
<time>2015-05-01T11:53:04Z</time>
</trkpt>
<trkpt lat="34.9013736" lon="33.4022230">
<ele>370.26</ele>
<time>2015-05-01T11:53:05Z</time>
</trkpt>
<trkpt lat="34.9014332" lon="33.4022205">
<ele>370.14</ele>
<time>2015-05-01T11:53:06Z</time>
</trkpt>
<trkpt lat="34.9015068" lon="33.4022253">
<ele>370.58</ele>
<time>2015-05-01T11:53:07Z</time>
</trkpt>
<trkpt lat="34.9015719" lon="33.4022187">
<ele>370.80</ele>
<time>2015-05-01T11:53:08Z</time>
</trkpt>
<trkpt lat="34.9016213" lon="33.4022226">
<ele>370.91</ele>
<time>2015-05-01T11:53:09Z</time>
</trkpt>
<trkpt lat="34.9016680" lon="33.4022113">
<ele>370.46</ele>
<time>2015-05-01T11:53:10Z</time>
</trkpt>
<trkpt lat="34.9017302" lon="33.4022099">
<ele>370.24</ele>
<time>2015-05-01T11:53:11Z</time>
</trkpt>
<trkpt lat="34.9017854" lon="33.4022161">
<ele>370.13</ele>
<time>2015-05-01T11:53:12Z</time>
</trkpt>
<trkpt lat="34.9018422" lon="33.4022170">
<ele>370.07</ele>
<time>2015-05-01T11:53:13Z</time>
</trkpt>
<trkpt lat="34.9019014" lon="33.4022128">
<ele>370.54</ele>
<time>2015-05-01T11:53:14Z</time>
</trkpt>
<trkpt lat="34.9019566" lon="33.4022113">
<ele>370.28</ele>
<time>2015-05-01T11:53:15Z</time>
</trkpt>
<trkpt lat="34.9020157" lon="33.4022113">
<ele>369.65</ele>
<time>2015-05-01T11:53:16Z</time>
</trkpt>
<trkpt lat="34.9020744" lon="33.4022067">
<ele>369.33</ele>
<time>2015-05-01T11:53:17Z</time>
</trkpt>
<trkpt lat="34.9021403" lon="33.4022058">
<ele>368.67</ele>
<time>2015-05-01T11:53:18Z</time>
</trkpt>
<trkpt lat="34.9021964" lon="33.4022043">
<ele>368.35</ele>
<time>2015-05-01T11:53:19Z</time>
</trkpt>
<trkpt lat="34.9022620" lon="33.4022058">
<ele>367.68</ele>
<time>2015-05-01T11:53:20Z</time>
</trkpt>
<trkpt lat="34.9023261" lon="33.4022056">
<ele>366.85</ele>
<time>2015-05-01T11:53:21Z</time>
</trkpt>
<trkpt lat="34.9023872" lon="33.4022045">
<ele>366.43</ele>
<time>2015-05-01T11:53:22Z</time>
</trkpt>
<trkpt lat="34.9024456" lon="33.4022093">
<ele>366.22</ele>
<time>2015-05-01T11:53:23Z</time>
</trkpt>
<trkpt lat="34.9025032" lon="33.4022066">
<ele>366.12</ele>
<time>2015-05-01T11:53:24Z</time>
</trkpt>
<trkpt lat="34.9025647" lon="33.4021935">
<ele>365.07</ele>
<time>2015-05-01T11:53:25Z</time>
</trkpt>
<trkpt lat="34.9026120" lon="33.4021923">
<ele>365.04</ele>
<time>2015-05-01T11:53:26Z</time>
</trkpt>
<trkpt lat="34.9026669" lon="33.4021898">
<ele>365.03</ele>
<time>2015-05-01T11:53:27Z</time>
</trkpt>
<trkpt lat="34.9027291" lon="33.4021882">
<ele>364.52</ele>
<time>2015-05-01T11:53:28Z</time>
</trkpt>
<trkpt lat="34.9027786" lon="33.4021865">
<ele>364.77</ele>
<time>2015-05-01T11:53:29Z</time>
</trkpt>
<trkpt lat="34.9028280" lon="33.4021885">
<ele>364.89</ele>
<time>2015-05-01T11:53:30Z</time>
</trkpt>
<trkpt lat="34.9028789" lon="33.4021860">
<ele>364.95</ele>
<time>2015-05-01T11:53:31Z</time>
</trkpt>
<trkpt lat="34.9029240" lon="33.4021774">
<ele>364.99</ele>
<time>2015-05-01T11:53:32Z</time>
</trkpt>
<trkpt lat="34.9029753" lon="33.4021789">
<ele>365.00</ele>
<time>2015-05-01T11:53:33Z</time>
</trkpt>
<trkpt lat="34.9030232" lon="33.4021784">
<ele>365.01</ele>
<time>2015-05-01T11:53:34Z</time>
</trkpt>
<trkpt lat="34.9030722" lon="33.4021746">
<ele>364.51</ele>
<time>2015-05-01T11:53:35Z</time>
</trkpt>
<trkpt lat="34.9031273" lon="33.4021694">
<ele>364.76</ele>
<time>2015-05-01T11:53:36Z</time>
</trkpt>
<trkpt lat="34.9031838" lon="33.4021679">
<ele>364.39</ele>
<time>2015-05-01T11:53:37Z</time>
</trkpt>
<trkpt lat="34.9032311" lon="33.4021663">
<ele>363.70</ele>
<time>2015-05-01T11:53:38Z</time>
</trkpt>
<trkpt lat="34.9032772" lon="33.4021667">
<ele>363.86</ele>
<time>2015-05-01T11:53:39Z</time>
</trkpt>
<trkpt lat="34.9033617" lon="33.4021684">
<ele>363.98</ele>
<time>2015-05-01T11:53:41Z</time>
</trkpt>
<trkpt lat="34.9034152" lon="33.4021660">
<ele>364.51</ele>
<time>2015-05-01T11:53:43Z</time>
</trkpt>
<trkpt lat="34.9034612" lon="33.4021812">
<ele>364.89</ele>
<time>2015-05-01T11:53:45Z</time>
</trkpt>
<trkpt lat="34.9034720" lon="33.4022586">
<ele>366.50</ele>
<time>2015-05-01T11:53:48Z</time>
</trkpt>
<trkpt lat="34.9034297" lon="33.4022980">
<ele>366.89</ele>
<time>2015-05-01T11:53:50Z</time>
</trkpt>
<trkpt lat="34.9033752" lon="33.4023163">
<ele>367.48</ele>
<time>2015-05-01T11:53:52Z</time>
</trkpt>
<trkpt lat="34.9033176" lon="33.4023111">
<ele>367.88</ele>
<time>2015-05-01T11:53:54Z</time>
</trkpt>
<trkpt lat="34.9032641" lon="33.4023005">
<ele>367.98</ele>
<time>2015-05-01T11:53:56Z</time>
</trkpt>
<trkpt lat="34.9032135" lon="33.4022964">
<ele>368.76</ele>
<time>2015-05-01T11:53:58Z</time>
</trkpt>
<trkpt lat="34.9031654" lon="33.4022977">
<ele>369.48</ele>
<time>2015-05-01T11:54:01Z</time>
</trkpt>
<trkpt lat="34.9032217" lon="33.4023067">
<ele>368.17</ele>
<time>2015-05-01T11:54:22Z</time>
</trkpt>
<trkpt lat="34.9032656" lon="33.4022932">
<ele>367.56</ele>
<time>2015-05-01T11:54:24Z</time>
</trkpt>
<trkpt lat="34.9033308" lon="33.4022734">
<ele>367.15</ele>
<time>2015-05-01T11:54:26Z</time>
</trkpt>
<trkpt lat="34.9034050" lon="33.4022735">
<ele>367.05</ele>
<time>2015-05-01T11:54:28Z</time>
</trkpt>
<trkpt lat="34.9034710" lon="33.4022750">
<ele>366.27</ele>
<time>2015-05-01T11:54:30Z</time>
</trkpt>
<trkpt lat="34.9035228" lon="33.4022778">
<ele>366.08</ele>
<time>2015-05-01T11:54:32Z</time>
</trkpt>
<trkpt lat="34.9035434" lon="33.4023282">
<ele>365.53</ele>
<time>2015-05-01T11:54:34Z</time>
</trkpt>
<trkpt lat="34.9035082" lon="33.4023891">
<ele>365.15</ele>
<time>2015-05-01T11:54:36Z</time>
</trkpt>
<trkpt lat="34.9034321" lon="33.4024205">
<ele>364.55</ele>
<time>2015-05-01T11:54:38Z</time>
</trkpt>
<trkpt lat="34.9033605" lon="33.4024295">
<ele>363.90</ele>
<time>2015-05-01T11:54:40Z</time>
</trkpt>
<trkpt lat="34.9032954" lon="33.4024497">
<ele>363.99</ele>
<time>2015-05-01T11:54:42Z</time>
</trkpt>
<trkpt lat="34.9032415" lon="33.4024876">
<ele>364.01</ele>
<time>2015-05-01T11:54:44Z</time>
</trkpt>
<trkpt lat="34.9032168" lon="33.4025412">
<ele>363.51</ele>
<time>2015-05-01T11:54:46Z</time>
</trkpt>
<trkpt lat="34.9032265" lon="33.4025957">
<ele>363.14</ele>
<time>2015-05-01T11:54:48Z</time>
</trkpt>
<trkpt lat="34.9032647" lon="33.4026266">
<ele>363.05</ele>
<time>2015-05-01T11:54:50Z</time>
</trkpt>
<trkpt lat="34.9033060" lon="33.4025673">
<ele>362.14</ele>
<time>2015-05-01T11:54:53Z</time>
</trkpt>
<trkpt lat="34.9032894" lon="33.4024923">
<ele>362.03</ele>
<time>2015-05-01T11:54:56Z</time>
</trkpt>
<trkpt lat="34.9032934" lon="33.4024234">
<ele>363.33</ele>
<time>2015-05-01T11:55:01Z</time>
</trkpt>
<trkpt lat="34.9032480" lon="33.4024156">
<ele>363.03</ele>
<time>2015-05-01T11:55:08Z</time>
</trkpt>
<trkpt lat="34.9032085" lon="33.4024547">
<ele>362.86</ele>
<time>2015-05-01T11:55:13Z</time>
</trkpt>
<trkpt lat="34.9032223" lon="33.4025078">
<ele>362.79</ele>
<time>2015-05-01T11:55:37Z</time>
</trkpt>
<trkpt lat="34.9032840" lon="33.4025038">
<ele>362.11</ele>
<time>2015-05-01T11:55:40Z</time>
</trkpt>
<trkpt lat="34.9033124" lon="33.4024454">
<ele>362.04</ele>
<time>2015-05-01T11:55:42Z</time>
</trkpt>
<trkpt lat="34.9033556" lon="33.4024088">
<ele>362.52</ele>
<time>2015-05-01T11:55:44Z</time>
</trkpt>
<trkpt lat="34.9034222" lon="33.4024025">
<ele>362.89</ele>
<time>2015-05-01T11:55:46Z</time>
</trkpt>
<trkpt lat="34.9034895" lon="33.4023844">
<ele>364.24</ele>
<time>2015-05-01T11:55:48Z</time>
</trkpt>
<trkpt lat="34.9035240" lon="33.4023414">
<ele>364.82</ele>
<time>2015-05-01T11:55:50Z</time>
</trkpt>
<trkpt lat="34.9035445" lon="33.4022761">
<ele>365.44</ele>
<time>2015-05-01T11:55:54Z</time>
</trkpt>
<trkpt lat="34.9035761" lon="33.4022318">
<ele>365.07</ele>
<time>2015-05-01T11:55:57Z</time>
</trkpt>
<trkpt lat="34.9036156" lon="33.4021830">
<ele>365.03</ele>
<time>2015-05-01T11:55:59Z</time>
</trkpt>
<trkpt lat="34.9036786" lon="33.4021347">
<ele>365.02</ele>
<time>2015-05-01T11:56:01Z</time>
</trkpt>
<trkpt lat="34.9037527" lon="33.4021333">
<ele>365.02</ele>
<time>2015-05-01T11:56:03Z</time>
</trkpt>
<trkpt lat="34.9038313" lon="33.4021423">
<ele>365.02</ele>
<time>2015-05-01T11:56:05Z</time>
</trkpt>
<trkpt lat="34.9039140" lon="33.4021474">
<ele>364.52</ele>
<time>2015-05-01T11:56:07Z</time>
</trkpt>
<trkpt lat="34.9039975" lon="33.4021466">
<ele>364.14</ele>
<time>2015-05-01T11:56:09Z</time>
</trkpt>
<trkpt lat="34.9040795" lon="33.4021531">
<ele>364.05</ele>
<time>2015-05-01T11:56:11Z</time>
</trkpt>
<trkpt lat="34.9041675" lon="33.4021639">
<ele>364.02</ele>
<time>2015-05-01T11:56:13Z</time>
</trkpt>
<trkpt lat="34.9042198" lon="33.4021807">
<ele>364.02</ele>
<time>2015-05-01T11:56:14Z</time>
</trkpt>
<trkpt lat="34.9042658" lon="33.4021900">
<ele>364.02</ele>
<time>2015-05-01T11:56:15Z</time>
</trkpt>
<trkpt lat="34.9043182" lon="33.4021928">
<ele>364.02</ele>
<time>2015-05-01T11:56:16Z</time>
</trkpt>
<trkpt lat="34.9043699" lon="33.4022000">
<ele>364.02</ele>
<time>2015-05-01T11:56:17Z</time>
</trkpt>
<trkpt lat="34.9044177" lon="33.4022100">
<ele>364.02</ele>
<time>2015-05-01T11:56:18Z</time>
</trkpt>
<trkpt lat="34.9044706" lon="33.4022203">
<ele>364.02</ele>
<time>2015-05-01T11:56:19Z</time>
</trkpt>
<trkpt lat="34.9045267" lon="33.4022310">
<ele>363.52</ele>
<time>2015-05-01T11:56:20Z</time>
</trkpt>
<trkpt lat="34.9045804" lon="33.4022434">
<ele>363.27</ele>
<time>2015-05-01T11:56:21Z</time>
</trkpt>
<trkpt lat="34.9046363" lon="33.4022600">
<ele>363.14</ele>
<time>2015-05-01T11:56:22Z</time>
</trkpt>
<trkpt lat="34.9046871" lon="33.4022815">
<ele>363.58</ele>
<time>2015-05-01T11:56:23Z</time>
</trkpt>
<trkpt lat="34.9047454" lon="33.4023016">
<ele>363.30</ele>
<time>2015-05-01T11:56:24Z</time>
</trkpt>
<trkpt lat="34.9048016" lon="33.4023183">
<ele>362.66</ele>
<time>2015-05-01T11:56:25Z</time>
</trkpt>
<trkpt lat="34.9048581" lon="33.4023349">
<ele>362.84</ele>
<time>2015-05-01T11:56:26Z</time>
</trkpt>
<trkpt lat="34.9049117" lon="33.4023493">
<ele>362.43</ele>
<time>2015-05-01T11:56:27Z</time>
</trkpt>
<trkpt lat="34.9049716" lon="33.4023654">
<ele>362.22</ele>
<time>2015-05-01T11:56:28Z</time>
</trkpt>
<trkpt lat="34.9050288" lon="33.4023848">
<ele>362.12</ele>
<time>2015-05-01T11:56:29Z</time>
</trkpt>
<trkpt lat="34.9050871" lon="33.4024063">
<ele>362.57</ele>
<time>2015-05-01T11:56:30Z</time>
</trkpt>
<trkpt lat="34.9051430" lon="33.4024371">
<ele>362.79</ele>
<time>2015-05-01T11:56:31Z</time>
</trkpt>
<trkpt lat="34.9051915" lon="33.4024604">
<ele>362.90</ele>
<time>2015-05-01T11:56:32Z</time>
</trkpt>
<trkpt lat="34.9052490" lon="33.4024825">
<ele>362.24</ele>
<time>2015-05-01T11:56:34Z</time>
</trkpt>
<trkpt lat="34.9053124" lon="33.4025434">
<ele>360.52</ele>
<time>2015-05-01T11:58:26Z</time>
</trkpt>
<trkpt lat="34.9053843" lon="33.4025818">
<ele>360.14</ele>
<time>2015-05-01T11:58:28Z</time>
</trkpt>
<trkpt lat="34.9054891" lon="33.4026278">
<ele>360.30</ele>
<time>2015-05-01T11:58:30Z</time>
</trkpt>
<trkpt lat="34.9055342" lon="33.4026490">
<ele>360.16</ele>
<time>2015-05-01T11:58:31Z</time>
</trkpt>
<trkpt lat="34.9055872" lon="33.4026738">
<ele>360.59</ele>
<time>2015-05-01T11:58:32Z</time>
</trkpt>
<trkpt lat="34.9056313" lon="33.4026956">
<ele>360.80</ele>
<time>2015-05-01T11:58:33Z</time>
</trkpt>
<trkpt lat="34.9056760" lon="33.4027231">
<ele>360.91</ele>
<time>2015-05-01T11:58:34Z</time>
</trkpt>
<trkpt lat="34.9057303" lon="33.4027445">
<ele>360.96</ele>
<time>2015-05-01T11:58:35Z</time>
</trkpt>
<trkpt lat="34.9057782" lon="33.4027680">
<ele>360.99</ele>
<time>2015-05-01T11:58:36Z</time>
</trkpt>
<trkpt lat="34.9058295" lon="33.4027905">
<ele>360.50</ele>
<time>2015-05-01T11:58:37Z</time>
</trkpt>
<trkpt lat="34.9058900" lon="33.4028115">
<ele>360.26</ele>
<time>2015-05-01T11:58:38Z</time>
</trkpt>
<trkpt lat="34.9059401" lon="33.4028366">
<ele>360.14</ele>
<time>2015-05-01T11:58:39Z</time>
</trkpt>
<trkpt lat="34.9059939" lon="33.4028620">
<ele>360.08</ele>
<time>2015-05-01T11:58:40Z</time>
</trkpt>
<trkpt lat="34.9060548" lon="33.4028877">
<ele>360.05</ele>
<time>2015-05-01T11:58:41Z</time>
</trkpt>
<trkpt lat="34.9061098" lon="33.4029099">
<ele>359.53</ele>
<time>2015-05-01T11:58:42Z</time>
</trkpt>
<trkpt lat="34.9061605" lon="33.4029356">
<ele>359.27</ele>
<time>2015-05-01T11:58:43Z</time>
</trkpt>
<trkpt lat="34.9062166" lon="33.4029671">
<ele>359.14</ele>
<time>2015-05-01T11:58:44Z</time>
</trkpt>
<trkpt lat="34.9062774" lon="33.4029969">
<ele>359.08</ele>
<time>2015-05-01T11:58:45Z</time>
</trkpt>
<trkpt lat="34.9063369" lon="33.4030273">
<ele>358.55</ele>
<time>2015-05-01T11:58:46Z</time>
</trkpt>
<trkpt lat="34.9063964" lon="33.4030604">
<ele>358.78</ele>
<time>2015-05-01T11:58:47Z</time>
</trkpt>
<trkpt lat="34.9064587" lon="33.4030878">
<ele>358.40</ele>
<time>2015-05-01T11:58:48Z</time>
</trkpt>
<trkpt lat="34.9065176" lon="33.4031170">
<ele>358.21</ele>
<time>2015-05-01T11:58:49Z</time>
</trkpt>
<trkpt lat="34.9065747" lon="33.4031397">
<ele>357.61</ele>
<time>2015-05-01T11:58:50Z</time>
</trkpt>
<trkpt lat="34.9066358" lon="33.4031659">
<ele>356.81</ele>
<time>2015-05-01T11:58:51Z</time>
</trkpt>
<trkpt lat="34.9067008" lon="33.4031947">
<ele>356.41</ele>
<time>2015-05-01T11:58:52Z</time>
</trkpt>
<trkpt lat="34.9067658" lon="33.4032243">
<ele>356.72</ele>
<time>2015-05-01T11:58:53Z</time>
</trkpt>
<trkpt lat="34.9068234" lon="33.4032555">
<ele>356.87</ele>
<time>2015-05-01T11:58:54Z</time>
</trkpt>
<trkpt lat="34.9068846" lon="33.4032849">
<ele>356.44</ele>
<time>2015-05-01T11:58:55Z</time>
</trkpt>
<trkpt lat="34.9069518" lon="33.4033172">
<ele>356.23</ele>
<time>2015-05-01T11:58:56Z</time>
</trkpt>
<trkpt lat="34.9070193" lon="33.4033447">
<ele>356.62</ele>
<time>2015-05-01T11:58:57Z</time>
</trkpt>
<trkpt lat="34.9070823" lon="33.4033745">
<ele>356.82</ele>
<time>2015-05-01T11:58:58Z</time>
</trkpt>
<trkpt lat="34.9071370" lon="33.4034092">
<ele>356.92</ele>
<time>2015-05-01T11:58:59Z</time>
</trkpt>
<trkpt lat="34.9072031" lon="33.4034373">
<ele>356.97</ele>
<time>2015-05-01T11:59:00Z</time>
</trkpt>
<trkpt lat="34.9072699" lon="33.4034651">
<ele>356.99</ele>
<time>2015-05-01T11:59:01Z</time>
</trkpt>
<trkpt lat="34.9073243" lon="33.4034988">
<ele>356.50</ele>
<time>2015-05-01T11:59:02Z</time>
</trkpt>
<trkpt lat="34.9073863" lon="33.4035299">
<ele>356.26</ele>
<time>2015-05-01T11:59:03Z</time>
</trkpt>
<trkpt lat="34.9074494" lon="33.4035563">
<ele>356.14</ele>
<time>2015-05-01T11:59:04Z</time>
</trkpt>
<trkpt lat="34.9075148" lon="33.4035894">
<ele>356.08</ele>
<time>2015-05-01T11:59:05Z</time>
</trkpt>
<trkpt lat="34.9075772" lon="33.4036171">
<ele>355.55</ele>
<time>2015-05-01T11:59:06Z</time>
</trkpt>
<trkpt lat="34.9076393" lon="33.4036522">
<ele>355.28</ele>
<time>2015-05-01T11:59:07Z</time>
</trkpt>
<trkpt lat="34.9077060" lon="33.4036893">
<ele>354.65</ele>
<time>2015-05-01T11:59:08Z</time>
</trkpt>
<trkpt lat="34.9077724" lon="33.4037217">
<ele>354.33</ele>
<time>2015-05-01T11:59:09Z</time>
</trkpt>
<trkpt lat="34.9078437" lon="33.4037567">
<ele>354.17</ele>
<time>2015-05-01T11:59:10Z</time>
</trkpt>
<trkpt lat="34.9079122" lon="33.4037885">
<ele>354.10</ele>
<time>2015-05-01T11:59:11Z</time>
</trkpt>
<trkpt lat="34.9079841" lon="33.4038232">
<ele>353.56</ele>
<time>2015-05-01T11:59:12Z</time>
</trkpt>
<trkpt lat="34.9080576" lon="33.4038629">
<ele>353.29</ele>
<time>2015-05-01T11:59:13Z</time>
</trkpt>
<trkpt lat="34.9081286" lon="33.4038958">
<ele>353.15</ele>
<time>2015-05-01T11:59:14Z</time>
</trkpt>
<trkpt lat="34.9081948" lon="33.4039267">
<ele>353.08</ele>
<time>2015-05-01T11:59:15Z</time>
</trkpt>
<trkpt lat="34.9082712" lon="33.4039596">
<ele>353.05</ele>
<time>2015-05-01T11:59:16Z</time>
</trkpt>
<trkpt lat="34.9083475" lon="33.4039956">
<ele>353.03</ele>
<time>2015-05-01T11:59:17Z</time>
</trkpt>
<trkpt lat="34.9084217" lon="33.4040303">
<ele>353.52</ele>
<time>2015-05-01T11:59:18Z</time>
</trkpt>
<trkpt lat="34.9084937" lon="33.4040665">
<ele>353.77</ele>
<time>2015-05-01T11:59:19Z</time>
</trkpt>
<trkpt lat="34.9085712" lon="33.4041036">
<ele>353.89</ele>
<time>2015-05-01T11:59:20Z</time>
</trkpt>
<trkpt lat="34.9086442" lon="33.4041380">
<ele>353.95</ele>
<time>2015-05-01T11:59:21Z</time>
</trkpt>
<trkpt lat="34.9087247" lon="33.4041632">
<ele>353.99</ele>
<time>2015-05-01T11:59:22Z</time>
</trkpt>
<trkpt lat="34.9087986" lon="33.4041943">
<ele>353.50</ele>
<time>2015-05-01T11:59:23Z</time>
</trkpt>
<trkpt lat="34.9088674" lon="33.4042392">
<ele>353.76</ele>
<time>2015-05-01T11:59:24Z</time>
</trkpt>
<trkpt lat="34.9089454" lon="33.4042823">
<ele>353.89</ele>
<time>2015-05-01T11:59:25Z</time>
</trkpt>
<trkpt lat="34.9090231" lon="33.4043220">
<ele>353.95</ele>
<time>2015-05-01T11:59:26Z</time>
</trkpt>
<trkpt lat="34.9090949" lon="33.4043610">
<ele>353.98</ele>
<time>2015-05-01T11:59:27Z</time>
</trkpt>
<trkpt lat="34.9091700" lon="33.4043965">
<ele>353.50</ele>
<time>2015-05-01T11:59:28Z</time>
</trkpt>
<trkpt lat="34.9092431" lon="33.4044394">
<ele>353.26</ele>
<time>2015-05-01T11:59:29Z</time>
</trkpt>
<trkpt lat="34.9093152" lon="33.4044846">
<ele>353.14</ele>
<time>2015-05-01T11:59:30Z</time>
</trkpt>
<trkpt lat="34.9093746" lon="33.4045263">
<ele>353.08</ele>
<time>2015-05-01T11:59:31Z</time>
</trkpt>
<trkpt lat="34.9094467" lon="33.4045640">
<ele>352.55</ele>
<time>2015-05-01T11:59:32Z</time>
</trkpt>
<trkpt lat="34.9095136" lon="33.4046049">
<ele>352.28</ele>
<time>2015-05-01T11:59:33Z</time>
</trkpt>
<trkpt lat="34.9095816" lon="33.4046353">
<ele>352.15</ele>
<time>2015-05-01T11:59:34Z</time>
</trkpt>
<trkpt lat="34.9096454" lon="33.4046737">
<ele>351.58</ele>
<time>2015-05-01T11:59:35Z</time>
</trkpt>
<trkpt lat="34.9097065" lon="33.4047040">
<ele>351.30</ele>
<time>2015-05-01T11:59:36Z</time>
</trkpt>
<trkpt lat="34.9097695" lon="33.4047383">
<ele>351.16</ele>
<time>2015-05-01T11:59:37Z</time>
</trkpt>
<trkpt lat="34.9098359" lon="33.4047807">
<ele>350.59</ele>
<time>2015-05-01T11:59:38Z</time>
</trkpt>
<trkpt lat="34.9099013" lon="33.4048206">
<ele>350.30</ele>
<time>2015-05-01T11:59:39Z</time>
</trkpt>
<trkpt lat="34.9099735" lon="33.4048575">
<ele>349.66</ele>
<time>2015-05-01T11:59:40Z</time>
</trkpt>
<trkpt lat="34.9100415" lon="33.4048977">
<ele>348.84</ele>
<time>2015-05-01T11:59:41Z</time>
</trkpt>
<trkpt lat="34.9101247" lon="33.4049456">
<ele>348.43</ele>
<time>2015-05-01T11:59:42Z</time>
</trkpt>
<trkpt lat="34.9101994" lon="33.4049877">
<ele>347.72</ele>
<time>2015-05-01T11:59:43Z</time>
</trkpt>
<trkpt lat="34.9102930" lon="33.4050300">
<ele>346.87</ele>
<time>2015-05-01T11:59:44Z</time>
</trkpt>
<trkpt lat="34.9103800" lon="33.4050721">
<ele>346.44</ele>
<time>2015-05-01T11:59:45Z</time>
</trkpt>
<trkpt lat="34.9104726" lon="33.4051143">
<ele>345.73</ele>
<time>2015-05-01T11:59:46Z</time>
</trkpt>
<trkpt lat="34.9105568" lon="33.4051494">
<ele>345.37</ele>
<time>2015-05-01T11:59:47Z</time>
</trkpt>
<trkpt lat="34.9106534" lon="33.4051836">
<ele>344.69</ele>
<time>2015-05-01T11:59:48Z</time>
</trkpt>
<trkpt lat="34.9107465" lon="33.4052184">
<ele>343.86</ele>
<time>2015-05-01T11:59:49Z</time>
</trkpt>
<trkpt lat="34.9108464" lon="33.4052611">
<ele>343.44</ele>
<time>2015-05-01T11:59:50Z</time>
</trkpt>
<trkpt lat="34.9109461" lon="33.4053004">
<ele>342.73</ele>
<time>2015-05-01T11:59:51Z</time>
</trkpt>
<trkpt lat="34.9110534" lon="33.4053340">
<ele>342.37</ele>
<time>2015-05-01T11:59:52Z</time>
</trkpt>
<trkpt lat="34.9111576" lon="33.4053716">
<ele>341.69</ele>
<time>2015-05-01T11:59:53Z</time>
</trkpt>
<trkpt lat="34.9112570" lon="33.4054126">
<ele>341.35</ele>
<time>2015-05-01T11:59:54Z</time>
</trkpt>
<trkpt lat="34.9113623" lon="33.4054473">
<ele>341.69</ele>
<time>2015-05-01T11:59:55Z</time>
</trkpt>
<trkpt lat="34.9114633" lon="33.4054994">
<ele>341.85</ele>
<time>2015-05-01T11:59:56Z</time>
</trkpt>
<trkpt lat="34.9115552" lon="33.4055500">
<ele>341.93</ele>
<time>2015-05-01T11:59:57Z</time>
</trkpt>
<trkpt lat="34.9116521" lon="33.4055967">
<ele>341.97</ele>
<time>2015-05-01T11:59:58Z</time>
</trkpt>
<trkpt lat="34.9117498" lon="33.4056430">
<ele>342.00</ele>
<time>2015-05-01T11:59:59Z</time>
</trkpt>
<trkpt lat="34.9118458" lon="33.4056818">
<ele>342.01</ele>
<time>2015-05-01T12:00:00Z</time>
</trkpt>
<trkpt lat="34.9119301" lon="33.4057292">
<ele>341.51</ele>
<time>2015-05-01T12:00:01Z</time>
</trkpt>
<trkpt lat="34.9120170" lon="33.4057774">
<ele>341.76</ele>
<time>2015-05-01T12:00:02Z</time>
</trkpt>
<trkpt lat="34.9121012" lon="33.4058309">
<ele>341.39</ele>
<time>2015-05-01T12:00:03Z</time>
</trkpt>
<trkpt lat="34.9121893" lon="33.4058886">
<ele>341.20</ele>
<time>2015-05-01T12:00:04Z</time>
</trkpt>
<trkpt lat="34.9122670" lon="33.4059429">
<ele>341.11</ele>
<time>2015-05-01T12:00:05Z</time>
</trkpt>
<trkpt lat="34.9123396" lon="33.4060069">
<ele>341.06</ele>
<time>2015-05-01T12:00:06Z</time>
</trkpt>
<trkpt lat="34.9124229" lon="33.4060641">
<ele>341.04</ele>
<time>2015-05-01T12:00:07Z</time>
</trkpt>
<trkpt lat="34.9124984" lon="33.4061330">
<ele>341.53</ele>
<time>2015-05-01T12:00:08Z</time>
</trkpt>
<trkpt lat="34.9125642" lon="33.4062120">
<ele>342.27</ele>
<time>2015-05-01T12:00:09Z</time>
</trkpt>
<trkpt lat="34.9126309" lon="33.4062790">
<ele>342.14</ele>
<time>2015-05-01T12:00:10Z</time>
</trkpt>
<trkpt lat="34.9126990" lon="33.4063462">
<ele>342.08</ele>
<time>2015-05-01T12:00:11Z</time>
</trkpt>
<trkpt lat="34.9127677" lon="33.4064212">
<ele>342.05</ele>
<time>2015-05-01T12:00:12Z</time>
</trkpt>
<trkpt lat="34.9128333" lon="33.4065025">
<ele>342.03</ele>
<time>2015-05-01T12:00:13Z</time>
</trkpt>
<trkpt lat="34.9129009" lon="33.4065721">
<ele>342.02</ele>
<time>2015-05-01T12:00:14Z</time>
</trkpt>
<trkpt lat="34.9129704" lon="33.4066407">
<ele>341.52</ele>
<time>2015-05-01T12:00:15Z</time>
</trkpt>
<trkpt lat="34.9130416" lon="33.4067164">
<ele>340.77</ele>
<time>2015-05-01T12:00:16Z</time>
</trkpt>
<trkpt lat="34.9131100" lon="33.4067906">
<ele>339.89</ele>
<time>2015-05-01T12:00:17Z</time>
</trkpt>
<trkpt lat="34.9131839" lon="33.4068665">
<ele>338.95</ele>
<time>2015-05-01T12:00:18Z</time>
</trkpt>
<trkpt lat="34.9132558" lon="33.4069423">
<ele>337.98</ele>
<time>2015-05-01T12:00:19Z</time>
</trkpt>
<trkpt lat="34.9133286" lon="33.4070224">
<ele>337.50</ele>
<time>2015-05-01T12:00:20Z</time>
</trkpt>
<trkpt lat="34.9134030" lon="33.4070947">
<ele>337.76</ele>
<time>2015-05-01T12:00:21Z</time>
</trkpt>
<trkpt lat="34.9134707" lon="33.4071660">
<ele>338.89</ele>
<time>2015-05-01T12:00:22Z</time>
</trkpt>
<trkpt lat="34.9135418" lon="33.4072316">
<ele>338.95</ele>
<time>2015-05-01T12:00:23Z</time>
</trkpt>
<trkpt lat="34.9136140" lon="33.4072994">
<ele>339.48</ele>
<time>2015-05-01T12:00:24Z</time>
</trkpt>
<trkpt lat="34.9136816" lon="33.4073672">
<ele>339.75</ele>
<time>2015-05-01T12:00:25Z</time>
</trkpt>
<trkpt lat="34.9137420" lon="33.4074448">
<ele>339.88</ele>
<time>2015-05-01T12:00:26Z</time>
</trkpt>
<trkpt lat="34.9137967" lon="33.4075101">
<ele>340.45</ele>
<time>2015-05-01T12:00:27Z</time>
</trkpt>
<trkpt lat="34.9138523" lon="33.4075764">
<ele>341.23</ele>
<time>2015-05-01T12:00:28Z</time>
</trkpt>
<trkpt lat="34.9139057" lon="33.4076480">
<ele>341.62</ele>
<time>2015-05-01T12:00:29Z</time>
</trkpt>
<trkpt lat="34.9139562" lon="33.4077094">
<ele>341.32</ele>
<time>2015-05-01T12:00:30Z</time>
</trkpt>
<trkpt lat="34.9140034" lon="33.4077700">
<ele>340.67</ele>
<time>2015-05-01T12:00:31Z</time>
</trkpt>
<trkpt lat="34.9140524" lon="33.4078319">
<ele>339.84</ele>
<time>2015-05-01T12:00:32Z</time>
</trkpt>
<trkpt lat="34.9140947" lon="33.4078827">
<ele>339.43</ele>
<time>2015-05-01T12:00:33Z</time>
</trkpt>
<trkpt lat="34.9141394" lon="33.4079354">
<ele>339.22</ele>
<time>2015-05-01T12:00:34Z</time>
</trkpt>
<trkpt lat="34.9141790" lon="33.4079834">
<ele>339.12</ele>
<time>2015-05-01T12:00:35Z</time>
</trkpt>
<trkpt lat="34.9142200" lon="33.4080323">
<ele>338.07</ele>
<time>2015-05-01T12:00:36Z</time>
</trkpt>
<trkpt lat="34.9142579" lon="33.4080986">
<ele>337.04</ele>
<time>2015-05-01T12:00:37Z</time>
</trkpt>
<trkpt lat="34.9143040" lon="33.4081388">
<ele>337.03</ele>
<time>2015-05-01T12:00:38Z</time>
</trkpt>
<trkpt lat="34.9143453" lon="33.4081854">
<ele>337.02</ele>
<time>2015-05-01T12:00:39Z</time>
</trkpt>
<trkpt lat="34.9143854" lon="33.4082300">
<ele>337.02</ele>
<time>2015-05-01T12:00:40Z</time>
</trkpt>
<trkpt lat="34.9144262" lon="33.4082735">
<ele>337.52</ele>
<time>2015-05-01T12:00:41Z</time>
</trkpt>
<trkpt lat="34.9144699" lon="33.4083107">
<ele>337.27</ele>
<time>2015-05-01T12:00:42Z</time>
</trkpt>
<trkpt lat="34.9145080" lon="33.4083544">
<ele>336.64</ele>
<time>2015-05-01T12:00:43Z</time>
</trkpt>
<trkpt lat="34.9145530" lon="33.4084044">
<ele>336.83</ele>
<time>2015-05-01T12:00:44Z</time>
</trkpt>
<trkpt lat="34.9145916" lon="33.4084446">
<ele>336.92</ele>
<time>2015-05-01T12:00:45Z</time>
</trkpt>
<trkpt lat="34.9146283" lon="33.4084950">
<ele>337.47</ele>
<time>2015-05-01T12:00:46Z</time>
</trkpt>
<trkpt lat="34.9147059" lon="33.4085672">
<ele>337.13</ele>
<time>2015-05-01T12:00:48Z</time>
</trkpt>
<trkpt lat="34.9147522" lon="33.4086021">
<ele>337.07</ele>
<time>2015-05-01T12:00:49Z</time>
</trkpt>
<trkpt lat="34.9147874" lon="33.4086437">
<ele>337.04</ele>
<time>2015-05-01T12:00:50Z</time>
</trkpt>
<trkpt lat="34.9148251" lon="33.4086882">
<ele>337.53</ele>
<time>2015-05-01T12:00:51Z</time>
</trkpt>
<trkpt lat="34.9148626" lon="33.4087258">
<ele>337.27</ele>
<time>2015-05-01T12:00:52Z</time>
</trkpt>
<trkpt lat="34.9148969" lon="33.4087639">
<ele>337.14</ele>
<time>2015-05-01T12:00:53Z</time>
</trkpt>
<trkpt lat="34.9149627" lon="33.4088224">
<ele>337.05</ele>
<time>2015-05-01T12:00:55Z</time>
</trkpt>
<trkpt lat="34.9150002" lon="33.4088573">
<ele>336.53</ele>
<time>2015-05-01T12:00:56Z</time>
</trkpt>
<trkpt lat="34.9150386" lon="33.4089027">
<ele>336.27</ele>
<time>2015-05-01T12:00:57Z</time>
</trkpt>
<trkpt lat="34.9150815" lon="33.4089437">
<ele>336.15</ele>
<time>2015-05-01T12:00:58Z</time>
</trkpt>
<trkpt lat="34.9151195" lon="33.4089829">
<ele>336.08</ele>
<time>2015-05-01T12:00:59Z</time>
</trkpt>
<trkpt lat="34.9151963" lon="33.4090641">
<ele>336.53</ele>
<time>2015-05-01T12:01:01Z</time>
</trkpt>
<trkpt lat="34.9152726" lon="33.4091398">
<ele>336.15</ele>
<time>2015-05-01T12:01:03Z</time>
</trkpt>
<trkpt lat="34.9153214" lon="33.4091758">
<ele>335.58</ele>
<time>2015-05-01T12:01:04Z</time>
</trkpt>
<trkpt lat="34.9153698" lon="33.4092162">
<ele>335.30</ele>
<time>2015-05-01T12:01:05Z</time>
</trkpt>
<trkpt lat="34.9154131" lon="33.4092528">
<ele>335.16</ele>
<time>2015-05-01T12:01:06Z</time>
</trkpt>
<trkpt lat="34.9154594" lon="33.4092875">
<ele>337.09</ele>
<time>2015-05-01T12:01:07Z</time>
</trkpt>
<trkpt lat="34.9155064" lon="33.4093295">
<ele>338.05</ele>
<time>2015-05-01T12:01:08Z</time>
</trkpt>
<trkpt lat="34.9155511" lon="33.4093744">
<ele>338.53</ele>
<time>2015-05-01T12:01:09Z</time>
</trkpt>
<trkpt lat="34.9155976" lon="33.4094115">
<ele>339.27</ele>
<time>2015-05-01T12:01:10Z</time>
</trkpt>
<trkpt lat="34.9156494" lon="33.4094516">
<ele>339.65</ele>
<time>2015-05-01T12:01:11Z</time>
</trkpt>
<trkpt lat="34.9157027" lon="33.4094867">
<ele>339.83</ele>
<time>2015-05-01T12:01:12Z</time>
</trkpt>
<trkpt lat="34.9157488" lon="33.4095148">
<ele>339.42</ele>
<time>2015-05-01T12:01:13Z</time>
</trkpt>
<trkpt lat="34.9157943" lon="33.4095574">
<ele>339.22</ele>
<time>2015-05-01T12:01:14Z</time>
</trkpt>
<trkpt lat="34.9158454" lon="33.4096010">
<ele>339.12</ele>
<time>2015-05-01T12:01:15Z</time>
</trkpt>
<trkpt lat="34.9159030" lon="33.4096380">
<ele>339.07</ele>
<time>2015-05-01T12:01:16Z</time>
</trkpt>
<trkpt lat="34.9159493" lon="33.4096718">
<ele>339.04</ele>
<time>2015-05-01T12:01:17Z</time>
</trkpt>
<trkpt lat="34.9160113" lon="33.4097001">
<ele>339.03</ele>
<time>2015-05-01T12:01:18Z</time>
</trkpt>
<trkpt lat="34.9160642" lon="33.4097338">
<ele>339.02</ele>
<time>2015-05-01T12:01:19Z</time>
</trkpt>
<trkpt lat="34.9161231" lon="33.4097709">
<ele>339.02</ele>
<time>2015-05-01T12:01:20Z</time>
</trkpt>
<trkpt lat="34.9161781" lon="33.4098053">
<ele>339.52</ele>
<time>2015-05-01T12:01:21Z</time>
</trkpt>
<trkpt lat="34.9162314" lon="33.4098364">
<ele>339.77</ele>
<time>2015-05-01T12:01:22Z</time>
</trkpt>
<trkpt lat="34.9162839" lon="33.4098714">
<ele>339.89</ele>
<time>2015-05-01T12:01:23Z</time>
</trkpt>
<trkpt lat="34.9163381" lon="33.4099013">
<ele>339.45</ele>
<time>2015-05-01T12:01:24Z</time>
</trkpt>
<trkpt lat="34.9163873" lon="33.4099379">
<ele>339.23</ele>
<time>2015-05-01T12:01:25Z</time>
</trkpt>
<trkpt lat="34.9164454" lon="33.4099680">
<ele>339.13</ele>
<time>2015-05-01T12:01:26Z</time>
</trkpt>
<trkpt lat="34.9164930" lon="33.4099965">
<ele>339.07</ele>
<time>2015-05-01T12:01:27Z</time>
</trkpt>
<trkpt lat="34.9165582" lon="33.4100274">
<ele>339.04</ele>
<time>2015-05-01T12:01:28Z</time>
</trkpt>
<trkpt lat="34.9166184" lon="33.4100583">
<ele>339.03</ele>
<time>2015-05-01T12:01:29Z</time>
</trkpt>
<trkpt lat="34.9166701" lon="33.4100907">
<ele>339.02</ele>
<time>2015-05-01T12:01:30Z</time>
</trkpt>
<trkpt lat="34.9167283" lon="33.4101285">
<ele>339.52</ele>
<time>2015-05-01T12:01:31Z</time>
</trkpt>
<trkpt lat="34.9167892" lon="33.4101585">
<ele>339.77</ele>
<time>2015-05-01T12:01:32Z</time>
</trkpt>
<trkpt lat="34.9168403" lon="33.4101853">
<ele>339.39</ele>
<time>2015-05-01T12:01:33Z</time>
</trkpt>
<trkpt lat="34.9168831" lon="33.4102249">
<ele>338.70</ele>
<time>2015-05-01T12:01:34Z</time>
</trkpt>
<trkpt lat="34.9169402" lon="33.4102559">
<ele>338.36</ele>
<time>2015-05-01T12:01:35Z</time>
</trkpt>
<trkpt lat="34.9169912" lon="33.4102690">
<ele>338.19</ele>
<time>2015-05-01T12:01:36Z</time>
</trkpt>
<trkpt lat="34.9170454" lon="33.4102934">
<ele>338.60</ele>
<time>2015-05-01T12:01:37Z</time>
</trkpt>
<trkpt lat="34.9170913" lon="33.4103150">
<ele>338.81</ele>
<time>2015-05-01T12:01:38Z</time>
</trkpt>
<trkpt lat="34.9171452" lon="33.4103425">
<ele>338.91</ele>
<time>2015-05-01T12:01:39Z</time>
</trkpt>
<trkpt lat="34.9171968" lon="33.4103650">
<ele>338.46</ele>
<time>2015-05-01T12:01:40Z</time>
</trkpt>
<trkpt lat="34.9172411" lon="33.4103915">
<ele>338.24</ele>
<time>2015-05-01T12:01:41Z</time>
</trkpt>
<trkpt lat="34.9172876" lon="33.4104156">
<ele>338.13</ele>
<time>2015-05-01T12:01:42Z</time>
</trkpt>
<trkpt lat="34.9173322" lon="33.4104327">
<ele>338.57</ele>
<time>2015-05-01T12:01:43Z</time>
</trkpt>
<trkpt lat="34.9173814" lon="33.4104521">
<ele>338.29</ele>
<time>2015-05-01T12:01:44Z</time>
</trkpt>
<trkpt lat="34.9174355" lon="33.4104811">
<ele>338.15</ele>
<time>2015-05-01T12:01:45Z</time>
</trkpt>
<trkpt lat="34.9174852" lon="33.4105093">
<ele>338.09</ele>
<time>2015-05-01T12:01:46Z</time>
</trkpt>
<trkpt lat="34.9175291" lon="33.4105218">
<ele>338.05</ele>
<time>2015-05-01T12:01:47Z</time>
</trkpt>
<trkpt lat="34.9175771" lon="33.4105459">
<ele>338.03</ele>
<time>2015-05-01T12:01:48Z</time>
</trkpt>
<trkpt lat="34.9176192" lon="33.4105685">
<ele>338.02</ele>
<time>2015-05-01T12:01:49Z</time>
</trkpt>
<trkpt lat="34.9176649" lon="33.4105823">
<ele>338.02</ele>
<time>2015-05-01T12:01:50Z</time>
</trkpt>
<trkpt lat="34.9177104" lon="33.4106026">
<ele>338.02</ele>
<time>2015-05-01T12:01:51Z</time>
</trkpt>
<trkpt lat="34.9177602" lon="33.4106311">
<ele>338.52</ele>
<time>2015-05-01T12:01:52Z</time>
</trkpt>
<trkpt lat="34.9178500" lon="33.4106589">
<ele>338.64</ele>
<time>2015-05-01T12:01:54Z</time>
</trkpt>
<trkpt lat="34.9179256" lon="33.4107005">
<ele>338.17</ele>
<time>2015-05-01T12:01:56Z</time>
</trkpt>
<trkpt lat="34.9180044" lon="33.4107282">
<ele>338.06</ele>
<time>2015-05-01T12:01:58Z</time>
</trkpt>
<trkpt lat="34.9180512" lon="33.4107450">
<ele>338.04</ele>
<time>2015-05-01T12:01:59Z</time>
</trkpt>
<trkpt lat="34.9181002" lon="33.4107618">
<ele>338.03</ele>
<time>2015-05-01T12:02:00Z</time>
</trkpt>
<trkpt lat="34.9181508" lon="33.4107894">
<ele>338.02</ele>
<time>2015-05-01T12:02:01Z</time>
</trkpt>
<trkpt lat="34.9182041" lon="33.4108027">
<ele>338.02</ele>
<time>2015-05-01T12:02:02Z</time>
</trkpt>
<trkpt lat="34.9182517" lon="33.4108232">
<ele>338.02</ele>
<time>2015-05-01T12:02:03Z</time>
</trkpt>
<trkpt lat="34.9182982" lon="33.4108374">
<ele>338.02</ele>
<time>2015-05-01T12:02:04Z</time>
</trkpt>
<trkpt lat="34.9183436" lon="33.4108516">
<ele>338.02</ele>
<time>2015-05-01T12:02:05Z</time>
</trkpt>
<trkpt lat="34.9184224" lon="33.4108918">
<ele>338.27</ele>
<time>2015-05-01T12:02:07Z</time>
</trkpt>
<trkpt lat="34.9184720" lon="33.4109080">
<ele>338.14</ele>
<time>2015-05-01T12:02:08Z</time>
</trkpt>
<trkpt lat="34.9185163" lon="33.4109310">
<ele>337.58</ele>
<time>2015-05-01T12:02:09Z</time>
</trkpt>
<trkpt lat="34.9185664" lon="33.4109543">
<ele>337.30</ele>
<time>2015-05-01T12:02:10Z</time>
</trkpt>
<trkpt lat="34.9186365" lon="33.4109809">
<ele>337.09</ele>
<time>2015-05-01T12:02:12Z</time>
</trkpt>
<trkpt lat="34.9186949" lon="33.4109873">
<ele>330.20</ele>
<time>2015-05-01T12:03:12Z</time>
</trkpt>
<trkpt lat="34.9187374" lon="33.4110071">
<ele>330.06</ele>
<time>2015-05-01T12:03:14Z</time>
</trkpt>
<trkpt lat="34.9187885" lon="33.4110298">
<ele>330.28</ele>
<time>2015-05-01T12:03:16Z</time>
</trkpt>
<trkpt lat="34.9188472" lon="33.4110579">
<ele>330.33</ele>
<time>2015-05-01T12:03:18Z</time>
</trkpt>
<trkpt lat="34.9189130" lon="33.4110871">
<ele>330.09</ele>
<time>2015-05-01T12:03:20Z</time>
</trkpt>
<trkpt lat="34.9189863" lon="33.4111167">
<ele>330.04</ele>
<time>2015-05-01T12:03:22Z</time>
</trkpt>
<trkpt lat="34.9190723" lon="33.4111612">
<ele>330.02</ele>
<time>2015-05-01T12:03:24Z</time>
</trkpt>
<trkpt lat="34.9191441" lon="33.4112080">
<ele>329.52</ele>
<time>2015-05-01T12:03:25Z</time>
</trkpt>
<trkpt lat="34.9191893" lon="33.4112338">
<ele>329.27</ele>
<time>2015-05-01T12:03:26Z</time>
</trkpt>
<trkpt lat="34.9192432" lon="33.4112626">
<ele>328.64</ele>
<time>2015-05-01T12:03:27Z</time>
</trkpt>
<trkpt lat="34.9192976" lon="33.4112913">
<ele>328.33</ele>
<time>2015-05-01T12:03:28Z</time>
</trkpt>
<trkpt lat="34.9193455" lon="33.4113255">
<ele>327.67</ele>
<time>2015-05-01T12:03:29Z</time>
</trkpt>
<trkpt lat="34.9194003" lon="33.4113479">
<ele>326.84</ele>
<time>2015-05-01T12:03:30Z</time>
</trkpt>
<trkpt lat="34.9194507" lon="33.4113815">
<ele>326.43</ele>
<time>2015-05-01T12:03:31Z</time>
</trkpt>
<trkpt lat="34.9195039" lon="33.4114119">
<ele>325.72</ele>
<time>2015-05-01T12:03:32Z</time>
</trkpt>
<trkpt lat="34.9195621" lon="33.4114404">
<ele>325.87</ele>
<time>2015-05-01T12:03:33Z</time>
</trkpt>
<trkpt lat="34.9196175" lon="33.4114667">
<ele>325.94</ele>
<time>2015-05-01T12:03:34Z</time>
</trkpt>
<trkpt lat="34.9196715" lon="33.4114960">
<ele>325.48</ele>
<time>2015-05-01T12:03:35Z</time>
</trkpt>
<trkpt lat="34.9197246" lon="33.4115262">
<ele>325.25</ele>
<time>2015-05-01T12:03:36Z</time>
</trkpt>
<trkpt lat="34.9197781" lon="33.4115644">
<ele>324.63</ele>
<time>2015-05-01T12:03:37Z</time>
</trkpt>
<trkpt lat="34.9198359" lon="33.4115950">
<ele>324.82</ele>
<time>2015-05-01T12:03:38Z</time>
</trkpt>
<trkpt lat="34.9198909" lon="33.4116229">
<ele>324.42</ele>
<time>2015-05-01T12:03:39Z</time>
</trkpt>
<trkpt lat="34.9199508" lon="33.4116503">
<ele>324.22</ele>
<time>2015-05-01T12:03:40Z</time>
</trkpt>
<trkpt lat="34.9200107" lon="33.4116847">
<ele>323.62</ele>
<time>2015-05-01T12:03:41Z</time>
</trkpt>
<trkpt lat="34.9200736" lon="33.4117257">
<ele>323.32</ele>
<time>2015-05-01T12:03:42Z</time>
</trkpt>
<trkpt lat="34.9201323" lon="33.4117635">
<ele>323.67</ele>
<time>2015-05-01T12:03:43Z</time>
</trkpt>
<trkpt lat="34.9201962" lon="33.4117906">
<ele>323.84</ele>
<time>2015-05-01T12:03:44Z</time>
</trkpt>
<trkpt lat="34.9202577" lon="33.4118313">
<ele>323.93</ele>
<time>2015-05-01T12:03:45Z</time>
</trkpt>
<trkpt lat="34.9203134" lon="33.4118655">
<ele>323.47</ele>
<time>2015-05-01T12:03:46Z</time>
</trkpt>
<trkpt lat="34.9203750" lon="33.4118988">
<ele>323.74</ele>
<time>2015-05-01T12:03:47Z</time>
</trkpt>
<trkpt lat="34.9204348" lon="33.4119458">
<ele>323.88</ele>
<time>2015-05-01T12:03:48Z</time>
</trkpt>
<trkpt lat="34.9204988" lon="33.4119891">
<ele>323.95</ele>
<time>2015-05-01T12:03:49Z</time>
</trkpt>
<trkpt lat="34.9205616" lon="33.4120207">
<ele>323.98</ele>
<time>2015-05-01T12:03:50Z</time>
</trkpt>
<trkpt lat="34.9206145" lon="33.4120579">
<ele>324.00</ele>
<time>2015-05-01T12:03:51Z</time>
</trkpt>
<trkpt lat="34.9206672" lon="33.4121039">
<ele>323.51</ele>
<time>2015-05-01T12:03:52Z</time>
</trkpt>
<trkpt lat="34.9207223" lon="33.4121501">
<ele>322.76</ele>
<time>2015-05-01T12:03:53Z</time>
</trkpt>
<trkpt lat="34.9207870" lon="33.4121855">
<ele>322.39</ele>
<time>2015-05-01T12:03:54Z</time>
</trkpt>
<trkpt lat="34.9208413" lon="33.4122210">
<ele>322.20</ele>
<time>2015-05-01T12:03:55Z</time>
</trkpt>
<trkpt lat="34.9209001" lon="33.4122636">
<ele>322.11</ele>
<time>2015-05-01T12:03:56Z</time>
</trkpt>
<trkpt lat="34.9209597" lon="33.4123059">
<ele>322.06</ele>
<time>2015-05-01T12:03:57Z</time>
</trkpt>
<trkpt lat="34.9210109" lon="33.4123486">
<ele>322.04</ele>
<time>2015-05-01T12:03:58Z</time>
</trkpt>
<trkpt lat="34.9210654" lon="33.4123857">
<ele>321.53</ele>
<time>2015-05-01T12:03:59Z</time>
</trkpt>
<trkpt lat="34.9211184" lon="33.4124302">
<ele>321.27</ele>
<time>2015-05-01T12:04:00Z</time>
</trkpt>
<trkpt lat="34.9211763" lon="33.4124696">
<ele>321.64</ele>
<time>2015-05-01T12:04:01Z</time>
</trkpt>
<trkpt lat="34.9212290" lon="33.4125137">
<ele>321.83</ele>
<time>2015-05-01T12:04:02Z</time>
</trkpt>
<trkpt lat="34.9212755" lon="33.4125514">
<ele>321.42</ele>
<time>2015-05-01T12:04:03Z</time>
</trkpt>
<trkpt lat="34.9213302" lon="33.4125897">
<ele>321.22</ele>
<time>2015-05-01T12:04:04Z</time>
</trkpt>
<trkpt lat="34.9213805" lon="33.4126308">
<ele>322.12</ele>
<time>2015-05-01T12:04:05Z</time>
</trkpt>
<trkpt lat="34.9214339" lon="33.4126696">
<ele>322.57</ele>
<time>2015-05-01T12:04:06Z</time>
</trkpt>
<trkpt lat="34.9214910" lon="33.4127086">
<ele>322.79</ele>
<time>2015-05-01T12:04:07Z</time>
</trkpt>
<trkpt lat="34.9215421" lon="33.4127481">
<ele>322.40</ele>
<time>2015-05-01T12:04:08Z</time>
</trkpt>
<trkpt lat="34.9215925" lon="33.4127846">
<ele>322.21</ele>
<time>2015-05-01T12:04:09Z</time>
</trkpt>
<trkpt lat="34.9216281" lon="33.4128355">
<ele>321.61</ele>
<time>2015-05-01T12:04:10Z</time>
</trkpt>
<trkpt lat="34.9216858" lon="33.4128724">
<ele>321.31</ele>
<time>2015-05-01T12:04:11Z</time>
</trkpt>
<trkpt lat="34.9217416" lon="33.4129114">
<ele>321.17</ele>
<time>2015-05-01T12:04:12Z</time>
</trkpt>
<trkpt lat="34.9217894" lon="33.4129474">
<ele>320.59</ele>
<time>2015-05-01T12:04:13Z</time>
</trkpt>
<trkpt lat="34.9218393" lon="33.4129914">
<ele>320.80</ele>
<time>2015-05-01T12:04:14Z</time>
</trkpt>
<trkpt lat="34.9218869" lon="33.4130318">
<ele>320.91</ele>
<time>2015-05-01T12:04:15Z</time>
</trkpt>
<trkpt lat="34.9219356" lon="33.4130776">
<ele>320.96</ele>
<time>2015-05-01T12:04:16Z</time>
</trkpt>
<trkpt lat="34.9219866" lon="33.4131222">
<ele>320.99</ele>
<time>2015-05-01T12:04:17Z</time>
</trkpt>
<trkpt lat="34.9220380" lon="33.4131712">
<ele>320.50</ele>
<time>2015-05-01T12:04:18Z</time>
</trkpt>
<trkpt lat="34.9220823" lon="33.4131829">
<ele>319.76</ele>
<time>2015-05-01T12:04:19Z</time>
</trkpt>
<trkpt lat="34.9221377" lon="33.4132359">
<ele>319.39</ele>
<time>2015-05-01T12:04:20Z</time>
</trkpt>
<trkpt lat="34.9221945" lon="33.4132725">
<ele>319.20</ele>
<time>2015-05-01T12:04:21Z</time>
</trkpt>
<trkpt lat="34.9222412" lon="33.4133055">
<ele>319.11</ele>
<time>2015-05-01T12:04:22Z</time>
</trkpt>
<trkpt lat="34.9222875" lon="33.4133484">
<ele>319.06</ele>
<time>2015-05-01T12:04:23Z</time>
</trkpt>
<trkpt lat="34.9223355" lon="33.4133874">
<ele>319.04</ele>
<time>2015-05-01T12:04:24Z</time>
</trkpt>
<trkpt lat="34.9223719" lon="33.4134221">
<ele>319.53</ele>
<time>2015-05-01T12:04:25Z</time>
</trkpt>
<trkpt lat="34.9224256" lon="33.4134522">
<ele>319.77</ele>
<time>2015-05-01T12:04:26Z</time>
</trkpt>
<trkpt lat="34.9224665" lon="33.4134769">
<ele>319.39</ele>
<time>2015-05-01T12:04:27Z</time>
</trkpt>
<trkpt lat="34.9225209" lon="33.4135106">
<ele>319.20</ele>
<time>2015-05-01T12:04:28Z</time>
</trkpt>
<trkpt lat="34.9225670" lon="33.4135433">
<ele>318.61</ele>
<time>2015-05-01T12:04:29Z</time>
</trkpt>
<trkpt lat="34.9226167" lon="33.4135771">
<ele>318.31</ele>
<time>2015-05-01T12:04:30Z</time>
</trkpt>
<trkpt lat="34.9226572" lon="33.4136046">
<ele>317.66</ele>
<time>2015-05-01T12:04:31Z</time>
</trkpt>
<trkpt lat="34.9227136" lon="33.4136179">
<ele>317.84</ele>
<time>2015-05-01T12:04:32Z</time>
</trkpt>
<trkpt lat="34.9227608" lon="33.4136452">
<ele>317.43</ele>
<time>2015-05-01T12:04:33Z</time>
</trkpt>
<trkpt lat="34.9228139" lon="33.4136733">
<ele>317.22</ele>
<time>2015-05-01T12:04:34Z</time>
</trkpt>
<trkpt lat="34.9228635" lon="33.4137022">
<ele>316.62</ele>
<time>2015-05-01T12:04:35Z</time>
</trkpt>
<trkpt lat="34.9229211" lon="33.4137222">
<ele>316.32</ele>
<time>2015-05-01T12:04:36Z</time>
</trkpt>
<trkpt lat="34.9229754" lon="33.4137503">
<ele>315.67</ele>
<time>2015-05-01T12:04:37Z</time>
</trkpt>
<trkpt lat="34.9230267" lon="33.4137700">
<ele>315.84</ele>
<time>2015-05-01T12:04:38Z</time>
</trkpt>
<trkpt lat="34.9230957" lon="33.4137850">
<ele>315.43</ele>
<time>2015-05-01T12:04:39Z</time>
</trkpt>
<trkpt lat="34.9231534" lon="33.4138108">
<ele>315.72</ele>
<time>2015-05-01T12:04:40Z</time>
</trkpt>
<trkpt lat="34.9232055" lon="33.4138322">
<ele>315.87</ele>
<time>2015-05-01T12:04:41Z</time>
</trkpt>
<trkpt lat="34.9232570" lon="33.4138477">
<ele>315.44</ele>
<time>2015-05-01T12:04:42Z</time>
</trkpt>
<trkpt lat="34.9233059" lon="33.4138618">
<ele>315.23</ele>
<time>2015-05-01T12:04:43Z</time>
</trkpt>
<trkpt lat="34.9233514" lon="33.4138818">
<ele>315.12</ele>
<time>2015-05-01T12:04:44Z</time>
</trkpt>
<trkpt lat="34.9233999" lon="33.4138934">
<ele>315.57</ele>
<time>2015-05-01T12:04:45Z</time>
</trkpt>
<trkpt lat="34.9234510" lon="33.4139020">
<ele>316.29</ele>
<time>2015-05-01T12:04:46Z</time>
</trkpt>
<trkpt lat="34.9234998" lon="33.4139140">
<ele>316.15</ele>
<time>2015-05-01T12:04:47Z</time>
</trkpt>
<trkpt lat="34.9235489" lon="33.4139327">
<ele>316.09</ele>
<time>2015-05-01T12:04:48Z</time>
</trkpt>
<trkpt lat="34.9236029" lon="33.4139470">
<ele>316.05</ele>
<time>2015-05-01T12:04:49Z</time>
</trkpt>
<trkpt lat="34.9236488" lon="33.4139511">
<ele>315.53</ele>
<time>2015-05-01T12:04:50Z</time>
</trkpt>
<trkpt lat="34.9236952" lon="33.4139585">
<ele>315.27</ele>
<time>2015-05-01T12:04:51Z</time>
</trkpt>
<trkpt lat="34.9237452" lon="33.4139690">
<ele>315.15</ele>
<time>2015-05-01T12:04:52Z</time>
</trkpt>
<trkpt lat="34.9238034" lon="33.4139855">
<ele>314.58</ele>
<time>2015-05-01T12:04:53Z</time>
</trkpt>
<trkpt lat="34.9238499" lon="33.4139915">
<ele>314.80</ele>
<time>2015-05-01T12:04:54Z</time>
</trkpt>
<trkpt lat="34.9238966" lon="33.4139936">
<ele>314.91</ele>
<time>2015-05-01T12:04:55Z</time>
</trkpt>
<trkpt lat="34.9239454" lon="33.4140047">
<ele>314.46</ele>
<time>2015-05-01T12:04:56Z</time>
</trkpt>
<trkpt lat="34.9239925" lon="33.4140111">
<ele>314.24</ele>
<time>2015-05-01T12:04:57Z</time>
</trkpt>
<trkpt lat="34.9240407" lon="33.4140194">
<ele>314.63</ele>
<time>2015-05-01T12:04:58Z</time>
</trkpt>
<trkpt lat="34.9241298" lon="33.4140315">
<ele>314.92</ele>
<time>2015-05-01T12:05:00Z</time>
</trkpt>
<trkpt lat="34.9241854" lon="33.4140392">
<ele>314.97</ele>
<time>2015-05-01T12:05:01Z</time>
</trkpt>
<trkpt lat="34.9242406" lon="33.4140443">
<ele>314.49</ele>
<time>2015-05-01T12:05:02Z</time>
</trkpt>
<trkpt lat="34.9243013" lon="33.4140461">
<ele>314.25</ele>
<time>2015-05-01T12:05:03Z</time>
</trkpt>
<trkpt lat="34.9243480" lon="33.4140605">
<ele>314.13</ele>
<time>2015-05-01T12:05:04Z</time>
</trkpt>
<trkpt lat="34.9243976" lon="33.4140660">
<ele>313.58</ele>
<time>2015-05-01T12:05:05Z</time>
</trkpt>
<trkpt lat="34.9244443" lon="33.4140679">
<ele>313.80</ele>
<time>2015-05-01T12:05:06Z</time>
</trkpt>
<trkpt lat="34.9245421" lon="33.4140815">
<ele>313.21</ele>
<time>2015-05-01T12:05:08Z</time>
</trkpt>
<trkpt lat="34.9245920" lon="33.4140831">
<ele>313.11</ele>
<time>2015-05-01T12:05:09Z</time>
</trkpt>
<trkpt lat="34.9246566" lon="33.4140784">
<ele>313.06</ele>
<time>2015-05-01T12:05:10Z</time>
</trkpt>
<trkpt lat="34.9247130" lon="33.4140813">
<ele>313.04</ele>
<time>2015-05-01T12:05:11Z</time>
</trkpt>
<trkpt lat="34.9247668" lon="33.4140858">
<ele>313.53</ele>
<time>2015-05-01T12:05:12Z</time>
</trkpt>
<trkpt lat="34.9248168" lon="33.4140913">
<ele>313.27</ele>
<time>2015-05-01T12:05:13Z</time>
</trkpt>
<trkpt lat="34.9248700" lon="33.4140907">
<ele>313.14</ele>
<time>2015-05-01T12:05:14Z</time>
</trkpt>
<trkpt lat="34.9249328" lon="33.4140895">
<ele>313.08</ele>
<time>2015-05-01T12:05:15Z</time>
</trkpt>
<trkpt lat="34.9249843" lon="33.4140808">
<ele>313.05</ele>
<time>2015-05-01T12:05:16Z</time>
</trkpt>
<trkpt lat="34.9250447" lon="33.4140713">
<ele>312.53</ele>
<time>2015-05-01T12:05:17Z</time>
</trkpt>
<trkpt lat="34.9251062" lon="33.4140670">
<ele>311.77</ele>
<time>2015-05-01T12:05:18Z</time>
</trkpt>
<trkpt lat="34.9251617" lon="33.4140593">
<ele>310.89</ele>
<time>2015-05-01T12:05:19Z</time>
</trkpt>
<trkpt lat="34.9252223" lon="33.4140530">
<ele>310.46</ele>
<time>2015-05-01T12:05:20Z</time>
</trkpt>
<trkpt lat="34.9252811" lon="33.4140396">
<ele>310.24</ele>
<time>2015-05-01T12:05:21Z</time>
</trkpt>
<trkpt lat="34.9253378" lon="33.4140227">
<ele>309.63</ele>
<time>2015-05-01T12:05:22Z</time>
</trkpt>
<trkpt lat="34.9253987" lon="33.4140106">
<ele>309.32</ele>
<time>2015-05-01T12:05:23Z</time>
</trkpt>
<trkpt lat="34.9254663" lon="33.4139923">
<ele>309.17</ele>
<time>2015-05-01T12:05:24Z</time>
</trkpt>
<trkpt lat="34.9255295" lon="33.4139740">
<ele>308.59</ele>
<time>2015-05-01T12:05:25Z</time>
</trkpt>
<trkpt lat="34.9255825" lon="33.4139623">
<ele>308.80</ele>
<time>2015-05-01T12:05:26Z</time>
</trkpt>
<trkpt lat="34.9256274" lon="33.4139452">
<ele>309.41</ele>
<time>2015-05-01T12:05:27Z</time>
</trkpt>
<trkpt lat="34.9256726" lon="33.4139278">
<ele>309.21</ele>
<time>2015-05-01T12:05:28Z</time>
</trkpt>
<trkpt lat="34.9257171" lon="33.4139046">
<ele>309.07</ele>
<time>2015-05-01T12:05:30Z</time>
</trkpt>
<trkpt lat="34.9257627" lon="33.4138857">
<ele>310.96</ele>
<time>2015-05-01T12:05:34Z</time>
</trkpt>
<trkpt lat="34.9258195" lon="33.4138812">
<ele>315.02</ele>
<time>2015-05-01T12:06:18Z</time>
</trkpt>
<trkpt lat="34.9258641" lon="33.4138592">
<ele>314.27</ele>
<time>2015-05-01T12:06:21Z</time>
</trkpt>
<trkpt lat="34.9259257" lon="33.4138328">
<ele>314.05</ele>
<time>2015-05-01T12:06:24Z</time>
</trkpt>
<trkpt lat="34.9259931" lon="33.4138149">
<ele>313.52</ele>
<time>2015-05-01T12:06:26Z</time>
</trkpt>
<trkpt lat="34.9260646" lon="33.4137958">
<ele>312.77</ele>
<time>2015-05-01T12:06:27Z</time>
</trkpt>
<trkpt lat="34.9261609" lon="33.4137568">
<ele>312.20</ele>
<time>2015-05-01T12:06:29Z</time>
</trkpt>
<trkpt lat="34.9262241" lon="33.4137387">
<ele>311.11</ele>
<time>2015-05-01T12:06:30Z</time>
</trkpt>
<trkpt lat="34.9262797" lon="33.4137243">
<ele>309.56</ele>
<time>2015-05-01T12:06:31Z</time>
</trkpt>
<trkpt lat="34.9263408" lon="33.4137055">
<ele>308.79</ele>
<time>2015-05-01T12:06:32Z</time>
</trkpt>
<trkpt lat="34.9263914" lon="33.4136838">
<ele>308.90</ele>
<time>2015-05-01T12:06:33Z</time>
</trkpt>
<trkpt lat="34.9264464" lon="33.4136548">
<ele>309.96</ele>
<time>2015-05-01T12:06:34Z</time>
</trkpt>
<trkpt lat="34.9265035" lon="33.4136328">
<ele>309.99</ele>
<time>2015-05-01T12:06:35Z</time>
</trkpt>
<trkpt lat="34.9265828" lon="33.4136104">
<ele>310.00</ele>
<time>2015-05-01T12:06:36Z</time>
</trkpt>
<trkpt lat="34.9266555" lon="33.4135844">
<ele>309.51</ele>
<time>2015-05-01T12:06:37Z</time>
</trkpt>
<trkpt lat="34.9267188" lon="33.4135559">
<ele>308.76</ele>
<time>2015-05-01T12:06:38Z</time>
</trkpt>
<trkpt lat="34.9267851" lon="33.4135329">
<ele>307.89</ele>
<time>2015-05-01T12:06:39Z</time>
</trkpt>
<trkpt lat="34.9268503" lon="33.4135088">
<ele>306.95</ele>
<time>2015-05-01T12:06:40Z</time>
</trkpt>
<trkpt lat="34.9269146" lon="33.4134789">
<ele>306.48</ele>
<time>2015-05-01T12:06:41Z</time>
</trkpt>
<trkpt lat="34.9269709" lon="33.4134496">
<ele>306.25</ele>
<time>2015-05-01T12:06:42Z</time>
</trkpt>
<trkpt lat="34.9270424" lon="33.4134245">
<ele>306.63</ele>
<time>2015-05-01T12:06:43Z</time>
</trkpt>
<trkpt lat="34.9271102" lon="33.4133983">
<ele>306.32</ele>
<time>2015-05-01T12:06:44Z</time>
</trkpt>
<trkpt lat="34.9271754" lon="33.4133686">
<ele>305.67</ele>
<time>2015-05-01T12:06:45Z</time>
</trkpt>
<trkpt lat="34.9272391" lon="33.4133436">
<ele>304.84</ele>
<time>2015-05-01T12:06:46Z</time>
</trkpt>
<trkpt lat="34.9273034" lon="33.4133156">
<ele>303.93</ele>
<time>2015-05-01T12:06:47Z</time>
</trkpt>
<trkpt lat="34.9273700" lon="33.4132863">
<ele>303.47</ele>
<time>2015-05-01T12:06:48Z</time>
</trkpt>
<trkpt lat="34.9274321" lon="33.4132483">
<ele>303.24</ele>
<time>2015-05-01T12:06:49Z</time>
</trkpt>
<trkpt lat="34.9275052" lon="33.4132204">
<ele>303.63</ele>
<time>2015-05-01T12:06:50Z</time>
</trkpt>
<trkpt lat="34.9275759" lon="33.4131944">
<ele>303.32</ele>
<time>2015-05-01T12:06:51Z</time>
</trkpt>
<trkpt lat="34.9276475" lon="33.4131667">
<ele>303.67</ele>
<time>2015-05-01T12:06:52Z</time>
</trkpt>
<trkpt lat="34.9277226" lon="33.4131340">
<ele>303.84</ele>
<time>2015-05-01T12:06:53Z</time>
</trkpt>
<trkpt lat="34.9277799" lon="33.4131013">
<ele>303.43</ele>
<time>2015-05-01T12:06:54Z</time>
</trkpt>
<trkpt lat="34.9278581" lon="33.4130742">
<ele>303.22</ele>
<time>2015-05-01T12:06:55Z</time>
</trkpt>
<trkpt lat="34.9279301" lon="33.4130454">
<ele>303.12</ele>
<time>2015-05-01T12:06:56Z</time>
</trkpt>
<trkpt lat="34.9280074" lon="33.4130272">
<ele>302.57</ele>
<time>2015-05-01T12:06:57Z</time>
</trkpt>
<trkpt lat="34.9280866" lon="33.4130098">
<ele>303.29</ele>
<time>2015-05-01T12:06:58Z</time>
</trkpt>
<trkpt lat="34.9281630" lon="33.4129852">
<ele>303.65</ele>
<time>2015-05-01T12:06:59Z</time>
</trkpt>
<trkpt lat="34.9282323" lon="33.4129594">
<ele>303.83</ele>
<time>2015-05-01T12:07:00Z</time>
</trkpt>
<trkpt lat="34.9282935" lon="33.4129304">
<ele>303.93</ele>
<time>2015-05-01T12:07:01Z</time>
</trkpt>
<trkpt lat="34.9283579" lon="33.4128954">
<ele>303.97</ele>
<time>2015-05-01T12:07:02Z</time>
</trkpt>
<trkpt lat="34.9284298" lon="33.4128687">
<ele>303.99</ele>
<time>2015-05-01T12:07:03Z</time>
</trkpt>
<trkpt lat="34.9284966" lon="33.4128408">
<ele>304.00</ele>
<time>2015-05-01T12:07:04Z</time>
</trkpt>
<trkpt lat="34.9285671" lon="33.4128182">
<ele>304.01</ele>
<time>2015-05-01T12:07:05Z</time>
</trkpt>
<trkpt lat="34.9286359" lon="33.4127877">
<ele>303.51</ele>
<time>2015-05-01T12:07:06Z</time>
</trkpt>
<trkpt lat="34.9287032" lon="33.4127597">
<ele>303.26</ele>
<time>2015-05-01T12:07:07Z</time>
</trkpt>
<trkpt lat="34.9287729" lon="33.4127406">
<ele>303.14</ele>
<time>2015-05-01T12:07:08Z</time>
</trkpt>
<trkpt lat="34.9288434" lon="33.4127165">
<ele>303.08</ele>
<time>2015-05-01T12:07:09Z</time>
</trkpt>
<trkpt lat="34.9289200" lon="33.4126945">
<ele>302.55</ele>
<time>2015-05-01T12:07:10Z</time>
</trkpt>
<trkpt lat="34.9289756" lon="33.4126644">
<ele>302.78</ele>
<time>2015-05-01T12:07:11Z</time>
</trkpt>
<trkpt lat="34.9290398" lon="33.4126338">
<ele>302.40</ele>
<time>2015-05-01T12:07:12Z</time>
</trkpt>
<trkpt lat="34.9291070" lon="33.4126123">
<ele>303.21</ele>
<time>2015-05-01T12:07:13Z</time>
</trkpt>
<trkpt lat="34.9291785" lon="33.4125810">
<ele>303.11</ele>
<time>2015-05-01T12:07:14Z</time>
</trkpt>
<trkpt lat="34.9292471" lon="33.4125511">
<ele>303.06</ele>
<time>2015-05-01T12:07:15Z</time>
</trkpt>
<trkpt lat="34.9293183" lon="33.4125279">
<ele>302.54</ele>
<time>2015-05-01T12:07:16Z</time>
</trkpt>
<trkpt lat="34.9293946" lon="33.4125025">
<ele>302.28</ele>
<time>2015-05-01T12:07:17Z</time>
</trkpt>
<trkpt lat="34.9294744" lon="33.4124792">
<ele>302.15</ele>
<time>2015-05-01T12:07:18Z</time>
</trkpt>
<trkpt lat="34.9295430" lon="33.4124481">
<ele>302.08</ele>
<time>2015-05-01T12:07:19Z</time>
</trkpt>
<trkpt lat="34.9296118" lon="33.4124167">
<ele>301.55</ele>
<time>2015-05-01T12:07:20Z</time>
</trkpt>
<trkpt lat="34.9296805" lon="33.4123907">
<ele>300.78</ele>
<time>2015-05-01T12:07:21Z</time>
</trkpt>
<trkpt lat="34.9297462" lon="33.4123661">
<ele>300.40</ele>
<time>2015-05-01T12:07:22Z</time>
</trkpt>
<trkpt lat="34.9298108" lon="33.4123437">
<ele>299.71</ele>
<time>2015-05-01T12:07:23Z</time>
</trkpt>
<trkpt lat="34.9298762" lon="33.4123193">
<ele>298.86</ele>
<time>2015-05-01T12:07:24Z</time>
</trkpt>
<trkpt lat="34.9299491" lon="33.4122918">
<ele>299.44</ele>
<time>2015-05-01T12:07:25Z</time>
</trkpt>
<trkpt lat="34.9300096" lon="33.4122661">
<ele>300.23</ele>
<time>2015-05-01T12:07:26Z</time>
</trkpt>
<trkpt lat="34.9300674" lon="33.4122412">
<ele>300.12</ele>
<time>2015-05-01T12:07:27Z</time>
</trkpt>
<trkpt lat="34.9301284" lon="33.4122148">
<ele>299.57</ele>
<time>2015-05-01T12:07:28Z</time>
</trkpt>
<trkpt lat="34.9301892" lon="33.4121946">
<ele>298.79</ele>
<time>2015-05-01T12:07:29Z</time>
</trkpt>
<trkpt lat="34.9302496" lon="33.4121710">
<ele>298.40</ele>
<time>2015-05-01T12:07:30Z</time>
</trkpt>
<trkpt lat="34.9303120" lon="33.4121510">
<ele>299.21</ele>
<time>2015-05-01T12:07:31Z</time>
</trkpt>
<trkpt lat="34.9303729" lon="33.4121307">
<ele>299.11</ele>
<time>2015-05-01T12:07:32Z</time>
</trkpt>
<trkpt lat="34.9304243" lon="33.4121157">
<ele>299.56</ele>
<time>2015-05-01T12:07:33Z</time>
</trkpt>
<trkpt lat="34.9304748" lon="33.4120942">
<ele>299.79</ele>
<time>2015-05-01T12:07:34Z</time>
</trkpt>
<trkpt lat="34.9305348" lon="33.4120771">
<ele>299.90</ele>
<time>2015-05-01T12:07:35Z</time>
</trkpt>
<trkpt lat="34.9306289" lon="33.4120471">
<ele>300.74</ele>
<time>2015-05-01T12:07:37Z</time>
</trkpt>
<trkpt lat="34.9306760" lon="33.4120295">
<ele>300.38</ele>
<time>2015-05-01T12:07:38Z</time>
</trkpt>
<trkpt lat="34.9307396" lon="33.4120292">
<ele>300.20</ele>
<time>2015-05-01T12:07:39Z</time>
</trkpt>
<trkpt lat="34.9307889" lon="33.4120095">
<ele>300.11</ele>
<time>2015-05-01T12:07:40Z</time>
</trkpt>
<trkpt lat="34.9308400" lon="33.4119943">
<ele>300.06</ele>
<time>2015-05-01T12:07:41Z</time>
</trkpt>
<trkpt lat="34.9308893" lon="33.4119833">
<ele>299.54</ele>
<time>2015-05-01T12:07:42Z</time>
</trkpt>
<trkpt lat="34.9309825" lon="33.4119707">
<ele>299.15</ele>
<time>2015-05-01T12:07:44Z</time>
</trkpt>
<trkpt lat="34.9310296" lon="33.4119702">
<ele>299.08</ele>
<time>2015-05-01T12:07:45Z</time>
</trkpt>
<trkpt lat="34.9310746" lon="33.4119663">
<ele>299.55</ele>
<time>2015-05-01T12:07:46Z</time>
</trkpt>
<trkpt lat="34.9311688" lon="33.4119784">
<ele>301.15</ele>
<time>2015-05-01T12:07:48Z</time>
</trkpt>
<trkpt lat="34.9312617" lon="33.4119756">
<ele>301.80</ele>
<time>2015-05-01T12:07:50Z</time>
</trkpt>
<trkpt lat="34.9313455" lon="33.4119725">
<ele>301.96</ele>
<time>2015-05-01T12:07:52Z</time>
</trkpt>
<trkpt lat="34.9313915" lon="33.4119711">
<ele>301.99</ele>
<time>2015-05-01T12:07:53Z</time>
</trkpt>
<trkpt lat="34.9314527" lon="33.4119837">
<ele>302.00</ele>
<time>2015-05-01T12:07:54Z</time>
</trkpt>
<trkpt lat="34.9315021" lon="33.4119848">
<ele>302.01</ele>
<time>2015-05-01T12:07:55Z</time>
</trkpt>
<trkpt lat="34.9315521" lon="33.4119837">
<ele>301.51</ele>
<time>2015-05-01T12:07:56Z</time>
</trkpt>
<trkpt lat="34.9316426" lon="33.4120042">
<ele>301.14</ele>
<time>2015-05-01T12:07:58Z</time>
</trkpt>
<trkpt lat="34.9316967" lon="33.4120140">
<ele>301.08</ele>
<time>2015-05-01T12:07:59Z</time>
</trkpt>
<trkpt lat="34.9317425" lon="33.4120263">
<ele>302.05</ele>
<time>2015-05-01T12:08:00Z</time>
</trkpt>
<trkpt lat="34.9317864" lon="33.4120437">
<ele>302.03</ele>
<time>2015-05-01T12:08:01Z</time>
</trkpt>
<trkpt lat="34.9318444" lon="33.4120672">
<ele>302.02</ele>
<time>2015-05-01T12:08:02Z</time>
</trkpt>
<trkpt lat="34.9318905" lon="33.4120892">
<ele>302.52</ele>
<time>2015-05-01T12:08:03Z</time>
</trkpt>
<trkpt lat="34.9319503" lon="33.4121249">
<ele>302.77</ele>
<time>2015-05-01T12:08:04Z</time>
</trkpt>
<trkpt lat="34.9320123" lon="33.4121576">
<ele>302.39</ele>
<time>2015-05-01T12:08:05Z</time>
</trkpt>
<trkpt lat="34.9320552" lon="33.4121959">
<ele>302.20</ele>
<time>2015-05-01T12:08:06Z</time>
</trkpt>
<trkpt lat="34.9321098" lon="33.4122336">
<ele>302.11</ele>
<time>2015-05-01T12:08:07Z</time>
</trkpt>
<trkpt lat="34.9321875" lon="33.4122850">
<ele>303.56</ele>
<time>2015-05-01T12:08:08Z</time>
</trkpt>
<trkpt lat="34.9322345" lon="33.4123137">
<ele>304.29</ele>
<time>2015-05-01T12:08:09Z</time>
</trkpt>
<trkpt lat="34.9322897" lon="33.4123553">
<ele>304.15</ele>
<time>2015-05-01T12:08:10Z</time>
</trkpt>
<trkpt lat="34.9323459" lon="33.4124007">
<ele>303.08</ele>
<time>2015-05-01T12:08:11Z</time>
</trkpt>
<trkpt lat="34.9323926" lon="33.4124532">
<ele>302.05</ele>
<time>2015-05-01T12:08:12Z</time>
</trkpt>
<trkpt lat="34.9324380" lon="33.4125136">
<ele>301.03</ele>
<time>2015-05-01T12:08:13Z</time>
</trkpt>
<trkpt lat="34.9324888" lon="33.4125523">
<ele>301.52</ele>
<time>2015-05-01T12:08:14Z</time>
</trkpt>
<trkpt lat="34.9325376" lon="33.4125896">
<ele>301.77</ele>
<time>2015-05-01T12:08:15Z</time>
</trkpt>
<trkpt lat="34.9325851" lon="33.4126329">
<ele>301.89</ele>
<time>2015-05-01T12:08:16Z</time>
</trkpt>
<trkpt lat="34.9326335" lon="33.4126796">
<ele>301.95</ele>
<time>2015-05-01T12:08:17Z</time>
</trkpt>
<trkpt lat="34.9326756" lon="33.4127230">
<ele>301.49</ele>
<time>2015-05-01T12:08:18Z</time>
</trkpt>
<trkpt lat="34.9327180" lon="33.4127598">
<ele>301.75</ele>
<time>2015-05-01T12:08:19Z</time>
</trkpt>
<trkpt lat="34.9327648" lon="33.4127976">
<ele>301.38</ele>
<time>2015-05-01T12:08:20Z</time>
</trkpt>
<trkpt lat="34.9328150" lon="33.4128410">
<ele>300.70</ele>
<time>2015-05-01T12:08:21Z</time>
</trkpt>
<trkpt lat="34.9328809" lon="33.4128636">
<ele>300.86</ele>
<time>2015-05-01T12:08:22Z</time>
</trkpt>
<trkpt lat="34.9329330" lon="33.4129025">
<ele>300.94</ele>
<time>2015-05-01T12:08:23Z</time>
</trkpt>
<trkpt lat="34.9329789" lon="33.4129313">
<ele>300.98</ele>
<time>2015-05-01T12:08:24Z</time>
</trkpt>
<trkpt lat="34.9330331" lon="33.4129598">
<ele>301.00</ele>
<time>2015-05-01T12:08:25Z</time>
</trkpt>
<trkpt lat="34.9330934" lon="33.4129832">
<ele>300.51</ele>
<time>2015-05-01T12:08:26Z</time>
</trkpt>
<trkpt lat="34.9331422" lon="33.4130131">
<ele>300.26</ele>
<time>2015-05-01T12:08:27Z</time>
</trkpt>
<trkpt lat="34.9331978" lon="33.4130376">
<ele>299.64</ele>
<time>2015-05-01T12:08:28Z</time>
</trkpt>
<trkpt lat="34.9332517" lon="33.4130762">
<ele>299.33</ele>
<time>2015-05-01T12:08:29Z</time>
</trkpt>
<trkpt lat="34.9333144" lon="33.4130998">
<ele>298.67</ele>
<time>2015-05-01T12:08:30Z</time>
</trkpt>
<trkpt lat="34.9333744" lon="33.4131356">
<ele>298.34</ele>
<time>2015-05-01T12:08:31Z</time>
</trkpt>
<trkpt lat="34.9334237" lon="33.4131615">
<ele>298.68</ele>
<time>2015-05-01T12:08:32Z</time>
</trkpt>
<trkpt lat="34.9334890" lon="33.4131838">
<ele>299.35</ele>
<time>2015-05-01T12:08:33Z</time>
</trkpt>
<trkpt lat="34.9335499" lon="33.4131952">
<ele>299.68</ele>
<time>2015-05-01T12:08:34Z</time>
</trkpt>
<trkpt lat="34.9336014" lon="33.4132144">
<ele>299.85</ele>
<time>2015-05-01T12:08:35Z</time>
</trkpt>
<trkpt lat="34.9336604" lon="33.4132310">
<ele>299.93</ele>
<time>2015-05-01T12:08:36Z</time>
</trkpt>
<trkpt lat="34.9337136" lon="33.4132426">
<ele>300.47</ele>
<time>2015-05-01T12:08:37Z</time>
</trkpt>
<trkpt lat="34.9337724" lon="33.4132525">
<ele>300.25</ele>
<time>2015-05-01T12:08:38Z</time>
</trkpt>
<trkpt lat="34.9338288" lon="33.4132592">
<ele>300.13</ele>
<time>2015-05-01T12:08:39Z</time>
</trkpt>
<trkpt lat="34.9338818" lon="33.4132631">
<ele>299.07</ele>
<time>2015-05-01T12:08:40Z</time>
</trkpt>
<trkpt lat="34.9339430" lon="33.4132681">
<ele>298.04</ele>
<time>2015-05-01T12:08:41Z</time>
</trkpt>
<trkpt lat="34.9340020" lon="33.4132670">
<ele>298.03</ele>
<time>2015-05-01T12:08:42Z</time>
</trkpt>
<trkpt lat="34.9340512" lon="33.4132707">
<ele>298.02</ele>
<time>2015-05-01T12:08:43Z</time>
</trkpt>
<trkpt lat="34.9340982" lon="33.4132629">
<ele>297.52</ele>
<time>2015-05-01T12:08:44Z</time>
</trkpt>
<trkpt lat="34.9341453" lon="33.4132542">
<ele>297.27</ele>
<time>2015-05-01T12:08:45Z</time>
</trkpt>
<trkpt lat="34.9342003" lon="33.4132596">
<ele>297.64</ele>
<time>2015-05-01T12:08:46Z</time>
</trkpt>
<trkpt lat="34.9342511" lon="33.4132468">
<ele>297.83</ele>
<time>2015-05-01T12:08:47Z</time>
</trkpt>
<trkpt lat="34.9342981" lon="33.4132370">
<ele>297.42</ele>
<time>2015-05-01T12:08:48Z</time>
</trkpt>
<trkpt lat="34.9343482" lon="33.4132375">
<ele>297.22</ele>
<time>2015-05-01T12:08:49Z</time>
</trkpt>
<trkpt lat="34.9343981" lon="33.4132307">
<ele>296.62</ele>
<time>2015-05-01T12:08:50Z</time>
</trkpt>
<trkpt lat="34.9344826" lon="33.4132225">
<ele>295.42</ele>
<time>2015-05-01T12:08:52Z</time>
</trkpt>
<trkpt lat="34.9345635" lon="33.4132074">
<ele>295.37</ele>
<time>2015-05-01T12:08:54Z</time>
</trkpt>
<trkpt lat="34.9346535" lon="33.4131854">
<ele>293.85</ele>
<time>2015-05-01T12:08:56Z</time>
</trkpt>
<trkpt lat="34.9347077" lon="33.4131660">
<ele>294.43</ele>
<time>2015-05-01T12:08:57Z</time>
</trkpt>
<trkpt lat="34.9347562" lon="33.4131508">
<ele>294.73</ele>
<time>2015-05-01T12:08:58Z</time>
</trkpt>
<trkpt lat="34.9348116" lon="33.4131528">
<ele>295.37</ele>
<time>2015-05-01T12:08:59Z</time>
</trkpt>
<trkpt lat="34.9348818" lon="33.4131305">
<ele>295.85</ele>
<time>2015-05-01T12:09:01Z</time>
</trkpt>
<trkpt lat="34.9349543" lon="33.4131145">
<ele>296.73</ele>
<time>2015-05-01T12:09:03Z</time>
</trkpt>
<trkpt lat="34.9350105" lon="33.4130900">
<ele>297.69</ele>
<time>2015-05-01T12:09:05Z</time>
</trkpt>
<trkpt lat="34.9350585" lon="33.4130720">
<ele>298.19</ele>
<time>2015-05-01T12:09:07Z</time>
</trkpt>
<trkpt lat="34.9351062" lon="33.4130454">
<ele>294.09</ele>
<time>2015-05-01T12:09:32Z</time>
</trkpt>
<trkpt lat="34.9351565" lon="33.4130352">
<ele>294.28</ele>
<time>2015-05-01T12:09:34Z</time>
</trkpt>
<trkpt lat="34.9352167" lon="33.4130168">
<ele>295.08</ele>
<time>2015-05-01T12:09:36Z</time>
</trkpt>
<trkpt lat="34.9352815" lon="33.4130017">
<ele>295.03</ele>
<time>2015-05-01T12:09:38Z</time>
</trkpt>
<trkpt lat="34.9353488" lon="33.4129885">
<ele>295.02</ele>
<time>2015-05-01T12:09:40Z</time>
</trkpt>
<trkpt lat="34.9354168" lon="33.4129736">
<ele>295.27</ele>
<time>2015-05-01T12:09:42Z</time>
</trkpt>
<trkpt lat="34.9354881" lon="33.4129590">
<ele>294.58</ele>
<time>2015-05-01T12:09:44Z</time>
</trkpt>
<trkpt lat="34.9355619" lon="33.4129436">
<ele>294.16</ele>
<time>2015-05-01T12:09:46Z</time>
</trkpt>
<trkpt lat="34.9356390" lon="33.4129252">
<ele>292.80</ele>
<time>2015-05-01T12:09:48Z</time>
</trkpt>
<trkpt lat="34.9357173" lon="33.4129039">
<ele>291.71</ele>
<time>2015-05-01T12:09:50Z</time>
</trkpt>
<trkpt lat="34.9357988" lon="33.4128835">
<ele>291.19</ele>
<time>2015-05-01T12:09:52Z</time>
</trkpt>
<trkpt lat="34.9358823" lon="33.4128645">
<ele>291.06</ele>
<time>2015-05-01T12:09:54Z</time>
</trkpt>
<trkpt lat="34.9359689" lon="33.4128490">
<ele>291.54</ele>
<time>2015-05-01T12:09:55Z</time>
</trkpt>
<trkpt lat="34.9360234" lon="33.4128300">
<ele>291.78</ele>
<time>2015-05-01T12:09:56Z</time>
</trkpt>
<trkpt lat="34.9360803" lon="33.4128146">
<ele>291.90</ele>
<time>2015-05-01T12:09:57Z</time>
</trkpt>
<trkpt lat="34.9361259" lon="33.4128007">
<ele>292.96</ele>
<time>2015-05-01T12:09:58Z</time>
</trkpt>
<trkpt lat="34.9362133" lon="33.4127819">
<ele>294.25</ele>
<time>2015-05-01T12:10:00Z</time>
</trkpt>
<trkpt lat="34.9362577" lon="33.4127719">
<ele>294.63</ele>
<time>2015-05-01T12:10:01Z</time>
</trkpt>
<trkpt lat="34.9363019" lon="33.4127600">
<ele>295.32</ele>
<time>2015-05-01T12:10:02Z</time>
</trkpt>
<trkpt lat="34.9363476" lon="33.4127515">
<ele>295.67</ele>
<time>2015-05-01T12:10:03Z</time>
</trkpt>
<trkpt lat="34.9364101" lon="33.4127505">
<ele>295.84</ele>
<time>2015-05-01T12:10:04Z</time>
</trkpt>
<trkpt lat="34.9364588" lon="33.4127365">
<ele>294.93</ele>
<time>2015-05-01T12:10:05Z</time>
</trkpt>
<trkpt lat="34.9365061" lon="33.4127252">
<ele>293.97</ele>
<time>2015-05-01T12:10:06Z</time>
</trkpt>
<trkpt lat="34.9365979" lon="33.4127047">
<ele>294.76</ele>
<time>2015-05-01T12:10:08Z</time>
</trkpt>
<trkpt lat="34.9366784" lon="33.4126904">
<ele>294.95</ele>
<time>2015-05-01T12:10:10Z</time>
</trkpt>
<trkpt lat="34.9367349" lon="33.4126834">
<ele>295.48</ele>
<time>2015-05-01T12:10:11Z</time>
</trkpt>
<trkpt lat="34.9367852" lon="33.4126750">
<ele>295.25</ele>
<time>2015-05-01T12:10:12Z</time>
</trkpt>
<trkpt lat="34.9368338" lon="33.4126567">
<ele>295.13</ele>
<time>2015-05-01T12:10:13Z</time>
</trkpt>
<trkpt lat="34.9369226" lon="33.4126313">
<ele>293.55</ele>
<time>2015-05-01T12:10:15Z</time>
</trkpt>
<trkpt lat="34.9370031" lon="33.4126062">
<ele>292.90</ele>
<time>2015-05-01T12:10:17Z</time>
</trkpt>
<trkpt lat="34.9370872" lon="33.4125918">
<ele>292.74</ele>
<time>2015-05-01T12:10:19Z</time>
</trkpt>
<trkpt lat="34.9371601" lon="33.4125769">
<ele>292.70</ele>
<time>2015-05-01T12:10:21Z</time>
</trkpt>
<trkpt lat="34.9372333" lon="33.4125586">
<ele>292.44</ele>
<time>2015-05-01T12:10:23Z</time>
</trkpt>
<trkpt lat="34.9372994" lon="33.4125502">
<ele>293.62</ele>
<time>2015-05-01T12:10:25Z</time>
</trkpt>
<trkpt lat="34.9373649" lon="33.4125419">
<ele>293.67</ele>
<time>2015-05-01T12:10:27Z</time>
</trkpt>
<trkpt lat="34.9374336" lon="33.4125350">
<ele>293.18</ele>
<time>2015-05-01T12:10:29Z</time>
</trkpt>
<trkpt lat="34.9375048" lon="33.4125332">
<ele>293.06</ele>
<time>2015-05-01T12:10:31Z</time>
</trkpt>
<trkpt lat="34.9375810" lon="33.4125356">
<ele>292.28</ele>
<time>2015-05-01T12:10:33Z</time>
</trkpt>
<trkpt lat="34.9376616" lon="33.4125373">
<ele>292.08</ele>
<time>2015-05-01T12:10:35Z</time>
</trkpt>
<trkpt lat="34.9377277" lon="33.4125356">
<ele>291.55</ele>
<time>2015-05-01T12:10:36Z</time>
</trkpt>
<trkpt lat="34.9378134" lon="33.4125330">
<ele>291.65</ele>
<time>2015-05-01T12:10:38Z</time>
</trkpt>
<trkpt lat="34.9378589" lon="33.4125284">
<ele>291.83</ele>
<time>2015-05-01T12:10:39Z</time>
</trkpt>
<trkpt lat="34.9379086" lon="33.4125219">
<ele>291.42</ele>
<time>2015-05-01T12:10:40Z</time>
</trkpt>
<trkpt lat="34.9379541" lon="33.4125123">
<ele>292.22</ele>
<time>2015-05-01T12:10:41Z</time>
</trkpt>
<trkpt lat="34.9380383" lon="33.4125245">
<ele>292.07</ele>
<time>2015-05-01T12:10:43Z</time>
</trkpt>
<trkpt lat="34.9380881" lon="33.4125280">
<ele>292.54</ele>
<time>2015-05-01T12:10:44Z</time>
</trkpt>
<trkpt lat="34.9381824" lon="33.4125307">
<ele>292.40</ele>
<time>2015-05-01T12:10:46Z</time>
</trkpt>
<trkpt lat="34.9382281" lon="33.4125253">
<ele>292.21</ele>
<time>2015-05-01T12:10:47Z</time>
</trkpt>
<trkpt lat="34.9382754" lon="33.4125195">
<ele>291.61</ele>
<time>2015-05-01T12:10:48Z</time>
</trkpt>
<trkpt lat="34.9383201" lon="33.4125270">
<ele>291.31</ele>
<time>2015-05-01T12:10:49Z</time>
</trkpt>
<trkpt lat="34.9383731" lon="33.4125331">
<ele>290.66</ele>
<time>2015-05-01T12:10:50Z</time>
</trkpt>
<trkpt lat="34.9384229" lon="33.4125374">
<ele>290.34</ele>
<time>2015-05-01T12:10:51Z</time>
</trkpt>
<trkpt lat="34.9384798" lon="33.4125320">
<ele>290.18</ele>
<time>2015-05-01T12:10:52Z</time>
</trkpt>
<trkpt lat="34.9385272" lon="33.4125334">
<ele>290.10</ele>
<time>2015-05-01T12:10:53Z</time>
</trkpt>
<trkpt lat="34.9385748" lon="33.4125384">
<ele>290.56</ele>
<time>2015-05-01T12:10:54Z</time>
</trkpt>
<trkpt lat="34.9386705" lon="33.4125471">
<ele>290.90</ele>
<time>2015-05-01T12:10:56Z</time>
</trkpt>
<trkpt lat="34.9387632" lon="33.4125413">
<ele>286.99</ele>
<time>2015-05-01T12:10:58Z</time>
</trkpt>
<trkpt lat="34.9388106" lon="33.4125471">
<ele>286.00</ele>
<time>2015-05-01T12:10:59Z</time>
</trkpt>
<trkpt lat="34.9388636" lon="33.4125474">
<ele>285.01</ele>
<time>2015-05-01T12:11:00Z</time>
</trkpt>
<trkpt lat="34.9389109" lon="33.4125518">
<ele>284.51</ele>
<time>2015-05-01T12:11:01Z</time>
</trkpt>
<trkpt lat="34.9389706" lon="33.4125628">
<ele>284.26</ele>
<time>2015-05-01T12:11:02Z</time>
</trkpt>
<trkpt lat="34.9390190" lon="33.4125592">
<ele>284.14</ele>
<time>2015-05-01T12:11:03Z</time>
</trkpt>
<trkpt lat="34.9390760" lon="33.4125628">
<ele>283.58</ele>
<time>2015-05-01T12:11:04Z</time>
</trkpt>
<trkpt lat="34.9391301" lon="33.4125615">
<ele>282.80</ele>
<time>2015-05-01T12:11:05Z</time>
</trkpt>
<trkpt lat="34.9391879" lon="33.4125664">
<ele>281.91</ele>
<time>2015-05-01T12:11:06Z</time>
</trkpt>
<trkpt lat="34.9392421" lon="33.4125606">
<ele>283.46</ele>
<time>2015-05-01T12:11:07Z</time>
</trkpt>
<trkpt lat="34.9392921" lon="33.4125576">
<ele>284.74</ele>
<time>2015-05-01T12:11:08Z</time>
</trkpt>
<trkpt lat="34.9393417" lon="33.4125511">
<ele>284.88</ele>
<time>2015-05-01T12:11:09Z</time>
</trkpt>
<trkpt lat="34.9394012" lon="33.4125583">
<ele>284.95</ele>
<time>2015-05-01T12:11:10Z</time>
</trkpt>
<trkpt lat="34.9395001" lon="33.4125683">
<ele>285.75</ele>
<time>2015-05-01T12:11:12Z</time>
</trkpt>
<trkpt lat="34.9395538" lon="33.4125701">
<ele>285.38</ele>
<time>2015-05-01T12:11:13Z</time>
</trkpt>
<trkpt lat="34.9396230" lon="33.4125825">
<ele>285.70</ele>
<time>2015-05-01T12:11:14Z</time>
</trkpt>
<trkpt lat="34.9396747" lon="33.4125834">
<ele>286.36</ele>
<time>2015-05-01T12:11:15Z</time>
</trkpt>
<trkpt lat="34.9397396" lon="33.4125799">
<ele>286.69</ele>
<time>2015-05-01T12:11:16Z</time>
</trkpt>
<trkpt lat="34.9397966" lon="33.4125836">
<ele>286.35</ele>
<time>2015-05-01T12:11:17Z</time>
</trkpt>
<trkpt lat="34.9398526" lon="33.4125892">
<ele>286.18</ele>
<time>2015-05-01T12:11:18Z</time>
</trkpt>
<trkpt lat="34.9399163" lon="33.4125917">
<ele>286.60</ele>
<time>2015-05-01T12:11:19Z</time>
</trkpt>
<trkpt lat="34.9399810" lon="33.4125943">
<ele>286.31</ele>
<time>2015-05-01T12:11:20Z</time>
</trkpt>
<trkpt lat="34.9400421" lon="33.4126044">
<ele>286.16</ele>
<time>2015-05-01T12:11:21Z</time>
</trkpt>
<trkpt lat="34.9401038" lon="33.4126215">
<ele>286.09</ele>
<time>2015-05-01T12:11:22Z</time>
</trkpt>
<trkpt lat="34.9401608" lon="33.4126341">
<ele>285.55</ele>
<time>2015-05-01T12:11:23Z</time>
</trkpt>
<trkpt lat="34.9402200" lon="33.4126422">
<ele>285.28</ele>
<time>2015-05-01T12:11:24Z</time>
</trkpt>
<trkpt lat="34.9402724" lon="33.4126566">
<ele>285.15</ele>
<time>2015-05-01T12:11:25Z</time>
</trkpt>
<trkpt lat="34.9403267" lon="33.4126739">
<ele>284.58</ele>
<time>2015-05-01T12:11:26Z</time>
</trkpt>
<trkpt lat="34.9403762" lon="33.4126930">
<ele>284.80</ele>
<time>2015-05-01T12:11:27Z</time>
</trkpt>
<trkpt lat="34.9404374" lon="33.4127036">
<ele>284.41</ele>
<time>2015-05-01T12:11:28Z</time>
</trkpt>
<trkpt lat="34.9405038" lon="33.4127231">
<ele>284.21</ele>
<time>2015-05-01T12:11:29Z</time>
</trkpt>
<trkpt lat="34.9405534" lon="33.4127478">
<ele>284.61</ele>
<time>2015-05-01T12:11:30Z</time>
</trkpt>
<trkpt lat="34.9406161" lon="33.4127613">
<ele>284.81</ele>
<time>2015-05-01T12:11:31Z</time>
</trkpt>
<trkpt lat="34.9406655" lon="33.4127853">
<ele>284.42</ele>
<time>2015-05-01T12:11:32Z</time>
</trkpt>
<trkpt lat="34.9407208" lon="33.4128122">
<ele>283.72</ele>
<time>2015-05-01T12:11:33Z</time>
</trkpt>
<trkpt lat="34.9407751" lon="33.4128310">
<ele>283.37</ele>
<time>2015-05-01T12:11:34Z</time>
</trkpt>
<trkpt lat="34.9408360" lon="33.4128517">
<ele>283.69</ele>
<time>2015-05-01T12:11:35Z</time>
</trkpt>
<trkpt lat="34.9408995" lon="33.4128698">
<ele>284.35</ele>
<time>2015-05-01T12:11:36Z</time>
</trkpt>
<trkpt lat="34.9409431" lon="33.4129006">
<ele>286.68</ele>
<time>2015-05-01T12:11:37Z</time>
</trkpt>
<trkpt lat="34.9409965" lon="33.4129297">
<ele>287.85</ele>
<time>2015-05-01T12:11:38Z</time>
</trkpt>
<trkpt lat="34.9410480" lon="33.4129608">
<ele>287.43</ele>
<time>2015-05-01T12:11:39Z</time>
</trkpt>
<trkpt lat="34.9411048" lon="33.4129935">
<ele>286.72</ele>
<time>2015-05-01T12:11:40Z</time>
</trkpt>
<trkpt lat="34.9411560" lon="33.4130138">
<ele>286.37</ele>
<time>2015-05-01T12:11:41Z</time>
</trkpt>
<trkpt lat="34.9412088" lon="33.4130460">
<ele>286.19</ele>
<time>2015-05-01T12:11:42Z</time>
</trkpt>
<trkpt lat="34.9412643" lon="33.4130696">
<ele>285.10</ele>
<time>2015-05-01T12:11:43Z</time>
</trkpt>
<trkpt lat="34.9413288" lon="33.4131032">
<ele>284.06</ele>
<time>2015-05-01T12:11:44Z</time>
</trkpt>
<trkpt lat="34.9413883" lon="33.4131436">
<ele>283.04</ele>
<time>2015-05-01T12:11:45Z</time>
</trkpt>
<trkpt lat="34.9414557" lon="33.4131709">
<ele>283.03</ele>
<time>2015-05-01T12:11:46Z</time>
</trkpt>
<trkpt lat="34.9415232" lon="33.4131991">
<ele>282.52</ele>
<time>2015-05-01T12:11:47Z</time>
</trkpt>
<trkpt lat="34.9415892" lon="33.4132364">
<ele>281.77</ele>
<time>2015-05-01T12:11:48Z</time>
</trkpt>
<trkpt lat="34.9416462" lon="33.4132709">
<ele>281.39</ele>
<time>2015-05-01T12:11:49Z</time>
</trkpt>
<trkpt lat="34.9416978" lon="33.4133016">
<ele>280.70</ele>
<time>2015-05-01T12:11:50Z</time>
</trkpt>
<trkpt lat="34.9417575" lon="33.4133412">
<ele>280.36</ele>
<time>2015-05-01T12:11:51Z</time>
</trkpt>
<trkpt lat="34.9418184" lon="33.4133734">
<ele>280.19</ele>
<time>2015-05-01T12:11:52Z</time>
</trkpt>
<trkpt lat="34.9418737" lon="33.4133993">
<ele>279.60</ele>
<time>2015-05-01T12:11:53Z</time>
</trkpt>
<trkpt lat="34.9419214" lon="33.4134212">
<ele>279.31</ele>
<time>2015-05-01T12:11:54Z</time>
</trkpt>
<trkpt lat="34.9419776" lon="33.4134402">
<ele>278.66</ele>
<time>2015-05-01T12:11:55Z</time>
</trkpt>
<trkpt lat="34.9420353" lon="33.4134657">
<ele>277.84</ele>
<time>2015-05-01T12:11:56Z</time>
</trkpt>
<trkpt lat="34.9420932" lon="33.4134934">
<ele>277.93</ele>
<time>2015-05-01T12:11:57Z</time>
</trkpt>
<trkpt lat="34.9421519" lon="33.4135169">
<ele>277.97</ele>
<time>2015-05-01T12:11:58Z</time>
</trkpt>
<trkpt lat="34.9422062" lon="33.4135416">
<ele>277.49</ele>
<time>2015-05-01T12:11:59Z</time>
</trkpt>
<trkpt lat="34.9422656" lon="33.4135808">
<ele>277.25</ele>
<time>2015-05-01T12:12:00Z</time>
</trkpt>
<trkpt lat="34.9423179" lon="33.4136116">
<ele>277.64</ele>
<time>2015-05-01T12:12:01Z</time>
</trkpt>
<trkpt lat="34.9423642" lon="33.4136444">
<ele>277.83</ele>
<time>2015-05-01T12:12:02Z</time>
</trkpt>
<trkpt lat="34.9424131" lon="33.4136774">
<ele>277.42</ele>
<time>2015-05-01T12:12:03Z</time>
</trkpt>
<trkpt lat="34.9424664" lon="33.4137094">
<ele>277.72</ele>
<time>2015-05-01T12:12:04Z</time>
</trkpt>
<trkpt lat="34.9425078" lon="33.4137431">
<ele>278.37</ele>
<time>2015-05-01T12:12:05Z</time>
</trkpt>
<trkpt lat="34.9425547" lon="33.4137643">
<ele>278.69</ele>
<time>2015-05-01T12:12:06Z</time>
</trkpt>
<trkpt lat="34.9425978" lon="33.4137830">
<ele>278.85</ele>
<time>2015-05-01T12:12:07Z</time>
</trkpt>
<trkpt lat="34.9426464" lon="33.4138029">
<ele>279.43</ele>
<time>2015-05-01T12:12:08Z</time>
</trkpt>
<trkpt lat="34.9426907" lon="33.4138261">
<ele>279.73</ele>
<time>2015-05-01T12:12:09Z</time>
</trkpt>
<trkpt lat="34.9427592" lon="33.4138648">
<ele>280.44</ele>
<time>2015-05-01T12:12:11Z</time>
</trkpt>
<trkpt lat="34.9428129" lon="33.4138992">
<ele>281.37</ele>
<time>2015-05-01T12:12:13Z</time>
</trkpt>
<trkpt lat="34.9428565" lon="33.4139186">
<ele>286.79</ele>
<time>2015-05-01T12:12:19Z</time>
</trkpt>
<trkpt lat="34.9428366" lon="33.4139859">
<ele>283.89</ele>
<time>2015-05-01T12:12:44Z</time>
</trkpt>
<trkpt lat="34.9427782" lon="33.4139770">
<ele>282.75</ele>
<time>2015-05-01T12:12:47Z</time>
</trkpt>
<trkpt lat="34.9427185" lon="33.4139483">
<ele>282.11</ele>
<time>2015-05-01T12:12:50Z</time>
</trkpt>
<trkpt lat="34.9426746" lon="33.4139337">
<ele>282.79</ele>
<time>2015-05-01T12:12:52Z</time>
</trkpt>
<trkpt lat="34.9426336" lon="33.4139107">
<ele>284.21</ele>
<time>2015-05-01T12:12:54Z</time>
</trkpt>
<trkpt lat="34.9425928" lon="33.4138841">
<ele>285.56</ele>
<time>2015-05-01T12:12:56Z</time>
</trkpt>
<trkpt lat="34.9425423" lon="33.4138615">
<ele>285.83</ele>
<time>2015-05-01T12:12:59Z</time>
</trkpt>
<trkpt lat="34.9425190" lon="33.4139199">
<ele>285.74</ele>
<time>2015-05-01T12:13:10Z</time>
</trkpt>
<trkpt lat="34.9424809" lon="33.4139772">
<ele>285.48</ele>
<time>2015-05-01T12:13:13Z</time>
</trkpt>
<trkpt lat="34.9424426" lon="33.4140371">
<ele>284.82</ele>
<time>2015-05-01T12:13:16Z</time>
</trkpt>
<trkpt lat="34.9424014" lon="33.4140910">
<ele>283.99</ele>
<time>2015-05-01T12:13:19Z</time>
</trkpt>
<trkpt lat="34.9423593" lon="33.4141524">
<ele>284.14</ele>
<time>2015-05-01T12:13:22Z</time>
</trkpt>
<trkpt lat="34.9423304" lon="33.4141957">
<ele>284.80</ele>
<time>2015-05-01T12:13:24Z</time>
</trkpt>
<trkpt lat="34.9423032" lon="33.4142452">
<ele>284.96</ele>
<time>2015-05-01T12:13:26Z</time>
</trkpt>
<trkpt lat="34.9422649" lon="33.4143132">
<ele>283.75</ele>
<time>2015-05-01T12:13:28Z</time>
</trkpt>
<trkpt lat="34.9422159" lon="33.4143882">
<ele>282.45</ele>
<time>2015-05-01T12:13:30Z</time>
</trkpt>
<trkpt lat="34.9421768" lon="33.4144500">
<ele>283.12</ele>
<time>2015-05-01T12:13:32Z</time>
</trkpt>
<trkpt lat="34.9421350" lon="33.4144924">
<ele>283.02</ele>
<time>2015-05-01T12:13:36Z</time>
</trkpt>
<trkpt lat="34.9421353" lon="33.4145488">
<ele>286.33</ele>
<time>2015-05-01T12:13:40Z</time>
</trkpt>
<trkpt lat="34.9421729" lon="33.4145176">
<ele>288.47</ele>
<time>2015-05-01T12:13:44Z</time>
</trkpt>
<trkpt lat="34.9421883" lon="33.4144641">
<ele>287.92</ele>
<time>2015-05-01T12:13:48Z</time>
</trkpt>
<trkpt lat="34.9422055" lon="33.4144102">
<ele>285.45</ele>
<time>2015-05-01T12:13:52Z</time>
</trkpt>
<trkpt lat="34.9422225" lon="33.4143540">
<ele>284.68</ele>
<time>2015-05-01T12:13:58Z</time>
</trkpt>
<trkpt lat="34.9422364" lon="33.4142970">
<ele>281.07</ele>
<time>2015-05-01T12:14:03Z</time>
</trkpt>
<trkpt lat="34.9422629" lon="33.4142431">
<ele>278.86</ele>
<time>2015-05-01T12:14:08Z</time>
</trkpt>
<trkpt lat="34.9423162" lon="33.4142138">
<ele>280.65</ele>
<time>2015-05-01T12:14:14Z</time>
</trkpt>
<trkpt lat="34.9423518" lon="33.4141724">
<ele>280.43</ele>
<time>2015-05-01T12:14:16Z</time>
</trkpt>
<trkpt lat="34.9423902" lon="33.4141089">
<ele>280.37</ele>
<time>2015-05-01T12:14:18Z</time>
</trkpt>
<trkpt lat="34.9424314" lon="33.4140415">
<ele>279.60</ele>
<time>2015-05-01T12:14:20Z</time>
</trkpt>
<trkpt lat="34.9424701" lon="33.4139807">
<ele>279.91</ele>
<time>2015-05-01T12:14:22Z</time>
</trkpt>
<trkpt lat="34.9425129" lon="33.4139318">
<ele>279.99</ele>
<time>2015-05-01T12:14:24Z</time>
</trkpt>
<trkpt lat="34.9425636" lon="33.4139118">
<ele>280.51</ele>
<time>2015-05-01T12:14:26Z</time>
</trkpt>
<trkpt lat="34.9426163" lon="33.4139120">
<ele>280.89</ele>
<time>2015-05-01T12:14:28Z</time>
</trkpt>
<trkpt lat="34.9426659" lon="33.4139138">
<ele>280.48</ele>
<time>2015-05-01T12:14:30Z</time>
</trkpt>
<trkpt lat="34.9427165" lon="33.4139190">
<ele>279.38</ele>
<time>2015-05-01T12:14:32Z</time>
</trkpt>
<trkpt lat="34.9427644" lon="33.4139428">
<ele>279.86</ele>
<time>2015-05-01T12:14:34Z</time>
</trkpt>
<trkpt lat="34.9428059" lon="33.4139816">
<ele>279.98</ele>
<time>2015-05-01T12:14:36Z</time>
</trkpt>
<trkpt lat="34.9428435" lon="33.4140136">
<ele>280.76</ele>
<time>2015-05-01T12:14:38Z</time>
</trkpt>
<trkpt lat="34.9428964" lon="33.4140236">
<ele>280.73</ele>
<time>2015-05-01T12:14:41Z</time>
</trkpt>
<trkpt lat="34.9429421" lon="33.4140012">
<ele>290.21</ele>
<time>2015-05-01T12:14:50Z</time>
</trkpt>
<trkpt lat="34.9429941" lon="33.4139994">
<ele>289.81</ele>
<time>2015-05-01T12:14:52Z</time>
</trkpt>
<trkpt lat="34.9430635" lon="33.4140158">
<ele>290.47</ele>
<time>2015-05-01T12:14:54Z</time>
</trkpt>
<trkpt lat="34.9431379" lon="33.4140466">
<ele>288.13</ele>
<time>2015-05-01T12:14:56Z</time>
</trkpt>
<trkpt lat="34.9432168" lon="33.4140831">
<ele>286.04</ele>
<time>2015-05-01T12:14:58Z</time>
</trkpt>
<trkpt lat="34.9433272" lon="33.4141447">
<ele>284.77</ele>
<time>2015-05-01T12:15:00Z</time>
</trkpt>
<trkpt lat="34.9434158" lon="33.4141735">
<ele>282.71</ele>
<time>2015-05-01T12:15:02Z</time>
</trkpt>
<trkpt lat="34.9434830" lon="33.4141998">
<ele>281.19</ele>
<time>2015-05-01T12:15:04Z</time>
</trkpt>
<trkpt lat="34.9435521" lon="33.4142335">
<ele>278.81</ele>
<time>2015-05-01T12:15:06Z</time>
</trkpt>
<trkpt lat="34.9436115" lon="33.4142748">
<ele>277.46</ele>
<time>2015-05-01T12:15:08Z</time>
</trkpt>
<trkpt lat="34.9436641" lon="33.4142966">
<ele>275.88</ele>
<time>2015-05-01T12:15:10Z</time>
</trkpt>
<trkpt lat="34.9437135" lon="33.4143203">
<ele>275.23</ele>
<time>2015-05-01T12:15:12Z</time>
</trkpt>
<trkpt lat="34.9437612" lon="33.4143433">
<ele>275.07</ele>
<time>2015-05-01T12:15:14Z</time>
</trkpt>
<trkpt lat="34.9438127" lon="33.4143673">
<ele>275.53</ele>
<time>2015-05-01T12:15:16Z</time>
</trkpt>
<trkpt lat="34.9438687" lon="33.4143936">
<ele>275.89</ele>
<time>2015-05-01T12:15:18Z</time>
</trkpt>
<trkpt lat="34.9439313" lon="33.4144234">
<ele>278.99</ele>
<time>2015-05-01T12:15:20Z</time>
</trkpt>
<trkpt lat="34.9439975" lon="33.4144613">
<ele>281.26</ele>
<time>2015-05-01T12:15:22Z</time>
</trkpt>
<trkpt lat="34.9440752" lon="33.4145030">
<ele>282.33</ele>
<time>2015-05-01T12:15:24Z</time>
</trkpt>
<trkpt lat="34.9441544" lon="33.4145358">
<ele>282.34</ele>
<time>2015-05-01T12:15:26Z</time>
</trkpt>
<trkpt lat="34.9442350" lon="33.4145726">
<ele>282.10</ele>
<time>2015-05-01T12:15:28Z</time>
</trkpt>
<trkpt lat="34.9443168" lon="33.4146058">
<ele>281.29</ele>
<time>2015-05-01T12:15:30Z</time>
</trkpt>
<trkpt lat="34.9443600" lon="33.4146238">
<ele>281.65</ele>
<time>2015-05-01T12:15:31Z</time>
</trkpt>
<trkpt lat="34.9444027" lon="33.4146428">
<ele>281.83</ele>
<time>2015-05-01T12:15:32Z</time>
</trkpt>
<trkpt lat="34.9444845" lon="33.4146793">
<ele>283.22</ele>
<time>2015-05-01T12:15:34Z</time>
</trkpt>
<trkpt lat="34.9445619" lon="33.4147130">
<ele>282.57</ele>
<time>2015-05-01T12:15:36Z</time>
</trkpt>
<trkpt lat="34.9446330" lon="33.4147449">
<ele>280.90</ele>
<time>2015-05-01T12:15:38Z</time>
</trkpt>
<trkpt lat="34.9447017" lon="33.4147768">
<ele>280.74</ele>
<time>2015-05-01T12:15:40Z</time>
</trkpt>
<trkpt lat="34.9447661" lon="33.4148126">
<ele>281.70</ele>
<time>2015-05-01T12:15:42Z</time>
</trkpt>
<trkpt lat="34.9448274" lon="33.4148443">
<ele>280.69</ele>
<time>2015-05-01T12:15:44Z</time>
</trkpt>
<trkpt lat="34.9448905" lon="33.4148669">
<ele>280.93</ele>
<time>2015-05-01T12:15:46Z</time>
</trkpt>
<trkpt lat="34.9449603" lon="33.4148901">
<ele>281.75</ele>
<time>2015-05-01T12:15:48Z</time>
</trkpt>
<trkpt lat="34.9450320" lon="33.4149172">
<ele>281.95</ele>
<time>2015-05-01T12:15:50Z</time>
</trkpt>
<trkpt lat="34.9451053" lon="33.4149496">
<ele>282.00</ele>
<time>2015-05-01T12:15:52Z</time>
</trkpt>
<trkpt lat="34.9451550" lon="33.4149733">
<ele>282.51</ele>
<time>2015-05-01T12:15:53Z</time>
</trkpt>
<trkpt lat="34.9452027" lon="33.4150003">
<ele>283.26</ele>
<time>2015-05-01T12:15:54Z</time>
</trkpt>
<trkpt lat="34.9452526" lon="33.4150245">
<ele>283.14</ele>
<time>2015-05-01T12:15:55Z</time>
</trkpt>
<trkpt lat="34.9453020" lon="33.4150465">
<ele>283.08</ele>
<time>2015-05-01T12:15:56Z</time>
</trkpt>
<trkpt lat="34.9453494" lon="33.4150722">
<ele>283.05</ele>
<time>2015-05-01T12:15:57Z</time>
</trkpt>
<trkpt lat="34.9454357" lon="33.4151200">
<ele>282.77</ele>
<time>2015-05-01T12:15:59Z</time>
</trkpt>
<trkpt lat="34.9454766" lon="33.4151510">
<ele>282.89</ele>
<time>2015-05-01T12:16:00Z</time>
</trkpt>
<trkpt lat="34.9455178" lon="33.4151751">
<ele>282.96</ele>
<time>2015-05-01T12:16:01Z</time>
</trkpt>
<trkpt lat="34.9455676" lon="33.4152051">
<ele>282.49</ele>
<time>2015-05-01T12:16:02Z</time>
</trkpt>
<trkpt lat="34.9456168" lon="33.4152330">
<ele>282.25</ele>
<time>2015-05-01T12:16:03Z</time>
</trkpt>
<trkpt lat="34.9456558" lon="33.4152632">
<ele>282.13</ele>
<time>2015-05-01T12:16:04Z</time>
</trkpt>
<trkpt lat="34.9457005" lon="33.4152925">
<ele>281.57</ele>
<time>2015-05-01T12:16:05Z</time>
</trkpt>
<trkpt lat="34.9457470" lon="33.4153197">
<ele>280.80</ele>
<time>2015-05-01T12:16:06Z</time>
</trkpt>
<trkpt lat="34.9457870" lon="33.4153459">
<ele>280.41</ele>
<time>2015-05-01T12:16:07Z</time>
</trkpt>
<trkpt lat="34.9458320" lon="33.4153701">
<ele>279.71</ele>
<time>2015-05-01T12:16:08Z</time>
</trkpt>
<trkpt lat="34.9459103" lon="33.4154264">
<ele>280.19</ele>
<time>2015-05-01T12:16:10Z</time>
</trkpt>
<trkpt lat="34.9459874" lon="33.4154833">
<ele>281.31</ele>
<time>2015-05-01T12:16:12Z</time>
</trkpt>
<trkpt lat="34.9460787" lon="33.4155333">
<ele>282.84</ele>
<time>2015-05-01T12:16:14Z</time>
</trkpt>
<trkpt lat="34.9461595" lon="33.4155922">
<ele>282.47</ele>
<time>2015-05-01T12:16:16Z</time>
</trkpt>
<trkpt lat="34.9462076" lon="33.4156244">
<ele>282.24</ele>
<time>2015-05-01T12:16:17Z</time>
</trkpt>
<trkpt lat="34.9462891" lon="33.4156889">
<ele>283.82</ele>
<time>2015-05-01T12:16:19Z</time>
</trkpt>
<trkpt lat="34.9463360" lon="33.4157121">
<ele>283.92</ele>
<time>2015-05-01T12:16:20Z</time>
</trkpt>
<trkpt lat="34.9464145" lon="33.4157744">
<ele>283.74</ele>
<time>2015-05-01T12:16:22Z</time>
</trkpt>
<trkpt lat="34.9464507" lon="33.4158096">
<ele>283.38</ele>
<time>2015-05-01T12:16:23Z</time>
</trkpt>
<trkpt lat="34.9464882" lon="33.4158434">
<ele>282.70</ele>
<time>2015-05-01T12:16:24Z</time>
</trkpt>
<trkpt lat="34.9465626" lon="33.4159090">
<ele>283.19</ele>
<time>2015-05-01T12:16:26Z</time>
</trkpt>
<trkpt lat="34.9466152" lon="33.4159289">
<ele>283.10</ele>
<time>2015-05-01T12:16:27Z</time>
</trkpt>
<trkpt lat="34.9466695" lon="33.4159473">
<ele>283.56</ele>
<time>2015-05-01T12:16:28Z</time>
</trkpt>
<trkpt lat="34.9467300" lon="33.4159990">
<ele>281.15</ele>
<time>2015-05-01T12:16:30Z</time>
</trkpt>
<trkpt lat="34.9467886" lon="33.4160402">
<ele>276.30</ele>
<time>2015-05-01T12:16:32Z</time>
</trkpt>
<trkpt lat="34.9468411" lon="33.4160856">
<ele>272.09</ele>
<time>2015-05-01T12:16:34Z</time>
</trkpt>
<trkpt lat="34.9468816" lon="33.4161163">
<ele>272.05</ele>
<time>2015-05-01T12:16:35Z</time>
</trkpt>
<trkpt lat="34.9469490" lon="33.4161613">
<ele>271.27</ele>
<time>2015-05-01T12:16:37Z</time>
</trkpt>
<trkpt lat="34.9470173" lon="33.4162139">
<ele>271.83</ele>
<time>2015-05-01T12:16:39Z</time>
</trkpt>
<trkpt lat="34.9470906" lon="33.4162697">
<ele>271.97</ele>
<time>2015-05-01T12:16:41Z</time>
</trkpt>
<trkpt lat="34.9471630" lon="33.4163218">
<ele>271.50</ele>
<time>2015-05-01T12:16:43Z</time>
</trkpt>
<trkpt lat="34.9472365" lon="33.4163766">
<ele>271.14</ele>
<time>2015-05-01T12:16:45Z</time>
</trkpt>
<trkpt lat="34.9473096" lon="33.4164365">
<ele>271.80</ele>
<time>2015-05-01T12:16:47Z</time>
</trkpt>
<trkpt lat="34.9473476" lon="33.4164672">
<ele>271.41</ele>
<time>2015-05-01T12:16:48Z</time>
</trkpt>
<trkpt lat="34.9474300" lon="33.4165235">
<ele>271.11</ele>
<time>2015-05-01T12:16:50Z</time>
</trkpt>
<trkpt lat="34.9475047" lon="33.4165873">
<ele>279.29</ele>
<time>2015-05-01T12:16:52Z</time>
</trkpt>
<trkpt lat="34.9475795" lon="33.4166433">
<ele>281.83</ele>
<time>2015-05-01T12:16:54Z</time>
</trkpt>
<trkpt lat="34.9476186" lon="33.4166733">
<ele>282.43</ele>
<time>2015-05-01T12:16:55Z</time>
</trkpt>
<trkpt lat="34.9476601" lon="33.4167006">
<ele>283.22</ele>
<time>2015-05-01T12:16:56Z</time>
</trkpt>
<trkpt lat="34.9477282" lon="33.4167470">
<ele>282.57</ele>
<time>2015-05-01T12:16:58Z</time>
</trkpt>
<trkpt lat="34.9478012" lon="33.4168008">
<ele>281.40</ele>
<time>2015-05-01T12:17:00Z</time>
</trkpt>
<trkpt lat="34.9478724" lon="33.4168593">
<ele>280.36</ele>
<time>2015-05-01T12:17:02Z</time>
</trkpt>
<trkpt lat="34.9479459" lon="33.4169042">
<ele>280.10</ele>
<time>2015-05-01T12:17:04Z</time>
</trkpt>
<trkpt lat="34.9480228" lon="33.4169590">
<ele>281.29</ele>
<time>2015-05-01T12:17:06Z</time>
</trkpt>
<trkpt lat="34.9480977" lon="33.4170129">
<ele>281.08</ele>
<time>2015-05-01T12:17:08Z</time>
</trkpt>
<trkpt lat="34.9481682" lon="33.4170696">
<ele>281.03</ele>
<time>2015-05-01T12:17:10Z</time>
</trkpt>
<trkpt lat="34.9482375" lon="33.4171231">
<ele>282.27</ele>
<time>2015-05-01T12:17:12Z</time>
</trkpt>
<trkpt lat="34.9482997" lon="33.4171687">
<ele>282.83</ele>
<time>2015-05-01T12:17:14Z</time>
</trkpt>
<trkpt lat="34.9483577" lon="33.4172116">
<ele>282.47</ele>
<time>2015-05-01T12:17:16Z</time>
</trkpt>
<trkpt lat="34.9484166" lon="33.4172546">
<ele>282.88</ele>
<time>2015-05-01T12:17:18Z</time>
</trkpt>
<trkpt lat="34.9484789" lon="33.4172964">
<ele>282.48</ele>
<time>2015-05-01T12:17:20Z</time>
</trkpt>
<trkpt lat="34.9485471" lon="33.4173414">
<ele>280.63</ele>
<time>2015-05-01T12:17:22Z</time>
</trkpt>
<trkpt lat="34.9486184" lon="33.4173911">
<ele>278.92</ele>
<time>2015-05-01T12:17:24Z</time>
</trkpt>
<trkpt lat="34.9486666" lon="33.4174240">
<ele>278.47</ele>
<time>2015-05-01T12:17:25Z</time>
</trkpt>
<trkpt lat="34.9487029" lon="33.4174576">
<ele>278.74</ele>
<time>2015-05-01T12:17:26Z</time>
</trkpt>
<trkpt lat="34.9487855" lon="33.4175114">
<ele>278.95</ele>
<time>2015-05-01T12:17:28Z</time>
</trkpt>
<trkpt lat="34.9488477" lon="33.4175678">
<ele>278.50</ele>
<time>2015-05-01T12:17:30Z</time>
</trkpt>
<trkpt lat="34.9489169" lon="33.4176141">
<ele>278.14</ele>
<time>2015-05-01T12:17:32Z</time>
</trkpt>
<trkpt lat="34.9489765" lon="33.4176496">
<ele>277.55</ele>
<time>2015-05-01T12:17:34Z</time>
</trkpt>
<trkpt lat="34.9490320" lon="33.4176931">
<ele>277.15</ele>
<time>2015-05-01T12:17:36Z</time>
</trkpt>
<trkpt lat="34.9490900" lon="33.4177407">
<ele>277.55</ele>
<time>2015-05-01T12:17:38Z</time>
</trkpt>
<trkpt lat="34.9491497" lon="33.4177823">
<ele>277.40</ele>
<time>2015-05-01T12:17:40Z</time>
</trkpt>
<trkpt lat="34.9492054" lon="33.4178292">
<ele>276.36</ele>
<time>2015-05-01T12:17:42Z</time>
</trkpt>
<trkpt lat="34.9492601" lon="33.4178845">
<ele>276.10</ele>
<time>2015-05-01T12:17:44Z</time>
</trkpt>
<trkpt lat="34.9493230" lon="33.4179366">
<ele>276.04</ele>
<time>2015-05-01T12:17:46Z</time>
</trkpt>
<trkpt lat="34.9494257" lon="33.4179958">
<ele>276.52</ele>
<time>2015-05-01T12:17:48Z</time>
</trkpt>
<trkpt lat="34.9494998" lon="33.4180427">
<ele>277.64</ele>
<time>2015-05-01T12:17:50Z</time>
</trkpt>
<trkpt lat="34.9495416" lon="33.4180708">
<ele>277.83</ele>
<time>2015-05-01T12:17:51Z</time>
</trkpt>
<trkpt lat="34.9496126" lon="33.4181136">
<ele>278.72</ele>
<time>2015-05-01T12:17:53Z</time>
</trkpt>
<trkpt lat="34.9496540" lon="33.4181363">
<ele>278.87</ele>
<time>2015-05-01T12:17:54Z</time>
</trkpt>
<trkpt lat="34.9497245" lon="33.4181811">
<ele>278.98</ele>
<time>2015-05-01T12:17:56Z</time>
</trkpt>
<trkpt lat="34.9497984" lon="33.4182181">
<ele>278.51</ele>
<time>2015-05-01T12:17:58Z</time>
</trkpt>
<trkpt lat="34.9498760" lon="33.4182449">
<ele>278.14</ele>
<time>2015-05-01T12:18:00Z</time>
</trkpt>
<trkpt lat="34.9499579" lon="33.4182813">
<ele>277.55</ele>
<time>2015-05-01T12:18:02Z</time>
</trkpt>
<trkpt lat="34.9500482" lon="33.4183236">
<ele>277.15</ele>
<time>2015-05-01T12:18:04Z</time>
</trkpt>
<trkpt lat="34.9501344" lon="33.4183569">
<ele>275.80</ele>
<time>2015-05-01T12:18:06Z</time>
</trkpt>
<trkpt lat="34.9501797" lon="33.4183654">
<ele>275.41</ele>
<time>2015-05-01T12:18:07Z</time>
</trkpt>
<trkpt lat="34.9502236" lon="33.4183785">
<ele>275.21</ele>
<time>2015-05-01T12:18:08Z</time>
</trkpt>
<trkpt lat="34.9502694" lon="33.4183944">
<ele>275.11</ele>
<time>2015-05-01T12:18:09Z</time>
</trkpt>
<trkpt lat="34.9503185" lon="33.4184106">
<ele>275.06</ele>
<time>2015-05-01T12:18:10Z</time>
</trkpt>
<trkpt lat="34.9503697" lon="33.4184215">
<ele>274.54</ele>
<time>2015-05-01T12:18:11Z</time>
</trkpt>
<trkpt lat="34.9504209" lon="33.4184388">
<ele>274.28</ele>
<time>2015-05-01T12:18:12Z</time>
</trkpt>
<trkpt lat="34.9504709" lon="33.4184544">
<ele>274.15</ele>
<time>2015-05-01T12:18:13Z</time>
</trkpt>
<trkpt lat="34.9505233" lon="33.4184666">
<ele>274.08</ele>
<time>2015-05-01T12:18:14Z</time>
</trkpt>
<trkpt lat="34.9505850" lon="33.4184926">
<ele>273.55</ele>
<time>2015-05-01T12:18:15Z</time>
</trkpt>
<trkpt lat="34.9506456" lon="33.4185106">
<ele>273.28</ele>
<time>2015-05-01T12:18:16Z</time>
</trkpt>
<trkpt lat="34.9506988" lon="33.4185298">
<ele>273.15</ele>
<time>2015-05-01T12:18:17Z</time>
</trkpt>
<trkpt lat="34.9507544" lon="33.4185469">
<ele>273.08</ele>
<time>2015-05-01T12:18:18Z</time>
</trkpt>
<trkpt lat="34.9508055" lon="33.4185631">
<ele>273.05</ele>
<time>2015-05-01T12:18:19Z</time>
</trkpt>
<trkpt lat="34.9508664" lon="33.4185760">
<ele>273.52</ele>
<time>2015-05-01T12:18:21Z</time>
</trkpt>
<trkpt lat="34.9508682" lon="33.4186334">
<ele>272.26</ele>
<time>2015-05-01T12:18:42Z</time>
</trkpt>
<trkpt lat="34.9508049" lon="33.4186351">
<ele>272.83</ele>
<time>2015-05-01T12:18:44Z</time>
</trkpt>
<trkpt lat="34.9507402" lon="33.4186556">
<ele>272.22</ele>
<time>2015-05-01T12:18:46Z</time>
</trkpt>
<trkpt lat="34.9506733" lon="33.4187046">
<ele>272.82</ele>
<time>2015-05-01T12:18:48Z</time>
</trkpt>
<trkpt lat="34.9506032" lon="33.4187513">
<ele>272.22</ele>
<time>2015-05-01T12:18:50Z</time>
</trkpt>
<trkpt lat="34.9505226" lon="33.4187698">
<ele>272.82</ele>
<time>2015-05-01T12:18:52Z</time>
</trkpt>
<trkpt lat="34.9504418" lon="33.4187824">
<ele>273.97</ele>
<time>2015-05-01T12:18:54Z</time>
</trkpt>
<trkpt lat="34.9503590" lon="33.4187994">
<ele>275.25</ele>
<time>2015-05-01T12:18:56Z</time>
</trkpt>
<trkpt lat="34.9502804" lon="33.4188111">
<ele>276.58</ele>
<time>2015-05-01T12:18:58Z</time>
</trkpt>
<trkpt lat="34.9502075" lon="33.4188165">
<ele>276.91</ele>
<time>2015-05-01T12:19:00Z</time>
</trkpt>
<trkpt lat="34.9501397" lon="33.4188116">
<ele>276.99</ele>
<time>2015-05-01T12:19:02Z</time>
</trkpt>
<trkpt lat="34.9500770" lon="33.4188050">
<ele>276.26</ele>
<time>2015-05-01T12:19:04Z</time>
</trkpt>
<trkpt lat="34.9500183" lon="33.4187989">
<ele>276.08</ele>
<time>2015-05-01T12:19:06Z</time>
</trkpt>
<trkpt lat="34.9499568" lon="33.4187844">
<ele>276.78</ele>
<time>2015-05-01T12:19:08Z</time>
</trkpt>
<trkpt lat="34.9498971" lon="33.4187568">
<ele>276.71</ele>
<time>2015-05-01T12:19:10Z</time>
</trkpt>
<trkpt lat="34.9498349" lon="33.4187208">
<ele>277.44</ele>
<time>2015-05-01T12:19:12Z</time>
</trkpt>
<trkpt lat="34.9497685" lon="33.4186906">
<ele>278.12</ele>
<time>2015-05-01T12:19:14Z</time>
</trkpt>
<trkpt lat="34.9496961" lon="33.4186944">
<ele>277.79</ele>
<time>2015-05-01T12:19:16Z</time>
</trkpt>
<trkpt lat="34.9496285" lon="33.4187258">
<ele>277.96</ele>
<time>2015-05-01T12:19:18Z</time>
</trkpt>
<trkpt lat="34.9495649" lon="33.4187651">
<ele>278.00</ele>
<time>2015-05-01T12:19:20Z</time>
</trkpt>
<trkpt lat="34.9495026" lon="33.4188104">
<ele>278.01</ele>
<time>2015-05-01T12:19:22Z</time>
</trkpt>
<trkpt lat="34.9494536" lon="33.4188705">
<ele>277.52</ele>
<time>2015-05-01T12:19:24Z</time>
</trkpt>
<trkpt lat="34.9494168" lon="33.4189482">
<ele>277.89</ele>
<time>2015-05-01T12:19:26Z</time>
</trkpt>
<trkpt lat="34.9493749" lon="33.4190290">
<ele>277.98</ele>
<time>2015-05-01T12:19:28Z</time>
</trkpt>
<trkpt lat="34.9493273" lon="33.4191054">
<ele>277.26</ele>
<time>2015-05-01T12:19:30Z</time>
</trkpt>
<trkpt lat="34.9492726" lon="33.4191806">
<ele>276.33</ele>
<time>2015-05-01T12:19:32Z</time>
</trkpt>
<trkpt lat="34.9492281" lon="33.4192358">
<ele>276.67</ele>
<time>2015-05-01T12:19:33Z</time>
</trkpt>
<trkpt lat="34.9491942" lon="33.4192784">
<ele>276.84</ele>
<time>2015-05-01T12:19:34Z</time>
</trkpt>
<trkpt lat="34.9491566" lon="33.4193102">
<ele>276.93</ele>
<time>2015-05-01T12:19:35Z</time>
</trkpt>
<trkpt lat="34.9491238" lon="33.4193512">
<ele>276.47</ele>
<time>2015-05-01T12:19:36Z</time>
</trkpt>
<trkpt lat="34.9490813" lon="33.4193943">
<ele>275.74</ele>
<time>2015-05-01T12:19:37Z</time>
</trkpt>
<trkpt lat="34.9490424" lon="33.4194431">
<ele>275.38</ele>
<time>2015-05-01T12:19:38Z</time>
</trkpt>
<trkpt lat="34.9490109" lon="33.4194983">
<ele>275.20</ele>
<time>2015-05-01T12:19:39Z</time>
</trkpt>
<trkpt lat="34.9489682" lon="33.4195456">
<ele>275.11</ele>
<time>2015-05-01T12:19:40Z</time>
</trkpt>
<trkpt lat="34.9489323" lon="33.4195956">
<ele>274.56</ele>
<time>2015-05-01T12:19:41Z</time>
</trkpt>
<trkpt lat="34.9488929" lon="33.4196481">
<ele>273.79</ele>
<time>2015-05-01T12:19:42Z</time>
</trkpt>
<trkpt lat="34.9488514" lon="33.4196998">
<ele>272.90</ele>
<time>2015-05-01T12:19:43Z</time>
</trkpt>
<trkpt lat="34.9488028" lon="33.4197546">
<ele>272.96</ele>
<time>2015-05-01T12:19:44Z</time>
</trkpt>
<trkpt lat="34.9487531" lon="33.4198067">
<ele>272.99</ele>
<time>2015-05-01T12:19:45Z</time>
</trkpt>
<trkpt lat="34.9487048" lon="33.4198603">
<ele>272.50</ele>
<time>2015-05-01T12:19:46Z</time>
</trkpt>
<trkpt lat="34.9486553" lon="33.4199147">
<ele>277.26</ele>
<time>2015-05-01T12:19:47Z</time>
</trkpt>
<trkpt lat="34.9486111" lon="33.4199721">
<ele>278.64</ele>
<time>2015-05-01T12:19:48Z</time>
</trkpt>
<trkpt lat="34.9485686" lon="33.4200290">
<ele>278.83</ele>
<time>2015-05-01T12:19:49Z</time>
</trkpt>
<trkpt lat="34.9485347" lon="33.4200771">
<ele>278.42</ele>
<time>2015-05-01T12:19:50Z</time>
</trkpt>
<trkpt lat="34.9485046" lon="33.4201226">
<ele>279.72</ele>
<time>2015-05-01T12:19:51Z</time>
</trkpt>
<trkpt lat="34.9484599" lon="33.4201751">
<ele>280.19</ele>
<time>2015-05-01T12:19:53Z</time>
</trkpt>
<trkpt lat="34.9484217" lon="33.4202203">
<ele>278.41</ele>
<time>2015-05-01T12:19:56Z</time>
</trkpt>
<trkpt lat="34.9483876" lon="33.4202658">
<ele>273.84</ele>
<time>2015-05-01T12:20:01Z</time>
</trkpt>
<trkpt lat="34.9483549" lon="33.4203136">
<ele>272.02</ele>
<time>2015-05-01T12:20:13Z</time>
</trkpt>
<trkpt lat="34.9483193" lon="33.4203625">
<ele>272.02</ele>
<time>2015-05-01T12:20:15Z</time>
</trkpt>
<trkpt lat="34.9482824" lon="33.4204174">
<ele>271.52</ele>
<time>2015-05-01T12:20:17Z</time>
</trkpt>
<trkpt lat="34.9482393" lon="33.4204742">
<ele>270.64</ele>
<time>2015-05-01T12:20:19Z</time>
</trkpt>
<trkpt lat="34.9481926" lon="33.4205339">
<ele>269.42</ele>
<time>2015-05-01T12:20:21Z</time>
</trkpt>
<trkpt lat="34.9481276" lon="33.4206036">
<ele>269.22</ele>
<time>2015-05-01T12:20:22Z</time>
</trkpt>
<trkpt lat="34.9480896" lon="33.4206534">
<ele>269.12</ele>
<time>2015-05-01T12:20:23Z</time>
</trkpt>
<trkpt lat="34.9480473" lon="33.4207012">
<ele>269.07</ele>
<time>2015-05-01T12:20:24Z</time>
</trkpt>
<trkpt lat="34.9480128" lon="33.4207607">
<ele>269.04</ele>
<time>2015-05-01T12:20:25Z</time>
</trkpt>
<trkpt lat="34.9479728" lon="33.4208179">
<ele>268.53</ele>
<time>2015-05-01T12:20:26Z</time>
</trkpt>
<trkpt lat="34.9479295" lon="33.4208681">
<ele>268.27</ele>
<time>2015-05-01T12:20:27Z</time>
</trkpt>
<trkpt lat="34.9478922" lon="33.4209205">
<ele>267.64</ele>
<time>2015-05-01T12:20:28Z</time>
</trkpt>
<trkpt lat="34.9478500" lon="33.4209692">
<ele>267.33</ele>
<time>2015-05-01T12:20:29Z</time>
</trkpt>
<trkpt lat="34.9478061" lon="33.4210273">
<ele>266.67</ele>
<time>2015-05-01T12:20:30Z</time>
</trkpt>
<trkpt lat="34.9477643" lon="33.4210807">
<ele>265.84</ele>
<time>2015-05-01T12:20:31Z</time>
</trkpt>
<trkpt lat="34.9477206" lon="33.4211344">
<ele>265.43</ele>
<time>2015-05-01T12:20:32Z</time>
</trkpt>
<trkpt lat="34.9476923" lon="33.4211815">
<ele>265.22</ele>
<time>2015-05-01T12:20:33Z</time>
</trkpt>
<trkpt lat="34.9476575" lon="33.4212166">
<ele>265.12</ele>
<time>2015-05-01T12:20:34Z</time>
</trkpt>
<trkpt lat="34.9475995" lon="33.4212743">
<ele>264.54</ele>
<time>2015-05-01T12:20:36Z</time>
</trkpt>
<trkpt lat="34.9475504" lon="33.4213334">
<ele>263.40</ele>
<time>2015-05-01T12:20:38Z</time>
</trkpt>
<trkpt lat="34.9475179" lon="33.4213875">
<ele>262.86</ele>
<time>2015-05-01T12:20:40Z</time>
</trkpt>
<trkpt lat="34.9474881" lon="33.4214327">
<ele>262.23</ele>
<time>2015-05-01T12:20:42Z</time>
</trkpt>
<trkpt lat="34.9474608" lon="33.4214863">
<ele>262.17</ele>
<time>2015-05-01T12:20:45Z</time>
</trkpt>
<trkpt lat="34.9474326" lon="33.4215423">
<ele>263.28</ele>
<time>2015-05-01T12:20:48Z</time>
</trkpt>
<trkpt lat="34.9474121" lon="33.4215966">
<ele>263.42</ele>
<time>2015-05-01T12:20:51Z</time>
</trkpt>
<trkpt lat="34.9473912" lon="33.4216527">
<ele>262.44</ele>
<time>2015-05-01T12:20:54Z</time>
</trkpt>
<trkpt lat="34.9473623" lon="33.4216976">
<ele>262.57</ele>
<time>2015-05-01T12:20:57Z</time>
</trkpt>
<trkpt lat="34.9473457" lon="33.4217507">
<ele>262.11</ele>
<time>2015-05-01T12:21:01Z</time>
</trkpt>
<trkpt lat="34.9473089" lon="33.4217980">
<ele>261.96</ele>
<time>2015-05-01T12:21:05Z</time>
</trkpt>
<trkpt lat="34.9472637" lon="33.4218380">
<ele>261.76</ele>
<time>2015-05-01T12:21:08Z</time>
</trkpt>
<trkpt lat="34.9472279" lon="33.4218722">
<ele>261.70</ele>
<time>2015-05-01T12:21:10Z</time>
</trkpt>
<trkpt lat="34.9471742" lon="33.4219282">
<ele>261.94</ele>
<time>2015-05-01T12:21:12Z</time>
</trkpt>
<trkpt lat="34.9471104" lon="33.4219972">
<ele>261.75</ele>
<time>2015-05-01T12:21:14Z</time>
</trkpt>
<trkpt lat="34.9470774" lon="33.4220350">
<ele>261.88</ele>
<time>2015-05-01T12:21:15Z</time>
</trkpt>
<trkpt lat="34.9470450" lon="33.4220776">
<ele>261.95</ele>
<time>2015-05-01T12:21:16Z</time>
</trkpt>
<trkpt lat="34.9470172" lon="33.4221211">
<ele>261.48</ele>
<time>2015-05-01T12:21:17Z</time>
</trkpt>
<trkpt lat="34.9469929" lon="33.4221679">
<ele>261.25</ele>
<time>2015-05-01T12:21:18Z</time>
</trkpt>
<trkpt lat="34.9469553" lon="33.4222554">
<ele>260.32</ele>
<time>2015-05-01T12:21:20Z</time>
</trkpt>
<trkpt lat="34.9469269" lon="33.4223265">
<ele>260.09</ele>
<time>2015-05-01T12:21:22Z</time>
</trkpt>
<trkpt lat="34.9469047" lon="33.4223841">
<ele>261.54</ele>
<time>2015-05-01T12:21:24Z</time>
</trkpt>
<trkpt lat="34.9468879" lon="33.4224421">
<ele>261.71</ele>
<time>2015-05-01T12:21:27Z</time>
</trkpt>
<trkpt lat="34.9468430" lon="33.4224324">
<ele>263.42</ele>
<time>2015-05-01T12:21:40Z</time>
</trkpt>
<trkpt lat="34.9467877" lon="33.4224440">
<ele>263.05</ele>
<time>2015-05-01T12:22:11Z</time>
</trkpt>
<trkpt lat="34.9467379" lon="33.4224512">
<ele>263.52</ele>
<time>2015-05-01T12:22:13Z</time>
</trkpt>
<trkpt lat="34.9466724" lon="33.4224485">
<ele>263.39</ele>
<time>2015-05-01T12:22:15Z</time>
</trkpt>
<trkpt lat="34.9466017" lon="33.4224378">
<ele>262.36</ele>
<time>2015-05-01T12:22:17Z</time>
</trkpt>
<trkpt lat="34.9465383" lon="33.4224307">
<ele>262.10</ele>
<time>2015-05-01T12:22:19Z</time>
</trkpt>
<trkpt lat="34.9464771" lon="33.4224268">
<ele>262.79</ele>
<time>2015-05-01T12:22:21Z</time>
</trkpt>
<trkpt lat="34.9464141" lon="33.4224263">
<ele>262.46</ele>
<time>2015-05-01T12:22:23Z</time>
</trkpt>
<trkpt lat="34.9463491" lon="33.4224256">
<ele>262.13</ele>
<time>2015-05-01T12:22:25Z</time>
</trkpt>
<trkpt lat="34.9462869" lon="33.4224263">
<ele>262.04</ele>
<time>2015-05-01T12:22:27Z</time>
</trkpt>
<trkpt lat="34.9462254" lon="33.4224271">
<ele>262.02</ele>
<time>2015-05-01T12:22:29Z</time>
</trkpt>
<trkpt lat="34.9461696" lon="33.4224310">
<ele>262.02</ele>
<time>2015-05-01T12:22:31Z</time>
</trkpt>
<trkpt lat="34.9461132" lon="33.4224442">
<ele>262.02</ele>
<time>2015-05-01T12:22:33Z</time>
</trkpt>
<trkpt lat="34.9460552" lon="33.4224545">
<ele>263.02</ele>
<time>2015-05-01T12:22:35Z</time>
</trkpt>
<trkpt lat="34.9459970" lon="33.4224640">
<ele>263.77</ele>
<time>2015-05-01T12:22:37Z</time>
</trkpt>
<trkpt lat="34.9459411" lon="33.4224747">
<ele>263.95</ele>
<time>2015-05-01T12:22:39Z</time>
</trkpt>
<trkpt lat="34.9458858" lon="33.4224874">
<ele>264.25</ele>
<time>2015-05-01T12:22:41Z</time>
</trkpt>
<trkpt lat="34.9458345" lon="33.4225039">
<ele>264.57</ele>
<time>2015-05-01T12:22:43Z</time>
</trkpt>
<trkpt lat="34.9457818" lon="33.4225219">
<ele>265.41</ele>
<time>2015-05-01T12:22:45Z</time>
</trkpt>
<trkpt lat="34.9457324" lon="33.4225341">
<ele>266.11</ele>
<time>2015-05-01T12:22:47Z</time>
</trkpt>
<trkpt lat="34.9456825" lon="33.4225513">
<ele>267.29</ele>
<time>2015-05-01T12:22:49Z</time>
</trkpt>
<trkpt lat="34.9456297" lon="33.4225712">
<ele>267.33</ele>
<time>2015-05-01T12:22:51Z</time>
</trkpt>
<trkpt lat="34.9455764" lon="33.4225931">
<ele>267.10</ele>
<time>2015-05-01T12:22:53Z</time>
</trkpt>
<trkpt lat="34.9455212" lon="33.4226181">
<ele>266.54</ele>
<time>2015-05-01T12:22:55Z</time>
</trkpt>
<trkpt lat="34.9454648" lon="33.4226433">
<ele>266.90</ele>
<time>2015-05-01T12:22:57Z</time>
</trkpt>
<trkpt lat="34.9454175" lon="33.4226634">
<ele>266.99</ele>
<time>2015-05-01T12:22:59Z</time>
</trkpt>
<trkpt lat="34.9453663" lon="33.4226921">
<ele>267.76</ele>
<time>2015-05-01T12:23:02Z</time>
</trkpt>
<trkpt lat="34.9453185" lon="33.4227100">
<ele>266.48</ele>
<time>2015-05-01T12:23:05Z</time>
</trkpt>
<trkpt lat="34.9452718" lon="33.4227162">
<ele>264.95</ele>
<time>2015-05-01T12:23:08Z</time>
</trkpt>
<trkpt lat="34.9452227" lon="33.4227318">
<ele>265.01</ele>
<time>2015-05-01T12:23:12Z</time>
</trkpt>
<trkpt lat="34.9451736" lon="33.4227380">
<ele>265.08</ele>
<time>2015-05-01T12:23:16Z</time>
</trkpt>
<trkpt lat="34.9451258" lon="33.4227148">
<ele>265.27</ele>
<time>2015-05-01T12:23:20Z</time>
</trkpt>
<trkpt lat="34.9450792" lon="33.4227049">
<ele>264.80</ele>
<time>2015-05-01T12:23:23Z</time>
</trkpt>
<trkpt lat="34.9450294" lon="33.4226767">
<ele>265.24</ele>
<time>2015-05-01T12:23:26Z</time>
</trkpt>
<trkpt lat="34.9449707" lon="33.4226376">
<ele>265.04</ele>
<time>2015-05-01T12:23:29Z</time>
</trkpt>
<trkpt lat="34.9449007" lon="33.4225923">
<ele>263.27</ele>
<time>2015-05-01T12:23:32Z</time>
</trkpt>
<trkpt lat="34.9448416" lon="33.4225341">
<ele>261.83</ele>
<time>2015-05-01T12:23:34Z</time>
</trkpt>
<trkpt lat="34.9448066" lon="33.4224917">
<ele>261.42</ele>
<time>2015-05-01T12:23:35Z</time>
</trkpt>
<trkpt lat="34.9447406" lon="33.4224174">
<ele>261.22</ele>
<time>2015-05-01T12:23:36Z</time>
</trkpt>
<trkpt lat="34.9446946" lon="33.4223714">
<ele>260.12</ele>
<time>2015-05-01T12:23:37Z</time>
</trkpt>
<trkpt lat="34.9446478" lon="33.4223306">
<ele>259.57</ele>
<time>2015-05-01T12:23:38Z</time>
</trkpt>
<trkpt lat="34.9445985" lon="33.4222829">
<ele>259.79</ele>
<time>2015-05-01T12:23:39Z</time>
</trkpt>
<trkpt lat="34.9445406" lon="33.4222414">
<ele>260.40</ele>
<time>2015-05-01T12:23:40Z</time>
</trkpt>
<trkpt lat="34.9444891" lon="33.4222081">
<ele>261.21</ele>
<time>2015-05-01T12:23:41Z</time>
</trkpt>
<trkpt lat="34.9444333" lon="33.4221765">
<ele>262.11</ele>
<time>2015-05-01T12:23:42Z</time>
</trkpt>
<trkpt lat="34.9443684" lon="33.4221383">
<ele>262.06</ele>
<time>2015-05-01T12:23:43Z</time>
</trkpt>
<trkpt lat="34.9443135" lon="33.4221081">
<ele>262.04</ele>
<time>2015-05-01T12:23:44Z</time>
</trkpt>
<trkpt lat="34.9442712" lon="33.4220817">
<ele>263.03</ele>
<time>2015-05-01T12:23:45Z</time>
</trkpt>
<trkpt lat="34.9442224" lon="33.4220579">
<ele>263.02</ele>
<time>2015-05-01T12:23:46Z</time>
</trkpt>
<trkpt lat="34.9441822" lon="33.4220212">
<ele>264.77</ele>
<time>2015-05-01T12:23:48Z</time>
</trkpt>
<trkpt lat="34.9441363" lon="33.4220009">
<ele>266.36</ele>
<time>2015-05-01T12:23:51Z</time>
</trkpt>
<trkpt lat="34.9440857" lon="33.4219913">
<ele>266.98</ele>
<time>2015-05-01T12:23:55Z</time>
</trkpt>
<trkpt lat="34.9440402" lon="33.4219871">
<ele>266.89</ele>
<time>2015-05-01T12:23:58Z</time>
</trkpt>
<trkpt lat="34.9439966" lon="33.4220308">
<ele>266.07</ele>
<time>2015-05-01T12:24:02Z</time>
</trkpt>
<trkpt lat="34.9439644" lon="33.4220786">
<ele>264.90</ele>
<time>2015-05-01T12:24:05Z</time>
</trkpt>
<trkpt lat="34.9439279" lon="33.4221249">
<ele>265.88</ele>
<time>2015-05-01T12:24:08Z</time>
</trkpt>
<trkpt lat="34.9438968" lon="33.4221761">
<ele>265.75</ele>
<time>2015-05-01T12:24:11Z</time>
</trkpt>
<trkpt lat="34.9438676" lon="33.4222295">
<ele>266.86</ele>
<time>2015-05-01T12:24:14Z</time>
</trkpt>
<trkpt lat="34.9438412" lon="33.4222852">
<ele>268.37</ele>
<time>2015-05-01T12:24:17Z</time>
</trkpt>
<trkpt lat="34.9438188" lon="33.4223385">
<ele>269.69</ele>
<time>2015-05-01T12:24:20Z</time>
</trkpt>
<trkpt lat="34.9438051" lon="33.4224054">
<ele>271.25</ele>
<time>2015-05-01T12:24:24Z</time>
</trkpt>
<trkpt lat="34.9437975" lon="33.4224598">
<ele>269.16</ele>
<time>2015-05-01T12:24:28Z</time>
</trkpt>
<trkpt lat="34.9437965" lon="33.4225227">
<ele>267.16</ele>
<time>2015-05-01T12:24:55Z</time>
</trkpt>
<trkpt lat="34.9437996" lon="33.4225919">
<ele>267.30</ele>
<time>2015-05-01T12:24:57Z</time>
</trkpt>
<trkpt lat="34.9438083" lon="33.4226844">
<ele>266.59</ele>
<time>2015-05-01T12:24:59Z</time>
</trkpt>
<trkpt lat="34.9438206" lon="33.4228314">
<ele>266.16</ele>
<time>2015-05-01T12:25:01Z</time>
</trkpt>
<trkpt lat="34.9438141" lon="33.4228904">
<ele>265.59</ele>
<time>2015-05-01T12:25:02Z</time>
</trkpt>
<trkpt lat="34.9438307" lon="33.4229558">
<ele>265.80</ele>
<time>2015-05-01T12:25:03Z</time>
</trkpt>
<trkpt lat="34.9438544" lon="33.4230656">
<ele>265.21</ele>
<time>2015-05-01T12:25:05Z</time>
</trkpt>
<trkpt lat="34.9438908" lon="33.4231121">
<ele>266.11</ele>
<time>2015-05-01T12:25:06Z</time>
</trkpt>
<trkpt lat="34.9439233" lon="33.4231750">
<ele>266.54</ele>
<time>2015-05-01T12:25:08Z</time>
</trkpt>
<trkpt lat="34.9439550" lon="33.4232139">
<ele>266.15</ele>
<time>2015-05-01T12:25:10Z</time>
</trkpt>
<trkpt lat="34.9439877" lon="33.4232559">
<ele>263.55</ele>
<time>2015-05-01T12:25:12Z</time>
</trkpt>
<trkpt lat="34.9440057" lon="33.4233146">
<ele>260.65</ele>
<time>2015-05-01T12:25:14Z</time>
</trkpt>
<trkpt lat="34.9440396" lon="33.4233554">
<ele>263.57</ele>
<time>2015-05-01T12:25:29Z</time>
</trkpt>
<trkpt lat="34.9440731" lon="33.4234032">
<ele>262.34</ele>
<time>2015-05-01T12:25:32Z</time>
</trkpt>
<trkpt lat="34.9441173" lon="33.4234525">
<ele>261.60</ele>
<time>2015-05-01T12:25:34Z</time>
</trkpt>
<trkpt lat="34.9441585" lon="33.4235047">
<ele>261.16</ele>
<time>2015-05-01T12:25:36Z</time>
</trkpt>
<trkpt lat="34.9442017" lon="33.4235653">
<ele>260.30</ele>
<time>2015-05-01T12:25:38Z</time>
</trkpt>
<trkpt lat="34.9442397" lon="33.4236146">
<ele>260.09</ele>
<time>2015-05-01T12:25:40Z</time>
</trkpt>
<trkpt lat="34.9442710" lon="33.4236566">
<ele>260.78</ele>
<time>2015-05-01T12:25:42Z</time>
</trkpt>
<trkpt lat="34.9443137" lon="33.4237013">
<ele>260.61</ele>
<time>2015-05-01T12:25:45Z</time>
</trkpt>
<trkpt lat="34.9442745" lon="33.4236551">
<ele>259.79</ele>
<time>2015-05-01T12:25:58Z</time>
</trkpt>
<trkpt lat="34.9442762" lon="33.4235893">
<ele>259.11</ele>
<time>2015-05-01T12:26:01Z</time>
</trkpt>
<trkpt lat="34.9443316" lon="33.4236158">
<ele>259.90</ele>
<time>2015-05-01T12:26:04Z</time>
</trkpt>
<trkpt lat="34.9443822" lon="33.4236447">
<ele>259.88</ele>
<time>2015-05-01T12:26:07Z</time>
</trkpt>
<trkpt lat="34.9444347" lon="33.4236736">
<ele>259.75</ele>
<time>2015-05-01T12:26:10Z</time>
</trkpt>
<trkpt lat="34.9444933" lon="33.4236858">
<ele>259.11</ele>
<time>2015-05-01T12:26:13Z</time>
</trkpt>
<trkpt lat="34.9445503" lon="33.4236948">
<ele>259.04</ele>
<time>2015-05-01T12:26:15Z</time>
</trkpt>
<trkpt lat="34.9446192" lon="33.4237096">
<ele>259.02</ele>
<time>2015-05-01T12:26:17Z</time>
</trkpt>
<trkpt lat="34.9446924" lon="33.4237209">
<ele>259.77</ele>
<time>2015-05-01T12:26:19Z</time>
</trkpt>
<trkpt lat="34.9447715" lon="33.4237284">
<ele>259.95</ele>
<time>2015-05-01T12:26:21Z</time>
</trkpt>
<trkpt lat="34.9448483" lon="33.4237295">
<ele>260.00</ele>
<time>2015-05-01T12:26:23Z</time>
</trkpt>
<trkpt lat="34.9449286" lon="33.4237223">
<ele>260.01</ele>
<time>2015-05-01T12:26:25Z</time>
</trkpt>
<trkpt lat="34.9450088" lon="33.4237181">
<ele>260.02</ele>
<time>2015-05-01T12:26:27Z</time>
</trkpt>
<trkpt lat="34.9450931" lon="33.4237204">
<ele>260.52</ele>
<time>2015-05-01T12:26:29Z</time>
</trkpt>
<trkpt lat="34.9451756" lon="33.4237226">
<ele>260.14</ele>
<time>2015-05-01T12:26:31Z</time>
</trkpt>
<trkpt lat="34.9452605" lon="33.4237267">
<ele>260.30</ele>
<time>2015-05-01T12:26:33Z</time>
</trkpt>
<trkpt lat="34.9453560" lon="33.4237378">
<ele>260.84</ele>
<time>2015-05-01T12:26:35Z</time>
</trkpt>
<trkpt lat="34.9454444" lon="33.4237398">
<ele>260.97</ele>
<time>2015-05-01T12:26:37Z</time>
</trkpt>
<trkpt lat="34.9455235" lon="33.4237415">
<ele>261.00</ele>
<time>2015-05-01T12:26:39Z</time>
</trkpt>
<trkpt lat="34.9455974" lon="33.4237482">
<ele>261.76</ele>
<time>2015-05-01T12:26:41Z</time>
</trkpt>
<trkpt lat="34.9456780" lon="33.4237613">
<ele>261.45</ele>
<time>2015-05-01T12:26:43Z</time>
</trkpt>
<trkpt lat="34.9457542" lon="33.4237952">
<ele>260.63</ele>
<time>2015-05-01T12:26:45Z</time>
</trkpt>
<trkpt lat="34.9458163" lon="33.4238354">
<ele>260.17</ele>
<time>2015-05-01T12:26:47Z</time>
</trkpt>
<trkpt lat="34.9458744" lon="33.4238907">
<ele>259.55</ele>
<time>2015-05-01T12:26:49Z</time>
</trkpt>
<trkpt lat="34.9459242" lon="33.4239545">
<ele>259.65</ele>
<time>2015-05-01T12:26:51Z</time>
</trkpt>
<trkpt lat="34.9459805" lon="33.4240178">
<ele>259.92</ele>
<time>2015-05-01T12:26:53Z</time>
</trkpt>
<trkpt lat="34.9460316" lon="33.4240863">
<ele>259.99</ele>
<time>2015-05-01T12:26:55Z</time>
</trkpt>
<trkpt lat="34.9460795" lon="33.4241653">
<ele>259.26</ele>
<time>2015-05-01T12:26:57Z</time>
</trkpt>
<trkpt lat="34.9461225" lon="33.4242490">
<ele>259.83</ele>
<time>2015-05-01T12:26:59Z</time>
</trkpt>
<trkpt lat="34.9461646" lon="33.4243353">
<ele>259.22</ele>
<time>2015-05-01T12:27:01Z</time>
</trkpt>
<trkpt lat="34.9462034" lon="33.4244183">
<ele>259.07</ele>
<time>2015-05-01T12:27:03Z</time>
</trkpt>
<trkpt lat="34.9462461" lon="33.4245029">
<ele>259.03</ele>
<time>2015-05-01T12:27:05Z</time>
</trkpt>
<trkpt lat="34.9462898" lon="33.4245833">
<ele>259.02</ele>
<time>2015-05-01T12:27:07Z</time>
</trkpt>
<trkpt lat="34.9463331" lon="33.4246679">
<ele>259.02</ele>
<time>2015-05-01T12:27:09Z</time>
</trkpt>
<trkpt lat="34.9463744" lon="33.4247473">
<ele>259.52</ele>
<time>2015-05-01T12:27:11Z</time>
</trkpt>
<trkpt lat="34.9464184" lon="33.4248117">
<ele>259.89</ele>
<time>2015-05-01T12:27:13Z</time>
</trkpt>
<trkpt lat="34.9464467" lon="33.4248688">
<ele>259.48</ele>
<time>2015-05-01T12:27:15Z</time>
</trkpt>
<trkpt lat="34.9464713" lon="33.4249330">
<ele>259.13</ele>
<time>2015-05-01T12:27:17Z</time>
</trkpt>
<trkpt lat="34.9465023" lon="33.4250038">
<ele>258.30</ele>
<time>2015-05-01T12:27:19Z</time>
</trkpt>
<trkpt lat="34.9465404" lon="33.4250786">
<ele>258.09</ele>
<time>2015-05-01T12:27:21Z</time>
</trkpt>
<trkpt lat="34.9465848" lon="33.4251464">
<ele>257.28</ele>
<time>2015-05-01T12:27:23Z</time>
</trkpt>
<trkpt lat="34.9466390" lon="33.4252154">
<ele>257.83</ele>
<time>2015-05-01T12:27:25Z</time>
</trkpt>
<trkpt lat="34.9466865" lon="33.4252785">
<ele>257.22</ele>
<time>2015-05-01T12:27:27Z</time>
</trkpt>
<trkpt lat="34.9467225" lon="33.4253303">
<ele>256.32</ele>
<time>2015-05-01T12:27:29Z</time>
</trkpt>
<trkpt lat="34.9467553" lon="33.4253816">
<ele>256.09</ele>
<time>2015-05-01T12:27:31Z</time>
</trkpt>
<trkpt lat="34.9467963" lon="33.4254316">
<ele>256.03</ele>
<time>2015-05-01T12:27:33Z</time>
</trkpt>
<trkpt lat="34.9468378" lon="33.4254928">
<ele>255.52</ele>
<time>2015-05-01T12:27:35Z</time>
</trkpt>
<trkpt lat="34.9468641" lon="33.4255375">
<ele>255.27</ele>
<time>2015-05-01T12:27:36Z</time>
</trkpt>
<trkpt lat="34.9468896" lon="33.4255831">
<ele>255.14</ele>
<time>2015-05-01T12:27:37Z</time>
</trkpt>
<trkpt lat="34.9469114" lon="33.4256513">
<ele>254.58</ele>
<time>2015-05-01T12:27:38Z</time>
</trkpt>
<trkpt lat="34.9469365" lon="33.4257064">
<ele>254.80</ele>
<time>2015-05-01T12:27:39Z</time>
</trkpt>
<trkpt lat="34.9469563" lon="33.4257658">
<ele>254.91</ele>
<time>2015-05-01T12:27:40Z</time>
</trkpt>
<trkpt lat="34.9469701" lon="33.4258334">
<ele>254.46</ele>
<time>2015-05-01T12:27:41Z</time>
</trkpt>
<trkpt lat="34.9469814" lon="33.4259046">
<ele>254.24</ele>
<time>2015-05-01T12:27:42Z</time>
</trkpt>
<trkpt lat="34.9469866" lon="33.4259747">
<ele>254.13</ele>
<time>2015-05-01T12:27:43Z</time>
</trkpt>
<trkpt lat="34.9469968" lon="33.4260525">
<ele>254.07</ele>
<time>2015-05-01T12:27:44Z</time>
</trkpt>
<trkpt lat="34.9470050" lon="33.4261309">
<ele>253.54</ele>
<time>2015-05-01T12:27:45Z</time>
</trkpt>
<trkpt lat="34.9470162" lon="33.4262081">
<ele>253.28</ele>
<time>2015-05-01T12:27:46Z</time>
</trkpt>
<trkpt lat="34.9470257" lon="33.4262856">
<ele>253.15</ele>
<time>2015-05-01T12:27:47Z</time>
</trkpt>
<trkpt lat="34.9470312" lon="33.4263630">
<ele>253.08</ele>
<time>2015-05-01T12:27:48Z</time>
</trkpt>
<trkpt lat="34.9470633" lon="33.4264604">
<ele>253.03</ele>
<time>2015-05-01T12:27:50Z</time>
</trkpt>
<trkpt lat="34.9471038" lon="33.4265203">
<ele>251.77</ele>
<time>2015-05-01T12:27:52Z</time>
</trkpt>
<trkpt lat="34.9471962" lon="33.4265396">
<ele>250.45</ele>
<time>2015-05-01T12:27:54Z</time>
</trkpt>
<trkpt lat="34.9472464" lon="33.4265450">
<ele>250.24</ele>
<time>2015-05-01T12:27:55Z</time>
</trkpt>
<trkpt lat="34.9473036" lon="33.4265506">
<ele>249.63</ele>
<time>2015-05-01T12:27:56Z</time>
</trkpt>
<trkpt lat="34.9473787" lon="33.4265580">
<ele>249.32</ele>
<time>2015-05-01T12:27:57Z</time>
</trkpt>
<trkpt lat="34.9474359" lon="33.4265823">
<ele>248.67</ele>
<time>2015-05-01T12:27:58Z</time>
</trkpt>
<trkpt lat="34.9474995" lon="33.4265958">
<ele>248.34</ele>
<time>2015-05-01T12:27:59Z</time>
</trkpt>
<trkpt lat="34.9475702" lon="33.4266185">
<ele>248.18</ele>
<time>2015-05-01T12:28:00Z</time>
</trkpt>
<trkpt lat="34.9476333" lon="33.4266522">
<ele>248.10</ele>
<time>2015-05-01T12:28:01Z</time>
</trkpt>
<trkpt lat="34.9476978" lon="33.4266946">
<ele>248.56</ele>
<time>2015-05-01T12:28:02Z</time>
</trkpt>
<trkpt lat="34.9477470" lon="33.4267318">
<ele>248.79</ele>
<time>2015-05-01T12:28:03Z</time>
</trkpt>
<trkpt lat="34.9477989" lon="33.4267682">
<ele>248.40</ele>
<time>2015-05-01T12:28:04Z</time>
</trkpt>
<trkpt lat="34.9478371" lon="33.4268013">
<ele>248.21</ele>
<time>2015-05-01T12:28:05Z</time>
</trkpt>
<trkpt lat="34.9479002" lon="33.4268521">
<ele>249.31</ele>
<time>2015-05-01T12:28:07Z</time>
</trkpt>
<trkpt lat="34.9479540" lon="33.4268784">
<ele>250.59</ele>
<time>2015-05-01T12:28:09Z</time>
</trkpt>
<trkpt lat="34.9480038" lon="33.4268864">
<ele>251.41</ele>
<time>2015-05-01T12:28:11Z</time>
</trkpt>
<trkpt lat="34.9480594" lon="33.4269015">
<ele>251.86</ele>
<time>2015-05-01T12:28:13Z</time>
</trkpt>
<trkpt lat="34.9481130" lon="33.4269168">
<ele>251.98</ele>
<time>2015-05-01T12:28:15Z</time>
</trkpt>
<trkpt lat="34.9481707" lon="33.4269270">
<ele>253.26</ele>
<time>2015-05-01T12:28:17Z</time>
</trkpt>
<trkpt lat="34.9482252" lon="33.4269348">
<ele>253.83</ele>
<time>2015-05-01T12:28:19Z</time>
</trkpt>
<trkpt lat="34.9482785" lon="33.4269358">
<ele>255.22</ele>
<time>2015-05-01T12:28:21Z</time>
</trkpt>
<trkpt lat="34.9483286" lon="33.4269264">
<ele>255.92</ele>
<time>2015-05-01T12:28:24Z</time>
</trkpt>
<trkpt lat="34.9483775" lon="33.4269450">
<ele>256.89</ele>
<time>2015-05-01T12:28:29Z</time>
</trkpt>
<trkpt lat="34.9483794" lon="33.4270084">
<ele>257.45</ele>
<time>2015-05-01T12:28:33Z</time>
</trkpt>
<trkpt lat="34.9484191" lon="33.4270786">
<ele>257.86</ele>
<time>2015-05-01T12:28:37Z</time>
</trkpt>
<trkpt lat="34.9484527" lon="33.4271368">
<ele>257.98</ele>
<time>2015-05-01T12:28:39Z</time>
</trkpt>
<trkpt lat="34.9484711" lon="33.4272128">
<ele>258.01</ele>
<time>2015-05-01T12:28:41Z</time>
</trkpt>
<trkpt lat="34.9484760" lon="33.4272919">
<ele>258.01</ele>
<time>2015-05-01T12:28:43Z</time>
</trkpt>
<trkpt lat="34.9484861" lon="33.4273832">
<ele>257.27</ele>
<time>2015-05-01T12:28:45Z</time>
</trkpt>
<trkpt lat="34.9485009" lon="33.4274773">
<ele>257.08</ele>
<time>2015-05-01T12:28:47Z</time>
</trkpt>
<trkpt lat="34.9485162" lon="33.4275790">
<ele>257.78</ele>
<time>2015-05-01T12:28:49Z</time>
</trkpt>
<trkpt lat="34.9485345" lon="33.4276971">
<ele>257.96</ele>
<time>2015-05-01T12:28:51Z</time>
</trkpt>
<trkpt lat="34.9485576" lon="33.4278010">
<ele>258.00</ele>
<time>2015-05-01T12:28:53Z</time>
</trkpt>
<trkpt lat="34.9485957" lon="33.4278904">
<ele>258.01</ele>
<time>2015-05-01T12:28:55Z</time>
</trkpt>
<trkpt lat="34.9486218" lon="33.4279384">
<ele>258.01</ele>
<time>2015-05-01T12:28:56Z</time>
</trkpt>
<trkpt lat="34.9486770" lon="33.4280263">
<ele>258.02</ele>
<time>2015-05-01T12:28:58Z</time>
</trkpt>
<trkpt lat="34.9487481" lon="33.4280908">
<ele>257.27</ele>
<time>2015-05-01T12:29:00Z</time>
</trkpt>
<trkpt lat="34.9487907" lon="33.4281117">
<ele>257.14</ele>
<time>2015-05-01T12:29:01Z</time>
</trkpt>
<trkpt lat="34.9488736" lon="33.4281231">
<ele>257.05</ele>
<time>2015-05-01T12:29:03Z</time>
</trkpt>
<trkpt lat="34.9489510" lon="33.4281194">
<ele>257.02</ele>
<time>2015-05-01T12:29:05Z</time>
</trkpt>
<trkpt lat="34.9490104" lon="33.4281144">
<ele>257.02</ele>
<time>2015-05-01T12:29:07Z</time>
</trkpt>
<trkpt lat="34.9490564" lon="33.4281090">
<ele>257.52</ele>
<time>2015-05-01T12:29:09Z</time>
</trkpt>
<trkpt lat="34.9491134" lon="33.4281010">
<ele>257.83</ele>
<time>2015-05-01T12:29:12Z</time>
</trkpt>
<trkpt lat="34.9491591" lon="33.4280925">
<ele>257.99</ele>
<time>2015-05-01T12:29:15Z</time>
</trkpt>
<trkpt lat="34.9492046" lon="33.4281024">
<ele>256.77</ele>
<time>2015-05-01T12:29:37Z</time>
</trkpt>
<trkpt lat="34.9492711" lon="33.4280994">
<ele>256.23</ele>
<time>2015-05-01T12:29:40Z</time>
</trkpt>
<trkpt lat="34.9493251" lon="33.4281040">
<ele>255.07</ele>
<time>2015-05-01T12:29:42Z</time>
</trkpt>
<trkpt lat="34.9493862" lon="33.4281247">
<ele>255.03</ele>
<time>2015-05-01T12:29:44Z</time>
</trkpt>
<trkpt lat="34.9494496" lon="33.4281857">
<ele>253.77</ele>
<time>2015-05-01T12:29:46Z</time>
</trkpt>
<trkpt lat="34.9494894" lon="33.4282390">
<ele>253.70</ele>
<time>2015-05-01T12:29:48Z</time>
</trkpt>
<trkpt lat="34.9495159" lon="33.4282854">
<ele>253.85</ele>
<time>2015-05-01T12:29:51Z</time>
</trkpt>
<trkpt lat="34.9495481" lon="33.4283247">
<ele>253.25</ele>
<time>2015-05-01T12:29:54Z</time>
</trkpt>
<trkpt lat="34.9495902" lon="33.4283688">
<ele>252.17</ele>
<time>2015-05-01T12:29:57Z</time>
</trkpt>
<trkpt lat="34.9496347" lon="33.4283932">
<ele>253.30</ele>
<time>2015-05-01T12:29:59Z</time>
</trkpt>
<trkpt lat="34.9496802" lon="33.4284099">
<ele>253.84</ele>
<time>2015-05-01T12:30:01Z</time>
</trkpt>
<trkpt lat="34.9497446" lon="33.4284348">
<ele>254.87</ele>
<time>2015-05-01T12:30:04Z</time>
</trkpt>
<trkpt lat="34.9497909" lon="33.4284378">
<ele>254.98</ele>
<time>2015-05-01T12:30:06Z</time>
</trkpt>
<trkpt lat="34.9498371" lon="33.4284470">
<ele>256.26</ele>
<time>2015-05-01T12:30:08Z</time>
</trkpt>
<trkpt lat="34.9498801" lon="33.4284657">
<ele>256.83</ele>
<time>2015-05-01T12:30:10Z</time>
</trkpt>
<trkpt lat="34.9499352" lon="33.4284726">
<ele>257.87</ele>
<time>2015-05-01T12:30:13Z</time>
</trkpt>
<trkpt lat="34.9499718" lon="33.4284388">
<ele>257.75</ele>
<time>2015-05-01T12:30:16Z</time>
</trkpt>
<trkpt lat="34.9500255" lon="33.4284286">
<ele>255.60</ele>
<time>2015-05-01T12:30:21Z</time>
</trkpt>
<trkpt lat="34.9500644" lon="33.4284697">
<ele>255.46</ele>
<time>2015-05-01T12:30:24Z</time>
</trkpt>
<trkpt lat="34.9501122" lon="33.4284950">
<ele>255.82</ele>
<time>2015-05-01T12:30:27Z</time>
</trkpt>
<trkpt lat="34.9500442" lon="33.4284520">
<ele>255.95</ele>
<time>2015-05-01T12:30:32Z</time>
</trkpt>
<trkpt lat="34.9499843" lon="33.4283959">
<ele>254.50</ele>
<time>2015-05-01T12:30:34Z</time>
</trkpt>
<trkpt lat="34.9499664" lon="33.4283159">
<ele>252.89</ele>
<time>2015-05-01T12:30:36Z</time>
</trkpt>
<trkpt lat="34.9499847" lon="33.4282308">
<ele>252.23</ele>
<time>2015-05-01T12:30:38Z</time>
</trkpt>
<trkpt lat="34.9500166" lon="33.4281547">
<ele>253.57</ele>
<time>2015-05-01T12:30:40Z</time>
</trkpt>
<trkpt lat="34.9500563" lon="33.4281007">
<ele>253.90</ele>
<time>2015-05-01T12:30:42Z</time>
</trkpt>
<trkpt lat="34.9500249" lon="33.4281447">
<ele>258.83</ele>
<time>2015-05-01T12:31:07Z</time>
</trkpt>
<trkpt lat="34.9499989" lon="33.4280904">
<ele>260.93</ele>
<time>2015-05-01T12:31:16Z</time>
</trkpt>
<trkpt lat="34.9499782" lon="33.4280153">
<ele>261.01</ele>
<time>2015-05-01T12:31:19Z</time>
</trkpt>
<trkpt lat="34.9499514" lon="33.4279614">
<ele>260.76</ele>
<time>2015-05-01T12:31:21Z</time>
</trkpt>
<trkpt lat="34.9499173" lon="33.4279001">
<ele>260.45</ele>
<time>2015-05-01T12:31:23Z</time>
</trkpt>
<trkpt lat="34.9498792" lon="33.4278387">
<ele>260.13</ele>
<time>2015-05-01T12:31:25Z</time>
</trkpt>
<trkpt lat="34.9498412" lon="33.4277783">
<ele>261.54</ele>
<time>2015-05-01T12:31:27Z</time>
</trkpt>
<trkpt lat="34.9498090" lon="33.4277147">
<ele>261.90</ele>
<time>2015-05-01T12:31:29Z</time>
</trkpt>
<trkpt lat="34.9497820" lon="33.4276690">
<ele>261.74</ele>
<time>2015-05-01T12:31:31Z</time>
</trkpt>
<trkpt lat="34.9497349" lon="33.4276210">
<ele>261.61</ele>
<time>2015-05-01T12:31:34Z</time>
</trkpt>
<trkpt lat="34.9496988" lon="33.4275726">
<ele>261.71</ele>
<time>2015-05-01T12:31:37Z</time>
</trkpt>
<trkpt lat="34.9496985" lon="33.4275052">
<ele>262.98</ele>
<time>2015-05-01T12:31:40Z</time>
</trkpt>
<trkpt lat="34.9497125" lon="33.4274435">
<ele>261.39</ele>
<time>2015-05-01T12:31:43Z</time>
</trkpt>
<trkpt lat="34.9497436" lon="33.4273839">
<ele>260.31</ele>
<time>2015-05-01T12:31:46Z</time>
</trkpt>
<trkpt lat="34.9497844" lon="33.4273358">
<ele>257.80</ele>
<time>2015-05-01T12:31:49Z</time>
</trkpt>
<trkpt lat="34.9498256" lon="33.4272753">
<ele>257.86</ele>
<time>2015-05-01T12:31:52Z</time>
</trkpt>
<trkpt lat="34.9498583" lon="33.4272293">
<ele>258.48</ele>
<time>2015-05-01T12:31:54Z</time>
</trkpt>
<trkpt lat="34.9498920" lon="33.4271873">
<ele>259.88</ele>
<time>2015-05-01T12:31:56Z</time>
</trkpt>
<trkpt lat="34.9499249" lon="33.4271491">
<ele>261.48</ele>
<time>2015-05-01T12:31:58Z</time>
</trkpt>
<trkpt lat="34.9499657" lon="33.4270942">
<ele>262.70</ele>
<time>2015-05-01T12:32:01Z</time>
</trkpt>
<trkpt lat="34.9500047" lon="33.4270469">
<ele>264.35</ele>
<time>2015-05-01T12:32:04Z</time>
</trkpt>
<trkpt lat="34.9500255" lon="33.4269882">
<ele>264.22</ele>
<time>2015-05-01T12:32:08Z</time>
</trkpt>
<trkpt lat="34.9500095" lon="33.4269363">
<ele>267.04</ele>
<time>2015-05-01T12:32:11Z</time>
</trkpt>
<trkpt lat="34.9499641" lon="33.4268888">
<ele>267.14</ele>
<time>2015-05-01T12:32:14Z</time>
</trkpt>
<trkpt lat="34.9500084" lon="33.4269502">
<ele>266.39</ele>
<time>2015-05-01T12:32:25Z</time>
</trkpt>
<trkpt lat="34.9500351" lon="33.4270108">
<ele>266.11</ele>
<time>2015-05-01T12:32:27Z</time>
</trkpt>
<trkpt lat="34.9500810" lon="33.4271016">
<ele>265.79</ele>
<time>2015-05-01T12:32:29Z</time>
</trkpt>
<trkpt lat="34.9501385" lon="33.4271748">
<ele>263.71</ele>
<time>2015-05-01T12:32:31Z</time>
</trkpt>
<trkpt lat="34.9502148" lon="33.4272236">
<ele>261.94</ele>
<time>2015-05-01T12:32:33Z</time>
</trkpt>
<trkpt lat="34.9502932" lon="33.4272579">
<ele>262.00</ele>
<time>2015-05-01T12:32:35Z</time>
</trkpt>
<trkpt lat="34.9503692" lon="33.4272881">
<ele>261.51</ele>
<time>2015-05-01T12:32:37Z</time>
</trkpt>
<trkpt lat="34.9504241" lon="33.4272975">
<ele>260.89</ele>
<time>2015-05-01T12:32:39Z</time>
</trkpt>
<trkpt lat="34.9504779" lon="33.4272682">
<ele>259.75</ele>
<time>2015-05-01T12:32:42Z</time>
</trkpt>
<trkpt lat="34.9504923" lon="33.4272086">
<ele>258.70</ele>
<time>2015-05-01T12:32:44Z</time>
</trkpt>
<trkpt lat="34.9504980" lon="33.4271422">
<ele>258.19</ele>
<time>2015-05-01T12:32:46Z</time>
</trkpt>
<trkpt lat="34.9505041" lon="33.4270799">
<ele>258.06</ele>
<time>2015-05-01T12:32:48Z</time>
</trkpt>
<trkpt lat="34.9505131" lon="33.4270230">
<ele>257.53</ele>
<time>2015-05-01T12:32:50Z</time>
</trkpt>
<trkpt lat="34.9505208" lon="33.4269573">
<ele>257.89</ele>
<time>2015-05-01T12:32:52Z</time>
</trkpt>
<trkpt lat="34.9505385" lon="33.4268551">
<ele>257.49</ele>
<time>2015-05-01T12:32:54Z</time>
</trkpt>
<trkpt lat="34.9505593" lon="33.4267507">
<ele>257.13</ele>
<time>2015-05-01T12:32:56Z</time>
</trkpt>
<trkpt lat="34.9505825" lon="33.4266460">
<ele>257.55</ele>
<time>2015-05-01T12:32:58Z</time>
</trkpt>
<trkpt lat="34.9506117" lon="33.4265223">
<ele>257.15</ele>
<time>2015-05-01T12:33:00Z</time>
</trkpt>
<trkpt lat="34.9506410" lon="33.4264197">
<ele>257.05</ele>
<time>2015-05-01T12:33:02Z</time>
</trkpt>
<trkpt lat="34.9506543" lon="33.4263650">
<ele>257.03</ele>
<time>2015-05-01T12:33:03Z</time>
</trkpt>
<trkpt lat="34.9506692" lon="33.4263103">
<ele>257.02</ele>
<time>2015-05-01T12:33:04Z</time>
</trkpt>
<trkpt lat="34.9507033" lon="33.4262173">
<ele>257.77</ele>
<time>2015-05-01T12:33:06Z</time>
</trkpt>
<trkpt lat="34.9507360" lon="33.4261345">
<ele>257.95</ele>
<time>2015-05-01T12:33:08Z</time>
</trkpt>
<trkpt lat="34.9507587" lon="33.4260588">
<ele>258.00</ele>
<time>2015-05-01T12:33:10Z</time>
</trkpt>
<trkpt lat="34.9507841" lon="33.4259761">
<ele>258.51</ele>
<time>2015-05-01T12:33:12Z</time>
</trkpt>
<trkpt lat="34.9508137" lon="33.4258856">
<ele>258.89</ele>
<time>2015-05-01T12:33:14Z</time>
</trkpt>
<trkpt lat="34.9508431" lon="33.4257908">
<ele>258.98</ele>
<time>2015-05-01T12:33:16Z</time>
</trkpt>
<trkpt lat="34.9508731" lon="33.4256939">
<ele>259.01</ele>
<time>2015-05-01T12:33:18Z</time>
</trkpt>
<trkpt lat="34.9509033" lon="33.4256002">
<ele>259.76</ele>
<time>2015-05-01T12:33:20Z</time>
</trkpt>
<trkpt lat="34.9509319" lon="33.4255223">
<ele>259.95</ele>
<time>2015-05-01T12:33:22Z</time>
</trkpt>
<trkpt lat="34.9509613" lon="33.4254521">
<ele>260.00</ele>
<time>2015-05-01T12:33:24Z</time>
</trkpt>
<trkpt lat="34.9509873" lon="33.4253743">
<ele>260.76</ele>
<time>2015-05-01T12:33:26Z</time>
</trkpt>
<trkpt lat="34.9510143" lon="33.4252910">
<ele>261.45</ele>
<time>2015-05-01T12:33:28Z</time>
</trkpt>
<trkpt lat="34.9510477" lon="33.4252001">
<ele>261.38</ele>
<time>2015-05-01T12:33:30Z</time>
</trkpt>
<trkpt lat="34.9510825" lon="33.4251022">
<ele>261.86</ele>
<time>2015-05-01T12:33:32Z</time>
</trkpt>
<trkpt lat="34.9511196" lon="33.4250059">
<ele>261.98</ele>
<time>2015-05-01T12:33:34Z</time>
</trkpt>
<trkpt lat="34.9511579" lon="33.4249121">
<ele>262.01</ele>
<time>2015-05-01T12:33:36Z</time>
</trkpt>
<trkpt lat="34.9511957" lon="33.4248169">
<ele>262.01</ele>
<time>2015-05-01T12:33:38Z</time>
</trkpt>
<trkpt lat="34.9512296" lon="33.4247188">
<ele>262.02</ele>
<time>2015-05-01T12:33:40Z</time>
</trkpt>
<trkpt lat="34.9512627" lon="33.4246172">
<ele>262.02</ele>
<time>2015-05-01T12:33:42Z</time>
</trkpt>
<trkpt lat="34.9512868" lon="33.4245554">
<ele>262.52</ele>
<time>2015-05-01T12:33:43Z</time>
</trkpt>
<trkpt lat="34.9513054" lon="33.4245037">
<ele>262.77</ele>
<time>2015-05-01T12:33:44Z</time>
</trkpt>
<trkpt lat="34.9513198" lon="33.4244502">
<ele>262.89</ele>
<time>2015-05-01T12:33:45Z</time>
</trkpt>
<trkpt lat="34.9513365" lon="33.4243917">
<ele>262.95</ele>
<time>2015-05-01T12:33:46Z</time>
</trkpt>
<trkpt lat="34.9513546" lon="33.4243394">
<ele>263.48</ele>
<time>2015-05-01T12:33:47Z</time>
</trkpt>
<trkpt lat="34.9513698" lon="33.4242862">
<ele>263.75</ele>
<time>2015-05-01T12:33:48Z</time>
</trkpt>
<trkpt lat="34.9513979" lon="33.4241951">
<ele>263.95</ele>
<time>2015-05-01T12:33:50Z</time>
</trkpt>
<trkpt lat="34.9514184" lon="33.4241176">
<ele>264.00</ele>
<time>2015-05-01T12:33:52Z</time>
</trkpt>
<trkpt lat="34.9514404" lon="33.4240458">
<ele>264.51</ele>
<time>2015-05-01T12:33:54Z</time>
</trkpt>
<trkpt lat="34.9514584" lon="33.4239736">
<ele>264.64</ele>
<time>2015-05-01T12:33:56Z</time>
</trkpt>
<trkpt lat="34.9514834" lon="33.4238980">
<ele>264.92</ele>
<time>2015-05-01T12:33:58Z</time>
</trkpt>
<trkpt lat="34.9515040" lon="33.4238175">
<ele>264.99</ele>
<time>2015-05-01T12:34:00Z</time>
</trkpt>
<trkpt lat="34.9515275" lon="33.4237339">
<ele>265.76</ele>
<time>2015-05-01T12:34:02Z</time>
</trkpt>
<trkpt lat="34.9515486" lon="33.4236477">
<ele>265.95</ele>
<time>2015-05-01T12:34:04Z</time>
</trkpt>
<trkpt lat="34.9515714" lon="33.4235592">
<ele>265.50</ele>
<time>2015-05-01T12:34:06Z</time>
</trkpt>
<trkpt lat="34.9515906" lon="33.4234757">
<ele>265.89</ele>
<time>2015-05-01T12:34:08Z</time>
</trkpt>
<trkpt lat="34.9516051" lon="33.4234050">
<ele>266.23</ele>
<time>2015-05-01T12:34:10Z</time>
</trkpt>
<trkpt lat="34.9516135" lon="33.4233470">
<ele>266.57</ele>
<time>2015-05-01T12:34:12Z</time>
</trkpt>
<trkpt lat="34.9516273" lon="33.4232890">
<ele>266.65</ele>
<time>2015-05-01T12:34:14Z</time>
</trkpt>
<trkpt lat="34.9516462" lon="33.4232230">
<ele>266.68</ele>
<time>2015-05-01T12:34:16Z</time>
</trkpt>
<trkpt lat="34.9516668" lon="33.4231478">
<ele>265.68</ele>
<time>2015-05-01T12:34:18Z</time>
</trkpt>
<trkpt lat="34.9516898" lon="33.4230577">
<ele>265.43</ele>
<time>2015-05-01T12:34:20Z</time>
</trkpt>
<trkpt lat="34.9517111" lon="33.4229604">
<ele>264.87</ele>
<time>2015-05-01T12:34:22Z</time>
</trkpt>
<trkpt lat="34.9517293" lon="33.4228705">
<ele>264.98</ele>
<time>2015-05-01T12:34:24Z</time>
</trkpt>
<trkpt lat="34.9517426" lon="33.4227876">
<ele>265.76</ele>
<time>2015-05-01T12:34:26Z</time>
</trkpt>
<trkpt lat="34.9517553" lon="33.4227060">
<ele>265.20</ele>
<time>2015-05-01T12:34:28Z</time>
</trkpt>
<trkpt lat="34.9517671" lon="33.4226278">
<ele>265.81</ele>
<time>2015-05-01T12:34:30Z</time>
</trkpt>
<trkpt lat="34.9517768" lon="33.4225456">
<ele>265.22</ele>
<time>2015-05-01T12:34:32Z</time>
</trkpt>
<trkpt lat="34.9517817" lon="33.4224626">
<ele>265.57</ele>
<time>2015-05-01T12:34:34Z</time>
</trkpt>
<trkpt lat="34.9517808" lon="33.4223757">
<ele>264.65</ele>
<time>2015-05-01T12:34:36Z</time>
</trkpt>
<trkpt lat="34.9517798" lon="33.4222877">
<ele>264.93</ele>
<time>2015-05-01T12:34:38Z</time>
</trkpt>
<trkpt lat="34.9517748" lon="33.4221945">
<ele>265.49</ele>
<time>2015-05-01T12:34:40Z</time>
</trkpt>
<trkpt lat="34.9517662" lon="33.4221036">
<ele>266.14</ele>
<time>2015-05-01T12:34:42Z</time>
</trkpt>
<trkpt lat="34.9517593" lon="33.4220059">
<ele>266.30</ele>
<time>2015-05-01T12:34:44Z</time>
</trkpt>
<trkpt lat="34.9517554" lon="33.4219079">
<ele>266.84</ele>
<time>2015-05-01T12:34:46Z</time>
</trkpt>
<trkpt lat="34.9517493" lon="33.4218034">
<ele>266.97</ele>
<time>2015-05-01T12:34:48Z</time>
</trkpt>
<trkpt lat="34.9517426" lon="33.4217220">
<ele>266.99</ele>
<time>2015-05-01T12:34:49Z</time>
</trkpt>
<trkpt lat="34.9517401" lon="33.4216662">
<ele>267.50</ele>
<time>2015-05-01T12:34:50Z</time>
</trkpt>
<trkpt lat="34.9517390" lon="33.4216083">
<ele>267.76</ele>
<time>2015-05-01T12:34:51Z</time>
</trkpt>
<trkpt lat="34.9517322" lon="33.4215405">
<ele>267.39</ele>
<time>2015-05-01T12:34:52Z</time>
</trkpt>
<trkpt lat="34.9517337" lon="33.4214434">
<ele>268.36</ele>
<time>2015-05-01T12:34:54Z</time>
</trkpt>
<trkpt lat="34.9517276" lon="33.4213448">
<ele>268.85</ele>
<time>2015-05-01T12:34:56Z</time>
</trkpt>
<trkpt lat="34.9517159" lon="33.4212582">
<ele>267.97</ele>
<time>2015-05-01T12:34:58Z</time>
</trkpt>
<trkpt lat="34.9517161" lon="33.4211560">
<ele>268.51</ele>
<time>2015-05-01T12:35:00Z</time>
</trkpt>
<trkpt lat="34.9517038" lon="33.4210583">
<ele>268.89</ele>
<time>2015-05-01T12:35:02Z</time>
</trkpt>
<trkpt lat="34.9516963" lon="33.4209542">
<ele>268.23</ele>
<time>2015-05-01T12:35:04Z</time>
</trkpt>
<trkpt lat="34.9516897" lon="33.4208574">
<ele>268.07</ele>
<time>2015-05-01T12:35:06Z</time>
</trkpt>
<trkpt lat="34.9516839" lon="33.4207672">
<ele>268.03</ele>
<time>2015-05-01T12:35:08Z</time>
</trkpt>
<trkpt lat="34.9516760" lon="33.4206827">
<ele>268.02</ele>
<time>2015-05-01T12:35:10Z</time>
</trkpt>
<trkpt lat="34.9516685" lon="33.4205992">
<ele>268.02</ele>
<time>2015-05-01T12:35:12Z</time>
</trkpt>
<trkpt lat="34.9516615" lon="33.4205157">
<ele>268.02</ele>
<time>2015-05-01T12:35:14Z</time>
</trkpt>
<trkpt lat="34.9516537" lon="33.4204286">
<ele>269.02</ele>
<time>2015-05-01T12:35:16Z</time>
</trkpt>
<trkpt lat="34.9516449" lon="33.4203454">
<ele>269.27</ele>
<time>2015-05-01T12:35:18Z</time>
</trkpt>
<trkpt lat="34.9516351" lon="33.4202672">
<ele>269.83</ele>
<time>2015-05-01T12:35:20Z</time>
</trkpt>
<trkpt lat="34.9516260" lon="33.4201945">
<ele>269.22</ele>
<time>2015-05-01T12:35:22Z</time>
</trkpt>
<trkpt lat="34.9516183" lon="33.4201236">
<ele>269.07</ele>
<time>2015-05-01T12:35:24Z</time>
</trkpt>
<trkpt lat="34.9516140" lon="33.4200556">
<ele>269.78</ele>
<time>2015-05-01T12:35:26Z</time>
</trkpt>
<trkpt lat="34.9516124" lon="33.4199835">
<ele>270.46</ele>
<time>2015-05-01T12:35:28Z</time>
</trkpt>
<trkpt lat="34.9516076" lon="33.4199140">
<ele>270.38</ele>
<time>2015-05-01T12:35:30Z</time>
</trkpt>
<trkpt lat="34.9516004" lon="33.4198479">
<ele>270.36</ele>
<time>2015-05-01T12:35:32Z</time>
</trkpt>
<trkpt lat="34.9515927" lon="33.4197839">
<ele>270.10</ele>
<time>2015-05-01T12:35:34Z</time>
</trkpt>
<trkpt lat="34.9515853" lon="33.4197164">
<ele>269.54</ele>
<time>2015-05-01T12:35:36Z</time>
</trkpt>
<trkpt lat="34.9515820" lon="33.4196443">
<ele>269.15</ele>
<time>2015-05-01T12:35:38Z</time>
</trkpt>
<trkpt lat="34.9515747" lon="33.4195632">
<ele>269.05</ele>
<time>2015-05-01T12:35:40Z</time>
</trkpt>
<trkpt lat="34.9515638" lon="33.4194763">
<ele>269.52</ele>
<time>2015-05-01T12:35:42Z</time>
</trkpt>
<trkpt lat="34.9515580" lon="33.4193835">
<ele>269.89</ele>
<time>2015-05-01T12:35:44Z</time>
</trkpt>
<trkpt lat="34.9515520" lon="33.4192887">
<ele>270.24</ele>
<time>2015-05-01T12:35:46Z</time>
</trkpt>
<trkpt lat="34.9515436" lon="33.4191978">
<ele>270.82</ele>
<time>2015-05-01T12:35:48Z</time>
</trkpt>
<trkpt lat="34.9515310" lon="33.4191137">
<ele>271.47</ele>
<time>2015-05-01T12:35:50Z</time>
</trkpt>
<trkpt lat="34.9515045" lon="33.4190336">
<ele>271.88</ele>
<time>2015-05-01T12:35:52Z</time>
</trkpt>
<trkpt lat="34.9514640" lon="33.4189620">
<ele>271.98</ele>
<time>2015-05-01T12:35:54Z</time>
</trkpt>
<trkpt lat="34.9514282" lon="33.4188868">
<ele>272.26</ele>
<time>2015-05-01T12:35:56Z</time>
</trkpt>
<trkpt lat="34.9514053" lon="33.4188090">
<ele>272.83</ele>
<time>2015-05-01T12:35:58Z</time>
</trkpt>
<trkpt lat="34.9514177" lon="33.4187311">
<ele>273.72</ele>
<time>2015-05-01T12:36:00Z</time>
</trkpt>
<trkpt lat="34.9514644" lon="33.4186692">
<ele>273.94</ele>
<time>2015-05-01T12:36:02Z</time>
</trkpt>
<trkpt lat="34.9515281" lon="33.4186375">
<ele>273.25</ele>
<time>2015-05-01T12:36:04Z</time>
</trkpt>
<trkpt lat="34.9515979" lon="33.4186471">
<ele>272.32</ele>
<time>2015-05-01T12:36:06Z</time>
</trkpt>
<trkpt lat="34.9516591" lon="33.4186900">
<ele>272.09</ele>
<time>2015-05-01T12:36:08Z</time>
</trkpt>
<trkpt lat="34.9517121" lon="33.4187441">
<ele>270.79</ele>
<time>2015-05-01T12:36:10Z</time>
</trkpt>
<trkpt lat="34.9517636" lon="33.4187861">
<ele>270.96</ele>
<time>2015-05-01T12:36:12Z</time>
</trkpt>
<trkpt lat="34.9518154" lon="33.4188195">
<ele>271.75</ele>
<time>2015-05-01T12:36:14Z</time>
</trkpt>
<trkpt lat="34.9518628" lon="33.4188405">
<ele>272.45</ele>
<time>2015-05-01T12:36:16Z</time>
</trkpt>
<trkpt lat="34.9519101" lon="33.4188586">
<ele>272.95</ele>
<time>2015-05-01T12:36:19Z</time>
</trkpt>
<trkpt lat="34.9519612" lon="33.4188735">
<ele>273.95</ele>
<time>2015-05-01T12:36:23Z</time>
</trkpt>
<trkpt lat="34.9520070" lon="33.4188737">
<ele>273.13</ele>
<time>2015-05-01T12:36:26Z</time>
</trkpt>
<trkpt lat="34.9520672" lon="33.4188792">
<ele>270.90</ele>
<time>2015-05-01T12:36:30Z</time>
</trkpt>
<trkpt lat="34.9521168" lon="33.4188838">
<ele>269.75</ele>
<time>2015-05-01T12:36:33Z</time>
</trkpt>
<trkpt lat="34.9521695" lon="33.4188937">
<ele>269.61</ele>
<time>2015-05-01T12:36:36Z</time>
</trkpt>
<trkpt lat="34.9522208" lon="33.4189100">
<ele>269.96</ele>
<time>2015-05-01T12:36:39Z</time>
</trkpt>
<trkpt lat="34.9522762" lon="33.4189305">
<ele>270.01</ele>
<time>2015-05-01T12:36:42Z</time>
</trkpt>
<trkpt lat="34.9523220" lon="33.4189425">
<ele>270.26</ele>
<time>2015-05-01T12:36:44Z</time>
</trkpt>
<trkpt lat="34.9523760" lon="33.4189626">
<ele>272.08</ele>
<time>2015-05-01T12:36:46Z</time>
</trkpt>
<trkpt lat="34.9524399" lon="33.4189818">
<ele>273.28</ele>
<time>2015-05-01T12:36:48Z</time>
</trkpt>
<trkpt lat="34.9525051" lon="33.4189989">
<ele>274.58</ele>
<time>2015-05-01T12:36:50Z</time>
</trkpt>
<trkpt lat="34.9525680" lon="33.4190187">
<ele>275.66</ele>
<time>2015-05-01T12:36:52Z</time>
</trkpt>
<trkpt lat="34.9526334" lon="33.4190334">
<ele>276.43</ele>
<time>2015-05-01T12:36:54Z</time>
</trkpt>
<trkpt lat="34.9526982" lon="33.4190496">
<ele>277.62</ele>
<time>2015-05-01T12:36:56Z</time>
</trkpt>
<trkpt lat="34.9527596" lon="33.4190696">
<ele>278.67</ele>
<time>2015-05-01T12:36:58Z</time>
</trkpt>
<trkpt lat="34.9528199" lon="33.4190904">
<ele>278.43</ele>
<time>2015-05-01T12:37:00Z</time>
</trkpt>
<trkpt lat="34.9528814" lon="33.4191097">
<ele>278.12</ele>
<time>2015-05-01T12:37:02Z</time>
</trkpt>
<trkpt lat="34.9529450" lon="33.4191259">
<ele>277.54</ele>
<time>2015-05-01T12:37:04Z</time>
</trkpt>
<trkpt lat="34.9530088" lon="33.4191420">
<ele>277.90</ele>
<time>2015-05-01T12:37:06Z</time>
</trkpt>
<trkpt lat="34.9530749" lon="33.4191573">
<ele>277.99</ele>
<time>2015-05-01T12:37:08Z</time>
</trkpt>
<trkpt lat="34.9531429" lon="33.4191745">
<ele>278.01</ele>
<time>2015-05-01T12:37:10Z</time>
</trkpt>
<trkpt lat="34.9532120" lon="33.4191942">
<ele>277.26</ele>
<time>2015-05-01T12:37:12Z</time>
</trkpt>
<trkpt lat="34.9532834" lon="33.4192137">
<ele>276.33</ele>
<time>2015-05-01T12:37:14Z</time>
</trkpt>
<trkpt lat="34.9533517" lon="33.4192308">
<ele>276.84</ele>
<time>2015-05-01T12:37:16Z</time>
</trkpt>
<trkpt lat="34.9534136" lon="33.4192378">
<ele>276.22</ele>
<time>2015-05-01T12:37:18Z</time>
</trkpt>
<trkpt lat="34.9534671" lon="33.4192392">
<ele>276.57</ele>
<time>2015-05-01T12:37:20Z</time>
</trkpt>
<trkpt lat="34.9535337" lon="33.4192348">
<ele>276.96</ele>
<time>2015-05-01T12:37:23Z</time>
</trkpt>
<trkpt lat="34.9535843" lon="33.4192378">
<ele>276.50</ele>
<time>2015-05-01T12:37:25Z</time>
</trkpt>
<trkpt lat="34.9536302" lon="33.4192627">
<ele>275.64</ele>
<time>2015-05-01T12:37:27Z</time>
</trkpt>
<trkpt lat="34.9536732" lon="33.4192907">
<ele>275.92</ele>
<time>2015-05-01T12:37:29Z</time>
</trkpt>
<trkpt lat="34.9537218" lon="33.4193050">
<ele>275.99</ele>
<time>2015-05-01T12:37:31Z</time>
</trkpt>
<trkpt lat="34.9537737" lon="33.4193071">
<ele>276.01</ele>
<time>2015-05-01T12:37:33Z</time>
</trkpt>
<trkpt lat="34.9538228" lon="33.4193198">
<ele>276.51</ele>
<time>2015-05-01T12:37:35Z</time>
</trkpt>
<trkpt lat="34.9538726" lon="33.4193382">
<ele>276.89</ele>
<time>2015-05-01T12:37:37Z</time>
</trkpt>
<trkpt lat="34.9539267" lon="33.4193449">
<ele>277.23</ele>
<time>2015-05-01T12:37:39Z</time>
</trkpt>
<trkpt lat="34.9539829" lon="33.4193518">
<ele>277.07</ele>
<time>2015-05-01T12:37:41Z</time>
</trkpt>
<trkpt lat="34.9540435" lon="33.4193567">
<ele>276.28</ele>
<time>2015-05-01T12:37:43Z</time>
</trkpt>
<trkpt lat="34.9541248" lon="33.4193579">
<ele>276.08</ele>
<time>2015-05-01T12:37:45Z</time>
</trkpt>
<trkpt lat="34.9541712" lon="33.4193594">
<ele>276.55</ele>
<time>2015-05-01T12:37:46Z</time>
</trkpt>
<trkpt lat="34.9542168" lon="33.4193614">
<ele>276.78</ele>
<time>2015-05-01T12:37:47Z</time>
</trkpt>
<trkpt lat="34.9542648" lon="33.4193629">
<ele>276.90</ele>
<time>2015-05-01T12:37:48Z</time>
</trkpt>
<trkpt lat="34.9543119" lon="33.4193632">
<ele>276.96</ele>
<time>2015-05-01T12:37:49Z</time>
</trkpt>
<trkpt lat="34.9543602" lon="33.4193621">
<ele>276.99</ele>
<time>2015-05-01T12:37:50Z</time>
</trkpt>
<trkpt lat="34.9544056" lon="33.4193580">
<ele>276.50</ele>
<time>2015-05-01T12:37:51Z</time>
</trkpt>
<trkpt lat="34.9544537" lon="33.4193508">
<ele>276.26</ele>
<time>2015-05-01T12:37:52Z</time>
</trkpt>
<trkpt lat="34.9545183" lon="33.4193297">
<ele>276.14</ele>
<time>2015-05-01T12:37:53Z</time>
</trkpt>
<trkpt lat="34.9546046" lon="33.4193039">
<ele>275.55</ele>
<time>2015-05-01T12:37:55Z</time>
</trkpt>
<trkpt lat="34.9546901" lon="33.4192899">
<ele>275.15</ele>
<time>2015-05-01T12:37:57Z</time>
</trkpt>
<trkpt lat="34.9547714" lon="33.4192606">
<ele>275.05</ele>
<time>2015-05-01T12:37:59Z</time>
</trkpt>
<trkpt lat="34.9548175" lon="33.4192381">
<ele>275.03</ele>
<time>2015-05-01T12:38:00Z</time>
</trkpt>
<trkpt lat="34.9549016" lon="33.4192088">
<ele>275.02</ele>
<time>2015-05-01T12:38:02Z</time>
</trkpt>
<trkpt lat="34.9549835" lon="33.4191716">
<ele>275.02</ele>
<time>2015-05-01T12:38:04Z</time>
</trkpt>
<trkpt lat="34.9550714" lon="33.4191360">
<ele>273.77</ele>
<time>2015-05-01T12:38:06Z</time>
</trkpt>
<trkpt lat="34.9551530" lon="33.4190991">
<ele>273.70</ele>
<time>2015-05-01T12:38:08Z</time>
</trkpt>
<trkpt lat="34.9552260" lon="33.4190638">
<ele>273.94</ele>
<time>2015-05-01T12:38:10Z</time>
</trkpt>
<trkpt lat="34.9552967" lon="33.4190360">
<ele>274.00</ele>
<time>2015-05-01T12:38:12Z</time>
</trkpt>
<trkpt lat="34.9553515" lon="33.4189961">
<ele>274.01</ele>
<time>2015-05-01T12:38:14Z</time>
</trkpt>
<trkpt lat="34.9554189" lon="33.4189521">
<ele>273.51</ele>
<time>2015-05-01T12:38:16Z</time>
</trkpt>
<trkpt lat="34.9554748" lon="33.4189190">
<ele>273.14</ele>
<time>2015-05-01T12:38:18Z</time>
</trkpt>
<trkpt lat="34.9555201" lon="33.4188945">
<ele>273.05</ele>
<time>2015-05-01T12:38:20Z</time>
</trkpt>
<trkpt lat="34.9555782" lon="33.4188528">
<ele>271.77</ele>
<time>2015-05-01T12:38:23Z</time>
</trkpt>
<trkpt lat="34.9556234" lon="33.4188288">
<ele>271.70</ele>
<time>2015-05-01T12:38:25Z</time>
</trkpt>
<trkpt lat="34.9556673" lon="33.4188008">
<ele>272.69</ele>
<time>2015-05-01T12:38:27Z</time>
</trkpt>
<trkpt lat="34.9557151" lon="33.4187708">
<ele>273.43</ele>
<time>2015-05-01T12:38:29Z</time>
</trkpt>
<trkpt lat="34.9557628" lon="33.4187413">
<ele>273.87</ele>
<time>2015-05-01T12:38:31Z</time>
</trkpt>
<trkpt lat="34.9558070" lon="33.4187112">
<ele>273.23</ele>
<time>2015-05-01T12:38:33Z</time>
</trkpt>
<trkpt lat="34.9558462" lon="33.4186832">
<ele>273.07</ele>
<time>2015-05-01T12:38:35Z</time>
</trkpt>
<trkpt lat="34.9558865" lon="33.4186501">
<ele>274.28</ele>
<time>2015-05-01T12:38:37Z</time>
</trkpt>
<trkpt lat="34.9559353" lon="33.4186188">
<ele>274.83</ele>
<time>2015-05-01T12:38:39Z</time>
</trkpt>
<trkpt lat="34.9559896" lon="33.4185831">
<ele>274.97</ele>
<time>2015-05-01T12:38:41Z</time>
</trkpt>
<trkpt lat="34.9560461" lon="33.4185466">
<ele>275.00</ele>
<time>2015-05-01T12:38:43Z</time>
</trkpt>
<trkpt lat="34.9561073" lon="33.4185091">
<ele>275.01</ele>
<time>2015-05-01T12:38:45Z</time>
</trkpt>
<trkpt lat="34.9561732" lon="33.4184679">
<ele>274.77</ele>
<time>2015-05-01T12:38:47Z</time>
</trkpt>
<trkpt lat="34.9562492" lon="33.4184195">
<ele>274.20</ele>
<time>2015-05-01T12:38:49Z</time>
</trkpt>
<trkpt lat="34.9563211" lon="33.4183644">
<ele>274.06</ele>
<time>2015-05-01T12:38:51Z</time>
</trkpt>
<trkpt lat="34.9563614" lon="33.4183366">
<ele>273.54</ele>
<time>2015-05-01T12:38:52Z</time>
</trkpt>
<trkpt lat="34.9564248" lon="33.4183029">
<ele>272.78</ele>
<time>2015-05-01T12:38:53Z</time>
</trkpt>
<trkpt lat="34.9564660" lon="33.4182805">
<ele>272.40</ele>
<time>2015-05-01T12:38:54Z</time>
</trkpt>
<trkpt lat="34.9565428" lon="33.4182119">
<ele>271.61</ele>
<time>2015-05-01T12:38:56Z</time>
</trkpt>
<trkpt lat="34.9565880" lon="33.4181887">
<ele>270.81</ele>
<time>2015-05-01T12:38:57Z</time>
</trkpt>
<trkpt lat="34.9566317" lon="33.4181579">
<ele>270.41</ele>
<time>2015-05-01T12:38:58Z</time>
</trkpt>
<trkpt lat="34.9566768" lon="33.4181241">
<ele>269.72</ele>
<time>2015-05-01T12:38:59Z</time>
</trkpt>
<trkpt lat="34.9567212" lon="33.4180909">
<ele>269.87</ele>
<time>2015-05-01T12:39:00Z</time>
</trkpt>
<trkpt lat="34.9567685" lon="33.4180613">
<ele>269.94</ele>
<time>2015-05-01T12:39:01Z</time>
</trkpt>
<trkpt lat="34.9568171" lon="33.4180346">
<ele>269.48</ele>
<time>2015-05-01T12:39:02Z</time>
</trkpt>
<trkpt lat="34.9568640" lon="33.4179982">
<ele>269.25</ele>
<time>2015-05-01T12:39:03Z</time>
</trkpt>
<trkpt lat="34.9569209" lon="33.4179634">
<ele>269.63</ele>
<time>2015-05-01T12:39:04Z</time>
</trkpt>
<trkpt lat="34.9569752" lon="33.4179348">
<ele>269.32</ele>
<time>2015-05-01T12:39:05Z</time>
</trkpt>
<trkpt lat="34.9570345" lon="33.4178823">
<ele>270.17</ele>
<time>2015-05-01T12:39:06Z</time>
</trkpt>
<trkpt lat="34.9570870" lon="33.4178535">
<ele>270.59</ele>
<time>2015-05-01T12:39:07Z</time>
</trkpt>
<trkpt lat="34.9571450" lon="33.4178114">
<ele>270.80</ele>
<time>2015-05-01T12:39:08Z</time>
</trkpt>
<trkpt lat="34.9572049" lon="33.4177619">
<ele>270.91</ele>
<time>2015-05-01T12:39:09Z</time>
</trkpt>
<trkpt lat="34.9572620" lon="33.4177232">
<ele>271.46</ele>
<time>2015-05-01T12:39:10Z</time>
</trkpt>
<trkpt lat="34.9573129" lon="33.4176883">
<ele>270.74</ele>
<time>2015-05-01T12:39:11Z</time>
</trkpt>
<trkpt lat="34.9573762" lon="33.4176556">
<ele>269.88</ele>
<time>2015-05-01T12:39:12Z</time>
</trkpt>
<trkpt lat="34.9574322" lon="33.4176160">
<ele>269.45</ele>
<time>2015-05-01T12:39:13Z</time>
</trkpt>
<trkpt lat="34.9574904" lon="33.4175742">
<ele>269.73</ele>
<time>2015-05-01T12:39:14Z</time>
</trkpt>
<trkpt lat="34.9575563" lon="33.4175389">
<ele>269.37</ele>
<time>2015-05-01T12:39:15Z</time>
</trkpt>
<trkpt lat="34.9576191" lon="33.4174927">
<ele>268.19</ele>
<time>2015-05-01T12:39:16Z</time>
</trkpt>
<trkpt lat="34.9576756" lon="33.4174463">
<ele>267.61</ele>
<time>2015-05-01T12:39:17Z</time>
</trkpt>
<trkpt lat="34.9577468" lon="33.4174038">
<ele>267.31</ele>
<time>2015-05-01T12:39:18Z</time>
</trkpt>
<trkpt lat="34.9577981" lon="33.4173626">
<ele>266.66</ele>
<time>2015-05-01T12:39:19Z</time>
</trkpt>
<trkpt lat="34.9578655" lon="33.4173202">
<ele>265.84</ele>
<time>2015-05-01T12:39:20Z</time>
</trkpt>
<trkpt lat="34.9579298" lon="33.4172803">
<ele>265.43</ele>
<time>2015-05-01T12:39:21Z</time>
</trkpt>
<trkpt lat="34.9579902" lon="33.4172369">
<ele>265.72</ele>
<time>2015-05-01T12:39:22Z</time>
</trkpt>
<trkpt lat="34.9580436" lon="33.4171928">
<ele>265.37</ele>
<time>2015-05-01T12:39:23Z</time>
</trkpt>
<trkpt lat="34.9580997" lon="33.4171509">
<ele>265.19</ele>
<time>2015-05-01T12:39:24Z</time>
</trkpt>
<trkpt lat="34.9581518" lon="33.4171089">
<ele>264.60</ele>
<time>2015-05-01T12:39:25Z</time>
</trkpt>
<trkpt lat="34.9582101" lon="33.4170768">
<ele>263.31</ele>
<time>2015-05-01T12:39:26Z</time>
</trkpt>
<trkpt lat="34.9582644" lon="33.4170274">
<ele>262.66</ele>
<time>2015-05-01T12:39:27Z</time>
</trkpt>
<trkpt lat="34.9583138" lon="33.4169910">
<ele>262.34</ele>
<time>2015-05-01T12:39:28Z</time>
</trkpt>
<trkpt lat="34.9583760" lon="33.4169490">
<ele>262.68</ele>
<time>2015-05-01T12:39:29Z</time>
</trkpt>
<trkpt lat="34.9584270" lon="33.4169104">
<ele>261.85</ele>
<time>2015-05-01T12:39:30Z</time>
</trkpt>
<trkpt lat="34.9584707" lon="33.4168762">
<ele>261.93</ele>
<time>2015-05-01T12:39:31Z</time>
</trkpt>
<trkpt lat="34.9585251" lon="33.4168343">
<ele>261.97</ele>
<time>2015-05-01T12:39:32Z</time>
</trkpt>
<trkpt lat="34.9585703" lon="33.4168055">
<ele>261.49</ele>
<time>2015-05-01T12:39:33Z</time>
</trkpt>
<trkpt lat="34.9586263" lon="33.4167706">
<ele>260.76</ele>
<time>2015-05-01T12:39:34Z</time>
</trkpt>
<trkpt lat="34.9586739" lon="33.4167448">
<ele>259.89</ele>
<time>2015-05-01T12:39:35Z</time>
</trkpt>
<trkpt lat="34.9587180" lon="33.4167094">
<ele>259.45</ele>
<time>2015-05-01T12:39:36Z</time>
</trkpt>
<trkpt lat="34.9587584" lon="33.4166833">
<ele>258.73</ele>
<time>2015-05-01T12:39:37Z</time>
</trkpt>
<trkpt lat="34.9587995" lon="33.4166572">
<ele>258.87</ele>
<time>2015-05-01T12:39:38Z</time>
</trkpt>
<trkpt lat="34.9588438" lon="33.4166264">
<ele>258.95</ele>
<time>2015-05-01T12:39:39Z</time>
</trkpt>
<trkpt lat="34.9588846" lon="33.4165925">
<ele>258.98</ele>
<time>2015-05-01T12:39:40Z</time>
</trkpt>
<trkpt lat="34.9589306" lon="33.4165607">
<ele>258.00</ele>
<time>2015-05-01T12:39:41Z</time>
</trkpt>
<trkpt lat="34.9589781" lon="33.4165352">
<ele>257.51</ele>
<time>2015-05-01T12:39:42Z</time>
</trkpt>
<trkpt lat="34.9590556" lon="33.4164803">
<ele>257.14</ele>
<time>2015-05-01T12:39:44Z</time>
</trkpt>
<trkpt lat="34.9590926" lon="33.4164473">
<ele>257.08</ele>
<time>2015-05-01T12:39:45Z</time>
</trkpt>
<trkpt lat="34.9591410" lon="33.4164190">
<ele>257.05</ele>
<time>2015-05-01T12:39:46Z</time>
</trkpt>
<trkpt lat="34.9591875" lon="33.4163989">
<ele>256.53</ele>
<time>2015-05-01T12:39:47Z</time>
</trkpt>
<trkpt lat="34.9592350" lon="33.4163746">
<ele>256.77</ele>
<time>2015-05-01T12:39:48Z</time>
</trkpt>
<trkpt lat="34.9592879" lon="33.4163457">
<ele>257.39</ele>
<time>2015-05-01T12:39:49Z</time>
</trkpt>
<trkpt lat="34.9593339" lon="33.4163140">
<ele>257.71</ele>
<time>2015-05-01T12:39:50Z</time>
</trkpt>
<trkpt lat="34.9594098" lon="33.4162603">
<ele>258.19</ele>
<time>2015-05-01T12:39:52Z</time>
</trkpt>
<trkpt lat="34.9594817" lon="33.4162264">
<ele>258.06</ele>
<time>2015-05-01T12:39:54Z</time>
</trkpt>
<trkpt lat="34.9595608" lon="33.4161830">
<ele>258.53</ele>
<time>2015-05-01T12:39:56Z</time>
</trkpt>
<trkpt lat="34.9596315" lon="33.4161450">
<ele>258.39</ele>
<time>2015-05-01T12:39:58Z</time>
</trkpt>
<trkpt lat="34.9597077" lon="33.4161153">
<ele>257.61</ele>
<time>2015-05-01T12:40:00Z</time>
</trkpt>
<trkpt lat="34.9597880" lon="33.4160872">
<ele>257.16</ele>
<time>2015-05-01T12:40:02Z</time>
</trkpt>
<trkpt lat="34.9598683" lon="33.4160551">
<ele>258.05</ele>
<time>2015-05-01T12:40:04Z</time>
</trkpt>
<trkpt lat="34.9599138" lon="33.4160482">
<ele>257.53</ele>
<time>2015-05-01T12:40:05Z</time>
</trkpt>
<trkpt lat="34.9599616" lon="33.4160314">
<ele>256.78</ele>
<time>2015-05-01T12:40:06Z</time>
</trkpt>
<trkpt lat="34.9600103" lon="33.4160164">
<ele>256.90</ele>
<time>2015-05-01T12:40:07Z</time>
</trkpt>
<trkpt lat="34.9600639" lon="33.4160131">
<ele>257.46</ele>
<time>2015-05-01T12:40:08Z</time>
</trkpt>
<trkpt lat="34.9601232" lon="33.4160177">
<ele>257.24</ele>
<time>2015-05-01T12:40:09Z</time>
</trkpt>
<trkpt lat="34.9601684" lon="33.4160065">
<ele>257.13</ele>
<time>2015-05-01T12:40:10Z</time>
</trkpt>
<trkpt lat="34.9602195" lon="33.4159887">
<ele>256.57</ele>
<time>2015-05-01T12:40:11Z</time>
</trkpt>
<trkpt lat="34.9602707" lon="33.4159843">
<ele>256.29</ele>
<time>2015-05-01T12:40:12Z</time>
</trkpt>
<trkpt lat="34.9603292" lon="33.4159711">
<ele>256.15</ele>
<time>2015-05-01T12:40:13Z</time>
</trkpt>
<trkpt lat="34.9603784" lon="33.4159520">
<ele>256.09</ele>
<time>2015-05-01T12:40:14Z</time>
</trkpt>
<trkpt lat="34.9604335" lon="33.4159358">
<ele>256.05</ele>
<time>2015-05-01T12:40:15Z</time>
</trkpt>
<trkpt lat="34.9604899" lon="33.4159240">
<ele>256.03</ele>
<time>2015-05-01T12:40:16Z</time>
</trkpt>
<trkpt lat="34.9605429" lon="33.4159123">
<ele>256.02</ele>
<time>2015-05-01T12:40:17Z</time>
</trkpt>
<trkpt lat="34.9605956" lon="33.4159010">
<ele>256.52</ele>
<time>2015-05-01T12:40:18Z</time>
</trkpt>
<trkpt lat="34.9606509" lon="33.4158860">
<ele>256.27</ele>
<time>2015-05-01T12:40:19Z</time>
</trkpt>
<trkpt lat="34.9607134" lon="33.4158754">
<ele>255.64</ele>
<time>2015-05-01T12:40:20Z</time>
</trkpt>
<trkpt lat="34.9607637" lon="33.4158621">
<ele>255.33</ele>
<time>2015-05-01T12:40:21Z</time>
</trkpt>
<trkpt lat="34.9608233" lon="33.4158572">
<ele>255.17</ele>
<time>2015-05-01T12:40:22Z</time>
</trkpt>
<trkpt lat="34.9608718" lon="33.4158492">
<ele>255.59</ele>
<time>2015-05-01T12:40:23Z</time>
</trkpt>
<trkpt lat="34.9609196" lon="33.4158375">
<ele>255.81</ele>
<time>2015-05-01T12:40:24Z</time>
</trkpt>
<trkpt lat="34.9610064" lon="33.4158210">
<ele>255.46</ele>
<time>2015-05-01T12:40:26Z</time>
</trkpt>
<trkpt lat="34.9610538" lon="33.4158095">
<ele>255.24</ele>
<time>2015-05-01T12:40:27Z</time>
</trkpt>
<trkpt lat="34.9611438" lon="33.4157678">
<ele>254.07</ele>
<time>2015-05-01T12:40:29Z</time>
</trkpt>
<trkpt lat="34.9612233" lon="33.4157450">
<ele>253.78</ele>
<time>2015-05-01T12:40:31Z</time>
</trkpt>
<trkpt lat="34.9613017" lon="33.4157237">
<ele>253.21</ele>
<time>2015-05-01T12:40:33Z</time>
</trkpt>
<trkpt lat="34.9613489" lon="33.4157098">
<ele>253.61</ele>
<time>2015-05-01T12:40:34Z</time>
</trkpt>
<trkpt lat="34.9614309" lon="33.4156827">
<ele>253.66</ele>
<time>2015-05-01T12:40:36Z</time>
</trkpt>
<trkpt lat="34.9615084" lon="33.4156532">
<ele>253.43</ele>
<time>2015-05-01T12:40:38Z</time>
</trkpt>
<trkpt lat="34.9615879" lon="33.4156085">
<ele>253.12</ele>
<time>2015-05-01T12:40:40Z</time>
</trkpt>
<trkpt lat="34.9616778" lon="33.4155642">
<ele>254.54</ele>
<time>2015-05-01T12:40:42Z</time>
</trkpt>
<trkpt lat="34.9617252" lon="33.4155445">
<ele>254.78</ele>
<time>2015-05-01T12:40:43Z</time>
</trkpt>
<trkpt lat="34.9617706" lon="33.4155026">
<ele>254.90</ele>
<time>2015-05-01T12:40:44Z</time>
</trkpt>
<trkpt lat="34.9618203" lon="33.4154687">
<ele>254.96</ele>
<time>2015-05-01T12:40:45Z</time>
</trkpt>
<trkpt lat="34.9618600" lon="33.4154407">
<ele>254.99</ele>
<time>2015-05-01T12:40:46Z</time>
</trkpt>
<trkpt lat="34.9619428" lon="33.4153967">
<ele>254.26</ele>
<time>2015-05-01T12:40:48Z</time>
</trkpt>
<trkpt lat="34.9620194" lon="33.4153469">
<ele>253.58</ele>
<time>2015-05-01T12:40:50Z</time>
</trkpt>
<trkpt lat="34.9620950" lon="33.4152999">
<ele>253.41</ele>
<time>2015-05-01T12:40:52Z</time>
</trkpt>
<trkpt lat="34.9621694" lon="33.4152507">
<ele>252.61</ele>
<time>2015-05-01T12:40:54Z</time>
</trkpt>
<trkpt lat="34.9622483" lon="33.4152000">
<ele>252.17</ele>
<time>2015-05-01T12:40:56Z</time>
</trkpt>
<trkpt lat="34.9623242" lon="33.4151544">
<ele>252.05</ele>
<time>2015-05-01T12:40:58Z</time>
</trkpt>
<trkpt lat="34.9623928" lon="33.4151097">
<ele>252.03</ele>
<time>2015-05-01T12:41:00Z</time>
</trkpt>
<trkpt lat="34.9624340" lon="33.4150799">
<ele>252.02</ele>
<time>2015-05-01T12:41:01Z</time>
</trkpt>
<trkpt lat="34.9624723" lon="33.4150487">
<ele>252.02</ele>
<time>2015-05-01T12:41:02Z</time>
</trkpt>
<trkpt lat="34.9625504" lon="33.4149886">
<ele>252.02</ele>
<time>2015-05-01T12:41:04Z</time>
</trkpt>
<trkpt lat="34.9625994" lon="33.4149603">
<ele>252.02</ele>
<time>2015-05-01T12:41:05Z</time>
</trkpt>
<trkpt lat="34.9626820" lon="33.4149036">
<ele>253.27</ele>
<time>2015-05-01T12:41:07Z</time>
</trkpt>
<trkpt lat="34.9627237" lon="33.4148755">
<ele>253.64</ele>
<time>2015-05-01T12:41:08Z</time>
</trkpt>
<trkpt lat="34.9628074" lon="33.4148282">
<ele>254.17</ele>
<time>2015-05-01T12:41:10Z</time>
</trkpt>
<trkpt lat="34.9628474" lon="33.4147990">
<ele>254.09</ele>
<time>2015-05-01T12:41:11Z</time>
</trkpt>
<trkpt lat="34.9629168" lon="33.4147355">
<ele>254.04</ele>
<time>2015-05-01T12:41:13Z</time>
</trkpt>
<trkpt lat="34.9629371" lon="33.4146611">
<ele>253.27</ele>
<time>2015-05-01T12:41:15Z</time>
</trkpt>
<trkpt lat="34.9629574" lon="33.4145961">
<ele>253.83</ele>
<time>2015-05-01T12:41:17Z</time>
</trkpt>
<trkpt lat="34.9629654" lon="33.4145418">
<ele>253.22</ele>
<time>2015-05-01T12:41:19Z</time>
</trkpt>
<trkpt lat="34.9629723" lon="33.4144845">
<ele>253.07</ele>
<time>2015-05-01T12:41:21Z</time>
</trkpt>
<trkpt lat="34.9629915" lon="33.4144268">
<ele>253.28</ele>
<time>2015-05-01T12:41:23Z</time>
</trkpt>
<trkpt lat="34.9630200" lon="33.4143719">
<ele>253.58</ele>
<time>2015-05-01T12:41:25Z</time>
</trkpt>
<trkpt lat="34.9630489" lon="33.4143217">
<ele>253.16</ele>
<time>2015-05-01T12:41:27Z</time>
</trkpt>
<trkpt lat="34.9630716" lon="33.4142665">
<ele>252.30</ele>
<time>2015-05-01T12:41:29Z</time>
</trkpt>
<trkpt lat="34.9630942" lon="33.4142128">
<ele>251.09</ele>
<time>2015-05-01T12:41:31Z</time>
</trkpt>
<trkpt lat="34.9631199" lon="33.4141590">
<ele>251.53</ele>
<time>2015-05-01T12:41:33Z</time>
</trkpt>
<trkpt lat="34.9631429" lon="33.4141096">
<ele>252.40</ele>
<time>2015-05-01T12:41:35Z</time>
</trkpt>
<trkpt lat="34.9631678" lon="33.4140637">
<ele>252.86</ele>
<time>2015-05-01T12:41:37Z</time>
</trkpt>
<trkpt lat="34.9631950" lon="33.4140192">
<ele>253.23</ele>
<time>2015-05-01T12:41:39Z</time>
</trkpt>
<trkpt lat="34.9632228" lon="33.4139697">
<ele>253.07</ele>
<time>2015-05-01T12:41:41Z</time>
</trkpt>
<trkpt lat="34.9632467" lon="33.4139194">
<ele>253.03</ele>
<time>2015-05-01T12:41:43Z</time>
</trkpt>
<trkpt lat="34.9632761" lon="33.4138705">
<ele>254.27</ele>
<time>2015-05-01T12:41:45Z</time>
</trkpt>
<trkpt lat="34.9633040" lon="33.4138239">
<ele>256.08</ele>
<time>2015-05-01T12:41:47Z</time>
</trkpt>
<trkpt lat="34.9633342" lon="33.4137742">
<ele>256.78</ele>
<time>2015-05-01T12:41:49Z</time>
</trkpt>
<trkpt lat="34.9633633" lon="33.4137238">
<ele>256.96</ele>
<time>2015-05-01T12:41:51Z</time>
</trkpt>
<trkpt lat="34.9633895" lon="33.4136719">
<ele>257.00</ele>
<time>2015-05-01T12:41:53Z</time>
</trkpt>
<trkpt lat="34.9633993" lon="33.4136166">
<ele>255.26</ele>
<time>2015-05-01T12:41:55Z</time>
</trkpt>
<trkpt lat="34.9633812" lon="33.4135630">
<ele>254.33</ele>
<time>2015-05-01T12:41:57Z</time>
</trkpt>
<trkpt lat="34.9633485" lon="33.4135150">
<ele>253.84</ele>
<time>2015-05-01T12:41:59Z</time>
</trkpt>
<trkpt lat="34.9633137" lon="33.4134651">
<ele>254.72</ele>
<time>2015-05-01T12:42:01Z</time>
</trkpt>
<trkpt lat="34.9632509" lon="33.4134195">
<ele>255.44</ele>
<time>2015-05-01T12:42:03Z</time>
</trkpt>
<trkpt lat="34.9631896" lon="33.4134138">
<ele>256.37</ele>
<time>2015-05-01T12:42:05Z</time>
</trkpt>
<trkpt lat="34.9631399" lon="33.4134310">
<ele>256.61</ele>
<time>2015-05-01T12:42:07Z</time>
</trkpt>
<trkpt lat="34.9630987" lon="33.4134587">
<ele>257.91</ele>
<time>2015-05-01T12:42:09Z</time>
</trkpt>
<trkpt lat="34.9630478" lon="33.4134804">
<ele>258.88</ele>
<time>2015-05-01T12:42:12Z</time>
</trkpt>
<trkpt lat="34.9629897" lon="33.4134912">
<ele>258.50</ele>
<time>2015-05-01T12:42:22Z</time>
</trkpt>
<trkpt lat="34.9629430" lon="33.4135052">
<ele>258.89</ele>
<time>2015-05-01T12:42:24Z</time>
</trkpt>
<trkpt lat="34.9628698" lon="33.4135353">
<ele>258.73</ele>
<time>2015-05-01T12:42:26Z</time>
</trkpt>
<trkpt lat="34.9628004" lon="33.4135566">
<ele>259.70</ele>
<time>2015-05-01T12:42:28Z</time>
</trkpt>
<trkpt lat="34.9627519" lon="33.4135669">
<ele>260.69</ele>
<time>2015-05-01T12:42:30Z</time>
</trkpt>
<trkpt lat="34.9627065" lon="33.4135749">
<ele>261.00</ele>
<time>2015-05-01T12:42:34Z</time>
</trkpt>
<trkpt lat="34.9627498" lon="33.4135501">
<ele>260.78</ele>
<time>2015-05-01T12:43:43Z</time>
</trkpt>
<trkpt lat="34.9628102" lon="33.4135344">
<ele>258.64</ele>
<time>2015-05-01T12:43:52Z</time>
</trkpt>
<trkpt lat="34.9628702" lon="33.4135175">
<ele>257.42</ele>
<time>2015-05-01T12:43:54Z</time>
</trkpt>
<trkpt lat="34.9629351" lon="33.4134968">
<ele>257.12</ele>
<time>2015-05-01T12:43:56Z</time>
</trkpt>
<trkpt lat="34.9629984" lon="33.4134770">
<ele>257.54</ele>
<time>2015-05-01T12:43:58Z</time>
</trkpt>
<trkpt lat="34.9630590" lon="33.4134629">
<ele>257.90</ele>
<time>2015-05-01T12:44:00Z</time>
</trkpt>
<trkpt lat="34.9631186" lon="33.4134431">
<ele>258.74</ele>
<time>2015-05-01T12:44:02Z</time>
</trkpt>
<trkpt lat="34.9631825" lon="33.4134193">
<ele>258.20</ele>
<time>2015-05-01T12:44:04Z</time>
</trkpt>
<trkpt lat="34.9632487" lon="33.4134138">
<ele>258.06</ele>
<time>2015-05-01T12:44:06Z</time>
</trkpt>
<trkpt lat="34.9633154" lon="33.4134561">
<ele>258.03</ele>
<time>2015-05-01T12:44:08Z</time>
</trkpt>
<trkpt lat="34.9633700" lon="33.4135305">
<ele>258.02</ele>
<time>2015-05-01T12:44:10Z</time>
</trkpt>
<trkpt lat="34.9634099" lon="33.4136077">
<ele>258.77</ele>
<time>2015-05-01T12:44:12Z</time>
</trkpt>
<trkpt lat="34.9634335" lon="33.4136772">
<ele>258.95</ele>
<time>2015-05-01T12:44:14Z</time>
</trkpt>
<trkpt lat="34.9634294" lon="33.4137470">
<ele>258.50</ele>
<time>2015-05-01T12:44:16Z</time>
</trkpt>
<trkpt lat="34.9633883" lon="33.4137961">
<ele>258.64</ele>
<time>2015-05-01T12:44:18Z</time>
</trkpt>
<trkpt lat="34.9633402" lon="33.4138363">
<ele>258.17</ele>
<time>2015-05-01T12:44:20Z</time>
</trkpt>
<trkpt lat="34.9632985" lon="33.4138832">
<ele>258.05</ele>
<time>2015-05-01T12:44:22Z</time>
</trkpt>
<trkpt lat="34.9632566" lon="33.4139381">
<ele>258.03</ele>
<time>2015-05-01T12:44:24Z</time>
</trkpt>
<trkpt lat="34.9632065" lon="33.4140092">
<ele>258.02</ele>
<time>2015-05-01T12:44:26Z</time>
</trkpt>
<trkpt lat="34.9631556" lon="33.4140776">
<ele>258.02</ele>
<time>2015-05-01T12:44:27Z</time>
</trkpt>
<trkpt lat="34.9631257" lon="33.4141432">
<ele>258.02</ele>
<time>2015-05-01T12:44:28Z</time>
</trkpt>
<trkpt lat="34.9630963" lon="33.4141979">
<ele>257.52</ele>
<time>2015-05-01T12:44:29Z</time>
</trkpt>
<trkpt lat="34.9630562" lon="33.4142589">
<ele>257.77</ele>
<time>2015-05-01T12:44:30Z</time>
</trkpt>
<trkpt lat="34.9630279" lon="33.4143173">
<ele>257.39</ele>
<time>2015-05-01T12:44:31Z</time>
</trkpt>
<trkpt lat="34.9630014" lon="33.4143894">
<ele>257.70</ele>
<time>2015-05-01T12:44:32Z</time>
</trkpt>
<trkpt lat="34.9629762" lon="33.4144597">
<ele>257.86</ele>
<time>2015-05-01T12:44:33Z</time>
</trkpt>
<trkpt lat="34.9629584" lon="33.4145199">
<ele>257.94</ele>
<time>2015-05-01T12:44:34Z</time>
</trkpt>
<trkpt lat="34.9629512" lon="33.4145949">
<ele>258.25</ele>
<time>2015-05-01T12:44:36Z</time>
</trkpt>
<trkpt lat="34.9629751" lon="33.4146572">
<ele>258.07</ele>
<time>2015-05-01T12:44:38Z</time>
</trkpt>
<trkpt lat="34.9630271" lon="33.4146746">
<ele>256.84</ele>
<time>2015-05-01T12:44:45Z</time>
</trkpt>
<trkpt lat="34.9630780" lon="33.4146380">
<ele>256.47</ele>
<time>2015-05-01T12:44:47Z</time>
</trkpt>
<trkpt lat="34.9631323" lon="33.4145904">
<ele>255.38</ele>
<time>2015-05-01T12:44:49Z</time>
</trkpt>
<trkpt lat="34.9631908" lon="33.4145442">
<ele>255.11</ele>
<time>2015-05-01T12:44:51Z</time>
</trkpt>
<trkpt lat="34.9632642" lon="33.4144980">
<ele>255.79</ele>
<time>2015-05-01T12:44:53Z</time>
</trkpt>
<trkpt lat="34.9633231" lon="33.4144514">
<ele>255.40</ele>
<time>2015-05-01T12:44:54Z</time>
</trkpt>
<trkpt lat="34.9633676" lon="33.4144149">
<ele>255.71</ele>
<time>2015-05-01T12:44:55Z</time>
</trkpt>
<trkpt lat="34.9634183" lon="33.4143800">
<ele>255.36</ele>
<time>2015-05-01T12:44:56Z</time>
</trkpt>
<trkpt lat="34.9634610" lon="33.4143426">
<ele>255.19</ele>
<time>2015-05-01T12:44:57Z</time>
</trkpt>
<trkpt lat="34.9635067" lon="33.4143103">
<ele>254.60</ele>
<time>2015-05-01T12:44:58Z</time>
</trkpt>
<trkpt lat="34.9635518" lon="33.4142723">
<ele>254.31</ele>
<time>2015-05-01T12:44:59Z</time>
</trkpt>
<trkpt lat="34.9636008" lon="33.4142239">
<ele>254.16</ele>
<time>2015-05-01T12:45:00Z</time>
</trkpt>
<trkpt lat="34.9636452" lon="33.4141837">
<ele>254.09</ele>
<time>2015-05-01T12:45:01Z</time>
</trkpt>
<trkpt lat="34.9636911" lon="33.4141494">
<ele>253.55</ele>
<time>2015-05-01T12:45:02Z</time>
</trkpt>
<trkpt lat="34.9637358" lon="33.4141163">
<ele>253.28</ele>
<time>2015-05-01T12:45:03Z</time>
</trkpt>
<trkpt lat="34.9637893" lon="33.4140743">
<ele>252.65</ele>
<time>2015-05-01T12:45:04Z</time>
</trkpt>
<trkpt lat="34.9638402" lon="33.4140377">
<ele>251.83</ele>
<time>2015-05-01T12:45:05Z</time>
</trkpt>
<trkpt lat="34.9638861" lon="33.4140071">
<ele>251.42</ele>
<time>2015-05-01T12:45:06Z</time>
</trkpt>
<trkpt lat="34.9639336" lon="33.4139690">
<ele>251.72</ele>
<time>2015-05-01T12:45:07Z</time>
</trkpt>
<trkpt lat="34.9639815" lon="33.4139287">
<ele>251.87</ele>
<time>2015-05-01T12:45:08Z</time>
</trkpt>
<trkpt lat="34.9640360" lon="33.4138878">
<ele>251.94</ele>
<time>2015-05-01T12:45:09Z</time>
</trkpt>
<trkpt lat="34.9640872" lon="33.4138529">
<ele>251.98</ele>
<time>2015-05-01T12:45:10Z</time>
</trkpt>
<trkpt lat="34.9641363" lon="33.4138241">
<ele>252.00</ele>
<time>2015-05-01T12:45:11Z</time>
</trkpt>
<trkpt lat="34.9641910" lon="33.4137897">
<ele>251.51</ele>
<time>2015-05-01T12:45:12Z</time>
</trkpt>
<trkpt lat="34.9642451" lon="33.4137515">
<ele>251.26</ele>
<time>2015-05-01T12:45:13Z</time>
</trkpt>
<trkpt lat="34.9642934" lon="33.4137185">
<ele>250.64</ele>
<time>2015-05-01T12:45:14Z</time>
</trkpt>
<trkpt lat="34.9643437" lon="33.4136804">
<ele>251.33</ele>
<time>2015-05-01T12:45:15Z</time>
</trkpt>
<trkpt lat="34.9644004" lon="33.4136524">
<ele>251.67</ele>
<time>2015-05-01T12:45:16Z</time>
</trkpt>
<trkpt lat="34.9644533" lon="33.4136080">
<ele>251.34</ele>
<time>2015-05-01T12:45:17Z</time>
</trkpt>
<trkpt lat="34.9645012" lon="33.4135737">
<ele>251.18</ele>
<time>2015-05-01T12:45:18Z</time>
</trkpt>
<trkpt lat="34.9645576" lon="33.4135300">
<ele>251.10</ele>
<time>2015-05-01T12:45:19Z</time>
</trkpt>
<trkpt lat="34.9646162" lon="33.4134863">
<ele>251.56</ele>
<time>2015-05-01T12:45:20Z</time>
</trkpt>
<trkpt lat="34.9646784" lon="33.4134423">
<ele>251.29</ele>
<time>2015-05-01T12:45:21Z</time>
</trkpt>
<trkpt lat="34.9647332" lon="33.4133975">
<ele>251.15</ele>
<time>2015-05-01T12:45:22Z</time>
</trkpt>
<trkpt lat="34.9647877" lon="33.4133476">
<ele>251.08</ele>
<time>2015-05-01T12:45:23Z</time>
</trkpt>
<trkpt lat="34.9648500" lon="33.4132988">
<ele>250.55</ele>
<time>2015-05-01T12:45:24Z</time>
</trkpt>
<trkpt lat="34.9649136" lon="33.4132569">
<ele>249.78</ele>
<time>2015-05-01T12:45:25Z</time>
</trkpt>
<trkpt lat="34.9649716" lon="33.4132109">
<ele>248.90</ele>
<time>2015-05-01T12:45:26Z</time>
</trkpt>
<trkpt lat="34.9650333" lon="33.4131738">
<ele>248.46</ele>
<time>2015-05-01T12:45:27Z</time>
</trkpt>
<trkpt lat="34.9650901" lon="33.4131308">
<ele>248.24</ele>
<time>2015-05-01T12:45:28Z</time>
</trkpt>
<trkpt lat="34.9651468" lon="33.4130906">
<ele>248.13</ele>
<time>2015-05-01T12:45:29Z</time>
</trkpt>
<trkpt lat="34.9652048" lon="33.4130513">
<ele>248.57</ele>
<time>2015-05-01T12:45:30Z</time>
</trkpt>
<trkpt lat="34.9652704" lon="33.4130076">
<ele>248.29</ele>
<time>2015-05-01T12:45:31Z</time>
</trkpt>
<trkpt lat="34.9653366" lon="33.4129621">
<ele>247.65</ele>
<time>2015-05-01T12:45:32Z</time>
</trkpt>
<trkpt lat="34.9654021" lon="33.4129189">
<ele>247.34</ele>
<time>2015-05-01T12:45:33Z</time>
</trkpt>
<trkpt lat="34.9654652" lon="33.4128778">
<ele>246.68</ele>
<time>2015-05-01T12:45:34Z</time>
</trkpt>
<trkpt lat="34.9655295" lon="33.4128339">
<ele>246.85</ele>
<time>2015-05-01T12:45:35Z</time>
</trkpt>
<trkpt lat="34.9655922" lon="33.4127967">
<ele>246.93</ele>
<time>2015-05-01T12:45:36Z</time>
</trkpt>
<trkpt lat="34.9656655" lon="33.4127595">
<ele>247.47</ele>
<time>2015-05-01T12:45:37Z</time>
</trkpt>
<trkpt lat="34.9657291" lon="33.4127156">
<ele>247.74</ele>
<time>2015-05-01T12:45:38Z</time>
</trkpt>
<trkpt lat="34.9657981" lon="33.4126724">
<ele>247.88</ele>
<time>2015-05-01T12:45:39Z</time>
</trkpt>
<trkpt lat="34.9658645" lon="33.4126393">
<ele>247.95</ele>
<time>2015-05-01T12:45:40Z</time>
</trkpt>
<trkpt lat="34.9659276" lon="33.4126016">
<ele>247.48</ele>
<time>2015-05-01T12:45:41Z</time>
</trkpt>
<trkpt lat="34.9659918" lon="33.4125695">
<ele>247.25</ele>
<time>2015-05-01T12:45:42Z</time>
</trkpt>
<trkpt lat="34.9660590" lon="33.4125489">
<ele>248.13</ele>
<time>2015-05-01T12:45:43Z</time>
</trkpt>
<trkpt lat="34.9661300" lon="33.4125218">
<ele>248.57</ele>
<time>2015-05-01T12:45:44Z</time>
</trkpt>
<trkpt lat="34.9662022" lon="33.4125019">
<ele>248.30</ele>
<time>2015-05-01T12:45:45Z</time>
</trkpt>
<trkpt lat="34.9662710" lon="33.4124700">
<ele>248.66</ele>
<time>2015-05-01T12:45:46Z</time>
</trkpt>
<trkpt lat="34.9663302" lon="33.4124536">
<ele>248.34</ele>
<time>2015-05-01T12:45:47Z</time>
</trkpt>
<trkpt lat="34.9663988" lon="33.4124363">
<ele>248.18</ele>
<time>2015-05-01T12:45:48Z</time>
</trkpt>
<trkpt lat="34.9664612" lon="33.4124230">
<ele>248.10</ele>
<time>2015-05-01T12:45:49Z</time>
</trkpt>
<trkpt lat="34.9665281" lon="33.4124059">
<ele>247.56</ele>
<time>2015-05-01T12:45:50Z</time>
</trkpt>
<trkpt lat="34.9665942" lon="33.4123954">
<ele>246.79</ele>
<time>2015-05-01T12:45:51Z</time>
</trkpt>
<trkpt lat="34.9666586" lon="33.4123847">
<ele>246.40</ele>
<time>2015-05-01T12:45:52Z</time>
</trkpt>
<trkpt lat="34.9667214" lon="33.4123828">
<ele>246.21</ele>
<time>2015-05-01T12:45:53Z</time>
</trkpt>
<trkpt lat="34.9667957" lon="33.4123808">
<ele>246.61</ele>
<time>2015-05-01T12:45:54Z</time>
</trkpt>
<trkpt lat="34.9668570" lon="33.4123715">
<ele>246.81</ele>
<time>2015-05-01T12:45:55Z</time>
</trkpt>
<trkpt lat="34.9669353" lon="33.4123677">
<ele>246.42</ele>
<time>2015-05-01T12:45:56Z</time>
</trkpt>
<trkpt lat="34.9670020" lon="33.4123564">
<ele>246.22</ele>
<time>2015-05-01T12:45:57Z</time>
</trkpt>
<trkpt lat="34.9670756" lon="33.4123484">
<ele>245.62</ele>
<time>2015-05-01T12:45:58Z</time>
</trkpt>
<trkpt lat="34.9671415" lon="33.4123420">
<ele>244.82</ele>
<time>2015-05-01T12:45:59Z</time>
</trkpt>
<trkpt lat="34.9672115" lon="33.4123317">
<ele>243.92</ele>
<time>2015-05-01T12:46:00Z</time>
</trkpt>
<trkpt lat="34.9672712" lon="33.4123275">
<ele>243.97</ele>
<time>2015-05-01T12:46:01Z</time>
</trkpt>
<trkpt lat="34.9673325" lon="33.4123329">
<ele>244.99</ele>
<time>2015-05-01T12:46:02Z</time>
</trkpt>
<trkpt lat="34.9673992" lon="33.4123329">
<ele>246.00</ele>
<time>2015-05-01T12:46:03Z</time>
</trkpt>
<trkpt lat="34.9674652" lon="33.4123245">
<ele>246.51</ele>
<time>2015-05-01T12:46:04Z</time>
</trkpt>
<trkpt lat="34.9675405" lon="33.4123207">
<ele>246.76</ele>
<time>2015-05-01T12:46:05Z</time>
</trkpt>
<trkpt lat="34.9676054" lon="33.4123226">
<ele>246.89</ele>
<time>2015-05-01T12:46:06Z</time>
</trkpt>
<trkpt lat="34.9676679" lon="33.4123232">
<ele>246.45</ele>
<time>2015-05-01T12:46:07Z</time>
</trkpt>
<trkpt lat="34.9677349" lon="33.4123220">
<ele>245.73</ele>
<time>2015-05-01T12:46:08Z</time>
</trkpt>
<trkpt lat="34.9678016" lon="33.4123112">
<ele>245.88</ele>
<time>2015-05-01T12:46:09Z</time>
</trkpt>
<trkpt lat="34.9678695" lon="33.4123113">
<ele>245.45</ele>
<time>2015-05-01T12:46:10Z</time>
</trkpt>
<trkpt lat="34.9679373" lon="33.4123056">
<ele>246.23</ele>
<time>2015-05-01T12:46:11Z</time>
</trkpt>
<trkpt lat="34.9680095" lon="33.4123028">
<ele>246.62</ele>
<time>2015-05-01T12:46:12Z</time>
</trkpt>
<trkpt lat="34.9680842" lon="33.4123160">
<ele>246.82</ele>
<time>2015-05-01T12:46:13Z</time>
</trkpt>
<trkpt lat="34.9681512" lon="33.4123111">
<ele>246.42</ele>
<time>2015-05-01T12:46:14Z</time>
</trkpt>
<trkpt lat="34.9682118" lon="33.4123038">
<ele>245.72</ele>
<time>2015-05-01T12:46:15Z</time>
</trkpt>
<trkpt lat="34.9682806" lon="33.4123042">
<ele>245.87</ele>
<time>2015-05-01T12:46:16Z</time>
</trkpt>
<trkpt lat="34.9683424" lon="33.4122958">
<ele>245.94</ele>
<time>2015-05-01T12:46:17Z</time>
</trkpt>
<trkpt lat="34.9684002" lon="33.4122903">
<ele>246.48</ele>
<time>2015-05-01T12:46:18Z</time>
</trkpt>
<trkpt lat="34.9684612" lon="33.4122960">
<ele>246.25</ele>
<time>2015-05-01T12:46:19Z</time>
</trkpt>
<trkpt lat="34.9685299" lon="33.4123000">
<ele>246.13</ele>
<time>2015-05-01T12:46:20Z</time>
</trkpt>
<trkpt lat="34.9685854" lon="33.4122832">
<ele>246.07</ele>
<time>2015-05-01T12:46:21Z</time>
</trkpt>
<trkpt lat="34.9686464" lon="33.4122859">
<ele>246.54</ele>
<time>2015-05-01T12:46:22Z</time>
</trkpt>
<trkpt lat="34.9687102" lon="33.4122907">
<ele>246.78</ele>
<time>2015-05-01T12:46:23Z</time>
</trkpt>
<trkpt lat="34.9687670" lon="33.4122880">
<ele>246.90</ele>
<time>2015-05-01T12:46:24Z</time>
</trkpt>
<trkpt lat="34.9688246" lon="33.4122888">
<ele>247.46</ele>
<time>2015-05-01T12:46:25Z</time>
</trkpt>
<trkpt lat="34.9688814" lon="33.4122867">
<ele>247.24</ele>
<time>2015-05-01T12:46:26Z</time>
</trkpt>
<trkpt lat="34.9689311" lon="33.4122835">
<ele>246.63</ele>
<time>2015-05-01T12:46:27Z</time>
</trkpt>
<trkpt lat="34.9689846" lon="33.4122831">
<ele>245.82</ele>
<time>2015-05-01T12:46:28Z</time>
</trkpt>
<trkpt lat="34.9690352" lon="33.4122882">
<ele>245.42</ele>
<time>2015-05-01T12:46:29Z</time>
</trkpt>
<trkpt lat="34.9690917" lon="33.4122891">
<ele>244.72</ele>
<time>2015-05-01T12:46:30Z</time>
</trkpt>
<trkpt lat="34.9691433" lon="33.4122903">
<ele>244.87</ele>
<time>2015-05-01T12:46:31Z</time>
</trkpt>
<trkpt lat="34.9691964" lon="33.4122829">
<ele>244.44</ele>
<time>2015-05-01T12:46:32Z</time>
</trkpt>
<trkpt lat="34.9692455" lon="33.4122762">
<ele>244.23</ele>
<time>2015-05-01T12:46:33Z</time>
</trkpt>
<trkpt lat="34.9692990" lon="33.4122752">
<ele>244.62</ele>
<time>2015-05-01T12:46:34Z</time>
</trkpt>
<trkpt lat="34.9693516" lon="33.4122681">
<ele>244.82</ele>
<time>2015-05-01T12:46:35Z</time>
</trkpt>
<trkpt lat="34.9694075" lon="33.4122652">
<ele>245.42</ele>
<time>2015-05-01T12:46:36Z</time>
</trkpt>
<trkpt lat="34.9694615" lon="33.4122577">
<ele>245.22</ele>
<time>2015-05-01T12:46:37Z</time>
</trkpt>
<trkpt lat="34.9695156" lon="33.4122552">
<ele>246.12</ele>
<time>2015-05-01T12:46:38Z</time>
</trkpt>
<trkpt lat="34.9695775" lon="33.4122554">
<ele>247.07</ele>
<time>2015-05-01T12:46:39Z</time>
</trkpt>
<trkpt lat="34.9696371" lon="33.4122485">
<ele>247.04</ele>
<time>2015-05-01T12:46:40Z</time>
</trkpt>
<trkpt lat="34.9696964" lon="33.4122400">
<ele>247.03</ele>
<time>2015-05-01T12:46:41Z</time>
</trkpt>
<trkpt lat="34.9697522" lon="33.4122430">
<ele>246.52</ele>
<time>2015-05-01T12:46:42Z</time>
</trkpt>
<trkpt lat="34.9698075" lon="33.4122436">
<ele>245.77</ele>
<time>2015-05-01T12:46:43Z</time>
</trkpt>
<trkpt lat="34.9698644" lon="33.4122439">
<ele>245.39</ele>
<time>2015-05-01T12:46:44Z</time>
</trkpt>
<trkpt lat="34.9699184" lon="33.4122468">
<ele>245.20</ele>
<time>2015-05-01T12:46:45Z</time>
</trkpt>
<trkpt lat="34.9699779" lon="33.4122489">
<ele>244.61</ele>
<time>2015-05-01T12:46:46Z</time>
</trkpt>
<trkpt lat="34.9700312" lon="33.4122419">
<ele>243.31</ele>
<time>2015-05-01T12:46:47Z</time>
</trkpt>
<trkpt lat="34.9700856" lon="33.4122333">
<ele>242.66</ele>
<time>2015-05-01T12:46:48Z</time>
</trkpt>
<trkpt lat="34.9701470" lon="33.4122365">
<ele>242.34</ele>
<time>2015-05-01T12:46:49Z</time>
</trkpt>
<trkpt lat="34.9702073" lon="33.4122360">
<ele>242.18</ele>
<time>2015-05-01T12:46:50Z</time>
</trkpt>
<trkpt lat="34.9702660" lon="33.4122351">
<ele>242.10</ele>
<time>2015-05-01T12:46:51Z</time>
</trkpt>
<trkpt lat="34.9703280" lon="33.4122323">
<ele>241.56</ele>
<time>2015-05-01T12:46:52Z</time>
</trkpt>
<trkpt lat="34.9704000" lon="33.4122407">
<ele>242.29</ele>
<time>2015-05-01T12:46:53Z</time>
</trkpt>
<trkpt lat="34.9704685" lon="33.4122350">
<ele>242.15</ele>
<time>2015-05-01T12:46:54Z</time>
</trkpt>
<trkpt lat="34.9705375" lon="33.4122322">
<ele>242.58</ele>
<time>2015-05-01T12:46:55Z</time>
</trkpt>
<trkpt lat="34.9706155" lon="33.4122374">
<ele>242.80</ele>
<time>2015-05-01T12:46:56Z</time>
</trkpt>
<trkpt lat="34.9706844" lon="33.4122302">
<ele>242.41</ele>
<time>2015-05-01T12:46:57Z</time>
</trkpt>
<trkpt lat="34.9707648" lon="33.4122315">
<ele>241.71</ele>
<time>2015-05-01T12:46:58Z</time>
</trkpt>
<trkpt lat="34.9708302" lon="33.4122262">
<ele>241.36</ele>
<time>2015-05-01T12:46:59Z</time>
</trkpt>
<trkpt lat="34.9709081" lon="33.4122345">
<ele>241.69</ele>
<time>2015-05-01T12:47:00Z</time>
</trkpt>
<trkpt lat="34.9709697" lon="33.4122361">
<ele>241.85</ele>
<time>2015-05-01T12:47:01Z</time>
</trkpt>
<trkpt lat="34.9710342" lon="33.4122345">
<ele>240.93</ele>
<time>2015-05-01T12:47:02Z</time>
</trkpt>
<trkpt lat="34.9710942" lon="33.4122359">
<ele>240.48</ele>
<time>2015-05-01T12:47:03Z</time>
</trkpt>
<trkpt lat="34.9711539" lon="33.4122344">
<ele>238.75</ele>
<time>2015-05-01T12:47:04Z</time>
</trkpt>
<trkpt lat="34.9712144" lon="33.4122313">
<ele>236.88</ele>
<time>2015-05-01T12:47:05Z</time>
</trkpt>
<trkpt lat="34.9712698" lon="33.4122318">
<ele>234.95</ele>
<time>2015-05-01T12:47:06Z</time>
</trkpt>
<trkpt lat="34.9713500" lon="33.4122320">
<ele>234.98</ele>
<time>2015-05-01T12:47:07Z</time>
</trkpt>
<trkpt lat="34.9714170" lon="33.4122222">
<ele>234.00</ele>
<time>2015-05-01T12:47:08Z</time>
</trkpt>
<trkpt lat="34.9714812" lon="33.4122165">
<ele>233.51</ele>
<time>2015-05-01T12:47:09Z</time>
</trkpt>
<trkpt lat="34.9715446" lon="33.4122258">
<ele>232.26</ele>
<time>2015-05-01T12:47:10Z</time>
</trkpt>
<trkpt lat="34.9716120" lon="33.4122205">
<ele>232.14</ele>
<time>2015-05-01T12:47:11Z</time>
</trkpt>
<trkpt lat="34.9716848" lon="33.4122102">
<ele>232.08</ele>
<time>2015-05-01T12:47:12Z</time>
</trkpt>
<trkpt lat="34.9717554" lon="33.4122036">
<ele>232.55</ele>
<time>2015-05-01T12:47:13Z</time>
</trkpt>
<trkpt lat="34.9718215" lon="33.4122098">
<ele>232.78</ele>
<time>2015-05-01T12:47:14Z</time>
</trkpt>
<trkpt lat="34.9718838" lon="33.4122040">
<ele>233.40</ele>
<time>2015-05-01T12:47:15Z</time>
</trkpt>
<trkpt lat="34.9719489" lon="33.4122056">
<ele>234.71</ele>
<time>2015-05-01T12:47:16Z</time>
</trkpt>
<trkpt lat="34.9720070" lon="33.4122134">
<ele>235.36</ele>
<time>2015-05-01T12:47:17Z</time>
</trkpt>
<trkpt lat="34.9720638" lon="33.4122157">
<ele>235.19</ele>
<time>2015-05-01T12:47:18Z</time>
</trkpt>
<trkpt lat="34.9721220" lon="33.4122134">
<ele>235.10</ele>
<time>2015-05-01T12:47:19Z</time>
</trkpt>
<trkpt lat="34.9721875" lon="33.4122080">
<ele>235.56</ele>
<time>2015-05-01T12:47:20Z</time>
</trkpt>
<trkpt lat="34.9722444" lon="33.4122032">
<ele>235.79</ele>
<time>2015-05-01T12:47:21Z</time>
</trkpt>
<trkpt lat="34.9723116" lon="33.4122178">
<ele>235.40</ele>
<time>2015-05-01T12:47:22Z</time>
</trkpt>
<trkpt lat="34.9723707" lon="33.4122113">
<ele>234.71</ele>
<time>2015-05-01T12:47:23Z</time>
</trkpt>
<trkpt lat="34.9724298" lon="33.4122090">
<ele>233.86</ele>
<time>2015-05-01T12:47:24Z</time>
</trkpt>
<trkpt lat="34.9724913" lon="33.4122109">
<ele>233.44</ele>
<time>2015-05-01T12:47:25Z</time>
</trkpt>
<trkpt lat="34.9725572" lon="33.4122011">
<ele>233.23</ele>
<time>2015-05-01T12:47:26Z</time>
</trkpt>
<trkpt lat="34.9726159" lon="33.4121960">
<ele>233.62</ele>
<time>2015-05-01T12:47:27Z</time>
</trkpt>
<trkpt lat="34.9726898" lon="33.4121971">
<ele>234.32</ele>
<time>2015-05-01T12:47:28Z</time>
</trkpt>
<trkpt lat="34.9727578" lon="33.4121926">
<ele>235.17</ele>
<time>2015-05-01T12:47:29Z</time>
</trkpt>
<trkpt lat="34.9728219" lon="33.4121881">
<ele>235.59</ele>
<time>2015-05-01T12:47:30Z</time>
</trkpt>
<trkpt lat="34.9728765" lon="33.4121900">
<ele>235.80</ele>
<time>2015-05-01T12:47:31Z</time>
</trkpt>
<trkpt lat="34.9729385" lon="33.4121900">
<ele>236.41</ele>
<time>2015-05-01T12:47:32Z</time>
</trkpt>
<trkpt lat="34.9730046" lon="33.4121883">
<ele>236.71</ele>
<time>2015-05-01T12:47:33Z</time>
</trkpt>
<trkpt lat="34.9730620" lon="33.4121816">
<ele>237.36</ele>
<time>2015-05-01T12:47:34Z</time>
</trkpt>
<trkpt lat="34.9731219" lon="33.4121758">
<ele>238.19</ele>
<time>2015-05-01T12:47:35Z</time>
</trkpt>
<trkpt lat="34.9731775" lon="33.4121815">
<ele>238.60</ele>
<time>2015-05-01T12:47:36Z</time>
</trkpt>
<trkpt lat="34.9732281" lon="33.4121798">
<ele>238.81</ele>
<time>2015-05-01T12:47:37Z</time>
</trkpt>
<trkpt lat="34.9732802" lon="33.4121868">
<ele>238.91</ele>
<time>2015-05-01T12:47:38Z</time>
</trkpt>
<trkpt lat="34.9733289" lon="33.4121858">
<ele>239.46</ele>
<time>2015-05-01T12:47:39Z</time>
</trkpt>
<trkpt lat="34.9733768" lon="33.4121866">
<ele>239.74</ele>
<time>2015-05-01T12:47:40Z</time>
</trkpt>
<trkpt lat="34.9734260" lon="33.4121838">
<ele>239.88</ele>
<time>2015-05-01T12:47:41Z</time>
</trkpt>
<trkpt lat="34.9734800" lon="33.4121898">
<ele>240.45</ele>
<time>2015-05-01T12:47:42Z</time>
</trkpt>
<trkpt lat="34.9735243" lon="33.4122040">
<ele>240.73</ele>
<time>2015-05-01T12:47:43Z</time>
</trkpt>
<trkpt lat="34.9736158" lon="33.4122160">
<ele>241.44</ele>
<time>2015-05-01T12:47:45Z</time>
</trkpt>
<trkpt lat="34.9736650" lon="33.4122170">
<ele>241.73</ele>
<time>2015-05-01T12:47:46Z</time>
</trkpt>
<trkpt lat="34.9737564" lon="33.4122289">
<ele>242.69</ele>
<time>2015-05-01T12:47:48Z</time>
</trkpt>
<trkpt lat="34.9738030" lon="33.4122269">
<ele>242.86</ele>
<time>2015-05-01T12:47:49Z</time>
</trkpt>
<trkpt lat="34.9738508" lon="33.4122324">
<ele>242.94</ele>
<time>2015-05-01T12:47:50Z</time>
</trkpt>
<trkpt lat="34.9739339" lon="33.4122492">
<ele>244.25</ele>
<time>2015-05-01T12:47:52Z</time>
</trkpt>
<trkpt lat="34.9740104" lon="33.4122600">
<ele>245.32</ele>
<time>2015-05-01T12:47:54Z</time>
</trkpt>
<trkpt lat="34.9740770" lon="33.4122841">
<ele>245.09</ele>
<time>2015-05-01T12:47:56Z</time>
</trkpt>
<trkpt lat="34.9741497" lon="33.4123029">
<ele>245.54</ele>
<time>2015-05-01T12:47:58Z</time>
</trkpt>
<trkpt lat="34.9742311" lon="33.4123238">
<ele>245.40</ele>
<time>2015-05-01T12:48:00Z</time>
</trkpt>
<trkpt lat="34.9743054" lon="33.4123378">
<ele>245.11</ele>
<time>2015-05-01T12:48:02Z</time>
</trkpt>
<trkpt lat="34.9743771" lon="33.4123570">
<ele>245.04</ele>
<time>2015-05-01T12:48:04Z</time>
</trkpt>
<trkpt lat="34.9744396" lon="33.4123811">
<ele>244.27</ele>
<time>2015-05-01T12:48:06Z</time>
</trkpt>
<trkpt lat="34.9744992" lon="33.4124021">
<ele>244.08</ele>
<time>2015-05-01T12:48:08Z</time>
</trkpt>
<trkpt lat="34.9745623" lon="33.4124161">
<ele>244.03</ele>
<time>2015-05-01T12:48:10Z</time>
</trkpt>
<trkpt lat="34.9746269" lon="33.4124336">
<ele>244.02</ele>
<time>2015-05-01T12:48:12Z</time>
</trkpt>
<trkpt lat="34.9746925" lon="33.4124558">
<ele>244.77</ele>
<time>2015-05-01T12:48:14Z</time>
</trkpt>
<trkpt lat="34.9747927" lon="33.4124804">
<ele>244.95</ele>
<time>2015-05-01T12:48:16Z</time>
</trkpt>
<trkpt lat="34.9748871" lon="33.4125003">
<ele>245.00</ele>
<time>2015-05-01T12:48:18Z</time>
</trkpt>
<trkpt lat="34.9749359" lon="33.4125105">
<ele>246.01</ele>
<time>2015-05-01T12:48:19Z</time>
</trkpt>
<trkpt lat="34.9749906" lon="33.4125260">
<ele>246.51</ele>
<time>2015-05-01T12:48:20Z</time>
</trkpt>
<trkpt lat="34.9750434" lon="33.4125446">
<ele>246.76</ele>
<time>2015-05-01T12:48:21Z</time>
</trkpt>
<trkpt lat="34.9751021" lon="33.4125570">
<ele>246.89</ele>
<time>2015-05-01T12:48:22Z</time>
</trkpt>
<trkpt lat="34.9751543" lon="33.4125664">
<ele>247.45</ele>
<time>2015-05-01T12:48:23Z</time>
</trkpt>
<trkpt lat="34.9752147" lon="33.4125855">
<ele>247.73</ele>
<time>2015-05-01T12:48:24Z</time>
</trkpt>
<trkpt lat="34.9752741" lon="33.4125998">
<ele>247.38</ele>
<time>2015-05-01T12:48:25Z</time>
</trkpt>
<trkpt lat="34.9753327" lon="33.4126179">
<ele>247.20</ele>
<time>2015-05-01T12:48:26Z</time>
</trkpt>
<trkpt lat="34.9753880" lon="33.4126273">
<ele>247.61</ele>
<time>2015-05-01T12:48:27Z</time>
</trkpt>
<trkpt lat="34.9754399" lon="33.4126377">
<ele>247.81</ele>
<time>2015-05-01T12:48:28Z</time>
</trkpt>
<trkpt lat="34.9754907" lon="33.4126504">
<ele>247.41</ele>
<time>2015-05-01T12:48:29Z</time>
</trkpt>
<trkpt lat="34.9755448" lon="33.4126524">
<ele>247.21</ele>
<time>2015-05-01T12:48:30Z</time>
</trkpt>
<trkpt lat="34.9755914" lon="33.4126534">
<ele>247.12</ele>
<time>2015-05-01T12:48:31Z</time>
</trkpt>
<trkpt lat="34.9756477" lon="33.4126482">
<ele>247.57</ele>
<time>2015-05-01T12:48:32Z</time>
</trkpt>
<trkpt lat="34.9757083" lon="33.4126464">
<ele>247.29</ele>
<time>2015-05-01T12:48:33Z</time>
</trkpt>
<trkpt lat="34.9757750" lon="33.4126520">
<ele>247.65</ele>
<time>2015-05-01T12:48:34Z</time>
</trkpt>
<trkpt lat="34.9758243" lon="33.4126478">
<ele>247.33</ele>
<time>2015-05-01T12:48:35Z</time>
</trkpt>
<trkpt lat="34.9758786" lon="33.4126459">
<ele>247.18</ele>
<time>2015-05-01T12:48:36Z</time>
</trkpt>
<trkpt lat="34.9759335" lon="33.4126408">
<ele>246.60</ele>
<time>2015-05-01T12:48:37Z</time>
</trkpt>
<trkpt lat="34.9759817" lon="33.4126304">
<ele>246.31</ele>
<time>2015-05-01T12:48:38Z</time>
</trkpt>
<trkpt lat="34.9760317" lon="33.4126167">
<ele>245.66</ele>
<time>2015-05-01T12:48:39Z</time>
</trkpt>
<trkpt lat="34.9760828" lon="33.4126021">
<ele>244.84</ele>
<time>2015-05-01T12:48:40Z</time>
</trkpt>
<trkpt lat="34.9761340" lon="33.4125917">
<ele>244.43</ele>
<time>2015-05-01T12:48:41Z</time>
</trkpt>
<trkpt lat="34.9761784" lon="33.4125806">
<ele>243.22</ele>
<time>2015-05-01T12:48:42Z</time>
</trkpt>
<trkpt lat="34.9762281" lon="33.4125672">
<ele>242.62</ele>
<time>2015-05-01T12:48:43Z</time>
</trkpt>
<trkpt lat="34.9762780" lon="33.4125538">
<ele>241.82</ele>
<time>2015-05-01T12:48:44Z</time>
</trkpt>
<trkpt lat="34.9763458" lon="33.4125448">
<ele>241.92</ele>
<time>2015-05-01T12:48:45Z</time>
</trkpt>
<trkpt lat="34.9763952" lon="33.4125310">
<ele>241.97</ele>
<time>2015-05-01T12:48:46Z</time>
</trkpt>
<trkpt lat="34.9764926" lon="33.4125125">
<ele>242.00</ele>
<time>2015-05-01T12:48:48Z</time>
</trkpt>
<trkpt lat="34.9765837" lon="33.4125093">
<ele>242.76</ele>
<time>2015-05-01T12:48:50Z</time>
</trkpt>
<trkpt lat="34.9766640" lon="33.4124761">
<ele>244.20</ele>
<time>2015-05-01T12:48:52Z</time>
</trkpt>
<trkpt lat="34.9767333" lon="33.4124418">
<ele>244.31</ele>
<time>2015-05-01T12:48:54Z</time>
</trkpt>
<trkpt lat="34.9767997" lon="33.4124086">
<ele>243.34</ele>
<time>2015-05-01T12:48:56Z</time>
</trkpt>
<trkpt lat="34.9768787" lon="33.4123953">
<ele>242.35</ele>
<time>2015-05-01T12:48:58Z</time>
</trkpt>
<trkpt lat="34.9769603" lon="33.4123720">
<ele>242.60</ele>
<time>2015-05-01T12:49:00Z</time>
</trkpt>
<trkpt lat="34.9770372" lon="33.4123506">
<ele>243.41</ele>
<time>2015-05-01T12:49:02Z</time>
</trkpt>
<trkpt lat="34.9771162" lon="33.4123278">
<ele>244.61</ele>
<time>2015-05-01T12:49:04Z</time>
</trkpt>
<trkpt lat="34.9771980" lon="33.4123061">
<ele>245.92</ele>
<time>2015-05-01T12:49:06Z</time>
</trkpt>
<trkpt lat="34.9772802" lon="33.4122830">
<ele>246.74</ele>
<time>2015-05-01T12:49:08Z</time>
</trkpt>
<trkpt lat="34.9773580" lon="33.4122583">
<ele>247.45</ele>
<time>2015-05-01T12:49:10Z</time>
</trkpt>
<trkpt lat="34.9774351" lon="33.4122326">
<ele>247.37</ele>
<time>2015-05-01T12:49:12Z</time>
</trkpt>
<trkpt lat="34.9775055" lon="33.4122116">
<ele>247.11</ele>
<time>2015-05-01T12:49:14Z</time>
</trkpt>
<trkpt lat="34.9775740" lon="33.4121969">
<ele>246.29</ele>
<time>2015-05-01T12:49:16Z</time>
</trkpt>
<trkpt lat="34.9776435" lon="33.4121843">
<ele>246.58</ele>
<time>2015-05-01T12:49:18Z</time>
</trkpt>
<trkpt lat="34.9777162" lon="33.4121707">
<ele>246.41</ele>
<time>2015-05-01T12:49:20Z</time>
</trkpt>
<trkpt lat="34.9777886" lon="33.4121608">
<ele>244.61</ele>
<time>2015-05-01T12:49:22Z</time>
</trkpt>
<trkpt lat="34.9778530" lon="33.4121526">
<ele>245.42</ele>
<time>2015-05-01T12:49:24Z</time>
</trkpt>
<trkpt lat="34.9779090" lon="33.4121472">
<ele>246.87</ele>
<time>2015-05-01T12:49:26Z</time>
</trkpt>
<trkpt lat="34.9779673" lon="33.4121379">
<ele>248.23</ele>
<time>2015-05-01T12:49:28Z</time>
</trkpt>
<trkpt lat="34.9780234" lon="33.4121270">
<ele>249.57</ele>
<time>2015-05-01T12:49:30Z</time>
</trkpt>
<trkpt lat="34.9780680" lon="33.4121168">
<ele>250.65</ele>
<time>2015-05-01T12:49:32Z</time>
</trkpt>
<trkpt lat="34.9781326" lon="33.4121092">
<ele>251.60</ele>
<time>2015-05-01T12:49:35Z</time>
</trkpt>
<trkpt lat="34.9781891" lon="33.4121078">
<ele>251.91</ele>
<time>2015-05-01T12:49:37Z</time>
</trkpt>
<trkpt lat="34.9782536" lon="33.4121021">
<ele>252.74</ele>
<time>2015-05-01T12:49:39Z</time>
</trkpt>
<trkpt lat="34.9783261" lon="33.4120936">
<ele>252.95</ele>
<time>2015-05-01T12:49:41Z</time>
</trkpt>
<trkpt lat="34.9784026" lon="33.4120863">
<ele>253.00</ele>
<time>2015-05-01T12:49:43Z</time>
</trkpt>
<trkpt lat="34.9784820" lon="33.4120760">
<ele>253.01</ele>
<time>2015-05-01T12:49:45Z</time>
</trkpt>
<trkpt lat="34.9785557" lon="33.4120675">
<ele>253.01</ele>
<time>2015-05-01T12:49:47Z</time>
</trkpt>
<trkpt lat="34.9786302" lon="33.4120639">
<ele>253.02</ele>
<time>2015-05-01T12:49:49Z</time>
</trkpt>
<trkpt lat="34.9787015" lon="33.4120607">
<ele>253.02</ele>
<time>2015-05-01T12:49:51Z</time>
</trkpt>
<trkpt lat="34.9787734" lon="33.4120542">
<ele>253.52</ele>
<time>2015-05-01T12:49:53Z</time>
</trkpt>
<trkpt lat="34.9788379" lon="33.4120482">
<ele>253.39</ele>
<time>2015-05-01T12:49:55Z</time>
</trkpt>
<trkpt lat="34.9788867" lon="33.4120393">
<ele>253.11</ele>
<time>2015-05-01T12:49:57Z</time>
</trkpt>
<trkpt lat="34.9789487" lon="33.4120340">
<ele>253.53</ele>
<time>2015-05-01T12:50:00Z</time>
</trkpt>
<trkpt lat="34.9789958" lon="33.4120394">
<ele>253.14</ele>
<time>2015-05-01T12:50:02Z</time>
</trkpt>
<trkpt lat="34.9790472" lon="33.4120318">
<ele>253.05</ele>
<time>2015-05-01T12:50:04Z</time>
</trkpt>
<trkpt lat="34.9791002" lon="33.4120221">
<ele>253.02</ele>
<time>2015-05-01T12:50:06Z</time>
</trkpt>
<trkpt lat="34.9791608" lon="33.4120160">
<ele>253.77</ele>
<time>2015-05-01T12:50:08Z</time>
</trkpt>
<trkpt lat="34.9792264" lon="33.4120154">
<ele>254.45</ele>
<time>2015-05-01T12:50:10Z</time>
</trkpt>
<trkpt lat="34.9792969" lon="33.4120080">
<ele>254.38</ele>
<time>2015-05-01T12:50:12Z</time>
</trkpt>
<trkpt lat="34.9793810" lon="33.4119977">
<ele>254.36</ele>
<time>2015-05-01T12:50:14Z</time>
</trkpt>
<trkpt lat="34.9794695" lon="33.4119892">
<ele>254.10</ele>
<time>2015-05-01T12:50:16Z</time>
</trkpt>
<trkpt lat="34.9795556" lon="33.4119793">
<ele>254.54</ele>
<time>2015-05-01T12:50:18Z</time>
</trkpt>
<trkpt lat="34.9796438" lon="33.4119692">
<ele>254.90</ele>
<time>2015-05-01T12:50:20Z</time>
</trkpt>
<trkpt lat="34.9797047" lon="33.4119621">
<ele>254.96</ele>
<time>2015-05-01T12:50:21Z</time>
</trkpt>
<trkpt lat="34.9797923" lon="33.4119607">
<ele>254.50</ele>
<time>2015-05-01T12:50:23Z</time>
</trkpt>
<trkpt lat="34.9798743" lon="33.4119381">
<ele>254.14</ele>
<time>2015-05-01T12:50:25Z</time>
</trkpt>
<trkpt lat="34.9799492" lon="33.4119330">
<ele>254.05</ele>
<time>2015-05-01T12:50:27Z</time>
</trkpt>
<trkpt lat="34.9800303" lon="33.4119280">
<ele>253.52</ele>
<time>2015-05-01T12:50:29Z</time>
</trkpt>
<trkpt lat="34.9801058" lon="33.4119087">
<ele>253.14</ele>
<time>2015-05-01T12:50:31Z</time>
</trkpt>
<trkpt lat="34.9801824" lon="33.4118930">
<ele>252.55</ele>
<time>2015-05-01T12:50:33Z</time>
</trkpt>
<trkpt lat="34.9802604" lon="33.4118718">
<ele>253.40</ele>
<time>2015-05-01T12:50:35Z</time>
</trkpt>
<trkpt lat="34.9803542" lon="33.4118307">
<ele>253.11</ele>
<time>2015-05-01T12:50:37Z</time>
</trkpt>
<trkpt lat="34.9804334" lon="33.4118044">
<ele>253.04</ele>
<time>2015-05-01T12:50:39Z</time>
</trkpt>
<trkpt lat="34.9805013" lon="33.4117685">
<ele>252.27</ele>
<time>2015-05-01T12:50:41Z</time>
</trkpt>
<trkpt lat="34.9805587" lon="33.4117420">
<ele>252.08</ele>
<time>2015-05-01T12:50:43Z</time>
</trkpt>
<trkpt lat="34.9806100" lon="33.4117322">
<ele>251.53</ele>
<time>2015-05-01T12:50:45Z</time>
</trkpt>
<trkpt lat="34.9806599" lon="33.4117064">
<ele>252.40</ele>
<time>2015-05-01T12:50:47Z</time>
</trkpt>
<trkpt lat="34.9807135" lon="33.4116793">
<ele>253.36</ele>
<time>2015-05-01T12:50:49Z</time>
</trkpt>
<trkpt lat="34.9807695" lon="33.4116482">
<ele>253.35</ele>
<time>2015-05-01T12:50:51Z</time>
</trkpt>
<trkpt lat="34.9808322" lon="33.4116126">
<ele>251.10</ele>
<time>2015-05-01T12:50:53Z</time>
</trkpt>
<trkpt lat="34.9808960" lon="33.4115770">
<ele>249.79</ele>
<time>2015-05-01T12:50:55Z</time>
</trkpt>
<trkpt lat="34.9809594" lon="33.4115400">
<ele>249.21</ele>
<time>2015-05-01T12:50:57Z</time>
</trkpt>
<trkpt lat="34.9810222" lon="33.4115015">
<ele>248.31</ele>
<time>2015-05-01T12:50:59Z</time>
</trkpt>
<trkpt lat="34.9810880" lon="33.4114621">
<ele>246.09</ele>
<time>2015-05-01T12:51:01Z</time>
</trkpt>
<trkpt lat="34.9811515" lon="33.4114240">
<ele>245.03</ele>
<time>2015-05-01T12:51:03Z</time>
</trkpt>
<trkpt lat="34.9812179" lon="33.4113799">
<ele>243.02</ele>
<time>2015-05-01T12:51:05Z</time>
</trkpt>
<trkpt lat="34.9812823" lon="33.4113461">
<ele>242.27</ele>
<time>2015-05-01T12:51:07Z</time>
</trkpt>
<trkpt lat="34.9813472" lon="33.4113119">
<ele>243.33</ele>
<time>2015-05-01T12:51:09Z</time>
</trkpt>
<trkpt lat="34.9814048" lon="33.4112750">
<ele>243.84</ele>
<time>2015-05-01T12:51:11Z</time>
</trkpt>
<trkpt lat="34.9814597" lon="33.4112351">
<ele>244.22</ele>
<time>2015-05-01T12:51:13Z</time>
</trkpt>
<trkpt lat="34.9815117" lon="33.4111983">
<ele>247.17</ele>
<time>2015-05-01T12:51:16Z</time>
</trkpt>
<trkpt lat="34.9815517" lon="33.4111671">
<ele>249.16</ele>
<time>2015-05-01T12:51:19Z</time>
</trkpt>
<trkpt lat="34.9816060" lon="33.4111319">
<ele>251.66</ele>
<time>2015-05-01T12:51:22Z</time>
</trkpt>
<trkpt lat="34.9816506" lon="33.4111168">
<ele>251.18</ele>
<time>2015-05-01T12:51:24Z</time>
</trkpt>
<trkpt lat="34.9817032" lon="33.4110892">
<ele>250.31</ele>
<time>2015-05-01T12:51:26Z</time>
</trkpt>
<trkpt lat="34.9817703" lon="33.4110543">
<ele>249.59</ele>
<time>2015-05-01T12:51:28Z</time>
</trkpt>
<trkpt lat="34.9818464" lon="33.4110200">
<ele>250.91</ele>
<time>2015-05-01T12:51:30Z</time>
</trkpt>
<trkpt lat="34.9819220" lon="33.4109765">
<ele>251.74</ele>
<time>2015-05-01T12:51:32Z</time>
</trkpt>
<trkpt lat="34.9819987" lon="33.4109345">
<ele>251.95</ele>
<time>2015-05-01T12:51:34Z</time>
</trkpt>
<trkpt lat="34.9820765" lon="33.4108928">
<ele>253.75</ele>
<time>2015-05-01T12:51:36Z</time>
</trkpt>
<trkpt lat="34.9821808" lon="33.4108460">
<ele>254.70</ele>
<time>2015-05-01T12:51:38Z</time>
</trkpt>
<trkpt lat="34.9822206" lon="33.4108186">
<ele>254.86</ele>
<time>2015-05-01T12:51:39Z</time>
</trkpt>
<trkpt lat="34.9822956" lon="33.4107729">
<ele>255.48</ele>
<time>2015-05-01T12:51:41Z</time>
</trkpt>
<trkpt lat="34.9823711" lon="33.4107336">
<ele>253.88</ele>
<time>2015-05-01T12:51:43Z</time>
</trkpt>
<trkpt lat="34.9824421" lon="33.4106881">
<ele>253.23</ele>
<time>2015-05-01T12:51:45Z</time>
</trkpt>
<trkpt lat="34.9825113" lon="33.4106440">
<ele>252.57</ele>
<time>2015-05-01T12:51:47Z</time>
</trkpt>
<trkpt lat="34.9825936" lon="33.4106035">
<ele>251.90</ele>
<time>2015-05-01T12:51:49Z</time>
</trkpt>
<trkpt lat="34.9826359" lon="33.4105783">
<ele>252.46</ele>
<time>2015-05-01T12:51:50Z</time>
</trkpt>
<trkpt lat="34.9826767" lon="33.4105492">
<ele>252.74</ele>
<time>2015-05-01T12:51:51Z</time>
</trkpt>
<trkpt lat="34.9827213" lon="33.4105165">
<ele>252.88</ele>
<time>2015-05-01T12:51:52Z</time>
</trkpt>
<trkpt lat="34.9827794" lon="33.4104865">
<ele>252.95</ele>
<time>2015-05-01T12:51:53Z</time>
</trkpt>
<trkpt lat="34.9828260" lon="33.4104635">
<ele>252.48</ele>
<time>2015-05-01T12:51:54Z</time>
</trkpt>
<trkpt lat="34.9828757" lon="33.4104328">
<ele>251.75</ele>
<time>2015-05-01T12:51:55Z</time>
</trkpt>
<trkpt lat="34.9829198" lon="33.4104045">
<ele>251.88</ele>
<time>2015-05-01T12:51:56Z</time>
</trkpt>
<trkpt lat="34.9829676" lon="33.4103794">
<ele>251.45</ele>
<time>2015-05-01T12:51:57Z</time>
</trkpt>
<trkpt lat="34.9830222" lon="33.4103416">
<ele>253.23</ele>
<time>2015-05-01T12:51:58Z</time>
</trkpt>
<trkpt lat="34.9830639" lon="33.4103133">
<ele>253.62</ele>
<time>2015-05-01T12:51:59Z</time>
</trkpt>
<trkpt lat="34.9831122" lon="33.4102870">
<ele>253.82</ele>
<time>2015-05-01T12:52:00Z</time>
</trkpt>
<trkpt lat="34.9831584" lon="33.4102591">
<ele>253.92</ele>
<time>2015-05-01T12:52:01Z</time>
</trkpt>
<trkpt lat="34.9832366" lon="33.4102092">
<ele>253.99</ele>
<time>2015-05-01T12:52:03Z</time>
</trkpt>
<trkpt lat="34.9832897" lon="33.4101696">
<ele>253.00</ele>
<time>2015-05-01T12:52:04Z</time>
</trkpt>
<trkpt lat="34.9833351" lon="33.4101442">
<ele>252.01</ele>
<time>2015-05-01T12:52:05Z</time>
</trkpt>
<trkpt lat="34.9833845" lon="33.4101206">
<ele>251.51</ele>
<time>2015-05-01T12:52:06Z</time>
</trkpt>
<trkpt lat="34.9834301" lon="33.4101007">
<ele>250.26</ele>
<time>2015-05-01T12:52:07Z</time>
</trkpt>
<trkpt lat="34.9834775" lon="33.4100729">
<ele>249.64</ele>
<time>2015-05-01T12:52:08Z</time>
</trkpt>
<trkpt lat="34.9835699" lon="33.4100233">
<ele>249.67</ele>
<time>2015-05-01T12:52:10Z</time>
</trkpt>
<trkpt lat="34.9836124" lon="33.4099987">
<ele>249.34</ele>
<time>2015-05-01T12:52:11Z</time>
</trkpt>
<trkpt lat="34.9836974" lon="33.4099555">
<ele>248.85</ele>
<time>2015-05-01T12:52:13Z</time>
</trkpt>
<trkpt lat="34.9837448" lon="33.4099382">
<ele>248.43</ele>
<time>2015-05-01T12:52:14Z</time>
</trkpt>
<trkpt lat="34.9837885" lon="33.4099157">
<ele>247.72</ele>
<time>2015-05-01T12:52:15Z</time>
</trkpt>
<trkpt lat="34.9838357" lon="33.4098831">
<ele>246.87</ele>
<time>2015-05-01T12:52:16Z</time>
</trkpt>
<trkpt lat="34.9839022" lon="33.4098461">
<ele>247.98</ele>
<time>2015-05-01T12:52:18Z</time>
</trkpt>
<trkpt lat="34.9839578" lon="33.4098711">
<ele>248.77</ele>
<time>2015-05-01T12:52:33Z</time>
</trkpt>
<trkpt lat="34.9840062" lon="33.4098569">
<ele>248.74</ele>
<time>2015-05-01T12:52:36Z</time>
</trkpt>
<trkpt lat="34.9840507" lon="33.4098429">
<ele>248.02</ele>
<time>2015-05-01T12:54:11Z</time>
</trkpt>
<trkpt lat="34.9840991" lon="33.4097920">
<ele>250.14</ele>
<time>2015-05-01T12:54:15Z</time>
</trkpt>
<trkpt lat="34.9841458" lon="33.4097340">
<ele>249.80</ele>
<time>2015-05-01T12:54:17Z</time>
</trkpt>
<trkpt lat="34.9842063" lon="33.4096967">
<ele>249.71</ele>
<time>2015-05-01T12:54:19Z</time>
</trkpt>
<trkpt lat="34.9842735" lon="33.4096626">
<ele>249.94</ele>
<time>2015-05-01T12:54:21Z</time>
</trkpt>
<trkpt lat="34.9843394" lon="33.4096224">
<ele>250.00</ele>
<time>2015-05-01T12:54:23Z</time>
</trkpt>
<trkpt lat="34.9844094" lon="33.4095789">
<ele>249.76</ele>
<time>2015-05-01T12:54:25Z</time>
</trkpt>
<trkpt lat="34.9844883" lon="33.4095333">
<ele>249.95</ele>
<time>2015-05-01T12:54:27Z</time>
</trkpt>
<trkpt lat="34.9845540" lon="33.4094901">
<ele>249.48</ele>
<time>2015-05-01T12:54:28Z</time>
</trkpt>
<trkpt lat="34.9845965" lon="33.4094664">
<ele>249.25</ele>
<time>2015-05-01T12:54:29Z</time>
</trkpt>
<trkpt lat="34.9846790" lon="33.4094241">
<ele>248.57</ele>
<time>2015-05-01T12:54:31Z</time>
</trkpt>
<trkpt lat="34.9847253" lon="33.4093991">
<ele>248.30</ele>
<time>2015-05-01T12:54:32Z</time>
</trkpt>
<trkpt lat="34.9847797" lon="33.4093709">
<ele>248.66</ele>
<time>2015-05-01T12:54:33Z</time>
</trkpt>
<trkpt lat="34.9848242" lon="33.4093416">
<ele>248.84</ele>
<time>2015-05-01T12:54:34Z</time>
</trkpt>
<trkpt lat="34.9849061" lon="33.4092956">
<ele>248.22</ele>
<time>2015-05-01T12:54:36Z</time>
</trkpt>
<trkpt lat="34.9849864" lon="33.4092531">
<ele>248.07</ele>
<time>2015-05-01T12:54:38Z</time>
</trkpt>
<trkpt lat="34.9850301" lon="33.4092276">
<ele>248.04</ele>
<time>2015-05-01T12:54:39Z</time>
</trkpt>
<trkpt lat="34.9850730" lon="33.4092012">
<ele>248.03</ele>
<time>2015-05-01T12:54:40Z</time>
</trkpt>
<trkpt lat="34.9851164" lon="33.4091790">
<ele>248.02</ele>
<time>2015-05-01T12:54:41Z</time>
</trkpt>
<trkpt lat="34.9851958" lon="33.4091384">
<ele>247.52</ele>
<time>2015-05-01T12:54:43Z</time>
</trkpt>
<trkpt lat="34.9852618" lon="33.4090949">
<ele>247.14</ele>
<time>2015-05-01T12:54:45Z</time>
</trkpt>
<trkpt lat="34.9853347" lon="33.4090525">
<ele>246.55</ele>
<time>2015-05-01T12:54:47Z</time>
</trkpt>
<trkpt lat="34.9854148" lon="33.4090136">
<ele>245.65</ele>
<time>2015-05-01T12:54:49Z</time>
</trkpt>
<trkpt lat="34.9854929" lon="33.4089704">
<ele>245.17</ele>
<time>2015-05-01T12:54:51Z</time>
</trkpt>
<trkpt lat="34.9855670" lon="33.4089288">
<ele>245.81</ele>
<time>2015-05-01T12:54:53Z</time>
</trkpt>
<trkpt lat="34.9856450" lon="33.4088897">
<ele>246.71</ele>
<time>2015-05-01T12:54:55Z</time>
</trkpt>
<trkpt lat="34.9856881" lon="33.4088674">
<ele>247.36</ele>
<time>2015-05-01T12:54:56Z</time>
</trkpt>
<trkpt lat="34.9857275" lon="33.4088406">
<ele>247.69</ele>
<time>2015-05-01T12:54:57Z</time>
</trkpt>
<trkpt lat="34.9857708" lon="33.4088139">
<ele>247.85</ele>
<time>2015-05-01T12:54:58Z</time>
</trkpt>
<trkpt lat="34.9858502" lon="33.4087649">
<ele>247.98</ele>
<time>2015-05-01T12:55:00Z</time>
</trkpt>
<trkpt lat="34.9858941" lon="33.4087424">
<ele>248.00</ele>
<time>2015-05-01T12:55:01Z</time>
</trkpt>
<trkpt lat="34.9859421" lon="33.4087242">
<ele>248.01</ele>
<time>2015-05-01T12:55:02Z</time>
</trkpt>
<trkpt lat="34.9860204" lon="33.4086743">
<ele>248.01</ele>
<time>2015-05-01T12:55:04Z</time>
</trkpt>
<trkpt lat="34.9860704" lon="33.4086546">
<ele>248.51</ele>
<time>2015-05-01T12:55:05Z</time>
</trkpt>
<trkpt lat="34.9861414" lon="33.4086167">
<ele>248.14</ele>
<time>2015-05-01T12:55:07Z</time>
</trkpt>
<trkpt lat="34.9862084" lon="33.4085717">
<ele>248.55</ele>
<time>2015-05-01T12:55:09Z</time>
</trkpt>
<trkpt lat="34.9862872" lon="33.4085313">
<ele>248.90</ele>
<time>2015-05-01T12:55:11Z</time>
</trkpt>
<trkpt lat="34.9863298" lon="33.4085068">
<ele>248.96</ele>
<time>2015-05-01T12:55:12Z</time>
</trkpt>
<trkpt lat="34.9863722" lon="33.4084779">
<ele>248.49</ele>
<time>2015-05-01T12:55:13Z</time>
</trkpt>
<trkpt lat="34.9864135" lon="33.4084498">
<ele>247.75</ele>
<time>2015-05-01T12:55:14Z</time>
</trkpt>
<trkpt lat="34.9865051" lon="33.4084061">
<ele>248.20</ele>
<time>2015-05-01T12:55:16Z</time>
</trkpt>
<trkpt lat="34.9865468" lon="33.4083836">
<ele>248.61</ele>
<time>2015-05-01T12:55:17Z</time>
</trkpt>
<trkpt lat="34.9866154" lon="33.4083480">
<ele>249.66</ele>
<time>2015-05-01T12:55:19Z</time>
</trkpt>
<trkpt lat="34.9866831" lon="33.4083093">
<ele>251.93</ele>
<time>2015-05-01T12:55:21Z</time>
</trkpt>
<trkpt lat="34.9867485" lon="33.4082677">
<ele>252.24</ele>
<time>2015-05-01T12:55:23Z</time>
</trkpt>
<trkpt lat="34.9868156" lon="33.4082276">
<ele>252.82</ele>
<time>2015-05-01T12:55:25Z</time>
</trkpt>
<trkpt lat="34.9868806" lon="33.4081924">
<ele>254.22</ele>
<time>2015-05-01T12:55:27Z</time>
</trkpt>
<trkpt lat="34.9869467" lon="33.4081560">
<ele>255.57</ele>
<time>2015-05-01T12:55:29Z</time>
</trkpt>
<trkpt lat="34.9870124" lon="33.4081182">
<ele>255.90</ele>
<time>2015-05-01T12:55:31Z</time>
</trkpt>
<trkpt lat="34.9870822" lon="33.4080792">
<ele>256.24</ele>
<time>2015-05-01T12:55:33Z</time>
</trkpt>
<trkpt lat="34.9871544" lon="33.4080386">
<ele>256.57</ele>
<time>2015-05-01T12:55:35Z</time>
</trkpt>
<trkpt lat="34.9872281" lon="33.4080000">
<ele>257.65</ele>
<time>2015-05-01T12:55:37Z</time>
</trkpt>
<trkpt lat="34.9872974" lon="33.4079660">
<ele>257.43</ele>
<time>2015-05-01T12:55:39Z</time>
</trkpt>
<trkpt lat="34.9873588" lon="33.4079348">
<ele>256.87</ele>
<time>2015-05-01T12:55:41Z</time>
</trkpt>
<trkpt lat="34.9874119" lon="33.4079054">
<ele>256.23</ele>
<time>2015-05-01T12:55:43Z</time>
</trkpt>
<trkpt lat="34.9874682" lon="33.4078753">
<ele>256.07</ele>
<time>2015-05-01T12:55:45Z</time>
</trkpt>
<trkpt lat="34.9875215" lon="33.4078491">
<ele>257.28</ele>
<time>2015-05-01T12:55:47Z</time>
</trkpt>
<trkpt lat="34.9875719" lon="33.4078204">
<ele>257.83</ele>
<time>2015-05-01T12:55:49Z</time>
</trkpt>
<trkpt lat="34.9876255" lon="33.4077958">
<ele>258.22</ele>
<time>2015-05-01T12:55:51Z</time>
</trkpt>
<trkpt lat="34.9876865" lon="33.4077655">
<ele>258.82</ele>
<time>2015-05-01T12:55:53Z</time>
</trkpt>
<trkpt lat="34.9877503" lon="33.4077320">
<ele>258.97</ele>
<time>2015-05-01T12:55:55Z</time>
</trkpt>
<trkpt lat="34.9878323" lon="33.4076924">
<ele>259.75</ele>
<time>2015-05-01T12:55:57Z</time>
</trkpt>
<trkpt lat="34.9878912" lon="33.4076570">
<ele>259.88</ele>
<time>2015-05-01T12:55:58Z</time>
</trkpt>
<trkpt lat="34.9879379" lon="33.4076306">
<ele>259.95</ele>
<time>2015-05-01T12:55:59Z</time>
</trkpt>
<trkpt lat="34.9879856" lon="33.4076116">
<ele>259.98</ele>
<time>2015-05-01T12:56:00Z</time>
</trkpt>
<trkpt lat="34.9880372" lon="33.4075929">
<ele>260.00</ele>
<time>2015-05-01T12:56:01Z</time>
</trkpt>
<trkpt lat="34.9880843" lon="33.4075759">
<ele>260.01</ele>
<time>2015-05-01T12:56:02Z</time>
</trkpt>
<trkpt lat="34.9881324" lon="33.4075536">
<ele>260.01</ele>
<time>2015-05-01T12:56:03Z</time>
</trkpt>
<trkpt lat="34.9881812" lon="33.4075355">
<ele>259.51</ele>
<time>2015-05-01T12:56:04Z</time>
</trkpt>
<trkpt lat="34.9882345" lon="33.4075219">
<ele>258.76</ele>
<time>2015-05-01T12:56:05Z</time>
</trkpt>
<trkpt lat="34.9882890" lon="33.4075068">
<ele>258.39</ele>
<time>2015-05-01T12:56:06Z</time>
</trkpt>
<trkpt lat="34.9883367" lon="33.4074836">
<ele>257.70</ele>
<time>2015-05-01T12:56:07Z</time>
</trkpt>
<trkpt lat="34.9883847" lon="33.4074671">
<ele>257.36</ele>
<time>2015-05-01T12:56:08Z</time>
</trkpt>
<trkpt lat="34.9884332" lon="33.4074631">
<ele>257.19</ele>
<time>2015-05-01T12:56:09Z</time>
</trkpt>
<trkpt lat="34.9884800" lon="33.4074407">
<ele>256.60</ele>
<time>2015-05-01T12:56:10Z</time>
</trkpt>
<trkpt lat="34.9885622" lon="33.4074202">
<ele>256.16</ele>
<time>2015-05-01T12:56:12Z</time>
</trkpt>
<trkpt lat="34.9886464" lon="33.4073956">
<ele>256.05</ele>
<time>2015-05-01T12:56:14Z</time>
</trkpt>
<trkpt lat="34.9887325" lon="33.4073644">
<ele>256.03</ele>
<time>2015-05-01T12:56:16Z</time>
</trkpt>
<trkpt lat="34.9887825" lon="33.4073514">
<ele>255.52</ele>
<time>2015-05-01T12:56:17Z</time>
</trkpt>
<trkpt lat="34.9888261" lon="33.4073332">
<ele>255.77</ele>
<time>2015-05-01T12:56:18Z</time>
</trkpt>
<trkpt lat="34.9888731" lon="33.4073226">
<ele>255.39</ele>
<time>2015-05-01T12:56:19Z</time>
</trkpt>
<trkpt lat="34.9889213" lon="33.4073070">
<ele>255.20</ele>
<time>2015-05-01T12:56:20Z</time>
</trkpt>
<trkpt lat="34.9889692" lon="33.4072881">
<ele>254.61</ele>
<time>2015-05-01T12:56:21Z</time>
</trkpt>
<trkpt lat="34.9890400" lon="33.4072699">
<ele>254.81</ele>
<time>2015-05-01T12:56:22Z</time>
</trkpt>
<trkpt lat="34.9890906" lon="33.4072480">
<ele>254.41</ele>
<time>2015-05-01T12:56:23Z</time>
</trkpt>
<trkpt lat="34.9891501" lon="33.4072205">
<ele>254.22</ele>
<time>2015-05-01T12:56:24Z</time>
</trkpt>
<trkpt lat="34.9892082" lon="33.4072034">
<ele>255.12</ele>
<time>2015-05-01T12:56:25Z</time>
</trkpt>
<trkpt lat="34.9892594" lon="33.4071928">
<ele>255.07</ele>
<time>2015-05-01T12:56:26Z</time>
</trkpt>
<trkpt lat="34.9893086" lon="33.4071700">
<ele>254.54</ele>
<time>2015-05-01T12:56:27Z</time>
</trkpt>
<trkpt lat="34.9894004" lon="33.4071423">
<ele>255.65</ele>
<time>2015-05-01T12:56:29Z</time>
</trkpt>
<trkpt lat="34.9894526" lon="33.4071174">
<ele>255.83</ele>
<time>2015-05-01T12:56:30Z</time>
</trkpt>
<trkpt lat="34.9895001" lon="33.4070945">
<ele>255.92</ele>
<time>2015-05-01T12:56:31Z</time>
</trkpt>
<trkpt lat="34.9895547" lon="33.4070690">
<ele>255.47</ele>
<time>2015-05-01T12:56:32Z</time>
</trkpt>
<trkpt lat="34.9895997" lon="33.4070506">
<ele>255.24</ele>
<time>2015-05-01T12:56:33Z</time>
</trkpt>
<trkpt lat="34.9896444" lon="33.4070349">
<ele>255.13</ele>
<time>2015-05-01T12:56:34Z</time>
</trkpt>
<trkpt lat="34.9896982" lon="33.4070210">
<ele>255.57</ele>
<time>2015-05-01T12:56:35Z</time>
</trkpt>
<trkpt lat="34.9897575" lon="33.4070076">
<ele>255.79</ele>
<time>2015-05-01T12:56:36Z</time>
</trkpt>
<trkpt lat="34.9898058" lon="33.4070011">
<ele>255.91</ele>
<time>2015-05-01T12:56:37Z</time>
</trkpt>
<trkpt lat="34.9898932" lon="33.4069759">
<ele>256.49</ele>
<time>2015-05-01T12:56:39Z</time>
</trkpt>
<trkpt lat="34.9899381" lon="33.4069643">
<ele>256.75</ele>
<time>2015-05-01T12:56:40Z</time>
</trkpt>
<trkpt lat="34.9900217" lon="33.4069501">
<ele>257.45</ele>
<time>2015-05-01T12:56:42Z</time>
</trkpt>
<trkpt lat="34.9900954" lon="33.4069216">
<ele>257.87</ele>
<time>2015-05-01T12:56:44Z</time>
</trkpt>
<trkpt lat="34.9901683" lon="33.4068987">
<ele>257.23</ele>
<time>2015-05-01T12:56:46Z</time>
</trkpt>
<trkpt lat="34.9902148" lon="33.4068846">
<ele>256.62</ele>
<time>2015-05-01T12:56:47Z</time>
</trkpt>
<trkpt lat="34.9902632" lon="33.4068679">
<ele>256.32</ele>
<time>2015-05-01T12:56:48Z</time>
</trkpt>
<trkpt lat="34.9903100" lon="33.4068406">
<ele>256.17</ele>
<time>2015-05-01T12:56:49Z</time>
</trkpt>
<trkpt lat="34.9903561" lon="33.4068150">
<ele>255.59</ele>
<time>2015-05-01T12:56:50Z</time>
</trkpt>
<trkpt lat="34.9904079" lon="33.4067904">
<ele>255.30</ele>
<time>2015-05-01T12:56:51Z</time>
</trkpt>
<trkpt lat="34.9904623" lon="33.4067630">
<ele>255.16</ele>
<time>2015-05-01T12:56:52Z</time>
</trkpt>
<trkpt lat="34.9905071" lon="33.4067496">
<ele>256.09</ele>
<time>2015-05-01T12:56:53Z</time>
</trkpt>
<trkpt lat="34.9905832" lon="33.4067252">
<ele>256.03</ele>
<time>2015-05-01T12:56:55Z</time>
</trkpt>
<trkpt lat="34.9906629" lon="33.4066835">
<ele>256.77</ele>
<time>2015-05-01T12:56:57Z</time>
</trkpt>
<trkpt lat="34.9907371" lon="33.4066405">
<ele>256.20</ele>
<time>2015-05-01T12:56:59Z</time>
</trkpt>
<trkpt lat="34.9907793" lon="33.4066181">
<ele>256.11</ele>
<time>2015-05-01T12:57:00Z</time>
</trkpt>
<trkpt lat="34.9908236" lon="33.4065903">
<ele>256.06</ele>
<time>2015-05-01T12:57:01Z</time>
</trkpt>
<trkpt lat="34.9908754" lon="33.4065712">
<ele>256.54</ele>
<time>2015-05-01T12:57:02Z</time>
</trkpt>
<trkpt lat="34.9909622" lon="33.4065241">
<ele>256.90</ele>
<time>2015-05-01T12:57:04Z</time>
</trkpt>
<trkpt lat="34.9910066" lon="33.4065079">
<ele>256.96</ele>
<time>2015-05-01T12:57:05Z</time>
</trkpt>
<trkpt lat="34.9910811" lon="33.4064545">
<ele>256.50</ele>
<time>2015-05-01T12:57:07Z</time>
</trkpt>
<trkpt lat="34.9911514" lon="33.4064089">
<ele>257.89</ele>
<time>2015-05-01T12:57:09Z</time>
</trkpt>
<trkpt lat="34.9912299" lon="33.4063750">
<ele>258.73</ele>
<time>2015-05-01T12:57:11Z</time>
</trkpt>
<trkpt lat="34.9913139" lon="33.4063332">
<ele>258.95</ele>
<time>2015-05-01T12:57:13Z</time>
</trkpt>
<trkpt lat="34.9913585" lon="33.4063093">
<ele>258.98</ele>
<time>2015-05-01T12:57:14Z</time>
</trkpt>
<trkpt lat="34.9914000" lon="33.4062804">
<ele>259.00</ele>
<time>2015-05-01T12:57:15Z</time>
</trkpt>
<trkpt lat="34.9914532" lon="33.4062579">
<ele>259.01</ele>
<time>2015-05-01T12:57:16Z</time>
</trkpt>
<trkpt lat="34.9914935" lon="33.4062328">
<ele>259.01</ele>
<time>2015-05-01T12:57:17Z</time>
</trkpt>
<trkpt lat="34.9915628" lon="33.4061908">
<ele>259.51</ele>
<time>2015-05-01T12:57:19Z</time>
</trkpt>
<trkpt lat="34.9916123" lon="33.4061552">
<ele>260.39</ele>
<time>2015-05-01T12:57:21Z</time>
</trkpt>
<trkpt lat="34.9916739" lon="33.4061102">
<ele>261.36</ele>
<time>2015-05-01T12:57:23Z</time>
</trkpt>
<trkpt lat="34.9917469" lon="33.4060766">
<ele>261.85</ele>
<time>2015-05-01T12:57:25Z</time>
</trkpt>
<trkpt lat="34.9918221" lon="33.4060339">
<ele>261.97</ele>
<time>2015-05-01T12:57:27Z</time>
</trkpt>
<trkpt lat="34.9918989" lon="33.4059900">
<ele>261.26</ele>
<time>2015-05-01T12:57:29Z</time>
</trkpt>
<trkpt lat="34.9919778" lon="33.4059475">
<ele>260.33</ele>
<time>2015-05-01T12:57:31Z</time>
</trkpt>
<trkpt lat="34.9920192" lon="33.4059248">
<ele>259.67</ele>
<time>2015-05-01T12:57:32Z</time>
</trkpt>
<trkpt lat="34.9920904" lon="33.4058829">
<ele>259.68</ele>
<time>2015-05-01T12:57:34Z</time>
</trkpt>
<trkpt lat="34.9921522" lon="33.4058442">
<ele>259.18</ele>
<time>2015-05-01T12:57:36Z</time>
</trkpt>
<trkpt lat="34.9922043" lon="33.4058215">
<ele>258.81</ele>
<time>2015-05-01T12:57:38Z</time>
</trkpt>
<trkpt lat="34.9922507" lon="33.4058073">
<ele>258.96</ele>
<time>2015-05-01T12:57:40Z</time>
</trkpt>
<trkpt lat="34.9923122" lon="33.4057806">
<ele>259.01</ele>
<time>2015-05-01T12:57:43Z</time>
</trkpt>
<trkpt lat="34.9923571" lon="33.4057545">
<ele>259.01</ele>
<time>2015-05-01T12:57:45Z</time>
</trkpt>
<trkpt lat="34.9924046" lon="33.4057205">
<ele>257.77</ele>
<time>2015-05-01T12:57:47Z</time>
</trkpt>
<trkpt lat="34.9924628" lon="33.4056831">
<ele>257.95</ele>
<time>2015-05-01T12:57:49Z</time>
</trkpt>
<trkpt lat="34.9925258" lon="33.4056507">
<ele>258.00</ele>
<time>2015-05-01T12:57:51Z</time>
</trkpt>
<trkpt lat="34.9925877" lon="33.4056136">
<ele>258.01</ele>
<time>2015-05-01T12:57:53Z</time>
</trkpt>
<trkpt lat="34.9926430" lon="33.4055820">
<ele>257.52</ele>
<time>2015-05-01T12:57:55Z</time>
</trkpt>
<trkpt lat="34.9927037" lon="33.4055571">
<ele>259.64</ele>
<time>2015-05-01T12:57:57Z</time>
</trkpt>
<trkpt lat="34.9927669" lon="33.4055328">
<ele>260.92</ele>
<time>2015-05-01T12:57:59Z</time>
</trkpt>
<trkpt lat="34.9928334" lon="33.4055020">
<ele>263.24</ele>
<time>2015-05-01T12:58:01Z</time>
</trkpt>
<trkpt lat="34.9929004" lon="33.4054673">
<ele>263.82</ele>
<time>2015-05-01T12:58:03Z</time>
</trkpt>
<trkpt lat="34.9929702" lon="33.4054285">
<ele>264.47</ele>
<time>2015-05-01T12:58:05Z</time>
</trkpt>
<trkpt lat="34.9930383" lon="33.4053835">
<ele>263.63</ele>
<time>2015-05-01T12:58:07Z</time>
</trkpt>
<trkpt lat="34.9931075" lon="33.4053414">
<ele>263.42</ele>
<time>2015-05-01T12:58:09Z</time>
</trkpt>
<trkpt lat="34.9931759" lon="33.4052973">
<ele>262.12</ele>
<time>2015-05-01T12:58:11Z</time>
</trkpt>
<trkpt lat="34.9932463" lon="33.4052525">
<ele>262.54</ele>
<time>2015-05-01T12:58:13Z</time>
</trkpt>
<trkpt lat="34.9933151" lon="33.4052178">
<ele>262.90</ele>
<time>2015-05-01T12:58:15Z</time>
</trkpt>
<trkpt lat="34.9933806" lon="33.4051809">
<ele>262.99</ele>
<time>2015-05-01T12:58:17Z</time>
</trkpt>
<trkpt lat="34.9934418" lon="33.4051496">
<ele>263.76</ele>
<time>2015-05-01T12:58:19Z</time>
</trkpt>
<trkpt lat="34.9935007" lon="33.4051204">
<ele>264.45</ele>
<time>2015-05-01T12:58:21Z</time>
</trkpt>
<trkpt lat="34.9935534" lon="33.4050919">
<ele>265.62</ele>
<time>2015-05-01T12:58:23Z</time>
</trkpt>
<trkpt lat="34.9936088" lon="33.4050661">
<ele>265.42</ele>
<time>2015-05-01T12:58:25Z</time>
</trkpt>
<trkpt lat="34.9936657" lon="33.4050352">
<ele>265.12</ele>
<time>2015-05-01T12:58:27Z</time>
</trkpt>
<trkpt lat="34.9937177" lon="33.4050026">
<ele>264.29</ele>
<time>2015-05-01T12:58:29Z</time>
</trkpt>
<trkpt lat="34.9937695" lon="33.4049711">
<ele>264.08</ele>
<time>2015-05-01T12:58:31Z</time>
</trkpt>
<trkpt lat="34.9938226" lon="33.4049410">
<ele>263.53</ele>
<time>2015-05-01T12:58:33Z</time>
</trkpt>
<trkpt lat="34.9938804" lon="33.4049083">
<ele>265.40</ele>
<time>2015-05-01T12:58:35Z</time>
</trkpt>
<trkpt lat="34.9939381" lon="33.4048732">
<ele>264.61</ele>
<time>2015-05-01T12:58:37Z</time>
</trkpt>
<trkpt lat="34.9939950" lon="33.4048398">
<ele>264.16</ele>
<time>2015-05-01T12:58:39Z</time>
</trkpt>
<trkpt lat="34.9940504" lon="33.4048030">
<ele>262.80</ele>
<time>2015-05-01T12:58:41Z</time>
</trkpt>
<trkpt lat="34.9941027" lon="33.4047621">
<ele>261.46</ele>
<time>2015-05-01T12:58:43Z</time>
</trkpt>
<trkpt lat="34.9941606" lon="33.4047281">
<ele>262.13</ele>
<time>2015-05-01T12:58:45Z</time>
</trkpt>
<trkpt lat="34.9942212" lon="33.4047009">
<ele>262.04</ele>
<time>2015-05-01T12:58:47Z</time>
</trkpt>
<trkpt lat="34.9942834" lon="33.4046675">
<ele>261.02</ele>
<time>2015-05-01T12:58:49Z</time>
</trkpt>
<trkpt lat="34.9943410" lon="33.4046278">
<ele>262.02</ele>
<time>2015-05-01T12:58:51Z</time>
</trkpt>
<trkpt lat="34.9943984" lon="33.4045926">
<ele>262.77</ele>
<time>2015-05-01T12:58:53Z</time>
</trkpt>
<trkpt lat="34.9944514" lon="33.4045659">
<ele>262.95</ele>
<time>2015-05-01T12:58:55Z</time>
</trkpt>
<trkpt lat="34.9944926" lon="33.4045377">
<ele>262.25</ele>
<time>2015-05-01T12:58:57Z</time>
</trkpt>
<trkpt lat="34.9945530" lon="33.4045031">
<ele>264.17</ele>
<time>2015-05-01T12:59:00Z</time>
</trkpt>
<trkpt lat="34.9945943" lon="33.4044712">
<ele>264.80</ele>
<time>2015-05-01T12:59:02Z</time>
</trkpt>
<trkpt lat="34.9946327" lon="33.4044285">
<ele>264.71</ele>
<time>2015-05-01T12:59:04Z</time>
</trkpt>
<trkpt lat="34.9946674" lon="33.4043844">
<ele>264.44</ele>
<time>2015-05-01T12:59:06Z</time>
</trkpt>
<trkpt lat="34.9947055" lon="33.4043454">
<ele>265.37</ele>
<time>2015-05-01T12:59:08Z</time>
</trkpt>
<trkpt lat="34.9947540" lon="33.4043328">
<ele>266.36</ele>
<time>2015-05-01T12:59:10Z</time>
</trkpt>
<trkpt lat="34.9948070" lon="33.4043160">
<ele>267.35</ele>
<time>2015-05-01T12:59:12Z</time>
</trkpt>
<trkpt lat="34.9948573" lon="33.4042805">
<ele>269.10</ele>
<time>2015-05-01T12:59:14Z</time>
</trkpt>
<trkpt lat="34.9949076" lon="33.4042378">
<ele>269.79</ele>
<time>2015-05-01T12:59:16Z</time>
</trkpt>
<trkpt lat="34.9949597" lon="33.4041889">
<ele>268.71</ele>
<time>2015-05-01T12:59:18Z</time>
</trkpt>
<trkpt lat="34.9950166" lon="33.4041432">
<ele>267.94</ele>
<time>2015-05-01T12:59:20Z</time>
</trkpt>
<trkpt lat="34.9950775" lon="33.4040933">
<ele>267.50</ele>
<time>2015-05-01T12:59:22Z</time>
</trkpt>
<trkpt lat="34.9951444" lon="33.4040347">
<ele>267.89</ele>
<time>2015-05-01T12:59:24Z</time>
</trkpt>
<trkpt lat="34.9952078" lon="33.4039779">
<ele>267.23</ele>
<time>2015-05-01T12:59:26Z</time>
</trkpt>
<trkpt lat="34.9952673" lon="33.4039321">
<ele>267.57</ele>
<time>2015-05-01T12:59:28Z</time>
</trkpt>
<trkpt lat="34.9953183" lon="33.4038945">
<ele>267.15</ele>
<time>2015-05-01T12:59:30Z</time>
</trkpt>
<trkpt lat="34.9953678" lon="33.4038505">
<ele>266.30</ele>
<time>2015-05-01T12:59:32Z</time>
</trkpt>
<trkpt lat="34.9954215" lon="33.4038081">
<ele>266.09</ele>
<time>2015-05-01T12:59:34Z</time>
</trkpt>
<trkpt lat="34.9954824" lon="33.4037661">
<ele>266.78</ele>
<time>2015-05-01T12:59:36Z</time>
</trkpt>
<trkpt lat="34.9955446" lon="33.4037203">
<ele>266.46</ele>
<time>2015-05-01T12:59:38Z</time>
</trkpt>
<trkpt lat="34.9956062" lon="33.4036720">
<ele>267.13</ele>
<time>2015-05-01T12:59:40Z</time>
</trkpt>
<trkpt lat="34.9956650" lon="33.4036249">
<ele>267.79</ele>
<time>2015-05-01T12:59:42Z</time>
</trkpt>
<trkpt lat="34.9957226" lon="33.4035833">
<ele>267.46</ele>
<time>2015-05-01T12:59:44Z</time>
</trkpt>
<trkpt lat="34.9957799" lon="33.4035408">
<ele>266.88</ele>
<time>2015-05-01T12:59:46Z</time>
</trkpt>
<trkpt lat="34.9958379" lon="33.4034933">
<ele>265.48</ele>
<time>2015-05-01T12:59:48Z</time>
</trkpt>
<trkpt lat="34.9959002" lon="33.4034414">
<ele>263.88</ele>
<time>2015-05-01T12:59:50Z</time>
</trkpt>
<trkpt lat="34.9959868" lon="33.4033771">
<ele>263.98</ele>
<time>2015-05-01T12:59:52Z</time>
</trkpt>
<trkpt lat="34.9960504" lon="33.4033240">
<ele>264.01</ele>
<time>2015-05-01T12:59:54Z</time>
</trkpt>
<trkpt lat="34.9961054" lon="33.4032794">
<ele>263.51</ele>
<time>2015-05-01T12:59:56Z</time>
</trkpt>
<trkpt lat="34.9961752" lon="33.4032337">
<ele>263.64</ele>
<time>2015-05-01T12:59:58Z</time>
</trkpt>
<trkpt lat="34.9962476" lon="33.4031861">
<ele>264.67</ele>
<time>2015-05-01T13:00:00Z</time>
</trkpt>
<trkpt lat="34.9963208" lon="33.4031323">
<ele>266.43</ele>
<time>2015-05-01T13:00:02Z</time>
</trkpt>
<trkpt lat="34.9963583" lon="33.4031019">
<ele>266.22</ele>
<time>2015-05-01T13:00:03Z</time>
</trkpt>
<trkpt lat="34.9964302" lon="33.4030319">
<ele>266.07</ele>
<time>2015-05-01T13:00:05Z</time>
</trkpt>
<trkpt lat="34.9965057" lon="33.4029791">
<ele>267.03</ele>
<time>2015-05-01T13:00:07Z</time>
</trkpt>
<trkpt lat="34.9965669" lon="33.4029277">
<ele>268.27</ele>
<time>2015-05-01T13:00:09Z</time>
</trkpt>
<trkpt lat="34.9966260" lon="33.4028824">
<ele>268.58</ele>
<time>2015-05-01T13:00:11Z</time>
</trkpt>
<trkpt lat="34.9966929" lon="33.4028356">
<ele>268.91</ele>
<time>2015-05-01T13:00:13Z</time>
</trkpt>
<trkpt lat="34.9967325" lon="33.4028070">
<ele>269.46</ele>
<time>2015-05-01T13:00:14Z</time>
</trkpt>
<trkpt lat="34.9968036" lon="33.4027529">
<ele>269.88</ele>
<time>2015-05-01T13:00:16Z</time>
</trkpt>
<trkpt lat="34.9968797" lon="33.4027022">
<ele>271.23</ele>
<time>2015-05-01T13:00:18Z</time>
</trkpt>
<trkpt lat="34.9969195" lon="33.4026700">
<ele>272.12</ele>
<time>2015-05-01T13:00:19Z</time>
</trkpt>
<trkpt lat="34.9969830" lon="33.4026265">
<ele>272.79</ele>
<time>2015-05-01T13:00:21Z</time>
</trkpt>
<trkpt lat="34.9970310" lon="33.4025824">
<ele>272.96</ele>
<time>2015-05-01T13:00:23Z</time>
</trkpt>
<trkpt lat="34.9970866" lon="33.4025381">
<ele>271.76</ele>
<time>2015-05-01T13:00:26Z</time>
</trkpt>
<trkpt lat="34.9971290" lon="33.4025030">
<ele>271.20</ele>
<time>2015-05-01T13:00:28Z</time>
</trkpt>
<trkpt lat="34.9971737" lon="33.4024679">
<ele>271.81</ele>
<time>2015-05-01T13:00:30Z</time>
</trkpt>
<trkpt lat="34.9972263" lon="33.4024344">
<ele>271.47</ele>
<time>2015-05-01T13:00:32Z</time>
</trkpt>
<trkpt lat="34.9972821" lon="33.4023967">
<ele>271.88</ele>
<time>2015-05-01T13:00:34Z</time>
</trkpt>
<trkpt lat="34.9973362" lon="33.4023502">
<ele>271.23</ele>
<time>2015-05-01T13:00:36Z</time>
</trkpt>
<trkpt lat="34.9973896" lon="33.4023022">
<ele>271.07</ele>
<time>2015-05-01T13:00:38Z</time>
</trkpt>
<trkpt lat="34.9974474" lon="33.4022514">
<ele>269.78</ele>
<time>2015-05-01T13:00:40Z</time>
</trkpt>
<trkpt lat="34.9975058" lon="33.4022003">
<ele>270.71</ele>
<time>2015-05-01T13:00:42Z</time>
</trkpt>
<trkpt lat="34.9975611" lon="33.4021418">
<ele>270.19</ele>
<time>2015-05-01T13:00:44Z</time>
</trkpt>
<trkpt lat="34.9976149" lon="33.4020821">
<ele>270.06</ele>
<time>2015-05-01T13:00:46Z</time>
</trkpt>
<trkpt lat="34.9976685" lon="33.4020185">
<ele>269.53</ele>
<time>2015-05-01T13:00:48Z</time>
</trkpt>
<trkpt lat="34.9977178" lon="33.4019564">
<ele>269.89</ele>
<time>2015-05-01T13:00:50Z</time>
</trkpt>
<trkpt lat="34.9977654" lon="33.4019004">
<ele>270.74</ele>
<time>2015-05-01T13:00:52Z</time>
</trkpt>
<trkpt lat="34.9978073" lon="33.4018420">
<ele>270.95</ele>
<time>2015-05-01T13:00:54Z</time>
</trkpt>
<trkpt lat="34.9978542" lon="33.4017797">
<ele>271.25</ele>
<time>2015-05-01T13:00:56Z</time>
</trkpt>
<trkpt lat="34.9979052" lon="33.4017125">
<ele>271.07</ele>
<time>2015-05-01T13:00:58Z</time>
</trkpt>
<trkpt lat="34.9979592" lon="33.4016381">
<ele>271.03</ele>
<time>2015-05-01T13:01:00Z</time>
</trkpt>
<trkpt lat="34.9980155" lon="33.4015608">
<ele>270.52</ele>
<time>2015-05-01T13:01:02Z</time>
</trkpt>
<trkpt lat="34.9980709" lon="33.4014816">
<ele>269.64</ele>
<time>2015-05-01T13:01:04Z</time>
</trkpt>
<trkpt lat="34.9981216" lon="33.4014016">
<ele>269.17</ele>
<time>2015-05-01T13:01:06Z</time>
</trkpt>
<trkpt lat="34.9981734" lon="33.4013195">
<ele>268.31</ele>
<time>2015-05-01T13:01:08Z</time>
</trkpt>
<trkpt lat="34.9981997" lon="33.4012669">
<ele>267.66</ele>
<time>2015-05-01T13:01:09Z</time>
</trkpt>
<trkpt lat="34.9982277" lon="33.4012192">
<ele>267.34</ele>
<time>2015-05-01T13:01:10Z</time>
</trkpt>
<trkpt lat="34.9982591" lon="33.4011718">
<ele>267.68</ele>
<time>2015-05-01T13:01:11Z</time>
</trkpt>
<trkpt lat="34.9983054" lon="33.4010944">
<ele>267.93</ele>
<time>2015-05-01T13:01:13Z</time>
</trkpt>
<trkpt lat="34.9983425" lon="33.4010284">
<ele>268.49</ele>
<time>2015-05-01T13:01:15Z</time>
</trkpt>
<trkpt lat="34.9983822" lon="33.4009707">
<ele>268.14</ele>
<time>2015-05-01T13:01:17Z</time>
</trkpt>
<trkpt lat="34.9984203" lon="33.4009042">
<ele>268.05</ele>
<time>2015-05-01T13:01:19Z</time>
</trkpt>
<trkpt lat="34.9984491" lon="33.4008589">
<ele>268.53</ele>
<time>2015-05-01T13:01:20Z</time>
</trkpt>
<trkpt lat="34.9985069" lon="33.4007702">
<ele>270.39</ele>
<time>2015-05-01T13:01:22Z</time>
</trkpt>
<trkpt lat="34.9985352" lon="33.4007241">
<ele>270.71</ele>
<time>2015-05-01T13:01:23Z</time>
</trkpt>
<trkpt lat="34.9985651" lon="33.4006777">
<ele>271.36</ele>
<time>2015-05-01T13:01:24Z</time>
</trkpt>
<trkpt lat="34.9985909" lon="33.4006319">
<ele>271.69</ele>
<time>2015-05-01T13:01:25Z</time>
</trkpt>
<trkpt lat="34.9986286" lon="33.4005840">
<ele>272.85</ele>
<time>2015-05-01T13:01:26Z</time>
</trkpt>
<trkpt lat="34.9986691" lon="33.4005025">
<ele>273.73</ele>
<time>2015-05-01T13:01:28Z</time>
</trkpt>
<trkpt lat="34.9987176" lon="33.4004269">
<ele>275.44</ele>
<time>2015-05-01T13:01:30Z</time>
</trkpt>
<trkpt lat="34.9987524" lon="33.4003493">
<ele>275.87</ele>
<time>2015-05-01T13:01:32Z</time>
</trkpt>
<trkpt lat="34.9987988" lon="33.4002681">
<ele>276.73</ele>
<time>2015-05-01T13:01:34Z</time>
</trkpt>
<trkpt lat="34.9988487" lon="33.4001793">
<ele>276.19</ele>
<time>2015-05-01T13:01:36Z</time>
</trkpt>
<trkpt lat="34.9989098" lon="33.4000975">
<ele>273.31</ele>
<time>2015-05-01T13:01:38Z</time>
</trkpt>
<trkpt lat="34.9989572" lon="33.4000230">
<ele>270.34</ele>
<time>2015-05-01T13:01:40Z</time>
</trkpt>
<trkpt lat="34.9989918" lon="33.3999498">
<ele>269.35</ele>
<time>2015-05-01T13:01:42Z</time>
</trkpt>
<trkpt lat="34.9990232" lon="33.3999094">
<ele>269.18</ele>
<time>2015-05-01T13:01:43Z</time>
</trkpt>
<trkpt lat="34.9990723" lon="33.3998308">
<ele>269.81</ele>
<time>2015-05-01T13:01:45Z</time>
</trkpt>
<trkpt lat="34.9991248" lon="33.3997466">
<ele>270.71</ele>
<time>2015-05-01T13:01:47Z</time>
</trkpt>
<trkpt lat="34.9991518" lon="33.3996994">
<ele>270.86</ele>
<time>2015-05-01T13:01:48Z</time>
</trkpt>
<trkpt lat="34.9991984" lon="33.3996056">
<ele>270.98</ele>
<time>2015-05-01T13:01:50Z</time>
</trkpt>
<trkpt lat="34.9992248" lon="33.3995601">
<ele>271.00</ele>
<time>2015-05-01T13:01:51Z</time>
</trkpt>
<trkpt lat="34.9992515" lon="33.3995107">
<ele>271.01</ele>
<time>2015-05-01T13:01:52Z</time>
</trkpt>
<trkpt lat="34.9992964" lon="33.3994296">
<ele>271.51</ele>
<time>2015-05-01T13:01:54Z</time>
</trkpt>
<trkpt lat="34.9993382" lon="33.3993382">
<ele>271.89</ele>
<time>2015-05-01T13:01:56Z</time>
</trkpt>
<trkpt lat="34.9993630" lon="33.3992894">
<ele>271.95</ele>
<time>2015-05-01T13:01:57Z</time>
</trkpt>
<trkpt lat="34.9993943" lon="33.3992482">
<ele>271.98</ele>
<time>2015-05-01T13:01:58Z</time>
</trkpt>
<trkpt lat="34.9994254" lon="33.3992080">
<ele>272.00</ele>
<time>2015-05-01T13:01:59Z</time>
</trkpt>
<trkpt lat="34.9994728" lon="33.3991263">
<ele>272.51</ele>
<time>2015-05-01T13:02:01Z</time>
</trkpt>
<trkpt lat="34.9995145" lon="33.3990510">
<ele>272.39</ele>
<time>2015-05-01T13:02:03Z</time>
</trkpt>
<trkpt lat="34.9995391" lon="33.3989828">
<ele>272.11</ele>
<time>2015-05-01T13:02:05Z</time>
</trkpt>
<trkpt lat="34.9995501" lon="33.3989254">
<ele>272.78</ele>
<time>2015-05-01T13:02:08Z</time>
</trkpt>
<trkpt lat="34.9996021" lon="33.3988702">
<ele>272.24</ele>
<time>2015-05-01T13:02:11Z</time>
</trkpt>
<trkpt lat="34.9996399" lon="33.3988050">
<ele>272.07</ele>
<time>2015-05-01T13:02:13Z</time>
</trkpt>
<trkpt lat="34.9996805" lon="33.3987293">
<ele>271.28</ele>
<time>2015-05-01T13:02:15Z</time>
</trkpt>
<trkpt lat="34.9997223" lon="33.3986513">
<ele>271.58</ele>
<time>2015-05-01T13:02:17Z</time>
</trkpt>
<trkpt lat="34.9997680" lon="33.3985700">
<ele>270.66</ele>
<time>2015-05-01T13:02:19Z</time>
</trkpt>
<trkpt lat="34.9998019" lon="33.3985059">
<ele>270.34</ele>
<time>2015-05-01T13:02:20Z</time>
</trkpt>
<trkpt lat="34.9998326" lon="33.3984657">
<ele>270.68</ele>
<time>2015-05-01T13:02:21Z</time>
</trkpt>
<trkpt lat="34.9998843" lon="33.3983752">
<ele>270.93</ele>
<time>2015-05-01T13:02:23Z</time>
</trkpt>
<trkpt lat="34.9999105" lon="33.3983250">
<ele>270.97</ele>
<time>2015-05-01T13:02:24Z</time>
</trkpt>
<trkpt lat="34.9999398" lon="33.3982803">
<ele>270.99</ele>
<time>2015-05-01T13:02:25Z</time>
</trkpt>
<trkpt lat="34.9999649" lon="33.3982314">
<ele>270.51</ele>
<time>2015-05-01T13:02:26Z</time>
</trkpt>
<trkpt lat="35.0000174" lon="33.3981554">
<ele>269.14</ele>
<time>2015-05-01T13:02:28Z</time>
</trkpt>
<trkpt lat="35.0000427" lon="33.3981046">
<ele>268.58</ele>
<time>2015-05-01T13:02:29Z</time>
</trkpt>
<trkpt lat="35.0000835" lon="33.3980508">
<ele>268.80</ele>
<time>2015-05-01T13:02:30Z</time>
</trkpt>
<trkpt lat="35.0001416" lon="33.3979556">
<ele>268.21</ele>
<time>2015-05-01T13:02:32Z</time>
</trkpt>
<trkpt lat="35.0001821" lon="33.3979018">
<ele>268.61</ele>
<time>2015-05-01T13:02:33Z</time>
</trkpt>
<trkpt lat="35.0002345" lon="33.3978072">
<ele>268.17</ele>
<time>2015-05-01T13:02:35Z</time>
</trkpt>
<trkpt lat="35.0002665" lon="33.3977554">
<ele>268.59</ele>
<time>2015-05-01T13:02:36Z</time>
</trkpt>
<trkpt lat="35.0003145" lon="33.3976563">
<ele>268.91</ele>
<time>2015-05-01T13:02:38Z</time>
</trkpt>
<trkpt lat="35.0003358" lon="33.3976075">
<ele>268.96</ele>
<time>2015-05-01T13:02:39Z</time>
</trkpt>
<trkpt lat="35.0003657" lon="33.3975579">
<ele>268.99</ele>
<time>2015-05-01T13:02:40Z</time>
</trkpt>
<trkpt lat="35.0003900" lon="33.3975062">
<ele>269.00</ele>
<time>2015-05-01T13:02:41Z</time>
</trkpt>
<trkpt lat="35.0004166" lon="33.3974566">
<ele>269.01</ele>
<time>2015-05-01T13:02:42Z</time>
</trkpt>
<trkpt lat="35.0004453" lon="33.3974120">
<ele>269.51</ele>
<time>2015-05-01T13:02:43Z</time>
</trkpt>
<trkpt lat="35.0004781" lon="33.3973732">
<ele>269.76</ele>
<time>2015-05-01T13:02:44Z</time>
</trkpt>
<trkpt lat="35.0005258" lon="33.3972798">
<ele>269.95</ele>
<time>2015-05-01T13:02:46Z</time>
</trkpt>
<trkpt lat="35.0005519" lon="33.3972274">
<ele>269.48</ele>
<time>2015-05-01T13:02:47Z</time>
</trkpt>
<trkpt lat="35.0005790" lon="33.3971768">
<ele>269.75</ele>
<time>2015-05-01T13:02:48Z</time>
</trkpt>
<trkpt lat="35.0006134" lon="33.3971262">
<ele>269.38</ele>
<time>2015-05-01T13:02:49Z</time>
</trkpt>
<trkpt lat="35.0006583" lon="33.3970439">
<ele>269.11</ele>
<time>2015-05-01T13:02:51Z</time>
</trkpt>
<trkpt lat="35.0006902" lon="33.3969928">
<ele>269.06</ele>
<time>2015-05-01T13:02:52Z</time>
</trkpt>
<trkpt lat="35.0007285" lon="33.3969519">
<ele>269.04</ele>
<time>2015-05-01T13:02:53Z</time>
</trkpt>
<trkpt lat="35.0007729" lon="33.3968706">
<ele>269.27</ele>
<time>2015-05-01T13:02:55Z</time>
</trkpt>
<trkpt lat="35.0007990" lon="33.3968220">
<ele>269.14</ele>
<time>2015-05-01T13:02:56Z</time>
</trkpt>
<trkpt lat="35.0008419" lon="33.3967348">
<ele>268.55</ele>
<time>2015-05-01T13:02:58Z</time>
</trkpt>
<trkpt lat="35.0008686" lon="33.3966893">
<ele>268.28</ele>
<time>2015-05-01T13:02:59Z</time>
</trkpt>
<trkpt lat="35.0009173" lon="33.3966052">
<ele>268.58</ele>
<time>2015-05-01T13:03:01Z</time>
</trkpt>
<trkpt lat="35.0009620" lon="33.3965214">
<ele>269.16</ele>
<time>2015-05-01T13:03:03Z</time>
</trkpt>
<trkpt lat="35.0009883" lon="33.3964750">
<ele>269.09</ele>
<time>2015-05-01T13:03:04Z</time>
</trkpt>
<trkpt lat="35.0010117" lon="33.3964271">
<ele>269.05</ele>
<time>2015-05-01T13:03:05Z</time>
</trkpt>
<trkpt lat="35.0010447" lon="33.3963722">
<ele>269.03</ele>
<time>2015-05-01T13:03:06Z</time>
</trkpt>
<trkpt lat="35.0010706" lon="33.3963244">
<ele>268.52</ele>
<time>2015-05-01T13:03:07Z</time>
</trkpt>
<trkpt lat="35.0010999" lon="33.3962734">
<ele>268.77</ele>
<time>2015-05-01T13:03:08Z</time>
</trkpt>
<trkpt lat="35.0011335" lon="33.3962233">
<ele>268.89</ele>
<time>2015-05-01T13:03:09Z</time>
</trkpt>
<trkpt lat="35.0011630" lon="33.3961730">
<ele>268.95</ele>
<time>2015-05-01T13:03:10Z</time>
</trkpt>
<trkpt lat="35.0011862" lon="33.3961210">
<ele>268.99</ele>
<time>2015-05-01T13:03:11Z</time>
</trkpt>
<trkpt lat="35.0012148" lon="33.3960705">
<ele>269.00</ele>
<time>2015-05-01T13:03:12Z</time>
</trkpt>
<trkpt lat="35.0012402" lon="33.3960165">
<ele>269.01</ele>
<time>2015-05-01T13:03:13Z</time>
</trkpt>
<trkpt lat="35.0012682" lon="33.3959701">
<ele>269.51</ele>
<time>2015-05-01T13:03:14Z</time>
</trkpt>
<trkpt lat="35.0012923" lon="33.3959208">
<ele>269.76</ele>
<time>2015-05-01T13:03:15Z</time>
</trkpt>
<trkpt lat="35.0013231" lon="33.3958802">
<ele>269.89</ele>
<time>2015-05-01T13:03:16Z</time>
</trkpt>
<trkpt lat="35.0013525" lon="33.3958380">
<ele>270.45</ele>
<time>2015-05-01T13:03:17Z</time>
</trkpt>
<trkpt lat="35.0014061" lon="33.3957688">
<ele>270.88</ele>
<time>2015-05-01T13:03:19Z</time>
</trkpt>
<trkpt lat="35.0014552" lon="33.3957034">
<ele>271.73</ele>
<time>2015-05-01T13:03:21Z</time>
</trkpt>
<trkpt lat="35.0014992" lon="33.3956535">
<ele>271.94</ele>
<time>2015-05-01T13:03:23Z</time>
</trkpt>
<trkpt lat="35.0015496" lon="33.3955862">
<ele>272.50</ele>
<time>2015-05-01T13:03:25Z</time>
</trkpt>
<trkpt lat="35.0016055" lon="33.3955157">
<ele>272.89</ele>
<time>2015-05-01T13:03:27Z</time>
</trkpt>
<trkpt lat="35.0016637" lon="33.3954388">
<ele>272.23</ele>
<time>2015-05-01T13:03:29Z</time>
</trkpt>
<trkpt lat="35.0016961" lon="33.3953951">
<ele>272.12</ele>
<time>2015-05-01T13:03:30Z</time>
</trkpt>
<trkpt lat="35.0017254" lon="33.3953475">
<ele>272.07</ele>
<time>2015-05-01T13:03:31Z</time>
</trkpt>
<trkpt lat="35.0017573" lon="33.3953004">
<ele>272.04</ele>
<time>2015-05-01T13:03:32Z</time>
</trkpt>
<trkpt lat="35.0017884" lon="33.3952571">
<ele>272.03</ele>
<time>2015-05-01T13:03:33Z</time>
</trkpt>
<trkpt lat="35.0018261" lon="33.3952079">
<ele>272.52</ele>
<time>2015-05-01T13:03:34Z</time>
</trkpt>
<trkpt lat="35.0018582" lon="33.3951662">
<ele>272.77</ele>
<time>2015-05-01T13:03:35Z</time>
</trkpt>
<trkpt lat="35.0018940" lon="33.3951201">
<ele>272.89</ele>
<time>2015-05-01T13:03:36Z</time>
</trkpt>
<trkpt lat="35.0019274" lon="33.3950770">
<ele>272.95</ele>
<time>2015-05-01T13:03:37Z</time>
</trkpt>
<trkpt lat="35.0019647" lon="33.3950150">
<ele>272.99</ele>
<time>2015-05-01T13:03:38Z</time>
</trkpt>
<trkpt lat="35.0019964" lon="33.3949702">
<ele>273.50</ele>
<time>2015-05-01T13:03:39Z</time>
</trkpt>
<trkpt lat="35.0020354" lon="33.3949234">
<ele>273.76</ele>
<time>2015-05-01T13:03:40Z</time>
</trkpt>
<trkpt lat="35.0020676" lon="33.3948801">
<ele>273.39</ele>
<time>2015-05-01T13:03:41Z</time>
</trkpt>
<trkpt lat="35.0021029" lon="33.3948313">
<ele>272.70</ele>
<time>2015-05-01T13:03:42Z</time>
</trkpt>
<trkpt lat="35.0021374" lon="33.3947816">
<ele>272.36</ele>
<time>2015-05-01T13:03:43Z</time>
</trkpt>
<trkpt lat="35.0021770" lon="33.3947285">
<ele>272.19</ele>
<time>2015-05-01T13:03:44Z</time>
</trkpt>
<trkpt lat="35.0022181" lon="33.3946837">
<ele>272.10</ele>
<time>2015-05-01T13:03:45Z</time>
</trkpt>
<trkpt lat="35.0022613" lon="33.3946331">
<ele>272.56</ele>
<time>2015-05-01T13:03:46Z</time>
</trkpt>
<trkpt lat="35.0023014" lon="33.3945901">
<ele>272.79</ele>
<time>2015-05-01T13:03:47Z</time>
</trkpt>
<trkpt lat="35.0023737" lon="33.3945228">
<ele>272.96</ele>
<time>2015-05-01T13:03:49Z</time>
</trkpt>
<trkpt lat="35.0024110" lon="33.3944800">
<ele>272.49</ele>
<time>2015-05-01T13:03:50Z</time>
</trkpt>
<trkpt lat="35.0024786" lon="33.3944197">
<ele>272.13</ele>
<time>2015-05-01T13:03:52Z</time>
</trkpt>
<trkpt lat="35.0025198" lon="33.3943814">
<ele>272.07</ele>
<time>2015-05-01T13:03:53Z</time>
</trkpt>
<trkpt lat="35.0025712" lon="33.3943367">
<ele>270.28</ele>
<time>2015-05-01T13:03:55Z</time>
</trkpt>
<trkpt lat="35.0026414" lon="33.3942921">
<ele>269.83</ele>
<time>2015-05-01T13:03:57Z</time>
</trkpt>
<trkpt lat="35.0026983" lon="33.3942764">
<ele>269.47</ele>
<time>2015-05-01T13:03:59Z</time>
</trkpt>
<trkpt lat="35.0027495" lon="33.3942524">
<ele>270.38</ele>
<time>2015-05-01T13:04:01Z</time>
</trkpt>
<trkpt lat="35.0027964" lon="33.3942268">
<ele>271.36</ele>
<time>2015-05-01T13:04:03Z</time>
</trkpt>
<trkpt lat="35.0028416" lon="33.3942021">
<ele>271.10</ele>
<time>2015-05-01T13:04:05Z</time>
</trkpt>
<trkpt lat="35.0028937" lon="33.3941727">
<ele>271.90</ele>
<time>2015-05-01T13:04:08Z</time>
</trkpt>
<trkpt lat="35.0029415" lon="33.3941493">
<ele>272.04</ele>
<time>2015-05-01T13:04:13Z</time>
</trkpt>
<trkpt lat="35.0030072" lon="33.3941369">
<ele>272.89</ele>
<time>2015-05-01T13:04:16Z</time>
</trkpt>
<trkpt lat="35.0030812" lon="33.3941200">
<ele>273.74</ele>
<time>2015-05-01T13:04:18Z</time>
</trkpt>
<trkpt lat="35.0031657" lon="33.3941104">
<ele>273.45</ele>
<time>2015-05-01T13:04:20Z</time>
</trkpt>
<trkpt lat="35.0032517" lon="33.3941008">
<ele>272.87</ele>
<time>2015-05-01T13:04:22Z</time>
</trkpt>
<trkpt lat="35.0033370" lon="33.3940822">
<ele>273.48</ele>
<time>2015-05-01T13:04:24Z</time>
</trkpt>
<trkpt lat="35.0034140" lon="33.3940680">
<ele>273.88</ele>
<time>2015-05-01T13:04:26Z</time>
</trkpt>
<trkpt lat="35.0034862" lon="33.3940661">
<ele>274.48</ele>
<time>2015-05-01T13:04:28Z</time>
</trkpt>
<trkpt lat="35.0035498" lon="33.3940667">
<ele>279.70</ele>
<time>2015-05-01T13:04:31Z</time>
</trkpt>
<trkpt lat="35.0036152" lon="33.3940736">
<ele>281.19</ele>
<time>2015-05-01T13:04:33Z</time>
</trkpt>
<trkpt lat="35.0036795" lon="33.3940848">
<ele>281.81</ele>
<time>2015-05-01T13:04:35Z</time>
</trkpt>
<trkpt lat="35.0037215" lon="33.3941112">
<ele>282.99</ele>
<time>2015-05-01T13:04:38Z</time>
</trkpt>
<trkpt lat="35.0037710" lon="33.3941210">
<ele>279.89</ele>
<time>2015-05-01T13:04:41Z</time>
</trkpt>
<trkpt lat="35.0038420" lon="33.3940831">
<ele>280.48</ele>
<time>2015-05-01T13:04:43Z</time>
</trkpt>
<trkpt lat="35.0039219" lon="33.3940511">
<ele>280.38</ele>
<time>2015-05-01T13:04:45Z</time>
</trkpt>
<trkpt lat="35.0040072" lon="33.3940240">
<ele>280.11</ele>
<time>2015-05-01T13:04:47Z</time>
</trkpt>
<trkpt lat="35.0040508" lon="33.3939924">
<ele>280.06</ele>
<time>2015-05-01T13:04:48Z</time>
</trkpt>
<trkpt lat="35.0040983" lon="33.3939811">
<ele>280.04</ele>
<time>2015-05-01T13:04:49Z</time>
</trkpt>
<trkpt lat="35.0041456" lon="33.3939712">
<ele>280.53</ele>
<time>2015-05-01T13:04:50Z</time>
</trkpt>
<trkpt lat="35.0041952" lon="33.3939608">
<ele>280.77</ele>
<time>2015-05-01T13:04:51Z</time>
</trkpt>
<trkpt lat="35.0042487" lon="33.3939486">
<ele>280.39</ele>
<time>2015-05-01T13:04:52Z</time>
</trkpt>
<trkpt lat="35.0043011" lon="33.3939402">
<ele>280.70</ele>
<time>2015-05-01T13:04:53Z</time>
</trkpt>
<trkpt lat="35.0043525" lon="33.3939348">
<ele>280.86</ele>
<time>2015-05-01T13:04:54Z</time>
</trkpt>
<trkpt lat="35.0044042" lon="33.3939178">
<ele>280.44</ele>
<time>2015-05-01T13:04:55Z</time>
</trkpt>
<trkpt lat="35.0044633" lon="33.3939072">
<ele>280.23</ele>
<time>2015-05-01T13:04:56Z</time>
</trkpt>
<trkpt lat="35.0045198" lon="33.3938960">
<ele>279.62</ele>
<time>2015-05-01T13:04:57Z</time>
</trkpt>
<trkpt lat="35.0045759" lon="33.3938881">
<ele>279.82</ele>
<time>2015-05-01T13:04:58Z</time>
</trkpt>
<trkpt lat="35.0046198" lon="33.3938747">
<ele>279.92</ele>
<time>2015-05-01T13:04:59Z</time>
</trkpt>
<trkpt lat="35.0046997" lon="33.3938594">
<ele>279.49</ele>
<time>2015-05-01T13:05:01Z</time>
</trkpt>
<trkpt lat="35.0047641" lon="33.3938549">
<ele>278.88</ele>
<time>2015-05-01T13:05:03Z</time>
</trkpt>
<trkpt lat="35.0048284" lon="33.3938419">
<ele>279.98</ele>
<time>2015-05-01T13:05:05Z</time>
</trkpt>
<trkpt lat="35.0048919" lon="33.3938300">
<ele>280.01</ele>
<time>2015-05-01T13:05:07Z</time>
</trkpt>
<trkpt lat="35.0049514" lon="33.3938177">
<ele>280.01</ele>
<time>2015-05-01T13:05:09Z</time>
</trkpt>
<trkpt lat="35.0049991" lon="33.3938193">
<ele>280.77</ele>
<time>2015-05-01T13:05:11Z</time>
</trkpt>
<trkpt lat="35.0050448" lon="33.3938176">
<ele>280.95</ele>
<time>2015-05-01T13:05:13Z</time>
</trkpt>
<trkpt lat="35.0050969" lon="33.3938095">
<ele>281.25</ele>
<time>2015-05-01T13:05:15Z</time>
</trkpt>
<trkpt lat="35.0051628" lon="33.3938035">
<ele>281.57</ele>
<time>2015-05-01T13:05:17Z</time>
</trkpt>
<trkpt lat="35.0052499" lon="33.3937987">
<ele>282.41</ele>
<time>2015-05-01T13:05:19Z</time>
</trkpt>
<trkpt lat="35.0053195" lon="33.3937916">
<ele>282.21</ele>
<time>2015-05-01T13:05:20Z</time>
</trkpt>
<trkpt lat="35.0053741" lon="33.3937931">
<ele>282.11</ele>
<time>2015-05-01T13:05:21Z</time>
</trkpt>
<trkpt lat="35.0054275" lon="33.3937899">
<ele>282.06</ele>
<time>2015-05-01T13:05:22Z</time>
</trkpt>
<trkpt lat="35.0054810" lon="33.3937944">
<ele>282.54</ele>
<time>2015-05-01T13:05:23Z</time>
</trkpt>
<trkpt lat="35.0055381" lon="33.3937898">
<ele>282.28</ele>
<time>2015-05-01T13:05:24Z</time>
</trkpt>
<trkpt lat="35.0055947" lon="33.3937913">
<ele>282.65</ele>
<time>2015-05-01T13:05:25Z</time>
</trkpt>
<trkpt lat="35.0056425" lon="33.3937977">
<ele>283.33</ele>
<time>2015-05-01T13:05:26Z</time>
</trkpt>
<trkpt lat="35.0056936" lon="33.3937964">
<ele>283.17</ele>
<time>2015-05-01T13:05:27Z</time>
</trkpt>
<trkpt lat="35.0057447" lon="33.3937998">
<ele>283.59</ele>
<time>2015-05-01T13:05:28Z</time>
</trkpt>
<trkpt lat="35.0058245" lon="33.3938040">
<ele>282.66</ele>
<time>2015-05-01T13:05:30Z</time>
</trkpt>
<trkpt lat="35.0058757" lon="33.3938015">
<ele>282.34</ele>
<time>2015-05-01T13:05:31Z</time>
</trkpt>
<trkpt lat="35.0059237" lon="33.3938101">
<ele>281.68</ele>
<time>2015-05-01T13:05:32Z</time>
</trkpt>
<trkpt lat="35.0059752" lon="33.3938150">
<ele>281.35</ele>
<time>2015-05-01T13:05:33Z</time>
</trkpt>
<trkpt lat="35.0060345" lon="33.3938254">
<ele>279.68</ele>
<time>2015-05-01T13:05:34Z</time>
</trkpt>
<trkpt lat="35.0060978" lon="33.3938339">
<ele>278.35</ele>
<time>2015-05-01T13:05:35Z</time>
</trkpt>
<trkpt lat="35.0061612" lon="33.3938445">
<ele>277.18</ele>
<time>2015-05-01T13:05:36Z</time>
</trkpt>
<trkpt lat="35.0062220" lon="33.3938466">
<ele>276.60</ele>
<time>2015-05-01T13:05:37Z</time>
</trkpt>
<trkpt lat="35.0062803" lon="33.3938545">
<ele>276.31</ele>
<time>2015-05-01T13:05:38Z</time>
</trkpt>
<trkpt lat="35.0063376" lon="33.3938648">
<ele>276.16</ele>
<time>2015-05-01T13:05:39Z</time>
</trkpt>
<trkpt lat="35.0063968" lon="33.3938702">
<ele>276.09</ele>
<time>2015-05-01T13:05:40Z</time>
</trkpt>
<trkpt lat="35.0064560" lon="33.3938738">
<ele>276.05</ele>
<time>2015-05-01T13:05:41Z</time>
</trkpt>
<trkpt lat="35.0065313" lon="33.3938930">
<ele>276.03</ele>
<time>2015-05-01T13:05:42Z</time>
</trkpt>
<trkpt lat="35.0065825" lon="33.3939000">
<ele>276.03</ele>
<time>2015-05-01T13:05:43Z</time>
</trkpt>
<trkpt lat="35.0066447" lon="33.3939084">
<ele>277.52</ele>
<time>2015-05-01T13:05:44Z</time>
</trkpt>
<trkpt lat="35.0067036" lon="33.3939227">
<ele>278.27</ele>
<time>2015-05-01T13:05:45Z</time>
</trkpt>
<trkpt lat="35.0067605" lon="33.3939297">
<ele>278.64</ele>
<time>2015-05-01T13:05:46Z</time>
</trkpt>
<trkpt lat="35.0068165" lon="33.3939380">
<ele>278.83</ele>
<time>2015-05-01T13:05:47Z</time>
</trkpt>
<trkpt lat="35.0068698" lon="33.3939499">
<ele>278.92</ele>
<time>2015-05-01T13:05:48Z</time>
</trkpt>
<trkpt lat="35.0069201" lon="33.3939584">
<ele>278.97</ele>
<time>2015-05-01T13:05:49Z</time>
</trkpt>
<trkpt lat="35.0069725" lon="33.3939570">
<ele>278.99</ele>
<time>2015-05-01T13:05:50Z</time>
</trkpt>
<trkpt lat="35.0070192" lon="33.3939646">
<ele>279.00</ele>
<time>2015-05-01T13:05:51Z</time>
</trkpt>
<trkpt lat="35.0070725" lon="33.3939705">
<ele>279.01</ele>
<time>2015-05-01T13:05:52Z</time>
</trkpt>
<trkpt lat="35.0071223" lon="33.3939726">
<ele>279.01</ele>
<time>2015-05-01T13:05:53Z</time>
</trkpt>
<trkpt lat="35.0071712" lon="33.3939761">
<ele>279.01</ele>
<time>2015-05-01T13:05:54Z</time>
</trkpt>
<trkpt lat="35.0072495" lon="33.3939849">
<ele>279.52</ele>
<time>2015-05-01T13:05:56Z</time>
</trkpt>
<trkpt lat="35.0073187" lon="33.3939910">
<ele>279.89</ele>
<time>2015-05-01T13:05:58Z</time>
</trkpt>
<trkpt lat="35.0074100" lon="33.3939887">
<ele>279.73</ele>
<time>2015-05-01T13:06:00Z</time>
</trkpt>
<trkpt lat="35.0074620" lon="33.3939955">
<ele>279.88</ele>
<time>2015-05-01T13:06:01Z</time>
</trkpt>
<trkpt lat="35.0075172" lon="33.3940026">
<ele>279.95</ele>
<time>2015-05-01T13:06:02Z</time>
</trkpt>
<trkpt lat="35.0075731" lon="33.3940084">
<ele>279.48</ele>
<time>2015-05-01T13:06:03Z</time>
</trkpt>
<trkpt lat="35.0076275" lon="33.3940125">
<ele>279.75</ele>
<time>2015-05-01T13:06:04Z</time>
</trkpt>
<trkpt lat="35.0076787" lon="33.3940108">
<ele>279.38</ele>
<time>2015-05-01T13:06:05Z</time>
</trkpt>
<trkpt lat="35.0077350" lon="33.3940057">
<ele>279.70</ele>
<time>2015-05-01T13:06:06Z</time>
</trkpt>
<trkpt lat="35.0077865" lon="33.3940028">
<ele>279.86</ele>
<time>2015-05-01T13:06:07Z</time>
</trkpt>
<trkpt lat="35.0078453" lon="33.3939945">
<ele>279.94</ele>
<time>2015-05-01T13:06:08Z</time>
</trkpt>
<trkpt lat="35.0079018" lon="33.3939958">
<ele>279.98</ele>
<time>2015-05-01T13:06:09Z</time>
</trkpt>
<trkpt lat="35.0079483" lon="33.3939934">
<ele>279.50</ele>
<time>2015-05-01T13:06:10Z</time>
</trkpt>
<trkpt lat="35.0080007" lon="33.3939936">
<ele>279.26</ele>
<time>2015-05-01T13:06:11Z</time>
</trkpt>
<trkpt lat="35.0080524" lon="33.3939874">
<ele>279.14</ele>
<time>2015-05-01T13:06:12Z</time>
</trkpt>
<trkpt lat="35.0081050" lon="33.3939869">
<ele>279.08</ele>
<time>2015-05-01T13:06:13Z</time>
</trkpt>
<trkpt lat="35.0081540" lon="33.3939857">
<ele>279.55</ele>
<time>2015-05-01T13:06:14Z</time>
</trkpt>
<trkpt lat="35.0081992" lon="33.3939810">
<ele>279.78</ele>
<time>2015-05-01T13:06:15Z</time>
</trkpt>
<trkpt lat="35.0082439" lon="33.3939734">
<ele>279.90</ele>
<time>2015-05-01T13:06:16Z</time>
</trkpt>
<trkpt lat="35.0083265" lon="33.3939660">
<ele>279.24</ele>
<time>2015-05-01T13:06:18Z</time>
</trkpt>
<trkpt lat="35.0083757" lon="33.3939709">
<ele>278.63</ele>
<time>2015-05-01T13:06:19Z</time>
</trkpt>
<trkpt lat="35.0084268" lon="33.3939610">
<ele>278.17</ele>
<time>2015-05-01T13:06:21Z</time>
</trkpt>
<trkpt lat="35.0084733" lon="33.3939635">
<ele>278.05</ele>
<time>2015-05-01T13:06:23Z</time>
</trkpt>
<trkpt lat="35.0085063" lon="33.3940168">
<ele>278.02</ele>
<time>2015-05-01T13:06:26Z</time>
</trkpt>
<trkpt lat="35.0085339" lon="33.3940714">
<ele>278.02</ele>
<time>2015-05-01T13:06:28Z</time>
</trkpt>
<trkpt lat="35.0085806" lon="33.3941145">
<ele>278.02</ele>
<time>2015-05-01T13:06:30Z</time>
</trkpt>
<trkpt lat="35.0086463" lon="33.3941268">
<ele>278.02</ele>
<time>2015-05-01T13:06:32Z</time>
</trkpt>
<trkpt lat="35.0087137" lon="33.3941247">
<ele>278.02</ele>
<time>2015-05-01T13:06:34Z</time>
</trkpt>
<trkpt lat="35.0087765" lon="33.3941191">
<ele>278.02</ele>
<time>2015-05-01T13:06:36Z</time>
</trkpt>
<trkpt lat="35.0088297" lon="33.3941197">
<ele>278.02</ele>
<time>2015-05-01T13:06:38Z</time>
</trkpt>
<trkpt lat="35.0088741" lon="33.3941054">
<ele>270.55</ele>
<time>2015-05-01T13:08:42Z</time>
</trkpt>
<trkpt lat="35.0089097" lon="33.3940372">
<ele>270.92</ele>
<time>2015-05-01T13:08:46Z</time>
</trkpt>
<trkpt lat="35.0089278" lon="33.3939687">
<ele>270.63</ele>
<time>2015-05-01T13:08:49Z</time>
</trkpt>
<trkpt lat="35.0089796" lon="33.3939444">
<ele>269.35</ele>
<time>2015-05-01T13:08:54Z</time>
</trkpt>
<trkpt lat="35.0090331" lon="33.3939406">
<ele>271.50</ele>
<time>2015-05-01T13:08:59Z</time>
</trkpt>
<trkpt lat="35.0090853" lon="33.3939246">
<ele>272.80</ele>
<time>2015-05-01T13:09:03Z</time>
</trkpt>
<trkpt lat="35.0091314" lon="33.3938854">
<ele>273.24</ele>
<time>2015-05-01T13:09:06Z</time>
</trkpt>
<trkpt lat="35.0091733" lon="33.3938345">
<ele>273.92</ele>
<time>2015-05-01T13:09:09Z</time>
</trkpt>
<trkpt lat="35.0092331" lon="33.3938066">
<ele>273.95</ele>
<time>2015-05-01T13:09:33Z</time>
</trkpt>
<trkpt lat="35.0093045" lon="33.3937983">
<ele>274.00</ele>
<time>2015-05-01T13:09:35Z</time>
</trkpt>
<trkpt lat="35.0093895" lon="33.3937807">
<ele>274.01</ele>
<time>2015-05-01T13:09:37Z</time>
</trkpt>
<trkpt lat="35.0094348" lon="33.3937706">
<ele>274.01</ele>
<time>2015-05-01T13:09:38Z</time>
</trkpt>
<trkpt lat="35.0095122" lon="33.3937581">
<ele>274.02</ele>
<time>2015-05-01T13:09:39Z</time>
</trkpt>
<trkpt lat="35.0095595" lon="33.3937513">
<ele>274.02</ele>
<time>2015-05-01T13:09:40Z</time>
</trkpt>
<trkpt lat="35.0096138" lon="33.3937528">
<ele>274.02</ele>
<time>2015-05-01T13:09:41Z</time>
</trkpt>
<trkpt lat="35.0096618" lon="33.3937499">
<ele>274.02</ele>
<time>2015-05-01T13:09:42Z</time>
</trkpt>
<trkpt lat="35.0097492" lon="33.3937431">
<ele>274.02</ele>
<time>2015-05-01T13:09:44Z</time>
</trkpt>
<trkpt lat="35.0097981" lon="33.3937429">
<ele>274.02</ele>
<time>2015-05-01T13:09:45Z</time>
</trkpt>
<trkpt lat="35.0098433" lon="33.3937411">
<ele>274.02</ele>
<time>2015-05-01T13:09:46Z</time>
</trkpt>
<trkpt lat="35.0098888" lon="33.3937350">
<ele>274.02</ele>
<time>2015-05-01T13:09:47Z</time>
</trkpt>
<trkpt lat="35.0099408" lon="33.3937308">
<ele>274.02</ele>
<time>2015-05-01T13:09:48Z</time>
</trkpt>
<trkpt lat="35.0099860" lon="33.3937288">
<ele>274.02</ele>
<time>2015-05-01T13:09:49Z</time>
</trkpt>
<trkpt lat="35.0100700" lon="33.3937178">
<ele>274.02</ele>
<time>2015-05-01T13:09:51Z</time>
</trkpt>
<trkpt lat="35.0101514" lon="33.3937001">
<ele>274.02</ele>
<time>2015-05-01T13:09:53Z</time>
</trkpt>
<trkpt lat="35.0102294" lon="33.3936794">
<ele>274.02</ele>
<time>2015-05-01T13:09:55Z</time>
</trkpt>
<trkpt lat="35.0102883" lon="33.3936768">
<ele>273.52</ele>
<time>2015-05-01T13:09:56Z</time>
</trkpt>
<trkpt lat="35.0103683" lon="33.3936662">
<ele>273.89</ele>
<time>2015-05-01T13:09:58Z</time>
</trkpt>
<trkpt lat="35.0104451" lon="33.3936527">
<ele>273.98</ele>
<time>2015-05-01T13:10:00Z</time>
</trkpt>
<trkpt lat="35.0105203" lon="33.3936410">
<ele>273.76</ele>
<time>2015-05-01T13:10:02Z</time>
</trkpt>
<trkpt lat="35.0106007" lon="33.3936242">
<ele>273.95</ele>
<time>2015-05-01T13:10:04Z</time>
</trkpt>
<trkpt lat="35.0106468" lon="33.3936132">
<ele>273.98</ele>
<time>2015-05-01T13:10:05Z</time>
</trkpt>
<trkpt lat="35.0106958" lon="33.3936029">
<ele>274.00</ele>
<time>2015-05-01T13:10:06Z</time>
</trkpt>
<trkpt lat="35.0107504" lon="33.3936020">
<ele>274.01</ele>
<time>2015-05-01T13:10:07Z</time>
</trkpt>
<trkpt lat="35.0108036" lon="33.3935978">
<ele>274.01</ele>
<time>2015-05-01T13:10:08Z</time>
</trkpt>
<trkpt lat="35.0108543" lon="33.3935882">
<ele>274.01</ele>
<time>2015-05-01T13:10:09Z</time>
</trkpt>
<trkpt lat="35.0109003" lon="33.3935816">
<ele>274.01</ele>
<time>2015-05-01T13:10:10Z</time>
</trkpt>
<trkpt lat="35.0109793" lon="33.3935763">
<ele>274.02</ele>
<time>2015-05-01T13:10:12Z</time>
</trkpt>
<trkpt lat="35.0110246" lon="33.3935684">
<ele>274.02</ele>
<time>2015-05-01T13:10:13Z</time>
</trkpt>
<trkpt lat="35.0111034" lon="33.3935557">
<ele>274.02</ele>
<time>2015-05-01T13:10:15Z</time>
</trkpt>
<trkpt lat="35.0111518" lon="33.3935428">
<ele>274.02</ele>
<time>2015-05-01T13:10:16Z</time>
</trkpt>
<trkpt lat="35.0112034" lon="33.3935456">
<ele>274.02</ele>
<time>2015-05-01T13:10:17Z</time>
</trkpt>
<trkpt lat="35.0112930" lon="33.3935472">
<ele>274.02</ele>
<time>2015-05-01T13:10:19Z</time>
</trkpt>
<trkpt lat="35.0113442" lon="33.3935470">
<ele>274.02</ele>
<time>2015-05-01T13:10:20Z</time>
</trkpt>
<trkpt lat="35.0113969" lon="33.3935423">
<ele>274.02</ele>
<time>2015-05-01T13:10:21Z</time>
</trkpt>
<trkpt lat="35.0114445" lon="33.3935381">
<ele>273.52</ele>
<time>2015-05-01T13:10:22Z</time>
</trkpt>
<trkpt lat="35.0114978" lon="33.3935275">
<ele>273.27</ele>
<time>2015-05-01T13:10:23Z</time>
</trkpt>
<trkpt lat="35.0115518" lon="33.3935229">
<ele>273.14</ele>
<time>2015-05-01T13:10:24Z</time>
</trkpt>
<trkpt lat="35.0116025" lon="33.3935264">
<ele>272.58</ele>
<time>2015-05-01T13:10:25Z</time>
</trkpt>
<trkpt lat="35.0116541" lon="33.3935331">
<ele>272.30</ele>
<time>2015-05-01T13:10:26Z</time>
</trkpt>
<trkpt lat="35.0117033" lon="33.3935349">
<ele>272.16</ele>
<time>2015-05-01T13:10:27Z</time>
</trkpt>
<trkpt lat="35.0117562" lon="33.3935460">
<ele>272.59</ele>
<time>2015-05-01T13:10:28Z</time>
</trkpt>
<trkpt lat="35.0118116" lon="33.3935572">
<ele>272.80</ele>
<time>2015-05-01T13:10:29Z</time>
</trkpt>
<trkpt lat="35.0118678" lon="33.3935668">
<ele>272.41</ele>
<time>2015-05-01T13:10:30Z</time>
</trkpt>
<trkpt lat="35.0119150" lon="33.3935758">
<ele>272.21</ele>
<time>2015-05-01T13:10:31Z</time>
</trkpt>
<trkpt lat="35.0119715" lon="33.3935780">
<ele>272.11</ele>
<time>2015-05-01T13:10:32Z</time>
</trkpt>
<trkpt lat="35.0120229" lon="33.3935801">
<ele>272.57</ele>
<time>2015-05-01T13:10:33Z</time>
</trkpt>
<trkpt lat="35.0120750" lon="33.3935906">
<ele>272.79</ele>
<time>2015-05-01T13:10:34Z</time>
</trkpt>
<trkpt lat="35.0121242" lon="33.3935985">
<ele>272.90</ele>
<time>2015-05-01T13:10:35Z</time>
</trkpt>
<trkpt lat="35.0121788" lon="33.3936136">
<ele>272.96</ele>
<time>2015-05-01T13:10:36Z</time>
</trkpt>
<trkpt lat="35.0122268" lon="33.3936360">
<ele>272.99</ele>
<time>2015-05-01T13:10:37Z</time>
</trkpt>
<trkpt lat="35.0122791" lon="33.3936419">
<ele>273.00</ele>
<time>2015-05-01T13:10:38Z</time>
</trkpt>
<trkpt lat="35.0123290" lon="33.3936527">
<ele>273.01</ele>
<time>2015-05-01T13:10:39Z</time>
</trkpt>
<trkpt lat="35.0123810" lon="33.3936738">
<ele>273.01</ele>
<time>2015-05-01T13:10:40Z</time>
</trkpt>
<trkpt lat="35.0124299" lon="33.3936832">
<ele>273.01</ele>
<time>2015-05-01T13:10:41Z</time>
</trkpt>
<trkpt lat="35.0124850" lon="33.3936984">
<ele>273.02</ele>
<time>2015-05-01T13:10:42Z</time>
</trkpt>
<trkpt lat="35.0125746" lon="33.3937197">
<ele>273.02</ele>
<time>2015-05-01T13:10:44Z</time>
</trkpt>
<trkpt lat="35.0126578" lon="33.3937428">
<ele>273.02</ele>
<time>2015-05-01T13:10:46Z</time>
</trkpt>
<trkpt lat="35.0127424" lon="33.3937672">
<ele>273.77</ele>
<time>2015-05-01T13:10:48Z</time>
</trkpt>
<trkpt lat="35.0128180" lon="33.3937788">
<ele>273.95</ele>
<time>2015-05-01T13:10:50Z</time>
</trkpt>
<trkpt lat="35.0129042" lon="33.3937918">
<ele>274.00</ele>
<time>2015-05-01T13:10:52Z</time>
</trkpt>
<trkpt lat="35.0129841" lon="33.3938021">
<ele>274.01</ele>
<time>2015-05-01T13:10:54Z</time>
</trkpt>
<trkpt lat="35.0130625" lon="33.3938277">
<ele>274.02</ele>
<time>2015-05-01T13:10:56Z</time>
</trkpt>
<trkpt lat="35.0131456" lon="33.3938462">
<ele>273.52</ele>
<time>2015-05-01T13:10:58Z</time>
</trkpt>
<trkpt lat="35.0132295" lon="33.3938609">
<ele>273.14</ele>
<time>2015-05-01T13:11:00Z</time>
</trkpt>
<trkpt lat="35.0133126" lon="33.3938695">
<ele>273.05</ele>
<time>2015-05-01T13:11:02Z</time>
</trkpt>
<trkpt lat="35.0133996" lon="33.3938843">
<ele>272.52</ele>
<time>2015-05-01T13:11:04Z</time>
</trkpt>
<trkpt lat="35.0134823" lon="33.3938953">
<ele>272.64</ele>
<time>2015-05-01T13:11:06Z</time>
</trkpt>
<trkpt lat="35.0135616" lon="33.3939012">
<ele>272.17</ele>
<time>2015-05-01T13:11:08Z</time>
</trkpt>
<trkpt lat="35.0136345" lon="33.3939097">
<ele>272.06</ele>
<time>2015-05-01T13:11:10Z</time>
</trkpt>
<trkpt lat="35.0136947" lon="33.3939168">
<ele>272.53</ele>
<time>2015-05-01T13:11:12Z</time>
</trkpt>
<trkpt lat="35.0137495" lon="33.3939136">
<ele>272.89</ele>
<time>2015-05-01T13:11:14Z</time>
</trkpt>
<trkpt lat="35.0138001" lon="33.3939157">
<ele>272.49</ele>
<time>2015-05-01T13:11:16Z</time>
</trkpt>
<trkpt lat="35.0138456" lon="33.3939367">
<ele>272.13</ele>
<time>2015-05-01T13:11:18Z</time>
</trkpt>
<trkpt lat="35.0138874" lon="33.3939643">
<ele>272.05</ele>
<time>2015-05-01T13:11:20Z</time>
</trkpt>
<trkpt lat="35.0139427" lon="33.3939783">
<ele>273.64</ele>
<time>2015-05-01T13:11:23Z</time>
</trkpt>
<trkpt lat="35.0138970" lon="33.3939378">
<ele>273.13</ele>
<time>2015-05-01T13:11:33Z</time>
</trkpt>
<trkpt lat="35.0138389" lon="33.3939240">
<ele>273.30</ele>
<time>2015-05-01T13:11:35Z</time>
</trkpt>
<trkpt lat="35.0137769" lon="33.3939148">
<ele>273.09</ele>
<time>2015-05-01T13:11:37Z</time>
</trkpt>
<trkpt lat="35.0137247" lon="33.3938934">
<ele>273.03</ele>
<time>2015-05-01T13:11:39Z</time>
</trkpt>
<trkpt lat="35.0137298" lon="33.3938353">
<ele>273.27</ele>
<time>2015-05-01T13:11:54Z</time>
</trkpt>
<trkpt lat="35.0137352" lon="33.3938986">
<ele>273.02</ele>
<time>2015-05-01T13:12:00Z</time>
</trkpt>
<trkpt lat="35.0136774" lon="33.3939166">
<ele>273.02</ele>
<time>2015-05-01T13:12:03Z</time>
</trkpt>
<trkpt lat="35.0136330" lon="33.3939058">
<ele>273.02</ele>
<time>2015-05-01T13:12:05Z</time>
</trkpt>
<trkpt lat="35.0135836" lon="33.3938855">
<ele>272.52</ele>
<time>2015-05-01T13:12:07Z</time>
</trkpt>
<trkpt lat="35.0135265" lon="33.3938692">
<ele>272.39</ele>
<time>2015-05-01T13:12:09Z</time>
</trkpt>
<trkpt lat="35.0134770" lon="33.3938570">
<ele>272.11</ele>
<time>2015-05-01T13:12:11Z</time>
</trkpt>
<trkpt lat="35.0134195" lon="33.3938634">
<ele>272.03</ele>
<time>2015-05-01T13:12:14Z</time>
</trkpt>
<trkpt lat="35.0133614" lon="33.3938673">
<ele>271.52</ele>
<time>2015-05-01T13:12:17Z</time>
</trkpt>
<trkpt lat="35.0133119" lon="33.3938615">
<ele>271.39</ele>
<time>2015-05-01T13:12:19Z</time>
</trkpt>
<trkpt lat="35.0132453" lon="33.3938448">
<ele>271.11</ele>
<time>2015-05-01T13:12:21Z</time>
</trkpt>
<trkpt lat="35.0131773" lon="33.3938206">
<ele>271.79</ele>
<time>2015-05-01T13:12:23Z</time>
</trkpt>
<trkpt lat="35.0131138" lon="33.3937937">
<ele>271.96</ele>
<time>2015-05-01T13:12:25Z</time>
</trkpt>
<trkpt lat="35.0130645" lon="33.3937571">
<ele>272.75</ele>
<time>2015-05-01T13:12:27Z</time>
</trkpt>
<trkpt lat="35.0130393" lon="33.3937069">
<ele>272.95</ele>
<time>2015-05-01T13:12:29Z</time>
</trkpt>
<trkpt lat="35.0130250" lon="33.3936532">
<ele>273.00</ele>
<time>2015-05-01T13:12:31Z</time>
</trkpt>
<trkpt lat="35.0130208" lon="33.3935964">
<ele>273.01</ele>
<time>2015-05-01T13:12:33Z</time>
</trkpt>
<trkpt lat="35.0130165" lon="33.3935400">
<ele>273.02</ele>
<time>2015-05-01T13:13:01Z</time>
</trkpt>
<trkpt lat="35.0129720" lon="33.3935192">
<ele>273.02</ele>
<time>2015-05-01T13:13:09Z</time>
</trkpt>
<trkpt lat="35.0129781" lon="33.3935838">
<ele>273.02</ele>
<time>2015-05-01T13:13:12Z</time>
</trkpt>
<trkpt lat="35.0130027" lon="33.3936483">
<ele>273.02</ele>
<time>2015-05-01T13:13:14Z</time>
</trkpt>
<trkpt lat="35.0130259" lon="33.3937139">
<ele>273.02</ele>
<time>2015-05-01T13:13:16Z</time>
</trkpt>
<trkpt lat="35.0130556" lon="33.3937715">
<ele>273.02</ele>
<time>2015-05-01T13:13:18Z</time>
</trkpt>
<trkpt lat="35.0130981" lon="33.3938130">
<ele>273.02</ele>
<time>2015-05-01T13:13:20Z</time>
</trkpt>
<trkpt lat="35.0131539" lon="33.3938354">
<ele>273.02</ele>
<time>2015-05-01T13:13:22Z</time>
</trkpt>
<trkpt lat="35.0132131" lon="33.3938484">
<ele>273.02</ele>
<time>2015-05-01T13:13:24Z</time>
</trkpt>
<trkpt lat="35.0132741" lon="33.3938600">
<ele>273.02</ele>
<time>2015-05-01T13:13:26Z</time>
</trkpt>
<trkpt lat="35.0133398" lon="33.3938731">
<ele>273.02</ele>
<time>2015-05-01T13:13:28Z</time>
</trkpt>
<trkpt lat="35.0134190" lon="33.3938872">
<ele>272.52</ele>
<time>2015-05-01T13:13:30Z</time>
</trkpt>
<trkpt lat="35.0135016" lon="33.3939042">
<ele>272.14</ele>
<time>2015-05-01T13:13:32Z</time>
</trkpt>
<trkpt lat="35.0135876" lon="33.3939228">
<ele>271.80</ele>
<time>2015-05-01T13:13:34Z</time>
</trkpt>
<trkpt lat="35.0136772" lon="33.3939421">
<ele>271.96</ele>
<time>2015-05-01T13:13:36Z</time>
</trkpt>
<trkpt lat="35.0137653" lon="33.3939636">
<ele>272.50</ele>
<time>2015-05-01T13:13:38Z</time>
</trkpt>
<trkpt lat="35.0138542" lon="33.3939766">
<ele>272.39</ele>
<time>2015-05-01T13:13:40Z</time>
</trkpt>
<trkpt lat="35.0139358" lon="33.3939785">
<ele>272.11</ele>
<time>2015-05-01T13:13:42Z</time>
</trkpt>
<trkpt lat="35.0140131" lon="33.3939782">
<ele>272.54</ele>
<time>2015-05-01T13:13:44Z</time>
</trkpt>
<trkpt lat="35.0140823" lon="33.3939889">
<ele>273.40</ele>
<time>2015-05-01T13:13:46Z</time>
</trkpt>
<trkpt lat="35.0141371" lon="33.3939989">
<ele>273.86</ele>
<time>2015-05-01T13:13:48Z</time>
</trkpt>
<trkpt lat="35.0141854" lon="33.3940030">
<ele>273.98</ele>
<time>2015-05-01T13:13:50Z</time>
</trkpt>
<trkpt lat="35.0142490" lon="33.3939870">
<ele>274.01</ele>
<time>2015-05-01T13:13:53Z</time>
</trkpt>
<trkpt lat="35.0142924" lon="33.3939301">
<ele>274.02</ele>
<time>2015-05-01T13:13:56Z</time>
</trkpt>
<trkpt lat="35.0143267" lon="33.3938678">
<ele>273.77</ele>
<time>2015-05-01T13:13:59Z</time>
</trkpt>
<trkpt lat="35.0143451" lon="33.3938157">
<ele>273.20</ele>
<time>2015-05-01T13:14:01Z</time>
</trkpt>
<trkpt lat="35.0143558" lon="33.3937604">
<ele>273.06</ele>
<time>2015-05-01T13:14:03Z</time>
</trkpt>
<trkpt lat="35.0143588" lon="33.3936964">
<ele>273.03</ele>
<time>2015-05-01T13:14:05Z</time>
</trkpt>
<trkpt lat="35.0143515" lon="33.3936286">
<ele>272.52</ele>
<time>2015-05-01T13:14:07Z</time>
</trkpt>
<trkpt lat="35.0143392" lon="33.3935400">
<ele>272.14</ele>
<time>2015-05-01T13:14:09Z</time>
</trkpt>
<trkpt lat="35.0143252" lon="33.3934434">
<ele>272.55</ele>
<time>2015-05-01T13:14:11Z</time>
</trkpt>
<trkpt lat="35.0143035" lon="33.3933487">
<ele>272.28</ele>
<time>2015-05-01T13:14:12Z</time>
</trkpt>
<trkpt lat="35.0142902" lon="33.3932943">
<ele>272.15</ele>
<time>2015-05-01T13:14:13Z</time>
</trkpt>
<trkpt lat="35.0142856" lon="33.3932300">
<ele>272.08</ele>
<time>2015-05-01T13:14:14Z</time>
</trkpt>
<trkpt lat="35.0142772" lon="33.3931731">
<ele>272.55</ele>
<time>2015-05-01T13:14:15Z</time>
</trkpt>
<trkpt lat="35.0142736" lon="33.3931131">
<ele>272.28</ele>
<time>2015-05-01T13:14:16Z</time>
</trkpt>
<trkpt lat="35.0142640" lon="33.3930566">
<ele>272.15</ele>
<time>2015-05-01T13:14:17Z</time>
</trkpt>
<trkpt lat="35.0142558" lon="33.3929977">
<ele>272.08</ele>
<time>2015-05-01T13:14:18Z</time>
</trkpt>
<trkpt lat="35.0142408" lon="33.3929090">
<ele>271.53</ele>
<time>2015-05-01T13:14:20Z</time>
</trkpt>
<trkpt lat="35.0142263" lon="33.3928091">
<ele>271.15</ele>
<time>2015-05-01T13:14:22Z</time>
</trkpt>
<trkpt lat="35.0142111" lon="33.3926949">
<ele>271.05</ele>
<time>2015-05-01T13:14:24Z</time>
</trkpt>
<trkpt lat="35.0142097" lon="33.3926328">
<ele>270.53</ele>
<time>2015-05-01T13:14:25Z</time>
</trkpt>
<trkpt lat="35.0142055" lon="33.3925712">
<ele>270.77</ele>
<time>2015-05-01T13:14:26Z</time>
</trkpt>
<trkpt lat="35.0141998" lon="33.3925148">
<ele>270.90</ele>
<time>2015-05-01T13:14:27Z</time>
</trkpt>
<trkpt lat="35.0141904" lon="33.3924597">
<ele>270.46</ele>
<time>2015-05-01T13:14:28Z</time>
</trkpt>
<trkpt lat="35.0141710" lon="33.3923499">
<ele>270.13</ele>
<time>2015-05-01T13:14:30Z</time>
</trkpt>
<trkpt lat="35.0141619" lon="33.3922950">
<ele>270.57</ele>
<time>2015-05-01T13:14:31Z</time>
</trkpt>
<trkpt lat="35.0141513" lon="33.3922352">
<ele>270.29</ele>
<time>2015-05-01T13:14:32Z</time>
</trkpt>
<trkpt lat="35.0141462" lon="33.3921729">
<ele>270.65</ele>
<time>2015-05-01T13:14:33Z</time>
</trkpt>
<trkpt lat="35.0141388" lon="33.3921153">
<ele>270.84</ele>
<time>2015-05-01T13:14:34Z</time>
</trkpt>
<trkpt lat="35.0141292" lon="33.3920586">
<ele>270.93</ele>
<time>2015-05-01T13:14:35Z</time>
</trkpt>
<trkpt lat="35.0141207" lon="33.3919958">
<ele>270.97</ele>
<time>2015-05-01T13:14:36Z</time>
</trkpt>
<trkpt lat="35.0141188" lon="33.3919408">
<ele>270.49</ele>
<time>2015-05-01T13:14:37Z</time>
</trkpt>
<trkpt lat="35.0141106" lon="33.3918821">
<ele>270.25</ele>
<time>2015-05-01T13:14:38Z</time>
</trkpt>
<trkpt lat="35.0141030" lon="33.3918174">
<ele>270.14</ele>
<time>2015-05-01T13:14:39Z</time>
</trkpt>
<trkpt lat="35.0140938" lon="33.3917574">
<ele>270.58</ele>
<time>2015-05-01T13:14:40Z</time>
</trkpt>
<trkpt lat="35.0140832" lon="33.3916989">
<ele>270.80</ele>
<time>2015-05-01T13:14:41Z</time>
</trkpt>
<trkpt lat="35.0140768" lon="33.3916436">
<ele>270.91</ele>
<time>2015-05-01T13:14:42Z</time>
</trkpt>
<trkpt lat="35.0140647" lon="33.3915455">
<ele>270.99</ele>
<time>2015-05-01T13:14:44Z</time>
</trkpt>
<trkpt lat="35.0140488" lon="33.3914584">
<ele>271.76</ele>
<time>2015-05-01T13:14:46Z</time>
</trkpt>
<trkpt lat="35.0140298" lon="33.3913757">
<ele>271.95</ele>
<time>2015-05-01T13:14:48Z</time>
</trkpt>
<trkpt lat="35.0140096" lon="33.3912830">
<ele>271.25</ele>
<time>2015-05-01T13:14:50Z</time>
</trkpt>
<trkpt lat="35.0139883" lon="33.3911926">
<ele>271.07</ele>
<time>2015-05-01T13:14:52Z</time>
</trkpt>
<trkpt lat="35.0139612" lon="33.3910968">
<ele>270.53</ele>
<time>2015-05-01T13:14:54Z</time>
</trkpt>
<trkpt lat="35.0139364" lon="33.3910013">
<ele>270.14</ele>
<time>2015-05-01T13:14:56Z</time>
</trkpt>
<trkpt lat="35.0139174" lon="33.3909067">
<ele>269.80</ele>
<time>2015-05-01T13:14:58Z</time>
</trkpt>
<trkpt lat="35.0139019" lon="33.3908145">
<ele>270.46</ele>
<time>2015-05-01T13:15:00Z</time>
</trkpt>
<trkpt lat="35.0138781" lon="33.3907300">
<ele>270.88</ele>
<time>2015-05-01T13:15:02Z</time>
</trkpt>
<trkpt lat="35.0138495" lon="33.3906447">
<ele>270.98</ele>
<time>2015-05-01T13:15:04Z</time>
</trkpt>
<trkpt lat="35.0138174" lon="33.3905577">
<ele>271.01</ele>
<time>2015-05-01T13:15:06Z</time>
</trkpt>
<trkpt lat="35.0137823" lon="33.3904725">
<ele>271.01</ele>
<time>2015-05-01T13:15:08Z</time>
</trkpt>
<trkpt lat="35.0137565" lon="33.3903848">
<ele>271.02</ele>
<time>2015-05-01T13:15:10Z</time>
</trkpt>
<trkpt lat="35.0137204" lon="33.3902970">
<ele>270.52</ele>
<time>2015-05-01T13:15:12Z</time>
</trkpt>
<trkpt lat="35.0136741" lon="33.3902514">
<ele>271.27</ele>
<time>2015-05-01T13:15:13Z</time>
</trkpt>
<trkpt lat="35.0136428" lon="33.3902042">
<ele>271.14</ele>
<time>2015-05-01T13:15:14Z</time>
</trkpt>
<trkpt lat="35.0136069" lon="33.3901518">
<ele>271.08</ele>
<time>2015-05-01T13:15:15Z</time>
</trkpt>
<trkpt lat="35.0135711" lon="33.3900894">
<ele>271.05</ele>
<time>2015-05-01T13:15:16Z</time>
</trkpt>
<trkpt lat="35.0135485" lon="33.3900361">
<ele>271.53</ele>
<time>2015-05-01T13:15:17Z</time>
</trkpt>
<trkpt lat="35.0135321" lon="33.3899770">
<ele>271.77</ele>
<time>2015-05-01T13:15:18Z</time>
</trkpt>
<trkpt lat="35.0135444" lon="33.3898632">
<ele>271.21</ele>
<time>2015-05-01T13:15:20Z</time>
</trkpt>
<trkpt lat="35.0135520" lon="33.3897522">
<ele>270.31</ele>
<time>2015-05-01T13:15:22Z</time>
</trkpt>
<trkpt lat="35.0135529" lon="33.3896900">
<ele>270.16</ele>
<time>2015-05-01T13:15:23Z</time>
</trkpt>
<trkpt lat="35.0135505" lon="33.3896341">
<ele>270.09</ele>
<time>2015-05-01T13:15:24Z</time>
</trkpt>
<trkpt lat="35.0135586" lon="33.3895760">
<ele>270.05</ele>
<time>2015-05-01T13:15:25Z</time>
</trkpt>
<trkpt lat="35.0135615" lon="33.3895156">
<ele>270.53</ele>
<time>2015-05-01T13:15:26Z</time>
</trkpt>
<trkpt lat="35.0135860" lon="33.3894597">
<ele>270.28</ele>
<time>2015-05-01T13:15:27Z</time>
</trkpt>
<trkpt lat="35.0136055" lon="33.3893966">
<ele>270.15</ele>
<time>2015-05-01T13:15:28Z</time>
</trkpt>
<trkpt lat="35.0136266" lon="33.3893305">
<ele>270.08</ele>
<time>2015-05-01T13:15:29Z</time>
</trkpt>
<trkpt lat="35.0136368" lon="33.3892720">
<ele>270.05</ele>
<time>2015-05-01T13:15:30Z</time>
</trkpt>
<trkpt lat="35.0136289" lon="33.3892039">
<ele>270.27</ele>
<time>2015-05-01T13:15:32Z</time>
</trkpt>
<trkpt lat="35.0135960" lon="33.3891390">
<ele>271.80</ele>
<time>2015-05-01T13:15:35Z</time>
</trkpt>
<trkpt lat="35.0136035" lon="33.3890819">
<ele>271.71</ele>
<time>2015-05-01T13:15:37Z</time>
</trkpt>
<trkpt lat="35.0135974" lon="33.3890053">
<ele>271.10</ele>
<time>2015-05-01T13:15:40Z</time>
</trkpt>
<trkpt lat="35.0135920" lon="33.3889322">
<ele>271.03</ele>
<time>2015-05-01T13:15:43Z</time>
</trkpt>
<trkpt lat="35.0135905" lon="33.3888681">
<ele>260.65</ele>
<time>2015-05-01T13:16:05Z</time>
</trkpt>
<trkpt lat="35.0136228" lon="33.3889189">
<ele>260.51</ele>
<time>2015-05-01T13:16:12Z</time>
</trkpt>
<trkpt lat="35.0136168" lon="33.3889804">
<ele>258.45</ele>
<time>2015-05-01T13:16:15Z</time>
</trkpt>
<trkpt lat="35.0136179" lon="33.3890436">
<ele>257.63</ele>
<time>2015-05-01T13:16:17Z</time>
</trkpt>
<trkpt lat="35.0136234" lon="33.3891129">
<ele>256.92</ele>
<time>2015-05-01T13:16:19Z</time>
</trkpt>
<trkpt lat="35.0136410" lon="33.3891734">
<ele>256.24</ele>
<time>2015-05-01T13:16:21Z</time>
</trkpt>
<trkpt lat="35.0136808" lon="33.3892047">
<ele>255.32</ele>
<time>2015-05-01T13:16:23Z</time>
</trkpt>
<trkpt lat="35.0137319" lon="33.3891987">
<ele>255.09</ele>
<time>2015-05-01T13:16:25Z</time>
</trkpt>
<trkpt lat="35.0137778" lon="33.3891860">
<ele>254.29</ele>
<time>2015-05-01T13:16:27Z</time>
</trkpt>
<trkpt lat="35.0138300" lon="33.3891499">
<ele>254.80</ele>
<time>2015-05-01T13:16:30Z</time>
</trkpt>
<trkpt lat="35.0138668" lon="33.3891179">
<ele>256.71</ele>
<time>2015-05-01T13:16:32Z</time>
</trkpt>
<trkpt lat="35.0139264" lon="33.3891130">
<ele>257.44</ele>
<time>2015-05-01T13:16:34Z</time>
</trkpt>
<trkpt lat="35.0139905" lon="33.3891304">
<ele>258.62</ele>
<time>2015-05-01T13:16:36Z</time>
</trkpt>
<trkpt lat="35.0140521" lon="33.3891446">
<ele>257.67</ele>
<time>2015-05-01T13:16:38Z</time>
</trkpt>
<trkpt lat="35.0141083" lon="33.3891616">
<ele>257.43</ele>
<time>2015-05-01T13:16:40Z</time>
</trkpt>
<trkpt lat="35.0141652" lon="33.3891752">
<ele>256.62</ele>
<time>2015-05-01T13:16:42Z</time>
</trkpt>
<trkpt lat="35.0142244" lon="33.3891818">
<ele>255.67</ele>
<time>2015-05-01T13:16:44Z</time>
</trkpt>
<trkpt lat="35.0142833" lon="33.3891841">
<ele>254.93</ele>
<time>2015-05-01T13:16:46Z</time>
</trkpt>
<trkpt lat="35.0143272" lon="33.3892159">
<ele>253.32</ele>
<time>2015-05-01T13:16:50Z</time>
</trkpt>
<trkpt lat="35.0143304" lon="33.3892826">
<ele>253.59</ele>
<time>2015-05-01T13:16:52Z</time>
</trkpt>
<trkpt lat="35.0142995" lon="33.3893761">
<ele>252.66</ele>
<time>2015-05-01T13:16:54Z</time>
</trkpt>
<trkpt lat="35.0142575" lon="33.3894692">
<ele>252.18</ele>
<time>2015-05-01T13:16:56Z</time>
</trkpt>
<trkpt lat="35.0142250" lon="33.3895660">
<ele>253.31</ele>
<time>2015-05-01T13:16:58Z</time>
</trkpt>
<trkpt lat="35.0141965" lon="33.3896521">
<ele>253.84</ele>
<time>2015-05-01T13:17:00Z</time>
</trkpt>
<trkpt lat="35.0141742" lon="33.3897114">
<ele>254.72</ele>
<time>2015-05-01T13:17:02Z</time>
</trkpt>
<trkpt lat="35.0141710" lon="33.3897670">
<ele>254.94</ele>
<time>2015-05-01T13:17:04Z</time>
</trkpt>
<trkpt lat="35.0141999" lon="33.3898176">
<ele>254.00</ele>
<time>2015-05-01T13:17:06Z</time>
</trkpt>
<trkpt lat="35.0142476" lon="33.3898658">
<ele>253.26</ele>
<time>2015-05-01T13:17:08Z</time>
</trkpt>
<trkpt lat="35.0142842" lon="33.3899041">
<ele>253.14</ele>
<time>2015-05-01T13:17:09Z</time>
</trkpt>
<trkpt lat="35.0143208" lon="33.3899472">
<ele>253.08</ele>
<time>2015-05-01T13:17:10Z</time>
</trkpt>
<trkpt lat="35.0143720" lon="33.3900020">
<ele>253.05</ele>
<time>2015-05-01T13:17:11Z</time>
</trkpt>
<trkpt lat="35.0144022" lon="33.3900521">
<ele>252.53</ele>
<time>2015-05-01T13:17:12Z</time>
</trkpt>
<trkpt lat="35.0144339" lon="33.3901004">
<ele>252.27</ele>
<time>2015-05-01T13:17:13Z</time>
</trkpt>
<trkpt lat="35.0144654" lon="33.3901551">
<ele>252.14</ele>
<time>2015-05-01T13:17:14Z</time>
</trkpt>
<trkpt lat="35.0144922" lon="33.3902135">
<ele>252.08</ele>
<time>2015-05-01T13:17:15Z</time>
</trkpt>
<trkpt lat="35.0145174" lon="33.3902729">
<ele>252.05</ele>
<time>2015-05-01T13:17:16Z</time>
</trkpt>
<trkpt lat="35.0145443" lon="33.3903332">
<ele>252.03</ele>
<time>2015-05-01T13:17:17Z</time>
</trkpt>
<trkpt lat="35.0145766" lon="33.3903961">
<ele>252.52</ele>
<time>2015-05-01T13:17:18Z</time>
</trkpt>
<trkpt lat="35.0146030" lon="33.3904622">
<ele>253.27</ele>
<time>2015-05-01T13:17:19Z</time>
</trkpt>
<trkpt lat="35.0146349" lon="33.3905278">
<ele>253.14</ele>
<time>2015-05-01T13:17:20Z</time>
</trkpt>
<trkpt lat="35.0146679" lon="33.3905952">
<ele>253.08</ele>
<time>2015-05-01T13:17:21Z</time>
</trkpt>
<trkpt lat="35.0147023" lon="33.3906625">
<ele>253.05</ele>
<time>2015-05-01T13:17:22Z</time>
</trkpt>
<trkpt lat="35.0147340" lon="33.3907316">
<ele>253.53</ele>
<time>2015-05-01T13:17:23Z</time>
</trkpt>
<trkpt lat="35.0147702" lon="33.3908010">
<ele>254.27</ele>
<time>2015-05-01T13:17:24Z</time>
</trkpt>
<trkpt lat="35.0148005" lon="33.3908662">
<ele>254.64</ele>
<time>2015-05-01T13:17:25Z</time>
</trkpt>
<trkpt lat="35.0148313" lon="33.3909296">
<ele>254.83</ele>
<time>2015-05-01T13:17:26Z</time>
</trkpt>
<trkpt lat="35.0148601" lon="33.3909887">
<ele>255.42</ele>
<time>2015-05-01T13:17:27Z</time>
</trkpt>
<trkpt lat="35.0148883" lon="33.3910533">
<ele>255.72</ele>
<time>2015-05-01T13:17:28Z</time>
</trkpt>
<trkpt lat="35.0149183" lon="33.3911140">
<ele>255.87</ele>
<time>2015-05-01T13:17:29Z</time>
</trkpt>
<trkpt lat="35.0149469" lon="33.3911687">
<ele>255.44</ele>
<time>2015-05-01T13:17:30Z</time>
</trkpt>
<trkpt lat="35.0149758" lon="33.3912203">
<ele>255.73</ele>
<time>2015-05-01T13:17:31Z</time>
</trkpt>
<trkpt lat="35.0150016" lon="33.3912768">
<ele>255.87</ele>
<time>2015-05-01T13:17:32Z</time>
</trkpt>
<trkpt lat="35.0150274" lon="33.3913305">
<ele>255.94</ele>
<time>2015-05-01T13:17:33Z</time>
</trkpt>
<trkpt lat="35.0150553" lon="33.3913836">
<ele>255.98</ele>
<time>2015-05-01T13:17:34Z</time>
</trkpt>
<trkpt lat="35.0150840" lon="33.3914391">
<ele>256.00</ele>
<time>2015-05-01T13:17:35Z</time>
</trkpt>
<trkpt lat="35.0151164" lon="33.3914974">
<ele>256.01</ele>
<time>2015-05-01T13:17:36Z</time>
</trkpt>
<trkpt lat="35.0151447" lon="33.3915577">
<ele>256.01</ele>
<time>2015-05-01T13:17:37Z</time>
</trkpt>
<trkpt lat="35.0151723" lon="33.3916168">
<ele>256.01</ele>
<time>2015-05-01T13:17:38Z</time>
</trkpt>
<trkpt lat="35.0151984" lon="33.3916784">
<ele>256.01</ele>
<time>2015-05-01T13:17:39Z</time>
</trkpt>
<trkpt lat="35.0152280" lon="33.3917449">
<ele>256.02</ele>
<time>2015-05-01T13:17:40Z</time>
</trkpt>
<trkpt lat="35.0152543" lon="33.3918063">
<ele>256.02</ele>
<time>2015-05-01T13:17:41Z</time>
</trkpt>
<trkpt lat="35.0152839" lon="33.3918625">
<ele>256.02</ele>
<time>2015-05-01T13:17:42Z</time>
</trkpt>
<trkpt lat="35.0153116" lon="33.3919142">
<ele>256.02</ele>
<time>2015-05-01T13:17:43Z</time>
</trkpt>
<trkpt lat="35.0153386" lon="33.3919703">
<ele>256.02</ele>
<time>2015-05-01T13:17:44Z</time>
</trkpt>
<trkpt lat="35.0153651" lon="33.3920201">
<ele>256.52</ele>
<time>2015-05-01T13:17:45Z</time>
</trkpt>
<trkpt lat="35.0153892" lon="33.3920725">
<ele>256.77</ele>
<time>2015-05-01T13:17:46Z</time>
</trkpt>
<trkpt lat="35.0154180" lon="33.3921148">
<ele>256.89</ele>
<time>2015-05-01T13:17:47Z</time>
</trkpt>
<trkpt lat="35.0154686" lon="33.3921931">
<ele>256.98</ele>
<time>2015-05-01T13:17:49Z</time>
</trkpt>
<trkpt lat="35.0155189" lon="33.3922595">
<ele>257.01</ele>
<time>2015-05-01T13:17:51Z</time>
</trkpt>
<trkpt lat="35.0155540" lon="33.3923068">
<ele>257.01</ele>
<time>2015-05-01T13:17:53Z</time>
</trkpt>
<trkpt lat="35.0155765" lon="33.3923548">
<ele>256.02</ele>
<time>2015-05-01T13:18:05Z</time>
</trkpt>
<trkpt lat="35.0155933" lon="33.3924077">
<ele>255.33</ele>
<time>2015-05-01T13:18:09Z</time>
</trkpt>
<trkpt lat="35.0155563" lon="33.3924827">
<ele>255.68</ele>
<time>2015-05-01T13:18:12Z</time>
</trkpt>
<trkpt lat="35.0154457" lon="33.3925386">
<ele>255.18</ele>
<time>2015-05-01T13:18:14Z</time>
</trkpt>
<trkpt lat="35.0153427" lon="33.3925563">
<ele>255.81</ele>
<time>2015-05-01T13:18:16Z</time>
</trkpt>
<trkpt lat="35.0152928" lon="33.3925737">
<ele>256.41</ele>
<time>2015-05-01T13:18:17Z</time>
</trkpt>
<trkpt lat="35.0152371" lon="33.3925948">
<ele>256.71</ele>
<time>2015-05-01T13:18:18Z</time>
</trkpt>
<trkpt lat="35.0151808" lon="33.3926078">
<ele>256.86</ele>
<time>2015-05-01T13:18:19Z</time>
</trkpt>
<trkpt lat="35.0151180" lon="33.3926173">
<ele>256.94</ele>
<time>2015-05-01T13:18:20Z</time>
</trkpt>
<trkpt lat="35.0150604" lon="33.3926343">
<ele>256.98</ele>
<time>2015-05-01T13:18:21Z</time>
</trkpt>
<trkpt lat="35.0149982" lon="33.3926423">
<ele>256.50</ele>
<time>2015-05-01T13:18:22Z</time>
</trkpt>
<trkpt lat="35.0149441" lon="33.3926488">
<ele>256.26</ele>
<time>2015-05-01T13:18:23Z</time>
</trkpt>
<trkpt lat="35.0148855" lon="33.3926558">
<ele>255.64</ele>
<time>2015-05-01T13:18:24Z</time>
</trkpt>
<trkpt lat="35.0148291" lon="33.3926665">
<ele>255.83</ele>
<time>2015-05-01T13:18:25Z</time>
</trkpt>
<trkpt lat="35.0147786" lon="33.3926789">
<ele>255.42</ele>
<time>2015-05-01T13:18:26Z</time>
</trkpt>
<trkpt lat="35.0147264" lon="33.3927044">
<ele>255.72</ele>
<time>2015-05-01T13:18:27Z</time>
</trkpt>
<trkpt lat="35.0146807" lon="33.3927176">
<ele>255.37</ele>
<time>2015-05-01T13:18:28Z</time>
</trkpt>
<trkpt lat="35.0146357" lon="33.3927318">
<ele>254.69</ele>
<time>2015-05-01T13:18:29Z</time>
</trkpt>
<trkpt lat="35.0145588" lon="33.3927400">
<ele>253.43</ele>
<time>2015-05-01T13:18:31Z</time>
</trkpt>
<trkpt lat="35.0144878" lon="33.3927527">
<ele>253.62</ele>
<time>2015-05-01T13:18:33Z</time>
</trkpt>
<trkpt lat="35.0144182" lon="33.3927732">
<ele>254.42</ele>
<time>2015-05-01T13:18:35Z</time>
</trkpt>
<trkpt lat="35.0143617" lon="33.3927841">
<ele>255.37</ele>
<time>2015-05-01T13:18:37Z</time>
</trkpt>
<trkpt lat="35.0143169" lon="33.3927990">
<ele>255.85</ele>
<time>2015-05-01T13:18:39Z</time>
</trkpt>
<trkpt lat="35.0142773" lon="33.3928314">
<ele>256.75</ele>
<time>2015-05-01T13:18:42Z</time>
</trkpt>
<trkpt lat="35.0142570" lon="33.3928914">
<ele>259.56</ele>
<time>2015-05-01T13:18:46Z</time>
</trkpt>
<trkpt lat="35.0142687" lon="33.3929482">
<ele>258.90</ele>
<time>2015-05-01T13:18:48Z</time>
</trkpt>
<trkpt lat="35.0142897" lon="33.3930314">
<ele>257.74</ele>
<time>2015-05-01T13:18:50Z</time>
</trkpt>
<trkpt lat="35.0143105" lon="33.3931184">
<ele>257.45</ele>
<time>2015-05-01T13:18:52Z</time>
</trkpt>
<trkpt lat="35.0143266" lon="33.3932017">
<ele>257.37</ele>
<time>2015-05-01T13:18:54Z</time>
</trkpt>
<trkpt lat="35.0143386" lon="33.3932822">
<ele>256.86</ele>
<time>2015-05-01T13:18:56Z</time>
</trkpt>
<trkpt lat="35.0143490" lon="33.3933498">
<ele>256.98</ele>
<time>2015-05-01T13:18:58Z</time>
</trkpt>
<trkpt lat="35.0143544" lon="33.3934108">
<ele>257.51</ele>
<time>2015-05-01T13:19:00Z</time>
</trkpt>
<trkpt lat="35.0143569" lon="33.3934697">
<ele>258.14</ele>
<time>2015-05-01T13:19:02Z</time>
</trkpt>
<trkpt lat="35.0143605" lon="33.3935314">
<ele>258.55</ele>
<time>2015-05-01T13:19:04Z</time>
</trkpt>
<trkpt lat="35.0143712" lon="33.3935918">
<ele>258.90</ele>
<time>2015-05-01T13:19:06Z</time>
</trkpt>
<trkpt lat="35.0143785" lon="33.3936544">
<ele>259.74</ele>
<time>2015-05-01T13:19:08Z</time>
</trkpt>
<trkpt lat="35.0143804" lon="33.3937161">
<ele>260.20</ele>
<time>2015-05-01T13:19:10Z</time>
</trkpt>
<trkpt lat="35.0143886" lon="33.3937755">
<ele>260.06</ele>
<time>2015-05-01T13:19:12Z</time>
</trkpt>
<trkpt lat="35.0143980" lon="33.3938348">
<ele>260.03</ele>
<time>2015-05-01T13:19:14Z</time>
</trkpt>
<trkpt lat="35.0144015" lon="33.3938974">
<ele>261.52</ele>
<time>2015-05-01T13:19:16Z</time>
</trkpt>
<trkpt lat="35.0143995" lon="33.3939589">
<ele>261.14</ele>
<time>2015-05-01T13:19:18Z</time>
</trkpt>
<trkpt lat="35.0144050" lon="33.3940170">
<ele>259.80</ele>
<time>2015-05-01T13:19:20Z</time>
</trkpt>
<trkpt lat="35.0143758" lon="33.3939610">
<ele>255.07</ele>
<time>2015-05-01T13:19:49Z</time>
</trkpt>
<trkpt lat="35.0143710" lon="33.3938953">
<ele>255.78</ele>
<time>2015-05-01T13:19:51Z</time>
</trkpt>
<trkpt lat="35.0143569" lon="33.3938201">
<ele>255.71</ele>
<time>2015-05-01T13:19:53Z</time>
</trkpt>
<trkpt lat="35.0143502" lon="33.3937393">
<ele>256.69</ele>
<time>2015-05-01T13:19:55Z</time>
</trkpt>
<trkpt lat="35.0143444" lon="33.3936516">
<ele>256.18</ele>
<time>2015-05-01T13:19:57Z</time>
</trkpt>
<trkpt lat="35.0143339" lon="33.3935527">
<ele>255.31</ele>
<time>2015-05-01T13:19:59Z</time>
</trkpt>
<trkpt lat="35.0143264" lon="33.3934518">
<ele>254.34</ele>
<time>2015-05-01T13:20:01Z</time>
</trkpt>
<trkpt lat="35.0143154" lon="33.3933576">
<ele>254.60</ele>
<time>2015-05-01T13:20:03Z</time>
</trkpt>
<trkpt lat="35.0143023" lon="33.3932585">
<ele>254.66</ele>
<time>2015-05-01T13:20:05Z</time>
</trkpt>
<trkpt lat="35.0142909" lon="33.3931594">
<ele>255.43</ele>
<time>2015-05-01T13:20:07Z</time>
</trkpt>
<trkpt lat="35.0142823" lon="33.3930685">
<ele>256.62</ele>
<time>2015-05-01T13:20:09Z</time>
</trkpt>
<trkpt lat="35.0142737" lon="33.3930010">
<ele>255.92</ele>
<time>2015-05-01T13:20:11Z</time>
</trkpt>
<trkpt lat="35.0142368" lon="33.3929624">
<ele>253.79</ele>
<time>2015-05-01T13:20:16Z</time>
</trkpt>
<trkpt lat="35.0141944" lon="33.3929338">
<ele>256.12</ele>
<time>2015-05-01T13:20:25Z</time>
</trkpt>
<trkpt lat="35.0142350" lon="33.3929050">
<ele>251.02</ele>
<time>2015-05-01T13:20:55Z</time>
</trkpt>
<trkpt lat="35.0142599" lon="33.3929598">
<ele>251.02</ele>
<time>2015-05-01T13:20:59Z</time>
</trkpt>
<trkpt lat="35.0142735" lon="33.3930187">
<ele>250.52</ele>
<time>2015-05-01T13:21:01Z</time>
</trkpt>
<trkpt lat="35.0142801" lon="33.3930901">
<ele>250.89</ele>
<time>2015-05-01T13:21:03Z</time>
</trkpt>
<trkpt lat="35.0142887" lon="33.3931577">
<ele>251.23</ele>
<time>2015-05-01T13:21:05Z</time>
</trkpt>
<trkpt lat="35.0143000" lon="33.3932242">
<ele>251.82</ele>
<time>2015-05-01T13:21:07Z</time>
</trkpt>
<trkpt lat="35.0143237" lon="33.3932873">
<ele>252.72</ele>
<time>2015-05-01T13:21:09Z</time>
</trkpt>
<trkpt lat="35.0143440" lon="33.3933536">
<ele>253.44</ele>
<time>2015-05-01T13:21:11Z</time>
</trkpt>
<trkpt lat="35.0143531" lon="33.3934278">
<ele>254.37</ele>
<time>2015-05-01T13:21:13Z</time>
</trkpt>
<trkpt lat="35.0143641" lon="33.3935237">
<ele>254.86</ele>
<time>2015-05-01T13:21:15Z</time>
</trkpt>
<trkpt lat="35.0143745" lon="33.3936153">
<ele>254.98</ele>
<time>2015-05-01T13:21:17Z</time>
</trkpt>
<trkpt lat="35.0143809" lon="33.3937016">
<ele>255.51</ele>
<time>2015-05-01T13:21:19Z</time>
</trkpt>
<trkpt lat="35.0143787" lon="33.3937704">
<ele>255.89</ele>
<time>2015-05-01T13:21:21Z</time>
</trkpt>
<trkpt lat="35.0143785" lon="33.3938315">
<ele>256.48</ele>
<time>2015-05-01T13:21:23Z</time>
</trkpt>
<trkpt lat="35.0143800" lon="33.3938948">
<ele>257.38</ele>
<time>2015-05-01T13:21:25Z</time>
</trkpt>
<trkpt lat="35.0143813" lon="33.3939608">
<ele>258.36</ele>
<time>2015-05-01T13:21:27Z</time>
</trkpt>
<trkpt lat="35.0143870" lon="33.3940256">
<ele>258.85</ele>
<time>2015-05-01T13:21:29Z</time>
</trkpt>
<trkpt lat="35.0144073" lon="33.3940746">
<ele>258.22</ele>
<time>2015-05-01T13:21:31Z</time>
</trkpt>
<trkpt lat="35.0144492" lon="33.3940486">
<ele>256.96</ele>
<time>2015-05-01T13:21:56Z</time>
</trkpt>
<trkpt lat="35.0144958" lon="33.3940357">
<ele>258.45</ele>
<time>2015-05-01T13:22:11Z</time>
</trkpt>
<trkpt lat="35.0145547" lon="33.3940281">
<ele>260.79</ele>
<time>2015-05-01T13:22:15Z</time>
</trkpt>
<trkpt lat="35.0146130" lon="33.3940339">
<ele>260.49</ele>
<time>2015-05-01T13:22:18Z</time>
</trkpt>
<trkpt lat="35.0146708" lon="33.3940529">
<ele>260.33</ele>
<time>2015-05-01T13:22:21Z</time>
</trkpt>
<trkpt lat="35.0147290" lon="33.3940799">
<ele>260.55</ele>
<time>2015-05-01T13:22:24Z</time>
</trkpt>
<trkpt lat="35.0147818" lon="33.3941108">
<ele>259.58</ele>
<time>2015-05-01T13:22:27Z</time>
</trkpt>
<trkpt lat="35.0148183" lon="33.3941602">
<ele>260.27</ele>
<time>2015-05-01T13:23:17Z</time>
</trkpt>
<trkpt lat="35.0148755" lon="33.3941726">
<ele>259.97</ele>
<time>2015-05-01T13:23:21Z</time>
</trkpt>
<trkpt lat="35.0149236" lon="33.3941781">
<ele>259.76</ele>
<time>2015-05-01T13:23:24Z</time>
</trkpt>
<trkpt lat="35.0149901" lon="33.3941883">
<ele>259.61</ele>
<time>2015-05-01T13:23:27Z</time>
</trkpt>
<trkpt lat="35.0150463" lon="33.3941985">
<ele>260.41</ele>
<time>2015-05-01T13:23:29Z</time>
</trkpt>
<trkpt lat="35.0150976" lon="33.3942057">
<ele>262.12</ele>
<time>2015-05-01T13:23:31Z</time>
</trkpt>
<trkpt lat="35.0151481" lon="33.3942088">
<ele>263.54</ele>
<time>2015-05-01T13:23:33Z</time>
</trkpt>
<trkpt lat="35.0152072" lon="33.3942196">
<ele>262.21</ele>
<time>2015-05-01T13:23:36Z</time>
</trkpt>
<trkpt lat="35.0152565" lon="33.3942362">
<ele>260.41</ele>
<time>2015-05-01T13:23:39Z</time>
</trkpt>
<trkpt lat="35.0153085" lon="33.3942488">
<ele>258.18</ele>
<time>2015-05-01T13:23:44Z</time>
</trkpt>
<trkpt lat="35.0153623" lon="33.3942472">
<ele>256.89</ele>
<time>2015-05-01T13:23:50Z</time>
</trkpt>
<trkpt lat="35.0154111" lon="33.3942690">
<ele>260.23</ele>
<time>2015-05-01T13:23:55Z</time>
</trkpt>
<trkpt lat="35.0154670" lon="33.3942726">
<ele>257.09</ele>
<time>2015-05-01T13:24:18Z</time>
</trkpt>
<trkpt lat="35.0155286" lon="33.3942970">
<ele>258.54</ele>
<time>2015-05-01T13:24:20Z</time>
</trkpt>
<trkpt lat="35.0155789" lon="33.3943127">
<ele>258.90</ele>
<time>2015-05-01T13:24:22Z</time>
</trkpt>
<trkpt lat="35.0156409" lon="33.3943353">
<ele>257.49</ele>
<time>2015-05-01T13:24:24Z</time>
</trkpt>
<trkpt lat="35.0157222" lon="33.3943546">
<ele>255.88</ele>
<time>2015-05-01T13:24:26Z</time>
</trkpt>
<trkpt lat="35.0158018" lon="33.3943772">
<ele>254.73</ele>
<time>2015-05-01T13:24:28Z</time>
</trkpt>
<trkpt lat="35.0158808" lon="33.3944034">
<ele>254.45</ele>
<time>2015-05-01T13:24:30Z</time>
</trkpt>
<trkpt lat="35.0159697" lon="33.3944241">
<ele>253.37</ele>
<time>2015-05-01T13:24:32Z</time>
</trkpt>
<trkpt lat="35.0160273" lon="33.3944401">
<ele>253.69</ele>
<time>2015-05-01T13:24:33Z</time>
</trkpt>
<trkpt lat="35.0160758" lon="33.3944477">
<ele>253.86</ele>
<time>2015-05-01T13:24:34Z</time>
</trkpt>
<trkpt lat="35.0161256" lon="33.3944595">
<ele>253.94</ele>
<time>2015-05-01T13:24:35Z</time>
</trkpt>
<trkpt lat="35.0161759" lon="33.3944697">
<ele>253.98</ele>
<time>2015-05-01T13:24:36Z</time>
</trkpt>
<trkpt lat="35.0162229" lon="33.3944826">
<ele>254.00</ele>
<time>2015-05-01T13:24:37Z</time>
</trkpt>
<trkpt lat="35.0162709" lon="33.3944954">
<ele>254.51</ele>
<time>2015-05-01T13:24:38Z</time>
</trkpt>
<trkpt lat="35.0163196" lon="33.3945066">
<ele>254.26</ele>
<time>2015-05-01T13:24:39Z</time>
</trkpt>
<trkpt lat="35.0163708" lon="33.3945096">
<ele>253.64</ele>
<time>2015-05-01T13:24:40Z</time>
</trkpt>
<trkpt lat="35.0164210" lon="33.3945198">
<ele>253.33</ele>
<time>2015-05-01T13:24:41Z</time>
</trkpt>
<trkpt lat="35.0164687" lon="33.3945279">
<ele>253.17</ele>
<time>2015-05-01T13:24:42Z</time>
</trkpt>
<trkpt lat="35.0165148" lon="33.3945336">
<ele>253.09</ele>
<time>2015-05-01T13:24:43Z</time>
</trkpt>
<trkpt lat="35.0165684" lon="33.3945388">
<ele>252.55</ele>
<time>2015-05-01T13:24:44Z</time>
</trkpt>
<trkpt lat="35.0166226" lon="33.3945476">
<ele>252.29</ele>
<time>2015-05-01T13:24:45Z</time>
</trkpt>
<trkpt lat="35.0166792" lon="33.3945610">
<ele>252.65</ele>
<time>2015-05-01T13:24:46Z</time>
</trkpt>
<trkpt lat="35.0167344" lon="33.3945781">
<ele>252.83</ele>
<time>2015-05-01T13:24:47Z</time>
</trkpt>
<trkpt lat="35.0167954" lon="33.3945925">
<ele>252.92</ele>
<time>2015-05-01T13:24:48Z</time>
</trkpt>
<trkpt lat="35.0168480" lon="33.3946074">
<ele>252.97</ele>
<time>2015-05-01T13:24:49Z</time>
</trkpt>
<trkpt lat="35.0168975" lon="33.3946200">
<ele>252.99</ele>
<time>2015-05-01T13:24:50Z</time>
</trkpt>
<trkpt lat="35.0169710" lon="33.3946302">
<ele>253.01</ele>
<time>2015-05-01T13:24:52Z</time>
</trkpt>
<trkpt lat="35.0170233" lon="33.3946343">
<ele>253.01</ele>
<time>2015-05-01T13:24:54Z</time>
</trkpt>
<trkpt lat="35.0170677" lon="33.3946447">
<ele>252.52</ele>
<time>2015-05-01T13:24:57Z</time>
</trkpt>
<trkpt lat="35.0171269" lon="33.3946581">
<ele>252.11</ele>
<time>2015-05-01T13:25:01Z</time>
</trkpt>
<trkpt lat="35.0171806" lon="33.3946761">
<ele>252.78</ele>
<time>2015-05-01T13:25:04Z</time>
</trkpt>
<trkpt lat="35.0172299" lon="33.3946845">
<ele>252.96</ele>
<time>2015-05-01T13:25:06Z</time>
</trkpt>
<trkpt lat="35.0172811" lon="33.3946919">
<ele>252.25</ele>
<time>2015-05-01T13:25:08Z</time>
</trkpt>
<trkpt lat="35.0173290" lon="33.3947051">
<ele>252.57</ele>
<time>2015-05-01T13:25:10Z</time>
</trkpt>
<trkpt lat="35.0173763" lon="33.3947195">
<ele>252.91</ele>
<time>2015-05-01T13:25:12Z</time>
</trkpt>
<trkpt lat="35.0174224" lon="33.3947316">
<ele>252.24</ele>
<time>2015-05-01T13:25:14Z</time>
</trkpt>
<trkpt lat="35.0174671" lon="33.3947448">
<ele>252.57</ele>
<time>2015-05-01T13:25:16Z</time>
</trkpt>
<trkpt lat="35.0174742" lon="33.3948127">
<ele>253.21</ele>
<time>2015-05-01T13:25:19Z</time>
</trkpt>
<trkpt lat="35.0174141" lon="33.3948210">
<ele>253.06</ele>
<time>2015-05-01T13:25:21Z</time>
</trkpt>
<trkpt lat="35.0173462" lon="33.3948031">
<ele>253.03</ele>
<time>2015-05-01T13:25:23Z</time>
</trkpt>
<trkpt lat="35.0172581" lon="33.3947862">
<ele>252.77</ele>
<time>2015-05-01T13:25:25Z</time>
</trkpt>
<trkpt lat="35.0172108" lon="33.3947773">
<ele>252.89</ele>
<time>2015-05-01T13:25:26Z</time>
</trkpt>
<trkpt lat="35.0171388" lon="33.3947655">
<ele>252.45</ele>
<time>2015-05-01T13:25:27Z</time>
</trkpt>
<trkpt lat="35.0170935" lon="33.3947544">
<ele>252.74</ele>
<time>2015-05-01T13:25:28Z</time>
</trkpt>
<trkpt lat="35.0170132" lon="33.3947372">
<ele>252.45</ele>
<time>2015-05-01T13:25:30Z</time>
</trkpt>
<trkpt lat="35.0169407" lon="33.3947219">
<ele>252.62</ele>
<time>2015-05-01T13:25:32Z</time>
</trkpt>
<trkpt lat="35.0168766" lon="33.3947073">
<ele>252.17</ele>
<time>2015-05-01T13:25:34Z</time>
</trkpt>
<trkpt lat="35.0168029" lon="33.3947011">
<ele>252.05</ele>
<time>2015-05-01T13:25:36Z</time>
</trkpt>
<trkpt lat="35.0167255" lon="33.3946834">
<ele>252.03</ele>
<time>2015-05-01T13:25:38Z</time>
</trkpt>
<trkpt lat="35.0166464" lon="33.3946644">
<ele>251.52</ele>
<time>2015-05-01T13:25:40Z</time>
</trkpt>
<trkpt lat="35.0165672" lon="33.3946410">
<ele>251.64</ele>
<time>2015-05-01T13:25:42Z</time>
</trkpt>
<trkpt lat="35.0164842" lon="33.3946232">
<ele>251.92</ele>
<time>2015-05-01T13:25:44Z</time>
</trkpt>
<trkpt lat="35.0164022" lon="33.3946062">
<ele>251.99</ele>
<time>2015-05-01T13:25:46Z</time>
</trkpt>
<trkpt lat="35.0163184" lon="33.3945898">
<ele>252.01</ele>
<time>2015-05-01T13:25:48Z</time>
</trkpt>
<trkpt lat="35.0162411" lon="33.3945712">
<ele>252.01</ele>
<time>2015-05-01T13:25:50Z</time>
</trkpt>
<trkpt lat="35.0161643" lon="33.3945477">
<ele>252.02</ele>
<time>2015-05-01T13:25:52Z</time>
</trkpt>
<trkpt lat="35.0160858" lon="33.3945312">
<ele>252.02</ele>
<time>2015-05-01T13:25:54Z</time>
</trkpt>
<trkpt lat="35.0159946" lon="33.3945136">
<ele>252.02</ele>
<time>2015-05-01T13:25:56Z</time>
</trkpt>
<trkpt lat="35.0159486" lon="33.3945076">
<ele>252.02</ele>
<time>2015-05-01T13:25:57Z</time>
</trkpt>
<trkpt lat="35.0159022" lon="33.3944989">
<ele>252.02</ele>
<time>2015-05-01T13:25:58Z</time>
</trkpt>
<trkpt lat="35.0158562" lon="33.3944892">
<ele>252.52</ele>
<time>2015-05-01T13:25:59Z</time>
</trkpt>
<trkpt lat="35.0158100" lon="33.3944813">
<ele>252.77</ele>
<time>2015-05-01T13:26:00Z</time>
</trkpt>
<trkpt lat="35.0157637" lon="33.3944754">
<ele>252.39</ele>
<time>2015-05-01T13:26:01Z</time>
</trkpt>
<trkpt lat="35.0156831" lon="33.3944586">
<ele>251.61</ele>
<time>2015-05-01T13:26:03Z</time>
</trkpt>
<trkpt lat="35.0156376" lon="33.3944484">
<ele>251.31</ele>
<time>2015-05-01T13:26:04Z</time>
</trkpt>
<trkpt lat="35.0155523" lon="33.3944369">
<ele>251.09</ele>
<time>2015-05-01T13:26:06Z</time>
</trkpt>
<trkpt lat="35.0155062" lon="33.3944359">
<ele>251.55</ele>
<time>2015-05-01T13:26:07Z</time>
</trkpt>
<trkpt lat="35.0154581" lon="33.3944277">
<ele>251.78</ele>
<time>2015-05-01T13:26:08Z</time>
</trkpt>
<trkpt lat="35.0154134" lon="33.3944195">
<ele>251.90</ele>
<time>2015-05-01T13:26:09Z</time>
</trkpt>
<trkpt lat="35.0153637" lon="33.3944173">
<ele>252.46</ele>
<time>2015-05-01T13:26:10Z</time>
</trkpt>
<trkpt lat="35.0153157" lon="33.3944147">
<ele>252.74</ele>
<time>2015-05-01T13:26:11Z</time>
</trkpt>
<trkpt lat="35.0152701" lon="33.3944123">
<ele>252.88</ele>
<time>2015-05-01T13:26:12Z</time>
</trkpt>
<trkpt lat="35.0152014" lon="33.3944058">
<ele>252.23</ele>
<time>2015-05-01T13:26:14Z</time>
</trkpt>
<trkpt lat="35.0151481" lon="33.3944080">
<ele>253.57</ele>
<time>2015-05-01T13:26:16Z</time>
</trkpt>
<trkpt lat="35.0150939" lon="33.3943895">
<ele>255.59</ele>
<time>2015-05-01T13:26:19Z</time>
</trkpt>
<trkpt lat="35.0150691" lon="33.3943426">
<ele>257.77</ele>
<time>2015-05-01T13:36:29Z</time>
</trkpt>
<trkpt lat="35.0150248" lon="33.3943267">
<ele>259.39</ele>
<time>2015-05-01T13:37:27Z</time>
</trkpt>
<trkpt lat="35.0149752" lon="33.3943152">
<ele>259.11</ele>
<time>2015-05-01T13:37:29Z</time>
</trkpt>
<trkpt lat="35.0149260" lon="33.3943174">
<ele>259.29</ele>
<time>2015-05-01T13:37:31Z</time>
</trkpt>
<trkpt lat="35.0148780" lon="33.3943180">
<ele>259.08</ele>
<time>2015-05-01T13:37:33Z</time>
</trkpt>
<trkpt lat="35.0148237" lon="33.3943325">
<ele>258.27</ele>
<time>2015-05-01T13:37:36Z</time>
</trkpt>
<trkpt lat="35.0147703" lon="33.3943554">
<ele>258.05</ele>
<time>2015-05-01T13:37:39Z</time>
</trkpt>
<trkpt lat="35.0147139" lon="33.3943947">
<ele>258.02</ele>
<time>2015-05-01T13:37:42Z</time>
</trkpt>
<trkpt lat="35.0146675" lon="33.3944517">
<ele>258.77</ele>
<time>2015-05-01T13:37:45Z</time>
</trkpt>
<trkpt lat="35.0146532" lon="33.3945043">
<ele>259.45</ele>
<time>2015-05-01T13:37:47Z</time>
</trkpt>
<trkpt lat="35.0146474" lon="33.3945614">
<ele>259.88</ele>
<time>2015-05-01T13:37:49Z</time>
</trkpt>
<trkpt lat="35.0146440" lon="33.3946196">
<ele>259.48</ele>
<time>2015-05-01T13:37:51Z</time>
</trkpt>
<trkpt lat="35.0146432" lon="33.3946854">
<ele>259.13</ele>
<time>2015-05-01T13:37:53Z</time>
</trkpt>
<trkpt lat="35.0146470" lon="33.3947505">
<ele>258.55</ele>
<time>2015-05-01T13:37:55Z</time>
</trkpt>
<trkpt lat="35.0146530" lon="33.3948176">
<ele>257.65</ele>
<time>2015-05-01T13:37:57Z</time>
</trkpt>
<trkpt lat="35.0146509" lon="33.3948875">
<ele>256.42</ele>
<time>2015-05-01T13:37:59Z</time>
</trkpt>
<trkpt lat="35.0146442" lon="33.3949713">
<ele>256.87</ele>
<time>2015-05-01T13:38:01Z</time>
</trkpt>
<trkpt lat="35.0146467" lon="33.3950537">
<ele>256.23</ele>
<time>2015-05-01T13:38:03Z</time>
</trkpt>
<trkpt lat="35.0146502" lon="33.3951415">
<ele>257.32</ele>
<time>2015-05-01T13:38:05Z</time>
</trkpt>
<trkpt lat="35.0146513" lon="33.3952345">
<ele>257.84</ele>
<time>2015-05-01T13:38:07Z</time>
</trkpt>
<trkpt lat="35.0146666" lon="33.3953788">
<ele>257.97</ele>
<time>2015-05-01T13:38:09Z</time>
</trkpt>
<trkpt lat="35.0146682" lon="33.3954838">
<ele>258.01</ele>
<time>2015-05-01T13:38:11Z</time>
</trkpt>
<trkpt lat="35.0146685" lon="33.3955734">
<ele>258.01</ele>
<time>2015-05-01T13:38:13Z</time>
</trkpt>
<trkpt lat="35.0146870" lon="33.3956553">
<ele>257.77</ele>
<time>2015-05-01T13:38:15Z</time>
</trkpt>
<trkpt lat="35.0146965" lon="33.3957118">
<ele>258.39</ele>
<time>2015-05-01T13:38:16Z</time>
</trkpt>
<trkpt lat="35.0147138" lon="33.3958032">
<ele>258.36</ele>
<time>2015-05-01T13:38:18Z</time>
</trkpt>
<trkpt lat="35.0147329" lon="33.3958989">
<ele>258.10</ele>
<time>2015-05-01T13:38:20Z</time>
</trkpt>
<trkpt lat="35.0147493" lon="33.3959899">
<ele>257.54</ele>
<time>2015-05-01T13:38:22Z</time>
</trkpt>
<trkpt lat="35.0147715" lon="33.3960856">
<ele>256.65</ele>
<time>2015-05-01T13:38:24Z</time>
</trkpt>
<trkpt lat="35.0148014" lon="33.3961946">
<ele>255.67</ele>
<time>2015-05-01T13:38:26Z</time>
</trkpt>
<trkpt lat="35.0148154" lon="33.3962968">
<ele>255.68</ele>
<time>2015-05-01T13:38:28Z</time>
</trkpt>
<trkpt lat="35.0148273" lon="33.3963514">
<ele>255.85</ele>
<time>2015-05-01T13:38:29Z</time>
</trkpt>
<trkpt lat="35.0148516" lon="33.3964488">
<ele>256.72</ele>
<time>2015-05-01T13:38:31Z</time>
</trkpt>
<trkpt lat="35.0148608" lon="33.3965045">
<ele>256.87</ele>
<time>2015-05-01T13:38:32Z</time>
</trkpt>
<trkpt lat="35.0148714" lon="33.3965612">
<ele>257.44</ele>
<time>2015-05-01T13:38:33Z</time>
</trkpt>
<trkpt lat="35.0148938" lon="33.3966554">
<ele>255.62</ele>
<time>2015-05-01T13:38:35Z</time>
</trkpt>
<trkpt lat="35.0149112" lon="33.3967590">
<ele>254.42</ele>
<time>2015-05-01T13:38:37Z</time>
</trkpt>
<trkpt lat="35.0149276" lon="33.3968562">
<ele>253.62</ele>
<time>2015-05-01T13:38:39Z</time>
</trkpt>
<trkpt lat="35.0149493" lon="33.3969598">
<ele>253.92</ele>
<time>2015-05-01T13:38:41Z</time>
</trkpt>
<trkpt lat="35.0149738" lon="33.3970614">
<ele>254.49</ele>
<time>2015-05-01T13:38:43Z</time>
</trkpt>
<trkpt lat="35.0149975" lon="33.3971255">
<ele>254.75</ele>
<time>2015-05-01T13:38:44Z</time>
</trkpt>
<trkpt lat="35.0150185" lon="33.3972296">
<ele>254.20</ele>
<time>2015-05-01T13:38:46Z</time>
</trkpt>
<trkpt lat="35.0150260" lon="33.3972843">
<ele>254.11</ele>
<time>2015-05-01T13:38:47Z</time>
</trkpt>
<trkpt lat="35.0150463" lon="33.3973894">
<ele>254.79</ele>
<time>2015-05-01T13:38:49Z</time>
</trkpt>
<trkpt lat="35.0150841" lon="33.3974924">
<ele>255.96</ele>
<time>2015-05-01T13:38:51Z</time>
</trkpt>
<trkpt lat="35.0150943" lon="33.3975478">
<ele>256.49</ele>
<time>2015-05-01T13:38:52Z</time>
</trkpt>
<trkpt lat="35.0151081" lon="33.3976439">
<ele>257.38</ele>
<time>2015-05-01T13:38:54Z</time>
</trkpt>
<trkpt lat="35.0151328" lon="33.3977297">
<ele>257.36</ele>
<time>2015-05-01T13:38:56Z</time>
</trkpt>
<trkpt lat="35.0151601" lon="33.3978115">
<ele>257.35</ele>
<time>2015-05-01T13:38:58Z</time>
</trkpt>
<trkpt lat="35.0151705" lon="33.3978999">
<ele>257.85</ele>
<time>2015-05-01T13:39:00Z</time>
</trkpt>
<trkpt lat="35.0151812" lon="33.3979836">
<ele>257.97</ele>
<time>2015-05-01T13:39:02Z</time>
</trkpt>
<trkpt lat="35.0151979" lon="33.3980615">
<ele>258.01</ele>
<time>2015-05-01T13:39:04Z</time>
</trkpt>
<trkpt lat="35.0152185" lon="33.3981382">
<ele>257.26</ele>
<time>2015-05-01T13:39:06Z</time>
</trkpt>
<trkpt lat="35.0152367" lon="33.3982060">
<ele>256.33</ele>
<time>2015-05-01T13:39:08Z</time>
</trkpt>
<trkpt lat="35.0152521" lon="33.3982638">
<ele>256.84</ele>
<time>2015-05-01T13:39:10Z</time>
</trkpt>
<trkpt lat="35.0152576" lon="33.3983318">
<ele>256.88</ele>
<time>2015-05-01T13:39:14Z</time>
</trkpt>
<trkpt lat="35.0152573" lon="33.3983888">
<ele>256.50</ele>
<time>2015-05-01T13:39:17Z</time>
</trkpt>
<trkpt lat="35.0152674" lon="33.3984672">
<ele>255.58</ele>
<time>2015-05-01T13:39:20Z</time>
</trkpt>
<trkpt lat="35.0152738" lon="33.3985473">
<ele>255.16</ele>
<time>2015-05-01T13:39:22Z</time>
</trkpt>
<trkpt lat="35.0152833" lon="33.3986421">
<ele>258.30</ele>
<time>2015-05-01T13:39:24Z</time>
</trkpt>
<trkpt lat="35.0153018" lon="33.3987387">
<ele>260.84</ele>
<time>2015-05-01T13:39:26Z</time>
</trkpt>
<trkpt lat="35.0153261" lon="33.3988401">
<ele>261.22</ele>
<time>2015-05-01T13:39:28Z</time>
</trkpt>
<trkpt lat="35.0153534" lon="33.3989393">
<ele>260.82</ele>
<time>2015-05-01T13:39:30Z</time>
</trkpt>
<trkpt lat="35.0153831" lon="33.3990370">
<ele>260.97</ele>
<time>2015-05-01T13:39:32Z</time>
</trkpt>
<trkpt lat="35.0154054" lon="33.3991264">
<ele>260.25</ele>
<time>2015-05-01T13:39:34Z</time>
</trkpt>
<trkpt lat="35.0154245" lon="33.3992181">
<ele>260.58</ele>
<time>2015-05-01T13:39:36Z</time>
</trkpt>
<trkpt lat="35.0154470" lon="33.3993124">
<ele>258.91</ele>
<time>2015-05-01T13:39:38Z</time>
</trkpt>
<trkpt lat="35.0154626" lon="33.3993762">
<ele>258.46</ele>
<time>2015-05-01T13:39:39Z</time>
</trkpt>
<trkpt lat="35.0154684" lon="33.3994390">
<ele>258.24</ele>
<time>2015-05-01T13:39:40Z</time>
</trkpt>
<trkpt lat="35.0154747" lon="33.3994970">
<ele>258.63</ele>
<time>2015-05-01T13:39:41Z</time>
</trkpt>
<trkpt lat="35.0154971" lon="33.3995486">
<ele>258.32</ele>
<time>2015-05-01T13:39:42Z</time>
</trkpt>
<trkpt lat="35.0155194" lon="33.3996396">
<ele>257.09</ele>
<time>2015-05-01T13:39:44Z</time>
</trkpt>
<trkpt lat="35.0155268" lon="33.3997040">
<ele>257.55</ele>
<time>2015-05-01T13:39:45Z</time>
</trkpt>
<trkpt lat="35.0155385" lon="33.3997595">
<ele>258.29</ele>
<time>2015-05-01T13:39:46Z</time>
</trkpt>
<trkpt lat="35.0155729" lon="33.3998472">
<ele>257.83</ele>
<time>2015-05-01T13:39:48Z</time>
</trkpt>
<trkpt lat="35.0156003" lon="33.3999295">
<ele>255.47</ele>
<time>2015-05-01T13:39:50Z</time>
</trkpt>
<trkpt lat="35.0156237" lon="33.4000169">
<ele>254.63</ele>
<time>2015-05-01T13:39:52Z</time>
</trkpt>
<trkpt lat="35.0156379" lon="33.4001101">
<ele>254.17</ele>
<time>2015-05-01T13:39:54Z</time>
</trkpt>
<trkpt lat="35.0156558" lon="33.4002153">
<ele>254.05</ele>
<time>2015-05-01T13:39:56Z</time>
</trkpt>
<trkpt lat="35.0156606" lon="33.4002745">
<ele>254.04</ele>
<time>2015-05-01T13:39:57Z</time>
</trkpt>
<trkpt lat="35.0156794" lon="33.4003757">
<ele>254.02</ele>
<time>2015-05-01T13:39:59Z</time>
</trkpt>
<trkpt lat="35.0156832" lon="33.4004345">
<ele>253.52</ele>
<time>2015-05-01T13:40:00Z</time>
</trkpt>
<trkpt lat="35.0156946" lon="33.4005387">
<ele>252.64</ele>
<time>2015-05-01T13:40:02Z</time>
</trkpt>
<trkpt lat="35.0157092" lon="33.4006478">
<ele>252.67</ele>
<time>2015-05-01T13:40:04Z</time>
</trkpt>
<trkpt lat="35.0157118" lon="33.4007028">
<ele>252.84</ele>
<time>2015-05-01T13:40:05Z</time>
</trkpt>
<trkpt lat="35.0157240" lon="33.4007569">
<ele>252.93</ele>
<time>2015-05-01T13:40:06Z</time>
</trkpt>
<trkpt lat="35.0157301" lon="33.4008128">
<ele>253.47</ele>
<time>2015-05-01T13:40:07Z</time>
</trkpt>
<trkpt lat="35.0157319" lon="33.4008780">
<ele>253.74</ele>
<time>2015-05-01T13:40:08Z</time>
</trkpt>
<trkpt lat="35.0157509" lon="33.4009365">
<ele>253.88</ele>
<time>2015-05-01T13:40:09Z</time>
</trkpt>
<trkpt lat="35.0157709" lon="33.4010431">
<ele>253.98</ele>
<time>2015-05-01T13:40:11Z</time>
</trkpt>
<trkpt lat="35.0157992" lon="33.4011353">
<ele>254.76</ele>
<time>2015-05-01T13:40:13Z</time>
</trkpt>
<trkpt lat="35.0158270" lon="33.4012241">
<ele>252.95</ele>
<time>2015-05-01T13:40:15Z</time>
</trkpt>
<trkpt lat="35.0158497" lon="33.4013222">
<ele>251.75</ele>
<time>2015-05-01T13:40:17Z</time>
</trkpt>
<trkpt lat="35.0158706" lon="33.4013966">
<ele>249.70</ele>
<time>2015-05-01T13:40:19Z</time>
</trkpt>
<trkpt lat="35.0158977" lon="33.4014560">
<ele>249.19</ele>
<time>2015-05-01T13:40:21Z</time>
</trkpt>
<trkpt lat="35.0159203" lon="33.4015242">
<ele>248.41</ele>
<time>2015-05-01T13:40:24Z</time>
</trkpt>
<trkpt lat="35.0159415" lon="33.4015848">
<ele>248.94</ele>
<time>2015-05-01T13:40:27Z</time>
</trkpt>
<trkpt lat="35.0159404" lon="33.4016750">
<ele>249.38</ele>
<time>2015-05-01T13:40:30Z</time>
</trkpt>
<trkpt lat="35.0159423" lon="33.4017778">
<ele>250.61</ele>
<time>2015-05-01T13:40:32Z</time>
</trkpt>
<trkpt lat="35.0159592" lon="33.4018494">
<ele>251.81</ele>
<time>2015-05-01T13:40:33Z</time>
</trkpt>
<trkpt lat="35.0159935" lon="33.4019354">
<ele>252.71</ele>
<time>2015-05-01T13:40:35Z</time>
</trkpt>
<trkpt lat="35.0160210" lon="33.4020210">
<ele>252.69</ele>
<time>2015-05-01T13:40:37Z</time>
</trkpt>
<trkpt lat="35.0160405" lon="33.4021174">
<ele>252.68</ele>
<time>2015-05-01T13:40:39Z</time>
</trkpt>
<trkpt lat="35.0160488" lon="33.4021720">
<ele>252.85</ele>
<time>2015-05-01T13:40:40Z</time>
</trkpt>
<trkpt lat="35.0160542" lon="33.4022267">
<ele>253.43</ele>
<time>2015-05-01T13:40:41Z</time>
</trkpt>
<trkpt lat="35.0160630" lon="33.4022885">
<ele>253.72</ele>
<time>2015-05-01T13:40:42Z</time>
</trkpt>
<trkpt lat="35.0160790" lon="33.4023884">
<ele>253.19</ele>
<time>2015-05-01T13:40:44Z</time>
</trkpt>
<trkpt lat="35.0160860" lon="33.4024516">
<ele>253.60</ele>
<time>2015-05-01T13:40:45Z</time>
</trkpt>
<trkpt lat="35.0161036" lon="33.4025538">
<ele>253.41</ele>
<time>2015-05-01T13:40:47Z</time>
</trkpt>
<trkpt lat="35.0161186" lon="33.4026073">
<ele>253.21</ele>
<time>2015-05-01T13:40:48Z</time>
</trkpt>
<trkpt lat="35.0161386" lon="33.4027041">
<ele>252.32</ele>
<time>2015-05-01T13:40:50Z</time>
</trkpt>
<trkpt lat="35.0161570" lon="33.4028165">
<ele>252.09</ele>
<time>2015-05-01T13:40:52Z</time>
</trkpt>
<trkpt lat="35.0161781" lon="33.4029239">
<ele>251.78</ele>
<time>2015-05-01T13:40:54Z</time>
</trkpt>
<trkpt lat="35.0162086" lon="33.4030303">
<ele>251.96</ele>
<time>2015-05-01T13:40:56Z</time>
</trkpt>
<trkpt lat="35.0162329" lon="33.4030828">
<ele>251.49</ele>
<time>2015-05-01T13:40:57Z</time>
</trkpt>
<trkpt lat="35.0162390" lon="33.4031426">
<ele>250.75</ele>
<time>2015-05-01T13:40:58Z</time>
</trkpt>
<trkpt lat="35.0162417" lon="33.4032029">
<ele>250.38</ele>
<time>2015-05-01T13:40:59Z</time>
</trkpt>
<trkpt lat="35.0162529" lon="33.4032741">
<ele>249.70</ele>
<time>2015-05-01T13:41:00Z</time>
</trkpt>
<trkpt lat="35.0162597" lon="33.4033382">
<ele>249.36</ele>
<time>2015-05-01T13:41:01Z</time>
</trkpt>
<trkpt lat="35.0162753" lon="33.4034045">
<ele>249.69</ele>
<time>2015-05-01T13:41:02Z</time>
</trkpt>
<trkpt lat="35.0162858" lon="33.4034646">
<ele>250.85</ele>
<time>2015-05-01T13:41:03Z</time>
</trkpt>
<trkpt lat="35.0162903" lon="33.4035371">
<ele>251.93</ele>
<time>2015-05-01T13:41:04Z</time>
</trkpt>
<trkpt lat="35.0162965" lon="33.4036024">
<ele>252.47</ele>
<time>2015-05-01T13:41:05Z</time>
</trkpt>
<trkpt lat="35.0163134" lon="33.4036640">
<ele>252.75</ele>
<time>2015-05-01T13:41:06Z</time>
</trkpt>
<trkpt lat="35.0163210" lon="33.4037230">
<ele>252.88</ele>
<time>2015-05-01T13:41:07Z</time>
</trkpt>
<trkpt lat="35.0163319" lon="33.4037917">
<ele>253.45</ele>
<time>2015-05-01T13:41:08Z</time>
</trkpt>
<trkpt lat="35.0163381" lon="33.4038549">
<ele>254.23</ele>
<time>2015-05-01T13:41:09Z</time>
</trkpt>
<trkpt lat="35.0163558" lon="33.4039718">
<ele>255.32</ele>
<time>2015-05-01T13:41:11Z</time>
</trkpt>
<trkpt lat="35.0163677" lon="33.4040399">
<ele>255.67</ele>
<time>2015-05-01T13:41:12Z</time>
</trkpt>
<trkpt lat="35.0163751" lon="33.4041084">
<ele>255.84</ele>
<time>2015-05-01T13:41:13Z</time>
</trkpt>
<trkpt lat="35.0163989" lon="33.4041644">
<ele>255.93</ele>
<time>2015-05-01T13:41:14Z</time>
</trkpt>
<trkpt lat="35.0164173" lon="33.4042327">
<ele>255.47</ele>
<time>2015-05-01T13:41:15Z</time>
</trkpt>
<trkpt lat="35.0164291" lon="33.4043022">
<ele>255.74</ele>
<time>2015-05-01T13:41:16Z</time>
</trkpt>
<trkpt lat="35.0164410" lon="33.4043685">
<ele>255.38</ele>
<time>2015-05-01T13:41:17Z</time>
</trkpt>
<trkpt lat="35.0164471" lon="33.4044242">
<ele>254.70</ele>
<time>2015-05-01T13:41:18Z</time>
</trkpt>
<trkpt lat="35.0164621" lon="33.4045412">
<ele>253.44</ele>
<time>2015-05-01T13:41:20Z</time>
</trkpt>
<trkpt lat="35.0164653" lon="33.4046138">
<ele>253.73</ele>
<time>2015-05-01T13:41:21Z</time>
</trkpt>
<trkpt lat="35.0164775" lon="33.4046704">
<ele>253.37</ele>
<time>2015-05-01T13:41:22Z</time>
</trkpt>
<trkpt lat="35.0164850" lon="33.4047310">
<ele>253.19</ele>
<time>2015-05-01T13:41:23Z</time>
</trkpt>
<trkpt lat="35.0165210" lon="33.4048353">
<ele>252.56</ele>
<time>2015-05-01T13:41:25Z</time>
</trkpt>
<trkpt lat="35.0165382" lon="33.4048871">
<ele>252.29</ele>
<time>2015-05-01T13:41:26Z</time>
</trkpt>
<trkpt lat="35.0165471" lon="33.4049563">
<ele>252.65</ele>
<time>2015-05-01T13:41:27Z</time>
</trkpt>
<trkpt lat="35.0165623" lon="33.4050319">
<ele>252.33</ele>
<time>2015-05-01T13:41:28Z</time>
</trkpt>
<trkpt lat="35.0165781" lon="33.4051010">
<ele>252.18</ele>
<time>2015-05-01T13:41:29Z</time>
</trkpt>
<trkpt lat="35.0165892" lon="33.4051668">
<ele>252.10</ele>
<time>2015-05-01T13:41:30Z</time>
</trkpt>
<trkpt lat="35.0166003" lon="33.4052299">
<ele>252.06</ele>
<time>2015-05-01T13:41:31Z</time>
</trkpt>
<trkpt lat="35.0166083" lon="33.4052950">
<ele>252.54</ele>
<time>2015-05-01T13:41:32Z</time>
</trkpt>
<trkpt lat="35.0166188" lon="33.4053557">
<ele>252.78</ele>
<time>2015-05-01T13:41:33Z</time>
</trkpt>
<trkpt lat="35.0166251" lon="33.4054188">
<ele>253.40</ele>
<time>2015-05-01T13:41:34Z</time>
</trkpt>
<trkpt lat="35.0166323" lon="33.4054746">
<ele>252.71</ele>
<time>2015-05-01T13:41:35Z</time>
</trkpt>
<trkpt lat="35.0166438" lon="33.4055349">
<ele>251.86</ele>
<time>2015-05-01T13:41:36Z</time>
</trkpt>
<trkpt lat="35.0166634" lon="33.4056263">
<ele>250.48</ele>
<time>2015-05-01T13:41:38Z</time>
</trkpt>
<trkpt lat="35.0166870" lon="33.4057159">
<ele>250.13</ele>
<time>2015-05-01T13:41:40Z</time>
</trkpt>
<trkpt lat="35.0166984" lon="33.4057701">
<ele>250.07</ele>
<time>2015-05-01T13:41:41Z</time>
</trkpt>
<trkpt lat="35.0167371" lon="33.4058522">
<ele>247.28</ele>
<time>2015-05-01T13:41:43Z</time>
</trkpt>
<trkpt lat="35.0167499" lon="33.4059074">
<ele>246.15</ele>
<time>2015-05-01T13:41:44Z</time>
</trkpt>
<trkpt lat="35.0167627" lon="33.4059628">
<ele>246.08</ele>
<time>2015-05-01T13:41:45Z</time>
</trkpt>
<trkpt lat="35.0167719" lon="33.4060235">
<ele>246.05</ele>
<time>2015-05-01T13:41:46Z</time>
</trkpt>
<trkpt lat="35.0167803" lon="33.4060866">
<ele>246.53</ele>
<time>2015-05-01T13:41:47Z</time>
</trkpt>
<trkpt lat="35.0167970" lon="33.4061425">
<ele>246.27</ele>
<time>2015-05-01T13:41:48Z</time>
</trkpt>
<trkpt lat="35.0168029" lon="33.4062126">
<ele>246.65</ele>
<time>2015-05-01T13:41:49Z</time>
</trkpt>
<trkpt lat="35.0168167" lon="33.4062723">
<ele>246.83</ele>
<time>2015-05-01T13:41:50Z</time>
</trkpt>
<trkpt lat="35.0168308" lon="33.4063260">
<ele>246.92</ele>
<time>2015-05-01T13:41:51Z</time>
</trkpt>
<trkpt lat="35.0168440" lon="33.4063932">
<ele>246.97</ele>
<time>2015-05-01T13:41:52Z</time>
</trkpt>
<trkpt lat="35.0168603" lon="33.4064737">
<ele>248.49</ele>
<time>2015-05-01T13:41:53Z</time>
</trkpt>
<trkpt lat="35.0168738" lon="33.4065507">
<ele>249.75</ele>
<time>2015-05-01T13:41:54Z</time>
</trkpt>
<trkpt lat="35.0168874" lon="33.4066292">
<ele>250.89</ele>
<time>2015-05-01T13:41:55Z</time>
</trkpt>
<trkpt lat="35.0168955" lon="33.4067142">
<ele>251.95</ele>
<time>2015-05-01T13:41:56Z</time>
</trkpt>
<trkpt lat="35.0169174" lon="33.4067861">
<ele>252.98</ele>
<time>2015-05-01T13:41:57Z</time>
</trkpt>
<trkpt lat="35.0169278" lon="33.4068622">
<ele>253.50</ele>
<time>2015-05-01T13:41:58Z</time>
</trkpt>
<trkpt lat="35.0169380" lon="33.4069435">
<ele>253.76</ele>
<time>2015-05-01T13:41:59Z</time>
</trkpt>
<trkpt lat="35.0169533" lon="33.4070116">
<ele>253.39</ele>
<time>2015-05-01T13:42:00Z</time>
</trkpt>
<trkpt lat="35.0169688" lon="33.4070830">
<ele>253.20</ele>
<time>2015-05-01T13:42:01Z</time>
</trkpt>
<trkpt lat="35.0169900" lon="33.4071562">
<ele>253.11</ele>
<time>2015-05-01T13:42:02Z</time>
</trkpt>
<trkpt lat="35.0170053" lon="33.4072344">
<ele>253.06</ele>
<time>2015-05-01T13:42:03Z</time>
</trkpt>
<trkpt lat="35.0170196" lon="33.4073103">
<ele>253.04</ele>
<time>2015-05-01T13:42:04Z</time>
</trkpt>
<trkpt lat="35.0170390" lon="33.4073818">
<ele>253.03</ele>
<time>2015-05-01T13:42:05Z</time>
</trkpt>
<trkpt lat="35.0170506" lon="33.4074627">
<ele>253.02</ele>
<time>2015-05-01T13:42:06Z</time>
</trkpt>
<trkpt lat="35.0170642" lon="33.4075431">
<ele>253.02</ele>
<time>2015-05-01T13:42:07Z</time>
</trkpt>
<trkpt lat="35.0170780" lon="33.4076144">
<ele>253.02</ele>
<time>2015-05-01T13:42:08Z</time>
</trkpt>
<trkpt lat="35.0170882" lon="33.4076910">
<ele>253.02</ele>
<time>2015-05-01T13:42:09Z</time>
</trkpt>
<trkpt lat="35.0171038" lon="33.4077672">
<ele>253.02</ele>
<time>2015-05-01T13:42:10Z</time>
</trkpt>
<trkpt lat="35.0171084" lon="33.4078283">
<ele>253.02</ele>
<time>2015-05-01T13:42:11Z</time>
</trkpt>
<trkpt lat="35.0171449" lon="33.4079301">
<ele>251.77</ele>
<time>2015-05-01T13:42:13Z</time>
</trkpt>
<trkpt lat="35.0171523" lon="33.4079973">
<ele>250.89</ele>
<time>2015-05-01T13:42:14Z</time>
</trkpt>
<trkpt lat="35.0171696" lon="33.4080589">
<ele>249.95</ele>
<time>2015-05-01T13:42:15Z</time>
</trkpt>
<trkpt lat="35.0171838" lon="33.4081222">
<ele>249.48</ele>
<time>2015-05-01T13:42:16Z</time>
</trkpt>
<trkpt lat="35.0171915" lon="33.4081873">
<ele>249.75</ele>
<time>2015-05-01T13:42:17Z</time>
</trkpt>
<trkpt lat="35.0172019" lon="33.4082517">
<ele>249.38</ele>
<time>2015-05-01T13:42:18Z</time>
</trkpt>
<trkpt lat="35.0172120" lon="33.4083139">
<ele>249.20</ele>
<time>2015-05-01T13:42:19Z</time>
</trkpt>
<trkpt lat="35.0172204" lon="33.4083927">
<ele>249.11</ele>
<time>2015-05-01T13:42:20Z</time>
</trkpt>
<trkpt lat="35.0172345" lon="33.4084605">
<ele>249.06</ele>
<time>2015-05-01T13:42:21Z</time>
</trkpt>
<trkpt lat="35.0172480" lon="33.4085399">
<ele>248.54</ele>
<time>2015-05-01T13:42:22Z</time>
</trkpt>
<trkpt lat="35.0172571" lon="33.4086130">
<ele>248.28</ele>
<time>2015-05-01T13:42:23Z</time>
</trkpt>
<trkpt lat="35.0172706" lon="33.4086873">
<ele>248.15</ele>
<time>2015-05-01T13:42:24Z</time>
</trkpt>
<trkpt lat="35.0172857" lon="33.4087595">
<ele>248.58</ele>
<time>2015-05-01T13:42:25Z</time>
</trkpt>
<trkpt lat="35.0173182" lon="33.4088240">
<ele>248.30</ele>
<time>2015-05-01T13:42:26Z</time>
</trkpt>
<trkpt lat="35.0173435" lon="33.4088865">
<ele>248.66</ele>
<time>2015-05-01T13:42:27Z</time>
</trkpt>
<trkpt lat="35.0173535" lon="33.4089571">
<ele>248.84</ele>
<time>2015-05-01T13:42:28Z</time>
</trkpt>
<trkpt lat="35.0173625" lon="33.4090221">
<ele>249.43</ele>
<time>2015-05-01T13:42:29Z</time>
</trkpt>
<trkpt lat="35.0173697" lon="33.4090852">
<ele>249.72</ele>
<time>2015-05-01T13:42:30Z</time>
</trkpt>
<trkpt lat="35.0173761" lon="33.4091530">
<ele>249.87</ele>
<time>2015-05-01T13:42:31Z</time>
</trkpt>
<trkpt lat="35.0173930" lon="33.4092114">
<ele>249.44</ele>
<time>2015-05-01T13:42:32Z</time>
</trkpt>
<trkpt lat="35.0174088" lon="33.4092629">
<ele>249.73</ele>
<time>2015-05-01T13:42:33Z</time>
</trkpt>
<trkpt lat="35.0174354" lon="33.4093205">
<ele>249.37</ele>
<time>2015-05-01T13:42:34Z</time>
</trkpt>
<trkpt lat="35.0174500" lon="33.4094421">
<ele>249.11</ele>
<time>2015-05-01T13:42:36Z</time>
</trkpt>
<trkpt lat="35.0174596" lon="33.4095120">
<ele>249.06</ele>
<time>2015-05-01T13:42:37Z</time>
</trkpt>
<trkpt lat="35.0174750" lon="33.4095899">
<ele>249.04</ele>
<time>2015-05-01T13:42:38Z</time>
</trkpt>
<trkpt lat="35.0174895" lon="33.4096558">
<ele>249.03</ele>
<time>2015-05-01T13:42:39Z</time>
</trkpt>
<trkpt lat="35.0175072" lon="33.4097167">
<ele>249.02</ele>
<time>2015-05-01T13:42:40Z</time>
</trkpt>
<trkpt lat="35.0175172" lon="33.4097842">
<ele>249.02</ele>
<time>2015-05-01T13:42:41Z</time>
</trkpt>
<trkpt lat="35.0175302" lon="33.4098529">
<ele>249.02</ele>
<time>2015-05-01T13:42:42Z</time>
</trkpt>
<trkpt lat="35.0175436" lon="33.4099286">
<ele>249.02</ele>
<time>2015-05-01T13:42:43Z</time>
</trkpt>
<trkpt lat="35.0175517" lon="33.4100060">
<ele>249.02</ele>
<time>2015-05-01T13:42:44Z</time>
</trkpt>
<trkpt lat="35.0175690" lon="33.4100802">
<ele>249.02</ele>
<time>2015-05-01T13:42:45Z</time>
</trkpt>
<trkpt lat="35.0175804" lon="33.4101477">
<ele>249.02</ele>
<time>2015-05-01T13:42:46Z</time>
</trkpt>
<trkpt lat="35.0175943" lon="33.4102118">
<ele>249.02</ele>
<time>2015-05-01T13:42:47Z</time>
</trkpt>
<trkpt lat="35.0176160" lon="33.4102725">
<ele>249.02</ele>
<time>2015-05-01T13:42:48Z</time>
</trkpt>
<trkpt lat="35.0176386" lon="33.4103274">
<ele>249.02</ele>
<time>2015-05-01T13:42:49Z</time>
</trkpt>
<trkpt lat="35.0176502" lon="33.4103915">
<ele>249.02</ele>
<time>2015-05-01T13:42:50Z</time>
</trkpt>
<trkpt lat="35.0176624" lon="33.4104495">
<ele>249.02</ele>
<time>2015-05-01T13:42:51Z</time>
</trkpt>
<trkpt lat="35.0176801" lon="33.4105179">
<ele>249.52</ele>
<time>2015-05-01T13:42:52Z</time>
</trkpt>
<trkpt lat="35.0176916" lon="33.4105868">
<ele>249.77</ele>
<time>2015-05-01T13:42:53Z</time>
</trkpt>
<trkpt lat="35.0177061" lon="33.4106392">
<ele>249.89</ele>
<time>2015-05-01T13:42:54Z</time>
</trkpt>
<trkpt lat="35.0177144" lon="33.4107077">
<ele>249.95</ele>
<time>2015-05-01T13:42:55Z</time>
</trkpt>
<trkpt lat="35.0177266" lon="33.4107756">
<ele>249.98</ele>
<time>2015-05-01T13:42:56Z</time>
</trkpt>
<trkpt lat="35.0177371" lon="33.4108438">
<ele>250.00</ele>
<time>2015-05-01T13:42:57Z</time>
</trkpt>
<trkpt lat="35.0177442" lon="33.4109123">
<ele>250.01</ele>
<time>2015-05-01T13:42:58Z</time>
</trkpt>
<trkpt lat="35.0177654" lon="33.4109621">
<ele>250.01</ele>
<time>2015-05-01T13:42:59Z</time>
</trkpt>
<trkpt lat="35.0177760" lon="33.4110324">
<ele>250.01</ele>
<time>2015-05-01T13:43:00Z</time>
</trkpt>
<trkpt lat="35.0177807" lon="33.4111026">
<ele>250.02</ele>
<time>2015-05-01T13:43:01Z</time>
</trkpt>
<trkpt lat="35.0177950" lon="33.4111734">
<ele>250.02</ele>
<time>2015-05-01T13:43:02Z</time>
</trkpt>
<trkpt lat="35.0178120" lon="33.4112481">
<ele>250.02</ele>
<time>2015-05-01T13:43:03Z</time>
</trkpt>
<trkpt lat="35.0178290" lon="33.4113198">
<ele>250.02</ele>
<time>2015-05-01T13:43:04Z</time>
</trkpt>
<trkpt lat="35.0178332" lon="33.4113848">
<ele>249.52</ele>
<time>2015-05-01T13:43:05Z</time>
</trkpt>
<trkpt lat="35.0178463" lon="33.4114439">
<ele>249.27</ele>
<time>2015-05-01T13:43:06Z</time>
</trkpt>
<trkpt lat="35.0178563" lon="33.4115178">
<ele>249.14</ele>
<time>2015-05-01T13:43:07Z</time>
</trkpt>
<trkpt lat="35.0178662" lon="33.4115885">
<ele>249.08</ele>
<time>2015-05-01T13:43:08Z</time>
</trkpt>
<trkpt lat="35.0178790" lon="33.4116548">
<ele>249.05</ele>
<time>2015-05-01T13:43:09Z</time>
</trkpt>
<trkpt lat="35.0178927" lon="33.4117322">
<ele>249.03</ele>
<time>2015-05-01T13:43:10Z</time>
</trkpt>
<trkpt lat="35.0179055" lon="33.4118003">
<ele>249.52</ele>
<time>2015-05-01T13:43:11Z</time>
</trkpt>
<trkpt lat="35.0179253" lon="33.4118722">
<ele>249.77</ele>
<time>2015-05-01T13:43:12Z</time>
</trkpt>
<trkpt lat="35.0179463" lon="33.4119526">
<ele>249.39</ele>
<time>2015-05-01T13:43:13Z</time>
</trkpt>
<trkpt lat="35.0179620" lon="33.4120279">
<ele>249.20</ele>
<time>2015-05-01T13:43:14Z</time>
</trkpt>
<trkpt lat="35.0179758" lon="33.4121025">
<ele>249.11</ele>
<time>2015-05-01T13:43:15Z</time>
</trkpt>
<trkpt lat="35.0179871" lon="33.4121850">
<ele>249.06</ele>
<time>2015-05-01T13:43:16Z</time>
</trkpt>
<trkpt lat="35.0179963" lon="33.4122653">
<ele>249.04</ele>
<time>2015-05-01T13:43:17Z</time>
</trkpt>
<trkpt lat="35.0180118" lon="33.4123411">
<ele>249.53</ele>
<time>2015-05-01T13:43:18Z</time>
</trkpt>
<trkpt lat="35.0180288" lon="33.4124181">
<ele>249.77</ele>
<time>2015-05-01T13:43:19Z</time>
</trkpt>
<trkpt lat="35.0180618" lon="33.4124915">
<ele>249.89</ele>
<time>2015-05-01T13:43:20Z</time>
</trkpt>
<trkpt lat="35.0180830" lon="33.4125661">
<ele>249.95</ele>
<time>2015-05-01T13:43:21Z</time>
</trkpt>
<trkpt lat="35.0180977" lon="33.4126435">
<ele>249.99</ele>
<time>2015-05-01T13:43:22Z</time>
</trkpt>
<trkpt lat="35.0181135" lon="33.4127088">
<ele>249.50</ele>
<time>2015-05-01T13:43:23Z</time>
</trkpt>
<trkpt lat="35.0181298" lon="33.4127817">
<ele>249.26</ele>
<time>2015-05-01T13:43:24Z</time>
</trkpt>
<trkpt lat="35.0181335" lon="33.4128583">
<ele>249.14</ele>
<time>2015-05-01T13:43:25Z</time>
</trkpt>
<trkpt lat="35.0181381" lon="33.4129371">
<ele>249.58</ele>
<time>2015-05-01T13:43:26Z</time>
</trkpt>
<trkpt lat="35.0181459" lon="33.4130071">
<ele>249.30</ele>
<time>2015-05-01T13:43:27Z</time>
</trkpt>
<trkpt lat="35.0181492" lon="33.4130768">
<ele>249.66</ele>
<time>2015-05-01T13:43:28Z</time>
</trkpt>
<trkpt lat="35.0181741" lon="33.4131314">
<ele>249.34</ele>
<time>2015-05-01T13:43:29Z</time>
</trkpt>
<trkpt lat="35.0181925" lon="33.4131928">
<ele>249.18</ele>
<time>2015-05-01T13:43:30Z</time>
</trkpt>
<trkpt lat="35.0182047" lon="33.4132579">
<ele>249.10</ele>
<time>2015-05-01T13:43:31Z</time>
</trkpt>
<trkpt lat="35.0182211" lon="33.4133155">
<ele>249.06</ele>
<time>2015-05-01T13:43:32Z</time>
</trkpt>
<trkpt lat="35.0182335" lon="33.4133772">
<ele>249.04</ele>
<time>2015-05-01T13:43:33Z</time>
</trkpt>
<trkpt lat="35.0182489" lon="33.4134319">
<ele>249.03</ele>
<time>2015-05-01T13:43:34Z</time>
</trkpt>
<trkpt lat="35.0182630" lon="33.4134962">
<ele>249.52</ele>
<time>2015-05-01T13:43:35Z</time>
</trkpt>
<trkpt lat="35.0182787" lon="33.4135479">
<ele>249.27</ele>
<time>2015-05-01T13:43:36Z</time>
</trkpt>
<trkpt lat="35.0182963" lon="33.4136018">
<ele>249.14</ele>
<time>2015-05-01T13:43:37Z</time>
</trkpt>
<trkpt lat="35.0183168" lon="33.4137227">
<ele>249.05</ele>
<time>2015-05-01T13:43:39Z</time>
</trkpt>
<trkpt lat="35.0183208" lon="33.4137845">
<ele>249.03</ele>
<time>2015-05-01T13:43:40Z</time>
</trkpt>
<trkpt lat="35.0183421" lon="33.4138942">
<ele>249.77</ele>
<time>2015-05-01T13:43:42Z</time>
</trkpt>
<trkpt lat="35.0183485" lon="33.4139530">
<ele>249.89</ele>
<time>2015-05-01T13:43:43Z</time>
</trkpt>
<trkpt lat="35.0183603" lon="33.4140090">
<ele>249.95</ele>
<time>2015-05-01T13:43:44Z</time>
</trkpt>
<trkpt lat="35.0183700" lon="33.4140659">
<ele>249.99</ele>
<time>2015-05-01T13:43:45Z</time>
</trkpt>
<trkpt lat="35.0183804" lon="33.4141208">
<ele>249.50</ele>
<time>2015-05-01T13:43:46Z</time>
</trkpt>
<trkpt lat="35.0184080" lon="33.4142101">
<ele>248.64</ele>
<time>2015-05-01T13:43:48Z</time>
</trkpt>
<trkpt lat="35.0184083" lon="33.4142721">
<ele>248.33</ele>
<time>2015-05-01T13:43:49Z</time>
</trkpt>
<trkpt lat="35.0184176" lon="33.4143339">
<ele>248.67</ele>
<time>2015-05-01T13:43:50Z</time>
</trkpt>
<trkpt lat="35.0184344" lon="33.4143965">
<ele>248.84</ele>
<time>2015-05-01T13:43:51Z</time>
</trkpt>
<trkpt lat="35.0184741" lon="33.4144281">
<ele>248.93</ele>
<time>2015-05-01T13:43:52Z</time>
</trkpt>
<trkpt lat="35.0184840" lon="33.4145016">
<ele>248.97</ele>
<time>2015-05-01T13:43:53Z</time>
</trkpt>
<trkpt lat="35.0184949" lon="33.4145753">
<ele>248.99</ele>
<time>2015-05-01T13:43:54Z</time>
</trkpt>
<trkpt lat="35.0185127" lon="33.4146399">
<ele>249.01</ele>
<time>2015-05-01T13:43:55Z</time>
</trkpt>
<trkpt lat="35.0185219" lon="33.4147202">
<ele>249.01</ele>
<time>2015-05-01T13:43:56Z</time>
</trkpt>
<trkpt lat="35.0185292" lon="33.4147984">
<ele>249.01</ele>
<time>2015-05-01T13:43:57Z</time>
</trkpt>
<trkpt lat="35.0185405" lon="33.4148697">
<ele>249.01</ele>
<time>2015-05-01T13:43:58Z</time>
</trkpt>
<trkpt lat="35.0185654" lon="33.4149368">
<ele>249.02</ele>
<time>2015-05-01T13:43:59Z</time>
</trkpt>
<trkpt lat="35.0185823" lon="33.4150137">
<ele>249.02</ele>
<time>2015-05-01T13:44:00Z</time>
</trkpt>
<trkpt lat="35.0186036" lon="33.4150828">
<ele>249.52</ele>
<time>2015-05-01T13:44:01Z</time>
</trkpt>
<trkpt lat="35.0186275" lon="33.4151471">
<ele>249.77</ele>
<time>2015-05-01T13:44:02Z</time>
</trkpt>
<trkpt lat="35.0186479" lon="33.4152092">
<ele>249.89</ele>
<time>2015-05-01T13:44:03Z</time>
</trkpt>
<trkpt lat="35.0186692" lon="33.4152711">
<ele>249.95</ele>
<time>2015-05-01T13:44:04Z</time>
</trkpt>
<trkpt lat="35.0186882" lon="33.4153320">
<ele>249.98</ele>
<time>2015-05-01T13:44:05Z</time>
</trkpt>
<trkpt lat="35.0187037" lon="33.4153931">
<ele>249.50</ele>
<time>2015-05-01T13:44:06Z</time>
</trkpt>
<trkpt lat="35.0187260" lon="33.4154506">
<ele>249.26</ele>
<time>2015-05-01T13:44:07Z</time>
</trkpt>
<trkpt lat="35.0187438" lon="33.4155082">
<ele>249.64</ele>
<time>2015-05-01T13:44:08Z</time>
</trkpt>
<trkpt lat="35.0187831" lon="33.4156092">
<ele>249.17</ele>
<time>2015-05-01T13:44:10Z</time>
</trkpt>
<trkpt lat="35.0188036" lon="33.4156648">
<ele>249.09</ele>
<time>2015-05-01T13:44:11Z</time>
</trkpt>
<trkpt lat="35.0188298" lon="33.4157255">
<ele>249.05</ele>
<time>2015-05-01T13:44:12Z</time>
</trkpt>
<trkpt lat="35.0188581" lon="33.4157858">
<ele>248.54</ele>
<time>2015-05-01T13:44:13Z</time>
</trkpt>
<trkpt lat="35.0188846" lon="33.4158426">
<ele>248.28</ele>
<time>2015-05-01T13:44:14Z</time>
</trkpt>
<trkpt lat="35.0189080" lon="33.4159071">
<ele>248.15</ele>
<time>2015-05-01T13:44:15Z</time>
</trkpt>
<trkpt lat="35.0189362" lon="33.4159722">
<ele>248.08</ele>
<time>2015-05-01T13:44:16Z</time>
</trkpt>
<trkpt lat="35.0189520" lon="33.4160410">
<ele>248.05</ele>
<time>2015-05-01T13:44:17Z</time>
</trkpt>
<trkpt lat="35.0189737" lon="33.4161090">
<ele>247.53</ele>
<time>2015-05-01T13:44:18Z</time>
</trkpt>
<trkpt lat="35.0189945" lon="33.4161622">
<ele>247.27</ele>
<time>2015-05-01T13:44:19Z</time>
</trkpt>
<trkpt lat="35.0190274" lon="33.4162028">
<ele>244.65</ele>
<time>2015-05-01T13:44:20Z</time>
</trkpt>
<trkpt lat="35.0190472" lon="33.4162689">
<ele>243.83</ele>
<time>2015-05-01T13:44:21Z</time>
</trkpt>
<trkpt lat="35.0190612" lon="33.4163295">
<ele>243.42</ele>
<time>2015-05-01T13:44:22Z</time>
</trkpt>
<trkpt lat="35.0190862" lon="33.4163854">
<ele>243.22</ele>
<time>2015-05-01T13:44:23Z</time>
</trkpt>
<trkpt lat="35.0191013" lon="33.4164522">
<ele>243.12</ele>
<time>2015-05-01T13:44:24Z</time>
</trkpt>
<trkpt lat="35.0191067" lon="33.4165270">
<ele>243.57</ele>
<time>2015-05-01T13:44:25Z</time>
</trkpt>
<trkpt lat="35.0191086" lon="33.4166012">
<ele>243.79</ele>
<time>2015-05-01T13:44:26Z</time>
</trkpt>
<trkpt lat="35.0191074" lon="33.4166731">
<ele>244.40</ele>
<time>2015-05-01T13:44:27Z</time>
</trkpt>
<trkpt lat="35.0191047" lon="33.4167484">
<ele>244.71</ele>
<time>2015-05-01T13:44:28Z</time>
</trkpt>
<trkpt lat="35.0191106" lon="33.4168237">
<ele>244.36</ele>
<time>2015-05-01T13:44:29Z</time>
</trkpt>
<trkpt lat="35.0191057" lon="33.4168954">
<ele>244.19</ele>
<time>2015-05-01T13:44:30Z</time>
</trkpt>
<trkpt lat="35.0191026" lon="33.4169606">
<ele>243.60</ele>
<time>2015-05-01T13:44:31Z</time>
</trkpt>
<trkpt lat="35.0191028" lon="33.4170320">
<ele>243.31</ele>
<time>2015-05-01T13:44:32Z</time>
</trkpt>
<trkpt lat="35.0191001" lon="33.4171030">
<ele>243.66</ele>
<time>2015-05-01T13:44:33Z</time>
</trkpt>
<trkpt lat="35.0191132" lon="33.4171630">
<ele>243.84</ele>
<time>2015-05-01T13:44:34Z</time>
</trkpt>
<trkpt lat="35.0191154" lon="33.4172318">
<ele>243.93</ele>
<time>2015-05-01T13:44:35Z</time>
</trkpt>
<trkpt lat="35.0191216" lon="33.4172991">
<ele>244.47</ele>
<time>2015-05-01T13:44:36Z</time>
</trkpt>
<trkpt lat="35.0191253" lon="33.4173696">
<ele>244.74</ele>
<time>2015-05-01T13:44:37Z</time>
</trkpt>
<trkpt lat="35.0191175" lon="33.4174480">
<ele>244.38</ele>
<time>2015-05-01T13:44:38Z</time>
</trkpt>
<trkpt lat="35.0191207" lon="33.4175117">
<ele>244.20</ele>
<time>2015-05-01T13:44:39Z</time>
</trkpt>
<trkpt lat="35.0191198" lon="33.4175842">
<ele>244.11</ele>
<time>2015-05-01T13:44:40Z</time>
</trkpt>
<trkpt lat="35.0191195" lon="33.4176617">
<ele>244.56</ele>
<time>2015-05-01T13:44:41Z</time>
</trkpt>
<trkpt lat="35.0191239" lon="33.4177327">
<ele>244.79</ele>
<time>2015-05-01T13:44:42Z</time>
</trkpt>
<trkpt lat="35.0191246" lon="33.4178158">
<ele>245.40</ele>
<time>2015-05-01T13:44:43Z</time>
</trkpt>
<trkpt lat="35.0191262" lon="33.4178932">
<ele>245.21</ele>
<time>2015-05-01T13:44:44Z</time>
</trkpt>
<trkpt lat="35.0191409" lon="33.4179632">
<ele>245.11</ele>
<time>2015-05-01T13:44:45Z</time>
</trkpt>
<trkpt lat="35.0191528" lon="33.4180432">
<ele>245.56</ele>
<time>2015-05-01T13:44:46Z</time>
</trkpt>
<trkpt lat="35.0191824" lon="33.4181145">
<ele>245.29</ele>
<time>2015-05-01T13:44:47Z</time>
</trkpt>
<trkpt lat="35.0191988" lon="33.4181912">
<ele>245.15</ele>
<time>2015-05-01T13:44:48Z</time>
</trkpt>
<trkpt lat="35.0192188" lon="33.4182630">
<ele>245.08</ele>
<time>2015-05-01T13:44:49Z</time>
</trkpt>
<trkpt lat="35.0192439" lon="33.4183529">
<ele>245.03</ele>
<time>2015-05-01T13:44:51Z</time>
</trkpt>
<trkpt lat="35.0192586" lon="33.4184130">
<ele>245.02</ele>
<time>2015-05-01T13:44:53Z</time>
</trkpt>
<trkpt lat="35.0192823" lon="33.4184659">
<ele>244.14</ele>
<time>2015-05-01T13:44:57Z</time>
</trkpt>
<trkpt lat="35.0193091" lon="33.4185166">
<ele>242.77</ele>
<time>2015-05-01T13:45:18Z</time>
</trkpt>
<trkpt lat="35.0193452" lon="33.4185933">
<ele>242.99</ele>
<time>2015-05-01T13:45:21Z</time>
</trkpt>
<trkpt lat="35.0193824" lon="33.4186653">
<ele>243.01</ele>
<time>2015-05-01T13:45:23Z</time>
</trkpt>
<trkpt lat="35.0194242" lon="33.4187453">
<ele>243.76</ele>
<time>2015-05-01T13:45:25Z</time>
</trkpt>
<trkpt lat="35.0194636" lon="33.4188234">
<ele>243.45</ele>
<time>2015-05-01T13:45:27Z</time>
</trkpt>
<trkpt lat="35.0195045" lon="33.4189077">
<ele>243.13</ele>
<time>2015-05-01T13:45:29Z</time>
</trkpt>
<trkpt lat="35.0195439" lon="33.4189994">
<ele>243.04</ele>
<time>2015-05-01T13:45:31Z</time>
</trkpt>
<trkpt lat="35.0195765" lon="33.4190985">
<ele>242.52</ele>
<time>2015-05-01T13:45:33Z</time>
</trkpt>
<trkpt lat="35.0195880" lon="33.4192189">
<ele>242.14</ele>
<time>2015-05-01T13:45:35Z</time>
</trkpt>
<trkpt lat="35.0195953" lon="33.4192814">
<ele>242.58</ele>
<time>2015-05-01T13:45:36Z</time>
</trkpt>
<trkpt lat="35.0195959" lon="33.4193442">
<ele>242.30</ele>
<time>2015-05-01T13:45:37Z</time>
</trkpt>
<trkpt lat="35.0195930" lon="33.4194040">
<ele>242.16</ele>
<time>2015-05-01T13:45:38Z</time>
</trkpt>
<trkpt lat="35.0195960" lon="33.4195157">
<ele>242.05</ele>
<time>2015-05-01T13:45:40Z</time>
</trkpt>
<trkpt lat="35.0195952" lon="33.4195719">
<ele>242.53</ele>
<time>2015-05-01T13:45:41Z</time>
</trkpt>
<trkpt lat="35.0195954" lon="33.4196898">
<ele>242.65</ele>
<time>2015-05-01T13:45:43Z</time>
</trkpt>
<trkpt lat="35.0195961" lon="33.4197529">
<ele>243.33</ele>
<time>2015-05-01T13:45:44Z</time>
</trkpt>
<trkpt lat="35.0196024" lon="33.4198606">
<ele>243.84</ele>
<time>2015-05-01T13:45:46Z</time>
</trkpt>
<trkpt lat="35.0196095" lon="33.4199526">
<ele>243.97</ele>
<time>2015-05-01T13:45:48Z</time>
</trkpt>
<trkpt lat="35.0196047" lon="33.4200395">
<ele>244.01</ele>
<time>2015-05-01T13:45:50Z</time>
</trkpt>
<trkpt lat="35.0196053" lon="33.4201402">
<ele>244.76</ele>
<time>2015-05-01T13:45:52Z</time>
</trkpt>
<trkpt lat="35.0195997" lon="33.4202459">
<ele>245.95</ele>
<time>2015-05-01T13:45:54Z</time>
</trkpt>
<trkpt lat="35.0196036" lon="33.4203498">
<ele>246.00</ele>
<time>2015-05-01T13:45:56Z</time>
</trkpt>
<trkpt lat="35.0196152" lon="33.4204524">
<ele>245.51</ele>
<time>2015-05-01T13:45:58Z</time>
</trkpt>
<trkpt lat="35.0196069" lon="33.4205851">
<ele>244.39</ele>
<time>2015-05-01T13:46:00Z</time>
</trkpt>
<trkpt lat="35.0196064" lon="33.4206484">
<ele>244.20</ele>
<time>2015-05-01T13:46:01Z</time>
</trkpt>
<trkpt lat="35.0196075" lon="33.4207116">
<ele>244.11</ele>
<time>2015-05-01T13:46:02Z</time>
</trkpt>
<trkpt lat="35.0196084" lon="33.4207719">
<ele>244.56</ele>
<time>2015-05-01T13:46:03Z</time>
</trkpt>
<trkpt lat="35.0196062" lon="33.4208317">
<ele>245.29</ele>
<time>2015-05-01T13:46:04Z</time>
</trkpt>
<trkpt lat="35.0196117" lon="33.4208881">
<ele>245.15</ele>
<time>2015-05-01T13:46:05Z</time>
</trkpt>
<trkpt lat="35.0196142" lon="33.4209466">
<ele>245.08</ele>
<time>2015-05-01T13:46:06Z</time>
</trkpt>
<trkpt lat="35.0196140" lon="33.4210091">
<ele>245.05</ele>
<time>2015-05-01T13:46:07Z</time>
</trkpt>
<trkpt lat="35.0196141" lon="33.4210691">
<ele>245.03</ele>
<time>2015-05-01T13:46:08Z</time>
</trkpt>
<trkpt lat="35.0196138" lon="33.4211294">
<ele>245.02</ele>
<time>2015-05-01T13:46:09Z</time>
</trkpt>
<trkpt lat="35.0196228" lon="33.4212300">
<ele>245.02</ele>
<time>2015-05-01T13:46:11Z</time>
</trkpt>
<trkpt lat="35.0196245" lon="33.4213387">
<ele>245.02</ele>
<time>2015-05-01T13:46:13Z</time>
</trkpt>
<trkpt lat="35.0196299" lon="33.4214297">
<ele>245.77</ele>
<time>2015-05-01T13:46:15Z</time>
</trkpt>
<trkpt lat="35.0196226" lon="33.4215294">
<ele>246.45</ele>
<time>2015-05-01T13:46:17Z</time>
</trkpt>
<trkpt lat="35.0196242" lon="33.4216079">
<ele>246.88</ele>
<time>2015-05-01T13:46:19Z</time>
</trkpt>
<trkpt lat="35.0196278" lon="33.4216703">
<ele>246.98</ele>
<time>2015-05-01T13:46:21Z</time>
</trkpt>
<trkpt lat="35.0196266" lon="33.4217539">
<ele>247.01</ele>
<time>2015-05-01T13:46:24Z</time>
</trkpt>
<trkpt lat="35.0196335" lon="33.4218309">
<ele>246.52</ele>
<time>2015-05-01T13:46:27Z</time>
</trkpt>
<trkpt lat="35.0196447" lon="33.4218986">
<ele>245.95</ele>
<time>2015-05-01T13:46:30Z</time>
</trkpt>
<trkpt lat="35.0196505" lon="33.4219678">
<ele>246.01</ele>
<time>2015-05-01T13:46:34Z</time>
</trkpt>
<trkpt lat="35.0196457" lon="33.4220273">
<ele>247.77</ele>
<time>2015-05-01T13:46:37Z</time>
</trkpt>
<trkpt lat="35.0196507" lon="33.4221038">
<ele>248.11</ele>
<time>2015-05-01T13:46:40Z</time>
</trkpt>
<trkpt lat="35.0196530" lon="33.4221738">
<ele>249.65</ele>
<time>2015-05-01T13:46:43Z</time>
</trkpt>
<trkpt lat="35.0196557" lon="33.4222418">
<ele>250.72</ele>
<time>2015-05-01T13:46:46Z</time>
</trkpt>
<trkpt lat="35.0196572" lon="33.4223036">
<ele>250.94</ele>
<time>2015-05-01T13:46:48Z</time>
</trkpt>
<trkpt lat="35.0196596" lon="33.4223695">
<ele>251.00</ele>
<time>2015-05-01T13:46:50Z</time>
</trkpt>
<trkpt lat="35.0196618" lon="33.4224372">
<ele>251.01</ele>
<time>2015-05-01T13:46:52Z</time>
</trkpt>
<trkpt lat="35.0196652" lon="33.4225027">
<ele>251.01</ele>
<time>2015-05-01T13:46:54Z</time>
</trkpt>
<trkpt lat="35.0196642" lon="33.4225649">
<ele>251.77</ele>
<time>2015-05-01T13:46:56Z</time>
</trkpt>
<trkpt lat="35.0196565" lon="33.4226230">
<ele>251.95</ele>
<time>2015-05-01T13:46:58Z</time>
</trkpt>
<trkpt lat="35.0196540" lon="33.4227055">
<ele>252.51</ele>
<time>2015-05-01T13:47:01Z</time>
</trkpt>
<trkpt lat="35.0196580" lon="33.4227825">
<ele>252.89</ele>
<time>2015-05-01T13:47:03Z</time>
</trkpt>
<trkpt lat="35.0196627" lon="33.4228840">
<ele>252.98</ele>
<time>2015-05-01T13:47:05Z</time>
</trkpt>
<trkpt lat="35.0196631" lon="33.4229809">
<ele>252.26</ele>
<time>2015-05-01T13:47:07Z</time>
</trkpt>
<trkpt lat="35.0196670" lon="33.4230718">
<ele>251.33</ele>
<time>2015-05-01T13:47:09Z</time>
</trkpt>
<trkpt lat="35.0196714" lon="33.4231425">
<ele>250.84</ele>
<time>2015-05-01T13:47:11Z</time>
</trkpt>
<trkpt lat="35.0196763" lon="33.4232110">
<ele>250.47</ele>
<time>2015-05-01T13:47:13Z</time>
</trkpt>
<trkpt lat="35.0196852" lon="33.4232912">
<ele>250.07</ele>
<time>2015-05-01T13:47:16Z</time>
</trkpt>
<trkpt lat="35.0196920" lon="33.4233459">
<ele>250.53</ele>
<time>2015-05-01T13:47:18Z</time>
</trkpt>
<trkpt lat="35.0196956" lon="33.4234049">
<ele>250.89</ele>
<time>2015-05-01T13:47:20Z</time>
</trkpt>
<trkpt lat="35.0196867" lon="33.4234660">
<ele>251.74</ele>
<time>2015-05-01T13:47:22Z</time>
</trkpt>
<trkpt lat="35.0196518" lon="33.4235187">
<ele>251.70</ele>
<time>2015-05-01T13:47:24Z</time>
</trkpt>
<trkpt lat="35.0196136" lon="33.4235641">
<ele>250.44</ele>
<time>2015-05-01T13:47:26Z</time>
</trkpt>
<trkpt lat="35.0196041" lon="33.4236231">
<ele>248.73</ele>
<time>2015-05-01T13:47:30Z</time>
</trkpt>
<trkpt lat="35.0196176" lon="33.4236878">
<ele>249.00</ele>
<time>2015-05-01T13:47:34Z</time>
</trkpt>
<trkpt lat="35.0196218" lon="33.4237486">
<ele>249.01</ele>
<time>2015-05-01T13:47:36Z</time>
</trkpt>
<trkpt lat="35.0196308" lon="33.4238131">
<ele>249.01</ele>
<time>2015-05-01T13:47:38Z</time>
</trkpt>
<trkpt lat="35.0196331" lon="33.4238826">
<ele>248.27</ele>
<time>2015-05-01T13:47:40Z</time>
</trkpt>
<trkpt lat="35.0196319" lon="33.4239498">
<ele>247.58</ele>
<time>2015-05-01T13:47:42Z</time>
</trkpt>
<trkpt lat="35.0196334" lon="33.4240160">
<ele>247.16</ele>
<time>2015-05-01T13:47:44Z</time>
</trkpt>
<trkpt lat="35.0196225" lon="33.4240820">
<ele>246.55</ele>
<time>2015-05-01T13:47:46Z</time>
</trkpt>
<trkpt lat="35.0195842" lon="33.4241140">
<ele>245.33</ele>
<time>2015-05-01T13:47:49Z</time>
</trkpt>
<trkpt lat="35.0195445" lon="33.4241425">
<ele>247.02</ele>
<time>2015-05-01T13:48:21Z</time>
</trkpt>
<trkpt lat="35.0195075" lon="33.4241811">
<ele>248.26</ele>
<time>2015-05-01T13:48:28Z</time>
</trkpt>
<trkpt lat="35.0194768" lon="33.4242289">
<ele>248.84</ele>
<time>2015-05-01T13:48:32Z</time>
</trkpt>
<trkpt lat="35.0195086" lon="33.4242726">
<ele>248.43</ele>
<time>2015-05-01T13:48:33Z</time>
</trkpt>
<trkpt lat="35.0195703" lon="33.4242810">
<ele>248.12</ele>
<time>2015-05-01T13:48:35Z</time>
</trkpt>
<trkpt lat="35.0196425" lon="33.4242676">
<ele>247.54</ele>
<time>2015-05-01T13:48:37Z</time>
</trkpt>
<trkpt lat="35.0196982" lon="33.4242681">
<ele>246.78</ele>
<time>2015-05-01T13:48:38Z</time>
</trkpt>
<trkpt lat="35.0197531" lon="33.4242458">
<ele>246.40</ele>
<time>2015-05-01T13:48:39Z</time>
</trkpt>
<trkpt lat="35.0197332" lon="33.4241862">
<ele>246.11</ele>
<time>2015-05-01T13:48:41Z</time>
</trkpt>
<trkpt lat="35.0196948" lon="33.4241312">
<ele>245.29</ele>
<time>2015-05-01T13:48:43Z</time>
</trkpt>
<trkpt lat="35.0196692" lon="33.4240448">
<ele>245.08</ele>
<time>2015-05-01T13:48:45Z</time>
</trkpt>
<trkpt lat="35.0196494" lon="33.4239934">
<ele>244.55</ele>
<time>2015-05-01T13:48:46Z</time>
</trkpt>
<trkpt lat="35.0196311" lon="33.4239385">
<ele>244.28</ele>
<time>2015-05-01T13:48:47Z</time>
</trkpt>
<trkpt lat="35.0196217" lon="33.4238780">
<ele>243.65</ele>
<time>2015-05-01T13:48:48Z</time>
</trkpt>
<trkpt lat="35.0196187" lon="33.4238213">
<ele>243.33</ele>
<time>2015-05-01T13:48:49Z</time>
</trkpt>
<trkpt lat="35.0196164" lon="33.4237616">
<ele>243.17</ele>
<time>2015-05-01T13:48:50Z</time>
</trkpt>
<trkpt lat="35.0196171" lon="33.4237026">
<ele>242.60</ele>
<time>2015-05-01T13:48:51Z</time>
</trkpt>
<trkpt lat="35.0196150" lon="33.4236411">
<ele>242.31</ele>
<time>2015-05-01T13:48:52Z</time>
</trkpt>
<trkpt lat="35.0196110" lon="33.4235844">
<ele>242.16</ele>
<time>2015-05-01T13:48:53Z</time>
</trkpt>
<trkpt lat="35.0196127" lon="33.4235292">
<ele>242.09</ele>
<time>2015-05-01T13:48:54Z</time>
</trkpt>
<trkpt lat="35.0196104" lon="33.4234266">
<ele>242.03</ele>
<time>2015-05-01T13:48:56Z</time>
</trkpt>
<trkpt lat="35.0196054" lon="33.4233304">
<ele>241.52</ele>
<time>2015-05-01T13:48:58Z</time>
</trkpt>
<trkpt lat="35.0196045" lon="33.4232486">
<ele>241.14</ele>
<time>2015-05-01T13:49:00Z</time>
</trkpt>
<trkpt lat="35.0196064" lon="33.4231596">
<ele>241.66</ele>
<time>2015-05-01T13:49:03Z</time>
</trkpt>
<trkpt lat="35.0195943" lon="33.4230778">
<ele>241.68</ele>
<time>2015-05-01T13:49:05Z</time>
</trkpt>
<trkpt lat="35.0195798" lon="33.4229917">
<ele>241.93</ele>
<time>2015-05-01T13:49:07Z</time>
</trkpt>
<trkpt lat="35.0195768" lon="33.4228978">
<ele>241.99</ele>
<time>2015-05-01T13:49:09Z</time>
</trkpt>
<trkpt lat="35.0195820" lon="33.4228009">
<ele>242.01</ele>
<time>2015-05-01T13:49:11Z</time>
</trkpt>
<trkpt lat="35.0195830" lon="33.4227402">
<ele>242.01</ele>
<time>2015-05-01T13:49:12Z</time>
</trkpt>
<trkpt lat="35.0195847" lon="33.4226702">
<ele>242.01</ele>
<time>2015-05-01T13:49:13Z</time>
</trkpt>
<trkpt lat="35.0195789" lon="33.4226123">
<ele>242.02</ele>
<time>2015-05-01T13:49:14Z</time>
</trkpt>
<trkpt lat="35.0195717" lon="33.4225108">
<ele>241.77</ele>
<time>2015-05-01T13:49:16Z</time>
</trkpt>
<trkpt lat="35.0195665" lon="33.4224062">
<ele>241.20</ele>
<time>2015-05-01T13:49:18Z</time>
</trkpt>
<trkpt lat="35.0195638" lon="33.4222995">
<ele>241.06</ele>
<time>2015-05-01T13:49:20Z</time>
</trkpt>
<trkpt lat="35.0195628" lon="33.4222439">
<ele>241.04</ele>
<time>2015-05-01T13:49:21Z</time>
</trkpt>
<trkpt lat="35.0195637" lon="33.4221391">
<ele>241.02</ele>
<time>2015-05-01T13:49:23Z</time>
</trkpt>
<trkpt lat="35.0195474" lon="33.4220621">
<ele>240.27</ele>
<time>2015-05-01T13:49:25Z</time>
</trkpt>
<trkpt lat="35.0195133" lon="33.4220184">
<ele>240.83</ele>
<time>2015-05-01T13:49:27Z</time>
</trkpt>
<trkpt lat="35.0194684" lon="33.4219895">
<ele>241.72</ele>
<time>2015-05-01T13:49:29Z</time>
</trkpt>
<trkpt lat="35.0194276" lon="33.4219475">
<ele>242.44</ele>
<time>2015-05-01T13:49:31Z</time>
</trkpt>
<trkpt lat="35.0193755" lon="33.4218854">
<ele>244.12</ele>
<time>2015-05-01T13:49:33Z</time>
</trkpt>
<trkpt lat="35.0193341" lon="33.4218241">
<ele>244.29</ele>
<time>2015-05-01T13:49:35Z</time>
</trkpt>
<trkpt lat="35.0192808" lon="33.4217957">
<ele>244.84</ele>
<time>2015-05-01T13:49:37Z</time>
</trkpt>
<trkpt lat="35.0192304" lon="33.4218123">
<ele>244.97</ele>
<time>2015-05-01T13:49:39Z</time>
</trkpt>
<trkpt lat="35.0191964" lon="33.4218648">
<ele>245.00</ele>
<time>2015-05-01T13:49:41Z</time>
</trkpt>
<trkpt lat="35.0191908" lon="33.4219390">
<ele>245.51</ele>
<time>2015-05-01T13:49:43Z</time>
</trkpt>
<trkpt lat="35.0191988" lon="33.4220170">
<ele>245.39</ele>
<time>2015-05-01T13:49:45Z</time>
</trkpt>
<trkpt lat="35.0192028" lon="33.4220833">
<ele>244.86</ele>
<time>2015-05-01T13:49:47Z</time>
</trkpt>
<trkpt lat="35.0192017" lon="33.4221590">
<ele>244.90</ele>
<time>2015-05-01T13:49:53Z</time>
</trkpt>
<trkpt lat="35.0192002" lon="33.4222145">
<ele>244.99</ele>
<time>2015-05-01T13:49:55Z</time>
</trkpt>
<trkpt lat="35.0192020" lon="33.4222699">
<ele>245.01</ele>
<time>2015-05-01T13:49:57Z</time>
</trkpt>
<trkpt lat="35.0191966" lon="33.4223445">
<ele>245.52</ele>
<time>2015-05-01T13:50:00Z</time>
</trkpt>
<trkpt lat="35.0192043" lon="33.4224207">
<ele>244.55</ele>
<time>2015-05-01T13:50:04Z</time>
</trkpt>
<trkpt lat="35.0192327" lon="33.4224754">
<ele>244.90</ele>
<time>2015-05-01T13:50:06Z</time>
</trkpt>
<trkpt lat="35.0192764" lon="33.4225395">
<ele>244.99</ele>
<time>2015-05-01T13:50:08Z</time>
</trkpt>
<trkpt lat="35.0193164" lon="33.4226031">
<ele>245.01</ele>
<time>2015-05-01T13:50:10Z</time>
</trkpt>
<trkpt lat="35.0193540" lon="33.4226670">
<ele>245.01</ele>
<time>2015-05-01T13:50:12Z</time>
</trkpt>
<trkpt lat="35.0193933" lon="33.4227301">
<ele>245.02</ele>
<time>2015-05-01T13:50:14Z</time>
</trkpt>
<trkpt lat="35.0194077" lon="33.4228105">
<ele>246.52</ele>
<time>2015-05-01T13:50:16Z</time>
</trkpt>
<trkpt lat="35.0194118" lon="33.4228880">
<ele>247.64</ele>
<time>2015-05-01T13:50:18Z</time>
</trkpt>
<trkpt lat="35.0194138" lon="33.4229478">
<ele>247.92</ele>
<time>2015-05-01T13:50:20Z</time>
</trkpt>
<trkpt lat="35.0193950" lon="33.4230004">
<ele>247.92</ele>
<time>2015-05-01T13:50:26Z</time>
</trkpt>
<trkpt lat="35.0193454" lon="33.4230318">
<ele>248.00</ele>
<time>2015-05-01T13:50:29Z</time>
</trkpt>
<trkpt lat="35.0192976" lon="33.4230581">
<ele>247.51</ele>
<time>2015-05-01T13:50:31Z</time>
</trkpt>
<trkpt lat="35.0192371" lon="33.4230891">
<ele>247.14</ele>
<time>2015-05-01T13:50:33Z</time>
</trkpt>
<trkpt lat="35.0191804" lon="33.4231167">
<ele>247.05</ele>
<time>2015-05-01T13:50:35Z</time>
</trkpt>
<trkpt lat="35.0191308" lon="33.4231520">
<ele>247.02</ele>
<time>2015-05-01T13:50:37Z</time>
</trkpt>
<trkpt lat="35.0190814" lon="33.4231815">
<ele>247.02</ele>
<time>2015-05-01T13:50:39Z</time>
</trkpt>
<trkpt lat="35.0190342" lon="33.4232109">
<ele>247.02</ele>
<time>2015-05-01T13:50:41Z</time>
</trkpt>
<trkpt lat="35.0190106" lon="33.4232646">
<ele>247.02</ele>
<time>2015-05-01T13:50:43Z</time>
</trkpt>
<trkpt lat="35.0190040" lon="33.4233270">
<ele>247.02</ele>
<time>2015-05-01T13:50:45Z</time>
</trkpt>
<trkpt lat="35.0189623" lon="33.4233656">
<ele>247.02</ele>
<time>2015-05-01T13:50:49Z</time>
</trkpt>
<trkpt lat="35.0189080" lon="33.4233638">
<ele>247.52</ele>
<time>2015-05-01T13:50:51Z</time>
</trkpt>
<trkpt lat="35.0188420" lon="33.4233618">
<ele>247.89</ele>
<time>2015-05-01T13:50:53Z</time>
</trkpt>
<trkpt lat="35.0187756" lon="33.4233610">
<ele>247.98</ele>
<time>2015-05-01T13:50:55Z</time>
</trkpt>
<trkpt lat="35.0187054" lon="33.4233624">
<ele>248.01</ele>
<time>2015-05-01T13:50:57Z</time>
</trkpt>
<trkpt lat="35.0186305" lon="33.4233632">
<ele>248.01</ele>
<time>2015-05-01T13:50:59Z</time>
</trkpt>
<trkpt lat="35.0185546" lon="33.4233686">
<ele>248.77</ele>
<time>2015-05-01T13:51:01Z</time>
</trkpt>
<trkpt lat="35.0184822" lon="33.4233708">
<ele>248.95</ele>
<time>2015-05-01T13:51:03Z</time>
</trkpt>
<trkpt lat="35.0184105" lon="33.4233760">
<ele>249.50</ele>
<time>2015-05-01T13:51:05Z</time>
</trkpt>
<trkpt lat="35.0183458" lon="33.4233991">
<ele>249.89</ele>
<time>2015-05-01T13:51:07Z</time>
</trkpt>
<trkpt lat="35.0182850" lon="33.4234278">
<ele>249.98</ele>
<time>2015-05-01T13:51:09Z</time>
</trkpt>
<trkpt lat="35.0182344" lon="33.4234358">
<ele>250.01</ele>
<time>2015-05-01T13:51:11Z</time>
</trkpt>
<trkpt lat="35.0181783" lon="33.4234394">
<ele>250.01</ele>
<time>2015-05-01T13:51:13Z</time>
</trkpt>
<trkpt lat="35.0181196" lon="33.4234416">
<ele>250.52</ele>
<time>2015-05-01T13:51:15Z</time>
</trkpt>
<trkpt lat="35.0180543" lon="33.4234436">
<ele>250.89</ele>
<time>2015-05-01T13:51:17Z</time>
</trkpt>
<trkpt lat="35.0179877" lon="33.4234441">
<ele>250.98</ele>
<time>2015-05-01T13:51:19Z</time>
</trkpt>
<trkpt lat="35.0179175" lon="33.4234455">
<ele>251.01</ele>
<time>2015-05-01T13:51:21Z</time>
</trkpt>
<trkpt lat="35.0178498" lon="33.4234468">
<ele>251.76</ele>
<time>2015-05-01T13:51:23Z</time>
</trkpt>
<trkpt lat="35.0177807" lon="33.4234495">
<ele>252.70</ele>
<time>2015-05-01T13:51:25Z</time>
</trkpt>
<trkpt lat="35.0177132" lon="33.4234354">
<ele>252.94</ele>
<time>2015-05-01T13:51:27Z</time>
</trkpt>
<trkpt lat="35.0176454" lon="33.4234120">
<ele>253.00</ele>
<time>2015-05-01T13:51:29Z</time>
</trkpt>
<trkpt lat="35.0175786" lon="33.4234055">
<ele>253.01</ele>
<time>2015-05-01T13:51:31Z</time>
</trkpt>
<trkpt lat="35.0175090" lon="33.4234086">
<ele>253.01</ele>
<time>2015-05-01T13:51:33Z</time>
</trkpt>
<trkpt lat="35.0174436" lon="33.4234145">
<ele>253.77</ele>
<time>2015-05-01T13:51:35Z</time>
</trkpt>
<trkpt lat="35.0173939" lon="33.4234178">
<ele>253.95</ele>
<time>2015-05-01T13:51:37Z</time>
</trkpt>
<trkpt lat="35.0173440" lon="33.4234181">
<ele>254.00</ele>
<time>2015-05-01T13:51:39Z</time>
</trkpt>
<trkpt lat="35.0172880" lon="33.4234218">
<ele>254.51</ele>
<time>2015-05-01T13:51:41Z</time>
</trkpt>
<trkpt lat="35.0172295" lon="33.4234217">
<ele>254.89</ele>
<time>2015-05-01T13:51:43Z</time>
</trkpt>
<trkpt lat="35.0171701" lon="33.4234138">
<ele>254.98</ele>
<time>2015-05-01T13:51:45Z</time>
</trkpt>
<trkpt lat="35.0171137" lon="33.4234075">
<ele>255.76</ele>
<time>2015-05-01T13:51:47Z</time>
</trkpt>
<trkpt lat="35.0170580" lon="33.4233989">
<ele>256.45</ele>
<time>2015-05-01T13:51:49Z</time>
</trkpt>
<trkpt lat="35.0170073" lon="33.4233908">
<ele>256.87</ele>
<time>2015-05-01T13:51:51Z</time>
</trkpt>
<trkpt lat="35.0169572" lon="33.4233934">
<ele>256.98</ele>
<time>2015-05-01T13:51:53Z</time>
</trkpt>
<trkpt lat="35.0169119" lon="33.4233976">
<ele>257.01</ele>
<time>2015-05-01T13:51:57Z</time>
</trkpt>
<trkpt lat="35.0168668" lon="33.4233982">
<ele>257.52</ele>
<time>2015-05-01T13:52:01Z</time>
</trkpt>
<trkpt lat="35.0168133" lon="33.4234098">
<ele>257.95</ele>
<time>2015-05-01T13:52:04Z</time>
</trkpt>
<trkpt lat="35.0167509" lon="33.4234173">
<ele>258.01</ele>
<time>2015-05-01T13:52:07Z</time>
</trkpt>
<trkpt lat="35.0166851" lon="33.4234134">
<ele>258.77</ele>
<time>2015-05-01T13:52:10Z</time>
</trkpt>
<trkpt lat="35.0166200" lon="33.4234123">
<ele>258.98</ele>
<time>2015-05-01T13:52:13Z</time>
</trkpt>
<trkpt lat="35.0165593" lon="33.4234136">
<ele>259.51</ele>
<time>2015-05-01T13:52:16Z</time>
</trkpt>
<trkpt lat="35.0165026" lon="33.4234158">
<ele>259.95</ele>
<time>2015-05-01T13:52:19Z</time>
</trkpt>
<trkpt lat="35.0164443" lon="33.4234221">
<ele>260.76</ele>
<time>2015-05-01T13:52:22Z</time>
</trkpt>
<trkpt lat="35.0163894" lon="33.4234197">
<ele>260.86</ele>
<time>2015-05-01T13:52:25Z</time>
</trkpt>
<trkpt lat="35.0163480" lon="33.4234598">
<ele>260.25</ele>
<time>2015-05-01T13:52:28Z</time>
</trkpt>
<trkpt lat="35.0163258" lon="33.4235129">
<ele>260.53</ele>
<time>2015-05-01T13:52:32Z</time>
</trkpt>
<trkpt lat="35.0162842" lon="33.4235738">
<ele>261.74</ele>
<time>2015-05-01T13:52:36Z</time>
</trkpt>
<trkpt lat="35.0162655" lon="33.4236359">
<ele>261.98</ele>
<time>2015-05-01T13:52:39Z</time>
</trkpt>
<trkpt lat="35.0162395" lon="33.4236941">
<ele>262.64</ele>
<time>2015-05-01T13:52:42Z</time>
</trkpt>
<trkpt lat="35.0162028" lon="33.4237367">
<ele>263.47</ele>
<time>2015-05-01T13:52:45Z</time>
</trkpt>
<trkpt lat="35.0161551" lon="33.4237720">
<ele>263.98</ele>
<time>2015-05-01T13:52:49Z</time>
</trkpt>
<trkpt lat="35.0161197" lon="33.4237282">
<ele>264.01</ele>
<time>2015-05-01T13:52:52Z</time>
</trkpt>
<trkpt lat="35.0161008" lon="33.4236700">
<ele>264.02</ele>
<time>2015-05-01T13:52:55Z</time>
</trkpt>
<trkpt lat="35.0160799" lon="33.4236072">
<ele>264.89</ele>
<time>2015-05-01T13:52:58Z</time>
</trkpt>
<trkpt lat="35.0160590" lon="33.4235477">
<ele>266.38</ele>
<time>2015-05-01T13:53:01Z</time>
</trkpt>
<trkpt lat="35.0160350" lon="33.4235007">
<ele>267.44</ele>
<time>2015-05-01T13:53:04Z</time>
</trkpt>
<trkpt lat="35.0160077" lon="33.4234438">
<ele>268.85</ele>
<time>2015-05-01T13:53:08Z</time>
</trkpt>
<trkpt lat="35.0159637" lon="33.4234322">
<ele>268.99</ele>
<time>2015-05-01T13:53:45Z</time>
</trkpt>
<trkpt lat="35.0159848" lon="33.4234853">
<ele>267.27</ele>
<time>2015-05-01T13:54:05Z</time>
</trkpt>
<trkpt lat="35.0160127" lon="33.4235382">
<ele>265.83</ele>
<time>2015-05-01T13:54:07Z</time>
</trkpt>
<trkpt lat="35.0160483" lon="33.4235867">
<ele>264.47</ele>
<time>2015-05-01T13:54:09Z</time>
</trkpt>
<trkpt lat="35.0160720" lon="33.4236458">
<ele>263.63</ele>
<time>2015-05-01T13:54:11Z</time>
</trkpt>
<trkpt lat="35.0160977" lon="33.4237159">
<ele>261.92</ele>
<time>2015-05-01T13:54:13Z</time>
</trkpt>
<trkpt lat="35.0161287" lon="33.4237735">
<ele>261.74</ele>
<time>2015-05-01T13:54:15Z</time>
</trkpt>
<trkpt lat="35.0161771" lon="33.4237828">
<ele>261.45</ele>
<time>2015-05-01T13:54:17Z</time>
</trkpt>
<trkpt lat="35.0161899" lon="33.4237275">
<ele>263.27</ele>
<time>2015-05-01T13:55:00Z</time>
</trkpt>
<trkpt lat="35.0161690" lon="33.4236763">
<ele>262.09</ele>
<time>2015-05-01T13:55:04Z</time>
</trkpt>
<trkpt lat="35.0162158" lon="33.4236646">
<ele>255.02</ele>
<time>2015-05-01T14:03:36Z</time>
</trkpt>
<trkpt lat="35.0162548" lon="33.4236070">
<ele>255.02</ele>
<time>2015-05-01T14:03:38Z</time>
</trkpt>
<trkpt lat="35.0162792" lon="33.4235519">
<ele>255.02</ele>
<time>2015-05-01T14:03:40Z</time>
</trkpt>
<trkpt lat="35.0163003" lon="33.4235033">
<ele>254.52</ele>
<time>2015-05-01T14:03:42Z</time>
</trkpt>
<trkpt lat="35.0163371" lon="33.4234471">
<ele>253.17</ele>
<time>2015-05-01T14:03:46Z</time>
</trkpt>
<trkpt lat="35.0163794" lon="33.4234018">
<ele>253.03</ele>
<time>2015-05-01T14:03:50Z</time>
</trkpt>
<trkpt lat="35.0164301" lon="33.4234135">
<ele>252.39</ele>
<time>2015-05-01T14:04:13Z</time>
</trkpt>
<trkpt lat="35.0164865" lon="33.4234074">
<ele>252.11</ele>
<time>2015-05-01T14:04:15Z</time>
</trkpt>
<trkpt lat="35.0165480" lon="33.4234076">
<ele>251.54</ele>
<time>2015-05-01T14:04:17Z</time>
</trkpt>
<trkpt lat="35.0166021" lon="33.4234105">
<ele>251.15</ele>
<time>2015-05-01T14:04:19Z</time>
</trkpt>
<trkpt lat="35.0166666" lon="33.4234048">
<ele>251.08</ele>
<time>2015-05-01T14:04:55Z</time>
</trkpt>
<trkpt lat="35.0167351" lon="33.4234044">
<ele>250.53</ele>
<time>2015-05-01T14:04:57Z</time>
</trkpt>
<trkpt lat="35.0168048" lon="33.4234100">
<ele>249.39</ele>
<time>2015-05-01T14:04:59Z</time>
</trkpt>
<trkpt lat="35.0168832" lon="33.4234135">
<ele>249.11</ele>
<time>2015-05-01T14:05:01Z</time>
</trkpt>
<trkpt lat="35.0169335" lon="33.4234110">
<ele>249.06</ele>
<time>2015-05-01T14:05:02Z</time>
</trkpt>
<trkpt lat="35.0169950" lon="33.4234036">
<ele>249.04</ele>
<time>2015-05-01T14:05:03Z</time>
</trkpt>
<trkpt lat="35.0170469" lon="33.4234012">
<ele>248.53</ele>
<time>2015-05-01T14:05:04Z</time>
</trkpt>
<trkpt lat="35.0170952" lon="33.4234057">
<ele>248.27</ele>
<time>2015-05-01T14:05:05Z</time>
</trkpt>
<trkpt lat="35.0171427" lon="33.4234145">
<ele>248.14</ele>
<time>2015-05-01T14:05:06Z</time>
</trkpt>
<trkpt lat="35.0172196" lon="33.4234303">
<ele>248.05</ele>
<time>2015-05-01T14:05:08Z</time>
</trkpt>
<trkpt lat="35.0172999" lon="33.4234235">
<ele>248.02</ele>
<time>2015-05-01T14:05:10Z</time>
</trkpt>
<trkpt lat="35.0173767" lon="33.4234176">
<ele>247.27</ele>
<time>2015-05-01T14:05:12Z</time>
</trkpt>
<trkpt lat="35.0174537" lon="33.4234106">
<ele>246.58</ele>
<time>2015-05-01T14:05:14Z</time>
</trkpt>
<trkpt lat="35.0175457" lon="33.4234032">
<ele>246.16</ele>
<time>2015-05-01T14:05:16Z</time>
</trkpt>
<trkpt lat="35.0175963" lon="33.4234022">
<ele>246.09</ele>
<time>2015-05-01T14:05:17Z</time>
</trkpt>
<trkpt lat="35.0176443" lon="33.4234080">
<ele>246.05</ele>
<time>2015-05-01T14:05:18Z</time>
</trkpt>
<trkpt lat="35.0176916" lon="33.4234189">
<ele>246.03</ele>
<time>2015-05-01T14:05:19Z</time>
</trkpt>
<trkpt lat="35.0177444" lon="33.4234322">
<ele>246.02</ele>
<time>2015-05-01T14:05:20Z</time>
</trkpt>
<trkpt lat="35.0178379" lon="33.4234473">
<ele>245.52</ele>
<time>2015-05-01T14:05:22Z</time>
</trkpt>
<trkpt lat="35.0178886" lon="33.4234468">
<ele>245.27</ele>
<time>2015-05-01T14:05:23Z</time>
</trkpt>
<trkpt lat="35.0179430" lon="33.4234359">
<ele>245.14</ele>
<time>2015-05-01T14:05:24Z</time>
</trkpt>
<trkpt lat="35.0179954" lon="33.4234393">
<ele>245.08</ele>
<time>2015-05-01T14:05:25Z</time>
</trkpt>
<trkpt lat="35.0180489" lon="33.4234366">
<ele>245.05</ele>
<time>2015-05-01T14:05:26Z</time>
</trkpt>
<trkpt lat="35.0181042" lon="33.4234330">
<ele>245.03</ele>
<time>2015-05-01T14:05:27Z</time>
</trkpt>
<trkpt lat="35.0181624" lon="33.4234369">
<ele>244.52</ele>
<time>2015-05-01T14:05:28Z</time>
</trkpt>
<trkpt lat="35.0182220" lon="33.4234289">
<ele>245.27</ele>
<time>2015-05-01T14:05:29Z</time>
</trkpt>
<trkpt lat="35.0182734" lon="33.4234194">
<ele>245.14</ele>
<time>2015-05-01T14:05:30Z</time>
</trkpt>
<trkpt lat="35.0183622" lon="33.4233960">
<ele>244.30</ele>
<time>2015-05-01T14:05:32Z</time>
</trkpt>
<trkpt lat="35.0184443" lon="33.4233651">
<ele>243.34</ele>
<time>2015-05-01T14:05:34Z</time>
</trkpt>
<trkpt lat="35.0184892" lon="33.4233558">
<ele>242.68</ele>
<time>2015-05-01T14:05:35Z</time>
</trkpt>
<trkpt lat="35.0185822" lon="33.4233515">
<ele>242.18</ele>
<time>2015-05-01T14:05:37Z</time>
</trkpt>
<trkpt lat="35.0186292" lon="33.4233470">
<ele>242.10</ele>
<time>2015-05-01T14:05:38Z</time>
</trkpt>
<trkpt lat="35.0186769" lon="33.4233420">
<ele>242.06</ele>
<time>2015-05-01T14:05:39Z</time>
</trkpt>
<trkpt lat="35.0187341" lon="33.4233442">
<ele>241.54</ele>
<time>2015-05-01T14:05:40Z</time>
</trkpt>
<trkpt lat="35.0188300" lon="33.4233377">
<ele>241.15</ele>
<time>2015-05-01T14:05:42Z</time>
</trkpt>
<trkpt lat="35.0189074" lon="33.4233348">
<ele>240.30</ele>
<time>2015-05-01T14:05:44Z</time>
</trkpt>
<trkpt lat="35.0189672" lon="33.4233295">
<ele>240.09</ele>
<time>2015-05-01T14:05:46Z</time>
</trkpt>
<trkpt lat="35.0190077" lon="33.4232766">
<ele>240.03</ele>
<time>2015-05-01T14:05:48Z</time>
</trkpt>
<trkpt lat="35.0190183" lon="33.4232126">
<ele>240.02</ele>
<time>2015-05-01T14:05:50Z</time>
</trkpt>
<trkpt lat="35.0190707" lon="33.4231708">
<ele>239.89</ele>
<time>2015-05-01T14:05:53Z</time>
</trkpt>
<trkpt lat="35.0191224" lon="33.4231441">
<ele>240.00</ele>
<time>2015-05-01T14:05:56Z</time>
</trkpt>
<trkpt lat="35.0191787" lon="33.4231145">
<ele>238.52</ele>
<time>2015-05-01T14:06:04Z</time>
</trkpt>
<trkpt lat="35.0192287" lon="33.4230832">
<ele>238.95</ele>
<time>2015-05-01T14:06:07Z</time>
</trkpt>
<trkpt lat="35.0192806" lon="33.4230731">
<ele>239.01</ele>
<time>2015-05-01T14:06:10Z</time>
</trkpt>
<trkpt lat="35.0193400" lon="33.4230387">
<ele>239.02</ele>
<time>2015-05-01T14:06:13Z</time>
</trkpt>
<trkpt lat="35.0193961" lon="33.4230071">
<ele>239.02</ele>
<time>2015-05-01T14:06:16Z</time>
</trkpt>
<trkpt lat="35.0194157" lon="33.4229364">
<ele>239.95</ele>
<time>2015-05-01T14:06:20Z</time>
</trkpt>
<trkpt lat="35.0194112" lon="33.4228642">
<ele>240.00</ele>
<time>2015-05-01T14:06:22Z</time>
</trkpt>
<trkpt lat="35.0194027" lon="33.4227876">
<ele>240.01</ele>
<time>2015-05-01T14:06:24Z</time>
</trkpt>
<trkpt lat="35.0193816" lon="33.4227101">
<ele>240.52</ele>
<time>2015-05-01T14:06:26Z</time>
</trkpt>
<trkpt lat="35.0193404" lon="33.4226426">
<ele>240.64</ele>
<time>2015-05-01T14:06:28Z</time>
</trkpt>
<trkpt lat="35.0192922" lon="33.4225838">
<ele>240.92</ele>
<time>2015-05-01T14:06:30Z</time>
</trkpt>
<trkpt lat="35.0192512" lon="33.4225278">
<ele>240.99</ele>
<time>2015-05-01T14:06:32Z</time>
</trkpt>
<trkpt lat="35.0192173" lon="33.4224759">
<ele>241.76</ele>
<time>2015-05-01T14:06:34Z</time>
</trkpt>
<trkpt lat="35.0191917" lon="33.4224074">
<ele>241.45</ele>
<time>2015-05-01T14:06:36Z</time>
</trkpt>
<trkpt lat="35.0191894" lon="33.4223123">
<ele>241.13</ele>
<time>2015-05-01T14:06:38Z</time>
</trkpt>
<trkpt lat="35.0191970" lon="33.4222239">
<ele>241.04</ele>
<time>2015-05-01T14:06:40Z</time>
</trkpt>
<trkpt lat="35.0192008" lon="33.4221475">
<ele>241.02</ele>
<time>2015-05-01T14:06:42Z</time>
</trkpt>
<trkpt lat="35.0192110" lon="33.4220829">
<ele>240.52</ele>
<time>2015-05-01T14:06:44Z</time>
</trkpt>
<trkpt lat="35.0192333" lon="33.4220143">
<ele>240.08</ele>
<time>2015-05-01T14:06:47Z</time>
</trkpt>
<trkpt lat="35.0192962" lon="33.4220010">
<ele>240.02</ele>
<time>2015-05-01T14:06:50Z</time>
</trkpt>
<trkpt lat="35.0193606" lon="33.4220168">
<ele>239.27</ele>
<time>2015-05-01T14:06:53Z</time>
</trkpt>
<trkpt lat="35.0194210" lon="33.4220378">
<ele>239.05</ele>
<time>2015-05-01T14:06:56Z</time>
</trkpt>
<trkpt lat="35.0194882" lon="33.4220516">
<ele>239.52</ele>
<time>2015-05-01T14:06:59Z</time>
</trkpt>
<trkpt lat="35.0195375" lon="33.4220669">
<ele>239.89</ele>
<time>2015-05-01T14:07:01Z</time>
</trkpt>
<trkpt lat="35.0195770" lon="33.4221100">
<ele>239.13</ele>
<time>2015-05-01T14:07:04Z</time>
</trkpt>
<trkpt lat="35.0195896" lon="33.4221716">
<ele>239.02</ele>
<time>2015-05-01T14:07:08Z</time>
</trkpt>
<trkpt lat="35.0196259" lon="33.4222279">
<ele>239.27</ele>
<time>2015-05-01T14:07:10Z</time>
</trkpt>
<trkpt lat="35.0196618" lon="33.4223026">
<ele>239.08</ele>
<time>2015-05-01T14:07:12Z</time>
</trkpt>
<trkpt lat="35.0196744" lon="33.4223842">
<ele>239.03</ele>
<time>2015-05-01T14:07:14Z</time>
</trkpt>
<trkpt lat="35.0196702" lon="33.4224634">
<ele>239.02</ele>
<time>2015-05-01T14:07:16Z</time>
</trkpt>
<trkpt lat="35.0196695" lon="33.4225491">
<ele>239.02</ele>
<time>2015-05-01T14:07:18Z</time>
</trkpt>
<trkpt lat="35.0196696" lon="33.4226371">
<ele>238.27</ele>
<time>2015-05-01T14:07:20Z</time>
</trkpt>
<trkpt lat="35.0196752" lon="33.4227351">
<ele>238.08</ele>
<time>2015-05-01T14:07:22Z</time>
</trkpt>
<trkpt lat="35.0196818" lon="33.4228402">
<ele>238.78</ele>
<time>2015-05-01T14:07:24Z</time>
</trkpt>
<trkpt lat="35.0196857" lon="33.4229441">
<ele>239.71</ele>
<time>2015-05-01T14:07:26Z</time>
</trkpt>
<trkpt lat="35.0196859" lon="33.4230468">
<ele>240.69</ele>
<time>2015-05-01T14:07:28Z</time>
</trkpt>
<trkpt lat="35.0196895" lon="33.4231523">
<ele>240.93</ele>
<time>2015-05-01T14:07:30Z</time>
</trkpt>
<trkpt lat="35.0196916" lon="33.4232562">
<ele>241.75</ele>
<time>2015-05-01T14:07:32Z</time>
</trkpt>
<trkpt lat="35.0196926" lon="33.4233535">
<ele>242.20</ele>
<time>2015-05-01T14:07:34Z</time>
</trkpt>
<trkpt lat="35.0196958" lon="33.4234355">
<ele>242.81</ele>
<time>2015-05-01T14:07:36Z</time>
</trkpt>
<trkpt lat="35.0196963" lon="33.4235124">
<ele>242.96</ele>
<time>2015-05-01T14:07:38Z</time>
</trkpt>
<trkpt lat="35.0196999" lon="33.4235872">
<ele>242.25</ele>
<time>2015-05-01T14:07:40Z</time>
</trkpt>
<trkpt lat="35.0197060" lon="33.4236644">
<ele>242.08</ele>
<time>2015-05-01T14:07:42Z</time>
</trkpt>
<trkpt lat="35.0197127" lon="33.4237426">
<ele>242.03</ele>
<time>2015-05-01T14:07:44Z</time>
</trkpt>
<trkpt lat="35.0197179" lon="33.4238224">
<ele>241.52</ele>
<time>2015-05-01T14:07:46Z</time>
</trkpt>
<trkpt lat="35.0197264" lon="33.4239016">
<ele>241.14</ele>
<time>2015-05-01T14:07:48Z</time>
</trkpt>
<trkpt lat="35.0197543" lon="33.4239742">
<ele>241.05</ele>
<time>2015-05-01T14:07:50Z</time>
</trkpt>
<trkpt lat="35.0198064" lon="33.4240205">
<ele>241.02</ele>
<time>2015-05-01T14:07:52Z</time>
</trkpt>
<trkpt lat="35.0198541" lon="33.4240710">
<ele>241.02</ele>
<time>2015-05-01T14:07:54Z</time>
</trkpt>
<trkpt lat="35.0198719" lon="33.4241488">
<ele>241.02</ele>
<time>2015-05-01T14:07:56Z</time>
</trkpt>
<trkpt lat="35.0198352" lon="33.4242326">
<ele>240.52</ele>
<time>2015-05-01T14:07:58Z</time>
</trkpt>
<trkpt lat="35.0197658" lon="33.4242714">
<ele>240.14</ele>
<time>2015-05-01T14:08:00Z</time>
</trkpt>
<trkpt lat="35.0196956" lon="33.4242745">
<ele>240.80</ele>
<time>2015-05-01T14:08:02Z</time>
</trkpt>
<trkpt lat="35.0196260" lon="33.4242684">
<ele>240.46</ele>
<time>2015-05-01T14:08:04Z</time>
</trkpt>
<trkpt lat="35.0195527" lon="33.4242882">
<ele>240.13</ele>
<time>2015-05-01T14:08:06Z</time>
</trkpt>
<trkpt lat="35.0194828" lon="33.4243407">
<ele>240.54</ele>
<time>2015-05-01T14:08:08Z</time>
</trkpt>
<trkpt lat="35.0194101" lon="33.4244002">
<ele>240.15</ele>
<time>2015-05-01T14:08:10Z</time>
</trkpt>
<trkpt lat="35.0193359" lon="33.4244586">
<ele>240.05</ele>
<time>2015-05-01T14:08:12Z</time>
</trkpt>
<trkpt lat="35.0192616" lon="33.4245112">
<ele>240.77</ele>
<time>2015-05-01T14:08:14Z</time>
</trkpt>
<trkpt lat="35.0192022" lon="33.4245582">
<ele>240.71</ele>
<time>2015-05-01T14:08:16Z</time>
</trkpt>
<trkpt lat="35.0191737" lon="33.4246072">
<ele>242.02</ele>
<time>2015-05-01T14:08:50Z</time>
</trkpt>
<trkpt lat="35.0191278" lon="33.4246266">
<ele>242.02</ele>
<time>2015-05-01T14:08:53Z</time>
</trkpt>
<trkpt lat="35.0190802" lon="33.4246676">
<ele>242.02</ele>
<time>2015-05-01T14:08:56Z</time>
</trkpt>
<trkpt lat="35.0190379" lon="33.4247115">
<ele>242.02</ele>
<time>2015-05-01T14:09:01Z</time>
</trkpt>
<trkpt lat="35.0190009" lon="33.4247533">
<ele>242.14</ele>
<time>2015-05-01T14:09:05Z</time>
</trkpt>
<trkpt lat="35.0189438" lon="33.4248013">
<ele>242.78</ele>
<time>2015-05-01T14:09:08Z</time>
</trkpt>
<trkpt lat="35.0189034" lon="33.4248352">
<ele>242.96</ele>
<time>2015-05-01T14:09:10Z</time>
</trkpt>
<trkpt lat="35.0188583" lon="33.4248650">
<ele>243.00</ele>
<time>2015-05-01T14:09:12Z</time>
</trkpt>
<trkpt lat="35.0187983" lon="33.4248861">
<ele>243.01</ele>
<time>2015-05-01T14:09:14Z</time>
</trkpt>
<trkpt lat="35.0187406" lon="33.4249146">
<ele>243.02</ele>
<time>2015-05-01T14:09:16Z</time>
</trkpt>
<trkpt lat="35.0186885" lon="33.4249369">
<ele>243.02</ele>
<time>2015-05-01T14:09:18Z</time>
</trkpt>
<trkpt lat="35.0186311" lon="33.4249670">
<ele>243.02</ele>
<time>2015-05-01T14:09:21Z</time>
</trkpt>
<trkpt lat="35.0185753" lon="33.4249901">
<ele>243.02</ele>
<time>2015-05-01T14:09:23Z</time>
</trkpt>
<trkpt lat="35.0185113" lon="33.4250143">
<ele>243.02</ele>
<time>2015-05-01T14:09:25Z</time>
</trkpt>
<trkpt lat="35.0184531" lon="33.4250370">
<ele>243.02</ele>
<time>2015-05-01T14:09:27Z</time>
</trkpt>
<trkpt lat="35.0183922" lon="33.4250590">
<ele>243.02</ele>
<time>2015-05-01T14:09:29Z</time>
</trkpt>
<trkpt lat="35.0183280" lon="33.4250803">
<ele>243.02</ele>
<time>2015-05-01T14:09:31Z</time>
</trkpt>
<trkpt lat="35.0182584" lon="33.4251064">
<ele>242.27</ele>
<time>2015-05-01T14:09:33Z</time>
</trkpt>
<trkpt lat="35.0181884" lon="33.4251324">
<ele>242.83</ele>
<time>2015-05-01T14:09:35Z</time>
</trkpt>
<trkpt lat="35.0181139" lon="33.4251518">
<ele>243.47</ele>
<time>2015-05-01T14:09:37Z</time>
</trkpt>
<trkpt lat="35.0180373" lon="33.4251703">
<ele>243.88</ele>
<time>2015-05-01T14:09:39Z</time>
</trkpt>
<trkpt lat="35.0179536" lon="33.4251898">
<ele>243.98</ele>
<time>2015-05-01T14:09:41Z</time>
</trkpt>
<trkpt lat="35.0178694" lon="33.4252069">
<ele>244.51</ele>
<time>2015-05-01T14:09:43Z</time>
</trkpt>
<trkpt lat="35.0177888" lon="33.4252203">
<ele>244.89</ele>
<time>2015-05-01T14:09:45Z</time>
</trkpt>
<trkpt lat="35.0177120" lon="33.4252319">
<ele>245.73</ele>
<time>2015-05-01T14:09:47Z</time>
</trkpt>
<trkpt lat="35.0176293" lon="33.4252428">
<ele>245.45</ele>
<time>2015-05-01T14:09:49Z</time>
</trkpt>
<trkpt lat="35.0175445" lon="33.4252576">
<ele>245.12</ele>
<time>2015-05-01T14:09:51Z</time>
</trkpt>
<trkpt lat="35.0175002" lon="33.4252678">
<ele>245.07</ele>
<time>2015-05-01T14:09:52Z</time>
</trkpt>
<trkpt lat="35.0174150" lon="33.4252890">
<ele>245.28</ele>
<time>2015-05-01T14:09:54Z</time>
</trkpt>
<trkpt lat="35.0173371" lon="33.4253040">
<ele>245.08</ele>
<time>2015-05-01T14:09:56Z</time>
</trkpt>
<trkpt lat="35.0172622" lon="33.4253047">
<ele>245.03</ele>
<time>2015-05-01T14:09:58Z</time>
</trkpt>
<trkpt lat="35.0171887" lon="33.4252938">
<ele>245.77</ele>
<time>2015-05-01T14:10:00Z</time>
</trkpt>
<trkpt lat="35.0171183" lon="33.4252819">
<ele>245.95</ele>
<time>2015-05-01T14:10:02Z</time>
</trkpt>
<trkpt lat="35.0170585" lon="33.4252746">
<ele>245.50</ele>
<time>2015-05-01T14:10:04Z</time>
</trkpt>
<trkpt lat="35.0170024" lon="33.4252717">
<ele>244.58</ele>
<time>2015-05-01T14:10:07Z</time>
</trkpt>
<trkpt lat="35.0169516" lon="33.4252633">
<ele>244.09</ele>
<time>2015-05-01T14:10:10Z</time>
</trkpt>
<trkpt lat="35.0168940" lon="33.4252613">
<ele>244.02</ele>
<time>2015-05-01T14:10:13Z</time>
</trkpt>
<trkpt lat="35.0168403" lon="33.4252582">
<ele>244.02</ele>
<time>2015-05-01T14:10:15Z</time>
</trkpt>
<trkpt lat="35.0167668" lon="33.4252595">
<ele>244.02</ele>
<time>2015-05-01T14:10:17Z</time>
</trkpt>
<trkpt lat="35.0166891" lon="33.4252651">
<ele>244.02</ele>
<time>2015-05-01T14:10:19Z</time>
</trkpt>
<trkpt lat="35.0166042" lon="33.4252707">
<ele>244.02</ele>
<time>2015-05-01T14:10:21Z</time>
</trkpt>
<trkpt lat="35.0165178" lon="33.4252818">
<ele>244.02</ele>
<time>2015-05-01T14:10:23Z</time>
</trkpt>
<trkpt lat="35.0164725" lon="33.4252901">
<ele>244.02</ele>
<time>2015-05-01T14:10:24Z</time>
</trkpt>
<trkpt lat="35.0163853" lon="33.4253062">
<ele>244.02</ele>
<time>2015-05-01T14:10:26Z</time>
</trkpt>
<trkpt lat="35.0163037" lon="33.4253241">
<ele>244.02</ele>
<time>2015-05-01T14:10:28Z</time>
</trkpt>
<trkpt lat="35.0162305" lon="33.4253460">
<ele>244.02</ele>
<time>2015-05-01T14:10:30Z</time>
</trkpt>
<trkpt lat="35.0161692" lon="33.4253635">
<ele>244.02</ele>
<time>2015-05-01T14:10:32Z</time>
</trkpt>
<trkpt lat="35.0161135" lon="33.4253741">
<ele>244.52</ele>
<time>2015-05-01T14:10:34Z</time>
</trkpt>
<trkpt lat="35.0160506" lon="33.4253871">
<ele>244.89</ele>
<time>2015-05-01T14:10:36Z</time>
</trkpt>
<trkpt lat="35.0159789" lon="33.4254058">
<ele>244.98</ele>
<time>2015-05-01T14:10:38Z</time>
</trkpt>
<trkpt lat="35.0159003" lon="33.4254179">
<ele>245.76</ele>
<time>2015-05-01T14:10:40Z</time>
</trkpt>
<trkpt lat="35.0158196" lon="33.4254257">
<ele>245.95</ele>
<time>2015-05-01T14:10:42Z</time>
</trkpt>
<trkpt lat="35.0157390" lon="33.4254361">
<ele>246.00</ele>
<time>2015-05-01T14:10:44Z</time>
</trkpt>
<trkpt lat="35.0156595" lon="33.4254515">
<ele>245.26</ele>
<time>2015-05-01T14:10:46Z</time>
</trkpt>
<trkpt lat="35.0155749" lon="33.4254643">
<ele>245.58</ele>
<time>2015-05-01T14:10:48Z</time>
</trkpt>
<trkpt lat="35.0154867" lon="33.4254750">
<ele>245.66</ele>
<time>2015-05-01T14:10:50Z</time>
</trkpt>
<trkpt lat="35.0154008" lon="33.4254879">
<ele>245.93</ele>
<time>2015-05-01T14:10:52Z</time>
</trkpt>
<trkpt lat="35.0153178" lon="33.4254994">
<ele>246.74</ele>
<time>2015-05-01T14:10:54Z</time>
</trkpt>
<trkpt lat="35.0152398" lon="33.4255070">
<ele>246.95</ele>
<time>2015-05-01T14:10:56Z</time>
</trkpt>
<trkpt lat="35.0151695" lon="33.4255166">
<ele>247.00</ele>
<time>2015-05-01T14:10:58Z</time>
</trkpt>
<trkpt lat="35.0151127" lon="33.4255291">
<ele>247.01</ele>
<time>2015-05-01T14:11:00Z</time>
</trkpt>
<trkpt lat="35.0150621" lon="33.4255369">
<ele>247.01</ele>
<time>2015-05-01T14:11:02Z</time>
</trkpt>
<trkpt lat="35.0149889" lon="33.4255425">
<ele>250.58</ele>
<time>2015-05-01T14:11:21Z</time>
</trkpt>
<trkpt lat="35.0149057" lon="33.4255516">
<ele>251.66</ele>
<time>2015-05-01T14:11:23Z</time>
</trkpt>
<trkpt lat="35.0148238" lon="33.4255683">
<ele>251.93</ele>
<time>2015-05-01T14:11:25Z</time>
</trkpt>
<trkpt lat="35.0147471" lon="33.4255887">
<ele>251.24</ele>
<time>2015-05-01T14:11:27Z</time>
</trkpt>
<trkpt lat="35.0146661" lon="33.4256074">
<ele>251.07</ele>
<time>2015-05-01T14:11:29Z</time>
</trkpt>
<trkpt lat="35.0145671" lon="33.4256333">
<ele>250.28</ele>
<time>2015-05-01T14:11:31Z</time>
</trkpt>
<trkpt lat="35.0144946" lon="33.4256548">
<ele>250.08</ele>
<time>2015-05-01T14:11:33Z</time>
</trkpt>
<trkpt lat="35.0144271" lon="33.4256794">
<ele>250.28</ele>
<time>2015-05-01T14:11:35Z</time>
</trkpt>
<trkpt lat="35.0143530" lon="33.4257089">
<ele>250.58</ele>
<time>2015-05-01T14:11:37Z</time>
</trkpt>
<trkpt lat="35.0142901" lon="33.4257352">
<ele>251.41</ele>
<time>2015-05-01T14:11:39Z</time>
</trkpt>
<trkpt lat="35.0142265" lon="33.4257625">
<ele>251.86</ele>
<time>2015-05-01T14:11:41Z</time>
</trkpt>
<trkpt lat="35.0141713" lon="33.4257915">
<ele>250.73</ele>
<time>2015-05-01T14:11:43Z</time>
</trkpt>
<trkpt lat="35.0141221" lon="33.4258216">
<ele>250.19</ele>
<time>2015-05-01T14:11:45Z</time>
</trkpt>
<trkpt lat="35.0140778" lon="33.4258514">
<ele>250.06</ele>
<time>2015-05-01T14:11:47Z</time>
</trkpt>
<trkpt lat="35.0140309" lon="33.4258773">
<ele>250.53</ele>
<time>2015-05-01T14:11:49Z</time>
</trkpt>
<trkpt lat="35.0139871" lon="33.4259002">
<ele>250.89</ele>
<time>2015-05-01T14:11:51Z</time>
</trkpt>
<trkpt lat="35.0139397" lon="33.4259282">
<ele>250.49</ele>
<time>2015-05-01T14:11:53Z</time>
</trkpt>
<trkpt lat="35.0138903" lon="33.4259628">
<ele>249.38</ele>
<time>2015-05-01T14:11:55Z</time>
</trkpt>
<trkpt lat="35.0138305" lon="33.4260002">
<ele>248.36</ele>
<time>2015-05-01T14:11:57Z</time>
</trkpt>
<trkpt lat="35.0137645" lon="33.4260359">
<ele>248.85</ele>
<time>2015-05-01T14:11:59Z</time>
</trkpt>
<trkpt lat="35.0136500" lon="33.4260835">
<ele>248.97</ele>
<time>2015-05-01T14:12:01Z</time>
</trkpt>
<trkpt lat="35.0136014" lon="33.4261028">
<ele>249.00</ele>
<time>2015-05-01T14:12:02Z</time>
</trkpt>
<trkpt lat="35.0135582" lon="33.4261259">
<ele>249.51</ele>
<time>2015-05-01T14:12:03Z</time>
</trkpt>
<trkpt lat="35.0135122" lon="33.4261493">
<ele>249.76</ele>
<time>2015-05-01T14:12:04Z</time>
</trkpt>
<trkpt lat="35.0134649" lon="33.4261675">
<ele>249.89</ele>
<time>2015-05-01T14:12:05Z</time>
</trkpt>
<trkpt lat="35.0134147" lon="33.4261832">
<ele>249.95</ele>
<time>2015-05-01T14:12:06Z</time>
</trkpt>
<trkpt lat="35.0133736" lon="33.4262074">
<ele>250.48</ele>
<time>2015-05-01T14:12:07Z</time>
</trkpt>
<trkpt lat="35.0133302" lon="33.4262251">
<ele>250.75</ele>
<time>2015-05-01T14:12:08Z</time>
</trkpt>
<trkpt lat="35.0132435" lon="33.4262697">
<ele>250.95</ele>
<time>2015-05-01T14:12:10Z</time>
</trkpt>
<trkpt lat="35.0131693" lon="33.4263162">
<ele>251.00</ele>
<time>2015-05-01T14:12:12Z</time>
</trkpt>
<trkpt lat="35.0131065" lon="33.4263765">
<ele>251.76</ele>
<time>2015-05-01T14:12:14Z</time>
</trkpt>
<trkpt lat="35.0130453" lon="33.4264133">
<ele>252.70</ele>
<time>2015-05-01T14:12:16Z</time>
</trkpt>
<trkpt lat="35.0129929" lon="33.4264579">
<ele>252.94</ele>
<time>2015-05-01T14:12:18Z</time>
</trkpt>
<trkpt lat="35.0129369" lon="33.4264986">
<ele>253.75</ele>
<time>2015-05-01T14:12:20Z</time>
</trkpt>
<trkpt lat="35.0128848" lon="33.4265464">
<ele>254.70</ele>
<time>2015-05-01T14:12:22Z</time>
</trkpt>
<trkpt lat="35.0128262" lon="33.4265991">
<ele>253.44</ele>
<time>2015-05-01T14:12:24Z</time>
</trkpt>
<trkpt lat="35.0127594" lon="33.4266528">
<ele>253.12</ele>
<time>2015-05-01T14:12:26Z</time>
</trkpt>
<trkpt lat="35.0126755" lon="33.4267308">
<ele>253.79</ele>
<time>2015-05-01T14:12:28Z</time>
</trkpt>
<trkpt lat="35.0126317" lon="33.4267552">
<ele>253.90</ele>
<time>2015-05-01T14:12:29Z</time>
</trkpt>
<trkpt lat="35.0125889" lon="33.4267836">
<ele>253.96</ele>
<time>2015-05-01T14:12:30Z</time>
</trkpt>
<trkpt lat="35.0125472" lon="33.4268130">
<ele>253.99</ele>
<time>2015-05-01T14:12:31Z</time>
</trkpt>
<trkpt lat="35.0124962" lon="33.4268358">
<ele>253.50</ele>
<time>2015-05-01T14:12:32Z</time>
</trkpt>
<trkpt lat="35.0124453" lon="33.4268641">
<ele>253.26</ele>
<time>2015-05-01T14:12:33Z</time>
</trkpt>
<trkpt lat="35.0123964" lon="33.4268881">
<ele>253.64</ele>
<time>2015-05-01T14:12:34Z</time>
</trkpt>
<trkpt lat="35.0123500" lon="33.4269125">
<ele>253.83</ele>
<time>2015-05-01T14:12:35Z</time>
</trkpt>
<trkpt lat="35.0122972" lon="33.4269374">
<ele>254.42</ele>
<time>2015-05-01T14:12:36Z</time>
</trkpt>
<trkpt lat="35.0122502" lon="33.4269606">
<ele>254.72</ele>
<time>2015-05-01T14:12:37Z</time>
</trkpt>
<trkpt lat="35.0122018" lon="33.4269753">
<ele>255.37</ele>
<time>2015-05-01T14:12:38Z</time>
</trkpt>
<trkpt lat="35.0121513" lon="33.4269824">
<ele>253.19</ele>
<time>2015-05-01T14:12:39Z</time>
</trkpt>
<trkpt lat="35.0121032" lon="33.4269817">
<ele>251.60</ele>
<time>2015-05-01T14:12:40Z</time>
</trkpt>
<trkpt lat="35.0120555" lon="33.4269870">
<ele>250.81</ele>
<time>2015-05-01T14:12:41Z</time>
</trkpt>
<trkpt lat="35.0119983" lon="33.4269930">
<ele>250.41</ele>
<time>2015-05-01T14:12:42Z</time>
</trkpt>
<trkpt lat="35.0119525" lon="33.4270175">
<ele>250.71</ele>
<time>2015-05-01T14:12:43Z</time>
</trkpt>
<trkpt lat="35.0118966" lon="33.4270394">
<ele>250.37</ele>
<time>2015-05-01T14:12:44Z</time>
</trkpt>
<trkpt lat="35.0118444" lon="33.4270600">
<ele>250.19</ele>
<time>2015-05-01T14:12:45Z</time>
</trkpt>
<trkpt lat="35.0117554" lon="33.4270833">
<ele>250.56</ele>
<time>2015-05-01T14:12:47Z</time>
</trkpt>
<trkpt lat="35.0117080" lon="33.4270910">
<ele>250.79</ele>
<time>2015-05-01T14:12:48Z</time>
</trkpt>
<trkpt lat="35.0116201" lon="33.4271118">
<ele>250.71</ele>
<time>2015-05-01T14:12:50Z</time>
</trkpt>
<trkpt lat="35.0115337" lon="33.4271374">
<ele>250.19</ele>
<time>2015-05-01T14:12:52Z</time>
</trkpt>
<trkpt lat="35.0114828" lon="33.4271547">
<ele>249.60</ele>
<time>2015-05-01T14:12:53Z</time>
</trkpt>
<trkpt lat="35.0114298" lon="33.4271733">
<ele>249.31</ele>
<time>2015-05-01T14:12:54Z</time>
</trkpt>
<trkpt lat="35.0113758" lon="33.4271876">
<ele>249.66</ele>
<time>2015-05-01T14:12:55Z</time>
</trkpt>
<trkpt lat="35.0113163" lon="33.4271960">
<ele>249.34</ele>
<time>2015-05-01T14:12:56Z</time>
</trkpt>
<trkpt lat="35.0112588" lon="33.4272052">
<ele>249.18</ele>
<time>2015-05-01T14:12:57Z</time>
</trkpt>
<trkpt lat="35.0112126" lon="33.4272094">
<ele>249.10</ele>
<time>2015-05-01T14:12:58Z</time>
</trkpt>
<trkpt lat="35.0111665" lon="33.4272180">
<ele>249.06</ele>
<time>2015-05-01T14:12:59Z</time>
</trkpt>
<trkpt lat="35.0111186" lon="33.4272329">
<ele>249.04</ele>
<time>2015-05-01T14:13:00Z</time>
</trkpt>
<trkpt lat="35.0110690" lon="33.4272456">
<ele>248.53</ele>
<time>2015-05-01T14:13:01Z</time>
</trkpt>
<trkpt lat="35.0110186" lon="33.4272532">
<ele>248.27</ele>
<time>2015-05-01T14:13:02Z</time>
</trkpt>
<trkpt lat="35.0109262" lon="33.4272786">
<ele>248.08</ele>
<time>2015-05-01T14:13:04Z</time>
</trkpt>
<trkpt lat="35.0108770" lon="33.4272869">
<ele>248.55</ele>
<time>2015-05-01T14:13:05Z</time>
</trkpt>
<trkpt lat="35.0108304" lon="33.4273031">
<ele>248.28</ele>
<time>2015-05-01T14:13:06Z</time>
</trkpt>
<trkpt lat="35.0107460" lon="33.4273345">
<ele>248.08</ele>
<time>2015-05-01T14:13:08Z</time>
</trkpt>
<trkpt lat="35.0107006" lon="33.4273517">
<ele>248.55</ele>
<time>2015-05-01T14:13:09Z</time>
</trkpt>
<trkpt lat="35.0106157" lon="33.4273832">
<ele>248.90</ele>
<time>2015-05-01T14:13:11Z</time>
</trkpt>
<trkpt lat="35.0105676" lon="33.4274019">
<ele>249.46</ele>
<time>2015-05-01T14:13:12Z</time>
</trkpt>
<trkpt lat="35.0105192" lon="33.4274217">
<ele>249.74</ele>
<time>2015-05-01T14:13:13Z</time>
</trkpt>
<trkpt lat="35.0104647" lon="33.4274420">
<ele>249.88</ele>
<time>2015-05-01T14:13:14Z</time>
</trkpt>
<trkpt lat="35.0104097" lon="33.4274638">
<ele>250.45</ele>
<time>2015-05-01T14:13:15Z</time>
</trkpt>
<trkpt lat="35.0103520" lon="33.4274882">
<ele>250.73</ele>
<time>2015-05-01T14:13:16Z</time>
</trkpt>
<trkpt lat="35.0102951" lon="33.4275086">
<ele>250.87</ele>
<time>2015-05-01T14:13:17Z</time>
</trkpt>
<trkpt lat="35.0102440" lon="33.4275174">
<ele>250.94</ele>
<time>2015-05-01T14:13:18Z</time>
</trkpt>
<trkpt lat="35.0101926" lon="33.4275433">
<ele>250.48</ele>
<time>2015-05-01T14:13:19Z</time>
</trkpt>
<trkpt lat="35.0101362" lon="33.4275655">
<ele>250.25</ele>
<time>2015-05-01T14:13:20Z</time>
</trkpt>
<trkpt lat="35.0100809" lon="33.4275834">
<ele>249.63</ele>
<time>2015-05-01T14:13:21Z</time>
</trkpt>
<trkpt lat="35.0100278" lon="33.4276079">
<ele>249.32</ele>
<time>2015-05-01T14:13:22Z</time>
</trkpt>
<trkpt lat="35.0099667" lon="33.4276240">
<ele>248.67</ele>
<time>2015-05-01T14:13:23Z</time>
</trkpt>
<trkpt lat="35.0099100" lon="33.4276536">
<ele>248.84</ele>
<time>2015-05-01T14:13:24Z</time>
</trkpt>
<trkpt lat="35.0098489" lon="33.4276736">
<ele>248.43</ele>
<time>2015-05-01T14:13:25Z</time>
</trkpt>
<trkpt lat="35.0097836" lon="33.4277044">
<ele>248.22</ele>
<time>2015-05-01T14:13:26Z</time>
</trkpt>
<trkpt lat="35.0097237" lon="33.4277266">
<ele>248.12</ele>
<time>2015-05-01T14:13:27Z</time>
</trkpt>
<trkpt lat="35.0096521" lon="33.4277554">
<ele>248.07</ele>
<time>2015-05-01T14:13:28Z</time>
</trkpt>
<trkpt lat="35.0095889" lon="33.4277791">
<ele>248.04</ele>
<time>2015-05-01T14:13:29Z</time>
</trkpt>
<trkpt lat="35.0095230" lon="33.4278094">
<ele>248.03</ele>
<time>2015-05-01T14:13:30Z</time>
</trkpt>
<trkpt lat="35.0094571" lon="33.4278398">
<ele>248.02</ele>
<time>2015-05-01T14:13:31Z</time>
</trkpt>
<trkpt lat="35.0093873" lon="33.4278764">
<ele>248.02</ele>
<time>2015-05-01T14:13:32Z</time>
</trkpt>
<trkpt lat="35.0093187" lon="33.4279037">
<ele>248.02</ele>
<time>2015-05-01T14:13:33Z</time>
</trkpt>
<trkpt lat="35.0092487" lon="33.4279354">
<ele>248.52</ele>
<time>2015-05-01T14:13:34Z</time>
</trkpt>
<trkpt lat="35.0091837" lon="33.4279603">
<ele>248.77</ele>
<time>2015-05-01T14:13:35Z</time>
</trkpt>
<trkpt lat="35.0091146" lon="33.4279861">
<ele>248.89</ele>
<time>2015-05-01T14:13:36Z</time>
</trkpt>
<trkpt lat="35.0090482" lon="33.4280192">
<ele>248.95</ele>
<time>2015-05-01T14:13:37Z</time>
</trkpt>
<trkpt lat="35.0089768" lon="33.4280487">
<ele>248.98</ele>
<time>2015-05-01T14:13:38Z</time>
</trkpt>
<trkpt lat="35.0089165" lon="33.4280716">
<ele>249.00</ele>
<time>2015-05-01T14:13:39Z</time>
</trkpt>
<trkpt lat="35.0088491" lon="33.4281072">
<ele>249.51</ele>
<time>2015-05-01T14:13:40Z</time>
</trkpt>
<trkpt lat="35.0087827" lon="33.4281444">
<ele>249.26</ele>
<time>2015-05-01T14:13:41Z</time>
</trkpt>
<trkpt lat="35.0087150" lon="33.4281765">
<ele>248.64</ele>
<time>2015-05-01T14:13:42Z</time>
</trkpt>
<trkpt lat="35.0086522" lon="33.4282096">
<ele>248.33</ele>
<time>2015-05-01T14:13:43Z</time>
</trkpt>
<trkpt lat="35.0085865" lon="33.4282463">
<ele>248.17</ele>
<time>2015-05-01T14:13:44Z</time>
</trkpt>
<trkpt lat="35.0085285" lon="33.4282748">
<ele>247.59</ele>
<time>2015-05-01T14:13:45Z</time>
</trkpt>
<trkpt lat="35.0084602" lon="33.4283084">
<ele>247.30</ele>
<time>2015-05-01T14:13:46Z</time>
</trkpt>
<trkpt lat="35.0083959" lon="33.4283418">
<ele>247.16</ele>
<time>2015-05-01T14:13:47Z</time>
</trkpt>
<trkpt lat="35.0083298" lon="33.4283819">
<ele>247.59</ele>
<time>2015-05-01T14:13:48Z</time>
</trkpt>
<trkpt lat="35.0082647" lon="33.4284170">
<ele>247.30</ele>
<time>2015-05-01T14:13:49Z</time>
</trkpt>
<trkpt lat="35.0082231" lon="33.4284381">
<ele>247.16</ele>
<time>2015-05-01T14:13:50Z</time>
</trkpt>
<trkpt lat="35.0081751" lon="33.4284646">
<ele>247.89</ele>
<time>2015-05-01T14:14:12Z</time>
</trkpt>
<trkpt lat="35.0081136" lon="33.4285027">
<ele>248.38</ele>
<time>2015-05-01T14:14:15Z</time>
</trkpt>
<trkpt lat="35.0080567" lon="33.4285394">
<ele>247.36</ele>
<time>2015-05-01T14:14:17Z</time>
</trkpt>
<trkpt lat="35.0079866" lon="33.4285866">
<ele>246.35</ele>
<time>2015-05-01T14:14:19Z</time>
</trkpt>
<trkpt lat="35.0079342" lon="33.4286262">
<ele>246.68</ele>
<time>2015-05-01T14:14:20Z</time>
</trkpt>
<trkpt lat="35.0078951" lon="33.4286555">
<ele>246.85</ele>
<time>2015-05-01T14:14:21Z</time>
</trkpt>
<trkpt lat="35.0078563" lon="33.4286915">
<ele>246.93</ele>
<time>2015-05-01T14:14:22Z</time>
</trkpt>
<trkpt lat="35.0077767" lon="33.4287481">
<ele>247.00</ele>
<time>2015-05-01T14:14:24Z</time>
</trkpt>
<trkpt lat="35.0077329" lon="33.4287790">
<ele>247.01</ele>
<time>2015-05-01T14:14:25Z</time>
</trkpt>
<trkpt lat="35.0076814" lon="33.4288149">
<ele>247.01</ele>
<time>2015-05-01T14:14:26Z</time>
</trkpt>
<trkpt lat="35.0076359" lon="33.4288542">
<ele>247.01</ele>
<time>2015-05-01T14:14:27Z</time>
</trkpt>
<trkpt lat="35.0075835" lon="33.4288950">
<ele>247.01</ele>
<time>2015-05-01T14:14:28Z</time>
</trkpt>
<trkpt lat="35.0075361" lon="33.4289277">
<ele>247.02</ele>
<time>2015-05-01T14:14:29Z</time>
</trkpt>
<trkpt lat="35.0074899" lon="33.4289630">
<ele>247.52</ele>
<time>2015-05-01T14:14:30Z</time>
</trkpt>
<trkpt lat="35.0074499" lon="33.4290008">
<ele>247.77</ele>
<time>2015-05-01T14:14:31Z</time>
</trkpt>
<trkpt lat="35.0074052" lon="33.4290436">
<ele>247.89</ele>
<time>2015-05-01T14:14:32Z</time>
</trkpt>
<trkpt lat="35.0073595" lon="33.4290714">
<ele>247.95</ele>
<time>2015-05-01T14:14:33Z</time>
</trkpt>
<trkpt lat="35.0073156" lon="33.4291080">
<ele>247.48</ele>
<time>2015-05-01T14:14:34Z</time>
</trkpt>
<trkpt lat="35.0072723" lon="33.4291404">
<ele>247.75</ele>
<time>2015-05-01T14:14:35Z</time>
</trkpt>
<trkpt lat="35.0072249" lon="33.4291759">
<ele>247.88</ele>
<time>2015-05-01T14:14:36Z</time>
</trkpt>
<trkpt lat="35.0071809" lon="33.4292130">
<ele>247.95</ele>
<time>2015-05-01T14:14:37Z</time>
</trkpt>
<trkpt lat="35.0071364" lon="33.4292470">
<ele>247.98</ele>
<time>2015-05-01T14:14:38Z</time>
</trkpt>
<trkpt lat="35.0070864" lon="33.4292899">
<ele>248.00</ele>
<time>2015-05-01T14:14:39Z</time>
</trkpt>
<trkpt lat="35.0070375" lon="33.4293270">
<ele>248.01</ele>
<time>2015-05-01T14:14:40Z</time>
</trkpt>
<trkpt lat="35.0069885" lon="33.4293666">
<ele>248.01</ele>
<time>2015-05-01T14:14:41Z</time>
</trkpt>
<trkpt lat="35.0069360" lon="33.4294122">
<ele>248.01</ele>
<time>2015-05-01T14:14:42Z</time>
</trkpt>
<trkpt lat="35.0068841" lon="33.4294460">
<ele>247.51</ele>
<time>2015-05-01T14:14:43Z</time>
</trkpt>
<trkpt lat="35.0068278" lon="33.4294864">
<ele>247.27</ele>
<time>2015-05-01T14:14:44Z</time>
</trkpt>
<trkpt lat="35.0067750" lon="33.4295224">
<ele>247.14</ele>
<time>2015-05-01T14:14:45Z</time>
</trkpt>
<trkpt lat="35.0067270" lon="33.4295628">
<ele>247.08</ele>
<time>2015-05-01T14:14:46Z</time>
</trkpt>
<trkpt lat="35.0066766" lon="33.4296061">
<ele>247.55</ele>
<time>2015-05-01T14:14:47Z</time>
</trkpt>
<trkpt lat="35.0066229" lon="33.4296504">
<ele>247.78</ele>
<time>2015-05-01T14:14:48Z</time>
</trkpt>
<trkpt lat="35.0065761" lon="33.4296847">
<ele>247.90</ele>
<time>2015-05-01T14:14:49Z</time>
</trkpt>
<trkpt lat="35.0065260" lon="33.4297237">
<ele>247.46</ele>
<time>2015-05-01T14:14:50Z</time>
</trkpt>
<trkpt lat="35.0064752" lon="33.4297553">
<ele>247.24</ele>
<time>2015-05-01T14:14:51Z</time>
</trkpt>
<trkpt lat="35.0064177" lon="33.4298068">
<ele>247.13</ele>
<time>2015-05-01T14:14:52Z</time>
</trkpt>
<trkpt lat="35.0063672" lon="33.4298549">
<ele>247.07</ele>
<time>2015-05-01T14:14:53Z</time>
</trkpt>
<trkpt lat="35.0063203" lon="33.4299050">
<ele>247.54</ele>
<time>2015-05-01T14:14:54Z</time>
</trkpt>
<trkpt lat="35.0062756" lon="33.4299543">
<ele>247.28</ele>
<time>2015-05-01T14:14:55Z</time>
</trkpt>
<trkpt lat="35.0062266" lon="33.4300140">
<ele>247.65</ele>
<time>2015-05-01T14:14:56Z</time>
</trkpt>
<trkpt lat="35.0061759" lon="33.4300728">
<ele>247.83</ele>
<time>2015-05-01T14:14:57Z</time>
</trkpt>
<trkpt lat="35.0061293" lon="33.4301367">
<ele>247.92</ele>
<time>2015-05-01T14:14:58Z</time>
</trkpt>
<trkpt lat="35.0060842" lon="33.4301966">
<ele>247.97</ele>
<time>2015-05-01T14:14:59Z</time>
</trkpt>
<trkpt lat="35.0060361" lon="33.4302561">
<ele>247.99</ele>
<time>2015-05-01T14:15:00Z</time>
</trkpt>
<trkpt lat="35.0059934" lon="33.4303190">
<ele>248.00</ele>
<time>2015-05-01T14:15:01Z</time>
</trkpt>
<trkpt lat="35.0059498" lon="33.4303779">
<ele>248.01</ele>
<time>2015-05-01T14:15:02Z</time>
</trkpt>
<trkpt lat="35.0059105" lon="33.4304275">
<ele>248.01</ele>
<time>2015-05-01T14:15:03Z</time>
</trkpt>
<trkpt lat="35.0058731" lon="33.4304814">
<ele>248.01</ele>
<time>2015-05-01T14:15:04Z</time>
</trkpt>
<trkpt lat="35.0058349" lon="33.4305365">
<ele>248.02</ele>
<time>2015-05-01T14:15:05Z</time>
</trkpt>
<trkpt lat="35.0058005" lon="33.4305870">
<ele>248.02</ele>
<time>2015-05-01T14:15:06Z</time>
</trkpt>
<trkpt lat="35.0057647" lon="33.4306381">
<ele>247.52</ele>
<time>2015-05-01T14:15:07Z</time>
</trkpt>
<trkpt lat="35.0057254" lon="33.4306992">
<ele>247.27</ele>
<time>2015-05-01T14:15:08Z</time>
</trkpt>
<trkpt lat="35.0056874" lon="33.4307538">
<ele>247.14</ele>
<time>2015-05-01T14:15:09Z</time>
</trkpt>
<trkpt lat="35.0056590" lon="33.4308088">
<ele>247.08</ele>
<time>2015-05-01T14:15:10Z</time>
</trkpt>
<trkpt lat="35.0056229" lon="33.4308657">
<ele>247.05</ele>
<time>2015-05-01T14:15:11Z</time>
</trkpt>
<trkpt lat="35.0055909" lon="33.4309189">
<ele>247.03</ele>
<time>2015-05-01T14:15:12Z</time>
</trkpt>
<trkpt lat="35.0055611" lon="33.4309714">
<ele>247.02</ele>
<time>2015-05-01T14:15:13Z</time>
</trkpt>
<trkpt lat="35.0055294" lon="33.4310275">
<ele>247.02</ele>
<time>2015-05-01T14:15:14Z</time>
</trkpt>
<trkpt lat="35.0054982" lon="33.4310767">
<ele>247.02</ele>
<time>2015-05-01T14:15:15Z</time>
</trkpt>
<trkpt lat="35.0054605" lon="33.4311371">
<ele>247.02</ele>
<time>2015-05-01T14:15:16Z</time>
</trkpt>
<trkpt lat="35.0054249" lon="33.4311910">
<ele>247.02</ele>
<time>2015-05-01T14:15:17Z</time>
</trkpt>
<trkpt lat="35.0054030" lon="33.4312474">
<ele>246.52</ele>
<time>2015-05-01T14:15:18Z</time>
</trkpt>
<trkpt lat="35.0053665" lon="33.4312997">
<ele>246.27</ele>
<time>2015-05-01T14:15:19Z</time>
</trkpt>
<trkpt lat="35.0053399" lon="33.4313637">
<ele>246.14</ele>
<time>2015-05-01T14:15:20Z</time>
</trkpt>
<trkpt lat="35.0053025" lon="33.4314191">
<ele>246.08</ele>
<time>2015-05-01T14:15:21Z</time>
</trkpt>
<trkpt lat="35.0052747" lon="33.4314744">
<ele>246.55</ele>
<time>2015-05-01T14:15:22Z</time>
</trkpt>
<trkpt lat="35.0052454" lon="33.4315284">
<ele>246.78</ele>
<time>2015-05-01T14:15:23Z</time>
</trkpt>
<trkpt lat="35.0052084" lon="33.4315851">
<ele>246.90</ele>
<time>2015-05-01T14:15:24Z</time>
</trkpt>
<trkpt lat="35.0051784" lon="33.4316386">
<ele>246.96</ele>
<time>2015-05-01T14:15:25Z</time>
</trkpt>
<trkpt lat="35.0051475" lon="33.4316969">
<ele>246.99</ele>
<time>2015-05-01T14:15:26Z</time>
</trkpt>
<trkpt lat="35.0051182" lon="33.4317588">
<ele>247.50</ele>
<time>2015-05-01T14:15:27Z</time>
</trkpt>
<trkpt lat="35.0050891" lon="33.4318186">
<ele>247.76</ele>
<time>2015-05-01T14:15:28Z</time>
</trkpt>
<trkpt lat="35.0050606" lon="33.4318800">
<ele>247.89</ele>
<time>2015-05-01T14:15:29Z</time>
</trkpt>
<trkpt lat="35.0050328" lon="33.4319338">
<ele>248.45</ele>
<time>2015-05-01T14:15:30Z</time>
</trkpt>
<trkpt lat="35.0050052" lon="33.4319865">
<ele>248.23</ele>
<time>2015-05-01T14:15:31Z</time>
</trkpt>
<trkpt lat="35.0049796" lon="33.4320390">
<ele>248.12</ele>
<time>2015-05-01T14:15:32Z</time>
</trkpt>
<trkpt lat="35.0049560" lon="33.4320988">
<ele>248.07</ele>
<time>2015-05-01T14:15:33Z</time>
</trkpt>
<trkpt lat="35.0049344" lon="33.4321527">
<ele>248.04</ele>
<time>2015-05-01T14:15:34Z</time>
</trkpt>
<trkpt lat="35.0049210" lon="33.4322126">
<ele>248.03</ele>
<time>2015-05-01T14:15:35Z</time>
</trkpt>
<trkpt lat="35.0048978" lon="33.4322728">
<ele>248.02</ele>
<time>2015-05-01T14:15:36Z</time>
</trkpt>
<trkpt lat="35.0048811" lon="33.4323367">
<ele>247.52</ele>
<time>2015-05-01T14:15:37Z</time>
</trkpt>
<trkpt lat="35.0048650" lon="33.4323912">
<ele>247.27</ele>
<time>2015-05-01T14:15:38Z</time>
</trkpt>
<trkpt lat="35.0048466" lon="33.4324440">
<ele>247.14</ele>
<time>2015-05-01T14:15:39Z</time>
</trkpt>
<trkpt lat="35.0048299" lon="33.4325028">
<ele>247.08</ele>
<time>2015-05-01T14:15:40Z</time>
</trkpt>
<trkpt lat="35.0048200" lon="33.4325570">
<ele>247.05</ele>
<time>2015-05-01T14:15:41Z</time>
</trkpt>
<trkpt lat="35.0048072" lon="33.4326142">
<ele>247.03</ele>
<time>2015-05-01T14:15:42Z</time>
</trkpt>
<trkpt lat="35.0047781" lon="33.4327103">
<ele>246.77</ele>
<time>2015-05-01T14:15:44Z</time>
</trkpt>
<trkpt lat="35.0047746" lon="33.4327748">
<ele>246.89</ele>
<time>2015-05-01T14:15:45Z</time>
</trkpt>
<trkpt lat="35.0047660" lon="33.4328307">
<ele>247.45</ele>
<time>2015-05-01T14:15:46Z</time>
</trkpt>
<trkpt lat="35.0047617" lon="33.4328899">
<ele>247.24</ele>
<time>2015-05-01T14:15:47Z</time>
</trkpt>
<trkpt lat="35.0047453" lon="33.4329962">
<ele>246.57</ele>
<time>2015-05-01T14:15:49Z</time>
</trkpt>
<trkpt lat="35.0047378" lon="33.4330525">
<ele>246.29</ele>
<time>2015-05-01T14:15:50Z</time>
</trkpt>
<trkpt lat="35.0047282" lon="33.4331124">
<ele>246.15</ele>
<time>2015-05-01T14:15:51Z</time>
</trkpt>
<trkpt lat="35.0047125" lon="33.4331704">
<ele>246.09</ele>
<time>2015-05-01T14:15:52Z</time>
</trkpt>
<trkpt lat="35.0046951" lon="33.4332769">
<ele>245.53</ele>
<time>2015-05-01T14:15:54Z</time>
</trkpt>
<trkpt lat="35.0046660" lon="33.4333856">
<ele>245.15</ele>
<time>2015-05-01T14:15:56Z</time>
</trkpt>
<trkpt lat="35.0046518" lon="33.4334431">
<ele>245.08</ele>
<time>2015-05-01T14:15:57Z</time>
</trkpt>
<trkpt lat="35.0046305" lon="33.4335597">
<ele>245.03</ele>
<time>2015-05-01T14:15:59Z</time>
</trkpt>
<trkpt lat="35.0046240" lon="33.4336225">
<ele>245.02</ele>
<time>2015-05-01T14:16:00Z</time>
</trkpt>
<trkpt lat="35.0046066" lon="33.4337351">
<ele>245.02</ele>
<time>2015-05-01T14:16:02Z</time>
</trkpt>
<trkpt lat="35.0045904" lon="33.4337954">
<ele>245.52</ele>
<time>2015-05-01T14:16:03Z</time>
</trkpt>
<trkpt lat="35.0045841" lon="33.4338509">
<ele>245.77</ele>
<time>2015-05-01T14:16:04Z</time>
</trkpt>
<trkpt lat="35.0045669" lon="33.4339173">
<ele>245.89</ele>
<time>2015-05-01T14:16:05Z</time>
</trkpt>
<trkpt lat="35.0045528" lon="33.4339856">
<ele>245.95</ele>
<time>2015-05-01T14:16:06Z</time>
</trkpt>
<trkpt lat="35.0045418" lon="33.4340538">
<ele>245.98</ele>
<time>2015-05-01T14:16:07Z</time>
</trkpt>
<trkpt lat="35.0045349" lon="33.4341171">
<ele>246.00</ele>
<time>2015-05-01T14:16:08Z</time>
</trkpt>
<trkpt lat="35.0045207" lon="33.4341869">
<ele>246.51</ele>
<time>2015-05-01T14:16:09Z</time>
</trkpt>
<trkpt lat="35.0045079" lon="33.4342521">
<ele>246.26</ele>
<time>2015-05-01T14:16:10Z</time>
</trkpt>
<trkpt lat="35.0044994" lon="33.4343144">
<ele>246.14</ele>
<time>2015-05-01T14:16:11Z</time>
</trkpt>
<trkpt lat="35.0044826" lon="33.4343788">
<ele>246.08</ele>
<time>2015-05-01T14:16:12Z</time>
</trkpt>
<trkpt lat="35.0044771" lon="33.4344850">
<ele>245.53</ele>
<time>2015-05-01T14:16:14Z</time>
</trkpt>
<trkpt lat="35.0044624" lon="33.4345403">
<ele>245.27</ele>
<time>2015-05-01T14:16:15Z</time>
</trkpt>
<trkpt lat="35.0044494" lon="33.4346000">
<ele>245.14</ele>
<time>2015-05-01T14:16:16Z</time>
</trkpt>
<trkpt lat="35.0044407" lon="33.4347054">
<ele>245.55</ele>
<time>2015-05-01T14:16:18Z</time>
</trkpt>
<trkpt lat="35.0044252" lon="33.4347649">
<ele>245.78</ele>
<time>2015-05-01T14:16:19Z</time>
</trkpt>
<trkpt lat="35.0044121" lon="33.4348300">
<ele>245.90</ele>
<time>2015-05-01T14:16:20Z</time>
</trkpt>
<trkpt lat="35.0043778" lon="33.4349394">
<ele>245.99</ele>
<time>2015-05-01T14:16:22Z</time>
</trkpt>
<trkpt lat="35.0043555" lon="33.4350026">
<ele>246.00</ele>
<time>2015-05-01T14:16:23Z</time>
</trkpt>
<trkpt lat="35.0043354" lon="33.4350650">
<ele>246.01</ele>
<time>2015-05-01T14:16:24Z</time>
</trkpt>
<trkpt lat="35.0043012" lon="33.4351753">
<ele>246.01</ele>
<time>2015-05-01T14:16:26Z</time>
</trkpt>
<trkpt lat="35.0042657" lon="33.4352726">
<ele>246.27</ele>
<time>2015-05-01T14:16:28Z</time>
</trkpt>
<trkpt lat="35.0042417" lon="33.4353196">
<ele>246.64</ele>
<time>2015-05-01T14:16:29Z</time>
</trkpt>
<trkpt lat="35.0042206" lon="33.4353697">
<ele>246.83</ele>
<time>2015-05-01T14:16:30Z</time>
</trkpt>
<trkpt lat="35.0041926" lon="33.4354145">
<ele>246.42</ele>
<time>2015-05-01T14:16:31Z</time>
</trkpt>
<trkpt lat="35.0041756" lon="33.4354718">
<ele>246.22</ele>
<time>2015-05-01T14:16:32Z</time>
</trkpt>
<trkpt lat="35.0041403" lon="33.4355455">
<ele>245.32</ele>
<time>2015-05-01T14:16:34Z</time>
</trkpt>
<trkpt lat="35.0040935" lon="33.4356424">
<ele>244.59</ele>
<time>2015-05-01T14:16:36Z</time>
</trkpt>
<trkpt lat="35.0040699" lon="33.4356917">
<ele>244.30</ele>
<time>2015-05-01T14:16:37Z</time>
</trkpt>
<trkpt lat="35.0040456" lon="33.4357414">
<ele>244.16</ele>
<time>2015-05-01T14:16:38Z</time>
</trkpt>
<trkpt lat="35.0040202" lon="33.4357951">
<ele>244.09</ele>
<time>2015-05-01T14:16:39Z</time>
</trkpt>
<trkpt lat="35.0039931" lon="33.4358521">
<ele>244.05</ele>
<time>2015-05-01T14:16:40Z</time>
</trkpt>
<trkpt lat="35.0039540" lon="33.4359402">
<ele>244.52</ele>
<time>2015-05-01T14:16:42Z</time>
</trkpt>
<trkpt lat="35.0039318" lon="33.4359906">
<ele>244.77</ele>
<time>2015-05-01T14:16:43Z</time>
</trkpt>
<trkpt lat="35.0039017" lon="33.4360478">
<ele>245.39</ele>
<time>2015-05-01T14:16:44Z</time>
</trkpt>
<trkpt lat="35.0038701" lon="33.4361134">
<ele>245.70</ele>
<time>2015-05-01T14:16:45Z</time>
</trkpt>
<trkpt lat="35.0038454" lon="33.4361721">
<ele>245.86</ele>
<time>2015-05-01T14:16:46Z</time>
</trkpt>
<trkpt lat="35.0038277" lon="33.4362323">
<ele>245.44</ele>
<time>2015-05-01T14:16:47Z</time>
</trkpt>
<trkpt lat="35.0038016" lon="33.4362937">
<ele>245.23</ele>
<time>2015-05-01T14:16:48Z</time>
</trkpt>
<trkpt lat="35.0037794" lon="33.4363503">
<ele>245.12</ele>
<time>2015-05-01T14:16:49Z</time>
</trkpt>
<trkpt lat="35.0037555" lon="33.4364061">
<ele>245.07</ele>
<time>2015-05-01T14:16:50Z</time>
</trkpt>
<trkpt lat="35.0037209" lon="33.4364941">
<ele>245.78</ele>
<time>2015-05-01T14:16:52Z</time>
</trkpt>
<trkpt lat="35.0036919" lon="33.4365850">
<ele>245.71</ele>
<time>2015-05-01T14:16:54Z</time>
</trkpt>
<trkpt lat="35.0036717" lon="33.4366614">
<ele>245.69</ele>
<time>2015-05-01T14:16:56Z</time>
</trkpt>
<trkpt lat="35.0036540" lon="33.4367447">
<ele>245.93</ele>
<time>2015-05-01T14:16:58Z</time>
</trkpt>
<trkpt lat="35.0036375" lon="33.4368134">
<ele>246.00</ele>
<time>2015-05-01T14:17:00Z</time>
</trkpt>
<trkpt lat="35.0036279" lon="33.4368744">
<ele>246.01</ele>
<time>2015-05-01T14:17:02Z</time>
</trkpt>
<trkpt lat="35.0036166" lon="33.4369321">
<ele>245.26</ele>
<time>2015-05-01T14:17:04Z</time>
</trkpt>
<trkpt lat="35.0036069" lon="33.4369881">
<ele>245.08</ele>
<time>2015-05-01T14:17:06Z</time>
</trkpt>
<trkpt lat="35.0035984" lon="33.4370721">
<ele>245.02</ele>
<time>2015-05-01T14:17:09Z</time>
</trkpt>
<trkpt lat="35.0035863" lon="33.4371500">
<ele>244.27</ele>
<time>2015-05-01T14:17:11Z</time>
</trkpt>
<trkpt lat="35.0035701" lon="33.4372378">
<ele>244.83</ele>
<time>2015-05-01T14:17:13Z</time>
</trkpt>
<trkpt lat="35.0035568" lon="33.4373235">
<ele>244.97</ele>
<time>2015-05-01T14:17:15Z</time>
</trkpt>
<trkpt lat="35.0035446" lon="33.4374124">
<ele>245.75</ele>
<time>2015-05-01T14:17:17Z</time>
</trkpt>
<trkpt lat="35.0035286" lon="33.4375018">
<ele>246.70</ele>
<time>2015-05-01T14:17:19Z</time>
</trkpt>
<trkpt lat="35.0035155" lon="33.4375983">
<ele>245.69</ele>
<time>2015-05-01T14:17:21Z</time>
</trkpt>
<trkpt lat="35.0035111" lon="33.4376738">
<ele>245.35</ele>
<time>2015-05-01T14:17:22Z</time>
</trkpt>
<trkpt lat="35.0035042" lon="33.4377304">
<ele>245.18</ele>
<time>2015-05-01T14:17:23Z</time>
</trkpt>
<trkpt lat="35.0035051" lon="33.4377867">
<ele>245.10</ele>
<time>2015-05-01T14:17:24Z</time>
</trkpt>
<trkpt lat="35.0034914" lon="33.4378953">
<ele>245.04</ele>
<time>2015-05-01T14:17:26Z</time>
</trkpt>
<trkpt lat="35.0034732" lon="33.4380049">
<ele>245.52</ele>
<time>2015-05-01T14:17:28Z</time>
</trkpt>
<trkpt lat="35.0034559" lon="33.4381032">
<ele>245.14</ele>
<time>2015-05-01T14:17:30Z</time>
</trkpt>
<trkpt lat="35.0034478" lon="33.4381575">
<ele>245.08</ele>
<time>2015-05-01T14:17:31Z</time>
</trkpt>
<trkpt lat="35.0034413" lon="33.4382158">
<ele>244.55</ele>
<time>2015-05-01T14:17:32Z</time>
</trkpt>
<trkpt lat="35.0034312" lon="33.4382694">
<ele>244.28</ele>
<time>2015-05-01T14:17:33Z</time>
</trkpt>
<trkpt lat="35.0034213" lon="33.4383317">
<ele>244.15</ele>
<time>2015-05-01T14:17:34Z</time>
</trkpt>
<trkpt lat="35.0034038" lon="33.4384359">
<ele>244.05</ele>
<time>2015-05-01T14:17:36Z</time>
</trkpt>
<trkpt lat="35.0033754" lon="33.4385245">
<ele>244.52</ele>
<time>2015-05-01T14:17:38Z</time>
</trkpt>
<trkpt lat="35.0033606" lon="33.4386005">
<ele>245.39</ele>
<time>2015-05-01T14:17:40Z</time>
</trkpt>
<trkpt lat="35.0034056" lon="33.4386307">
<ele>244.61</ele>
<time>2015-05-01T14:17:42Z</time>
</trkpt>
<trkpt lat="35.0034634" lon="33.4386022">
<ele>243.41</ele>
<time>2015-05-01T14:17:44Z</time>
</trkpt>
<trkpt lat="35.0035153" lon="33.4385979">
<ele>243.12</ele>
<time>2015-05-01T14:17:46Z</time>
</trkpt>
<trkpt lat="35.0035558" lon="33.4386253">
<ele>243.04</ele>
<time>2015-05-01T14:17:48Z</time>
</trkpt>
<trkpt lat="35.0035871" lon="33.4386663">
<ele>243.52</ele>
<time>2015-05-01T14:17:50Z</time>
</trkpt>
<trkpt lat="35.0036102" lon="33.4387395">
<ele>244.70</ele>
<time>2015-05-01T14:17:53Z</time>
</trkpt>
<trkpt lat="35.0036386" lon="33.4388122">
<ele>244.98</ele>
<time>2015-05-01T14:17:56Z</time>
</trkpt>
<trkpt lat="35.0036718" lon="33.4388503">
<ele>245.01</ele>
<time>2015-05-01T14:17:58Z</time>
</trkpt>
<trkpt lat="35.0037160" lon="33.4389030">
<ele>245.26</ele>
<time>2015-05-01T14:18:01Z</time>
</trkpt>
<trkpt lat="35.0037603" lon="33.4389539">
<ele>245.05</ele>
<time>2015-05-01T14:18:04Z</time>
</trkpt>
<trkpt lat="35.0038147" lon="33.4389897">
<ele>246.64</ele>
<time>2015-05-01T14:18:07Z</time>
</trkpt>
<trkpt lat="35.0038717" lon="33.4390328">
<ele>247.72</ele>
<time>2015-05-01T14:18:10Z</time>
</trkpt>
<trkpt lat="35.0039158" lon="33.4390486">
<ele>248.19</ele>
<time>2015-05-01T14:18:12Z</time>
</trkpt>
<trkpt lat="35.0039812" lon="33.4390602">
<ele>248.54</ele>
<time>2015-05-01T14:18:15Z</time>
</trkpt>
<trkpt lat="35.0040280" lon="33.4390668">
<ele>248.65</ele>
<time>2015-05-01T14:18:17Z</time>
</trkpt>
<trkpt lat="35.0040760" lon="33.4390714">
<ele>249.67</ele>
<time>2015-05-01T14:18:19Z</time>
</trkpt>
<trkpt lat="35.0041267" lon="33.4390746">
<ele>249.43</ele>
<time>2015-05-01T14:18:21Z</time>
</trkpt>
<trkpt lat="35.0041770" lon="33.4390781">
<ele>249.12</ele>
<time>2015-05-01T14:18:23Z</time>
</trkpt>
<trkpt lat="35.0042339" lon="33.4390805">
<ele>249.04</ele>
<time>2015-05-01T14:18:25Z</time>
</trkpt>
<trkpt lat="35.0042898" lon="33.4390860">
<ele>249.02</ele>
<time>2015-05-01T14:18:27Z</time>
</trkpt>
<trkpt lat="35.0043441" lon="33.4390984">
<ele>247.52</ele>
<time>2015-05-01T14:18:29Z</time>
</trkpt>
<trkpt lat="35.0043961" lon="33.4391105">
<ele>247.89</ele>
<time>2015-05-01T14:18:31Z</time>
</trkpt>
<trkpt lat="35.0044468" lon="33.4391211">
<ele>247.98</ele>
<time>2015-05-01T14:18:33Z</time>
</trkpt>
<trkpt lat="35.0044931" lon="33.4391401">
<ele>247.76</ele>
<time>2015-05-01T14:18:35Z</time>
</trkpt>
<trkpt lat="35.0045372" lon="33.4391642">
<ele>247.95</ele>
<time>2015-05-01T14:18:37Z</time>
</trkpt>
<trkpt lat="35.0045840" lon="33.4392037">
<ele>248.01</ele>
<time>2015-05-01T14:18:40Z</time>
</trkpt>
<trkpt lat="35.0045549" lon="33.4391553">
<ele>252.02</ele>
<time>2015-05-01T14:24:16Z</time>
</trkpt>
<trkpt lat="35.0045193" lon="33.4391217">
<ele>250.83</ele>
<time>2015-05-01T14:24:20Z</time>
</trkpt>
<trkpt lat="35.0044624" lon="33.4391035">
<ele>250.99</ele>
<time>2015-05-01T14:24:23Z</time>
</trkpt>
<trkpt lat="35.0043844" lon="33.4390927">
<ele>251.01</ele>
<time>2015-05-01T14:24:25Z</time>
</trkpt>
<trkpt lat="35.0043394" lon="33.4390832">
<ele>251.01</ele>
<time>2015-05-01T14:24:26Z</time>
</trkpt>
<trkpt lat="35.0042505" lon="33.4390694">
<ele>251.02</ele>
<time>2015-05-01T14:24:28Z</time>
</trkpt>
<trkpt lat="35.0041655" lon="33.4390627">
<ele>250.52</ele>
<time>2015-05-01T14:24:30Z</time>
</trkpt>
<trkpt lat="35.0040886" lon="33.4390566">
<ele>250.89</ele>
<time>2015-05-01T14:24:32Z</time>
</trkpt>
<trkpt lat="35.0040219" lon="33.4390485">
<ele>250.73</ele>
<time>2015-05-01T14:24:34Z</time>
</trkpt>
<trkpt lat="35.0039553" lon="33.4390380">
<ele>250.95</ele>
<time>2015-05-01T14:24:36Z</time>
</trkpt>
<trkpt lat="35.0038874" lon="33.4390237">
<ele>251.00</ele>
<time>2015-05-01T14:24:38Z</time>
</trkpt>
<trkpt lat="35.0038174" lon="33.4389903">
<ele>251.01</ele>
<time>2015-05-01T14:24:40Z</time>
</trkpt>
<trkpt lat="35.0037688" lon="33.4389480">
<ele>250.51</ele>
<time>2015-05-01T14:24:41Z</time>
</trkpt>
<trkpt lat="35.0037049" lon="33.4388966">
<ele>250.14</ele>
<time>2015-05-01T14:24:43Z</time>
</trkpt>
<trkpt lat="35.0036644" lon="33.4388301">
<ele>249.55</ele>
<time>2015-05-01T14:24:45Z</time>
</trkpt>
<trkpt lat="35.0036279" lon="33.4387553">
<ele>248.65</ele>
<time>2015-05-01T14:24:47Z</time>
</trkpt>
<trkpt lat="35.0036084" lon="33.4387017">
<ele>248.33</ele>
<time>2015-05-01T14:24:48Z</time>
</trkpt>
<trkpt lat="35.0035690" lon="33.4386241">
<ele>248.10</ele>
<time>2015-05-01T14:24:50Z</time>
</trkpt>
<trkpt lat="35.0035140" lon="33.4385709">
<ele>248.04</ele>
<time>2015-05-01T14:24:52Z</time>
</trkpt>
<trkpt lat="35.0034616" lon="33.4385480">
<ele>248.02</ele>
<time>2015-05-01T14:24:54Z</time>
</trkpt>
<trkpt lat="35.0034231" lon="33.4385992">
<ele>247.27</ele>
<time>2015-05-01T14:24:57Z</time>
</trkpt>
<trkpt lat="35.0033980" lon="33.4386742">
<ele>247.05</ele>
<time>2015-05-01T14:25:00Z</time>
</trkpt>
<trkpt lat="35.0033743" lon="33.4387275">
<ele>247.02</ele>
<time>2015-05-01T14:25:02Z</time>
</trkpt>
<trkpt lat="35.0033420" lon="33.4387898">
<ele>246.27</ele>
<time>2015-05-01T14:25:04Z</time>
</trkpt>
<trkpt lat="35.0033080" lon="33.4388447">
<ele>246.83</ele>
<time>2015-05-01T14:25:06Z</time>
</trkpt>
<trkpt lat="35.0032667" lon="33.4388883">
<ele>246.47</ele>
<time>2015-05-01T14:25:08Z</time>
</trkpt>
<trkpt lat="35.0032261" lon="33.4389392">
<ele>246.38</ele>
<time>2015-05-01T14:25:10Z</time>
</trkpt>
<trkpt lat="35.0031895" lon="33.4390027">
<ele>246.61</ele>
<time>2015-05-01T14:25:12Z</time>
</trkpt>
<trkpt lat="35.0031473" lon="33.4390730">
<ele>246.91</ele>
<time>2015-05-01T14:25:14Z</time>
</trkpt>
<trkpt lat="35.0030812" lon="33.4391945">
<ele>246.49</ele>
<time>2015-05-01T14:25:16Z</time>
</trkpt>
<trkpt lat="35.0030547" lon="33.4392475">
<ele>246.25</ele>
<time>2015-05-01T14:25:17Z</time>
</trkpt>
<trkpt lat="35.0030237" lon="33.4392913">
<ele>246.63</ele>
<time>2015-05-01T14:25:18Z</time>
</trkpt>
<trkpt lat="35.0029934" lon="33.4393387">
<ele>246.83</ele>
<time>2015-05-01T14:25:19Z</time>
</trkpt>
<trkpt lat="35.0029641" lon="33.4393876">
<ele>246.42</ele>
<time>2015-05-01T14:25:20Z</time>
</trkpt>
<trkpt lat="35.0029370" lon="33.4394387">
<ele>246.72</ele>
<time>2015-05-01T14:25:21Z</time>
</trkpt>
<trkpt lat="35.0029044" lon="33.4394856">
<ele>246.87</ele>
<time>2015-05-01T14:25:22Z</time>
</trkpt>
<trkpt lat="35.0028793" lon="33.4395340">
<ele>246.94</ele>
<time>2015-05-01T14:25:23Z</time>
</trkpt>
<trkpt lat="35.0028549" lon="33.4395861">
<ele>246.98</ele>
<time>2015-05-01T14:25:24Z</time>
</trkpt>
<trkpt lat="35.0028305" lon="33.4396394">
<ele>247.50</ele>
<time>2015-05-01T14:25:25Z</time>
</trkpt>
<trkpt lat="35.0028075" lon="33.4396900">
<ele>247.76</ele>
<time>2015-05-01T14:25:26Z</time>
</trkpt>
<trkpt lat="35.0027938" lon="33.4397453">
<ele>247.39</ele>
<time>2015-05-01T14:25:27Z</time>
</trkpt>
<trkpt lat="35.0027564" lon="33.4398506">
<ele>247.36</ele>
<time>2015-05-01T14:25:29Z</time>
</trkpt>
<trkpt lat="35.0027326" lon="33.4399002">
<ele>247.69</ele>
<time>2015-05-01T14:25:30Z</time>
</trkpt>
<trkpt lat="35.0027003" lon="33.4400108">
<ele>247.68</ele>
<time>2015-05-01T14:25:32Z</time>
</trkpt>
<trkpt lat="35.0026763" lon="33.4401192">
<ele>248.18</ele>
<time>2015-05-01T14:25:34Z</time>
</trkpt>
<trkpt lat="35.0026595" lon="33.4401740">
<ele>248.10</ele>
<time>2015-05-01T14:25:35Z</time>
</trkpt>
<trkpt lat="35.0026403" lon="33.4402331">
<ele>248.06</ele>
<time>2015-05-01T14:25:36Z</time>
</trkpt>
<trkpt lat="35.0026258" lon="33.4402952">
<ele>248.04</ele>
<time>2015-05-01T14:25:37Z</time>
</trkpt>
<trkpt lat="35.0026124" lon="33.4403526">
<ele>248.03</ele>
<time>2015-05-01T14:25:38Z</time>
</trkpt>
<trkpt lat="35.0026050" lon="33.4404137">
<ele>248.02</ele>
<time>2015-05-01T14:25:39Z</time>
</trkpt>
<trkpt lat="35.0025923" lon="33.4404766">
<ele>248.02</ele>
<time>2015-05-01T14:25:40Z</time>
</trkpt>
<trkpt lat="35.0025841" lon="33.4405418">
<ele>248.02</ele>
<time>2015-05-01T14:25:41Z</time>
</trkpt>
<trkpt lat="35.0025714" lon="33.4406045">
<ele>248.02</ele>
<time>2015-05-01T14:25:42Z</time>
</trkpt>
<trkpt lat="35.0025617" lon="33.4406674">
<ele>247.52</ele>
<time>2015-05-01T14:25:43Z</time>
</trkpt>
<trkpt lat="35.0025486" lon="33.4407318">
<ele>247.27</ele>
<time>2015-05-01T14:25:44Z</time>
</trkpt>
<trkpt lat="35.0025450" lon="33.4407997">
<ele>247.14</ele>
<time>2015-05-01T14:25:45Z</time>
</trkpt>
<trkpt lat="35.0025345" lon="33.4408669">
<ele>247.08</ele>
<time>2015-05-01T14:25:46Z</time>
</trkpt>
<trkpt lat="35.0025254" lon="33.4409314">
<ele>247.05</ele>
<time>2015-05-01T14:25:47Z</time>
</trkpt>
<trkpt lat="35.0025239" lon="33.4410040">
<ele>247.03</ele>
<time>2015-05-01T14:25:48Z</time>
</trkpt>
<trkpt lat="35.0025188" lon="33.4410769">
<ele>247.02</ele>
<time>2015-05-01T14:25:49Z</time>
</trkpt>
<trkpt lat="35.0025112" lon="33.4411449">
<ele>247.52</ele>
<time>2015-05-01T14:25:50Z</time>
</trkpt>
<trkpt lat="35.0025048" lon="33.4412202">
<ele>247.77</ele>
<time>2015-05-01T14:25:51Z</time>
</trkpt>
<trkpt lat="35.0025018" lon="33.4412914">
<ele>247.89</ele>
<time>2015-05-01T14:25:52Z</time>
</trkpt>
<trkpt lat="35.0024996" lon="33.4413686">
<ele>247.95</ele>
<time>2015-05-01T14:25:53Z</time>
</trkpt>
<trkpt lat="35.0024968" lon="33.4414440">
<ele>247.99</ele>
<time>2015-05-01T14:25:54Z</time>
</trkpt>
<trkpt lat="35.0024917" lon="33.4415177">
<ele>248.00</ele>
<time>2015-05-01T14:25:55Z</time>
</trkpt>
<trkpt lat="35.0024885" lon="33.4415952">
<ele>248.01</ele>
<time>2015-05-01T14:25:56Z</time>
</trkpt>
<trkpt lat="35.0024892" lon="33.4416678">
<ele>248.51</ele>
<time>2015-05-01T14:25:57Z</time>
</trkpt>
<trkpt lat="35.0024771" lon="33.4417531">
<ele>248.76</ele>
<time>2015-05-01T14:25:58Z</time>
</trkpt>
<trkpt lat="35.0024711" lon="33.4418282">
<ele>248.89</ele>
<time>2015-05-01T14:25:59Z</time>
</trkpt>
<trkpt lat="35.0024628" lon="33.4419045">
<ele>248.95</ele>
<time>2015-05-01T14:26:00Z</time>
</trkpt>
<trkpt lat="35.0024636" lon="33.4419713">
<ele>248.98</ele>
<time>2015-05-01T14:26:01Z</time>
</trkpt>
<trkpt lat="35.0024584" lon="33.4420435">
<ele>249.00</ele>
<time>2015-05-01T14:26:02Z</time>
</trkpt>
<trkpt lat="35.0024516" lon="33.4421189">
<ele>249.01</ele>
<time>2015-05-01T14:26:03Z</time>
</trkpt>
<trkpt lat="35.0024456" lon="33.4421976">
<ele>249.01</ele>
<time>2015-05-01T14:26:04Z</time>
</trkpt>
<trkpt lat="35.0024331" lon="33.4422693">
<ele>249.01</ele>
<time>2015-05-01T14:26:05Z</time>
</trkpt>
<trkpt lat="35.0024313" lon="33.4423370">
<ele>249.02</ele>
<time>2015-05-01T14:26:06Z</time>
</trkpt>
<trkpt lat="35.0024253" lon="33.4424051">
<ele>249.02</ele>
<time>2015-05-01T14:26:07Z</time>
</trkpt>
<trkpt lat="35.0024210" lon="33.4424777">
<ele>249.02</ele>
<time>2015-05-01T14:26:08Z</time>
</trkpt>
<trkpt lat="35.0024104" lon="33.4425510">
<ele>249.02</ele>
<time>2015-05-01T14:26:09Z</time>
</trkpt>
<trkpt lat="35.0023938" lon="33.4426161">
<ele>249.02</ele>
<time>2015-05-01T14:26:10Z</time>
</trkpt>
<trkpt lat="35.0023794" lon="33.4426863">
<ele>249.02</ele>
<time>2015-05-01T14:26:11Z</time>
</trkpt>
<trkpt lat="35.0023616" lon="33.4427673">
<ele>249.52</ele>
<time>2015-05-01T14:26:12Z</time>
</trkpt>
<trkpt lat="35.0023541" lon="33.4428365">
<ele>249.77</ele>
<time>2015-05-01T14:26:13Z</time>
</trkpt>
<trkpt lat="35.0023449" lon="33.4429102">
<ele>249.89</ele>
<time>2015-05-01T14:26:14Z</time>
</trkpt>
<trkpt lat="35.0023303" lon="33.4429805">
<ele>249.45</ele>
<time>2015-05-01T14:26:15Z</time>
</trkpt>
<trkpt lat="35.0023172" lon="33.4430528">
<ele>249.23</ele>
<time>2015-05-01T14:26:16Z</time>
</trkpt>
<trkpt lat="35.0023047" lon="33.4431282">
<ele>249.13</ele>
<time>2015-05-01T14:26:17Z</time>
</trkpt>
<trkpt lat="35.0022820" lon="33.4432037">
<ele>249.57</ele>
<time>2015-05-01T14:26:18Z</time>
</trkpt>
<trkpt lat="35.0022650" lon="33.4432726">
<ele>249.79</ele>
<time>2015-05-01T14:26:19Z</time>
</trkpt>
<trkpt lat="35.0022400" lon="33.4433394">
<ele>248.90</ele>
<time>2015-05-01T14:26:20Z</time>
</trkpt>
<trkpt lat="35.0022323" lon="33.4434052">
<ele>247.46</ele>
<time>2015-05-01T14:26:21Z</time>
</trkpt>
<trkpt lat="35.0022161" lon="33.4434856">
<ele>246.74</ele>
<time>2015-05-01T14:26:22Z</time>
</trkpt>
<trkpt lat="35.0022035" lon="33.4435544">
<ele>246.38</ele>
<time>2015-05-01T14:26:23Z</time>
</trkpt>
<trkpt lat="35.0021810" lon="33.4436301">
<ele>246.20</ele>
<time>2015-05-01T14:26:24Z</time>
</trkpt>
<trkpt lat="35.0021680" lon="33.4436989">
<ele>246.11</ele>
<time>2015-05-01T14:26:25Z</time>
</trkpt>
<trkpt lat="35.0021514" lon="33.4437694">
<ele>246.06</ele>
<time>2015-05-01T14:26:26Z</time>
</trkpt>
<trkpt lat="35.0021393" lon="33.4438409">
<ele>246.04</ele>
<time>2015-05-01T14:26:27Z</time>
</trkpt>
<trkpt lat="35.0021283" lon="33.4439206">
<ele>246.03</ele>
<time>2015-05-01T14:26:28Z</time>
</trkpt>
<trkpt lat="35.0021133" lon="33.4439896">
<ele>246.02</ele>
<time>2015-05-01T14:26:29Z</time>
</trkpt>
<trkpt lat="35.0020960" lon="33.4440643">
<ele>246.02</ele>
<time>2015-05-01T14:26:30Z</time>
</trkpt>
<trkpt lat="35.0020840" lon="33.4441262">
<ele>246.02</ele>
<time>2015-05-01T14:26:31Z</time>
</trkpt>
<trkpt lat="35.0020706" lon="33.4441915">
<ele>246.02</ele>
<time>2015-05-01T14:26:32Z</time>
</trkpt>
<trkpt lat="35.0020690" lon="33.4442469">
<ele>246.02</ele>
<time>2015-05-01T14:26:33Z</time>
</trkpt>
<trkpt lat="35.0020616" lon="33.4443554">
<ele>246.02</ele>
<time>2015-05-01T14:26:35Z</time>
</trkpt>
<trkpt lat="35.0020397" lon="33.4444254">
<ele>246.02</ele>
<time>2015-05-01T14:26:36Z</time>
</trkpt>
<trkpt lat="35.0020248" lon="33.4444951">
<ele>246.02</ele>
<time>2015-05-01T14:26:37Z</time>
</trkpt>
<trkpt lat="35.0020017" lon="33.4445665">
<ele>246.02</ele>
<time>2015-05-01T14:26:38Z</time>
</trkpt>
<trkpt lat="35.0019907" lon="33.4446312">
<ele>246.52</ele>
<time>2015-05-01T14:26:39Z</time>
</trkpt>
<trkpt lat="35.0019682" lon="33.4447095">
<ele>246.27</ele>
<time>2015-05-01T14:26:40Z</time>
</trkpt>
<trkpt lat="35.0019665" lon="33.4447674">
<ele>246.14</ele>
<time>2015-05-01T14:26:41Z</time>
</trkpt>
<trkpt lat="35.0019537" lon="33.4448298">
<ele>246.58</ele>
<time>2015-05-01T14:26:42Z</time>
</trkpt>
<trkpt lat="35.0019363" lon="33.4448955">
<ele>247.30</ele>
<time>2015-05-01T14:26:43Z</time>
</trkpt>
<trkpt lat="35.0019170" lon="33.4449679">
<ele>247.66</ele>
<time>2015-05-01T14:26:44Z</time>
</trkpt>
<trkpt lat="35.0019090" lon="33.4450306">
<ele>247.84</ele>
<time>2015-05-01T14:26:45Z</time>
</trkpt>
<trkpt lat="35.0018944" lon="33.4450986">
<ele>247.93</ele>
<time>2015-05-01T14:26:46Z</time>
</trkpt>
<trkpt lat="35.0018898" lon="33.4451596">
<ele>246.97</ele>
<time>2015-05-01T14:26:47Z</time>
</trkpt>
<trkpt lat="35.0018675" lon="33.4452295">
<ele>246.49</ele>
<time>2015-05-01T14:26:48Z</time>
</trkpt>
<trkpt lat="35.0018506" lon="33.4452971">
<ele>246.25</ele>
<time>2015-05-01T14:26:49Z</time>
</trkpt>
<trkpt lat="35.0018254" lon="33.4453628">
<ele>246.14</ele>
<time>2015-05-01T14:26:50Z</time>
</trkpt>
<trkpt lat="35.0018002" lon="33.4454213">
<ele>246.08</ele>
<time>2015-05-01T14:26:51Z</time>
</trkpt>
<trkpt lat="35.0017804" lon="33.4454881">
<ele>246.05</ele>
<time>2015-05-01T14:26:52Z</time>
</trkpt>
<trkpt lat="35.0017594" lon="33.4455519">
<ele>246.53</ele>
<time>2015-05-01T14:26:53Z</time>
</trkpt>
<trkpt lat="35.0017367" lon="33.4456182">
<ele>246.77</ele>
<time>2015-05-01T14:26:54Z</time>
</trkpt>
<trkpt lat="35.0017250" lon="33.4456760">
<ele>246.89</ele>
<time>2015-05-01T14:26:55Z</time>
</trkpt>
<trkpt lat="35.0017042" lon="33.4457455">
<ele>246.96</ele>
<time>2015-05-01T14:26:56Z</time>
</trkpt>
<trkpt lat="35.0016890" lon="33.4458084">
<ele>246.99</ele>
<time>2015-05-01T14:26:57Z</time>
</trkpt>
<trkpt lat="35.0016707" lon="33.4458705">
<ele>247.50</ele>
<time>2015-05-01T14:26:58Z</time>
</trkpt>
<trkpt lat="35.0016520" lon="33.4459327">
<ele>247.76</ele>
<time>2015-05-01T14:26:59Z</time>
</trkpt>
<trkpt lat="35.0016350" lon="33.4459940">
<ele>247.89</ele>
<time>2015-05-01T14:27:00Z</time>
</trkpt>
<trkpt lat="35.0016261" lon="33.4460498">
<ele>247.95</ele>
<time>2015-05-01T14:27:01Z</time>
</trkpt>
<trkpt lat="35.0016316" lon="33.4461498">
<ele>248.00</ele>
<time>2015-05-01T14:27:03Z</time>
</trkpt>
<trkpt lat="35.0016371" lon="33.4462052">
<ele>247.51</ele>
<time>2015-05-01T14:27:04Z</time>
</trkpt>
<trkpt lat="35.0016191" lon="33.4462722">
<ele>247.26</ele>
<time>2015-05-01T14:27:05Z</time>
</trkpt>
<trkpt lat="35.0016048" lon="33.4463432">
<ele>247.14</ele>
<time>2015-05-01T14:27:06Z</time>
</trkpt>
<trkpt lat="35.0015909" lon="33.4464124">
<ele>247.58</ele>
<time>2015-05-01T14:27:07Z</time>
</trkpt>
<trkpt lat="35.0015787" lon="33.4464733">
<ele>247.80</ele>
<time>2015-05-01T14:27:08Z</time>
</trkpt>
<trkpt lat="35.0015773" lon="33.4465339">
<ele>247.41</ele>
<time>2015-05-01T14:27:09Z</time>
</trkpt>
<trkpt lat="35.0015552" lon="33.4466467">
<ele>247.61</ele>
<time>2015-05-01T14:27:11Z</time>
</trkpt>
<trkpt lat="35.0015352" lon="33.4467522">
<ele>247.92</ele>
<time>2015-05-01T14:27:13Z</time>
</trkpt>
<trkpt lat="35.0015257" lon="33.4468168">
<ele>247.97</ele>
<time>2015-05-01T14:27:14Z</time>
</trkpt>
<trkpt lat="35.0015171" lon="33.4468823">
<ele>248.49</ele>
<time>2015-05-01T14:27:15Z</time>
</trkpt>
<trkpt lat="35.0015048" lon="33.4469961">
<ele>248.38</ele>
<time>2015-05-01T14:27:17Z</time>
</trkpt>
<trkpt lat="35.0014906" lon="33.4470559">
<ele>248.70</ele>
<time>2015-05-01T14:27:18Z</time>
</trkpt>
<trkpt lat="35.0014786" lon="33.4471100">
<ele>248.86</ele>
<time>2015-05-01T14:27:19Z</time>
</trkpt>
<trkpt lat="35.0014585" lon="33.4472141">
<ele>249.48</ele>
<time>2015-05-01T14:27:21Z</time>
</trkpt>
<trkpt lat="35.0014503" lon="33.4473173">
<ele>249.88</ele>
<time>2015-05-01T14:27:23Z</time>
</trkpt>
<trkpt lat="35.0014371" lon="33.4473786">
<ele>249.95</ele>
<time>2015-05-01T14:27:24Z</time>
</trkpt>
<trkpt lat="35.0014180" lon="33.4474739">
<ele>249.25</ele>
<time>2015-05-01T14:27:26Z</time>
</trkpt>
<trkpt lat="35.0013986" lon="33.4475775">
<ele>248.32</ele>
<time>2015-05-01T14:27:28Z</time>
</trkpt>
<trkpt lat="35.0013885" lon="33.4476360">
<ele>248.17</ele>
<time>2015-05-01T14:27:29Z</time>
</trkpt>
<trkpt lat="35.0013653" lon="33.4477519">
<ele>248.05</ele>
<time>2015-05-01T14:27:31Z</time>
</trkpt>
<trkpt lat="35.0013532" lon="33.4478134">
<ele>248.04</ele>
<time>2015-05-01T14:27:32Z</time>
</trkpt>
<trkpt lat="35.0013374" lon="33.4478759">
<ele>248.03</ele>
<time>2015-05-01T14:27:33Z</time>
</trkpt>
<trkpt lat="35.0013217" lon="33.4479365">
<ele>248.02</ele>
<time>2015-05-01T14:27:34Z</time>
</trkpt>
<trkpt lat="35.0013187" lon="33.4479934">
<ele>247.52</ele>
<time>2015-05-01T14:27:35Z</time>
</trkpt>
<trkpt lat="35.0013056" lon="33.4480576">
<ele>247.27</ele>
<time>2015-05-01T14:27:36Z</time>
</trkpt>
<trkpt lat="35.0012986" lon="33.4481190">
<ele>247.14</ele>
<time>2015-05-01T14:27:37Z</time>
</trkpt>
<trkpt lat="35.0012933" lon="33.4481759">
<ele>247.58</ele>
<time>2015-05-01T14:27:38Z</time>
</trkpt>
<trkpt lat="35.0012725" lon="33.4482841">
<ele>247.66</ele>
<time>2015-05-01T14:27:40Z</time>
</trkpt>
<trkpt lat="35.0012636" lon="33.4483420">
<ele>247.84</ele>
<time>2015-05-01T14:27:41Z</time>
</trkpt>
<trkpt lat="35.0012471" lon="33.4484462">
<ele>248.72</ele>
<time>2015-05-01T14:27:43Z</time>
</trkpt>
<trkpt lat="35.0012250" lon="33.4485443">
<ele>248.94</ele>
<time>2015-05-01T14:27:45Z</time>
</trkpt>
<trkpt lat="35.0012078" lon="33.4486314">
<ele>248.75</ele>
<time>2015-05-01T14:27:47Z</time>
</trkpt>
<trkpt lat="35.0011997" lon="33.4487138">
<ele>248.45</ele>
<time>2015-05-01T14:27:49Z</time>
</trkpt>
<trkpt lat="35.0011752" lon="33.4488091">
<ele>248.87</ele>
<time>2015-05-01T14:27:51Z</time>
</trkpt>
<trkpt lat="35.0011602" lon="33.4489159">
<ele>247.98</ele>
<time>2015-05-01T14:27:53Z</time>
</trkpt>
<trkpt lat="35.0011452" lon="33.4489776">
<ele>248.00</ele>
<time>2015-05-01T14:27:54Z</time>
</trkpt>
<trkpt lat="35.0011154" lon="33.4490866">
<ele>248.01</ele>
<time>2015-05-01T14:27:56Z</time>
</trkpt>
<trkpt lat="35.0010964" lon="33.4491491">
<ele>248.01</ele>
<time>2015-05-01T14:27:57Z</time>
</trkpt>
<trkpt lat="35.0010750" lon="33.4492054">
<ele>248.01</ele>
<time>2015-05-01T14:27:58Z</time>
</trkpt>
<trkpt lat="35.0010494" lon="33.4492640">
<ele>248.02</ele>
<time>2015-05-01T14:27:59Z</time>
</trkpt>
<trkpt lat="35.0010178" lon="33.4493289">
<ele>248.52</ele>
<time>2015-05-01T14:28:00Z</time>
</trkpt>
<trkpt lat="35.0009814" lon="33.4494293">
<ele>249.64</ele>
<time>2015-05-01T14:28:02Z</time>
</trkpt>
<trkpt lat="35.0009615" lon="33.4495159">
<ele>249.17</ele>
<time>2015-05-01T14:28:04Z</time>
</trkpt>
<trkpt lat="35.0009299" lon="33.4496032">
<ele>249.06</ele>
<time>2015-05-01T14:28:06Z</time>
</trkpt>
<trkpt lat="35.0009102" lon="33.4496823">
<ele>247.78</ele>
<time>2015-05-01T14:28:08Z</time>
</trkpt>
<trkpt lat="35.0008953" lon="33.4497550">
<ele>248.46</ele>
<time>2015-05-01T14:28:10Z</time>
</trkpt>
<trkpt lat="35.0008658" lon="33.4498323">
<ele>247.63</ele>
<time>2015-05-01T14:28:12Z</time>
</trkpt>
<trkpt lat="35.0008390" lon="33.4499136">
<ele>247.67</ele>
<time>2015-05-01T14:28:14Z</time>
</trkpt>
<trkpt lat="35.0008141" lon="33.4500000">
<ele>247.43</ele>
<time>2015-05-01T14:28:16Z</time>
</trkpt>
<trkpt lat="35.0007868" lon="33.4500840">
<ele>246.62</ele>
<time>2015-05-01T14:28:18Z</time>
</trkpt>
<trkpt lat="35.0007521" lon="33.4501692">
<ele>246.92</ele>
<time>2015-05-01T14:28:20Z</time>
</trkpt>
<trkpt lat="35.0007198" lon="33.4502625">
<ele>245.49</ele>
<time>2015-05-01T14:28:22Z</time>
</trkpt>
<trkpt lat="35.0006823" lon="33.4503561">
<ele>247.38</ele>
<time>2015-05-01T14:28:24Z</time>
</trkpt>
<trkpt lat="35.0006394" lon="33.4504462">
<ele>246.61</ele>
<time>2015-05-01T14:28:26Z</time>
</trkpt>
<trkpt lat="35.0005788" lon="33.4505588">
<ele>247.66</ele>
<time>2015-05-01T14:28:28Z</time>
</trkpt>
<trkpt lat="35.0005534" lon="33.4506158">
<ele>247.84</ele>
<time>2015-05-01T14:28:29Z</time>
</trkpt>
<trkpt lat="35.0005332" lon="33.4506697">
<ele>247.93</ele>
<time>2015-05-01T14:28:30Z</time>
</trkpt>
<trkpt lat="35.0004946" lon="33.4507689">
<ele>248.49</ele>
<time>2015-05-01T14:28:32Z</time>
</trkpt>
<trkpt lat="35.0004610" lon="33.4508626">
<ele>248.89</ele>
<time>2015-05-01T14:28:34Z</time>
</trkpt>
<trkpt lat="35.0004295" lon="33.4509635">
<ele>248.98</ele>
<time>2015-05-01T14:28:36Z</time>
</trkpt>
<trkpt lat="35.0003953" lon="33.4510664">
<ele>249.01</ele>
<time>2015-05-01T14:28:38Z</time>
</trkpt>
<trkpt lat="35.0003734" lon="33.4511214">
<ele>249.01</ele>
<time>2015-05-01T14:28:39Z</time>
</trkpt>
<trkpt lat="35.0003537" lon="33.4511831">
<ele>249.01</ele>
<time>2015-05-01T14:28:40Z</time>
</trkpt>
<trkpt lat="35.0003365" lon="33.4512373">
<ele>249.01</ele>
<time>2015-05-01T14:28:41Z</time>
</trkpt>
<trkpt lat="35.0003158" lon="33.4512918">
<ele>249.02</ele>
<time>2015-05-01T14:28:42Z</time>
</trkpt>
<trkpt lat="35.0002968" lon="33.4513949">
<ele>249.02</ele>
<time>2015-05-01T14:28:44Z</time>
</trkpt>
<trkpt lat="35.0002794" lon="33.4514505">
<ele>249.02</ele>
<time>2015-05-01T14:28:45Z</time>
</trkpt>
<trkpt lat="35.0002641" lon="33.4515044">
<ele>249.02</ele>
<time>2015-05-01T14:28:46Z</time>
</trkpt>
<trkpt lat="35.0002498" lon="33.4515568">
<ele>249.52</ele>
<time>2015-05-01T14:28:47Z</time>
</trkpt>
<trkpt lat="35.0002317" lon="33.4516248">
<ele>249.27</ele>
<time>2015-05-01T14:28:48Z</time>
</trkpt>
<trkpt lat="35.0002185" lon="33.4516878">
<ele>249.14</ele>
<time>2015-05-01T14:28:49Z</time>
</trkpt>
<trkpt lat="35.0001974" lon="33.4517465">
<ele>248.58</ele>
<time>2015-05-01T14:28:50Z</time>
</trkpt>
<trkpt lat="35.0001766" lon="33.4518008">
<ele>248.80</ele>
<time>2015-05-01T14:28:51Z</time>
</trkpt>
<trkpt lat="35.0001594" lon="33.4518580">
<ele>248.91</ele>
<time>2015-05-01T14:28:52Z</time>
</trkpt>
<trkpt lat="35.0001436" lon="33.4519153">
<ele>248.96</ele>
<time>2015-05-01T14:28:53Z</time>
</trkpt>
<trkpt lat="35.0001297" lon="33.4519739">
<ele>249.49</ele>
<time>2015-05-01T14:28:54Z</time>
</trkpt>
<trkpt lat="35.0001096" lon="33.4520275">
<ele>249.75</ele>
<time>2015-05-01T14:28:55Z</time>
</trkpt>
<trkpt lat="35.0000734" lon="33.4521246">
<ele>250.70</ele>
<time>2015-05-01T14:28:57Z</time>
</trkpt>
<trkpt lat="35.0000433" lon="33.4522212">
<ele>250.94</ele>
<time>2015-05-01T14:28:59Z</time>
</trkpt>
<trkpt lat="35.0000119" lon="33.4523174">
<ele>251.25</ele>
<time>2015-05-01T14:29:01Z</time>
</trkpt>
<trkpt lat="34.9999922" lon="33.4524002">
<ele>251.07</ele>
<time>2015-05-01T14:29:03Z</time>
</trkpt>
<trkpt lat="34.9999637" lon="33.4525003">
<ele>251.53</ele>
<time>2015-05-01T14:29:05Z</time>
</trkpt>
<trkpt lat="34.9999489" lon="33.4525538">
<ele>251.77</ele>
<time>2015-05-01T14:29:06Z</time>
</trkpt>
<trkpt lat="34.9999292" lon="33.4526039">
<ele>251.39</ele>
<time>2015-05-01T14:29:07Z</time>
</trkpt>
<trkpt lat="34.9999068" lon="33.4526895">
<ele>251.11</ele>
<time>2015-05-01T14:29:09Z</time>
</trkpt>
<trkpt lat="34.9998756" lon="33.4527773">
<ele>251.04</ele>
<time>2015-05-01T14:29:11Z</time>
</trkpt>
<trkpt lat="34.9998604" lon="33.4528290">
<ele>251.03</ele>
<time>2015-05-01T14:29:12Z</time>
</trkpt>
<trkpt lat="34.9998172" lon="33.4529270">
<ele>251.52</ele>
<time>2015-05-01T14:29:14Z</time>
</trkpt>
<trkpt lat="34.9997680" lon="33.4530215">
<ele>251.39</ele>
<time>2015-05-01T14:29:16Z</time>
</trkpt>
<trkpt lat="34.9997241" lon="33.4531136">
<ele>251.86</ele>
<time>2015-05-01T14:29:18Z</time>
</trkpt>
<trkpt lat="34.9996833" lon="33.4532037">
<ele>251.73</ele>
<time>2015-05-01T14:29:20Z</time>
</trkpt>
<trkpt lat="34.9996280" lon="33.4532884">
<ele>251.44</ele>
<time>2015-05-01T14:29:22Z</time>
</trkpt>
<trkpt lat="34.9995786" lon="33.4533675">
<ele>251.12</ele>
<time>2015-05-01T14:29:24Z</time>
</trkpt>
<trkpt lat="34.9995227" lon="33.4534358">
<ele>251.54</ele>
<time>2015-05-01T14:29:26Z</time>
</trkpt>
<trkpt lat="34.9994689" lon="33.4535078">
<ele>251.65</ele>
<time>2015-05-01T14:29:28Z</time>
</trkpt>
<trkpt lat="34.9994149" lon="33.4535764">
<ele>251.92</ele>
<time>2015-05-01T14:29:30Z</time>
</trkpt>
<trkpt lat="34.9993701" lon="33.4536362">
<ele>251.74</ele>
<time>2015-05-01T14:29:32Z</time>
</trkpt>
<trkpt lat="34.9993216" lon="33.4536887">
<ele>251.45</ele>
<time>2015-05-01T14:29:34Z</time>
</trkpt>
<trkpt lat="34.9992749" lon="33.4537402">
<ele>251.12</ele>
<time>2015-05-01T14:29:36Z</time>
</trkpt>
<trkpt lat="34.9992356" lon="33.4537894">
<ele>251.04</ele>
<time>2015-05-01T14:29:38Z</time>
</trkpt>
<trkpt lat="34.9991998" lon="33.4538406">
<ele>251.02</ele>
<time>2015-05-01T14:29:40Z</time>
</trkpt>
<trkpt lat="34.9991596" lon="33.4538964">
<ele>251.52</ele>
<time>2015-05-01T14:29:42Z</time>
</trkpt>
<trkpt lat="34.9991039" lon="33.4539398">
<ele>253.89</ele>
<time>2015-05-01T14:29:44Z</time>
</trkpt>
<trkpt lat="34.9990377" lon="33.4539830">
<ele>254.98</ele>
<time>2015-05-01T14:29:46Z</time>
</trkpt>
<trkpt lat="34.9989691" lon="33.4540411">
<ele>255.51</ele>
<time>2015-05-01T14:29:48Z</time>
</trkpt>
<trkpt lat="34.9989010" lon="33.4540993">
<ele>255.89</ele>
<time>2015-05-01T14:29:50Z</time>
</trkpt>
<trkpt lat="34.9988314" lon="33.4541540">
<ele>255.98</ele>
<time>2015-05-01T14:29:52Z</time>
</trkpt>
<trkpt lat="34.9987794" lon="33.4541863">
<ele>255.50</ele>
<time>2015-05-01T14:29:53Z</time>
</trkpt>
<trkpt lat="34.9987368" lon="33.4542148">
<ele>254.76</ele>
<time>2015-05-01T14:29:54Z</time>
</trkpt>
<trkpt lat="34.9986932" lon="33.4542422">
<ele>254.89</ele>
<time>2015-05-01T14:29:55Z</time>
</trkpt>
<trkpt lat="34.9986498" lon="33.4542684">
<ele>254.95</ele>
<time>2015-05-01T14:29:56Z</time>
</trkpt>
<trkpt lat="34.9986036" lon="33.4542953">
<ele>254.48</ele>
<time>2015-05-01T14:29:57Z</time>
</trkpt>
<trkpt lat="34.9985464" lon="33.4543284">
<ele>254.25</ele>
<time>2015-05-01T14:29:58Z</time>
</trkpt>
<trkpt lat="34.9984988" lon="33.4543596">
<ele>254.13</ele>
<time>2015-05-01T14:29:59Z</time>
</trkpt>
<trkpt lat="34.9984480" lon="33.4543879">
<ele>254.07</ele>
<time>2015-05-01T14:30:00Z</time>
</trkpt>
<trkpt lat="34.9983901" lon="33.4544136">
<ele>254.05</ele>
<time>2015-05-01T14:30:01Z</time>
</trkpt>
<trkpt lat="34.9983452" lon="33.4544421">
<ele>253.53</ele>
<time>2015-05-01T14:30:02Z</time>
</trkpt>
<trkpt lat="34.9983015" lon="33.4544735">
<ele>253.77</ele>
<time>2015-05-01T14:30:03Z</time>
</trkpt>
<trkpt lat="34.9982550" lon="33.4545013">
<ele>254.39</ele>
<time>2015-05-01T14:30:04Z</time>
</trkpt>
<trkpt lat="34.9982098" lon="33.4545292">
<ele>254.71</ele>
<time>2015-05-01T14:30:05Z</time>
</trkpt>
<trkpt lat="34.9981648" lon="33.4545512">
<ele>254.86</ele>
<time>2015-05-01T14:30:06Z</time>
</trkpt>
<trkpt lat="34.9981177" lon="33.4545789">
<ele>254.44</ele>
<time>2015-05-01T14:30:07Z</time>
</trkpt>
<trkpt lat="34.9980701" lon="33.4546033">
<ele>254.73</ele>
<time>2015-05-01T14:30:08Z</time>
</trkpt>
<trkpt lat="34.9980295" lon="33.4546288">
<ele>254.37</ele>
<time>2015-05-01T14:30:09Z</time>
</trkpt>
<trkpt lat="34.9979920" lon="33.4546627">
<ele>254.19</ele>
<time>2015-05-01T14:30:10Z</time>
</trkpt>
<trkpt lat="34.9979446" lon="33.4546918">
<ele>254.60</ele>
<time>2015-05-01T14:30:11Z</time>
</trkpt>
<trkpt lat="34.9978983" lon="33.4547182">
<ele>254.31</ele>
<time>2015-05-01T14:30:12Z</time>
</trkpt>
<trkpt lat="34.9978513" lon="33.4547528">
<ele>254.16</ele>
<time>2015-05-01T14:30:13Z</time>
</trkpt>
<trkpt lat="34.9977976" lon="33.4547907">
<ele>254.09</ele>
<time>2015-05-01T14:30:14Z</time>
</trkpt>
<trkpt lat="34.9977524" lon="33.4548203">
<ele>254.05</ele>
<time>2015-05-01T14:30:15Z</time>
</trkpt>
<trkpt lat="34.9977004" lon="33.4548518">
<ele>253.53</ele>
<time>2015-05-01T14:30:16Z</time>
</trkpt>
<trkpt lat="34.9976387" lon="33.4548719">
<ele>252.78</ele>
<time>2015-05-01T14:30:17Z</time>
</trkpt>
<trkpt lat="34.9975878" lon="33.4549013">
<ele>252.40</ele>
<time>2015-05-01T14:30:18Z</time>
</trkpt>
<trkpt lat="34.9975341" lon="33.4549305">
<ele>252.21</ele>
<time>2015-05-01T14:30:19Z</time>
</trkpt>
<trkpt lat="34.9974789" lon="33.4549595">
<ele>252.11</ele>
<time>2015-05-01T14:30:20Z</time>
</trkpt>
<trkpt lat="34.9974250" lon="33.4549985">
<ele>252.06</ele>
<time>2015-05-01T14:30:21Z</time>
</trkpt>
<trkpt lat="34.9973619" lon="33.4550157">
<ele>251.04</ele>
<time>2015-05-01T14:30:22Z</time>
</trkpt>
<trkpt lat="34.9973067" lon="33.4550515">
<ele>251.03</ele>
<time>2015-05-01T14:30:23Z</time>
</trkpt>
<trkpt lat="34.9972479" lon="33.4550850">
<ele>251.02</ele>
<time>2015-05-01T14:30:24Z</time>
</trkpt>
<trkpt lat="34.9971977" lon="33.4551096">
<ele>251.52</ele>
<time>2015-05-01T14:30:25Z</time>
</trkpt>
<trkpt lat="34.9971423" lon="33.4551433">
<ele>251.27</ele>
<time>2015-05-01T14:30:26Z</time>
</trkpt>
<trkpt lat="34.9970940" lon="33.4551746">
<ele>251.14</ele>
<time>2015-05-01T14:30:27Z</time>
</trkpt>
<trkpt lat="34.9970426" lon="33.4552023">
<ele>251.58</ele>
<time>2015-05-01T14:30:28Z</time>
</trkpt>
<trkpt lat="34.9970027" lon="33.4552324">
<ele>251.80</ele>
<time>2015-05-01T14:30:29Z</time>
</trkpt>
<trkpt lat="34.9969632" lon="33.4552597">
<ele>251.91</ele>
<time>2015-05-01T14:30:30Z</time>
</trkpt>
<trkpt lat="34.9968860" lon="33.4552945">
<ele>250.99</ele>
<time>2015-05-01T14:30:32Z</time>
</trkpt>
<trkpt lat="34.9968335" lon="33.4553078">
<ele>250.50</ele>
<time>2015-05-01T14:30:33Z</time>
</trkpt>
<trkpt lat="34.9967882" lon="33.4553363">
<ele>250.26</ele>
<time>2015-05-01T14:30:34Z</time>
</trkpt>
<trkpt lat="34.9967064" lon="33.4553781">
<ele>249.83</ele>
<time>2015-05-01T14:30:36Z</time>
</trkpt>
<trkpt lat="34.9966584" lon="33.4553970">
<ele>249.92</ele>
<time>2015-05-01T14:30:37Z</time>
</trkpt>
<trkpt lat="34.9966111" lon="33.4554218">
<ele>250.47</ele>
<time>2015-05-01T14:30:38Z</time>
</trkpt>
<trkpt lat="34.9965666" lon="33.4554460">
<ele>251.24</ele>
<time>2015-05-01T14:30:39Z</time>
</trkpt>
<trkpt lat="34.9965206" lon="33.4554688">
<ele>251.63</ele>
<time>2015-05-01T14:30:40Z</time>
</trkpt>
<trkpt lat="34.9964762" lon="33.4554946">
<ele>252.32</ele>
<time>2015-05-01T14:30:41Z</time>
</trkpt>
<trkpt lat="34.9964330" lon="33.4555174">
<ele>253.17</ele>
<time>2015-05-01T14:30:42Z</time>
</trkpt>
<trkpt lat="34.9963886" lon="33.4555374">
<ele>254.09</ele>
<time>2015-05-01T14:30:43Z</time>
</trkpt>
<trkpt lat="34.9963527" lon="33.4555783">
<ele>254.55</ele>
<time>2015-05-01T14:30:44Z</time>
</trkpt>
<trkpt lat="34.9963118" lon="33.4556027">
<ele>254.79</ele>
<time>2015-05-01T14:30:45Z</time>
</trkpt>
<trkpt lat="34.9962296" lon="33.4556408">
<ele>256.21</ele>
<time>2015-05-01T14:30:47Z</time>
</trkpt>
<trkpt lat="34.9961541" lon="33.4556684">
<ele>256.81</ele>
<time>2015-05-01T14:30:49Z</time>
</trkpt>
<trkpt lat="34.9961031" lon="33.4557180">
<ele>256.22</ele>
<time>2015-05-01T14:30:51Z</time>
</trkpt>
<trkpt lat="34.9960468" lon="33.4557579">
<ele>256.57</ele>
<time>2015-05-01T14:30:53Z</time>
</trkpt>
<trkpt lat="34.9959800" lon="33.4558024">
<ele>257.40</ele>
<time>2015-05-01T14:30:55Z</time>
</trkpt>
<trkpt lat="34.9959184" lon="33.4558373">
<ele>257.36</ele>
<time>2015-05-01T14:30:57Z</time>
</trkpt>
<trkpt lat="34.9958584" lon="33.4558699">
<ele>258.60</ele>
<time>2015-05-01T14:30:59Z</time>
</trkpt>
<trkpt lat="34.9957986" lon="33.4559040">
<ele>258.91</ele>
<time>2015-05-01T14:31:01Z</time>
</trkpt>
<trkpt lat="34.9957370" lon="33.4559343">
<ele>258.99</ele>
<time>2015-05-01T14:31:03Z</time>
</trkpt>
<trkpt lat="34.9956707" lon="33.4559692">
<ele>259.01</ele>
<time>2015-05-01T14:31:05Z</time>
</trkpt>
<trkpt lat="34.9956036" lon="33.4560074">
<ele>258.51</ele>
<time>2015-05-01T14:31:07Z</time>
</trkpt>
<trkpt lat="34.9955284" lon="33.4560471">
<ele>258.64</ele>
<time>2015-05-01T14:31:09Z</time>
</trkpt>
<trkpt lat="34.9954664" lon="33.4560798">
<ele>258.83</ele>
<time>2015-05-01T14:31:10Z</time>
</trkpt>
<trkpt lat="34.9953815" lon="33.4561263">
<ele>259.47</ele>
<time>2015-05-01T14:31:12Z</time>
</trkpt>
<trkpt lat="34.9953064" lon="33.4561592">
<ele>259.38</ele>
<time>2015-05-01T14:31:14Z</time>
</trkpt>
<trkpt lat="34.9952267" lon="33.4562114">
<ele>259.86</ele>
<time>2015-05-01T14:31:16Z</time>
</trkpt>
<trkpt lat="34.9951881" lon="33.4562434">
<ele>259.94</ele>
<time>2015-05-01T14:31:17Z</time>
</trkpt>
<trkpt lat="34.9951131" lon="33.4562881">
<ele>260.00</ele>
<time>2015-05-01T14:31:19Z</time>
</trkpt>
<trkpt lat="34.9950380" lon="33.4563438">
<ele>260.51</ele>
<time>2015-05-01T14:31:21Z</time>
</trkpt>
<trkpt lat="34.9949718" lon="33.4564018">
<ele>260.14</ele>
<time>2015-05-01T14:31:23Z</time>
</trkpt>
<trkpt lat="34.9949085" lon="33.4564622">
<ele>259.55</ele>
<time>2015-05-01T14:31:25Z</time>
</trkpt>
<trkpt lat="34.9948413" lon="33.4565249">
<ele>259.15</ele>
<time>2015-05-01T14:31:27Z</time>
</trkpt>
<trkpt lat="34.9948035" lon="33.4565657">
<ele>259.08</ele>
<time>2015-05-01T14:31:28Z</time>
</trkpt>
<trkpt lat="34.9947695" lon="33.4566028">
<ele>259.05</ele>
<time>2015-05-01T14:31:29Z</time>
</trkpt>
<trkpt lat="34.9947277" lon="33.4566420">
<ele>258.53</ele>
<time>2015-05-01T14:31:30Z</time>
</trkpt>
<trkpt lat="34.9946897" lon="33.4566757">
<ele>258.27</ele>
<time>2015-05-01T14:31:31Z</time>
</trkpt>
<trkpt lat="34.9946456" lon="33.4567238">
<ele>258.15</ele>
<time>2015-05-01T14:31:32Z</time>
</trkpt>
<trkpt lat="34.9946064" lon="33.4567662">
<ele>258.08</ele>
<time>2015-05-01T14:31:33Z</time>
</trkpt>
<trkpt lat="34.9945623" lon="33.4568098">
<ele>258.05</ele>
<time>2015-05-01T14:31:34Z</time>
</trkpt>
<trkpt lat="34.9945203" lon="33.4568413">
<ele>258.03</ele>
<time>2015-05-01T14:31:35Z</time>
</trkpt>
<trkpt lat="34.9944812" lon="33.4568860">
<ele>258.52</ele>
<time>2015-05-01T14:31:36Z</time>
</trkpt>
<trkpt lat="34.9944344" lon="33.4569416">
<ele>258.77</ele>
<time>2015-05-01T14:31:37Z</time>
</trkpt>
<trkpt lat="34.9943782" lon="33.4570064">
<ele>258.39</ele>
<time>2015-05-01T14:31:38Z</time>
</trkpt>
<trkpt lat="34.9943225" lon="33.4570718">
<ele>257.70</ele>
<time>2015-05-01T14:31:39Z</time>
</trkpt>
<trkpt lat="34.9942770" lon="33.4571396">
<ele>257.36</ele>
<time>2015-05-01T14:31:40Z</time>
</trkpt>
<trkpt lat="34.9942289" lon="33.4572114">
<ele>257.19</ele>
<time>2015-05-01T14:31:41Z</time>
</trkpt>
<trkpt lat="34.9941906" lon="33.4572761">
<ele>257.10</ele>
<time>2015-05-01T14:31:42Z</time>
</trkpt>
<trkpt lat="34.9941424" lon="33.4573645">
<ele>257.06</ele>
<time>2015-05-01T14:31:43Z</time>
</trkpt>
<trkpt lat="34.9940921" lon="33.4574436">
<ele>257.04</ele>
<time>2015-05-01T14:31:44Z</time>
</trkpt>
<trkpt lat="34.9940946" lon="33.4575136">
<ele>257.53</ele>
<time>2015-05-01T14:31:45Z</time>
</trkpt>
<trkpt lat="34.9940516" lon="33.4576024">
<ele>257.77</ele>
<time>2015-05-01T14:31:46Z</time>
</trkpt>
<trkpt lat="34.9940120" lon="33.4576838">
<ele>257.39</ele>
<time>2015-05-01T14:31:47Z</time>
</trkpt>
<trkpt lat="34.9939581" lon="33.4577708">
<ele>256.70</ele>
<time>2015-05-01T14:31:48Z</time>
</trkpt>
<trkpt lat="34.9939167" lon="33.4578535">
<ele>255.86</ele>
<time>2015-05-01T14:31:49Z</time>
</trkpt>
<trkpt lat="34.9938742" lon="33.4579314">
<ele>254.94</ele>
<time>2015-05-01T14:31:50Z</time>
</trkpt>
<trkpt lat="34.9938373" lon="33.4580097">
<ele>254.48</ele>
<time>2015-05-01T14:31:51Z</time>
</trkpt>
<trkpt lat="34.9937974" lon="33.4580872">
<ele>254.25</ele>
<time>2015-05-01T14:31:52Z</time>
</trkpt>
<trkpt lat="34.9937719" lon="33.4581648">
<ele>253.63</ele>
<time>2015-05-01T14:31:53Z</time>
</trkpt>
<trkpt lat="34.9937415" lon="33.4582439">
<ele>253.32</ele>
<time>2015-05-01T14:31:54Z</time>
</trkpt>
<trkpt lat="34.9937099" lon="33.4583290">
<ele>252.67</ele>
<time>2015-05-01T14:31:55Z</time>
</trkpt>
<trkpt lat="34.9936748" lon="33.4584183">
<ele>251.84</ele>
<time>2015-05-01T14:31:56Z</time>
</trkpt>
<trkpt lat="34.9936488" lon="33.4585034">
<ele>250.93</ele>
<time>2015-05-01T14:31:57Z</time>
</trkpt>
<trkpt lat="34.9936239" lon="33.4585904">
<ele>250.47</ele>
<time>2015-05-01T14:31:58Z</time>
</trkpt>
<trkpt lat="34.9936123" lon="33.4586695">
<ele>250.24</ele>
<time>2015-05-01T14:31:59Z</time>
</trkpt>
<trkpt lat="34.9935924" lon="33.4587503">
<ele>250.63</ele>
<time>2015-05-01T14:32:00Z</time>
</trkpt>
<trkpt lat="34.9935820" lon="33.4588252">
<ele>250.82</ele>
<time>2015-05-01T14:32:01Z</time>
</trkpt>
<trkpt lat="34.9935838" lon="33.4588956">
<ele>250.42</ele>
<time>2015-05-01T14:32:02Z</time>
</trkpt>
<trkpt lat="34.9935974" lon="33.4589575">
<ele>250.22</ele>
<time>2015-05-01T14:32:03Z</time>
</trkpt>
<trkpt lat="34.9936163" lon="33.4590258">
<ele>250.12</ele>
<time>2015-05-01T14:32:04Z</time>
</trkpt>
<trkpt lat="34.9936384" lon="33.4590864">
<ele>249.57</ele>
<time>2015-05-01T14:32:05Z</time>
</trkpt>
<trkpt lat="34.9936525" lon="33.4591437">
<ele>249.29</ele>
<time>2015-05-01T14:32:06Z</time>
</trkpt>
<trkpt lat="34.9936516" lon="33.4592048">
<ele>249.65</ele>
<time>2015-05-01T14:32:07Z</time>
</trkpt>
<trkpt lat="34.9936461" lon="33.4592618">
<ele>249.83</ele>
<time>2015-05-01T14:32:08Z</time>
</trkpt>
<trkpt lat="34.9936276" lon="33.4593133">
<ele>249.93</ele>
<time>2015-05-01T14:32:09Z</time>
</trkpt>
<trkpt lat="34.9936073" lon="33.4593650">
<ele>249.97</ele>
<time>2015-05-01T14:32:10Z</time>
</trkpt>
<trkpt lat="34.9935738" lon="33.4594109">
<ele>249.49</ele>
<time>2015-05-01T14:32:11Z</time>
</trkpt>
<trkpt lat="34.9935151" lon="33.4594918">
<ele>248.64</ele>
<time>2015-05-01T14:32:13Z</time>
</trkpt>
<trkpt lat="34.9934860" lon="33.4595392">
<ele>248.33</ele>
<time>2015-05-01T14:32:14Z</time>
</trkpt>
<trkpt lat="34.9934663" lon="33.4595897">
<ele>248.17</ele>
<time>2015-05-01T14:32:15Z</time>
</trkpt>
<trkpt lat="34.9934491" lon="33.4596926">
<ele>248.05</ele>
<time>2015-05-01T14:32:17Z</time>
</trkpt>
<trkpt lat="34.9934406" lon="33.4598000">
<ele>248.03</ele>
<time>2015-05-01T14:32:19Z</time>
</trkpt>
<trkpt lat="34.9934471" lon="33.4598600">
<ele>248.02</ele>
<time>2015-05-01T14:32:20Z</time>
</trkpt>
<trkpt lat="34.9934372" lon="33.4599644">
<ele>248.52</ele>
<time>2015-05-01T14:32:22Z</time>
</trkpt>
<trkpt lat="34.9934383" lon="33.4600732">
<ele>248.64</ele>
<time>2015-05-01T14:32:24Z</time>
</trkpt>
<trkpt lat="34.9934344" lon="33.4601345">
<ele>248.83</ele>
<time>2015-05-01T14:32:25Z</time>
</trkpt>
<trkpt lat="34.9934448" lon="33.4602276">
<ele>248.47</ele>
<time>2015-05-01T14:32:27Z</time>
</trkpt>
<trkpt lat="34.9934444" lon="33.4602828">
<ele>248.24</ele>
<time>2015-05-01T14:32:28Z</time>
</trkpt>
<trkpt lat="34.9934426" lon="33.4603697">
<ele>248.82</ele>
<time>2015-05-01T14:32:30Z</time>
</trkpt>
<trkpt lat="34.9934334" lon="33.4604620">
<ele>249.47</ele>
<time>2015-05-01T14:32:32Z</time>
</trkpt>
<trkpt lat="34.9934442" lon="33.4605369">
<ele>249.88</ele>
<time>2015-05-01T14:32:34Z</time>
</trkpt>
<trkpt lat="34.9934591" lon="33.4605930">
<ele>250.48</ele>
<time>2015-05-01T14:32:36Z</time>
</trkpt>
<trkpt lat="34.9934716" lon="33.4606554">
<ele>250.88</ele>
<time>2015-05-01T14:32:38Z</time>
</trkpt>
<trkpt lat="34.9934808" lon="33.4607163">
<ele>251.48</ele>
<time>2015-05-01T14:32:40Z</time>
</trkpt>
<trkpt lat="34.9934809" lon="33.4607796">
<ele>252.63</ele>
<time>2015-05-01T14:32:42Z</time>
</trkpt>
<trkpt lat="34.9934860" lon="33.4608373">
<ele>253.42</ele>
<time>2015-05-01T14:32:44Z</time>
</trkpt>
<trkpt lat="34.9934937" lon="33.4608918">
<ele>254.62</ele>
<time>2015-05-01T14:32:46Z</time>
</trkpt>
<trkpt lat="34.9935033" lon="33.4609476">
<ele>255.67</ele>
<time>2015-05-01T14:32:48Z</time>
</trkpt>
<trkpt lat="34.9935172" lon="33.4610038">
<ele>255.43</ele>
<time>2015-05-01T14:32:50Z</time>
</trkpt>
<trkpt lat="34.9935329" lon="33.4610600">
<ele>255.87</ele>
<time>2015-05-01T14:32:52Z</time>
</trkpt>
<trkpt lat="34.9935535" lon="33.4611302">
<ele>255.25</ele>
<time>2015-05-01T14:32:55Z</time>
</trkpt>
<trkpt lat="34.9935657" lon="33.4612025">
<ele>254.17</ele>
<time>2015-05-01T14:32:58Z</time>
</trkpt>
<trkpt lat="34.9935824" lon="33.4612816">
<ele>254.04</ele>
<time>2015-05-01T14:33:01Z</time>
</trkpt>
<trkpt lat="34.9936009" lon="33.4613365">
<ele>254.02</ele>
<time>2015-05-01T14:33:03Z</time>
</trkpt>
<trkpt lat="34.9936223" lon="33.4613926">
<ele>253.27</ele>
<time>2015-05-01T14:33:05Z</time>
</trkpt>
<trkpt lat="34.9936445" lon="33.4614468">
<ele>253.08</ele>
<time>2015-05-01T14:33:07Z</time>
</trkpt>
<trkpt lat="34.9936677" lon="33.4615008">
<ele>253.03</ele>
<time>2015-05-01T14:33:09Z</time>
</trkpt>
<trkpt lat="34.9936865" lon="33.4615528">
<ele>253.52</ele>
<time>2015-05-01T14:33:11Z</time>
</trkpt>
<trkpt lat="34.9937010" lon="33.4616082">
<ele>253.89</ele>
<time>2015-05-01T14:33:13Z</time>
</trkpt>
<trkpt lat="34.9937100" lon="33.4616633">
<ele>255.24</ele>
<time>2015-05-01T14:33:15Z</time>
</trkpt>
<trkpt lat="34.9937226" lon="33.4617190">
<ele>254.57</ele>
<time>2015-05-01T14:33:17Z</time>
</trkpt>
<trkpt lat="34.9937374" lon="33.4617975">
<ele>254.84</ele>
<time>2015-05-01T14:33:20Z</time>
</trkpt>
<trkpt lat="34.9937518" lon="33.4618684">
<ele>255.12</ele>
<time>2015-05-01T14:33:23Z</time>
</trkpt>
<trkpt lat="34.9937635" lon="33.4619422">
<ele>256.65</ele>
<time>2015-05-01T14:33:26Z</time>
</trkpt>
<trkpt lat="34.9937829" lon="33.4620168">
<ele>257.72</ele>
<time>2015-05-01T14:33:29Z</time>
</trkpt>
<trkpt lat="34.9937977" lon="33.4620955">
<ele>258.48</ele>
<time>2015-05-01T14:33:32Z</time>
</trkpt>
<trkpt lat="34.9938073" lon="33.4621721">
<ele>258.95</ele>
<time>2015-05-01T14:33:35Z</time>
</trkpt>
<trkpt lat="34.9938150" lon="33.4622264">
<ele>259.00</ele>
<time>2015-05-01T14:33:37Z</time>
</trkpt>
<trkpt lat="34.9938354" lon="33.4623022">
<ele>259.89</ele>
<time>2015-05-01T14:33:40Z</time>
</trkpt>
<trkpt lat="34.9938525" lon="33.4623794">
<ele>260.88</ele>
<time>2015-05-01T14:33:43Z</time>
</trkpt>
<trkpt lat="34.9938616" lon="33.4624339">
<ele>260.98</ele>
<time>2015-05-01T14:33:45Z</time>
</trkpt>
<trkpt lat="34.9938817" lon="33.4625144">
<ele>261.39</ele>
<time>2015-05-01T14:33:48Z</time>
</trkpt>
<trkpt lat="34.9938944" lon="33.4625690">
<ele>261.11</ele>
<time>2015-05-01T14:33:50Z</time>
</trkpt>
<trkpt lat="34.9939025" lon="33.4626259">
<ele>261.04</ele>
<time>2015-05-01T14:33:52Z</time>
</trkpt>
<trkpt lat="34.9939124" lon="33.4626849">
<ele>261.02</ele>
<time>2015-05-01T14:33:54Z</time>
</trkpt>
<trkpt lat="34.9939252" lon="33.4627431">
<ele>261.77</ele>
<time>2015-05-01T14:33:56Z</time>
</trkpt>
<trkpt lat="34.9939396" lon="33.4627974">
<ele>263.20</ele>
<time>2015-05-01T14:33:58Z</time>
</trkpt>
<trkpt lat="34.9939528" lon="33.4628513">
<ele>263.81</ele>
<time>2015-05-01T14:34:00Z</time>
</trkpt>
<trkpt lat="34.9939625" lon="33.4629086">
<ele>263.97</ele>
<time>2015-05-01T14:34:02Z</time>
</trkpt>
<trkpt lat="34.9939750" lon="33.4629679">
<ele>264.00</ele>
<time>2015-05-01T14:34:04Z</time>
</trkpt>
<trkpt lat="34.9939901" lon="33.4630296">
<ele>264.01</ele>
<time>2015-05-01T14:34:06Z</time>
</trkpt>
<trkpt lat="34.9940070" lon="33.4630895">
<ele>264.77</ele>
<time>2015-05-01T14:34:08Z</time>
</trkpt>
<trkpt lat="34.9940201" lon="33.4631536">
<ele>264.20</ele>
<time>2015-05-01T14:34:10Z</time>
</trkpt>
<trkpt lat="34.9940327" lon="33.4632187">
<ele>264.31</ele>
<time>2015-05-01T14:34:12Z</time>
</trkpt>
<trkpt lat="34.9940504" lon="33.4632834">
<ele>264.09</ele>
<time>2015-05-01T14:34:14Z</time>
</trkpt>
<trkpt lat="34.9940672" lon="33.4633477">
<ele>264.03</ele>
<time>2015-05-01T14:34:16Z</time>
</trkpt>
<trkpt lat="34.9940861" lon="33.4634142">
<ele>263.27</ele>
<time>2015-05-01T14:34:18Z</time>
</trkpt>
<trkpt lat="34.9941023" lon="33.4634780">
<ele>262.58</ele>
<time>2015-05-01T14:34:20Z</time>
</trkpt>
<trkpt lat="34.9941166" lon="33.4635422">
<ele>262.91</ele>
<time>2015-05-01T14:34:22Z</time>
</trkpt>
<trkpt lat="34.9941310" lon="33.4636082">
<ele>262.99</ele>
<time>2015-05-01T14:34:24Z</time>
</trkpt>
<trkpt lat="34.9941452" lon="33.4636747">
<ele>263.01</ele>
<time>2015-05-01T14:34:26Z</time>
</trkpt>
<trkpt lat="34.9941678" lon="33.4637371">
<ele>263.26</ele>
<time>2015-05-01T14:34:28Z</time>
</trkpt>
<trkpt lat="34.9942002" lon="33.4637913">
<ele>263.58</ele>
<time>2015-05-01T14:34:30Z</time>
</trkpt>
<trkpt lat="34.9942220" lon="33.4638492">
<ele>263.91</ele>
<time>2015-05-01T14:34:32Z</time>
</trkpt>
<trkpt lat="34.9942291" lon="33.4639085">
<ele>264.49</ele>
<time>2015-05-01T14:34:34Z</time>
</trkpt>
<trkpt lat="34.9942426" lon="33.4639688">
<ele>264.88</ele>
<time>2015-05-01T14:34:36Z</time>
</trkpt>
<trkpt lat="34.9942627" lon="33.4640316">
<ele>264.73</ele>
<time>2015-05-01T14:34:38Z</time>
</trkpt>
<trkpt lat="34.9942793" lon="33.4640998">
<ele>265.45</ele>
<time>2015-05-01T14:34:40Z</time>
</trkpt>
<trkpt lat="34.9942924" lon="33.4641691">
<ele>266.37</ele>
<time>2015-05-01T14:34:42Z</time>
</trkpt>
<trkpt lat="34.9943120" lon="33.4642400">
<ele>266.61</ele>
<time>2015-05-01T14:34:44Z</time>
</trkpt>
<trkpt lat="34.9943302" lon="33.4643126">
<ele>267.41</ele>
<time>2015-05-01T14:34:46Z</time>
</trkpt>
<trkpt lat="34.9943414" lon="33.4643846">
<ele>268.37</ele>
<time>2015-05-01T14:34:48Z</time>
</trkpt>
<trkpt lat="34.9943519" lon="33.4644499">
<ele>268.10</ele>
<time>2015-05-01T14:34:50Z</time>
</trkpt>
<trkpt lat="34.9943691" lon="33.4645084">
<ele>267.29</ele>
<time>2015-05-01T14:34:52Z</time>
</trkpt>
<trkpt lat="34.9943838" lon="33.4645620">
<ele>267.08</ele>
<time>2015-05-01T14:34:54Z</time>
</trkpt>
<trkpt lat="34.9943966" lon="33.4646216">
<ele>267.03</ele>
<time>2015-05-01T14:34:56Z</time>
</trkpt>
<trkpt lat="34.9944109" lon="33.4646926">
<ele>267.77</ele>
<time>2015-05-01T14:34:58Z</time>
</trkpt>
<trkpt lat="34.9944378" lon="33.4647863">
<ele>266.70</ele>
<time>2015-05-01T14:35:00Z</time>
</trkpt>
<trkpt lat="34.9944680" lon="33.4648841">
<ele>266.19</ele>
<time>2015-05-01T14:35:02Z</time>
</trkpt>
<trkpt lat="34.9944959" lon="33.4649732">
<ele>265.81</ele>
<time>2015-05-01T14:35:04Z</time>
</trkpt>
<trkpt lat="34.9945194" lon="33.4650379">
<ele>265.96</ele>
<time>2015-05-01T14:35:06Z</time>
</trkpt>
<trkpt lat="34.9945274" lon="33.4651179">
<ele>266.88</ele>
<time>2015-05-01T14:35:09Z</time>
</trkpt>
<trkpt lat="34.9945251" lon="33.4651745">
<ele>266.98</ele>
<time>2015-05-01T14:35:11Z</time>
</trkpt>
<trkpt lat="34.9945392" lon="33.4652450">
<ele>266.51</ele>
<time>2015-05-01T14:35:13Z</time>
</trkpt>
<trkpt lat="34.9945618" lon="33.4653347">
<ele>266.89</ele>
<time>2015-05-01T14:35:15Z</time>
</trkpt>
<trkpt lat="34.9945857" lon="33.4654325">
<ele>266.23</ele>
<time>2015-05-01T14:35:17Z</time>
</trkpt>
<trkpt lat="34.9946059" lon="33.4655323">
<ele>266.57</ele>
<time>2015-05-01T14:35:19Z</time>
</trkpt>
<trkpt lat="34.9946259" lon="33.4656378">
<ele>266.90</ele>
<time>2015-05-01T14:35:21Z</time>
</trkpt>
<trkpt lat="34.9946444" lon="33.4657615">
<ele>266.99</ele>
<time>2015-05-01T14:35:23Z</time>
</trkpt>
<trkpt lat="34.9946615" lon="33.4658192">
<ele>267.00</ele>
<time>2015-05-01T14:35:24Z</time>
</trkpt>
<trkpt lat="34.9946744" lon="33.4658766">
<ele>267.01</ele>
<time>2015-05-01T14:35:25Z</time>
</trkpt>
<trkpt lat="34.9946894" lon="33.4659358">
<ele>267.01</ele>
<time>2015-05-01T14:35:26Z</time>
</trkpt>
<trkpt lat="34.9947005" lon="33.4659985">
<ele>267.01</ele>
<time>2015-05-01T14:35:27Z</time>
</trkpt>
<trkpt lat="34.9947161" lon="33.4661055">
<ele>267.02</ele>
<time>2015-05-01T14:35:29Z</time>
</trkpt>
<trkpt lat="34.9947354" lon="33.4661991">
<ele>267.52</ele>
<time>2015-05-01T14:35:31Z</time>
</trkpt>
<trkpt lat="34.9947498" lon="33.4662952">
<ele>268.39</ele>
<time>2015-05-01T14:35:33Z</time>
</trkpt>
<trkpt lat="34.9947752" lon="33.4663989">
<ele>268.11</ele>
<time>2015-05-01T14:35:35Z</time>
</trkpt>
<trkpt lat="34.9947893" lon="33.4664956">
<ele>268.04</ele>
<time>2015-05-01T14:35:37Z</time>
</trkpt>
<trkpt lat="34.9948076" lon="33.4665989">
<ele>268.02</ele>
<time>2015-05-01T14:35:39Z</time>
</trkpt>
<trkpt lat="34.9948188" lon="33.4666528">
<ele>268.02</ele>
<time>2015-05-01T14:35:40Z</time>
</trkpt>
<trkpt lat="34.9948292" lon="33.4667122">
<ele>268.52</ele>
<time>2015-05-01T14:35:41Z</time>
</trkpt>
<trkpt lat="34.9948394" lon="33.4667728">
<ele>268.77</ele>
<time>2015-05-01T14:35:42Z</time>
</trkpt>
<trkpt lat="34.9948511" lon="33.4668299">
<ele>268.89</ele>
<time>2015-05-01T14:35:43Z</time>
</trkpt>
<trkpt lat="34.9948618" lon="33.4668920">
<ele>268.95</ele>
<time>2015-05-01T14:35:44Z</time>
</trkpt>
<trkpt lat="34.9948771" lon="33.4670009">
<ele>267.75</ele>
<time>2015-05-01T14:35:46Z</time>
</trkpt>
<trkpt lat="34.9948920" lon="33.4671129">
<ele>267.20</ele>
<time>2015-05-01T14:35:48Z</time>
</trkpt>
<trkpt lat="34.9948994" lon="33.4671701">
<ele>267.11</ele>
<time>2015-05-01T14:35:49Z</time>
</trkpt>
<trkpt lat="34.9949098" lon="33.4672322">
<ele>267.56</ele>
<time>2015-05-01T14:35:50Z</time>
</trkpt>
<trkpt lat="34.9949237" lon="33.4672865">
<ele>267.29</ele>
<time>2015-05-01T14:35:51Z</time>
</trkpt>
<trkpt lat="34.9949308" lon="33.4673548">
<ele>266.65</ele>
<time>2015-05-01T14:35:52Z</time>
</trkpt>
<trkpt lat="34.9949345" lon="33.4674250">
<ele>266.33</ele>
<time>2015-05-01T14:35:53Z</time>
</trkpt>
<trkpt lat="34.9949387" lon="33.4674927">
<ele>266.18</ele>
<time>2015-05-01T14:35:54Z</time>
</trkpt>
<trkpt lat="34.9949483" lon="33.4675518">
<ele>266.10</ele>
<time>2015-05-01T14:35:55Z</time>
</trkpt>
<trkpt lat="34.9949526" lon="33.4676181">
<ele>266.56</ele>
<time>2015-05-01T14:35:56Z</time>
</trkpt>
<trkpt lat="34.9949544" lon="33.4676796">
<ele>266.29</ele>
<time>2015-05-01T14:35:57Z</time>
</trkpt>
<trkpt lat="34.9949604" lon="33.4677369">
<ele>266.65</ele>
<time>2015-05-01T14:35:58Z</time>
</trkpt>
<trkpt lat="34.9949574" lon="33.4678035">
<ele>266.33</ele>
<time>2015-05-01T14:35:59Z</time>
</trkpt>
<trkpt lat="34.9949588" lon="33.4678774">
<ele>266.17</ele>
<time>2015-05-01T14:36:00Z</time>
</trkpt>
<trkpt lat="34.9949570" lon="33.4679421">
<ele>266.10</ele>
<time>2015-05-01T14:36:01Z</time>
</trkpt>
<trkpt lat="34.9949486" lon="33.4680081">
<ele>266.06</ele>
<time>2015-05-01T14:36:02Z</time>
</trkpt>
<trkpt lat="34.9949438" lon="33.4680661">
<ele>266.04</ele>
<time>2015-05-01T14:36:03Z</time>
</trkpt>
<trkpt lat="34.9949432" lon="33.4681347">
<ele>266.03</ele>
<time>2015-05-01T14:36:04Z</time>
</trkpt>
<trkpt lat="34.9949387" lon="33.4681966">
<ele>266.52</ele>
<time>2015-05-01T14:36:05Z</time>
</trkpt>
<trkpt lat="34.9949358" lon="33.4682517">
<ele>266.27</ele>
<time>2015-05-01T14:36:06Z</time>
</trkpt>
<trkpt lat="34.9949330" lon="33.4683128">
<ele>266.64</ele>
<time>2015-05-01T14:36:07Z</time>
</trkpt>
<trkpt lat="34.9949295" lon="33.4683804">
<ele>266.83</ele>
<time>2015-05-01T14:36:08Z</time>
</trkpt>
<trkpt lat="34.9949232" lon="33.4684456">
<ele>266.92</ele>
<time>2015-05-01T14:36:09Z</time>
</trkpt>
<trkpt lat="34.9949130" lon="33.4685593">
<ele>266.49</ele>
<time>2015-05-01T14:36:11Z</time>
</trkpt>
<trkpt lat="34.9949129" lon="33.4686180">
<ele>266.25</ele>
<time>2015-05-01T14:36:12Z</time>
</trkpt>
<trkpt lat="34.9949055" lon="33.4686732">
<ele>266.14</ele>
<time>2015-05-01T14:36:13Z</time>
</trkpt>
<trkpt lat="34.9948975" lon="33.4687341">
<ele>266.08</ele>
<time>2015-05-01T14:36:14Z</time>
</trkpt>
<trkpt lat="34.9948786" lon="33.4688431">
<ele>265.28</ele>
<time>2015-05-01T14:36:16Z</time>
</trkpt>
<trkpt lat="34.9948758" lon="33.4688990">
<ele>265.65</ele>
<time>2015-05-01T14:36:17Z</time>
</trkpt>
<trkpt lat="34.9948673" lon="33.4689639">
<ele>265.83</ele>
<time>2015-05-01T14:36:18Z</time>
</trkpt>
<trkpt lat="34.9948636" lon="33.4690221">
<ele>265.92</ele>
<time>2015-05-01T14:36:19Z</time>
</trkpt>
<trkpt lat="34.9948566" lon="33.4690875">
<ele>266.47</ele>
<time>2015-05-01T14:36:20Z</time>
</trkpt>
<trkpt lat="34.9948473" lon="33.4691563">
<ele>266.74</ele>
<time>2015-05-01T14:36:21Z</time>
</trkpt>
<trkpt lat="34.9948370" lon="33.4692286">
<ele>266.88</ele>
<time>2015-05-01T14:36:22Z</time>
</trkpt>
<trkpt lat="34.9948239" lon="33.4692943">
<ele>266.95</ele>
<time>2015-05-01T14:36:23Z</time>
</trkpt>
<trkpt lat="34.9948164" lon="33.4693614">
<ele>266.98</ele>
<time>2015-05-01T14:36:24Z</time>
</trkpt>
<trkpt lat="34.9948039" lon="33.4694303">
<ele>267.00</ele>
<time>2015-05-01T14:36:25Z</time>
</trkpt>
<trkpt lat="34.9947926" lon="33.4694996">
<ele>267.01</ele>
<time>2015-05-01T14:36:26Z</time>
</trkpt>
<trkpt lat="34.9947821" lon="33.4695646">
<ele>267.01</ele>
<time>2015-05-01T14:36:27Z</time>
</trkpt>
<trkpt lat="34.9947754" lon="33.4696340">
<ele>267.01</ele>
<time>2015-05-01T14:36:28Z</time>
</trkpt>
<trkpt lat="34.9947685" lon="33.4696935">
<ele>266.51</ele>
<time>2015-05-01T14:36:29Z</time>
</trkpt>
<trkpt lat="34.9947584" lon="33.4697545">
<ele>266.27</ele>
<time>2015-05-01T14:36:30Z</time>
</trkpt>
<trkpt lat="34.9947545" lon="33.4698673">
<ele>265.58</ele>
<time>2015-05-01T14:36:32Z</time>
</trkpt>
<trkpt lat="34.9947426" lon="33.4699218">
<ele>265.30</ele>
<time>2015-05-01T14:36:33Z</time>
</trkpt>
<trkpt lat="34.9947202" lon="33.4699761">
<ele>265.16</ele>
<time>2015-05-01T14:36:34Z</time>
</trkpt>
<trkpt lat="34.9947015" lon="33.4700413">
<ele>265.09</ele>
<time>2015-05-01T14:36:35Z</time>
</trkpt>
<trkpt lat="34.9946885" lon="33.4701060">
<ele>265.05</ele>
<time>2015-05-01T14:36:36Z</time>
</trkpt>
<trkpt lat="34.9946759" lon="33.4701786">
<ele>265.53</ele>
<time>2015-05-01T14:36:37Z</time>
</trkpt>
<trkpt lat="34.9946638" lon="33.4702403">
<ele>261.77</ele>
<time>2015-05-01T14:36:38Z</time>
</trkpt>
<trkpt lat="34.9946536" lon="33.4702966">
<ele>260.40</ele>
<time>2015-05-01T14:36:39Z</time>
</trkpt>
<trkpt lat="34.9946377" lon="33.4703581">
<ele>259.21</ele>
<time>2015-05-01T14:36:40Z</time>
</trkpt>
<trkpt lat="34.9946301" lon="33.4704136">
<ele>258.11</ele>
<time>2015-05-01T14:36:41Z</time>
</trkpt>
<trkpt lat="34.9946239" lon="33.4704725">
<ele>258.06</ele>
<time>2015-05-01T14:36:42Z</time>
</trkpt>
<trkpt lat="34.9946161" lon="33.4705405">
<ele>257.54</ele>
<time>2015-05-01T14:36:43Z</time>
</trkpt>
<trkpt lat="34.9946018" lon="33.4706030">
<ele>257.78</ele>
<time>2015-05-01T14:36:44Z</time>
</trkpt>
<trkpt lat="34.9945859" lon="33.4706580">
<ele>258.40</ele>
<time>2015-05-01T14:36:45Z</time>
</trkpt>
<trkpt lat="34.9945636" lon="33.4707660">
<ele>259.11</ele>
<time>2015-05-01T14:36:47Z</time>
</trkpt>
<trkpt lat="34.9945508" lon="33.4708281">
<ele>259.06</ele>
<time>2015-05-01T14:36:48Z</time>
</trkpt>
<trkpt lat="34.9945186" lon="33.4709254">
<ele>258.28</ele>
<time>2015-05-01T14:36:50Z</time>
</trkpt>
<trkpt lat="34.9944979" lon="33.4710280">
<ele>258.08</ele>
<time>2015-05-01T14:36:52Z</time>
</trkpt>
<trkpt lat="34.9944841" lon="33.4710812">
<ele>258.05</ele>
<time>2015-05-01T14:36:53Z</time>
</trkpt>
<trkpt lat="34.9944648" lon="33.4711323">
<ele>258.03</ele>
<time>2015-05-01T14:36:54Z</time>
</trkpt>
<trkpt lat="34.9944488" lon="33.4711888">
<ele>258.52</ele>
<time>2015-05-01T14:36:55Z</time>
</trkpt>
<trkpt lat="34.9944295" lon="33.4712554">
<ele>258.27</ele>
<time>2015-05-01T14:36:56Z</time>
</trkpt>
<trkpt lat="34.9944196" lon="33.4713727">
<ele>256.58</ele>
<time>2015-05-01T14:36:58Z</time>
</trkpt>
<trkpt lat="34.9944088" lon="33.4714338">
<ele>256.30</ele>
<time>2015-05-01T14:36:59Z</time>
</trkpt>
<trkpt lat="34.9943964" lon="33.4715072">
<ele>256.66</ele>
<time>2015-05-01T14:37:00Z</time>
</trkpt>
<trkpt lat="34.9943834" lon="33.4715884">
<ele>256.84</ele>
<time>2015-05-01T14:37:01Z</time>
</trkpt>
<trkpt lat="34.9943758" lon="33.4716670">
<ele>256.43</ele>
<time>2015-05-01T14:37:02Z</time>
</trkpt>
<trkpt lat="34.9943673" lon="33.4717391">
<ele>256.72</ele>
<time>2015-05-01T14:37:03Z</time>
</trkpt>
<trkpt lat="34.9943566" lon="33.4718221">
<ele>256.87</ele>
<time>2015-05-01T14:37:04Z</time>
</trkpt>
<trkpt lat="34.9943458" lon="33.4719072">
<ele>256.94</ele>
<time>2015-05-01T14:37:05Z</time>
</trkpt>
<trkpt lat="34.9943456" lon="33.4719782">
<ele>256.98</ele>
<time>2015-05-01T14:37:06Z</time>
</trkpt>
<trkpt lat="34.9943418" lon="33.4720604">
<ele>257.50</ele>
<time>2015-05-01T14:37:07Z</time>
</trkpt>
<trkpt lat="34.9943401" lon="33.4721484">
<ele>257.76</ele>
<time>2015-05-01T14:37:08Z</time>
</trkpt>
<trkpt lat="34.9943322" lon="33.4722266">
<ele>257.39</ele>
<time>2015-05-01T14:37:09Z</time>
</trkpt>
<trkpt lat="34.9943281" lon="33.4723143">
<ele>256.70</ele>
<time>2015-05-01T14:37:10Z</time>
</trkpt>
<trkpt lat="34.9943174" lon="33.4723930">
<ele>257.36</ele>
<time>2015-05-01T14:37:11Z</time>
</trkpt>
<trkpt lat="34.9943076" lon="33.4724858">
<ele>256.69</ele>
<time>2015-05-01T14:37:12Z</time>
</trkpt>
<trkpt lat="34.9943021" lon="33.4725680">
<ele>256.85</ele>
<time>2015-05-01T14:37:13Z</time>
</trkpt>
<trkpt lat="34.9942966" lon="33.4726525">
<ele>256.43</ele>
<time>2015-05-01T14:37:14Z</time>
</trkpt>
<trkpt lat="34.9942916" lon="33.4727421">
<ele>256.22</ele>
<time>2015-05-01T14:37:15Z</time>
</trkpt>
<trkpt lat="34.9942886" lon="33.4728331">
<ele>256.12</ele>
<time>2015-05-01T14:37:16Z</time>
</trkpt>
<trkpt lat="34.9942892" lon="33.4729117">
<ele>256.07</ele>
<time>2015-05-01T14:37:17Z</time>
</trkpt>
<trkpt lat="34.9942900" lon="33.4729927">
<ele>256.04</ele>
<time>2015-05-01T14:37:18Z</time>
</trkpt>
<trkpt lat="34.9942864" lon="33.4730790">
<ele>256.53</ele>
<time>2015-05-01T14:37:19Z</time>
</trkpt>
<trkpt lat="34.9942896" lon="33.4731697">
<ele>256.27</ele>
<time>2015-05-01T14:37:20Z</time>
</trkpt>
<trkpt lat="34.9942972" lon="33.4732528">
<ele>256.64</ele>
<time>2015-05-01T14:37:21Z</time>
</trkpt>
<trkpt lat="34.9943104" lon="33.4733254">
<ele>256.33</ele>
<time>2015-05-01T14:37:22Z</time>
</trkpt>
<trkpt lat="34.9943213" lon="33.4734052">
<ele>256.67</ele>
<time>2015-05-01T14:37:23Z</time>
</trkpt>
<trkpt lat="34.9943302" lon="33.4734915">
<ele>256.84</ele>
<time>2015-05-01T14:37:24Z</time>
</trkpt>
<trkpt lat="34.9943350" lon="33.4735723">
<ele>257.43</ele>
<time>2015-05-01T14:37:25Z</time>
</trkpt>
<trkpt lat="34.9943456" lon="33.4736522">
<ele>257.72</ele>
<time>2015-05-01T14:37:26Z</time>
</trkpt>
<trkpt lat="34.9943541" lon="33.4737291">
<ele>257.87</ele>
<time>2015-05-01T14:37:27Z</time>
</trkpt>
<trkpt lat="34.9943617" lon="33.4738145">
<ele>258.44</ele>
<time>2015-05-01T14:37:28Z</time>
</trkpt>
<trkpt lat="34.9943669" lon="33.4738949">
<ele>258.73</ele>
<time>2015-05-01T14:37:29Z</time>
</trkpt>
<trkpt lat="34.9943735" lon="33.4739757">
<ele>258.87</ele>
<time>2015-05-01T14:37:30Z</time>
</trkpt>
<trkpt lat="34.9943786" lon="33.4740584">
<ele>258.94</ele>
<time>2015-05-01T14:37:31Z</time>
</trkpt>
<trkpt lat="34.9943851" lon="33.4741382">
<ele>258.48</ele>
<time>2015-05-01T14:37:32Z</time>
</trkpt>
<trkpt lat="34.9943851" lon="33.4742127">
<ele>258.25</ele>
<time>2015-05-01T14:37:33Z</time>
</trkpt>
<trkpt lat="34.9943759" lon="33.4742912">
<ele>258.63</ele>
<time>2015-05-01T14:37:34Z</time>
</trkpt>
<trkpt lat="34.9943646" lon="33.4743780">
<ele>258.82</ele>
<time>2015-05-01T14:37:35Z</time>
</trkpt>
<trkpt lat="34.9943566" lon="33.4744613">
<ele>258.42</ele>
<time>2015-05-01T14:37:36Z</time>
</trkpt>
<trkpt lat="34.9943414" lon="33.4745452">
<ele>258.22</ele>
<time>2015-05-01T14:37:37Z</time>
</trkpt>
<trkpt lat="34.9943223" lon="33.4746296">
<ele>257.62</ele>
<time>2015-05-01T14:37:38Z</time>
</trkpt>
<trkpt lat="34.9943018" lon="33.4747024">
<ele>257.32</ele>
<time>2015-05-01T14:37:39Z</time>
</trkpt>
<trkpt lat="34.9942802" lon="33.4747928">
<ele>257.17</ele>
<time>2015-05-01T14:37:40Z</time>
</trkpt>
<trkpt lat="34.9942615" lon="33.4748802">
<ele>257.09</ele>
<time>2015-05-01T14:37:41Z</time>
</trkpt>
<trkpt lat="34.9942492" lon="33.4749682">
<ele>257.05</ele>
<time>2015-05-01T14:37:42Z</time>
</trkpt>
<trkpt lat="34.9942338" lon="33.4750586">
<ele>256.53</ele>
<time>2015-05-01T14:37:43Z</time>
</trkpt>
<trkpt lat="34.9942243" lon="33.4751568">
<ele>256.28</ele>
<time>2015-05-01T14:37:44Z</time>
</trkpt>
<trkpt lat="34.9942217" lon="33.4752586">
<ele>256.15</ele>
<time>2015-05-01T14:37:45Z</time>
</trkpt>
<trkpt lat="34.9942285" lon="33.4753626">
<ele>256.58</ele>
<time>2015-05-01T14:37:46Z</time>
</trkpt>
<trkpt lat="34.9942415" lon="33.4754641">
<ele>256.30</ele>
<time>2015-05-01T14:37:47Z</time>
</trkpt>
<trkpt lat="34.9942397" lon="33.4755666">
<ele>256.66</ele>
<time>2015-05-01T14:37:48Z</time>
</trkpt>
<trkpt lat="34.9942487" lon="33.4756770">
<ele>256.84</ele>
<time>2015-05-01T14:37:49Z</time>
</trkpt>
<trkpt lat="34.9942539" lon="33.4757947">
<ele>256.93</ele>
<time>2015-05-01T14:37:50Z</time>
</trkpt>
<trkpt lat="34.9942688" lon="33.4759110">
<ele>256.47</ele>
<time>2015-05-01T14:37:51Z</time>
</trkpt>
<trkpt lat="34.9942831" lon="33.4760289">
<ele>256.24</ele>
<time>2015-05-01T14:37:52Z</time>
</trkpt>
<trkpt lat="34.9942901" lon="33.4761465">
<ele>256.13</ele>
<time>2015-05-01T14:37:53Z</time>
</trkpt>
<trkpt lat="34.9943014" lon="33.4762653">
<ele>256.07</ele>
<time>2015-05-01T14:37:54Z</time>
</trkpt>
<trkpt lat="34.9943082" lon="33.4763814">
<ele>255.54</ele>
<time>2015-05-01T14:37:55Z</time>
</trkpt>
<trkpt lat="34.9943176" lon="33.4764972">
<ele>255.28</ele>
<time>2015-05-01T14:37:56Z</time>
</trkpt>
<trkpt lat="34.9943230" lon="33.4766071">
<ele>255.15</ele>
<time>2015-05-01T14:37:57Z</time>
</trkpt>
<trkpt lat="34.9943318" lon="33.4767153">
<ele>255.08</ele>
<time>2015-05-01T14:37:58Z</time>
</trkpt>
<trkpt lat="34.9943259" lon="33.4768280">
<ele>255.05</ele>
<time>2015-05-01T14:37:59Z</time>
</trkpt>
<trkpt lat="34.9943272" lon="33.4769360">
<ele>255.03</ele>
<time>2015-05-01T14:38:00Z</time>
</trkpt>
<trkpt lat="34.9943260" lon="33.4770493">
<ele>255.52</ele>
<time>2015-05-01T14:38:01Z</time>
</trkpt>
<trkpt lat="34.9943306" lon="33.4771586">
<ele>255.77</ele>
<time>2015-05-01T14:38:02Z</time>
</trkpt>
<trkpt lat="34.9943315" lon="33.4772622">
<ele>255.39</ele>
<time>2015-05-01T14:38:03Z</time>
</trkpt>
<trkpt lat="34.9943300" lon="33.4773688">
<ele>255.20</ele>
<time>2015-05-01T14:38:04Z</time>
</trkpt>
<trkpt lat="34.9943301" lon="33.4774717">
<ele>255.11</ele>
<time>2015-05-01T14:38:05Z</time>
</trkpt>
<trkpt lat="34.9943322" lon="33.4775723">
<ele>255.06</ele>
<time>2015-05-01T14:38:06Z</time>
</trkpt>
<trkpt lat="34.9943338" lon="33.4776625">
<ele>254.54</ele>
<time>2015-05-01T14:38:07Z</time>
</trkpt>
<trkpt lat="34.9943362" lon="33.4777687">
<ele>254.28</ele>
<time>2015-05-01T14:38:08Z</time>
</trkpt>
<trkpt lat="34.9943395" lon="33.4778670">
<ele>254.15</ele>
<time>2015-05-01T14:38:09Z</time>
</trkpt>
<trkpt lat="34.9943456" lon="33.4779645">
<ele>253.58</ele>
<time>2015-05-01T14:38:10Z</time>
</trkpt>
<trkpt lat="34.9943505" lon="33.4780682">
<ele>253.30</ele>
<time>2015-05-01T14:38:11Z</time>
</trkpt>
<trkpt lat="34.9943660" lon="33.4781639">
<ele>252.66</ele>
<time>2015-05-01T14:38:12Z</time>
</trkpt>
<trkpt lat="34.9943759" lon="33.4782569">
<ele>252.34</ele>
<time>2015-05-01T14:38:13Z</time>
</trkpt>
<trkpt lat="34.9943911" lon="33.4783534">
<ele>252.18</ele>
<time>2015-05-01T14:38:14Z</time>
</trkpt>
<trkpt lat="34.9944065" lon="33.4784461">
<ele>252.10</ele>
<time>2015-05-01T14:38:15Z</time>
</trkpt>
<trkpt lat="34.9944187" lon="33.4785380">
<ele>252.06</ele>
<time>2015-05-01T14:38:16Z</time>
</trkpt>
<trkpt lat="34.9944317" lon="33.4786298">
<ele>251.54</ele>
<time>2015-05-01T14:38:17Z</time>
</trkpt>
<trkpt lat="34.9944536" lon="33.4787252">
<ele>251.28</ele>
<time>2015-05-01T14:38:18Z</time>
</trkpt>
<trkpt lat="34.9944596" lon="33.4788122">
<ele>251.15</ele>
<time>2015-05-01T14:38:19Z</time>
</trkpt>
<trkpt lat="34.9944672" lon="33.4789180">
<ele>251.08</ele>
<time>2015-05-01T14:38:20Z</time>
</trkpt>
<trkpt lat="34.9944797" lon="33.4790095">
<ele>251.05</ele>
<time>2015-05-01T14:38:21Z</time>
</trkpt>
<trkpt lat="34.9944866" lon="33.4791021">
<ele>251.03</ele>
<time>2015-05-01T14:38:22Z</time>
</trkpt>
<trkpt lat="34.9944988" lon="33.4791840">
<ele>251.02</ele>
<time>2015-05-01T14:38:23Z</time>
</trkpt>
<trkpt lat="34.9945060" lon="33.4792850">
<ele>251.02</ele>
<time>2015-05-01T14:38:24Z</time>
</trkpt>
<trkpt lat="34.9945122" lon="33.4793788">
<ele>251.52</ele>
<time>2015-05-01T14:38:25Z</time>
</trkpt>
<trkpt lat="34.9945126" lon="33.4794653">
<ele>251.77</ele>
<time>2015-05-01T14:38:26Z</time>
</trkpt>
<trkpt lat="34.9945110" lon="33.4795542">
<ele>251.89</ele>
<time>2015-05-01T14:38:27Z</time>
</trkpt>
<trkpt lat="34.9945152" lon="33.4796481">
<ele>251.45</ele>
<time>2015-05-01T14:38:28Z</time>
</trkpt>
<trkpt lat="34.9945196" lon="33.4797249">
<ele>251.23</ele>
<time>2015-05-01T14:38:29Z</time>
</trkpt>
<trkpt lat="34.9945170" lon="33.4798100">
<ele>251.13</ele>
<time>2015-05-01T14:38:30Z</time>
</trkpt>
<trkpt lat="34.9945130" lon="33.4798953">
<ele>251.57</ele>
<time>2015-05-01T14:38:31Z</time>
</trkpt>
<trkpt lat="34.9945013" lon="33.4799696">
<ele>251.79</ele>
<time>2015-05-01T14:38:32Z</time>
</trkpt>
<trkpt lat="34.9944970" lon="33.4800593">
<ele>251.40</ele>
<time>2015-05-01T14:38:33Z</time>
</trkpt>
<trkpt lat="34.9945024" lon="33.4801357">
<ele>250.71</ele>
<time>2015-05-01T14:38:34Z</time>
</trkpt>
<trkpt lat="34.9944985" lon="33.4802234">
<ele>250.36</ele>
<time>2015-05-01T14:38:35Z</time>
</trkpt>
<trkpt lat="34.9944875" lon="33.4803123">
<ele>250.19</ele>
<time>2015-05-01T14:38:36Z</time>
</trkpt>
<trkpt lat="34.9944839" lon="33.4803973">
<ele>250.10</ele>
<time>2015-05-01T14:38:37Z</time>
</trkpt>
<trkpt lat="34.9944786" lon="33.4804900">
<ele>250.06</ele>
<time>2015-05-01T14:38:38Z</time>
</trkpt>
<trkpt lat="34.9944740" lon="33.4805757">
<ele>250.04</ele>
<time>2015-05-01T14:38:39Z</time>
</trkpt>
<trkpt lat="34.9944651" lon="33.4806686">
<ele>250.03</ele>
<time>2015-05-01T14:38:40Z</time>
</trkpt>
<trkpt lat="34.9944630" lon="33.4807462">
<ele>250.02</ele>
<time>2015-05-01T14:38:41Z</time>
</trkpt>
<trkpt lat="34.9944532" lon="33.4808279">
<ele>250.02</ele>
<time>2015-05-01T14:38:42Z</time>
</trkpt>
<trkpt lat="34.9944472" lon="33.4809091">
<ele>250.52</ele>
<time>2015-05-01T14:38:43Z</time>
</trkpt>
<trkpt lat="34.9944427" lon="33.4809922">
<ele>250.77</ele>
<time>2015-05-01T14:38:44Z</time>
</trkpt>
<trkpt lat="34.9944344" lon="33.4810656">
<ele>250.89</ele>
<time>2015-05-01T14:38:45Z</time>
</trkpt>
<trkpt lat="34.9944287" lon="33.4811425">
<ele>250.95</ele>
<time>2015-05-01T14:38:46Z</time>
</trkpt>
<trkpt lat="34.9944254" lon="33.4812197">
<ele>250.98</ele>
<time>2015-05-01T14:38:47Z</time>
</trkpt>
<trkpt lat="34.9944291" lon="33.4812998">
<ele>251.00</ele>
<time>2015-05-01T14:38:48Z</time>
</trkpt>
<trkpt lat="34.9944242" lon="33.4813737">
<ele>250.51</ele>
<time>2015-05-01T14:38:49Z</time>
</trkpt>
<trkpt lat="34.9944198" lon="33.4814532">
<ele>250.26</ele>
<time>2015-05-01T14:38:50Z</time>
</trkpt>
<trkpt lat="34.9944222" lon="33.4815340">
<ele>250.14</ele>
<time>2015-05-01T14:38:51Z</time>
</trkpt>
<trkpt lat="34.9944207" lon="33.4816244">
<ele>250.08</ele>
<time>2015-05-01T14:38:52Z</time>
</trkpt>
<trkpt lat="34.9944206" lon="33.4816965">
<ele>250.05</ele>
<time>2015-05-01T14:38:53Z</time>
</trkpt>
<trkpt lat="34.9944177" lon="33.4817769">
<ele>250.03</ele>
<time>2015-05-01T14:38:54Z</time>
</trkpt>
<trkpt lat="34.9944237" lon="33.4818510">
<ele>250.02</ele>
<time>2015-05-01T14:38:55Z</time>
</trkpt>
<trkpt lat="34.9944194" lon="33.4819304">
<ele>250.02</ele>
<time>2015-05-01T14:38:56Z</time>
</trkpt>
<trkpt lat="34.9944195" lon="33.4820060">
<ele>250.02</ele>
<time>2015-05-01T14:38:57Z</time>
</trkpt>
<trkpt lat="34.9944198" lon="33.4820822">
<ele>250.02</ele>
<time>2015-05-01T14:38:58Z</time>
</trkpt>
<trkpt lat="34.9944291" lon="33.4821581">
<ele>250.02</ele>
<time>2015-05-01T14:38:59Z</time>
</trkpt>
<trkpt lat="34.9944338" lon="33.4822369">
<ele>250.02</ele>
<time>2015-05-01T14:39:00Z</time>
</trkpt>
<trkpt lat="34.9944460" lon="33.4823169">
<ele>250.02</ele>
<time>2015-05-01T14:39:01Z</time>
</trkpt>
<trkpt lat="34.9944602" lon="33.4823921">
<ele>250.02</ele>
<time>2015-05-01T14:39:02Z</time>
</trkpt>
<trkpt lat="34.9944701" lon="33.4824672">
<ele>249.52</ele>
<time>2015-05-01T14:39:03Z</time>
</trkpt>
<trkpt lat="34.9944887" lon="33.4825453">
<ele>249.27</ele>
<time>2015-05-01T14:39:04Z</time>
</trkpt>
<trkpt lat="34.9945124" lon="33.4826398">
<ele>248.64</ele>
<time>2015-05-01T14:39:05Z</time>
</trkpt>
<trkpt lat="34.9945272" lon="33.4827106">
<ele>248.33</ele>
<time>2015-05-01T14:39:06Z</time>
</trkpt>
<trkpt lat="34.9945438" lon="33.4827819">
<ele>248.17</ele>
<time>2015-05-01T14:39:07Z</time>
</trkpt>
<trkpt lat="34.9945574" lon="33.4828580">
<ele>248.09</ele>
<time>2015-05-01T14:39:08Z</time>
</trkpt>
<trkpt lat="34.9945771" lon="33.4829396">
<ele>248.06</ele>
<time>2015-05-01T14:39:09Z</time>
</trkpt>
<trkpt lat="34.9945940" lon="33.4830133">
<ele>248.04</ele>
<time>2015-05-01T14:39:10Z</time>
</trkpt>
<trkpt lat="34.9946142" lon="33.4830846">
<ele>247.53</ele>
<time>2015-05-01T14:39:11Z</time>
</trkpt>
<trkpt lat="34.9946268" lon="33.4831654">
<ele>247.27</ele>
<time>2015-05-01T14:39:12Z</time>
</trkpt>
<trkpt lat="34.9946433" lon="33.4832375">
<ele>247.14</ele>
<time>2015-05-01T14:39:13Z</time>
</trkpt>
<trkpt lat="34.9946582" lon="33.4833076">
<ele>247.08</ele>
<time>2015-05-01T14:39:14Z</time>
</trkpt>
<trkpt lat="34.9946741" lon="33.4833786">
<ele>246.55</ele>
<time>2015-05-01T14:39:15Z</time>
</trkpt>
<trkpt lat="34.9946910" lon="33.4834627">
<ele>246.28</ele>
<time>2015-05-01T14:39:16Z</time>
</trkpt>
<trkpt lat="34.9947106" lon="33.4835262">
<ele>246.15</ele>
<time>2015-05-01T14:39:17Z</time>
</trkpt>
<trkpt lat="34.9947308" lon="33.4836005">
<ele>246.58</ele>
<time>2015-05-01T14:39:18Z</time>
</trkpt>
<trkpt lat="34.9947570" lon="33.4836675">
<ele>246.30</ele>
<time>2015-05-01T14:39:19Z</time>
</trkpt>
<trkpt lat="34.9947812" lon="33.4837424">
<ele>246.16</ele>
<time>2015-05-01T14:39:20Z</time>
</trkpt>
<trkpt lat="34.9947994" lon="33.4838244">
<ele>246.59</ele>
<time>2015-05-01T14:39:21Z</time>
</trkpt>
<trkpt lat="34.9948111" lon="33.4838957">
<ele>246.80</ele>
<time>2015-05-01T14:39:22Z</time>
</trkpt>
<trkpt lat="34.9948304" lon="33.4839649">
<ele>246.91</ele>
<time>2015-05-01T14:39:23Z</time>
</trkpt>
<trkpt lat="34.9948444" lon="33.4840377">
<ele>246.96</ele>
<time>2015-05-01T14:39:24Z</time>
</trkpt>
<trkpt lat="34.9948591" lon="33.4841006">
<ele>246.99</ele>
<time>2015-05-01T14:39:25Z</time>
</trkpt>
<trkpt lat="34.9948775" lon="33.4841716">
<ele>247.00</ele>
<time>2015-05-01T14:39:26Z</time>
</trkpt>
<trkpt lat="34.9948967" lon="33.4842403">
<ele>247.01</ele>
<time>2015-05-01T14:39:27Z</time>
</trkpt>
<trkpt lat="34.9949154" lon="33.4843195">
<ele>247.01</ele>
<time>2015-05-01T14:39:28Z</time>
</trkpt>
<trkpt lat="34.9949256" lon="33.4843927">
<ele>247.51</ele>
<time>2015-05-01T14:39:29Z</time>
</trkpt>
<trkpt lat="34.9949482" lon="33.4844744">
<ele>247.27</ele>
<time>2015-05-01T14:39:30Z</time>
</trkpt>
<trkpt lat="34.9949652" lon="33.4845490">
<ele>247.14</ele>
<time>2015-05-01T14:39:31Z</time>
</trkpt>
<trkpt lat="34.9949907" lon="33.4846218">
<ele>247.08</ele>
<time>2015-05-01T14:39:32Z</time>
</trkpt>
<trkpt lat="34.9950143" lon="33.4847094">
<ele>247.05</ele>
<time>2015-05-01T14:39:33Z</time>
</trkpt>
<trkpt lat="34.9950350" lon="33.4847855">
<ele>247.03</ele>
<time>2015-05-01T14:39:34Z</time>
</trkpt>
<trkpt lat="34.9950595" lon="33.4848678">
<ele>247.02</ele>
<time>2015-05-01T14:39:35Z</time>
</trkpt>
<trkpt lat="34.9950785" lon="33.4849508">
<ele>247.52</ele>
<time>2015-05-01T14:39:36Z</time>
</trkpt>
<trkpt lat="34.9951041" lon="33.4850129">
<ele>247.77</ele>
<time>2015-05-01T14:39:37Z</time>
</trkpt>
<trkpt lat="34.9951304" lon="33.4850764">
<ele>247.89</ele>
<time>2015-05-01T14:39:38Z</time>
</trkpt>
<trkpt lat="34.9951537" lon="33.4851419">
<ele>247.95</ele>
<time>2015-05-01T14:39:39Z</time>
</trkpt>
<trkpt lat="34.9951828" lon="33.4852074">
<ele>247.99</ele>
<time>2015-05-01T14:39:40Z</time>
</trkpt>
<trkpt lat="34.9952029" lon="33.4852731">
<ele>248.00</ele>
<time>2015-05-01T14:39:41Z</time>
</trkpt>
<trkpt lat="34.9952364" lon="33.4853392">
<ele>248.01</ele>
<time>2015-05-01T14:39:42Z</time>
</trkpt>
<trkpt lat="34.9952635" lon="33.4854057">
<ele>247.51</ele>
<time>2015-05-01T14:39:43Z</time>
</trkpt>
<trkpt lat="34.9952915" lon="33.4854727">
<ele>247.26</ele>
<time>2015-05-01T14:39:44Z</time>
</trkpt>
<trkpt lat="34.9953204" lon="33.4855440">
<ele>247.14</ele>
<time>2015-05-01T14:39:45Z</time>
</trkpt>
<trkpt lat="34.9953495" lon="33.4856156">
<ele>247.08</ele>
<time>2015-05-01T14:39:46Z</time>
</trkpt>
<trkpt lat="34.9953751" lon="33.4856786">
<ele>247.05</ele>
<time>2015-05-01T14:39:47Z</time>
</trkpt>
<trkpt lat="34.9954026" lon="33.4857494">
<ele>247.03</ele>
<time>2015-05-01T14:39:48Z</time>
</trkpt>
<trkpt lat="34.9954331" lon="33.4858116">
<ele>247.02</ele>
<time>2015-05-01T14:39:49Z</time>
</trkpt>
<trkpt lat="34.9954590" lon="33.4858711">
<ele>247.02</ele>
<time>2015-05-01T14:39:50Z</time>
</trkpt>
<trkpt lat="34.9954925" lon="33.4859319">
<ele>247.02</ele>
<time>2015-05-01T14:39:51Z</time>
</trkpt>
<trkpt lat="34.9955287" lon="33.4860004">
<ele>247.02</ele>
<time>2015-05-01T14:39:52Z</time>
</trkpt>
<trkpt lat="34.9955629" lon="33.4860649">
<ele>247.02</ele>
<time>2015-05-01T14:39:53Z</time>
</trkpt>
<trkpt lat="34.9955922" lon="33.4861301">
<ele>247.02</ele>
<time>2015-05-01T14:39:54Z</time>
</trkpt>
<trkpt lat="34.9956240" lon="33.4861959">
<ele>247.02</ele>
<time>2015-05-01T14:39:55Z</time>
</trkpt>
<trkpt lat="34.9956529" lon="33.4862470">
<ele>247.02</ele>
<time>2015-05-01T14:39:56Z</time>
</trkpt>
<trkpt lat="34.9956877" lon="33.4863065">
<ele>247.02</ele>
<time>2015-05-01T14:39:57Z</time>
</trkpt>
<trkpt lat="34.9957264" lon="33.4863681">
<ele>247.02</ele>
<time>2015-05-01T14:39:58Z</time>
</trkpt>
<trkpt lat="34.9957667" lon="33.4864275">
<ele>246.52</ele>
<time>2015-05-01T14:39:59Z</time>
</trkpt>
<trkpt lat="34.9958108" lon="33.4864789">
<ele>246.27</ele>
<time>2015-05-01T14:40:00Z</time>
</trkpt>
<trkpt lat="34.9958615" lon="33.4865303">
<ele>246.14</ele>
<time>2015-05-01T14:40:01Z</time>
</trkpt>
<trkpt lat="34.9959002" lon="33.4865912">
<ele>246.08</ele>
<time>2015-05-01T14:40:02Z</time>
</trkpt>
<trkpt lat="34.9959491" lon="33.4866494">
<ele>246.05</ele>
<time>2015-05-01T14:40:03Z</time>
</trkpt>
<trkpt lat="34.9960005" lon="33.4867135">
<ele>246.53</ele>
<time>2015-05-01T14:40:04Z</time>
</trkpt>
<trkpt lat="34.9960452" lon="33.4867668">
<ele>246.77</ele>
<time>2015-05-01T14:40:05Z</time>
</trkpt>
<trkpt lat="34.9960974" lon="33.4868181">
<ele>246.89</ele>
<time>2015-05-01T14:40:06Z</time>
</trkpt>
<trkpt lat="34.9961464" lon="33.4868709">
<ele>246.96</ele>
<time>2015-05-01T14:40:07Z</time>
</trkpt>
<trkpt lat="34.9961926" lon="33.4869243">
<ele>246.49</ele>
<time>2015-05-01T14:40:08Z</time>
</trkpt>
<trkpt lat="34.9962332" lon="33.4869828">
<ele>246.25</ele>
<time>2015-05-01T14:40:09Z</time>
</trkpt>
<trkpt lat="34.9962768" lon="33.4870343">
<ele>246.13</ele>
<time>2015-05-01T14:40:10Z</time>
</trkpt>
<trkpt lat="34.9963205" lon="33.4870820">
<ele>246.07</ele>
<time>2015-05-01T14:40:11Z</time>
</trkpt>
<trkpt lat="34.9963714" lon="33.4871207">
<ele>245.55</ele>
<time>2015-05-01T14:40:12Z</time>
</trkpt>
<trkpt lat="34.9964251" lon="33.4871676">
<ele>245.78</ele>
<time>2015-05-01T14:40:13Z</time>
</trkpt>
<trkpt lat="34.9964865" lon="33.4872102">
<ele>246.90</ele>
<time>2015-05-01T14:40:14Z</time>
</trkpt>
<trkpt lat="34.9965280" lon="33.4872562">
<ele>247.46</ele>
<time>2015-05-01T14:40:15Z</time>
</trkpt>
<trkpt lat="34.9965765" lon="33.4873020">
<ele>247.74</ele>
<time>2015-05-01T14:40:16Z</time>
</trkpt>
<trkpt lat="34.9966152" lon="33.4873430">
<ele>247.88</ele>
<time>2015-05-01T14:40:17Z</time>
</trkpt>
<trkpt lat="34.9966511" lon="33.4873843">
<ele>247.95</ele>
<time>2015-05-01T14:40:18Z</time>
</trkpt>
<trkpt lat="34.9966994" lon="33.4874208">
<ele>247.98</ele>
<time>2015-05-01T14:40:19Z</time>
</trkpt>
<trkpt lat="34.9967391" lon="33.4874592">
<ele>248.00</ele>
<time>2015-05-01T14:40:20Z</time>
</trkpt>
<trkpt lat="34.9967750" lon="33.4874960">
<ele>248.01</ele>
<time>2015-05-01T14:40:21Z</time>
</trkpt>
<trkpt lat="34.9968250" lon="33.4875364">
<ele>248.51</ele>
<time>2015-05-01T14:40:22Z</time>
</trkpt>
<trkpt lat="34.9968644" lon="33.4875774">
<ele>248.76</ele>
<time>2015-05-01T14:40:23Z</time>
</trkpt>
<trkpt lat="34.9969116" lon="33.4876261">
<ele>248.89</ele>
<time>2015-05-01T14:40:24Z</time>
</trkpt>
<trkpt lat="34.9969618" lon="33.4876651">
<ele>248.95</ele>
<time>2015-05-01T14:40:25Z</time>
</trkpt>
<trkpt lat="34.9970158" lon="33.4877076">
<ele>248.98</ele>
<time>2015-05-01T14:40:26Z</time>
</trkpt>
<trkpt lat="34.9970634" lon="33.4877553">
<ele>249.00</ele>
<time>2015-05-01T14:40:27Z</time>
</trkpt>
<trkpt lat="34.9971166" lon="33.4878074">
<ele>249.01</ele>
<time>2015-05-01T14:40:28Z</time>
</trkpt>
<trkpt lat="34.9971656" lon="33.4878588">
<ele>249.51</ele>
<time>2015-05-01T14:40:29Z</time>
</trkpt>
<trkpt lat="34.9972221" lon="33.4879032">
<ele>249.76</ele>
<time>2015-05-01T14:40:30Z</time>
</trkpt>
<trkpt lat="34.9972688" lon="33.4879506">
<ele>249.39</ele>
<time>2015-05-01T14:40:31Z</time>
</trkpt>
<trkpt lat="34.9973231" lon="33.4879952">
<ele>249.20</ele>
<time>2015-05-01T14:40:32Z</time>
</trkpt>
<trkpt lat="34.9973746" lon="33.4880480">
<ele>249.61</ele>
<time>2015-05-01T14:40:33Z</time>
</trkpt>
<trkpt lat="34.9974262" lon="33.4880885">
<ele>249.81</ele>
<time>2015-05-01T14:40:34Z</time>
</trkpt>
<trkpt lat="34.9974745" lon="33.4881371">
<ele>249.41</ele>
<time>2015-05-01T14:40:35Z</time>
</trkpt>
<trkpt lat="34.9975248" lon="33.4881795">
<ele>249.22</ele>
<time>2015-05-01T14:40:36Z</time>
</trkpt>
<trkpt lat="34.9975780" lon="33.4882251">
<ele>249.62</ele>
<time>2015-05-01T14:40:37Z</time>
</trkpt>
<trkpt lat="34.9976255" lon="33.4882700">
<ele>249.32</ele>
<time>2015-05-01T14:40:38Z</time>
</trkpt>
<trkpt lat="34.9976686" lon="33.4883126">
<ele>249.17</ele>
<time>2015-05-01T14:40:39Z</time>
</trkpt>
<trkpt lat="34.9977228" lon="33.4883667">
<ele>249.59</ele>
<time>2015-05-01T14:40:40Z</time>
</trkpt>
<trkpt lat="34.9977639" lon="33.4884070">
<ele>249.80</ele>
<time>2015-05-01T14:40:41Z</time>
</trkpt>
<trkpt lat="34.9978014" lon="33.4884487">
<ele>249.41</ele>
<time>2015-05-01T14:40:42Z</time>
</trkpt>
<trkpt lat="34.9978521" lon="33.4884850">
<ele>249.21</ele>
<time>2015-05-01T14:40:43Z</time>
</trkpt>
<trkpt lat="34.9978975" lon="33.4885236">
<ele>249.11</ele>
<time>2015-05-01T14:40:44Z</time>
</trkpt>
<trkpt lat="34.9979406" lon="33.4885615">
<ele>249.07</ele>
<time>2015-05-01T14:40:45Z</time>
</trkpt>
<trkpt lat="34.9979840" lon="33.4886005">
<ele>248.54</ele>
<time>2015-05-01T14:40:46Z</time>
</trkpt>
<trkpt lat="34.9980228" lon="33.4886396">
<ele>248.28</ele>
<time>2015-05-01T14:40:47Z</time>
</trkpt>
<trkpt lat="34.9980634" lon="33.4886805">
<ele>247.65</ele>
<time>2015-05-01T14:40:48Z</time>
</trkpt>
<trkpt lat="34.9981068" lon="33.4887258">
<ele>247.83</ele>
<time>2015-05-01T14:40:49Z</time>
</trkpt>
<trkpt lat="34.9981568" lon="33.4887703">
<ele>247.92</ele>
<time>2015-05-01T14:40:50Z</time>
</trkpt>
<trkpt lat="34.9982046" lon="33.4888276">
<ele>247.47</ele>
<time>2015-05-01T14:40:51Z</time>
</trkpt>
<trkpt lat="34.9982564" lon="33.4888752">
<ele>247.24</ele>
<time>2015-05-01T14:40:52Z</time>
</trkpt>
<trkpt lat="34.9983096" lon="33.4889293">
<ele>247.13</ele>
<time>2015-05-01T14:40:53Z</time>
</trkpt>
<trkpt lat="34.9983593" lon="33.4889799">
<ele>247.57</ele>
<time>2015-05-01T14:40:54Z</time>
</trkpt>
<trkpt lat="34.9984221" lon="33.4890301">
<ele>247.79</ele>
<time>2015-05-01T14:40:55Z</time>
</trkpt>
<trkpt lat="34.9984798" lon="33.4890791">
<ele>247.91</ele>
<time>2015-05-01T14:40:56Z</time>
</trkpt>
<trkpt lat="34.9985369" lon="33.4891232">
<ele>247.96</ele>
<time>2015-05-01T14:40:57Z</time>
</trkpt>
<trkpt lat="34.9985922" lon="33.4891702">
<ele>247.49</ele>
<time>2015-05-01T14:40:58Z</time>
</trkpt>
<trkpt lat="34.9986325" lon="33.4892210">
<ele>246.75</ele>
<time>2015-05-01T14:40:59Z</time>
</trkpt>
<trkpt lat="34.9986914" lon="33.4892772">
<ele>246.38</ele>
<time>2015-05-01T14:41:00Z</time>
</trkpt>
<trkpt lat="34.9987502" lon="33.4893342">
<ele>246.20</ele>
<time>2015-05-01T14:41:01Z</time>
</trkpt>
<trkpt lat="34.9988175" lon="33.4893734">
<ele>246.11</ele>
<time>2015-05-01T14:41:02Z</time>
</trkpt>
<trkpt lat="34.9988802" lon="33.4894252">
<ele>245.56</ele>
<time>2015-05-01T14:41:03Z</time>
</trkpt>
<trkpt lat="34.9989550" lon="33.4894715">
<ele>244.79</ele>
<time>2015-05-01T14:41:04Z</time>
</trkpt>
<trkpt lat="34.9990246" lon="33.4895212">
<ele>243.90</ele>
<time>2015-05-01T14:41:05Z</time>
</trkpt>
<trkpt lat="34.9990873" lon="33.4895922">
<ele>243.46</ele>
<time>2015-05-01T14:41:06Z</time>
</trkpt>
<trkpt lat="34.9991580" lon="33.4896660">
<ele>242.74</ele>
<time>2015-05-01T14:41:07Z</time>
</trkpt>
<trkpt lat="34.9992224" lon="33.4897229">
<ele>241.88</ele>
<time>2015-05-01T14:41:08Z</time>
</trkpt>
<trkpt lat="34.9992878" lon="33.4897860">
<ele>240.95</ele>
<time>2015-05-01T14:41:09Z</time>
</trkpt>
<trkpt lat="34.9993547" lon="33.4898495">
<ele>240.48</ele>
<time>2015-05-01T14:41:10Z</time>
</trkpt>
<trkpt lat="34.9994166" lon="33.4899076">
<ele>239.75</ele>
<time>2015-05-01T14:41:11Z</time>
</trkpt>
<trkpt lat="34.9994893" lon="33.4899804">
<ele>239.38</ele>
<time>2015-05-01T14:41:12Z</time>
</trkpt>
<trkpt lat="34.9995671" lon="33.4900409">
<ele>239.20</ele>
<time>2015-05-01T14:41:13Z</time>
</trkpt>
<trkpt lat="34.9996461" lon="33.4901027">
<ele>238.61</ele>
<time>2015-05-01T14:41:14Z</time>
</trkpt>
<trkpt lat="34.9997206" lon="33.4901722">
<ele>238.31</ele>
<time>2015-05-01T14:41:15Z</time>
</trkpt>
<trkpt lat="34.9997917" lon="33.4902507">
<ele>237.66</ele>
<time>2015-05-01T14:41:16Z</time>
</trkpt>
<trkpt lat="34.9998802" lon="33.4903112">
<ele>236.84</ele>
<time>2015-05-01T14:41:17Z</time>
</trkpt>
<trkpt lat="34.9999506" lon="33.4903893">
<ele>236.43</ele>
<time>2015-05-01T14:41:18Z</time>
</trkpt>
<trkpt lat="35.0000140" lon="33.4904720">
<ele>236.22</ele>
<time>2015-05-01T14:41:19Z</time>
</trkpt>
<trkpt lat="35.0000954" lon="33.4905593">
<ele>236.12</ele>
<time>2015-05-01T14:41:20Z</time>
</trkpt>
<trkpt lat="35.0001622" lon="33.4906436">
<ele>235.57</ele>
<time>2015-05-01T14:41:21Z</time>
</trkpt>
<trkpt lat="35.0002438" lon="33.4907220">
<ele>234.79</ele>
<time>2015-05-01T14:41:22Z</time>
</trkpt>
<trkpt lat="35.0003133" lon="33.4908091">
<ele>234.90</ele>
<time>2015-05-01T14:41:23Z</time>
</trkpt>
<trkpt lat="35.0003842" lon="33.4909013">
<ele>234.46</ele>
<time>2015-05-01T14:41:24Z</time>
</trkpt>
<trkpt lat="35.0004626" lon="33.4909936">
<ele>234.24</ele>
<time>2015-05-01T14:41:25Z</time>
</trkpt>
<trkpt lat="35.0005299" lon="33.4910757">
<ele>233.63</ele>
<time>2015-05-01T14:41:26Z</time>
</trkpt>
<trkpt lat="35.0005929" lon="33.4911586">
<ele>232.82</ele>
<time>2015-05-01T14:41:27Z</time>
</trkpt>
<trkpt lat="35.0006525" lon="33.4912469">
<ele>231.92</ele>
<time>2015-05-01T14:41:28Z</time>
</trkpt>
<trkpt lat="35.0007124" lon="33.4913343">
<ele>230.97</ele>
<time>2015-05-01T14:41:29Z</time>
</trkpt>
<trkpt lat="35.0007692" lon="33.4914259">
<ele>230.49</ele>
<time>2015-05-01T14:41:30Z</time>
</trkpt>
<trkpt lat="35.0008250" lon="33.4915184">
<ele>230.25</ele>
<time>2015-05-01T14:41:31Z</time>
</trkpt>
<trkpt lat="35.0008779" lon="33.4916173">
<ele>230.13</ele>
<time>2015-05-01T14:41:32Z</time>
</trkpt>
<trkpt lat="35.0009274" lon="33.4917075">
<ele>230.08</ele>
<time>2015-05-01T14:41:33Z</time>
</trkpt>
<trkpt lat="35.0009802" lon="33.4918027">
<ele>229.55</ele>
<time>2015-05-01T14:41:34Z</time>
</trkpt>
<trkpt lat="35.0010242" lon="33.4918850">
<ele>229.28</ele>
<time>2015-05-01T14:41:35Z</time>
</trkpt>
<trkpt lat="35.0010700" lon="33.4919787">
<ele>229.15</ele>
<time>2015-05-01T14:41:36Z</time>
</trkpt>
<trkpt lat="35.0011118" lon="33.4920653">
<ele>229.08</ele>
<time>2015-05-01T14:41:37Z</time>
</trkpt>
<trkpt lat="35.0011521" lon="33.4921500">
<ele>229.05</ele>
<time>2015-05-01T14:41:38Z</time>
</trkpt>
<trkpt lat="35.0011835" lon="33.4922283">
<ele>229.03</ele>
<time>2015-05-01T14:41:39Z</time>
</trkpt>
<trkpt lat="35.0012135" lon="33.4923181">
<ele>229.52</ele>
<time>2015-05-01T14:41:40Z</time>
</trkpt>
<trkpt lat="35.0012521" lon="33.4924145">
<ele>229.77</ele>
<time>2015-05-01T14:41:41Z</time>
</trkpt>
<trkpt lat="35.0012862" lon="33.4924903">
<ele>229.89</ele>
<time>2015-05-01T14:41:42Z</time>
</trkpt>
<trkpt lat="35.0013168" lon="33.4925511">
<ele>229.45</ele>
<time>2015-05-01T14:41:43Z</time>
</trkpt>
<trkpt lat="35.0013499" lon="33.4926140">
<ele>229.24</ele>
<time>2015-05-01T14:41:44Z</time>
</trkpt>
<trkpt lat="35.0013765" lon="33.4926885">
<ele>229.13</ele>
<time>2015-05-01T14:41:45Z</time>
</trkpt>
<trkpt lat="35.0013964" lon="33.4927552">
<ele>229.07</ele>
<time>2015-05-01T14:41:46Z</time>
</trkpt>
<trkpt lat="35.0014180" lon="33.4928193">
<ele>229.04</ele>
<time>2015-05-01T14:41:47Z</time>
</trkpt>
<trkpt lat="35.0014462" lon="33.4928804">
<ele>229.03</ele>
<time>2015-05-01T14:41:48Z</time>
</trkpt>
<trkpt lat="35.0014683" lon="33.4929527">
<ele>229.02</ele>
<time>2015-05-01T14:41:49Z</time>
</trkpt>
<trkpt lat="35.0014862" lon="33.4930180">
<ele>229.52</ele>
<time>2015-05-01T14:41:50Z</time>
</trkpt>
<trkpt lat="35.0015047" lon="33.4930819">
<ele>229.77</ele>
<time>2015-05-01T14:41:51Z</time>
</trkpt>
<trkpt lat="35.0015304" lon="33.4931474">
<ele>229.89</ele>
<time>2015-05-01T14:41:52Z</time>
</trkpt>
<trkpt lat="35.0015411" lon="33.4932130">
<ele>229.95</ele>
<time>2015-05-01T14:41:53Z</time>
</trkpt>
<trkpt lat="35.0015599" lon="33.4932763">
<ele>229.98</ele>
<time>2015-05-01T14:41:54Z</time>
</trkpt>
<trkpt lat="35.0015745" lon="33.4933389">
<ele>230.00</ele>
<time>2015-05-01T14:41:55Z</time>
</trkpt>
<trkpt lat="35.0015914" lon="33.4934040">
<ele>230.51</ele>
<time>2015-05-01T14:41:56Z</time>
</trkpt>
<trkpt lat="35.0016046" lon="33.4934679">
<ele>230.76</ele>
<time>2015-05-01T14:41:57Z</time>
</trkpt>
<trkpt lat="35.0016196" lon="33.4935342">
<ele>230.89</ele>
<time>2015-05-01T14:41:58Z</time>
</trkpt>
<trkpt lat="35.0016332" lon="33.4936062">
<ele>230.95</ele>
<time>2015-05-01T14:41:59Z</time>
</trkpt>
<trkpt lat="35.0016454" lon="33.4936831">
<ele>230.98</ele>
<time>2015-05-01T14:42:00Z</time>
</trkpt>
<trkpt lat="35.0016606" lon="33.4937436">
<ele>233.50</ele>
<time>2015-05-01T14:42:01Z</time>
</trkpt>
<trkpt lat="35.0016789" lon="33.4938624">
<ele>235.39</ele>
<time>2015-05-01T14:42:03Z</time>
</trkpt>
<trkpt lat="35.0017003" lon="33.4939712">
<ele>235.86</ele>
<time>2015-05-01T14:42:05Z</time>
</trkpt>
<trkpt lat="35.0017112" lon="33.4940334">
<ele>236.44</ele>
<time>2015-05-01T14:42:06Z</time>
</trkpt>
<trkpt lat="35.0017211" lon="33.4940953">
<ele>237.23</ele>
<time>2015-05-01T14:42:07Z</time>
</trkpt>
<trkpt lat="35.0017327" lon="33.4941622">
<ele>237.62</ele>
<time>2015-05-01T14:42:08Z</time>
</trkpt>
<trkpt lat="35.0017416" lon="33.4942166">
<ele>237.82</ele>
<time>2015-05-01T14:42:09Z</time>
</trkpt>
<trkpt lat="35.0017450" lon="33.4942861">
<ele>237.92</ele>
<time>2015-05-01T14:42:10Z</time>
</trkpt>
<trkpt lat="35.0017536" lon="33.4943421">
<ele>237.97</ele>
<time>2015-05-01T14:42:11Z</time>
</trkpt>
<trkpt lat="35.0017659" lon="33.4944045">
<ele>237.99</ele>
<time>2015-05-01T14:42:12Z</time>
</trkpt>
<trkpt lat="35.0017668" lon="33.4944622">
<ele>238.00</ele>
<time>2015-05-01T14:42:13Z</time>
</trkpt>
<trkpt lat="35.0017819" lon="33.4945491">
<ele>237.26</ele>
<time>2015-05-01T14:42:15Z</time>
</trkpt>
<trkpt lat="35.0017873" lon="33.4946065">
<ele>237.64</ele>
<time>2015-05-01T14:42:16Z</time>
</trkpt>
<trkpt lat="35.0018027" lon="33.4947134">
<ele>237.42</ele>
<time>2015-05-01T14:42:18Z</time>
</trkpt>
<trkpt lat="35.0018068" lon="33.4947752">
<ele>237.22</ele>
<time>2015-05-01T14:42:19Z</time>
</trkpt>
<trkpt lat="35.0018118" lon="33.4948898">
<ele>237.07</ele>
<time>2015-05-01T14:42:21Z</time>
</trkpt>
<trkpt lat="35.0018159" lon="33.4949576">
<ele>237.04</ele>
<time>2015-05-01T14:42:22Z</time>
</trkpt>
<trkpt lat="35.0018348" lon="33.4950712">
<ele>237.02</ele>
<time>2015-05-01T14:42:24Z</time>
</trkpt>
<trkpt lat="35.0018360" lon="33.4951311">
<ele>237.02</ele>
<time>2015-05-01T14:42:25Z</time>
</trkpt>
<trkpt lat="35.0018505" lon="33.4951853">
<ele>237.02</ele>
<time>2015-05-01T14:42:26Z</time>
</trkpt>
<trkpt lat="35.0018636" lon="33.4952414">
<ele>236.52</ele>
<time>2015-05-01T14:42:27Z</time>
</trkpt>
<trkpt lat="35.0018714" lon="33.4953040">
<ele>236.77</ele>
<time>2015-05-01T14:42:28Z</time>
</trkpt>
<trkpt lat="35.0018805" lon="33.4953651">
<ele>236.89</ele>
<time>2015-05-01T14:42:29Z</time>
</trkpt>
<trkpt lat="35.0018843" lon="33.4954250">
<ele>236.95</ele>
<time>2015-05-01T14:42:30Z</time>
</trkpt>
<trkpt lat="35.0018946" lon="33.4954799">
<ele>236.98</ele>
<time>2015-05-01T14:42:31Z</time>
</trkpt>
<trkpt lat="35.0019067" lon="33.4955381">
<ele>237.00</ele>
<time>2015-05-01T14:42:32Z</time>
</trkpt>
<trkpt lat="35.0019239" lon="33.4956380">
<ele>237.51</ele>
<time>2015-05-01T14:42:34Z</time>
</trkpt>
<trkpt lat="35.0019351" lon="33.4957415">
<ele>237.39</ele>
<time>2015-05-01T14:42:36Z</time>
</trkpt>
<trkpt lat="35.0019405" lon="33.4958071">
<ele>237.20</ele>
<time>2015-05-01T14:42:37Z</time>
</trkpt>
<trkpt lat="35.0019420" lon="33.4958651">
<ele>237.11</ele>
<time>2015-05-01T14:42:38Z</time>
</trkpt>
<trkpt lat="35.0019508" lon="33.4959269">
<ele>237.06</ele>
<time>2015-05-01T14:42:39Z</time>
</trkpt>
<trkpt lat="35.0019569" lon="33.4959870">
<ele>237.04</ele>
<time>2015-05-01T14:42:40Z</time>
</trkpt>
<trkpt lat="35.0019615" lon="33.4960456">
<ele>237.53</ele>
<time>2015-05-01T14:42:41Z</time>
</trkpt>
<trkpt lat="35.0019718" lon="33.4961078">
<ele>237.77</ele>
<time>2015-05-01T14:42:42Z</time>
</trkpt>
<trkpt lat="35.0019834" lon="33.4961737">
<ele>237.39</ele>
<time>2015-05-01T14:42:43Z</time>
</trkpt>
<trkpt lat="35.0019927" lon="33.4962425">
<ele>237.70</ele>
<time>2015-05-01T14:42:44Z</time>
</trkpt>
<trkpt lat="35.0019899" lon="33.4963086">
<ele>237.86</ele>
<time>2015-05-01T14:42:45Z</time>
</trkpt>
<trkpt lat="35.0020005" lon="33.4963745">
<ele>238.44</ele>
<time>2015-05-01T14:42:46Z</time>
</trkpt>
<trkpt lat="35.0020091" lon="33.4964433">
<ele>238.23</ele>
<time>2015-05-01T14:42:47Z</time>
</trkpt>
<trkpt lat="35.0020230" lon="33.4965164">
<ele>238.12</ele>
<time>2015-05-01T14:42:48Z</time>
</trkpt>
<trkpt lat="35.0020337" lon="33.4965918">
<ele>238.07</ele>
<time>2015-05-01T14:42:49Z</time>
</trkpt>
<trkpt lat="35.0020486" lon="33.4966581">
<ele>238.04</ele>
<time>2015-05-01T14:42:50Z</time>
</trkpt>
<trkpt lat="35.0020567" lon="33.4967214">
<ele>238.03</ele>
<time>2015-05-01T14:42:51Z</time>
</trkpt>
<trkpt lat="35.0020629" lon="33.4968029">
<ele>238.52</ele>
<time>2015-05-01T14:42:52Z</time>
</trkpt>
<trkpt lat="35.0020754" lon="33.4968819">
<ele>238.77</ele>
<time>2015-05-01T14:42:53Z</time>
</trkpt>
<trkpt lat="35.0020872" lon="33.4969570">
<ele>238.39</ele>
<time>2015-05-01T14:42:54Z</time>
</trkpt>
<trkpt lat="35.0020925" lon="33.4970740">
<ele>238.61</ele>
<time>2015-05-01T14:42:56Z</time>
</trkpt>
<trkpt lat="35.0021032" lon="33.4971298">
<ele>238.31</ele>
<time>2015-05-01T14:42:57Z</time>
</trkpt>
<trkpt lat="35.0021173" lon="33.4971856">
<ele>238.16</ele>
<time>2015-05-01T14:42:58Z</time>
</trkpt>
<trkpt lat="35.0021319" lon="33.4972942">
<ele>238.05</ele>
<time>2015-05-01T14:43:00Z</time>
</trkpt>
<trkpt lat="35.0021352" lon="33.4973531">
<ele>238.03</ele>
<time>2015-05-01T14:43:01Z</time>
</trkpt>
<trkpt lat="35.0021392" lon="33.4974554">
<ele>238.02</ele>
<time>2015-05-01T14:43:03Z</time>
</trkpt>
<trkpt lat="35.0021459" lon="33.4975133">
<ele>238.02</ele>
<time>2015-05-01T14:43:04Z</time>
</trkpt>
<trkpt lat="35.0021526" lon="33.4975718">
<ele>238.02</ele>
<time>2015-05-01T14:43:05Z</time>
</trkpt>
<trkpt lat="35.0021613" lon="33.4976307">
<ele>238.02</ele>
<time>2015-05-01T14:43:06Z</time>
</trkpt>
<trkpt lat="35.0021737" lon="33.4976839">
<ele>238.52</ele>
<time>2015-05-01T14:43:07Z</time>
</trkpt>
<trkpt lat="35.0021723" lon="33.4977944">
<ele>236.89</ele>
<time>2015-05-01T14:43:09Z</time>
</trkpt>
<trkpt lat="35.0021862" lon="33.4978484">
<ele>235.95</ele>
<time>2015-05-01T14:43:10Z</time>
</trkpt>
<trkpt lat="35.0021922" lon="33.4979101">
<ele>235.48</ele>
<time>2015-05-01T14:43:11Z</time>
</trkpt>
<trkpt lat="35.0021980" lon="33.4979664">
<ele>235.25</ele>
<time>2015-05-01T14:43:12Z</time>
</trkpt>
<trkpt lat="35.0022035" lon="33.4980302">
<ele>235.13</ele>
<time>2015-05-01T14:43:13Z</time>
</trkpt>
<trkpt lat="35.0022093" lon="33.4980950">
<ele>235.07</ele>
<time>2015-05-01T14:43:14Z</time>
</trkpt>
<trkpt lat="35.0022253" lon="33.4982107">
<ele>236.28</ele>
<time>2015-05-01T14:43:16Z</time>
</trkpt>
<trkpt lat="35.0022315" lon="33.4982682">
<ele>236.65</ele>
<time>2015-05-01T14:43:17Z</time>
</trkpt>
<trkpt lat="35.0022402" lon="33.4983243">
<ele>237.33</ele>
<time>2015-05-01T14:43:18Z</time>
</trkpt>
<trkpt lat="35.0022426" lon="33.4984145">
<ele>237.85</ele>
<time>2015-05-01T14:43:20Z</time>
</trkpt>
<trkpt lat="35.0022546" lon="33.4984990">
<ele>237.97</ele>
<time>2015-05-01T14:43:22Z</time>
</trkpt>
<trkpt lat="35.0022698" lon="33.4985679">
<ele>238.76</ele>
<time>2015-05-01T14:43:24Z</time>
</trkpt>
<trkpt lat="35.0022734" lon="33.4986524">
<ele>238.20</ele>
<time>2015-05-01T14:43:26Z</time>
</trkpt>
<trkpt lat="35.0022843" lon="33.4987395">
<ele>236.81</ele>
<time>2015-05-01T14:43:28Z</time>
</trkpt>
<trkpt lat="35.0022973" lon="33.4988283">
<ele>236.97</ele>
<time>2015-05-01T14:43:30Z</time>
</trkpt>
<trkpt lat="35.0023132" lon="33.4989182">
<ele>236.25</ele>
<time>2015-05-01T14:43:32Z</time>
</trkpt>
<trkpt lat="35.0023258" lon="33.4990117">
<ele>236.08</ele>
<time>2015-05-01T14:43:34Z</time>
</trkpt>
<trkpt lat="35.0023401" lon="33.4991086">
<ele>236.28</ele>
<time>2015-05-01T14:43:36Z</time>
</trkpt>
<trkpt lat="35.0023534" lon="33.4992013">
<ele>236.08</ele>
<time>2015-05-01T14:43:38Z</time>
</trkpt>
<trkpt lat="35.0023638" lon="33.4992931">
<ele>235.53</ele>
<time>2015-05-01T14:43:40Z</time>
</trkpt>
<trkpt lat="35.0023785" lon="33.4993679">
<ele>235.65</ele>
<time>2015-05-01T14:43:42Z</time>
</trkpt>
<trkpt lat="35.0024040" lon="33.4994226">
<ele>235.97</ele>
<time>2015-05-01T14:43:45Z</time>
</trkpt>
<trkpt lat="35.0024083" lon="33.4994779">
<ele>237.64</ele>
<time>2015-05-01T14:44:14Z</time>
</trkpt>
<trkpt lat="35.0024190" lon="33.4995327">
<ele>236.92</ele>
<time>2015-05-01T14:44:28Z</time>
</trkpt>
<trkpt lat="35.0023854" lon="33.4995913">
<ele>236.25</ele>
<time>2015-05-01T14:44:31Z</time>
</trkpt>
<trkpt lat="35.0023302" lon="33.4996296">
<ele>235.33</ele>
<time>2015-05-01T14:44:33Z</time>
</trkpt>
<trkpt lat="35.0022598" lon="33.4996696">
<ele>234.34</ele>
<time>2015-05-01T14:44:35Z</time>
</trkpt>
<trkpt lat="35.0022134" lon="33.4996934">
<ele>234.68</ele>
<time>2015-05-01T14:44:36Z</time>
</trkpt>
<trkpt lat="35.0021453" lon="33.4997239">
<ele>235.35</ele>
<time>2015-05-01T14:44:37Z</time>
</trkpt>
<trkpt lat="35.0020966" lon="33.4997622">
<ele>235.18</ele>
<time>2015-05-01T14:44:38Z</time>
</trkpt>
<trkpt lat="35.0020092" lon="33.4998290">
<ele>234.56</ele>
<time>2015-05-01T14:44:40Z</time>
</trkpt>
<trkpt lat="35.0019576" lon="33.4998642">
<ele>234.29</ele>
<time>2015-05-01T14:44:41Z</time>
</trkpt>
<trkpt lat="35.0018986" lon="33.4998985">
<ele>233.65</ele>
<time>2015-05-01T14:44:42Z</time>
</trkpt>
<trkpt lat="35.0018462" lon="33.4999327">
<ele>233.33</ele>
<time>2015-05-01T14:44:43Z</time>
</trkpt>
<trkpt lat="35.0017908" lon="33.4999673">
<ele>232.67</ele>
<time>2015-05-01T14:44:44Z</time>
</trkpt>
<trkpt lat="35.0017354" lon="33.5000104">
<ele>231.85</ele>
<time>2015-05-01T14:44:45Z</time>
</trkpt>
<trkpt lat="35.0016723" lon="33.5000535">
<ele>231.43</ele>
<time>2015-05-01T14:44:46Z</time>
</trkpt>
<trkpt lat="35.0016166" lon="33.5000928">
<ele>230.72</ele>
<time>2015-05-01T14:44:47Z</time>
</trkpt>
<trkpt lat="35.0015539" lon="33.5001348">
<ele>229.87</ele>
<time>2015-05-01T14:44:48Z</time>
</trkpt>
<trkpt lat="35.0014909" lon="33.5001730">
<ele>229.94</ele>
<time>2015-05-01T14:44:49Z</time>
</trkpt>
<trkpt lat="35.0014178" lon="33.5002135">
<ele>230.48</ele>
<time>2015-05-01T14:44:50Z</time>
</trkpt>
<trkpt lat="35.0013504" lon="33.5002548">
<ele>230.25</ele>
<time>2015-05-01T14:44:51Z</time>
</trkpt>
<trkpt lat="35.0012811" lon="33.5002864">
<ele>230.13</ele>
<time>2015-05-01T14:44:52Z</time>
</trkpt>
<trkpt lat="35.0012147" lon="33.5003313">
<ele>230.07</ele>
<time>2015-05-01T14:44:53Z</time>
</trkpt>
<trkpt lat="35.0011394" lon="33.5003700">
<ele>230.04</ele>
<time>2015-05-01T14:44:54Z</time>
</trkpt>
<trkpt lat="35.0010741" lon="33.5004126">
<ele>229.53</ele>
<time>2015-05-01T14:44:55Z</time>
</trkpt>
<trkpt lat="35.0010085" lon="33.5004516">
<ele>229.27</ele>
<time>2015-05-01T14:44:56Z</time>
</trkpt>
<trkpt lat="35.0009355" lon="33.5004854">
<ele>229.14</ele>
<time>2015-05-01T14:44:57Z</time>
</trkpt>
<trkpt lat="35.0008587" lon="33.5005148">
<ele>228.58</ele>
<time>2015-05-01T14:44:58Z</time>
</trkpt>
<trkpt lat="35.0007998" lon="33.5005495">
<ele>228.80</ele>
<time>2015-05-01T14:44:59Z</time>
</trkpt>
<trkpt lat="35.0007284" lon="33.5005685">
<ele>228.91</ele>
<time>2015-05-01T14:45:00Z</time>
</trkpt>
<trkpt lat="35.0006561" lon="33.5006184">
<ele>228.96</ele>
<time>2015-05-01T14:45:01Z</time>
</trkpt>
<trkpt lat="35.0005896" lon="33.5006596">
<ele>228.99</ele>
<time>2015-05-01T14:45:02Z</time>
</trkpt>
<trkpt lat="35.0005308" lon="33.5007002">
<ele>229.50</ele>
<time>2015-05-01T14:45:03Z</time>
</trkpt>
<trkpt lat="35.0004683" lon="33.5007415">
<ele>229.26</ele>
<time>2015-05-01T14:45:04Z</time>
</trkpt>
<trkpt lat="35.0004002" lon="33.5007784">
<ele>229.14</ele>
<time>2015-05-01T14:45:05Z</time>
</trkpt>
<trkpt lat="35.0003319" lon="33.5008182">
<ele>229.08</ele>
<time>2015-05-01T14:45:06Z</time>
</trkpt>
<trkpt lat="35.0002671" lon="33.5008599">
<ele>228.55</ele>
<time>2015-05-01T14:45:07Z</time>
</trkpt>
<trkpt lat="35.0001966" lon="33.5008931">
<ele>227.78</ele>
<time>2015-05-01T14:45:08Z</time>
</trkpt>
<trkpt lat="35.0001386" lon="33.5009334">
<ele>227.40</ele>
<time>2015-05-01T14:45:09Z</time>
</trkpt>
<trkpt lat="35.0000751" lon="33.5009741">
<ele>227.21</ele>
<time>2015-05-01T14:45:10Z</time>
</trkpt>
<trkpt lat="35.0000196" lon="33.5010110">
<ele>227.61</ele>
<time>2015-05-01T14:45:11Z</time>
</trkpt>
<trkpt lat="34.9999591" lon="33.5010496">
<ele>227.81</ele>
<time>2015-05-01T14:45:12Z</time>
</trkpt>
<trkpt lat="34.9998976" lon="33.5010876">
<ele>227.91</ele>
<time>2015-05-01T14:45:13Z</time>
</trkpt>
<trkpt lat="34.9998421" lon="33.5011199">
<ele>227.97</ele>
<time>2015-05-01T14:45:14Z</time>
</trkpt>
<trkpt lat="34.9997857" lon="33.5011523">
<ele>228.49</ele>
<time>2015-05-01T14:45:15Z</time>
</trkpt>
<trkpt lat="34.9997281" lon="33.5011906">
<ele>228.75</ele>
<time>2015-05-01T14:45:16Z</time>
</trkpt>
<trkpt lat="34.9996711" lon="33.5012251">
<ele>228.88</ele>
<time>2015-05-01T14:45:17Z</time>
</trkpt>
<trkpt lat="34.9996094" lon="33.5012646">
<ele>228.45</ele>
<time>2015-05-01T14:45:18Z</time>
</trkpt>
<trkpt lat="34.9995558" lon="33.5012986">
<ele>228.23</ele>
<time>2015-05-01T14:45:19Z</time>
</trkpt>
<trkpt lat="34.9994920" lon="33.5013319">
<ele>227.62</ele>
<time>2015-05-01T14:45:20Z</time>
</trkpt>
<trkpt lat="34.9994237" lon="33.5013641">
<ele>227.82</ele>
<time>2015-05-01T14:45:21Z</time>
</trkpt>
<trkpt lat="34.9993618" lon="33.5014082">
<ele>227.92</ele>
<time>2015-05-01T14:45:22Z</time>
</trkpt>
<trkpt lat="34.9992976" lon="33.5014526">
<ele>228.47</ele>
<time>2015-05-01T14:45:23Z</time>
</trkpt>
<trkpt lat="34.9992322" lon="33.5014957">
<ele>228.74</ele>
<time>2015-05-01T14:45:24Z</time>
</trkpt>
<trkpt lat="34.9991706" lon="33.5015315">
<ele>228.88</ele>
<time>2015-05-01T14:45:25Z</time>
</trkpt>
<trkpt lat="34.9991147" lon="33.5015709">
<ele>228.95</ele>
<time>2015-05-01T14:45:26Z</time>
</trkpt>
<trkpt lat="34.9990637" lon="33.5016190">
<ele>228.48</ele>
<time>2015-05-01T14:45:27Z</time>
</trkpt>
<trkpt lat="34.9990065" lon="33.5016607">
<ele>228.25</ele>
<time>2015-05-01T14:45:28Z</time>
</trkpt>
<trkpt lat="34.9989463" lon="33.5016940">
<ele>228.13</ele>
<time>2015-05-01T14:45:29Z</time>
</trkpt>
<trkpt lat="34.9988869" lon="33.5017279">
<ele>228.07</ele>
<time>2015-05-01T14:45:30Z</time>
</trkpt>
<trkpt lat="34.9988273" lon="33.5017676">
<ele>228.05</ele>
<time>2015-05-01T14:45:31Z</time>
</trkpt>
<trkpt lat="34.9987605" lon="33.5018053">
<ele>228.53</ele>
<time>2015-05-01T14:45:32Z</time>
</trkpt>
<trkpt lat="34.9987079" lon="33.5018357">
<ele>228.77</ele>
<time>2015-05-01T14:45:33Z</time>
</trkpt>
<trkpt lat="34.9986519" lon="33.5018695">
<ele>228.39</ele>
<time>2015-05-01T14:45:34Z</time>
</trkpt>
<trkpt lat="34.9986015" lon="33.5019052">
<ele>228.21</ele>
<time>2015-05-01T14:45:35Z</time>
</trkpt>
<trkpt lat="34.9985457" lon="33.5019461">
<ele>228.11</ele>
<time>2015-05-01T14:45:36Z</time>
</trkpt>
<trkpt lat="34.9984905" lon="33.5019720">
<ele>228.06</ele>
<time>2015-05-01T14:45:37Z</time>
</trkpt>
<trkpt lat="34.9984326" lon="33.5020005">
<ele>227.54</ele>
<time>2015-05-01T14:45:38Z</time>
</trkpt>
<trkpt lat="34.9983822" lon="33.5020329">
<ele>227.28</ele>
<time>2015-05-01T14:45:39Z</time>
</trkpt>
<trkpt lat="34.9983273" lon="33.5020642">
<ele>226.65</ele>
<time>2015-05-01T14:45:40Z</time>
</trkpt>
<trkpt lat="34.9982660" lon="33.5020990">
<ele>226.83</ele>
<time>2015-05-01T14:45:41Z</time>
</trkpt>
<trkpt lat="34.9982118" lon="33.5021371">
<ele>227.42</ele>
<time>2015-05-01T14:45:42Z</time>
</trkpt>
<trkpt lat="34.9981608" lon="33.5021676">
<ele>227.72</ele>
<time>2015-05-01T14:45:43Z</time>
</trkpt>
<trkpt lat="34.9980994" lon="33.5022096">
<ele>227.87</ele>
<time>2015-05-01T14:45:44Z</time>
</trkpt>
<trkpt lat="34.9980410" lon="33.5022463">
<ele>227.94</ele>
<time>2015-05-01T14:45:45Z</time>
</trkpt>
<trkpt lat="34.9979822" lon="33.5022893">
<ele>227.98</ele>
<time>2015-05-01T14:45:46Z</time>
</trkpt>
<trkpt lat="34.9979336" lon="33.5023248">
<ele>227.50</ele>
<time>2015-05-01T14:45:47Z</time>
</trkpt>
<trkpt lat="34.9978736" lon="33.5023691">
<ele>227.76</ele>
<time>2015-05-01T14:45:48Z</time>
</trkpt>
<trkpt lat="34.9978117" lon="33.5024086">
<ele>227.39</ele>
<time>2015-05-01T14:45:49Z</time>
</trkpt>
<trkpt lat="34.9977574" lon="33.5024531">
<ele>227.70</ele>
<time>2015-05-01T14:45:50Z</time>
</trkpt>
<trkpt lat="34.9976988" lon="33.5025001">
<ele>227.86</ele>
<time>2015-05-01T14:45:51Z</time>
</trkpt>
<trkpt lat="34.9976505" lon="33.5025432">
<ele>227.94</ele>
<time>2015-05-01T14:45:52Z</time>
</trkpt>
<trkpt lat="34.9975985" lon="33.5025907">
<ele>227.48</ele>
<time>2015-05-01T14:45:53Z</time>
</trkpt>
<trkpt lat="34.9975440" lon="33.5026458">
<ele>227.25</ele>
<time>2015-05-01T14:45:54Z</time>
</trkpt>
<trkpt lat="34.9974891" lon="33.5026932">
<ele>227.13</ele>
<time>2015-05-01T14:45:55Z</time>
</trkpt>
<trkpt lat="34.9974323" lon="33.5027436">
<ele>227.07</ele>
<time>2015-05-01T14:45:56Z</time>
</trkpt>
<trkpt lat="34.9973784" lon="33.5027830">
<ele>227.04</ele>
<time>2015-05-01T14:45:57Z</time>
</trkpt>
<trkpt lat="34.9973232" lon="33.5028351">
<ele>227.03</ele>
<time>2015-05-01T14:45:58Z</time>
</trkpt>
<trkpt lat="34.9972668" lon="33.5028841">
<ele>226.52</ele>
<time>2015-05-01T14:45:59Z</time>
</trkpt>
<trkpt lat="34.9972056" lon="33.5029369">
<ele>225.77</ele>
<time>2015-05-01T14:46:00Z</time>
</trkpt>
<trkpt lat="34.9971482" lon="33.5029918">
<ele>224.89</ele>
<time>2015-05-01T14:46:01Z</time>
</trkpt>
<trkpt lat="34.9970885" lon="33.5030493">
<ele>224.45</ele>
<time>2015-05-01T14:46:02Z</time>
</trkpt>
<trkpt lat="34.9970321" lon="33.5031040">
<ele>224.24</ele>
<time>2015-05-01T14:46:03Z</time>
</trkpt>
<trkpt lat="34.9969776" lon="33.5031591">
<ele>224.13</ele>
<time>2015-05-01T14:46:04Z</time>
</trkpt>
<trkpt lat="34.9969260" lon="33.5032220">
<ele>224.07</ele>
<time>2015-05-01T14:46:05Z</time>
</trkpt>
<trkpt lat="34.9968711" lon="33.5032841">
<ele>224.04</ele>
<time>2015-05-01T14:46:06Z</time>
</trkpt>
<trkpt lat="34.9968168" lon="33.5033389">
<ele>223.53</ele>
<time>2015-05-01T14:46:07Z</time>
</trkpt>
<trkpt lat="34.9967555" lon="33.5033979">
<ele>224.27</ele>
<time>2015-05-01T14:46:08Z</time>
</trkpt>
<trkpt lat="34.9966987" lon="33.5034539">
<ele>224.64</ele>
<time>2015-05-01T14:46:09Z</time>
</trkpt>
<trkpt lat="34.9966462" lon="33.5035077">
<ele>224.83</ele>
<time>2015-05-01T14:46:10Z</time>
</trkpt>
<trkpt lat="34.9965891" lon="33.5035702">
<ele>224.92</ele>
<time>2015-05-01T14:46:11Z</time>
</trkpt>
<trkpt lat="34.9965354" lon="33.5036347">
<ele>225.47</ele>
<time>2015-05-01T14:46:12Z</time>
</trkpt>
<trkpt lat="34.9964838" lon="33.5036942">
<ele>225.74</ele>
<time>2015-05-01T14:46:13Z</time>
</trkpt>
<trkpt lat="34.9964278" lon="33.5037561">
<ele>225.88</ele>
<time>2015-05-01T14:46:14Z</time>
</trkpt>
<trkpt lat="34.9963761" lon="33.5038072">
<ele>225.95</ele>
<time>2015-05-01T14:46:15Z</time>
</trkpt>
<trkpt lat="34.9963215" lon="33.5038614">
<ele>225.98</ele>
<time>2015-05-01T14:46:16Z</time>
</trkpt>
<trkpt lat="34.9962772" lon="33.5039241">
<ele>226.00</ele>
<time>2015-05-01T14:46:17Z</time>
</trkpt>
<trkpt lat="34.9962330" lon="33.5039902">
<ele>226.01</ele>
<time>2015-05-01T14:46:18Z</time>
</trkpt>
<trkpt lat="34.9961881" lon="33.5040548">
<ele>226.01</ele>
<time>2015-05-01T14:46:19Z</time>
</trkpt>
<trkpt lat="34.9961326" lon="33.5041173">
<ele>225.51</ele>
<time>2015-05-01T14:46:20Z</time>
</trkpt>
<trkpt lat="34.9960854" lon="33.5041645">
<ele>225.26</ele>
<time>2015-05-01T14:46:21Z</time>
</trkpt>
<trkpt lat="34.9960367" lon="33.5042391">
<ele>224.64</ele>
<time>2015-05-01T14:46:22Z</time>
</trkpt>
<trkpt lat="34.9959860" lon="33.5043088">
<ele>224.33</ele>
<time>2015-05-01T14:46:23Z</time>
</trkpt>
<trkpt lat="34.9959305" lon="33.5043819">
<ele>223.67</ele>
<time>2015-05-01T14:46:24Z</time>
</trkpt>
<trkpt lat="34.9958795" lon="33.5044482">
<ele>226.84</ele>
<time>2015-05-01T14:46:25Z</time>
</trkpt>
<trkpt lat="34.9958326" lon="33.5045194">
<ele>228.93</ele>
<time>2015-05-01T14:46:26Z</time>
</trkpt>
<trkpt lat="34.9957793" lon="33.5045855">
<ele>230.47</ele>
<time>2015-05-01T14:46:27Z</time>
</trkpt>
<trkpt lat="34.9957230" lon="33.5046558">
<ele>231.24</ele>
<time>2015-05-01T14:46:28Z</time>
</trkpt>
<trkpt lat="34.9956618" lon="33.5047244">
<ele>231.63</ele>
<time>2015-05-01T14:46:29Z</time>
</trkpt>
<trkpt lat="34.9956035" lon="33.5047959">
<ele>231.32</ele>
<time>2015-05-01T14:46:30Z</time>
</trkpt>
<trkpt lat="34.9955446" lon="33.5048669">
<ele>231.17</ele>
<time>2015-05-01T14:46:31Z</time>
</trkpt>
<trkpt lat="34.9954826" lon="33.5049390">
<ele>230.59</ele>
<time>2015-05-01T14:46:32Z</time>
</trkpt>
<trkpt lat="34.9954292" lon="33.5049982">
<ele>230.30</ele>
<time>2015-05-01T14:46:33Z</time>
</trkpt>
<trkpt lat="34.9953721" lon="33.5050676">
<ele>230.66</ele>
<time>2015-05-01T14:46:34Z</time>
</trkpt>
<trkpt lat="34.9953178" lon="33.5051271">
<ele>230.84</ele>
<time>2015-05-01T14:46:35Z</time>
</trkpt>
<trkpt lat="34.9952726" lon="33.5052064">
<ele>230.93</ele>
<time>2015-05-01T14:46:36Z</time>
</trkpt>
<trkpt lat="34.9952222" lon="33.5052738">
<ele>231.47</ele>
<time>2015-05-01T14:46:37Z</time>
</trkpt>
<trkpt lat="34.9951758" lon="33.5053376">
<ele>231.74</ele>
<time>2015-05-01T14:46:38Z</time>
</trkpt>
<trkpt lat="34.9951239" lon="33.5053952">
<ele>231.88</ele>
<time>2015-05-01T14:46:39Z</time>
</trkpt>
<trkpt lat="34.9950671" lon="33.5054617">
<ele>231.45</ele>
<time>2015-05-01T14:46:40Z</time>
</trkpt>
<trkpt lat="34.9950101" lon="33.5055285">
<ele>231.23</ele>
<time>2015-05-01T14:46:41Z</time>
</trkpt>
<trkpt lat="34.9949643" lon="33.5055906">
<ele>231.12</ele>
<time>2015-05-01T14:46:42Z</time>
</trkpt>
<trkpt lat="34.9949041" lon="33.5056564">
<ele>231.57</ele>
<time>2015-05-01T14:46:43Z</time>
</trkpt>
<trkpt lat="34.9948418" lon="33.5057255">
<ele>231.29</ele>
<time>2015-05-01T14:46:44Z</time>
</trkpt>
<trkpt lat="34.9947857" lon="33.5057954">
<ele>231.15</ele>
<time>2015-05-01T14:46:45Z</time>
</trkpt>
<trkpt lat="34.9947344" lon="33.5058518">
<ele>231.09</ele>
<time>2015-05-01T14:46:46Z</time>
</trkpt>
<trkpt lat="34.9946873" lon="33.5059102">
<ele>230.05</ele>
<time>2015-05-01T14:46:47Z</time>
</trkpt>
<trkpt lat="34.9946363" lon="33.5059672">
<ele>229.53</ele>
<time>2015-05-01T14:46:48Z</time>
</trkpt>
<trkpt lat="34.9945877" lon="33.5060266">
<ele>229.77</ele>
<time>2015-05-01T14:46:49Z</time>
</trkpt>
<trkpt lat="34.9945276" lon="33.5060875">
<ele>229.40</ele>
<time>2015-05-01T14:46:50Z</time>
</trkpt>
<trkpt lat="34.9944711" lon="33.5061513">
<ele>229.21</ele>
<time>2015-05-01T14:46:51Z</time>
</trkpt>
<trkpt lat="34.9944097" lon="33.5062180">
<ele>229.61</ele>
<time>2015-05-01T14:46:52Z</time>
</trkpt>
<trkpt lat="34.9943519" lon="33.5062786">
<ele>229.81</ele>
<time>2015-05-01T14:46:53Z</time>
</trkpt>
<trkpt lat="34.9942953" lon="33.5063317">
<ele>229.91</ele>
<time>2015-05-01T14:46:54Z</time>
</trkpt>
<trkpt lat="34.9942398" lon="33.5063874">
<ele>229.97</ele>
<time>2015-05-01T14:46:55Z</time>
</trkpt>
<trkpt lat="34.9941899" lon="33.5064518">
<ele>229.49</ele>
<time>2015-05-01T14:46:56Z</time>
</trkpt>
<trkpt lat="34.9941222" lon="33.5064933">
<ele>229.25</ele>
<time>2015-05-01T14:46:57Z</time>
</trkpt>
<trkpt lat="34.9940582" lon="33.5065293">
<ele>228.63</ele>
<time>2015-05-01T14:46:58Z</time>
</trkpt>
<trkpt lat="34.9940064" lon="33.5065822">
<ele>228.33</ele>
<time>2015-05-01T14:46:59Z</time>
</trkpt>
<trkpt lat="34.9939418" lon="33.5066318">
<ele>228.17</ele>
<time>2015-05-01T14:47:00Z</time>
</trkpt>
<trkpt lat="34.9938755" lon="33.5066785">
<ele>228.09</ele>
<time>2015-05-01T14:47:01Z</time>
</trkpt>
<trkpt lat="34.9938150" lon="33.5067231">
<ele>228.05</ele>
<time>2015-05-01T14:47:02Z</time>
</trkpt>
<trkpt lat="34.9937471" lon="33.5067496">
<ele>227.54</ele>
<time>2015-05-01T14:47:03Z</time>
</trkpt>
<trkpt lat="34.9936756" lon="33.5067930">
<ele>227.78</ele>
<time>2015-05-01T14:47:04Z</time>
</trkpt>
<trkpt lat="34.9936097" lon="33.5068218">
<ele>227.40</ele>
<time>2015-05-01T14:47:05Z</time>
</trkpt>
<trkpt lat="34.9935399" lon="33.5068625">
<ele>227.21</ele>
<time>2015-05-01T14:47:06Z</time>
</trkpt>
<trkpt lat="34.9934655" lon="33.5069030">
<ele>227.11</ele>
<time>2015-05-01T14:47:07Z</time>
</trkpt>
<trkpt lat="34.9933845" lon="33.5069378">
<ele>226.56</ele>
<time>2015-05-01T14:47:08Z</time>
</trkpt>
<trkpt lat="34.9933108" lon="33.5069722">
<ele>225.79</ele>
<time>2015-05-01T14:47:09Z</time>
</trkpt>
<trkpt lat="34.9932397" lon="33.5070005">
<ele>225.40</ele>
<time>2015-05-01T14:47:10Z</time>
</trkpt>
<trkpt lat="34.9931731" lon="33.5070309">
<ele>225.21</ele>
<time>2015-05-01T14:47:11Z</time>
</trkpt>
<trkpt lat="34.9930884" lon="33.5070647">
<ele>224.61</ele>
<time>2015-05-01T14:47:12Z</time>
</trkpt>
<trkpt lat="34.9930132" lon="33.5070968">
<ele>223.81</ele>
<time>2015-05-01T14:47:13Z</time>
</trkpt>
<trkpt lat="34.9929367" lon="33.5071276">
<ele>223.92</ele>
<time>2015-05-01T14:47:14Z</time>
</trkpt>
<trkpt lat="34.9928596" lon="33.5071652">
<ele>224.47</ele>
<time>2015-05-01T14:47:15Z</time>
</trkpt>
<trkpt lat="34.9927782" lon="33.5072020">
<ele>224.74</ele>
<time>2015-05-01T14:47:16Z</time>
</trkpt>
<trkpt lat="34.9926960" lon="33.5072352">
<ele>224.38</ele>
<time>2015-05-01T14:47:17Z</time>
</trkpt>
<trkpt lat="34.9926052" lon="33.5072630">
<ele>224.20</ele>
<time>2015-05-01T14:47:18Z</time>
</trkpt>
<trkpt lat="34.9925307" lon="33.5073041">
<ele>224.11</ele>
<time>2015-05-01T14:47:19Z</time>
</trkpt>
<trkpt lat="34.9924482" lon="33.5073370">
<ele>223.56</ele>
<time>2015-05-01T14:47:20Z</time>
</trkpt>
<trkpt lat="34.9923648" lon="33.5073601">
<ele>223.29</ele>
<time>2015-05-01T14:47:21Z</time>
</trkpt>
<trkpt lat="34.9922837" lon="33.5073952">
<ele>223.65</ele>
<time>2015-05-01T14:47:22Z</time>
</trkpt>
<trkpt lat="34.9921911" lon="33.5074340">
<ele>224.33</ele>
<time>2015-05-01T14:47:23Z</time>
</trkpt>
<trkpt lat="34.9920957" lon="33.5074724">
<ele>225.18</ele>
<time>2015-05-01T14:47:24Z</time>
</trkpt>
<trkpt lat="34.9919906" lon="33.5075117">
<ele>225.10</ele>
<time>2015-05-01T14:47:25Z</time>
</trkpt>
<trkpt lat="34.9918734" lon="33.5075545">
<ele>225.06</ele>
<time>2015-05-01T14:47:26Z</time>
</trkpt>
<trkpt lat="34.9917614" lon="33.5075977">
<ele>224.54</ele>
<time>2015-05-01T14:47:27Z</time>
</trkpt>
<trkpt lat="34.9916405" lon="33.5076412">
<ele>224.78</ele>
<time>2015-05-01T14:47:28Z</time>
</trkpt>
<trkpt lat="34.9915193" lon="33.5076920">
<ele>223.90</ele>
<time>2015-05-01T14:47:29Z</time>
</trkpt>
<trkpt lat="34.9913866" lon="33.5077394">
<ele>223.96</ele>
<time>2015-05-01T14:47:30Z</time>
</trkpt>
<trkpt lat="34.9912565" lon="33.5077969">
<ele>222.99</ele>
<time>2015-05-01T14:47:31Z</time>
</trkpt>
<trkpt lat="34.9911172" lon="33.5078557">
<ele>222.50</ele>
<time>2015-05-01T14:47:32Z</time>
</trkpt>
<trkpt lat="34.9909884" lon="33.5079099">
<ele>221.76</ele>
<time>2015-05-01T14:47:33Z</time>
</trkpt>
<trkpt lat="34.9908566" lon="33.5079649">
<ele>220.89</ele>
<time>2015-05-01T14:47:34Z</time>
</trkpt>
<trkpt lat="34.9907229" lon="33.5080049">
<ele>220.95</ele>
<time>2015-05-01T14:47:35Z</time>
</trkpt>
<trkpt lat="34.9905901" lon="33.5080720">
<ele>220.98</ele>
<time>2015-05-01T14:47:36Z</time>
</trkpt>
<trkpt lat="34.9904660" lon="33.5081185">
<ele>220.00</ele>
<time>2015-05-01T14:47:37Z</time>
</trkpt>
<trkpt lat="34.9903403" lon="33.5081693">
<ele>220.51</ele>
<time>2015-05-01T14:47:38Z</time>
</trkpt>
<trkpt lat="34.9902214" lon="33.5082202">
<ele>220.76</ele>
<time>2015-05-01T14:47:39Z</time>
</trkpt>
<trkpt lat="34.9900900" lon="33.5082703">
<ele>221.89</ele>
<time>2015-05-01T14:47:40Z</time>
</trkpt>
<trkpt lat="34.9899685" lon="33.5083261">
<ele>221.95</ele>
<time>2015-05-01T14:47:41Z</time>
</trkpt>
<trkpt lat="34.9898403" lon="33.5083796">
<ele>221.98</ele>
<time>2015-05-01T14:47:42Z</time>
</trkpt>
<trkpt lat="34.9897208" lon="33.5084227">
<ele>222.50</ele>
<time>2015-05-01T14:47:43Z</time>
</trkpt>
<trkpt lat="34.9895967" lon="33.5084757">
<ele>223.26</ele>
<time>2015-05-01T14:47:44Z</time>
</trkpt>
<trkpt lat="34.9894807" lon="33.5085310">
<ele>224.14</ele>
<time>2015-05-01T14:47:45Z</time>
</trkpt>
<trkpt lat="34.9893587" lon="33.5085830">
<ele>225.08</ele>
<time>2015-05-01T14:47:46Z</time>
</trkpt>
<trkpt lat="34.9892439" lon="33.5086228">
<ele>225.55</ele>
<time>2015-05-01T14:47:47Z</time>
</trkpt>
<trkpt lat="34.9891239" lon="33.5086651">
<ele>225.28</ele>
<time>2015-05-01T14:47:48Z</time>
</trkpt>
<trkpt lat="34.9890193" lon="33.5087095">
<ele>224.65</ele>
<time>2015-05-01T14:47:49Z</time>
</trkpt>
<trkpt lat="34.9889085" lon="33.5087502">
<ele>224.33</ele>
<time>2015-05-01T14:47:50Z</time>
</trkpt>
<trkpt lat="34.9888082" lon="33.5087946">
<ele>224.67</ele>
<time>2015-05-01T14:47:51Z</time>
</trkpt>
<trkpt lat="34.9887004" lon="33.5088410">
<ele>224.35</ele>
<time>2015-05-01T14:47:52Z</time>
</trkpt>
<trkpt lat="34.9885994" lon="33.5088840">
<ele>224.18</ele>
<time>2015-05-01T14:47:53Z</time>
</trkpt>
<trkpt lat="34.9885012" lon="33.5089239">
<ele>223.60</ele>
<time>2015-05-01T14:47:54Z</time>
</trkpt>
<trkpt lat="34.9884098" lon="33.5089686">
<ele>222.81</ele>
<time>2015-05-01T14:47:55Z</time>
</trkpt>
<trkpt lat="34.9883191" lon="33.5090152">
<ele>222.41</ele>
<time>2015-05-01T14:47:56Z</time>
</trkpt>
<trkpt lat="34.9882180" lon="33.5090459">
<ele>222.71</ele>
<time>2015-05-01T14:47:57Z</time>
</trkpt>
<trkpt lat="34.9881216" lon="33.5090880">
<ele>221.86</ele>
<time>2015-05-01T14:47:58Z</time>
</trkpt>
<trkpt lat="34.9880292" lon="33.5091266">
<ele>221.94</ele>
<time>2015-05-01T14:47:59Z</time>
</trkpt>
<trkpt lat="34.9879340" lon="33.5091706">
<ele>221.48</ele>
<time>2015-05-01T14:48:00Z</time>
</trkpt>
<trkpt lat="34.9878431" lon="33.5092018">
<ele>221.75</ele>
<time>2015-05-01T14:48:01Z</time>
</trkpt>
<trkpt lat="34.9877600" lon="33.5092361">
<ele>221.38</ele>
<time>2015-05-01T14:48:02Z</time>
</trkpt>
<trkpt lat="34.9876713" lon="33.5092718">
<ele>221.20</ele>
<time>2015-05-01T14:48:03Z</time>
</trkpt>
<trkpt lat="34.9875871" lon="33.5093195">
<ele>220.11</ele>
<time>2015-05-01T14:48:04Z</time>
</trkpt>
<trkpt lat="34.9875145" lon="33.5093612">
<ele>218.56</ele>
<time>2015-05-01T14:48:05Z</time>
</trkpt>
<trkpt lat="34.9874405" lon="33.5094068">
<ele>217.79</ele>
<time>2015-05-01T14:48:06Z</time>
</trkpt>
<trkpt lat="34.9873717" lon="33.5094530">
<ele>216.90</ele>
<time>2015-05-01T14:48:07Z</time>
</trkpt>
<trkpt lat="34.9872980" lon="33.5095140">
<ele>216.46</ele>
<time>2015-05-01T14:48:08Z</time>
</trkpt>
<trkpt lat="34.9872236" lon="33.5095607">
<ele>215.74</ele>
<time>2015-05-01T14:48:09Z</time>
</trkpt>
<trkpt lat="34.9871576" lon="33.5096088">
<ele>215.38</ele>
<time>2015-05-01T14:48:10Z</time>
</trkpt>
<trkpt lat="34.9870909" lon="33.5096559">
<ele>216.70</ele>
<time>2015-05-01T14:48:11Z</time>
</trkpt>
<trkpt lat="34.9870186" lon="33.5097085">
<ele>218.36</ele>
<time>2015-05-01T14:48:12Z</time>
</trkpt>
<trkpt lat="34.9869533" lon="33.5097402">
<ele>219.19</ele>
<time>2015-05-01T14:48:13Z</time>
</trkpt>
<trkpt lat="34.9868883" lon="33.5097904">
<ele>219.10</ele>
<time>2015-05-01T14:48:14Z</time>
</trkpt>
<trkpt lat="34.9868269" lon="33.5098355">
<ele>218.56</ele>
<time>2015-05-01T14:48:15Z</time>
</trkpt>
<trkpt lat="34.9867723" lon="33.5098941">
<ele>218.79</ele>
<time>2015-05-01T14:48:16Z</time>
</trkpt>
<trkpt lat="34.9867156" lon="33.5099508">
<ele>218.90</ele>
<time>2015-05-01T14:48:17Z</time>
</trkpt>
<trkpt lat="34.9866649" lon="33.5099976">
<ele>219.46</ele>
<time>2015-05-01T14:48:18Z</time>
</trkpt>
<trkpt lat="34.9866070" lon="33.5100530">
<ele>220.24</ele>
<time>2015-05-01T14:48:19Z</time>
</trkpt>
<trkpt lat="34.9865486" lon="33.5101071">
<ele>221.63</ele>
<time>2015-05-01T14:48:20Z</time>
</trkpt>
<trkpt lat="34.9864884" lon="33.5101701">
<ele>221.82</ele>
<time>2015-05-01T14:48:21Z</time>
</trkpt>
<trkpt lat="34.9864370" lon="33.5102241">
<ele>220.42</ele>
<time>2015-05-01T14:48:22Z</time>
</trkpt>
<trkpt lat="34.9863857" lon="33.5102776">
<ele>218.72</ele>
<time>2015-05-01T14:48:23Z</time>
</trkpt>
<trkpt lat="34.9863318" lon="33.5103389">
<ele>217.87</ele>
<time>2015-05-01T14:48:24Z</time>
</trkpt>
<trkpt lat="34.9862814" lon="33.5104010">
<ele>217.44</ele>
<time>2015-05-01T14:48:25Z</time>
</trkpt>
<trkpt lat="34.9862292" lon="33.5104642">
<ele>216.73</ele>
<time>2015-05-01T14:48:26Z</time>
</trkpt>
<trkpt lat="34.9861735" lon="33.5105284">
<ele>215.37</ele>
<time>2015-05-01T14:48:27Z</time>
</trkpt>
<trkpt lat="34.9861218" lon="33.5105886">
<ele>214.19</ele>
<time>2015-05-01T14:48:28Z</time>
</trkpt>
<trkpt lat="34.9860704" lon="33.5106537">
<ele>213.11</ele>
<time>2015-05-01T14:48:29Z</time>
</trkpt>
<trkpt lat="34.9860202" lon="33.5107247">
<ele>213.56</ele>
<time>2015-05-01T14:48:30Z</time>
</trkpt>
<trkpt lat="34.9859697" lon="33.5107920">
<ele>214.29</ele>
<time>2015-05-01T14:48:31Z</time>
</trkpt>
<trkpt lat="34.9859143" lon="33.5108611">
<ele>215.15</ele>
<time>2015-05-01T14:48:32Z</time>
</trkpt>
<trkpt lat="34.9858607" lon="33.5109372">
<ele>215.58</ele>
<time>2015-05-01T14:48:33Z</time>
</trkpt>
<trkpt lat="34.9858070" lon="33.5110051">
<ele>215.30</ele>
<time>2015-05-01T14:48:34Z</time>
</trkpt>
<trkpt lat="34.9857593" lon="33.5110829">
<ele>215.16</ele>
<time>2015-05-01T14:48:35Z</time>
</trkpt>
<trkpt lat="34.9857134" lon="33.5111557">
<ele>214.09</ele>
<time>2015-05-01T14:48:36Z</time>
</trkpt>
<trkpt lat="34.9856654" lon="33.5112356">
<ele>215.55</ele>
<time>2015-05-01T14:48:37Z</time>
</trkpt>
<trkpt lat="34.9856188" lon="33.5113118">
<ele>215.78</ele>
<time>2015-05-01T14:48:38Z</time>
</trkpt>
<trkpt lat="34.9855710" lon="33.5113908">
<ele>217.90</ele>
<time>2015-05-01T14:48:39Z</time>
</trkpt>
<trkpt lat="34.9855204" lon="33.5114667">
<ele>218.96</ele>
<time>2015-05-01T14:48:40Z</time>
</trkpt>
<trkpt lat="34.9854725" lon="33.5115448">
<ele>220.49</ele>
<time>2015-05-01T14:48:41Z</time>
</trkpt>
<trkpt lat="34.9854277" lon="33.5116270">
<ele>222.25</ele>
<time>2015-05-01T14:48:42Z</time>
</trkpt>
<trkpt lat="34.9853806" lon="33.5117028">
<ele>223.13</ele>
<time>2015-05-01T14:48:43Z</time>
</trkpt>
<trkpt lat="34.9853340" lon="33.5117740">
<ele>223.57</ele>
<time>2015-05-01T14:48:44Z</time>
</trkpt>
<trkpt lat="34.9852910" lon="33.5118421">
<ele>224.30</ele>
<time>2015-05-01T14:48:45Z</time>
</trkpt>
<trkpt lat="34.9852500" lon="33.5119074">
<ele>224.66</ele>
<time>2015-05-01T14:48:46Z</time>
</trkpt>
<trkpt lat="34.9852156" lon="33.5119644">
<ele>224.34</ele>
<time>2015-05-01T14:48:47Z</time>
</trkpt>
<trkpt lat="34.9851894" lon="33.5120209">
<ele>223.68</ele>
<time>2015-05-01T14:48:48Z</time>
</trkpt>
<trkpt lat="34.9851475" lon="33.5120990">
<ele>222.93</ele>
<time>2015-05-01T14:48:50Z</time>
</trkpt>
<trkpt lat="34.9851180" lon="33.5121451">
<ele>222.49</ele>
<time>2015-05-01T14:48:52Z</time>
</trkpt>
<trkpt lat="34.9851048" lon="33.5122149">
<ele>190.85</ele>
<time>2015-05-01T14:49:13Z</time>
</trkpt>
<trkpt lat="34.9850619" lon="33.5122805">
<ele>190.87</ele>
<time>2015-05-01T14:49:16Z</time>
</trkpt>
<trkpt lat="34.9850289" lon="33.5123283">
<ele>190.98</ele>
<time>2015-05-01T14:49:18Z</time>
</trkpt>
<trkpt lat="34.9849899" lon="33.5123789">
<ele>191.01</ele>
<time>2015-05-01T14:49:20Z</time>
</trkpt>
<trkpt lat="34.9849446" lon="33.5124380">
<ele>190.26</ele>
<time>2015-05-01T14:49:22Z</time>
</trkpt>
<trkpt lat="34.9848925" lon="33.5125112">
<ele>189.58</ele>
<time>2015-05-01T14:49:24Z</time>
</trkpt>
<trkpt lat="34.9848376" lon="33.5125922">
<ele>189.66</ele>
<time>2015-05-01T14:49:26Z</time>
</trkpt>
<trkpt lat="34.9848092" lon="33.5126348">
<ele>189.34</ele>
<time>2015-05-01T14:49:27Z</time>
</trkpt>
<trkpt lat="34.9847562" lon="33.5127124">
<ele>189.18</ele>
<time>2015-05-01T14:49:28Z</time>
</trkpt>
<trkpt lat="34.9847227" lon="33.5127650">
<ele>189.10</ele>
<time>2015-05-01T14:49:29Z</time>
</trkpt>
<trkpt lat="34.9846866" lon="33.5128104">
<ele>189.06</ele>
<time>2015-05-01T14:49:30Z</time>
</trkpt>
<trkpt lat="34.9846487" lon="33.5128660">
<ele>189.04</ele>
<time>2015-05-01T14:49:31Z</time>
</trkpt>
<trkpt lat="34.9846056" lon="33.5129276">
<ele>188.53</ele>
<time>2015-05-01T14:49:32Z</time>
</trkpt>
<trkpt lat="34.9845714" lon="33.5129814">
<ele>188.27</ele>
<time>2015-05-01T14:49:33Z</time>
</trkpt>
<trkpt lat="34.9845343" lon="33.5130415">
<ele>187.64</ele>
<time>2015-05-01T14:49:34Z</time>
</trkpt>
<trkpt lat="34.9844924" lon="33.5131018">
<ele>187.33</ele>
<time>2015-05-01T14:49:35Z</time>
</trkpt>
<trkpt lat="34.9844500" lon="33.5131701">
<ele>187.17</ele>
<time>2015-05-01T14:49:36Z</time>
</trkpt>
<trkpt lat="34.9844099" lon="33.5132313">
<ele>187.09</ele>
<time>2015-05-01T14:49:37Z</time>
</trkpt>
<trkpt lat="34.9843677" lon="33.5133008">
<ele>187.56</ele>
<time>2015-05-01T14:49:38Z</time>
</trkpt>
<trkpt lat="34.9843227" lon="33.5133740">
<ele>187.79</ele>
<time>2015-05-01T14:49:39Z</time>
</trkpt>
<trkpt lat="34.9842762" lon="33.5134448">
<ele>187.40</ele>
<time>2015-05-01T14:49:40Z</time>
</trkpt>
<trkpt lat="34.9842335" lon="33.5135188">
<ele>187.21</ele>
<time>2015-05-01T14:49:41Z</time>
</trkpt>
<trkpt lat="34.9841894" lon="33.5135868">
<ele>187.11</ele>
<time>2015-05-01T14:49:42Z</time>
</trkpt>
<trkpt lat="34.9841424" lon="33.5136530">
<ele>186.56</ele>
<time>2015-05-01T14:49:43Z</time>
</trkpt>
<trkpt lat="34.9840958" lon="33.5137267">
<ele>186.29</ele>
<time>2015-05-01T14:49:44Z</time>
</trkpt>
<trkpt lat="34.9840434" lon="33.5137985">
<ele>186.15</ele>
<time>2015-05-01T14:49:45Z</time>
</trkpt>
<trkpt lat="34.9839911" lon="33.5138676">
<ele>185.58</ele>
<time>2015-05-01T14:49:46Z</time>
</trkpt>
<trkpt lat="34.9839440" lon="33.5139527">
<ele>185.30</ele>
<time>2015-05-01T14:49:47Z</time>
</trkpt>
<trkpt lat="34.9838921" lon="33.5140321">
<ele>185.16</ele>
<time>2015-05-01T14:49:48Z</time>
</trkpt>
<trkpt lat="34.9838416" lon="33.5141032">
<ele>185.09</ele>
<time>2015-05-01T14:49:49Z</time>
</trkpt>
<trkpt lat="34.9837997" lon="33.5141766">
<ele>184.55</ele>
<time>2015-05-01T14:49:50Z</time>
</trkpt>
<trkpt lat="34.9837467" lon="33.5142540">
<ele>184.28</ele>
<time>2015-05-01T14:49:51Z</time>
</trkpt>
<trkpt lat="34.9836937" lon="33.5143354">
<ele>184.15</ele>
<time>2015-05-01T14:49:52Z</time>
</trkpt>
<trkpt lat="34.9836443" lon="33.5144185">
<ele>183.58</ele>
<time>2015-05-01T14:49:53Z</time>
</trkpt>
<trkpt lat="34.9835964" lon="33.5144923">
<ele>183.30</ele>
<time>2015-05-01T14:49:54Z</time>
</trkpt>
<trkpt lat="34.9835435" lon="33.5145647">
<ele>183.66</ele>
<time>2015-05-01T14:49:55Z</time>
</trkpt>
<trkpt lat="34.9834927" lon="33.5146434">
<ele>183.34</ele>
<time>2015-05-01T14:49:56Z</time>
</trkpt>
<trkpt lat="34.9834502" lon="33.5147334">
<ele>183.18</ele>
<time>2015-05-01T14:49:57Z</time>
</trkpt>
<trkpt lat="34.9834022" lon="33.5148187">
<ele>183.10</ele>
<time>2015-05-01T14:49:58Z</time>
</trkpt>
<trkpt lat="34.9833528" lon="33.5148869">
<ele>183.06</ele>
<time>2015-05-01T14:49:59Z</time>
</trkpt>
<trkpt lat="34.9833000" lon="33.5149697">
<ele>183.04</ele>
<time>2015-05-01T14:50:00Z</time>
</trkpt>
<trkpt lat="34.9832531" lon="33.5150405">
<ele>182.53</ele>
<time>2015-05-01T14:50:01Z</time>
</trkpt>
<trkpt lat="34.9831961" lon="33.5151063">
<ele>181.77</ele>
<time>2015-05-01T14:50:02Z</time>
</trkpt>
<trkpt lat="34.9831385" lon="33.5151743">
<ele>181.39</ele>
<time>2015-05-01T14:50:03Z</time>
</trkpt>
<trkpt lat="34.9830780" lon="33.5152441">
<ele>181.20</ele>
<time>2015-05-01T14:50:04Z</time>
</trkpt>
<trkpt lat="34.9830124" lon="33.5152931">
<ele>180.11</ele>
<time>2015-05-01T14:50:05Z</time>
</trkpt>
<trkpt lat="34.9829548" lon="33.5153433">
<ele>179.06</ele>
<time>2015-05-01T14:50:06Z</time>
</trkpt>
<trkpt lat="34.9828994" lon="33.5153853">
<ele>178.04</ele>
<time>2015-05-01T14:50:07Z</time>
</trkpt>
<trkpt lat="34.9828556" lon="33.5154272">
<ele>177.53</ele>
<time>2015-05-01T14:50:08Z</time>
</trkpt>
<trkpt lat="34.9828087" lon="33.5154572">
<ele>176.77</ele>
<time>2015-05-01T14:50:09Z</time>
</trkpt>
<trkpt lat="34.9827656" lon="33.5154848">
<ele>175.89</ele>
<time>2015-05-01T14:50:10Z</time>
</trkpt>
<trkpt lat="34.9827203" lon="33.5155103">
<ele>175.45</ele>
<time>2015-05-01T14:50:11Z</time>
</trkpt>
<trkpt lat="34.9826746" lon="33.5155350">
<ele>175.74</ele>
<time>2015-05-01T14:50:12Z</time>
</trkpt>
<trkpt lat="34.9826282" lon="33.5155542">
<ele>175.88</ele>
<time>2015-05-01T14:50:13Z</time>
</trkpt>
<trkpt lat="34.9825784" lon="33.5155751">
<ele>175.95</ele>
<time>2015-05-01T14:50:14Z</time>
</trkpt>
<trkpt lat="34.9825314" lon="33.5155877">
<ele>176.48</ele>
<time>2015-05-01T14:50:15Z</time>
</trkpt>
<trkpt lat="34.9824786" lon="33.5156023">
<ele>176.75</ele>
<time>2015-05-01T14:50:16Z</time>
</trkpt>
<trkpt lat="34.9824231" lon="33.5156069">
<ele>176.88</ele>
<time>2015-05-01T14:50:17Z</time>
</trkpt>
<trkpt lat="34.9823665" lon="33.5156181">
<ele>176.95</ele>
<time>2015-05-01T14:50:18Z</time>
</trkpt>
<trkpt lat="34.9823135" lon="33.5156275">
<ele>177.48</ele>
<time>2015-05-01T14:50:19Z</time>
</trkpt>
<trkpt lat="34.9822608" lon="33.5156336">
<ele>177.75</ele>
<time>2015-05-01T14:50:20Z</time>
</trkpt>
<trkpt lat="34.9822128" lon="33.5156386">
<ele>177.88</ele>
<time>2015-05-01T14:50:21Z</time>
</trkpt>
<trkpt lat="34.9821592" lon="33.5156405">
<ele>177.95</ele>
<time>2015-05-01T14:50:22Z</time>
</trkpt>
<trkpt lat="34.9820680" lon="33.5156482">
<ele>178.50</ele>
<time>2015-05-01T14:50:24Z</time>
</trkpt>
<trkpt lat="34.9820202" lon="33.5156546">
<ele>178.76</ele>
<time>2015-05-01T14:50:25Z</time>
</trkpt>
<trkpt lat="34.9819660" lon="33.5156594">
<ele>179.39</ele>
<time>2015-05-01T14:50:26Z</time>
</trkpt>
<trkpt lat="34.9818744" lon="33.5156817">
<ele>182.94</ele>
<time>2015-05-01T14:50:29Z</time>
</trkpt>
<trkpt lat="34.9818131" lon="33.5156899">
<ele>183.48</ele>
<time>2015-05-01T14:50:30Z</time>
</trkpt>
<trkpt lat="34.9817544" lon="33.5156981">
<ele>184.25</ele>
<time>2015-05-01T14:50:31Z</time>
</trkpt>
<trkpt lat="34.9817008" lon="33.5157065">
<ele>184.63</ele>
<time>2015-05-01T14:50:32Z</time>
</trkpt>
<trkpt lat="34.9816522" lon="33.5157226">
<ele>184.32</ele>
<time>2015-05-01T14:50:33Z</time>
</trkpt>
<trkpt lat="34.9816027" lon="33.5157394">
<ele>184.17</ele>
<time>2015-05-01T14:50:34Z</time>
</trkpt>
<trkpt lat="34.9815541" lon="33.5157571">
<ele>184.09</ele>
<time>2015-05-01T14:50:35Z</time>
</trkpt>
<trkpt lat="34.9815034" lon="33.5157738">
<ele>184.05</ele>
<time>2015-05-01T14:50:36Z</time>
</trkpt>
<trkpt lat="34.9814561" lon="33.5157961">
<ele>183.54</ele>
<time>2015-05-01T14:50:37Z</time>
</trkpt>
<trkpt lat="34.9814044" lon="33.5158121">
<ele>183.28</ele>
<time>2015-05-01T14:50:38Z</time>
</trkpt>
<trkpt lat="34.9813583" lon="33.5158415">
<ele>183.15</ele>
<time>2015-05-01T14:50:39Z</time>
</trkpt>
<trkpt lat="34.9813124" lon="33.5158666">
<ele>183.08</ele>
<time>2015-05-01T14:50:40Z</time>
</trkpt>
<trkpt lat="34.9812670" lon="33.5158979">
<ele>183.05</ele>
<time>2015-05-01T14:50:41Z</time>
</trkpt>
<trkpt lat="34.9812238" lon="33.5159325">
<ele>182.53</ele>
<time>2015-05-01T14:50:42Z</time>
</trkpt>
<trkpt lat="34.9811777" lon="33.5159628">
<ele>182.27</ele>
<time>2015-05-01T14:50:43Z</time>
</trkpt>
<trkpt lat="34.9811365" lon="33.5160007">
<ele>182.15</ele>
<time>2015-05-01T14:50:44Z</time>
</trkpt>
<trkpt lat="34.9810995" lon="33.5160360">
<ele>182.08</ele>
<time>2015-05-01T14:50:45Z</time>
</trkpt>
<trkpt lat="34.9810636" lon="33.5160782">
<ele>181.55</ele>
<time>2015-05-01T14:50:46Z</time>
</trkpt>
<trkpt lat="34.9810274" lon="33.5161208">
<ele>181.78</ele>
<time>2015-05-01T14:50:47Z</time>
</trkpt>
<trkpt lat="34.9809882" lon="33.5161532">
<ele>181.90</ele>
<time>2015-05-01T14:50:48Z</time>
</trkpt>
<trkpt lat="34.9809518" lon="33.5161887">
<ele>181.46</ele>
<time>2015-05-01T14:50:49Z</time>
</trkpt>
<trkpt lat="34.9809173" lon="33.5162293">
<ele>181.24</ele>
<time>2015-05-01T14:50:50Z</time>
</trkpt>
<trkpt lat="34.9808556" lon="33.5163136">
<ele>181.07</ele>
<time>2015-05-01T14:50:52Z</time>
</trkpt>
<trkpt lat="34.9807961" lon="33.5164026">
<ele>181.03</ele>
<time>2015-05-01T14:50:54Z</time>
</trkpt>
<trkpt lat="34.9807681" lon="33.5164475">
<ele>181.02</ele>
<time>2015-05-01T14:50:55Z</time>
</trkpt>
<trkpt lat="34.9807200" lon="33.5165293">
<ele>181.77</ele>
<time>2015-05-01T14:50:57Z</time>
</trkpt>
<trkpt lat="34.9806978" lon="33.5165816">
<ele>181.39</ele>
<time>2015-05-01T14:50:58Z</time>
</trkpt>
<trkpt lat="34.9806758" lon="33.5166370">
<ele>181.20</ele>
<time>2015-05-01T14:50:59Z</time>
</trkpt>
<trkpt lat="34.9806254" lon="33.5167202">
<ele>180.56</ele>
<time>2015-05-01T14:51:01Z</time>
</trkpt>
<trkpt lat="34.9805801" lon="33.5168031">
<ele>180.15</ele>
<time>2015-05-01T14:51:03Z</time>
</trkpt>
<trkpt lat="34.9805221" lon="33.5168877">
<ele>180.05</ele>
<time>2015-05-01T14:51:05Z</time>
</trkpt>
<trkpt lat="34.9804837" lon="33.5169549">
<ele>180.02</ele>
<time>2015-05-01T14:51:07Z</time>
</trkpt>
<trkpt lat="34.9804482" lon="33.5170331">
<ele>180.27</ele>
<time>2015-05-01T14:51:09Z</time>
</trkpt>
<trkpt lat="34.9804092" lon="33.5171126">
<ele>179.83</ele>
<time>2015-05-01T14:51:11Z</time>
</trkpt>
<trkpt lat="34.9803634" lon="33.5171968">
<ele>179.97</ele>
<time>2015-05-01T14:51:13Z</time>
</trkpt>
<trkpt lat="34.9803189" lon="33.5172691">
<ele>180.75</ele>
<time>2015-05-01T14:51:15Z</time>
</trkpt>
<trkpt lat="34.9802970" lon="33.5173410">
<ele>182.80</ele>
<time>2015-05-01T14:52:02Z</time>
</trkpt>
<trkpt lat="34.9802599" lon="33.5174056">
<ele>183.46</ele>
<time>2015-05-01T14:52:04Z</time>
</trkpt>
<trkpt lat="34.9802134" lon="33.5174887">
<ele>183.88</ele>
<time>2015-05-01T14:52:06Z</time>
</trkpt>
<trkpt lat="34.9801879" lon="33.5175345">
<ele>183.95</ele>
<time>2015-05-01T14:52:07Z</time>
</trkpt>
<trkpt lat="34.9801607" lon="33.5175838">
<ele>183.98</ele>
<time>2015-05-01T14:52:08Z</time>
</trkpt>
<trkpt lat="34.9801143" lon="33.5176618">
<ele>184.50</ele>
<time>2015-05-01T14:52:09Z</time>
</trkpt>
<trkpt lat="34.9800864" lon="33.5177131">
<ele>184.76</ele>
<time>2015-05-01T14:52:10Z</time>
</trkpt>
<trkpt lat="34.9800591" lon="33.5177592">
<ele>184.89</ele>
<time>2015-05-01T14:52:11Z</time>
</trkpt>
<trkpt lat="34.9800017" lon="33.5178378">
<ele>184.98</ele>
<time>2015-05-01T14:52:13Z</time>
</trkpt>
<trkpt lat="34.9799644" lon="33.5179170">
<ele>184.26</ele>
<time>2015-05-01T14:52:15Z</time>
</trkpt>
<trkpt lat="34.9799122" lon="33.5179849">
<ele>184.08</ele>
<time>2015-05-01T14:52:17Z</time>
</trkpt>
<trkpt lat="34.9798733" lon="33.5180526">
<ele>184.03</ele>
<time>2015-05-01T14:52:19Z</time>
</trkpt>
<trkpt lat="34.9798390" lon="33.5181272">
<ele>184.27</ele>
<time>2015-05-01T14:52:21Z</time>
</trkpt>
<trkpt lat="34.9797976" lon="33.5182037">
<ele>184.08</ele>
<time>2015-05-01T14:52:23Z</time>
</trkpt>
<trkpt lat="34.9797476" lon="33.5182829">
<ele>184.28</ele>
<time>2015-05-01T14:52:25Z</time>
</trkpt>
<trkpt lat="34.9796986" lon="33.5183660">
<ele>184.83</ele>
<time>2015-05-01T14:52:27Z</time>
</trkpt>
<trkpt lat="34.9796556" lon="33.5184276">
<ele>184.92</ele>
<time>2015-05-01T14:52:28Z</time>
</trkpt>
<trkpt lat="34.9796254" lon="33.5184825">
<ele>184.97</ele>
<time>2015-05-01T14:52:29Z</time>
</trkpt>
<trkpt lat="34.9795907" lon="33.5185279">
<ele>184.99</ele>
<time>2015-05-01T14:52:30Z</time>
</trkpt>
<trkpt lat="34.9795550" lon="33.5185784">
<ele>184.50</ele>
<time>2015-05-01T14:52:31Z</time>
</trkpt>
<trkpt lat="34.9795256" lon="33.5186372">
<ele>184.26</ele>
<time>2015-05-01T14:52:32Z</time>
</trkpt>
<trkpt lat="34.9795060" lon="33.5186870">
<ele>184.64</ele>
<time>2015-05-01T14:52:33Z</time>
</trkpt>
<trkpt lat="34.9794725" lon="33.5187398">
<ele>184.33</ele>
<time>2015-05-01T14:52:34Z</time>
</trkpt>
<trkpt lat="34.9794485" lon="33.5187871">
<ele>184.17</ele>
<time>2015-05-01T14:52:35Z</time>
</trkpt>
<trkpt lat="34.9794162" lon="33.5188375">
<ele>184.09</ele>
<time>2015-05-01T14:52:36Z</time>
</trkpt>
<trkpt lat="34.9793869" lon="33.5188903">
<ele>183.55</ele>
<time>2015-05-01T14:52:37Z</time>
</trkpt>
<trkpt lat="34.9793534" lon="33.5189390">
<ele>183.29</ele>
<time>2015-05-01T14:52:38Z</time>
</trkpt>
<trkpt lat="34.9793207" lon="33.5189868">
<ele>182.65</ele>
<time>2015-05-01T14:52:39Z</time>
</trkpt>
<trkpt lat="34.9792959" lon="33.5190394">
<ele>182.33</ele>
<time>2015-05-01T14:52:40Z</time>
</trkpt>
<trkpt lat="34.9792663" lon="33.5190874">
<ele>182.17</ele>
<time>2015-05-01T14:52:41Z</time>
</trkpt>
<trkpt lat="34.9791949" lon="33.5191742">
<ele>182.06</ele>
<time>2015-05-01T14:52:43Z</time>
</trkpt>
<trkpt lat="34.9791618" lon="33.5192268">
<ele>182.54</ele>
<time>2015-05-01T14:52:44Z</time>
</trkpt>
<trkpt lat="34.9791334" lon="33.5192788">
<ele>182.28</ele>
<time>2015-05-01T14:52:45Z</time>
</trkpt>
<trkpt lat="34.9791080" lon="33.5193327">
<ele>182.15</ele>
<time>2015-05-01T14:52:46Z</time>
</trkpt>
<trkpt lat="34.9790817" lon="33.5193870">
<ele>182.08</ele>
<time>2015-05-01T14:52:47Z</time>
</trkpt>
<trkpt lat="34.9790566" lon="33.5194472">
<ele>181.55</ele>
<time>2015-05-01T14:52:48Z</time>
</trkpt>
<trkpt lat="34.9790320" lon="33.5194980">
<ele>181.28</ele>
<time>2015-05-01T14:52:49Z</time>
</trkpt>
<trkpt lat="34.9789999" lon="33.5195499">
<ele>181.15</ele>
<time>2015-05-01T14:52:50Z</time>
</trkpt>
<trkpt lat="34.9789728" lon="33.5195955">
<ele>181.58</ele>
<time>2015-05-01T14:52:51Z</time>
</trkpt>
<trkpt lat="34.9789360" lon="33.5196527">
<ele>181.80</ele>
<time>2015-05-01T14:52:52Z</time>
</trkpt>
<trkpt lat="34.9789168" lon="33.5197074">
<ele>181.41</ele>
<time>2015-05-01T14:52:53Z</time>
</trkpt>
<trkpt lat="34.9788907" lon="33.5197609">
<ele>181.21</ele>
<time>2015-05-01T14:52:54Z</time>
</trkpt>
<trkpt lat="34.9788655" lon="33.5198182">
<ele>181.11</ele>
<time>2015-05-01T14:52:55Z</time>
</trkpt>
<trkpt lat="34.9788451" lon="33.5198716">
<ele>181.56</ele>
<time>2015-05-01T14:52:56Z</time>
</trkpt>
<trkpt lat="34.9788190" lon="33.5199300">
<ele>181.79</ele>
<time>2015-05-01T14:52:57Z</time>
</trkpt>
<trkpt lat="34.9787903" lon="33.5199849">
<ele>181.90</ele>
<time>2015-05-01T14:52:58Z</time>
</trkpt>
<trkpt lat="34.9787688" lon="33.5200392">
<ele>181.46</ele>
<time>2015-05-01T14:52:59Z</time>
</trkpt>
<trkpt lat="34.9787401" lon="33.5201008">
<ele>181.24</ele>
<time>2015-05-01T14:53:00Z</time>
</trkpt>
<trkpt lat="34.9787134" lon="33.5201592">
<ele>181.13</ele>
<time>2015-05-01T14:53:01Z</time>
</trkpt>
<trkpt lat="34.9786872" lon="33.5202173">
<ele>181.07</ele>
<time>2015-05-01T14:53:02Z</time>
</trkpt>
<trkpt lat="34.9786598" lon="33.5202687">
<ele>181.04</ele>
<time>2015-05-01T14:53:03Z</time>
</trkpt>
<trkpt lat="34.9786350" lon="33.5203270">
<ele>180.53</ele>
<time>2015-05-01T14:53:04Z</time>
</trkpt>
<trkpt lat="34.9786086" lon="33.5203914">
<ele>180.27</ele>
<time>2015-05-01T14:53:05Z</time>
</trkpt>
<trkpt lat="34.9785869" lon="33.5204638">
<ele>180.14</ele>
<time>2015-05-01T14:53:06Z</time>
</trkpt>
<trkpt lat="34.9785580" lon="33.5205320">
<ele>180.08</ele>
<time>2015-05-01T14:53:07Z</time>
</trkpt>
<trkpt lat="34.9785189" lon="33.5206064">
<ele>180.05</ele>
<time>2015-05-01T14:53:08Z</time>
</trkpt>
<trkpt lat="34.9784929" lon="33.5206815">
<ele>179.53</ele>
<time>2015-05-01T14:53:09Z</time>
</trkpt>
<trkpt lat="34.9784692" lon="33.5207571">
<ele>179.27</ele>
<time>2015-05-01T14:53:10Z</time>
</trkpt>
<trkpt lat="34.9784365" lon="33.5208344">
<ele>179.15</ele>
<time>2015-05-01T14:53:11Z</time>
</trkpt>
<trkpt lat="34.9784075" lon="33.5209107">
<ele>179.08</ele>
<time>2015-05-01T14:53:12Z</time>
</trkpt>
<trkpt lat="34.9783801" lon="33.5209871">
<ele>179.05</ele>
<time>2015-05-01T14:53:13Z</time>
</trkpt>
<trkpt lat="34.9783494" lon="33.5210777">
<ele>179.03</ele>
<time>2015-05-01T14:53:14Z</time>
</trkpt>
<trkpt lat="34.9783213" lon="33.5211556">
<ele>179.52</ele>
<time>2015-05-01T14:53:15Z</time>
</trkpt>
<trkpt lat="34.9782910" lon="33.5212398">
<ele>179.77</ele>
<time>2015-05-01T14:53:16Z</time>
</trkpt>
<trkpt lat="34.9782635" lon="33.5213162">
<ele>179.89</ele>
<time>2015-05-01T14:53:17Z</time>
</trkpt>
<trkpt lat="34.9782418" lon="33.5213944">
<ele>179.95</ele>
<time>2015-05-01T14:53:18Z</time>
</trkpt>
<trkpt lat="34.9782110" lon="33.5214759">
<ele>179.99</ele>
<time>2015-05-01T14:53:19Z</time>
</trkpt>
<trkpt lat="34.9781792" lon="33.5215683">
<ele>180.00</ele>
<time>2015-05-01T14:53:20Z</time>
</trkpt>
<trkpt lat="34.9781621" lon="33.5216520">
<ele>180.01</ele>
<time>2015-05-01T14:53:21Z</time>
</trkpt>
<trkpt lat="34.9781354" lon="33.5217309">
<ele>180.01</ele>
<time>2015-05-01T14:53:22Z</time>
</trkpt>
<trkpt lat="34.9781023" lon="33.5218144">
<ele>180.01</ele>
<time>2015-05-01T14:53:23Z</time>
</trkpt>
<trkpt lat="34.9780735" lon="33.5219083">
<ele>180.02</ele>
<time>2015-05-01T14:53:24Z</time>
</trkpt>
<trkpt lat="34.9780480" lon="33.5219922">
<ele>180.02</ele>
<time>2015-05-01T14:53:25Z</time>
</trkpt>
<trkpt lat="34.9780179" lon="33.5220792">
<ele>180.02</ele>
<time>2015-05-01T14:53:26Z</time>
</trkpt>
<trkpt lat="34.9779902" lon="33.5221720">
<ele>180.02</ele>
<time>2015-05-01T14:53:27Z</time>
</trkpt>
<trkpt lat="34.9779570" lon="33.5222674">
<ele>180.02</ele>
<time>2015-05-01T14:53:28Z</time>
</trkpt>
<trkpt lat="34.9779244" lon="33.5223672">
<ele>180.02</ele>
<time>2015-05-01T14:53:29Z</time>
</trkpt>
<trkpt lat="34.9778950" lon="33.5224624">
<ele>180.02</ele>
<time>2015-05-01T14:53:30Z</time>
</trkpt>
<trkpt lat="34.9778657" lon="33.5225552">
<ele>180.52</ele>
<time>2015-05-01T14:53:31Z</time>
</trkpt>
<trkpt lat="34.9778355" lon="33.5226508">
<ele>180.77</ele>
<time>2015-05-01T14:53:32Z</time>
</trkpt>
<trkpt lat="34.9778210" lon="33.5227361">
<ele>180.39</ele>
<time>2015-05-01T14:53:33Z</time>
</trkpt>
<trkpt lat="34.9777896" lon="33.5228225">
<ele>180.20</ele>
<time>2015-05-01T14:53:34Z</time>
</trkpt>
<trkpt lat="34.9777615" lon="33.5229090">
<ele>180.11</ele>
<time>2015-05-01T14:53:35Z</time>
</trkpt>
<trkpt lat="34.9777266" lon="33.5229922">
<ele>180.06</ele>
<time>2015-05-01T14:53:36Z</time>
</trkpt>
<trkpt lat="34.9776996" lon="33.5230734">
<ele>180.54</ele>
<time>2015-05-01T14:53:37Z</time>
</trkpt>
<trkpt lat="34.9776665" lon="33.5231609">
<ele>180.78</ele>
<time>2015-05-01T14:53:38Z</time>
</trkpt>
<trkpt lat="34.9776413" lon="33.5232428">
<ele>180.90</ele>
<time>2015-05-01T14:53:39Z</time>
</trkpt>
<trkpt lat="34.9776169" lon="33.5233318">
<ele>180.96</ele>
<time>2015-05-01T14:53:40Z</time>
</trkpt>
<trkpt lat="34.9775948" lon="33.5234268">
<ele>180.99</ele>
<time>2015-05-01T14:53:41Z</time>
</trkpt>
<trkpt lat="34.9775728" lon="33.5235101">
<ele>181.00</ele>
<time>2015-05-01T14:53:42Z</time>
</trkpt>
<trkpt lat="34.9775544" lon="33.5235708">
<ele>181.01</ele>
<time>2015-05-01T14:53:43Z</time>
</trkpt>
<trkpt lat="34.9775432" lon="33.5236323">
<ele>181.01</ele>
<time>2015-05-01T14:53:44Z</time>
</trkpt>
<trkpt lat="34.9775313" lon="33.5236869">
<ele>181.01</ele>
<time>2015-05-01T14:53:45Z</time>
</trkpt>
<trkpt lat="34.9775085" lon="33.5237517">
<ele>181.02</ele>
<time>2015-05-01T14:53:47Z</time>
</trkpt>
<trkpt lat="34.9774743" lon="33.5238009">
<ele>177.04</ele>
<time>2015-05-01T14:54:04Z</time>
</trkpt>
<trkpt lat="34.9774517" lon="33.5238520">
<ele>176.27</ele>
<time>2015-05-01T14:54:15Z</time>
</trkpt>
<trkpt lat="34.9774383" lon="33.5239126">
<ele>176.80</ele>
<time>2015-05-01T14:54:18Z</time>
</trkpt>
<trkpt lat="34.9774175" lon="33.5239889">
<ele>176.96</ele>
<time>2015-05-01T14:54:20Z</time>
</trkpt>
<trkpt lat="34.9773838" lon="33.5240866">
<ele>177.00</ele>
<time>2015-05-01T14:54:22Z</time>
</trkpt>
<trkpt lat="34.9773616" lon="33.5241383">
<ele>177.01</ele>
<time>2015-05-01T14:54:23Z</time>
</trkpt>
<trkpt lat="34.9773300" lon="33.5242047">
<ele>177.01</ele>
<time>2015-05-01T14:54:24Z</time>
</trkpt>
<trkpt lat="34.9772987" lon="33.5243017">
<ele>175.52</ele>
<time>2015-05-01T14:54:26Z</time>
</trkpt>
<trkpt lat="34.9772798" lon="33.5243555">
<ele>175.27</ele>
<time>2015-05-01T14:54:27Z</time>
</trkpt>
<trkpt lat="34.9772636" lon="33.5244096">
<ele>174.64</ele>
<time>2015-05-01T14:54:28Z</time>
</trkpt>
<trkpt lat="34.9772447" lon="33.5244618">
<ele>174.33</ele>
<time>2015-05-01T14:54:29Z</time>
</trkpt>
<trkpt lat="34.9772276" lon="33.5245133">
<ele>174.17</ele>
<time>2015-05-01T14:54:30Z</time>
</trkpt>
<trkpt lat="34.9772068" lon="33.5245630">
<ele>174.09</ele>
<time>2015-05-01T14:54:31Z</time>
</trkpt>
<trkpt lat="34.9771868" lon="33.5246220">
<ele>174.06</ele>
<time>2015-05-01T14:54:32Z</time>
</trkpt>
<trkpt lat="34.9771662" lon="33.5246886">
<ele>173.54</ele>
<time>2015-05-01T14:54:33Z</time>
</trkpt>
<trkpt lat="34.9771439" lon="33.5247442">
<ele>173.28</ele>
<time>2015-05-01T14:54:34Z</time>
</trkpt>
<trkpt lat="34.9771228" lon="33.5248078">
<ele>173.15</ele>
<time>2015-05-01T14:54:35Z</time>
</trkpt>
<trkpt lat="34.9770998" lon="33.5248801">
<ele>173.08</ele>
<time>2015-05-01T14:54:36Z</time>
</trkpt>
<trkpt lat="34.9770740" lon="33.5249471">
<ele>173.05</ele>
<time>2015-05-01T14:54:37Z</time>
</trkpt>
<trkpt lat="34.9770519" lon="33.5250058">
<ele>173.03</ele>
<time>2015-05-01T14:54:38Z</time>
</trkpt>
<trkpt lat="34.9770309" lon="33.5250653">
<ele>173.02</ele>
<time>2015-05-01T14:54:39Z</time>
</trkpt>
<trkpt lat="34.9770112" lon="33.5251340">
<ele>173.02</ele>
<time>2015-05-01T14:54:40Z</time>
</trkpt>
<trkpt lat="34.9769879" lon="33.5252004">
<ele>173.52</ele>
<time>2015-05-01T14:54:41Z</time>
</trkpt>
<trkpt lat="34.9769636" lon="33.5252656">
<ele>173.27</ele>
<time>2015-05-01T14:54:42Z</time>
</trkpt>
<trkpt lat="34.9769415" lon="33.5253275">
<ele>173.14</ele>
<time>2015-05-01T14:54:43Z</time>
</trkpt>
<trkpt lat="34.9769138" lon="33.5254020">
<ele>173.08</ele>
<time>2015-05-01T14:54:44Z</time>
</trkpt>
<trkpt lat="34.9768885" lon="33.5254559">
<ele>173.05</ele>
<time>2015-05-01T14:54:45Z</time>
</trkpt>
<trkpt lat="34.9768630" lon="33.5255072">
<ele>173.03</ele>
<time>2015-05-01T14:54:46Z</time>
</trkpt>
<trkpt lat="34.9768218" lon="33.5256160">
<ele>172.27</ele>
<time>2015-05-01T14:54:48Z</time>
</trkpt>
<trkpt lat="34.9768022" lon="33.5256778">
<ele>172.14</ele>
<time>2015-05-01T14:54:49Z</time>
</trkpt>
<trkpt lat="34.9767816" lon="33.5257378">
<ele>172.08</ele>
<time>2015-05-01T14:54:50Z</time>
</trkpt>
<trkpt lat="34.9767635" lon="33.5257943">
<ele>172.05</ele>
<time>2015-05-01T14:54:51Z</time>
</trkpt>
<trkpt lat="34.9767415" lon="33.5258557">
<ele>172.03</ele>
<time>2015-05-01T14:54:52Z</time>
</trkpt>
<trkpt lat="34.9767132" lon="33.5259136">
<ele>172.02</ele>
<time>2015-05-01T14:54:53Z</time>
</trkpt>
<trkpt lat="34.9766871" lon="33.5259792">
<ele>172.02</ele>
<time>2015-05-01T14:54:54Z</time>
</trkpt>
<trkpt lat="34.9766632" lon="33.5260425">
<ele>172.02</ele>
<time>2015-05-01T14:54:55Z</time>
</trkpt>
<trkpt lat="34.9766396" lon="33.5261073">
<ele>172.52</ele>
<time>2015-05-01T14:54:56Z</time>
</trkpt>
<trkpt lat="34.9766162" lon="33.5261719">
<ele>172.77</ele>
<time>2015-05-01T14:54:57Z</time>
</trkpt>
<trkpt lat="34.9765944" lon="33.5262330">
<ele>172.89</ele>
<time>2015-05-01T14:54:58Z</time>
</trkpt>
<trkpt lat="34.9765750" lon="33.5262854">
<ele>172.95</ele>
<time>2015-05-01T14:54:59Z</time>
</trkpt>
<trkpt lat="34.9765578" lon="33.5263413">
<ele>172.98</ele>
<time>2015-05-01T14:55:00Z</time>
</trkpt>
<trkpt lat="34.9765196" lon="33.5264387">
<ele>171.76</ele>
<time>2015-05-01T14:55:02Z</time>
</trkpt>
<trkpt lat="34.9764808" lon="33.5265386">
<ele>171.45</ele>
<time>2015-05-01T14:55:04Z</time>
</trkpt>
<trkpt lat="34.9764574" lon="33.5265962">
<ele>171.23</ele>
<time>2015-05-01T14:55:05Z</time>
</trkpt>
<trkpt lat="34.9764325" lon="33.5266530">
<ele>171.12</ele>
<time>2015-05-01T14:55:06Z</time>
</trkpt>
<trkpt lat="34.9764065" lon="33.5267055">
<ele>171.07</ele>
<time>2015-05-01T14:55:07Z</time>
</trkpt>
<trkpt lat="34.9763798" lon="33.5267686">
<ele>171.04</ele>
<time>2015-05-01T14:55:08Z</time>
</trkpt>
<trkpt lat="34.9763565" lon="33.5268238">
<ele>171.53</ele>
<time>2015-05-01T14:55:09Z</time>
</trkpt>
<trkpt lat="34.9763276" lon="33.5268877">
<ele>171.77</ele>
<time>2015-05-01T14:55:10Z</time>
</trkpt>
<trkpt lat="34.9763012" lon="33.5269473">
<ele>171.39</ele>
<time>2015-05-01T14:55:11Z</time>
</trkpt>
<trkpt lat="34.9762682" lon="33.5270146">
<ele>171.21</ele>
<time>2015-05-01T14:55:12Z</time>
</trkpt>
<trkpt lat="34.9762393" lon="33.5270777">
<ele>171.11</ele>
<time>2015-05-01T14:55:13Z</time>
</trkpt>
<trkpt lat="34.9762066" lon="33.5271349">
<ele>171.06</ele>
<time>2015-05-01T14:55:14Z</time>
</trkpt>
<trkpt lat="34.9761760" lon="33.5271910">
<ele>171.04</ele>
<time>2015-05-01T14:55:15Z</time>
</trkpt>
<trkpt lat="34.9761420" lon="33.5272506">
<ele>171.03</ele>
<time>2015-05-01T14:55:16Z</time>
</trkpt>
<trkpt lat="34.9761094" lon="33.5273100">
<ele>171.02</ele>
<time>2015-05-01T14:55:17Z</time>
</trkpt>
<trkpt lat="34.9760754" lon="33.5273676">
<ele>170.52</ele>
<time>2015-05-01T14:55:18Z</time>
</trkpt>
<trkpt lat="34.9760411" lon="33.5274215">
<ele>170.27</ele>
<time>2015-05-01T14:55:19Z</time>
</trkpt>
<trkpt lat="34.9760016" lon="33.5274724">
<ele>170.14</ele>
<time>2015-05-01T14:55:20Z</time>
</trkpt>
<trkpt lat="34.9759664" lon="33.5275258">
<ele>170.08</ele>
<time>2015-05-01T14:55:21Z</time>
</trkpt>
<trkpt lat="34.9759348" lon="33.5275804">
<ele>169.55</ele>
<time>2015-05-01T14:55:22Z</time>
</trkpt>
<trkpt lat="34.9759001" lon="33.5276330">
<ele>169.28</ele>
<time>2015-05-01T14:55:23Z</time>
</trkpt>
<trkpt lat="34.9758600" lon="33.5276878">
<ele>169.15</ele>
<time>2015-05-01T14:55:24Z</time>
</trkpt>
<trkpt lat="34.9758231" lon="33.5277385">
<ele>168.58</ele>
<time>2015-05-01T14:55:25Z</time>
</trkpt>
<trkpt lat="34.9757875" lon="33.5277909">
<ele>168.30</ele>
<time>2015-05-01T14:55:26Z</time>
</trkpt>
<trkpt lat="34.9757519" lon="33.5278420">
<ele>168.16</ele>
<time>2015-05-01T14:55:27Z</time>
</trkpt>
<trkpt lat="34.9757155" lon="33.5278979">
<ele>168.09</ele>
<time>2015-05-01T14:55:28Z</time>
</trkpt>
<trkpt lat="34.9756820" lon="33.5279476">
<ele>168.05</ele>
<time>2015-05-01T14:55:29Z</time>
</trkpt>
<trkpt lat="34.9756444" lon="33.5280007">
<ele>167.53</ele>
<time>2015-05-01T14:55:30Z</time>
</trkpt>
<trkpt lat="34.9756045" lon="33.5280543">
<ele>167.27</ele>
<time>2015-05-01T14:55:31Z</time>
</trkpt>
<trkpt lat="34.9755617" lon="33.5281166">
<ele>167.15</ele>
<time>2015-05-01T14:55:32Z</time>
</trkpt>
<trkpt lat="34.9755155" lon="33.5281764">
<ele>167.08</ele>
<time>2015-05-01T14:55:33Z</time>
</trkpt>
<trkpt lat="34.9754683" lon="33.5282380">
<ele>167.05</ele>
<time>2015-05-01T14:55:34Z</time>
</trkpt>
<trkpt lat="34.9754339" lon="33.5283046">
<ele>167.03</ele>
<time>2015-05-01T14:55:35Z</time>
</trkpt>
<trkpt lat="34.9753883" lon="33.5283671">
<ele>167.52</ele>
<time>2015-05-01T14:55:36Z</time>
</trkpt>
<trkpt lat="34.9753408" lon="33.5284285">
<ele>167.77</ele>
<time>2015-05-01T14:55:37Z</time>
</trkpt>
<trkpt lat="34.9752944" lon="33.5284813">
<ele>167.89</ele>
<time>2015-05-01T14:55:38Z</time>
</trkpt>
<trkpt lat="34.9752479" lon="33.5285321">
<ele>167.95</ele>
<time>2015-05-01T14:55:39Z</time>
</trkpt>
<trkpt lat="34.9751993" lon="33.5286000">
<ele>168.49</ele>
<time>2015-05-01T14:55:40Z</time>
</trkpt>
<trkpt lat="34.9751563" lon="33.5286578">
<ele>168.25</ele>
<time>2015-05-01T14:55:41Z</time>
</trkpt>
<trkpt lat="34.9751114" lon="33.5287238">
<ele>168.63</ele>
<time>2015-05-01T14:55:42Z</time>
</trkpt>
<trkpt lat="34.9750653" lon="33.5287848">
<ele>168.32</ele>
<time>2015-05-01T14:55:43Z</time>
</trkpt>
<trkpt lat="34.9750205" lon="33.5288499">
<ele>168.17</ele>
<time>2015-05-01T14:55:44Z</time>
</trkpt>
<trkpt lat="34.9749754" lon="33.5289065">
<ele>168.59</ele>
<time>2015-05-01T14:55:45Z</time>
</trkpt>
<trkpt lat="34.9749320" lon="33.5289718">
<ele>168.30</ele>
<time>2015-05-01T14:55:46Z</time>
</trkpt>
<trkpt lat="34.9748884" lon="33.5290332">
<ele>168.16</ele>
<time>2015-05-01T14:55:47Z</time>
</trkpt>
<trkpt lat="34.9748380" lon="33.5290942">
<ele>168.59</ele>
<time>2015-05-01T14:55:48Z</time>
</trkpt>
<trkpt lat="34.9747924" lon="33.5291530">
<ele>168.30</ele>
<time>2015-05-01T14:55:49Z</time>
</trkpt>
<trkpt lat="34.9747510" lon="33.5292042">
<ele>168.16</ele>
<time>2015-05-01T14:55:50Z</time>
</trkpt>
<trkpt lat="34.9747083" lon="33.5292632">
<ele>167.59</ele>
<time>2015-05-01T14:55:51Z</time>
</trkpt>
<trkpt lat="34.9746687" lon="33.5293238">
<ele>167.30</ele>
<time>2015-05-01T14:55:52Z</time>
</trkpt>
<trkpt lat="34.9746202" lon="33.5293932">
<ele>167.16</ele>
<time>2015-05-01T14:55:53Z</time>
</trkpt>
<trkpt lat="34.9745754" lon="33.5294558">
<ele>167.09</ele>
<time>2015-05-01T14:55:54Z</time>
</trkpt>
<trkpt lat="34.9745294" lon="33.5295186">
<ele>167.05</ele>
<time>2015-05-01T14:55:55Z</time>
</trkpt>
<trkpt lat="34.9744762" lon="33.5295842">
<ele>167.03</ele>
<time>2015-05-01T14:55:56Z</time>
</trkpt>
<trkpt lat="34.9744242" lon="33.5296488">
<ele>167.02</ele>
<time>2015-05-01T14:55:57Z</time>
</trkpt>
<trkpt lat="34.9743791" lon="33.5297158">
<ele>166.52</ele>
<time>2015-05-01T14:55:58Z</time>
</trkpt>
<trkpt lat="34.9743266" lon="33.5297821">
<ele>166.27</ele>
<time>2015-05-01T14:55:59Z</time>
</trkpt>
<trkpt lat="34.9742736" lon="33.5298516">
<ele>166.14</ele>
<time>2015-05-01T14:56:00Z</time>
</trkpt>
<trkpt lat="34.9742208" lon="33.5299238">
<ele>165.08</ele>
<time>2015-05-01T14:56:01Z</time>
</trkpt>
<trkpt lat="34.9741700" lon="33.5299976">
<ele>164.55</ele>
<time>2015-05-01T14:56:02Z</time>
</trkpt>
<trkpt lat="34.9741236" lon="33.5300757">
<ele>164.28</ele>
<time>2015-05-01T14:56:03Z</time>
</trkpt>
<trkpt lat="34.9740704" lon="33.5301532">
<ele>164.15</ele>
<time>2015-05-01T14:56:04Z</time>
</trkpt>
<trkpt lat="34.9740103" lon="33.5302321">
<ele>164.08</ele>
<time>2015-05-01T14:56:05Z</time>
</trkpt>
<trkpt lat="34.9739541" lon="33.5303126">
<ele>163.55</ele>
<time>2015-05-01T14:56:06Z</time>
</trkpt>
<trkpt lat="34.9739012" lon="33.5303982">
<ele>163.28</ele>
<time>2015-05-01T14:56:07Z</time>
</trkpt>
<trkpt lat="34.9738465" lon="33.5304915">
<ele>163.15</ele>
<time>2015-05-01T14:56:08Z</time>
</trkpt>
<trkpt lat="34.9737939" lon="33.5305877">
<ele>162.58</ele>
<time>2015-05-01T14:56:09Z</time>
</trkpt>
<trkpt lat="34.9737445" lon="33.5306796">
<ele>162.30</ele>
<time>2015-05-01T14:56:10Z</time>
</trkpt>
<trkpt lat="34.9736923" lon="33.5307697">
<ele>162.16</ele>
<time>2015-05-01T14:56:11Z</time>
</trkpt>
<trkpt lat="34.9736349" lon="33.5308762">
<ele>161.59</ele>
<time>2015-05-01T14:56:12Z</time>
</trkpt>
<trkpt lat="34.9735841" lon="33.5309792">
<ele>161.30</ele>
<time>2015-05-01T14:56:13Z</time>
</trkpt>
<trkpt lat="34.9735288" lon="33.5310864">
<ele>160.66</ele>
<time>2015-05-01T14:56:14Z</time>
</trkpt>
<trkpt lat="34.9734856" lon="33.5312000">
<ele>159.84</ele>
<time>2015-05-01T14:56:15Z</time>
</trkpt>
<trkpt lat="34.9734379" lon="33.5313105">
<ele>158.93</ele>
<time>2015-05-01T14:56:16Z</time>
</trkpt>
<trkpt lat="34.9733908" lon="33.5314220">
<ele>157.97</ele>
<time>2015-05-01T14:56:17Z</time>
</trkpt>
<trkpt lat="34.9733553" lon="33.5315445">
<ele>156.99</ele>
<time>2015-05-01T14:56:18Z</time>
</trkpt>
<trkpt lat="34.9733179" lon="33.5316509">
<ele>156.00</ele>
<time>2015-05-01T14:56:19Z</time>
</trkpt>
<trkpt lat="34.9732768" lon="33.5317728">
<ele>155.01</ele>
<time>2015-05-01T14:56:20Z</time>
</trkpt>
<trkpt lat="34.9732474" lon="33.5319075">
<ele>155.51</ele>
<time>2015-05-01T14:56:21Z</time>
</trkpt>
<trkpt lat="34.9732068" lon="33.5320230">
<ele>155.26</ele>
<time>2015-05-01T14:56:22Z</time>
</trkpt>
<trkpt lat="34.9731688" lon="33.5321488">
<ele>154.64</ele>
<time>2015-05-01T14:56:23Z</time>
</trkpt>
<trkpt lat="34.9731278" lon="33.5322770">
<ele>153.83</ele>
<time>2015-05-01T14:56:24Z</time>
</trkpt>
<trkpt lat="34.9730893" lon="33.5324104">
<ele>152.92</ele>
<time>2015-05-01T14:56:25Z</time>
</trkpt>
<trkpt lat="34.9730560" lon="33.5325324">
<ele>151.97</ele>
<time>2015-05-01T14:56:26Z</time>
</trkpt>
<trkpt lat="34.9730181" lon="33.5326596">
<ele>151.49</ele>
<time>2015-05-01T14:56:27Z</time>
</trkpt>
<trkpt lat="34.9729894" lon="33.5327967">
<ele>150.75</ele>
<time>2015-05-01T14:56:28Z</time>
</trkpt>
<trkpt lat="34.9729530" lon="33.5329277">
<ele>150.39</ele>
<time>2015-05-01T14:56:29Z</time>
</trkpt>
<trkpt lat="34.9729134" lon="33.5330595">
<ele>150.20</ele>
<time>2015-05-01T14:56:30Z</time>
</trkpt>
<trkpt lat="34.9728788" lon="33.5332005">
<ele>149.61</ele>
<time>2015-05-01T14:56:31Z</time>
</trkpt>
<trkpt lat="34.9728445" lon="33.5333394">
<ele>148.81</ele>
<time>2015-05-01T14:56:32Z</time>
</trkpt>
<trkpt lat="34.9728022" lon="33.5334762">
<ele>148.41</ele>
<time>2015-05-01T14:56:33Z</time>
</trkpt>
<trkpt lat="34.9727605" lon="33.5336102">
<ele>148.22</ele>
<time>2015-05-01T14:56:34Z</time>
</trkpt>
<trkpt lat="34.9727232" lon="33.5337605">
<ele>147.12</ele>
<time>2015-05-01T14:56:35Z</time>
</trkpt>
<trkpt lat="34.9726844" lon="33.5339060">
<ele>146.57</ele>
<time>2015-05-01T14:56:36Z</time>
</trkpt>
<trkpt lat="34.9726393" lon="33.5340452">
<ele>145.79</ele>
<time>2015-05-01T14:56:37Z</time>
</trkpt>
<trkpt lat="34.9725995" lon="33.5341784">
<ele>144.90</ele>
<time>2015-05-01T14:56:38Z</time>
</trkpt>
<trkpt lat="34.9725558" lon="33.5343111">
<ele>144.46</ele>
<time>2015-05-01T14:56:39Z</time>
</trkpt>
<trkpt lat="34.9725078" lon="33.5344505">
<ele>144.24</ele>
<time>2015-05-01T14:56:40Z</time>
</trkpt>
<trkpt lat="34.9724679" lon="33.5345831">
<ele>144.13</ele>
<time>2015-05-01T14:56:41Z</time>
</trkpt>
<trkpt lat="34.9724308" lon="33.5347131">
<ele>143.57</ele>
<time>2015-05-01T14:56:42Z</time>
</trkpt>
<trkpt lat="34.9723904" lon="33.5348478">
<ele>142.79</ele>
<time>2015-05-01T14:56:43Z</time>
</trkpt>
<trkpt lat="34.9723548" lon="33.5349805">
<ele>143.40</ele>
<time>2015-05-01T14:56:44Z</time>
</trkpt>
<trkpt lat="34.9723198" lon="33.5351168">
<ele>143.71</ele>
<time>2015-05-01T14:56:45Z</time>
</trkpt>
<trkpt lat="34.9722843" lon="33.5352338">
<ele>144.36</ele>
<time>2015-05-01T14:56:46Z</time>
</trkpt>
<trkpt lat="34.9722526" lon="33.5353610">
<ele>144.19</ele>
<time>2015-05-01T14:56:47Z</time>
</trkpt>
<trkpt lat="34.9722153" lon="33.5354888">
<ele>144.10</ele>
<time>2015-05-01T14:56:48Z</time>
</trkpt>
<trkpt lat="34.9721778" lon="33.5356135">
<ele>144.06</ele>
<time>2015-05-01T14:56:49Z</time>
</trkpt>
<trkpt lat="34.9721381" lon="33.5357382">
<ele>144.04</ele>
<time>2015-05-01T14:56:50Z</time>
</trkpt>
<trkpt lat="34.9721057" lon="33.5358650">
<ele>144.03</ele>
<time>2015-05-01T14:56:51Z</time>
</trkpt>
<trkpt lat="34.9720709" lon="33.5359788">
<ele>144.02</ele>
<time>2015-05-01T14:56:52Z</time>
</trkpt>
<trkpt lat="34.9720359" lon="33.5360911">
<ele>144.02</ele>
<time>2015-05-01T14:56:53Z</time>
</trkpt>
<trkpt lat="34.9719958" lon="33.5362019">
<ele>144.02</ele>
<time>2015-05-01T14:56:54Z</time>
</trkpt>
<trkpt lat="34.9719650" lon="33.5363130">
<ele>144.02</ele>
<time>2015-05-01T14:56:55Z</time>
</trkpt>
<trkpt lat="34.9719268" lon="33.5364321">
<ele>144.02</ele>
<time>2015-05-01T14:56:56Z</time>
</trkpt>
<trkpt lat="34.9718898" lon="33.5365283">
<ele>144.52</ele>
<time>2015-05-01T14:56:57Z</time>
</trkpt>
<trkpt lat="34.9718553" lon="33.5366468">
<ele>144.77</ele>
<time>2015-05-01T14:56:58Z</time>
</trkpt>
<trkpt lat="34.9718279" lon="33.5367591">
<ele>144.39</ele>
<time>2015-05-01T14:56:59Z</time>
</trkpt>
<trkpt lat="34.9717946" lon="33.5368694">
<ele>144.70</ele>
<time>2015-05-01T14:57:00Z</time>
</trkpt>
<trkpt lat="34.9717664" lon="33.5369762">
<ele>144.86</ele>
<time>2015-05-01T14:57:01Z</time>
</trkpt>
<trkpt lat="34.9717287" lon="33.5370750">
<ele>144.44</ele>
<time>2015-05-01T14:57:02Z</time>
</trkpt>
<trkpt lat="34.9717092" lon="33.5371921">
<ele>144.23</ele>
<time>2015-05-01T14:57:03Z</time>
</trkpt>
<trkpt lat="34.9716702" lon="33.5372986">
<ele>144.12</ele>
<time>2015-05-01T14:57:04Z</time>
</trkpt>
<trkpt lat="34.9716373" lon="33.5374050">
<ele>144.07</ele>
<time>2015-05-01T14:57:05Z</time>
</trkpt>
<trkpt lat="34.9716026" lon="33.5375074">
<ele>144.04</ele>
<time>2015-05-01T14:57:06Z</time>
</trkpt>
<trkpt lat="34.9715722" lon="33.5376045">
<ele>143.03</ele>
<time>2015-05-01T14:57:07Z</time>
</trkpt>
<trkpt lat="34.9715409" lon="33.5377102">
<ele>142.02</ele>
<time>2015-05-01T14:57:08Z</time>
</trkpt>
<trkpt lat="34.9715065" lon="33.5377965">
<ele>141.02</ele>
<time>2015-05-01T14:57:09Z</time>
</trkpt>
<trkpt lat="34.9714761" lon="33.5378901">
<ele>140.52</ele>
<time>2015-05-01T14:57:10Z</time>
</trkpt>
<trkpt lat="34.9714428" lon="33.5379760">
<ele>140.27</ele>
<time>2015-05-01T14:57:11Z</time>
</trkpt>
<trkpt lat="34.9714045" lon="33.5380708">
<ele>140.14</ele>
<time>2015-05-01T14:57:12Z</time>
</trkpt>
<trkpt lat="34.9713755" lon="33.5381628">
<ele>139.08</ele>
<time>2015-05-01T14:57:13Z</time>
</trkpt>
<trkpt lat="34.9713432" lon="33.5382475">
<ele>139.05</ele>
<time>2015-05-01T14:57:14Z</time>
</trkpt>
<trkpt lat="34.9713023" lon="33.5383371">
<ele>138.53</ele>
<time>2015-05-01T14:57:15Z</time>
</trkpt>
<trkpt lat="34.9712613" lon="33.5384287">
<ele>138.27</ele>
<time>2015-05-01T14:57:16Z</time>
</trkpt>
<trkpt lat="34.9712235" lon="33.5385198">
<ele>138.14</ele>
<time>2015-05-01T14:57:17Z</time>
</trkpt>
<trkpt lat="34.9711901" lon="33.5385994">
<ele>137.58</ele>
<time>2015-05-01T14:57:18Z</time>
</trkpt>
<trkpt lat="34.9711592" lon="33.5386762">
<ele>137.30</ele>
<time>2015-05-01T14:57:19Z</time>
</trkpt>
<trkpt lat="34.9711277" lon="33.5387356">
<ele>137.09</ele>
<time>2015-05-01T14:57:21Z</time>
</trkpt>
<trkpt lat="34.9710821" lon="33.5388205">
<ele>135.27</ele>
<time>2015-05-01T14:57:42Z</time>
</trkpt>
<trkpt lat="34.9710406" lon="33.5389086">
<ele>135.33</ele>
<time>2015-05-01T14:57:44Z</time>
</trkpt>
<trkpt lat="34.9710082" lon="33.5389560">
<ele>135.67</ele>
<time>2015-05-01T14:57:45Z</time>
</trkpt>
<trkpt lat="34.9709815" lon="33.5390023">
<ele>135.84</ele>
<time>2015-05-01T14:57:46Z</time>
</trkpt>
<trkpt lat="34.9709561" lon="33.5390509">
<ele>136.43</ele>
<time>2015-05-01T14:57:47Z</time>
</trkpt>
<trkpt lat="34.9709203" lon="33.5391052">
<ele>136.22</ele>
<time>2015-05-01T14:57:48Z</time>
</trkpt>
<trkpt lat="34.9708812" lon="33.5391545">
<ele>136.12</ele>
<time>2015-05-01T14:57:49Z</time>
</trkpt>
<trkpt lat="34.9708475" lon="33.5392017">
<ele>136.07</ele>
<time>2015-05-01T14:57:50Z</time>
</trkpt>
<trkpt lat="34.9708119" lon="33.5392535">
<ele>136.04</ele>
<time>2015-05-01T14:57:51Z</time>
</trkpt>
<trkpt lat="34.9707727" lon="33.5393069">
<ele>135.53</ele>
<time>2015-05-01T14:57:52Z</time>
</trkpt>
<trkpt lat="34.9707314" lon="33.5393651">
<ele>134.77</ele>
<time>2015-05-01T14:57:53Z</time>
</trkpt>
<trkpt lat="34.9706857" lon="33.5394148">
<ele>133.89</ele>
<time>2015-05-01T14:57:54Z</time>
</trkpt>
<trkpt lat="34.9706472" lon="33.5394737">
<ele>133.46</ele>
<time>2015-05-01T14:57:55Z</time>
</trkpt>
<trkpt lat="34.9706037" lon="33.5395323">
<ele>133.24</ele>
<time>2015-05-01T14:57:56Z</time>
</trkpt>
<trkpt lat="34.9705654" lon="33.5395854">
<ele>132.63</ele>
<time>2015-05-01T14:57:57Z</time>
</trkpt>
<trkpt lat="34.9705264" lon="33.5396385">
<ele>132.32</ele>
<time>2015-05-01T14:57:58Z</time>
</trkpt>
<trkpt lat="34.9704859" lon="33.5396867">
<ele>131.17</ele>
<time>2015-05-01T14:57:59Z</time>
</trkpt>
<trkpt lat="34.9704472" lon="33.5397440">
<ele>130.59</ele>
<time>2015-05-01T14:58:00Z</time>
</trkpt>
<trkpt lat="34.9704020" lon="33.5398026">
<ele>130.30</ele>
<time>2015-05-01T14:58:01Z</time>
</trkpt>
<trkpt lat="34.9703724" lon="33.5398602">
<ele>129.66</ele>
<time>2015-05-01T14:58:02Z</time>
</trkpt>
<trkpt lat="34.9703227" lon="33.5399276">
<ele>129.34</ele>
<time>2015-05-01T14:58:03Z</time>
</trkpt>
<trkpt lat="34.9702782" lon="33.5399965">
<ele>129.18</ele>
<time>2015-05-01T14:58:04Z</time>
</trkpt>
<trkpt lat="34.9702437" lon="33.5400605">
<ele>128.60</ele>
<time>2015-05-01T14:58:05Z</time>
</trkpt>
<trkpt lat="34.9702047" lon="33.5401228">
<ele>127.81</ele>
<time>2015-05-01T14:58:06Z</time>
</trkpt>
<trkpt lat="34.9701595" lon="33.5401749">
<ele>127.41</ele>
<time>2015-05-01T14:58:07Z</time>
</trkpt>
<trkpt lat="34.9701141" lon="33.5402315">
<ele>127.21</ele>
<time>2015-05-01T14:58:08Z</time>
</trkpt>
<trkpt lat="34.9700795" lon="33.5402842">
<ele>126.61</ele>
<time>2015-05-01T14:58:09Z</time>
</trkpt>
<trkpt lat="34.9700412" lon="33.5403431">
<ele>126.32</ele>
<time>2015-05-01T14:58:10Z</time>
</trkpt>
<trkpt lat="34.9700029" lon="33.5403971">
<ele>127.17</ele>
<time>2015-05-01T14:58:11Z</time>
</trkpt>
<trkpt lat="34.9699560" lon="33.5404577">
<ele>127.59</ele>
<time>2015-05-01T14:58:12Z</time>
</trkpt>
<trkpt lat="34.9699150" lon="33.5405093">
<ele>127.80</ele>
<time>2015-05-01T14:58:13Z</time>
</trkpt>
<trkpt lat="34.9698757" lon="33.5405623">
<ele>127.91</ele>
<time>2015-05-01T14:58:14Z</time>
</trkpt>
<trkpt lat="34.9698380" lon="33.5406217">
<ele>127.96</ele>
<time>2015-05-01T14:58:15Z</time>
</trkpt>
<trkpt lat="34.9697984" lon="33.5406878">
<ele>127.99</ele>
<time>2015-05-01T14:58:16Z</time>
</trkpt>
<trkpt lat="34.9697614" lon="33.5407428">
<ele>127.50</ele>
<time>2015-05-01T14:58:17Z</time>
</trkpt>
<trkpt lat="34.9697175" lon="33.5407897">
<ele>126.76</ele>
<time>2015-05-01T14:58:18Z</time>
</trkpt>
<trkpt lat="34.9696766" lon="33.5408550">
<ele>126.39</ele>
<time>2015-05-01T14:58:19Z</time>
</trkpt>
<trkpt lat="34.9696370" lon="33.5409114">
<ele>125.70</ele>
<time>2015-05-01T14:58:20Z</time>
</trkpt>
<trkpt lat="34.9695888" lon="33.5409628">
<ele>125.36</ele>
<time>2015-05-01T14:58:21Z</time>
</trkpt>
<trkpt lat="34.9695521" lon="33.5410132">
<ele>125.69</ele>
<time>2015-05-01T14:58:22Z</time>
</trkpt>
<trkpt lat="34.9695105" lon="33.5410728">
<ele>125.85</ele>
<time>2015-05-01T14:58:23Z</time>
</trkpt>
<trkpt lat="34.9694642" lon="33.5411314">
<ele>125.93</ele>
<time>2015-05-01T14:58:24Z</time>
</trkpt>
<trkpt lat="34.9694155" lon="33.5411930">
<ele>125.47</ele>
<time>2015-05-01T14:58:25Z</time>
</trkpt>
<trkpt lat="34.9693645" lon="33.5412533">
<ele>124.75</ele>
<time>2015-05-01T14:58:26Z</time>
</trkpt>
<trkpt lat="34.9693101" lon="33.5413222">
<ele>124.88</ele>
<time>2015-05-01T14:58:27Z</time>
</trkpt>
<trkpt lat="34.9692588" lon="33.5413790">
<ele>124.95</ele>
<time>2015-05-01T14:58:28Z</time>
</trkpt>
<trkpt lat="34.9692079" lon="33.5414405">
<ele>124.98</ele>
<time>2015-05-01T14:58:29Z</time>
</trkpt>
<trkpt lat="34.9691553" lon="33.5415071">
<ele>124.50</ele>
<time>2015-05-01T14:58:30Z</time>
</trkpt>
<trkpt lat="34.9691084" lon="33.5415690">
<ele>124.26</ele>
<time>2015-05-01T14:58:31Z</time>
</trkpt>
<trkpt lat="34.9690583" lon="33.5416262">
<ele>124.14</ele>
<time>2015-05-01T14:58:32Z</time>
</trkpt>
<trkpt lat="34.9690092" lon="33.5416949">
<ele>124.08</ele>
<time>2015-05-01T14:58:33Z</time>
</trkpt>
<trkpt lat="34.9689550" lon="33.5417470">
<ele>124.05</ele>
<time>2015-05-01T14:58:34Z</time>
</trkpt>
<trkpt lat="34.9688947" lon="33.5418111">
<ele>123.53</ele>
<time>2015-05-01T14:58:35Z</time>
</trkpt>
<trkpt lat="34.9688437" lon="33.5418719">
<ele>123.77</ele>
<time>2015-05-01T14:58:36Z</time>
</trkpt>
<trkpt lat="34.9687905" lon="33.5419365">
<ele>122.89</ele>
<time>2015-05-01T14:58:37Z</time>
</trkpt>
<trkpt lat="34.9687395" lon="33.5419968">
<ele>121.96</ele>
<time>2015-05-01T14:58:38Z</time>
</trkpt>
<trkpt lat="34.9686822" lon="33.5420541">
<ele>121.49</ele>
<time>2015-05-01T14:58:39Z</time>
</trkpt>
<trkpt lat="34.9686277" lon="33.5421160">
<ele>121.25</ele>
<time>2015-05-01T14:58:40Z</time>
</trkpt>
<trkpt lat="34.9685770" lon="33.5421809">
<ele>121.13</ele>
<time>2015-05-01T14:58:41Z</time>
</trkpt>
<trkpt lat="34.9685218" lon="33.5422462">
<ele>121.07</ele>
<time>2015-05-01T14:58:42Z</time>
</trkpt>
<trkpt lat="34.9684637" lon="33.5423114">
<ele>121.05</ele>
<time>2015-05-01T14:58:43Z</time>
</trkpt>
<trkpt lat="34.9684042" lon="33.5423726">
<ele>120.53</ele>
<time>2015-05-01T14:58:44Z</time>
</trkpt>
<trkpt lat="34.9683596" lon="33.5424344">
<ele>119.27</ele>
<time>2015-05-01T14:58:45Z</time>
</trkpt>
<trkpt lat="34.9683077" lon="33.5425022">
<ele>119.14</ele>
<time>2015-05-01T14:58:46Z</time>
</trkpt>
<trkpt lat="34.9682491" lon="33.5425673">
<ele>119.08</ele>
<time>2015-05-01T14:58:47Z</time>
</trkpt>
<trkpt lat="34.9682014" lon="33.5426362">
<ele>119.55</ele>
<time>2015-05-01T14:58:48Z</time>
</trkpt>
<trkpt lat="34.9681484" lon="33.5427063">
<ele>119.28</ele>
<time>2015-05-01T14:58:49Z</time>
</trkpt>
<trkpt lat="34.9680990" lon="33.5427668">
<ele>119.15</ele>
<time>2015-05-01T14:58:50Z</time>
</trkpt>
<trkpt lat="34.9680514" lon="33.5428358">
<ele>119.08</ele>
<time>2015-05-01T14:58:51Z</time>
</trkpt>
<trkpt lat="34.9680005" lon="33.5429016">
<ele>119.05</ele>
<time>2015-05-01T14:58:52Z</time>
</trkpt>
<trkpt lat="34.9679528" lon="33.5429714">
<ele>118.53</ele>
<time>2015-05-01T14:58:53Z</time>
</trkpt>
<trkpt lat="34.9679042" lon="33.5430303">
<ele>118.27</ele>
<time>2015-05-01T14:58:54Z</time>
</trkpt>
<trkpt lat="34.9678493" lon="33.5430930">
<ele>118.15</ele>
<time>2015-05-01T14:58:55Z</time>
</trkpt>
<trkpt lat="34.9677948" lon="33.5431555">
<ele>118.08</ele>
<time>2015-05-01T14:58:56Z</time>
</trkpt>
<trkpt lat="34.9677400" lon="33.5432240">
<ele>118.05</ele>
<time>2015-05-01T14:58:57Z</time>
</trkpt>
<trkpt lat="34.9676671" lon="33.5432860">
<ele>117.53</ele>
<time>2015-05-01T14:58:58Z</time>
</trkpt>
<trkpt lat="34.9676106" lon="33.5433582">
<ele>117.27</ele>
<time>2015-05-01T14:58:59Z</time>
</trkpt>
<trkpt lat="34.9675568" lon="33.5434356">
<ele>117.15</ele>
<time>2015-05-01T14:59:00Z</time>
</trkpt>
<trkpt lat="34.9675018" lon="33.5435125">
<ele>117.08</ele>
<time>2015-05-01T14:59:01Z</time>
</trkpt>
<trkpt lat="34.9674502" lon="33.5435872">
<ele>116.55</ele>
<time>2015-05-01T14:59:02Z</time>
</trkpt>
<trkpt lat="34.9673929" lon="33.5436648">
<ele>116.78</ele>
<time>2015-05-01T14:59:03Z</time>
</trkpt>
<trkpt lat="34.9673425" lon="33.5437485">
<ele>116.90</ele>
<time>2015-05-01T14:59:04Z</time>
</trkpt>
<trkpt lat="34.9672829" lon="33.5438200">
<ele>116.46</ele>
<time>2015-05-01T14:59:05Z</time>
</trkpt>
<trkpt lat="34.9672313" lon="33.5438957">
<ele>116.24</ele>
<time>2015-05-01T14:59:06Z</time>
</trkpt>
<trkpt lat="34.9671823" lon="33.5439690">
<ele>116.13</ele>
<time>2015-05-01T14:59:07Z</time>
</trkpt>
<trkpt lat="34.9671316" lon="33.5440456">
<ele>116.07</ele>
<time>2015-05-01T14:59:08Z</time>
</trkpt>
<trkpt lat="34.9670716" lon="33.5441063">
<ele>116.04</ele>
<time>2015-05-01T14:59:09Z</time>
</trkpt>
<trkpt lat="34.9670142" lon="33.5441725">
<ele>115.53</ele>
<time>2015-05-01T14:59:10Z</time>
</trkpt>
<trkpt lat="34.9669655" lon="33.5442498">
<ele>115.27</ele>
<time>2015-05-01T14:59:11Z</time>
</trkpt>
<trkpt lat="34.9669109" lon="33.5443243">
<ele>114.64</ele>
<time>2015-05-01T14:59:12Z</time>
</trkpt>
<trkpt lat="34.9668697" lon="33.5443976">
<ele>114.33</ele>
<time>2015-05-01T14:59:13Z</time>
</trkpt>
<trkpt lat="34.9668234" lon="33.5444751">
<ele>114.17</ele>
<time>2015-05-01T14:59:14Z</time>
</trkpt>
<trkpt lat="34.9667807" lon="33.5445575">
<ele>114.09</ele>
<time>2015-05-01T14:59:15Z</time>
</trkpt>
<trkpt lat="34.9667414" lon="33.5446438">
<ele>113.56</ele>
<time>2015-05-01T14:59:16Z</time>
</trkpt>
<trkpt lat="34.9667037" lon="33.5447287">
<ele>112.79</ele>
<time>2015-05-01T14:59:17Z</time>
</trkpt>
<trkpt lat="34.9666596" lon="33.5448029">
<ele>112.90</ele>
<time>2015-05-01T14:59:18Z</time>
</trkpt>
<trkpt lat="34.9666278" lon="33.5448767">
<ele>112.96</ele>
<time>2015-05-01T14:59:19Z</time>
</trkpt>
<trkpt lat="34.9665882" lon="33.5449567">
<ele>112.99</ele>
<time>2015-05-01T14:59:20Z</time>
</trkpt>
<trkpt lat="34.9665488" lon="33.5450330">
<ele>113.00</ele>
<time>2015-05-01T14:59:21Z</time>
</trkpt>
<trkpt lat="34.9665078" lon="33.5451100">
<ele>113.01</ele>
<time>2015-05-01T14:59:22Z</time>
</trkpt>
<trkpt lat="34.9664680" lon="33.5451764">
<ele>113.51</ele>
<time>2015-05-01T14:59:23Z</time>
</trkpt>
<trkpt lat="34.9664306" lon="33.5452542">
<ele>113.76</ele>
<time>2015-05-01T14:59:24Z</time>
</trkpt>
<trkpt lat="34.9663954" lon="33.5453218">
<ele>113.89</ele>
<time>2015-05-01T14:59:25Z</time>
</trkpt>
<trkpt lat="34.9663635" lon="33.5453949">
<ele>113.95</ele>
<time>2015-05-01T14:59:26Z</time>
</trkpt>
<trkpt lat="34.9663268" lon="33.5454715">
<ele>113.98</ele>
<time>2015-05-01T14:59:27Z</time>
</trkpt>
<trkpt lat="34.9662955" lon="33.5455536">
<ele>113.50</ele>
<time>2015-05-01T14:59:28Z</time>
</trkpt>
<trkpt lat="34.9662569" lon="33.5456285">
<ele>113.76</ele>
<time>2015-05-01T14:59:29Z</time>
</trkpt>
<trkpt lat="34.9662223" lon="33.5456999">
<ele>113.89</ele>
<time>2015-05-01T14:59:30Z</time>
</trkpt>
<trkpt lat="34.9661859" lon="33.5457773">
<ele>113.95</ele>
<time>2015-05-01T14:59:31Z</time>
</trkpt>
<trkpt lat="34.9661448" lon="33.5458621">
<ele>113.98</ele>
<time>2015-05-01T14:59:32Z</time>
</trkpt>
<trkpt lat="34.9661056" lon="33.5459476">
<ele>113.50</ele>
<time>2015-05-01T14:59:33Z</time>
</trkpt>
<trkpt lat="34.9660646" lon="33.5460313">
<ele>113.26</ele>
<time>2015-05-01T14:59:34Z</time>
</trkpt>
<trkpt lat="34.9660197" lon="33.5461193">
<ele>113.14</ele>
<time>2015-05-01T14:59:35Z</time>
</trkpt>
<trkpt lat="34.9659685" lon="33.5462065">
<ele>113.08</ele>
<time>2015-05-01T14:59:36Z</time>
</trkpt>
<trkpt lat="34.9659289" lon="33.5462913">
<ele>112.55</ele>
<time>2015-05-01T14:59:37Z</time>
</trkpt>
<trkpt lat="34.9658877" lon="33.5463824">
<ele>112.28</ele>
<time>2015-05-01T14:59:38Z</time>
</trkpt>
<trkpt lat="34.9658469" lon="33.5464672">
<ele>112.15</ele>
<time>2015-05-01T14:59:39Z</time>
</trkpt>
<trkpt lat="34.9658030" lon="33.5465618">
<ele>111.58</ele>
<time>2015-05-01T14:59:40Z</time>
</trkpt>
<trkpt lat="34.9657570" lon="33.5466468">
<ele>111.30</ele>
<time>2015-05-01T14:59:41Z</time>
</trkpt>
<trkpt lat="34.9657139" lon="33.5467292">
<ele>111.16</ele>
<time>2015-05-01T14:59:42Z</time>
</trkpt>
<trkpt lat="34.9656716" lon="33.5468144">
<ele>111.09</ele>
<time>2015-05-01T14:59:43Z</time>
</trkpt>
<trkpt lat="34.9656351" lon="33.5468920">
<ele>111.05</ele>
<time>2015-05-01T14:59:44Z</time>
</trkpt>
<trkpt lat="34.9655886" lon="33.5469644">
<ele>110.53</ele>
<time>2015-05-01T14:59:45Z</time>
</trkpt>
<trkpt lat="34.9655520" lon="33.5470441">
<ele>110.77</ele>
<time>2015-05-01T14:59:46Z</time>
</trkpt>
<trkpt lat="34.9655154" lon="33.5471247">
<ele>110.90</ele>
<time>2015-05-01T14:59:47Z</time>
</trkpt>
<trkpt lat="34.9654738" lon="33.5472040">
<ele>110.96</ele>
<time>2015-05-01T14:59:48Z</time>
</trkpt>
<trkpt lat="34.9654351" lon="33.5472885">
<ele>110.99</ele>
<time>2015-05-01T14:59:49Z</time>
</trkpt>
<trkpt lat="34.9653960" lon="33.5473652">
<ele>111.00</ele>
<time>2015-05-01T14:59:50Z</time>
</trkpt>
<trkpt lat="34.9653526" lon="33.5474408">
<ele>111.01</ele>
<time>2015-05-01T14:59:51Z</time>
</trkpt>
<trkpt lat="34.9653133" lon="33.5475196">
<ele>111.01</ele>
<time>2015-05-01T14:59:52Z</time>
</trkpt>
<trkpt lat="34.9652781" lon="33.5475906">
<ele>111.51</ele>
<time>2015-05-01T14:59:53Z</time>
</trkpt>
<trkpt lat="34.9652466" lon="33.5476640">
<ele>111.77</ele>
<time>2015-05-01T14:59:54Z</time>
</trkpt>
<trkpt lat="34.9652211" lon="33.5477385">
<ele>111.89</ele>
<time>2015-05-01T14:59:55Z</time>
</trkpt>
<trkpt lat="34.9651900" lon="33.5478094">
<ele>111.95</ele>
<time>2015-05-01T14:59:56Z</time>
</trkpt>
<trkpt lat="34.9651543" lon="33.5478694">
<ele>111.48</ele>
<time>2015-05-01T14:59:57Z</time>
</trkpt>
<trkpt lat="34.9651294" lon="33.5479376">
<ele>110.75</ele>
<time>2015-05-01T14:59:58Z</time>
</trkpt>
<trkpt lat="34.9651072" lon="33.5480007">
<ele>110.88</ele>
<time>2015-05-01T14:59:59Z</time>
</trkpt>
<trkpt lat="34.9650900" lon="33.5480658">
<ele>111.45</ele>
<time>2015-05-01T15:00:00Z</time>
</trkpt>
<trkpt lat="34.9650632" lon="33.5481306">
<ele>111.73</ele>
<time>2015-05-01T15:00:01Z</time>
</trkpt>
<trkpt lat="34.9650462" lon="33.5481927">
<ele>111.87</ele>
<time>2015-05-01T15:00:02Z</time>
</trkpt>
<trkpt lat="34.9650235" lon="33.5482584">
<ele>111.95</ele>
<time>2015-05-01T15:00:03Z</time>
</trkpt>
<trkpt lat="34.9650013" lon="33.5483344">
<ele>111.98</ele>
<time>2015-05-01T15:00:04Z</time>
</trkpt>
<trkpt lat="34.9649718" lon="33.5483998">
<ele>111.50</ele>
<time>2015-05-01T15:00:05Z</time>
</trkpt>
<trkpt lat="34.9649617" lon="33.5484664">
<ele>111.76</ele>
<time>2015-05-01T15:00:06Z</time>
</trkpt>
<trkpt lat="34.9649387" lon="33.5485371">
<ele>111.89</ele>
<time>2015-05-01T15:00:07Z</time>
</trkpt>
<trkpt lat="34.9649199" lon="33.5486074">
<ele>111.95</ele>
<time>2015-05-01T15:00:08Z</time>
</trkpt>
<trkpt lat="34.9648949" lon="33.5486783">
<ele>111.48</ele>
<time>2015-05-01T15:00:09Z</time>
</trkpt>
<trkpt lat="34.9648701" lon="33.5487451">
<ele>111.25</ele>
<time>2015-05-01T15:00:10Z</time>
</trkpt>
<trkpt lat="34.9648506" lon="33.5488196">
<ele>111.13</ele>
<time>2015-05-01T15:00:11Z</time>
</trkpt>
<trkpt lat="34.9648380" lon="33.5488839">
<ele>110.57</ele>
<time>2015-05-01T15:00:12Z</time>
</trkpt>
<trkpt lat="34.9648227" lon="33.5489516">
<ele>110.80</ele>
<time>2015-05-01T15:00:13Z</time>
</trkpt>
<trkpt lat="34.9648050" lon="33.5490150">
<ele>109.91</ele>
<time>2015-05-01T15:00:14Z</time>
</trkpt>
<trkpt lat="34.9647826" lon="33.5490829">
<ele>109.46</ele>
<time>2015-05-01T15:00:15Z</time>
</trkpt>
<trkpt lat="34.9647599" lon="33.5491633">
<ele>109.24</ele>
<time>2015-05-01T15:00:16Z</time>
</trkpt>
<trkpt lat="34.9647353" lon="33.5492332">
<ele>109.13</ele>
<time>2015-05-01T15:00:17Z</time>
</trkpt>
<trkpt lat="34.9647103" lon="33.5493006">
<ele>109.07</ele>
<time>2015-05-01T15:00:18Z</time>
</trkpt>
<trkpt lat="34.9646854" lon="33.5493728">
<ele>109.04</ele>
<time>2015-05-01T15:00:19Z</time>
</trkpt>
<trkpt lat="34.9646599" lon="33.5494494">
<ele>109.03</ele>
<time>2015-05-01T15:00:20Z</time>
</trkpt>
<trkpt lat="34.9646383" lon="33.5495248">
<ele>109.02</ele>
<time>2015-05-01T15:00:21Z</time>
</trkpt>
<trkpt lat="34.9646180" lon="33.5496030">
<ele>108.52</ele>
<time>2015-05-01T15:00:22Z</time>
</trkpt>
<trkpt lat="34.9645935" lon="33.5496709">
<ele>108.27</ele>
<time>2015-05-01T15:00:23Z</time>
</trkpt>
<trkpt lat="34.9645708" lon="33.5497541">
<ele>108.14</ele>
<time>2015-05-01T15:00:24Z</time>
</trkpt>
<trkpt lat="34.9645484" lon="33.5498475">
<ele>107.58</ele>
<time>2015-05-01T15:00:25Z</time>
</trkpt>
<trkpt lat="34.9645252" lon="33.5499328">
<ele>107.30</ele>
<time>2015-05-01T15:00:26Z</time>
</trkpt>
<trkpt lat="34.9644987" lon="33.5500136">
<ele>107.16</ele>
<time>2015-05-01T15:00:27Z</time>
</trkpt>
<trkpt lat="34.9644741" lon="33.5501039">
<ele>106.59</ele>
<time>2015-05-01T15:00:28Z</time>
</trkpt>
<trkpt lat="34.9644508" lon="33.5501930">
<ele>106.30</ele>
<time>2015-05-01T15:00:29Z</time>
</trkpt>
<trkpt lat="34.9644256" lon="33.5502800">
<ele>105.66</ele>
<time>2015-05-01T15:00:30Z</time>
</trkpt>
<trkpt lat="34.9643938" lon="33.5503593">
<ele>105.34</ele>
<time>2015-05-01T15:00:31Z</time>
</trkpt>
<trkpt lat="34.9643603" lon="33.5504469">
<ele>105.18</ele>
<time>2015-05-01T15:00:32Z</time>
</trkpt>
<trkpt lat="34.9643461" lon="33.5505296">
<ele>105.60</ele>
<time>2015-05-01T15:00:33Z</time>
</trkpt>
<trkpt lat="34.9643157" lon="33.5506214">
<ele>105.31</ele>
<time>2015-05-01T15:00:34Z</time>
</trkpt>
<trkpt lat="34.9642922" lon="33.5507109">
<ele>105.16</ele>
<time>2015-05-01T15:00:35Z</time>
</trkpt>
<trkpt lat="34.9642665" lon="33.5508210">
<ele>104.59</ele>
<time>2015-05-01T15:00:36Z</time>
</trkpt>
<trkpt lat="34.9642391" lon="33.5509157">
<ele>104.30</ele>
<time>2015-05-01T15:00:37Z</time>
</trkpt>
<trkpt lat="34.9642100" lon="33.5510103">
<ele>103.66</ele>
<time>2015-05-01T15:00:38Z</time>
</trkpt>
<trkpt lat="34.9641870" lon="33.5511025">
<ele>103.34</ele>
<time>2015-05-01T15:00:39Z</time>
</trkpt>
<trkpt lat="34.9641575" lon="33.5512041">
<ele>102.68</ele>
<time>2015-05-01T15:00:40Z</time>
</trkpt>
<trkpt lat="34.9641256" lon="33.5512985">
<ele>102.35</ele>
<time>2015-05-01T15:00:41Z</time>
</trkpt>
<trkpt lat="34.9640966" lon="33.5513880">
<ele>102.68</ele>
<time>2015-05-01T15:00:42Z</time>
</trkpt>
<trkpt lat="34.9640707" lon="33.5514891">
<ele>102.35</ele>
<time>2015-05-01T15:00:43Z</time>
</trkpt>
<trkpt lat="34.9640468" lon="33.5515928">
<ele>102.18</ele>
<time>2015-05-01T15:00:44Z</time>
</trkpt>
<trkpt lat="34.9640349" lon="33.5516910">
<ele>102.10</ele>
<time>2015-05-01T15:00:45Z</time>
</trkpt>
<trkpt lat="34.9640203" lon="33.5517875">
<ele>102.06</ele>
<time>2015-05-01T15:00:46Z</time>
</trkpt>
<trkpt lat="34.9640180" lon="33.5518776">
<ele>101.54</ele>
<time>2015-05-01T15:00:47Z</time>
</trkpt>
<trkpt lat="34.9640213" lon="33.5519736">
<ele>101.28</ele>
<time>2015-05-01T15:00:48Z</time>
</trkpt>
<trkpt lat="34.9640232" lon="33.5520586">
<ele>101.65</ele>
<time>2015-05-01T15:00:49Z</time>
</trkpt>
<trkpt lat="34.9640236" lon="33.5521515">
<ele>101.83</ele>
<time>2015-05-01T15:00:50Z</time>
</trkpt>
<trkpt lat="34.9640211" lon="33.5522440">
<ele>101.92</ele>
<time>2015-05-01T15:00:51Z</time>
</trkpt>
<trkpt lat="34.9640220" lon="33.5523360">
<ele>102.47</ele>
<time>2015-05-01T15:00:52Z</time>
</trkpt>
<trkpt lat="34.9640224" lon="33.5524249">
<ele>102.74</ele>
<time>2015-05-01T15:00:53Z</time>
</trkpt>
<trkpt lat="34.9640264" lon="33.5525049">
<ele>102.88</ele>
<time>2015-05-01T15:00:54Z</time>
</trkpt>
<trkpt lat="34.9640277" lon="33.5525955">
<ele>102.95</ele>
<time>2015-05-01T15:00:55Z</time>
</trkpt>
<trkpt lat="34.9640341" lon="33.5526809">
<ele>102.98</ele>
<time>2015-05-01T15:00:56Z</time>
</trkpt>
<trkpt lat="34.9640368" lon="33.5527665">
<ele>103.50</ele>
<time>2015-05-01T15:00:57Z</time>
</trkpt>
<trkpt lat="34.9640442" lon="33.5528425">
<ele>102.76</ele>
<time>2015-05-01T15:00:58Z</time>
</trkpt>
<trkpt lat="34.9640527" lon="33.5529252">
<ele>102.89</ele>
<time>2015-05-01T15:00:59Z</time>
</trkpt>
<trkpt lat="34.9640588" lon="33.5530057">
<ele>102.45</ele>
<time>2015-05-01T15:01:00Z</time>
</trkpt>
<trkpt lat="34.9640633" lon="33.5530865">
<ele>101.73</ele>
<time>2015-05-01T15:01:01Z</time>
</trkpt>
<trkpt lat="34.9640698" lon="33.5531694">
<ele>101.87</ele>
<time>2015-05-01T15:01:02Z</time>
</trkpt>
<trkpt lat="34.9640757" lon="33.5532512">
<ele>101.45</ele>
<time>2015-05-01T15:01:03Z</time>
</trkpt>
<trkpt lat="34.9640833" lon="33.5533361">
<ele>101.73</ele>
<time>2015-05-01T15:01:04Z</time>
</trkpt>
<trkpt lat="34.9640840" lon="33.5534302">
<ele>101.37</ele>
<time>2015-05-01T15:01:05Z</time>
</trkpt>
<trkpt lat="34.9640905" lon="33.5535007">
<ele>101.19</ele>
<time>2015-05-01T15:01:06Z</time>
</trkpt>
<trkpt lat="34.9640921" lon="33.5535719">
<ele>101.11</ele>
<time>2015-05-01T15:01:07Z</time>
</trkpt>
<trkpt lat="34.9640934" lon="33.5536660">
<ele>101.06</ele>
<time>2015-05-01T15:01:08Z</time>
</trkpt>
<trkpt lat="34.9640941" lon="33.5537404">
<ele>101.54</ele>
<time>2015-05-01T15:01:09Z</time>
</trkpt>
<trkpt lat="34.9640976" lon="33.5538232">
<ele>101.78</ele>
<time>2015-05-01T15:01:10Z</time>
</trkpt>
<trkpt lat="34.9641020" lon="33.5539101">
<ele>101.40</ele>
<time>2015-05-01T15:01:11Z</time>
</trkpt>
<trkpt lat="34.9641059" lon="33.5539934">
<ele>101.71</ele>
<time>2015-05-01T15:01:12Z</time>
</trkpt>
<trkpt lat="34.9641100" lon="33.5540744">
<ele>101.86</ele>
<time>2015-05-01T15:01:13Z</time>
</trkpt>
<trkpt lat="34.9641118" lon="33.5541632">
<ele>101.94</ele>
<time>2015-05-01T15:01:14Z</time>
</trkpt>
<trkpt lat="34.9641070" lon="33.5542516">
<ele>101.98</ele>
<time>2015-05-01T15:01:15Z</time>
</trkpt>
<trkpt lat="34.9641072" lon="33.5543344">
<ele>102.00</ele>
<time>2015-05-01T15:01:16Z</time>
</trkpt>
<trkpt lat="34.9641031" lon="33.5544152">
<ele>102.01</ele>
<time>2015-05-01T15:01:17Z</time>
</trkpt>
<trkpt lat="34.9641049" lon="33.5544912">
<ele>102.01</ele>
<time>2015-05-01T15:01:18Z</time>
</trkpt>
<trkpt lat="34.9641060" lon="33.5545741">
<ele>101.51</ele>
<time>2015-05-01T15:01:19Z</time>
</trkpt>
<trkpt lat="34.9641013" lon="33.5546564">
<ele>101.26</ele>
<time>2015-05-01T15:01:20Z</time>
</trkpt>
<trkpt lat="34.9640943" lon="33.5547353">
<ele>101.14</ele>
<time>2015-05-01T15:01:21Z</time>
</trkpt>
<trkpt lat="34.9640949" lon="33.5548116">
<ele>101.58</ele>
<time>2015-05-01T15:01:22Z</time>
</trkpt>
<trkpt lat="34.9640894" lon="33.5548828">
<ele>101.30</ele>
<time>2015-05-01T15:01:23Z</time>
</trkpt>
<trkpt lat="34.9640941" lon="33.5549496">
<ele>101.66</ele>
<time>2015-05-01T15:01:24Z</time>
</trkpt>
<trkpt lat="34.9640929" lon="33.5550233">
<ele>101.84</ele>
<time>2015-05-01T15:01:25Z</time>
</trkpt>
<trkpt lat="34.9640910" lon="33.5550975">
<ele>101.93</ele>
<time>2015-05-01T15:01:26Z</time>
</trkpt>
<trkpt lat="34.9640889" lon="33.5551683">
<ele>101.97</ele>
<time>2015-05-01T15:01:27Z</time>
</trkpt>
<trkpt lat="34.9640816" lon="33.5552442">
<ele>102.49</ele>
<time>2015-05-01T15:01:28Z</time>
</trkpt>
<trkpt lat="34.9640807" lon="33.5553238">
<ele>102.75</ele>
<time>2015-05-01T15:01:29Z</time>
</trkpt>
<trkpt lat="34.9640756" lon="33.5554033">
<ele>102.89</ele>
<time>2015-05-01T15:01:30Z</time>
</trkpt>
<trkpt lat="34.9640710" lon="33.5554837">
<ele>102.95</ele>
<time>2015-05-01T15:01:31Z</time>
</trkpt>
<trkpt lat="34.9640682" lon="33.5555697">
<ele>102.98</ele>
<time>2015-05-01T15:01:32Z</time>
</trkpt>
<trkpt lat="34.9640687" lon="33.5556511">
<ele>103.50</ele>
<time>2015-05-01T15:01:33Z</time>
</trkpt>
<trkpt lat="34.9640684" lon="33.5557288">
<ele>103.76</ele>
<time>2015-05-01T15:01:34Z</time>
</trkpt>
<trkpt lat="34.9640628" lon="33.5558125">
<ele>103.89</ele>
<time>2015-05-01T15:01:35Z</time>
</trkpt>
<trkpt lat="34.9640610" lon="33.5558968">
<ele>103.45</ele>
<time>2015-05-01T15:01:36Z</time>
</trkpt>
<trkpt lat="34.9640619" lon="33.5559868">
<ele>103.73</ele>
<time>2015-05-01T15:01:37Z</time>
</trkpt>
<trkpt lat="34.9640599" lon="33.5560645">
<ele>103.87</ele>
<time>2015-05-01T15:01:38Z</time>
</trkpt>
<trkpt lat="34.9640528" lon="33.5561454">
<ele>103.45</ele>
<time>2015-05-01T15:01:39Z</time>
</trkpt>
<trkpt lat="34.9640219" lon="33.5562110">
<ele>102.73</ele>
<time>2015-05-01T15:01:40Z</time>
</trkpt>
<trkpt lat="34.9640120" lon="33.5562784">
<ele>102.37</ele>
<time>2015-05-01T15:01:41Z</time>
</trkpt>
<trkpt lat="34.9640035" lon="33.5563546">
<ele>102.19</ele>
<time>2015-05-01T15:01:42Z</time>
</trkpt>
<trkpt lat="34.9639962" lon="33.5564304">
<ele>101.61</ele>
<time>2015-05-01T15:01:43Z</time>
</trkpt>
<trkpt lat="34.9639920" lon="33.5565124">
<ele>101.31</ele>
<time>2015-05-01T15:01:44Z</time>
</trkpt>
<trkpt lat="34.9639760" lon="33.5565841">
<ele>101.16</ele>
<time>2015-05-01T15:01:45Z</time>
</trkpt>
<trkpt lat="34.9639687" lon="33.5566659">
<ele>101.59</ele>
<time>2015-05-01T15:01:46Z</time>
</trkpt>
<trkpt lat="34.9639639" lon="33.5567487">
<ele>101.80</ele>
<time>2015-05-01T15:01:47Z</time>
</trkpt>
<trkpt lat="34.9639494" lon="33.5568346">
<ele>100.91</ele>
<time>2015-05-01T15:01:48Z</time>
</trkpt>
<trkpt lat="34.9639366" lon="33.5569147">
<ele>100.96</ele>
<time>2015-05-01T15:01:49Z</time>
</trkpt>
<trkpt lat="34.9639249" lon="33.5569951">
<ele>100.49</ele>
<time>2015-05-01T15:01:50Z</time>
</trkpt>
<trkpt lat="34.9639037" lon="33.5570790">
<ele>100.25</ele>
<time>2015-05-01T15:01:51Z</time>
</trkpt>
<trkpt lat="34.9638930" lon="33.5571560">
<ele>100.13</ele>
<time>2015-05-01T15:01:52Z</time>
</trkpt>
<trkpt lat="34.9638806" lon="33.5572279">
<ele>100.08</ele>
<time>2015-05-01T15:01:53Z</time>
</trkpt>
<trkpt lat="34.9638662" lon="33.5573077">
<ele>99.55</ele>
<time>2015-05-01T15:01:54Z</time>
</trkpt>
<trkpt lat="34.9638427" lon="33.5573981">
<ele>99.28</ele>
<time>2015-05-01T15:01:55Z</time>
</trkpt>
<trkpt lat="34.9638178" lon="33.5574846">
<ele>99.15</ele>
<time>2015-05-01T15:01:56Z</time>
</trkpt>
<trkpt lat="34.9637932" lon="33.5575684">
<ele>99.08</ele>
<time>2015-05-01T15:01:57Z</time>
</trkpt>
<trkpt lat="34.9637710" lon="33.5576474">
<ele>98.05</ele>
<time>2015-05-01T15:01:58Z</time>
</trkpt>
<trkpt lat="34.9637421" lon="33.5577192">
<ele>98.03</ele>
<time>2015-05-01T15:01:59Z</time>
</trkpt>
<trkpt lat="34.9637125" lon="33.5578099">
<ele>98.02</ele>
<time>2015-05-01T15:02:00Z</time>
</trkpt>
<trkpt lat="34.9636812" lon="33.5578891">
<ele>98.02</ele>
<time>2015-05-01T15:02:01Z</time>
</trkpt>
<trkpt lat="34.9636498" lon="33.5579667">
<ele>98.02</ele>
<time>2015-05-01T15:02:02Z</time>
</trkpt>
<trkpt lat="34.9636227" lon="33.5580433">
<ele>97.52</ele>
<time>2015-05-01T15:02:03Z</time>
</trkpt>
<trkpt lat="34.9635841" lon="33.5581180">
<ele>96.77</ele>
<time>2015-05-01T15:02:04Z</time>
</trkpt>
<trkpt lat="34.9635479" lon="33.5581844">
<ele>96.39</ele>
<time>2015-05-01T15:02:05Z</time>
</trkpt>
<trkpt lat="34.9635135" lon="33.5582607">
<ele>96.20</ele>
<time>2015-05-01T15:02:06Z</time>
</trkpt>
<trkpt lat="34.9634809" lon="33.5583413">
<ele>96.11</ele>
<time>2015-05-01T15:02:07Z</time>
</trkpt>
<trkpt lat="34.9634465" lon="33.5584207">
<ele>96.06</ele>
<time>2015-05-01T15:02:08Z</time>
</trkpt>
<trkpt lat="34.9634108" lon="33.5584891">
<ele>96.04</ele>
<time>2015-05-01T15:02:09Z</time>
</trkpt>
<trkpt lat="34.9633760" lon="33.5585684">
<ele>96.03</ele>
<time>2015-05-01T15:02:10Z</time>
</trkpt>
<trkpt lat="34.9633495" lon="33.5586346">
<ele>95.52</ele>
<time>2015-05-01T15:02:11Z</time>
</trkpt>
<trkpt lat="34.9633143" lon="33.5587077">
<ele>95.27</ele>
<time>2015-05-01T15:02:12Z</time>
</trkpt>
<trkpt lat="34.9632836" lon="33.5587759">
<ele>95.14</ele>
<time>2015-05-01T15:02:13Z</time>
</trkpt>
<trkpt lat="34.9632560" lon="33.5588487">
<ele>95.08</ele>
<time>2015-05-01T15:02:14Z</time>
</trkpt>
<trkpt lat="34.9632227" lon="33.5589221">
<ele>94.55</ele>
<time>2015-05-01T15:02:15Z</time>
</trkpt>
<trkpt lat="34.9631929" lon="33.5589998">
<ele>93.78</ele>
<time>2015-05-01T15:02:16Z</time>
</trkpt>
<trkpt lat="34.9631541" lon="33.5590700">
<ele>93.40</ele>
<time>2015-05-01T15:02:17Z</time>
</trkpt>
<trkpt lat="34.9631224" lon="33.5591441">
<ele>93.71</ele>
<time>2015-05-01T15:02:18Z</time>
</trkpt>
<trkpt lat="34.9630945" lon="33.5592165">
<ele>93.86</ele>
<time>2015-05-01T15:02:19Z</time>
</trkpt>
<trkpt lat="34.9630659" lon="33.5592912">
<ele>93.94</ele>
<time>2015-05-01T15:02:20Z</time>
</trkpt>
<trkpt lat="34.9630355" lon="33.5593660">
<ele>93.48</ele>
<time>2015-05-01T15:02:21Z</time>
</trkpt>
<trkpt lat="34.9630025" lon="33.5594406">
<ele>93.25</ele>
<time>2015-05-01T15:02:22Z</time>
</trkpt>
<trkpt lat="34.9629672" lon="33.5595090">
<ele>93.13</ele>
<time>2015-05-01T15:02:23Z</time>
</trkpt>
<trkpt lat="34.9629322" lon="33.5595831">
<ele>93.07</ele>
<time>2015-05-01T15:02:24Z</time>
</trkpt>
<trkpt lat="34.9628889" lon="33.5596599">
<ele>92.54</ele>
<time>2015-05-01T15:02:25Z</time>
</trkpt>
<trkpt lat="34.9628517" lon="33.5597346">
<ele>92.28</ele>
<time>2015-05-01T15:02:26Z</time>
</trkpt>
<trkpt lat="34.9628265" lon="33.5597944">
<ele>91.65</ele>
<time>2015-05-01T15:02:27Z</time>
</trkpt>
<trkpt lat="34.9627944" lon="33.5598656">
<ele>91.33</ele>
<time>2015-05-01T15:02:28Z</time>
</trkpt>
<trkpt lat="34.9627541" lon="33.5599302">
<ele>91.17</ele>
<time>2015-05-01T15:02:29Z</time>
</trkpt>
<trkpt lat="34.9627154" lon="33.5599901">
<ele>91.60</ele>
<time>2015-05-01T15:02:30Z</time>
</trkpt>
<trkpt lat="34.9626773" lon="33.5600518">
<ele>91.31</ele>
<time>2015-05-01T15:02:31Z</time>
</trkpt>
<trkpt lat="34.9626373" lon="33.5601153">
<ele>91.16</ele>
<time>2015-05-01T15:02:32Z</time>
</trkpt>
<trkpt lat="34.9625973" lon="33.5601743">
<ele>90.59</ele>
<time>2015-05-01T15:02:33Z</time>
</trkpt>
<trkpt lat="34.9625567" lon="33.5602333">
<ele>90.80</ele>
<time>2015-05-01T15:02:34Z</time>
</trkpt>
<trkpt lat="34.9625198" lon="33.5602857">
<ele>90.91</ele>
<time>2015-05-01T15:02:35Z</time>
</trkpt>
<trkpt lat="34.9624791" lon="33.5603497">
<ele>90.96</ele>
<time>2015-05-01T15:02:36Z</time>
</trkpt>
<trkpt lat="34.9624411" lon="33.5604068">
<ele>90.99</ele>
<time>2015-05-01T15:02:37Z</time>
</trkpt>
<trkpt lat="34.9624025" lon="33.5604682">
<ele>92.00</ele>
<time>2015-05-01T15:02:38Z</time>
</trkpt>
<trkpt lat="34.9623636" lon="33.5605154">
<ele>92.51</ele>
<time>2015-05-01T15:02:39Z</time>
</trkpt>
<trkpt lat="34.9623204" lon="33.5605693">
<ele>93.26</ele>
<time>2015-05-01T15:02:40Z</time>
</trkpt>
<trkpt lat="34.9622858" lon="33.5606272">
<ele>93.64</ele>
<time>2015-05-01T15:02:41Z</time>
</trkpt>
<trkpt lat="34.9622469" lon="33.5606788">
<ele>93.83</ele>
<time>2015-05-01T15:02:42Z</time>
</trkpt>
<trkpt lat="34.9622085" lon="33.5607330">
<ele>93.92</ele>
<time>2015-05-01T15:02:43Z</time>
</trkpt>
<trkpt lat="34.9621675" lon="33.5607881">
<ele>93.47</ele>
<time>2015-05-01T15:02:44Z</time>
</trkpt>
<trkpt lat="34.9621362" lon="33.5608345">
<ele>93.24</ele>
<time>2015-05-01T15:02:45Z</time>
</trkpt>
<trkpt lat="34.9620975" lon="33.5608920">
<ele>92.63</ele>
<time>2015-05-01T15:02:46Z</time>
</trkpt>
<trkpt lat="34.9620505" lon="33.5609442">
<ele>91.82</ele>
<time>2015-05-01T15:02:47Z</time>
</trkpt>
<trkpt lat="34.9619993" lon="33.5609981">
<ele>91.42</ele>
<time>2015-05-01T15:02:48Z</time>
</trkpt>
<trkpt lat="34.9619521" lon="33.5610555">
<ele>91.22</ele>
<time>2015-05-01T15:02:49Z</time>
</trkpt>
<trkpt lat="34.9619112" lon="33.5611101">
<ele>91.12</ele>
<time>2015-05-01T15:02:50Z</time>
</trkpt>
<trkpt lat="34.9618716" lon="33.5611574">
<ele>91.57</ele>
<time>2015-05-01T15:02:51Z</time>
</trkpt>
<trkpt lat="34.9618263" lon="33.5612136">
<ele>92.29</ele>
<time>2015-05-01T15:02:52Z</time>
</trkpt>
<trkpt lat="34.9617883" lon="33.5612685">
<ele>92.65</ele>
<time>2015-05-01T15:02:53Z</time>
</trkpt>
<trkpt lat="34.9617532" lon="33.5613199">
<ele>93.33</ele>
<time>2015-05-01T15:02:54Z</time>
</trkpt>
<trkpt lat="34.9617147" lon="33.5613715">
<ele>93.18</ele>
<time>2015-05-01T15:02:55Z</time>
</trkpt>
<trkpt lat="34.9616745" lon="33.5614274">
<ele>93.10</ele>
<time>2015-05-01T15:02:56Z</time>
</trkpt>
<trkpt lat="34.9616342" lon="33.5614774">
<ele>93.06</ele>
<time>2015-05-01T15:02:57Z</time>
</trkpt>
<trkpt lat="34.9615969" lon="33.5615293">
<ele>93.04</ele>
<time>2015-05-01T15:02:58Z</time>
</trkpt>
<trkpt lat="34.9615524" lon="33.5615797">
<ele>93.03</ele>
<time>2015-05-01T15:02:59Z</time>
</trkpt>
<trkpt lat="34.9615095" lon="33.5616286">
<ele>92.52</ele>
<time>2015-05-01T15:03:00Z</time>
</trkpt>
<trkpt lat="34.9614661" lon="33.5616813">
<ele>92.27</ele>
<time>2015-05-01T15:03:01Z</time>
</trkpt>
<trkpt lat="34.9614202" lon="33.5617248">
<ele>92.14</ele>
<time>2015-05-01T15:03:02Z</time>
</trkpt>
<trkpt lat="34.9613759" lon="33.5617749">
<ele>91.58</ele>
<time>2015-05-01T15:03:03Z</time>
</trkpt>
<trkpt lat="34.9613290" lon="33.5618258">
<ele>91.30</ele>
<time>2015-05-01T15:03:04Z</time>
</trkpt>
<trkpt lat="34.9612813" lon="33.5618744">
<ele>91.66</ele>
<time>2015-05-01T15:03:05Z</time>
</trkpt>
<trkpt lat="34.9612358" lon="33.5619208">
<ele>91.84</ele>
<time>2015-05-01T15:03:06Z</time>
</trkpt>
<trkpt lat="34.9611903" lon="33.5619648">
<ele>91.93</ele>
<time>2015-05-01T15:03:07Z</time>
</trkpt>
<trkpt lat="34.9611476" lon="33.5620131">
<ele>91.97</ele>
<time>2015-05-01T15:03:08Z</time>
</trkpt>
<trkpt lat="34.9610989" lon="33.5620609">
<ele>91.99</ele>
<time>2015-05-01T15:03:09Z</time>
</trkpt>
<trkpt lat="34.9610547" lon="33.5621086">
<ele>91.00</ele>
<time>2015-05-01T15:03:10Z</time>
</trkpt>
<trkpt lat="34.9610127" lon="33.5621539">
<ele>90.51</ele>
<time>2015-05-01T15:03:11Z</time>
</trkpt>
<trkpt lat="34.9609612" lon="33.5622025">
<ele>90.26</ele>
<time>2015-05-01T15:03:12Z</time>
</trkpt>
<trkpt lat="34.9609157" lon="33.5622458">
<ele>89.64</ele>
<time>2015-05-01T15:03:13Z</time>
</trkpt>
<trkpt lat="34.9608687" lon="33.5622878">
<ele>88.83</ele>
<time>2015-05-01T15:03:14Z</time>
</trkpt>
<trkpt lat="34.9608200" lon="33.5623339">
<ele>88.42</ele>
<time>2015-05-01T15:03:15Z</time>
</trkpt>
<trkpt lat="34.9607675" lon="33.5623843">
<ele>87.72</ele>
<time>2015-05-01T15:03:16Z</time>
</trkpt>
<trkpt lat="34.9607167" lon="33.5624328">
<ele>87.37</ele>
<time>2015-05-01T15:03:17Z</time>
</trkpt>
<trkpt lat="34.9606702" lon="33.5624838">
<ele>87.19</ele>
<time>2015-05-01T15:03:18Z</time>
</trkpt>
<trkpt lat="34.9606250" lon="33.5625320">
<ele>87.10</ele>
<time>2015-05-01T15:03:19Z</time>
</trkpt>
<trkpt lat="34.9605769" lon="33.5625823">
<ele>87.06</ele>
<time>2015-05-01T15:03:20Z</time>
</trkpt>
<trkpt lat="34.9605291" lon="33.5626319">
<ele>86.54</ele>
<time>2015-05-01T15:03:21Z</time>
</trkpt>
<trkpt lat="34.9604746" lon="33.5626808">
<ele>86.28</ele>
<time>2015-05-01T15:03:22Z</time>
</trkpt>
<trkpt lat="34.9604278" lon="33.5627332">
<ele>85.65</ele>
<time>2015-05-01T15:03:23Z</time>
</trkpt>
<trkpt lat="34.9603765" lon="33.5627835">
<ele>85.33</ele>
<time>2015-05-01T15:03:24Z</time>
</trkpt>
<trkpt lat="34.9603251" lon="33.5628355">
<ele>85.17</ele>
<time>2015-05-01T15:03:25Z</time>
</trkpt>
<trkpt lat="34.9602753" lon="33.5628848">
<ele>85.09</ele>
<time>2015-05-01T15:03:26Z</time>
</trkpt>
<trkpt lat="34.9602240" lon="33.5629301">
<ele>85.06</ele>
<time>2015-05-01T15:03:27Z</time>
</trkpt>
<trkpt lat="34.9601708" lon="33.5629870">
<ele>85.04</ele>
<time>2015-05-01T15:03:28Z</time>
</trkpt>
<trkpt lat="34.9601210" lon="33.5630325">
<ele>85.03</ele>
<time>2015-05-01T15:03:29Z</time>
</trkpt>
<trkpt lat="34.9600665" lon="33.5630830">
<ele>85.02</ele>
<time>2015-05-01T15:03:30Z</time>
</trkpt>
<trkpt lat="34.9600138" lon="33.5631351">
<ele>84.52</ele>
<time>2015-05-01T15:03:31Z</time>
</trkpt>
<trkpt lat="34.9599595" lon="33.5631874">
<ele>84.27</ele>
<time>2015-05-01T15:03:32Z</time>
</trkpt>
<trkpt lat="34.9599066" lon="33.5632371">
<ele>84.14</ele>
<time>2015-05-01T15:03:33Z</time>
</trkpt>
<trkpt lat="34.9598515" lon="33.5632882">
<ele>84.08</ele>
<time>2015-05-01T15:03:34Z</time>
</trkpt>
<trkpt lat="34.9597967" lon="33.5633325">
<ele>84.05</ele>
<time>2015-05-01T15:03:35Z</time>
</trkpt>
<trkpt lat="34.9597458" lon="33.5633796">
<ele>83.53</ele>
<time>2015-05-01T15:03:36Z</time>
</trkpt>
<trkpt lat="34.9596934" lon="33.5634301">
<ele>83.77</ele>
<time>2015-05-01T15:03:37Z</time>
</trkpt>
<trkpt lat="34.9596444" lon="33.5634856">
<ele>83.89</ele>
<time>2015-05-01T15:03:38Z</time>
</trkpt>
<trkpt lat="34.9595982" lon="33.5635388">
<ele>83.46</ele>
<time>2015-05-01T15:03:39Z</time>
</trkpt>
<trkpt lat="34.9595488" lon="33.5635863">
<ele>83.24</ele>
<time>2015-05-01T15:03:40Z</time>
</trkpt>
<trkpt lat="34.9594992" lon="33.5636303">
<ele>83.13</ele>
<time>2015-05-01T15:03:41Z</time>
</trkpt>
<trkpt lat="34.9594445" lon="33.5636776">
<ele>83.57</ele>
<time>2015-05-01T15:03:42Z</time>
</trkpt>
<trkpt lat="34.9594010" lon="33.5637256">
<ele>83.29</ele>
<time>2015-05-01T15:03:43Z</time>
</trkpt>
<trkpt lat="34.9593535" lon="33.5637775">
<ele>83.15</ele>
<time>2015-05-01T15:03:44Z</time>
</trkpt>
<trkpt lat="34.9592991" lon="33.5638298">
<ele>83.09</ele>
<time>2015-05-01T15:03:45Z</time>
</trkpt>
<trkpt lat="34.9592497" lon="33.5638734">
<ele>82.55</ele>
<time>2015-05-01T15:03:46Z</time>
</trkpt>
<trkpt lat="34.9592052" lon="33.5639164">
<ele>82.28</ele>
<time>2015-05-01T15:03:47Z</time>
</trkpt>
<trkpt lat="34.9591528" lon="33.5639691">
<ele>82.15</ele>
<time>2015-05-01T15:03:48Z</time>
</trkpt>
<trkpt lat="34.9591054" lon="33.5640096">
<ele>81.58</ele>
<time>2015-05-01T15:03:49Z</time>
</trkpt>
<trkpt lat="34.9590490" lon="33.5640594">
<ele>81.30</ele>
<time>2015-05-01T15:03:50Z</time>
</trkpt>
<trkpt lat="34.9590022" lon="33.5641030">
<ele>80.66</ele>
<time>2015-05-01T15:03:51Z</time>
</trkpt>
<trkpt lat="34.9589499" lon="33.5641507">
<ele>80.84</ele>
<time>2015-05-01T15:03:52Z</time>
</trkpt>
<trkpt lat="34.9589024" lon="33.5641892">
<ele>80.93</ele>
<time>2015-05-01T15:03:53Z</time>
</trkpt>
<trkpt lat="34.9588509" lon="33.5642334">
<ele>80.97</ele>
<time>2015-05-01T15:03:54Z</time>
</trkpt>
<trkpt lat="34.9587985" lon="33.5642738">
<ele>80.99</ele>
<time>2015-05-01T15:03:55Z</time>
</trkpt>
<trkpt lat="34.9587484" lon="33.5643138">
<ele>81.00</ele>
<time>2015-05-01T15:03:56Z</time>
</trkpt>
<trkpt lat="34.9586913" lon="33.5643543">
<ele>81.51</ele>
<time>2015-05-01T15:03:57Z</time>
</trkpt>
<trkpt lat="34.9586414" lon="33.5643920">
<ele>81.76</ele>
<time>2015-05-01T15:03:58Z</time>
</trkpt>
<trkpt lat="34.9585869" lon="33.5644275">
<ele>81.89</ele>
<time>2015-05-01T15:03:59Z</time>
</trkpt>
<trkpt lat="34.9585347" lon="33.5644575">
<ele>81.95</ele>
<time>2015-05-01T15:04:00Z</time>
</trkpt>
<trkpt lat="34.9584845" lon="33.5644909">
<ele>81.98</ele>
<time>2015-05-01T15:04:01Z</time>
</trkpt>
<trkpt lat="34.9584288" lon="33.5645319">
<ele>82.00</ele>
<time>2015-05-01T15:04:02Z</time>
</trkpt>
<trkpt lat="34.9583726" lon="33.5645680">
<ele>81.51</ele>
<time>2015-05-01T15:04:03Z</time>
</trkpt>
<trkpt lat="34.9583174" lon="33.5645942">
<ele>81.26</ele>
<time>2015-05-01T15:04:04Z</time>
</trkpt>
<trkpt lat="34.9582574" lon="33.5646119">
<ele>81.14</ele>
<time>2015-05-01T15:04:05Z</time>
</trkpt>
<trkpt lat="34.9582040" lon="33.5646386">
<ele>81.08</ele>
<time>2015-05-01T15:04:06Z</time>
</trkpt>
<trkpt lat="34.9581417" lon="33.5646533">
<ele>81.05</ele>
<time>2015-05-01T15:04:07Z</time>
</trkpt>
<trkpt lat="34.9580838" lon="33.5646761">
<ele>81.53</ele>
<time>2015-05-01T15:04:08Z</time>
</trkpt>
<trkpt lat="34.9580241" lon="33.5646964">
<ele>81.77</ele>
<time>2015-05-01T15:04:09Z</time>
</trkpt>
<trkpt lat="34.9579654" lon="33.5647170">
<ele>81.89</ele>
<time>2015-05-01T15:04:10Z</time>
</trkpt>
<trkpt lat="34.9579099" lon="33.5647430">
<ele>80.96</ele>
<time>2015-05-01T15:04:11Z</time>
</trkpt>
<trkpt lat="34.9578510" lon="33.5647687">
<ele>80.49</ele>
<time>2015-05-01T15:04:12Z</time>
</trkpt>
<trkpt lat="34.9577927" lon="33.5647906">
<ele>80.25</ele>
<time>2015-05-01T15:04:13Z</time>
</trkpt>
<trkpt lat="34.9577401" lon="33.5648193">
<ele>80.13</ele>
<time>2015-05-01T15:04:14Z</time>
</trkpt>
<trkpt lat="34.9576786" lon="33.5648379">
<ele>80.07</ele>
<time>2015-05-01T15:04:15Z</time>
</trkpt>
<trkpt lat="34.9576228" lon="33.5648515">
<ele>80.55</ele>
<time>2015-05-01T15:04:16Z</time>
</trkpt>
<trkpt lat="34.9575633" lon="33.5648639">
<ele>80.78</ele>
<time>2015-05-01T15:04:17Z</time>
</trkpt>
<trkpt lat="34.9575023" lon="33.5648791">
<ele>80.90</ele>
<time>2015-05-01T15:04:18Z</time>
</trkpt>
<trkpt lat="34.9574441" lon="33.5649032">
<ele>81.46</ele>
<time>2015-05-01T15:04:19Z</time>
</trkpt>
<trkpt lat="34.9573885" lon="33.5649328">
<ele>81.24</ele>
<time>2015-05-01T15:04:20Z</time>
</trkpt>
<trkpt lat="34.9573336" lon="33.5649561">
<ele>81.13</ele>
<time>2015-05-01T15:04:21Z</time>
</trkpt>
<trkpt lat="34.9572729" lon="33.5649780">
<ele>81.07</ele>
<time>2015-05-01T15:04:22Z</time>
</trkpt>
<trkpt lat="34.9572131" lon="33.5649978">
<ele>81.04</ele>
<time>2015-05-01T15:04:23Z</time>
</trkpt>
<trkpt lat="34.9571523" lon="33.5650193">
<ele>81.03</ele>
<time>2015-05-01T15:04:24Z</time>
</trkpt>
<trkpt lat="34.9570930" lon="33.5650431">
<ele>80.52</ele>
<time>2015-05-01T15:04:25Z</time>
</trkpt>
<trkpt lat="34.9570310" lon="33.5650567">
<ele>80.77</ele>
<time>2015-05-01T15:04:26Z</time>
</trkpt>
<trkpt lat="34.9569727" lon="33.5650800">
<ele>81.39</ele>
<time>2015-05-01T15:04:27Z</time>
</trkpt>
<trkpt lat="34.9569144" lon="33.5651020">
<ele>81.70</ele>
<time>2015-05-01T15:04:28Z</time>
</trkpt>
<trkpt lat="34.9568571" lon="33.5651223">
<ele>81.86</ele>
<time>2015-05-01T15:04:29Z</time>
</trkpt>
<trkpt lat="34.9567944" lon="33.5651412">
<ele>81.94</ele>
<time>2015-05-01T15:04:30Z</time>
</trkpt>
<trkpt lat="34.9567311" lon="33.5651556">
<ele>81.48</ele>
<time>2015-05-01T15:04:31Z</time>
</trkpt>
<trkpt lat="34.9566679" lon="33.5651709">
<ele>81.25</ele>
<time>2015-05-01T15:04:32Z</time>
</trkpt>
<trkpt lat="34.9566068" lon="33.5651890">
<ele>81.13</ele>
<time>2015-05-01T15:04:33Z</time>
</trkpt>
<trkpt lat="34.9565547" lon="33.5652203">
<ele>80.07</ele>
<time>2015-05-01T15:04:34Z</time>
</trkpt>
<trkpt lat="34.9565010" lon="33.5652463">
<ele>79.54</ele>
<time>2015-05-01T15:04:35Z</time>
</trkpt>
<trkpt lat="34.9564447" lon="33.5652664">
<ele>79.28</ele>
<time>2015-05-01T15:04:36Z</time>
</trkpt>
<trkpt lat="34.9563833" lon="33.5652842">
<ele>79.15</ele>
<time>2015-05-01T15:04:37Z</time>
</trkpt>
<trkpt lat="34.9563216" lon="33.5653034">
<ele>79.08</ele>
<time>2015-05-01T15:04:38Z</time>
</trkpt>
<trkpt lat="34.9562644" lon="33.5653360">
<ele>79.05</ele>
<time>2015-05-01T15:04:39Z</time>
</trkpt>
<trkpt lat="34.9561976" lon="33.5653645">
<ele>79.03</ele>
<time>2015-05-01T15:04:40Z</time>
</trkpt>
<trkpt lat="34.9561322" lon="33.5653912">
<ele>79.52</ele>
<time>2015-05-01T15:04:41Z</time>
</trkpt>
<trkpt lat="34.9560708" lon="33.5654221">
<ele>79.77</ele>
<time>2015-05-01T15:04:42Z</time>
</trkpt>
<trkpt lat="34.9560140" lon="33.5654511">
<ele>79.89</ele>
<time>2015-05-01T15:04:43Z</time>
</trkpt>
<trkpt lat="34.9559548" lon="33.5654814">
<ele>79.95</ele>
<time>2015-05-01T15:04:44Z</time>
</trkpt>
<trkpt lat="34.9558910" lon="33.5655137">
<ele>79.99</ele>
<time>2015-05-01T15:04:45Z</time>
</trkpt>
<trkpt lat="34.9558367" lon="33.5655510">
<ele>80.00</ele>
<time>2015-05-01T15:04:46Z</time>
</trkpt>
<trkpt lat="34.9557805" lon="33.5655826">
<ele>80.01</ele>
<time>2015-05-01T15:04:47Z</time>
</trkpt>
<trkpt lat="34.9557283" lon="33.5656054">
<ele>80.01</ele>
<time>2015-05-01T15:04:48Z</time>
</trkpt>
<trkpt lat="34.9556745" lon="33.5656453">
<ele>80.01</ele>
<time>2015-05-01T15:04:49Z</time>
</trkpt>
<trkpt lat="34.9556200" lon="33.5656890">
<ele>80.02</ele>
<time>2015-05-01T15:04:50Z</time>
</trkpt>
<trkpt lat="34.9555665" lon="33.5657293">
<ele>80.02</ele>
<time>2015-05-01T15:04:51Z</time>
</trkpt>
<trkpt lat="34.9555134" lon="33.5657655">
<ele>80.02</ele>
<time>2015-05-01T15:04:52Z</time>
</trkpt>
<trkpt lat="34.9554681" lon="33.5658033">
<ele>80.02</ele>
<time>2015-05-01T15:04:53Z</time>
</trkpt>
<trkpt lat="34.9554209" lon="33.5658479">
<ele>80.02</ele>
<time>2015-05-01T15:04:54Z</time>
</trkpt>
<trkpt lat="34.9553745" lon="33.5658814">
<ele>79.52</ele>
<time>2015-05-01T15:04:55Z</time>
</trkpt>
<trkpt lat="34.9553229" lon="33.5659203">
<ele>79.27</ele>
<time>2015-05-01T15:04:56Z</time>
</trkpt>
<trkpt lat="34.9552815" lon="33.5659571">
<ele>78.64</ele>
<time>2015-05-01T15:04:57Z</time>
</trkpt>
<trkpt lat="34.9552364" lon="33.5659962">
<ele>78.83</ele>
<time>2015-05-01T15:04:58Z</time>
</trkpt>
<trkpt lat="34.9551913" lon="33.5660402">
<ele>78.42</ele>
<time>2015-05-01T15:04:59Z</time>
</trkpt>
<trkpt lat="34.9551491" lon="33.5660817">
<ele>78.22</ele>
<time>2015-05-01T15:05:00Z</time>
</trkpt>
<trkpt lat="34.9551123" lon="33.5661255">
<ele>78.12</ele>
<time>2015-05-01T15:05:01Z</time>
</trkpt>
<trkpt lat="34.9550755" lon="33.5661638">
<ele>78.07</ele>
<time>2015-05-01T15:05:02Z</time>
</trkpt>
<trkpt lat="34.9550402" lon="33.5662074">
<ele>78.04</ele>
<time>2015-05-01T15:05:03Z</time>
</trkpt>
<trkpt lat="34.9549960" lon="33.5662422">
<ele>78.03</ele>
<time>2015-05-01T15:05:04Z</time>
</trkpt>
<trkpt lat="34.9549580" lon="33.5662775">
<ele>78.02</ele>
<time>2015-05-01T15:05:05Z</time>
</trkpt>
<trkpt lat="34.9549190" lon="33.5663156">
<ele>78.02</ele>
<time>2015-05-01T15:05:06Z</time>
</trkpt>
<trkpt lat="34.9548818" lon="33.5663549">
<ele>77.52</ele>
<time>2015-05-01T15:05:07Z</time>
</trkpt>
<trkpt lat="34.9548418" lon="33.5663969">
<ele>76.77</ele>
<time>2015-05-01T15:05:08Z</time>
</trkpt>
<trkpt lat="34.9548062" lon="33.5664367">
<ele>76.39</ele>
<time>2015-05-01T15:05:09Z</time>
</trkpt>
<trkpt lat="34.9547669" lon="33.5664777">
<ele>76.20</ele>
<time>2015-05-01T15:05:10Z</time>
</trkpt>
<trkpt lat="34.9547274" lon="33.5665160">
<ele>76.11</ele>
<time>2015-05-01T15:05:11Z</time>
</trkpt>
<trkpt lat="34.9546903" lon="33.5665561">
<ele>76.56</ele>
<time>2015-05-01T15:05:12Z</time>
</trkpt>
<trkpt lat="34.9546527" lon="33.5665934">
<ele>76.79</ele>
<time>2015-05-01T15:05:13Z</time>
</trkpt>
<trkpt lat="34.9546160" lon="33.5666287">
<ele>76.90</ele>
<time>2015-05-01T15:05:14Z</time>
</trkpt>
<trkpt lat="34.9545783" lon="33.5666681">
<ele>77.46</ele>
<time>2015-05-01T15:05:15Z</time>
</trkpt>
<trkpt lat="34.9545439" lon="33.5667069">
<ele>77.74</ele>
<time>2015-05-01T15:05:16Z</time>
</trkpt>
<trkpt lat="34.9545073" lon="33.5667492">
<ele>77.88</ele>
<time>2015-05-01T15:05:17Z</time>
</trkpt>
<trkpt lat="34.9544742" lon="33.5667901">
<ele>77.95</ele>
<time>2015-05-01T15:05:18Z</time>
</trkpt>
<trkpt lat="34.9544361" lon="33.5668368">
<ele>77.48</ele>
<time>2015-05-01T15:05:19Z</time>
</trkpt>
<trkpt lat="34.9543954" lon="33.5668754">
<ele>77.75</ele>
<time>2015-05-01T15:05:20Z</time>
</trkpt>
<trkpt lat="34.9543570" lon="33.5669147">
<ele>77.88</ele>
<time>2015-05-01T15:05:21Z</time>
</trkpt>
<trkpt lat="34.9543159" lon="33.5669524">
<ele>77.95</ele>
<time>2015-05-01T15:05:22Z</time>
</trkpt>
<trkpt lat="34.9542813" lon="33.5669950">
<ele>77.98</ele>
<time>2015-05-01T15:05:23Z</time>
</trkpt>
<trkpt lat="34.9542462" lon="33.5670368">
<ele>77.50</ele>
<time>2015-05-01T15:05:24Z</time>
</trkpt>
<trkpt lat="34.9542135" lon="33.5670762">
<ele>77.26</ele>
<time>2015-05-01T15:05:25Z</time>
</trkpt>
<trkpt lat="34.9541764" lon="33.5671169">
<ele>77.14</ele>
<time>2015-05-01T15:05:26Z</time>
</trkpt>
<trkpt lat="34.9541335" lon="33.5671507">
<ele>77.08</ele>
<time>2015-05-01T15:05:27Z</time>
</trkpt>
<trkpt lat="34.9540927" lon="33.5671884">
<ele>77.05</ele>
<time>2015-05-01T15:05:28Z</time>
</trkpt>
<trkpt lat="34.9540535" lon="33.5672226">
<ele>77.03</ele>
<time>2015-05-01T15:05:29Z</time>
</trkpt>
<trkpt lat="34.9540154" lon="33.5672582">
<ele>76.52</ele>
<time>2015-05-01T15:05:30Z</time>
</trkpt>
<trkpt lat="34.9539820" lon="33.5673012">
<ele>76.27</ele>
<time>2015-05-01T15:05:31Z</time>
</trkpt>
<trkpt lat="34.9539452" lon="33.5673403">
<ele>76.14</ele>
<time>2015-05-01T15:05:32Z</time>
</trkpt>
<trkpt lat="34.9539126" lon="33.5673795">
<ele>76.08</ele>
<time>2015-05-01T15:05:33Z</time>
</trkpt>
<trkpt lat="34.9538732" lon="33.5674178">
<ele>76.55</ele>
<time>2015-05-01T15:05:34Z</time>
</trkpt>
<trkpt lat="34.9538061" lon="33.5674874">
<ele>76.15</ele>
<time>2015-05-01T15:05:36Z</time>
</trkpt>
<trkpt lat="34.9537706" lon="33.5675215">
<ele>76.08</ele>
<time>2015-05-01T15:05:37Z</time>
</trkpt>
<trkpt lat="34.9536989" lon="33.5675942">
<ele>76.53</ele>
<time>2015-05-01T15:05:39Z</time>
</trkpt>
<trkpt lat="34.9536632" lon="33.5676299">
<ele>76.27</ele>
<time>2015-05-01T15:05:40Z</time>
</trkpt>
<trkpt lat="34.9535904" lon="33.5677031">
<ele>76.83</ele>
<time>2015-05-01T15:05:42Z</time>
</trkpt>
<trkpt lat="34.9535206" lon="33.5677744">
<ele>76.22</ele>
<time>2015-05-01T15:05:44Z</time>
</trkpt>
<trkpt lat="34.9534854" lon="33.5678119">
<ele>76.62</ele>
<time>2015-05-01T15:05:45Z</time>
</trkpt>
<trkpt lat="34.9534439" lon="33.5678442">
<ele>76.82</ele>
<time>2015-05-01T15:05:46Z</time>
</trkpt>
<trkpt lat="34.9534028" lon="33.5678730">
<ele>76.92</ele>
<time>2015-05-01T15:05:47Z</time>
</trkpt>
<trkpt lat="34.9533635" lon="33.5679052">
<ele>76.97</ele>
<time>2015-05-01T15:05:48Z</time>
</trkpt>
<trkpt lat="34.9532973" lon="33.5679805">
<ele>77.75</ele>
<time>2015-05-01T15:05:50Z</time>
</trkpt>
<trkpt lat="34.9532263" lon="33.5680585">
<ele>77.95</ele>
<time>2015-05-01T15:05:52Z</time>
</trkpt>
<trkpt lat="34.9531538" lon="33.5681270">
<ele>78.25</ele>
<time>2015-05-01T15:05:54Z</time>
</trkpt>
<trkpt lat="34.9531109" lon="33.5681692">
<ele>78.63</ele>
<time>2015-05-01T15:05:55Z</time>
</trkpt>
<trkpt lat="34.9530690" lon="33.5682139">
<ele>78.82</ele>
<time>2015-05-01T15:05:56Z</time>
</trkpt>
<trkpt lat="34.9530349" lon="33.5682586">
<ele>79.42</ele>
<time>2015-05-01T15:05:57Z</time>
</trkpt>
<trkpt lat="34.9529936" lon="33.5683020">
<ele>79.72</ele>
<time>2015-05-01T15:05:58Z</time>
</trkpt>
<trkpt lat="34.9529513" lon="33.5683494">
<ele>79.37</ele>
<time>2015-05-01T15:05:59Z</time>
</trkpt>
<trkpt lat="34.9529119" lon="33.5683988">
<ele>78.69</ele>
<time>2015-05-01T15:06:00Z</time>
</trkpt>
<trkpt lat="34.9528746" lon="33.5684440">
<ele>78.85</ele>
<time>2015-05-01T15:06:01Z</time>
</trkpt>
<trkpt lat="34.9528396" lon="33.5684938">
<ele>78.43</ele>
<time>2015-05-01T15:06:02Z</time>
</trkpt>
<trkpt lat="34.9527967" lon="33.5685279">
<ele>78.23</ele>
<time>2015-05-01T15:06:03Z</time>
</trkpt>
<trkpt lat="34.9527516" lon="33.5685774">
<ele>78.12</ele>
<time>2015-05-01T15:06:04Z</time>
</trkpt>
<trkpt lat="34.9526746" lon="33.5686597">
<ele>78.04</ele>
<time>2015-05-01T15:06:06Z</time>
</trkpt>
<trkpt lat="34.9526179" lon="33.5686997">
<ele>77.53</ele>
<time>2015-05-01T15:06:07Z</time>
</trkpt>
<trkpt lat="34.9525688" lon="33.5687529">
<ele>77.27</ele>
<time>2015-05-01T15:06:08Z</time>
</trkpt>
<trkpt lat="34.9525222" lon="33.5688015">
<ele>77.14</ele>
<time>2015-05-01T15:06:09Z</time>
</trkpt>
<trkpt lat="34.9524740" lon="33.5688560">
<ele>77.58</ele>
<time>2015-05-01T15:06:10Z</time>
</trkpt>
<trkpt lat="34.9524265" lon="33.5689217">
<ele>77.30</ele>
<time>2015-05-01T15:06:11Z</time>
</trkpt>
<trkpt lat="34.9523646" lon="33.5689772">
<ele>77.16</ele>
<time>2015-05-01T15:06:12Z</time>
</trkpt>
<trkpt lat="34.9523135" lon="33.5690267">
<ele>77.09</ele>
<time>2015-05-01T15:06:13Z</time>
</trkpt>
<trkpt lat="34.9522548" lon="33.5690884">
<ele>76.55</ele>
<time>2015-05-01T15:06:14Z</time>
</trkpt>
<trkpt lat="34.9521940" lon="33.5691497">
<ele>76.28</ele>
<time>2015-05-01T15:06:15Z</time>
</trkpt>
<trkpt lat="34.9521309" lon="33.5692133">
<ele>75.65</ele>
<time>2015-05-01T15:06:16Z</time>
</trkpt>
<trkpt lat="34.9520606" lon="33.5692745">
<ele>74.33</ele>
<time>2015-05-01T15:06:17Z</time>
</trkpt>
<trkpt lat="34.9519941" lon="33.5693356">
<ele>73.67</ele>
<time>2015-05-01T15:06:18Z</time>
</trkpt>
<trkpt lat="34.9519346" lon="33.5694046">
<ele>72.85</ele>
<time>2015-05-01T15:06:19Z</time>
</trkpt>
<trkpt lat="34.9518706" lon="33.5694735">
<ele>72.43</ele>
<time>2015-05-01T15:06:20Z</time>
</trkpt>
<trkpt lat="34.9518111" lon="33.5695404">
<ele>72.22</ele>
<time>2015-05-01T15:06:21Z</time>
</trkpt>
<trkpt lat="34.9517516" lon="33.5696036">
<ele>72.12</ele>
<time>2015-05-01T15:06:22Z</time>
</trkpt>
<trkpt lat="34.9516218" lon="33.5697660">
<ele>72.07</ele>
<time>2015-05-01T15:06:24Z</time>
</trkpt>
<trkpt lat="34.9515554" lon="33.5698311">
<ele>72.04</ele>
<time>2015-05-01T15:06:25Z</time>
</trkpt>
<trkpt lat="34.9514848" lon="33.5698786">
<ele>73.02</ele>
<time>2015-05-01T15:06:27Z</time>
</trkpt>
<trkpt lat="34.9514205" lon="33.5699468">
<ele>73.02</ele>
<time>2015-05-01T15:06:28Z</time>
</trkpt>
<trkpt lat="34.9513568" lon="33.5700101">
<ele>73.52</ele>
<time>2015-05-01T15:06:29Z</time>
</trkpt>
<trkpt lat="34.9513142" lon="33.5700668">
<ele>73.77</ele>
<time>2015-05-01T15:06:30Z</time>
</trkpt>
<trkpt lat="34.9512658" lon="33.5701142">
<ele>73.89</ele>
<time>2015-05-01T15:06:31Z</time>
</trkpt>
<trkpt lat="34.9512183" lon="33.5701504">
<ele>73.45</ele>
<time>2015-05-01T15:06:32Z</time>
</trkpt>
<trkpt lat="34.9511830" lon="33.5701984">
<ele>73.73</ele>
<time>2015-05-01T15:06:33Z</time>
</trkpt>
<trkpt lat="34.9511413" lon="33.5702435">
<ele>73.88</ele>
<time>2015-05-01T15:06:34Z</time>
</trkpt>
<trkpt lat="34.9511017" lon="33.5702921">
<ele>74.45</ele>
<time>2015-05-01T15:06:35Z</time>
</trkpt>
<trkpt lat="34.9510627" lon="33.5703376">
<ele>74.73</ele>
<time>2015-05-01T15:06:36Z</time>
</trkpt>
<trkpt lat="34.9510268" lon="33.5703812">
<ele>74.87</ele>
<time>2015-05-01T15:06:37Z</time>
</trkpt>
<trkpt lat="34.9509826" lon="33.5704241">
<ele>74.44</ele>
<time>2015-05-01T15:06:38Z</time>
</trkpt>
<trkpt lat="34.9509563" lon="33.5704695">
<ele>74.73</ele>
<time>2015-05-01T15:06:39Z</time>
</trkpt>
<trkpt lat="34.9509221" lon="33.5705247">
<ele>74.87</ele>
<time>2015-05-01T15:06:40Z</time>
</trkpt>
<trkpt lat="34.9508889" lon="33.5705756">
<ele>74.94</ele>
<time>2015-05-01T15:06:41Z</time>
</trkpt>
<trkpt lat="34.9508608" lon="33.5706222">
<ele>75.48</ele>
<time>2015-05-01T15:06:42Z</time>
</trkpt>
<trkpt lat="34.9508327" lon="33.5706682">
<ele>76.25</ele>
<time>2015-05-01T15:06:43Z</time>
</trkpt>
<trkpt lat="34.9507970" lon="33.5707147">
<ele>76.13</ele>
<time>2015-05-01T15:06:44Z</time>
</trkpt>
<trkpt lat="34.9507484" lon="33.5707976">
<ele>76.55</ele>
<time>2015-05-01T15:06:46Z</time>
</trkpt>
<trkpt lat="34.9507050" lon="33.5708706">
<ele>76.90</ele>
<time>2015-05-01T15:06:48Z</time>
</trkpt>
<trkpt lat="34.9506599" lon="33.5709534">
<ele>77.74</ele>
<time>2015-05-01T15:06:50Z</time>
</trkpt>
<trkpt lat="34.9506326" lon="33.5709973">
<ele>77.38</ele>
<time>2015-05-01T15:06:51Z</time>
</trkpt>
<trkpt lat="34.9506008" lon="33.5710477">
<ele>77.20</ele>
<time>2015-05-01T15:06:52Z</time>
</trkpt>
<trkpt lat="34.9505677" lon="33.5710933">
<ele>77.11</ele>
<time>2015-05-01T15:06:53Z</time>
</trkpt>
<trkpt lat="34.9505445" lon="33.5711446">
<ele>77.56</ele>
<time>2015-05-01T15:06:54Z</time>
</trkpt>
<trkpt lat="34.9505139" lon="33.5711999">
<ele>77.29</ele>
<time>2015-05-01T15:06:55Z</time>
</trkpt>
<trkpt lat="34.9504884" lon="33.5712543">
<ele>77.65</ele>
<time>2015-05-01T15:06:56Z</time>
</trkpt>
<trkpt lat="34.9504615" lon="33.5713206">
<ele>77.83</ele>
<time>2015-05-01T15:06:57Z</time>
</trkpt>
<trkpt lat="34.9504378" lon="33.5713792">
<ele>77.93</ele>
<time>2015-05-01T15:06:58Z</time>
</trkpt>
<trkpt lat="34.9504157" lon="33.5714369">
<ele>77.97</ele>
<time>2015-05-01T15:06:59Z</time>
</trkpt>
<trkpt lat="34.9503768" lon="33.5715453">
<ele>78.00</ele>
<time>2015-05-01T15:07:01Z</time>
</trkpt>
<trkpt lat="34.9503549" lon="33.5716024">
<ele>78.01</ele>
<time>2015-05-01T15:07:02Z</time>
</trkpt>
<trkpt lat="34.9503402" lon="33.5716583">
<ele>78.01</ele>
<time>2015-05-01T15:07:03Z</time>
</trkpt>
<trkpt lat="34.9503248" lon="33.5717152">
<ele>78.01</ele>
<time>2015-05-01T15:07:04Z</time>
</trkpt>
<trkpt lat="34.9503038" lon="33.5717714">
<ele>77.52</ele>
<time>2015-05-01T15:07:05Z</time>
</trkpt>
<trkpt lat="34.9502915" lon="33.5718260">
<ele>77.77</ele>
<time>2015-05-01T15:07:06Z</time>
</trkpt>
<trkpt lat="34.9502536" lon="33.5719271">
<ele>77.95</ele>
<time>2015-05-01T15:07:08Z</time>
</trkpt>
<trkpt lat="34.9502307" lon="33.5719785">
<ele>77.98</ele>
<time>2015-05-01T15:07:09Z</time>
</trkpt>
<trkpt lat="34.9502018" lon="33.5720661">
<ele>78.01</ele>
<time>2015-05-01T15:07:11Z</time>
</trkpt>
<trkpt lat="34.9501805" lon="33.5721473">
<ele>78.01</ele>
<time>2015-05-01T15:07:13Z</time>
</trkpt>
<trkpt lat="34.9501758" lon="33.5722117">
<ele>78.27</ele>
<time>2015-05-01T15:07:15Z</time>
</trkpt>
<trkpt lat="34.9501612" lon="33.5722671">
<ele>78.02</ele>
<time>2015-05-01T15:08:02Z</time>
</trkpt>
<trkpt lat="34.9501405" lon="33.5723195">
<ele>78.02</ele>
<time>2015-05-01T15:08:04Z</time>
</trkpt>
<trkpt lat="34.9501159" lon="33.5724075">
<ele>78.02</ele>
<time>2015-05-01T15:08:06Z</time>
</trkpt>
<trkpt lat="34.9500877" lon="33.5724992">
<ele>78.02</ele>
<time>2015-05-01T15:08:08Z</time>
</trkpt>
<trkpt lat="34.9500657" lon="33.5725734">
<ele>77.52</ele>
<time>2015-05-01T15:08:10Z</time>
</trkpt>
<trkpt lat="34.9500285" lon="33.5726265">
<ele>76.89</ele>
<time>2015-05-01T15:08:39Z</time>
</trkpt>
<trkpt lat="34.9500031" lon="33.5726931">
<ele>76.98</ele>
<time>2015-05-01T15:08:41Z</time>
</trkpt>
<trkpt lat="34.9499723" lon="33.5727820">
<ele>77.01</ele>
<time>2015-05-01T15:08:43Z</time>
</trkpt>
<trkpt lat="34.9499380" lon="33.5728770">
<ele>76.51</ele>
<time>2015-05-01T15:08:45Z</time>
</trkpt>
<trkpt lat="34.9499051" lon="33.5729561">
<ele>76.77</ele>
<time>2015-05-01T15:08:46Z</time>
</trkpt>
<trkpt lat="34.9498826" lon="33.5730116">
<ele>76.89</ele>
<time>2015-05-01T15:08:47Z</time>
</trkpt>
<trkpt lat="34.9498657" lon="33.5730726">
<ele>76.95</ele>
<time>2015-05-01T15:08:48Z</time>
</trkpt>
<trkpt lat="34.9498487" lon="33.5731304">
<ele>76.98</ele>
<time>2015-05-01T15:08:49Z</time>
</trkpt>
<trkpt lat="34.9498313" lon="33.5731843">
<ele>77.00</ele>
<time>2015-05-01T15:08:50Z</time>
</trkpt>
<trkpt lat="34.9498173" lon="33.5732495">
<ele>77.01</ele>
<time>2015-05-01T15:08:51Z</time>
</trkpt>
<trkpt lat="34.9497906" lon="33.5733114">
<ele>77.01</ele>
<time>2015-05-01T15:08:52Z</time>
</trkpt>
<trkpt lat="34.9497599" lon="33.5734098">
<ele>77.02</ele>
<time>2015-05-01T15:08:54Z</time>
</trkpt>
<trkpt lat="34.9497328" lon="33.5735124">
<ele>77.02</ele>
<time>2015-05-01T15:08:56Z</time>
</trkpt>
<trkpt lat="34.9497129" lon="33.5735968">
<ele>77.02</ele>
<time>2015-05-01T15:08:58Z</time>
</trkpt>
<trkpt lat="34.9496856" lon="33.5736416">
<ele>77.02</ele>
<time>2015-05-01T15:09:01Z</time>
</trkpt>
<trkpt lat="34.9496390" lon="33.5736622">
<ele>78.44</ele>
<time>2015-05-01T15:10:14Z</time>
</trkpt>
<trkpt lat="34.9495757" lon="33.5736308">
<ele>77.87</ele>
<time>2015-05-01T15:10:16Z</time>
</trkpt>
<trkpt lat="34.9495318" lon="33.5736098">
<ele>77.44</ele>
<time>2015-05-01T15:10:17Z</time>
</trkpt>
<trkpt lat="34.9494884" lon="33.5735866">
<ele>77.23</ele>
<time>2015-05-01T15:10:18Z</time>
</trkpt>
<trkpt lat="34.9494430" lon="33.5735619">
<ele>76.62</ele>
<time>2015-05-01T15:10:19Z</time>
</trkpt>
<trkpt lat="34.9493830" lon="33.5735334">
<ele>76.82</ele>
<time>2015-05-01T15:10:20Z</time>
</trkpt>
<trkpt lat="34.9493349" lon="33.5735244">
<ele>76.42</ele>
<time>2015-05-01T15:10:21Z</time>
</trkpt>
<trkpt lat="34.9492914" lon="33.5735081">
<ele>76.22</ele>
<time>2015-05-01T15:10:22Z</time>
</trkpt>
<trkpt lat="34.9492509" lon="33.5734835">
<ele>75.62</ele>
<time>2015-05-01T15:10:23Z</time>
</trkpt>
<trkpt lat="34.9492062" lon="33.5734557">
<ele>75.32</ele>
<time>2015-05-01T15:10:24Z</time>
</trkpt>
<trkpt lat="34.9491699" lon="33.5733977">
<ele>75.09</ele>
<time>2015-05-01T15:10:26Z</time>
</trkpt>
<trkpt lat="34.9491938" lon="33.5734598">
<ele>71.56</ele>
<time>2015-05-01T15:11:45Z</time>
</trkpt>
<trkpt lat="34.9492230" lon="33.5735081">
<ele>71.65</ele>
<time>2015-05-01T15:11:47Z</time>
</trkpt>
<trkpt lat="34.9492666" lon="33.5735802">
<ele>71.92</ele>
<time>2015-05-01T15:11:49Z</time>
</trkpt>
<trkpt lat="34.9493235" lon="33.5736580">
<ele>71.99</ele>
<time>2015-05-01T15:11:51Z</time>
</trkpt>
<trkpt lat="34.9493767" lon="33.5737307">
<ele>72.51</ele>
<time>2015-05-01T15:11:53Z</time>
</trkpt>
<trkpt lat="34.9493385" lon="33.5736840">
<ele>70.13</ele>
<time>2015-05-01T15:13:48Z</time>
</trkpt>
<trkpt lat="34.9492742" lon="33.5736033">
<ele>69.30</ele>
<time>2015-05-01T15:13:50Z</time>
</trkpt>
<trkpt lat="34.9492270" lon="33.5735248">
<ele>69.16</ele>
<time>2015-05-01T15:13:51Z</time>
</trkpt>
<trkpt lat="34.9491984" lon="33.5734749">
<ele>69.09</ele>
<time>2015-05-01T15:13:52Z</time>
</trkpt>
<trkpt lat="34.9491738" lon="33.5734251">
<ele>69.05</ele>
<time>2015-05-01T15:13:53Z</time>
</trkpt>
<trkpt lat="34.9491536" lon="33.5733747">
<ele>69.03</ele>
<time>2015-05-01T15:13:54Z</time>
</trkpt>
<trkpt lat="34.9491265" lon="33.5733288">
<ele>68.52</ele>
<time>2015-05-01T15:13:55Z</time>
</trkpt>
<trkpt lat="34.9490764" lon="33.5732355">
<ele>68.39</ele>
<time>2015-05-01T15:13:57Z</time>
</trkpt>
<trkpt lat="34.9490513" lon="33.5731881">
<ele>68.20</ele>
<time>2015-05-01T15:13:58Z</time>
</trkpt>
<trkpt lat="34.9490210" lon="33.5731460">
<ele>68.11</ele>
<time>2015-05-01T15:13:59Z</time>
</trkpt>
<trkpt lat="34.9489915" lon="33.5731046">
<ele>68.06</ele>
<time>2015-05-01T15:14:00Z</time>
</trkpt>
<trkpt lat="34.9489273" lon="33.5730317">
<ele>68.03</ele>
<time>2015-05-01T15:14:02Z</time>
</trkpt>
<trkpt lat="34.9488686" lon="33.5729991">
<ele>67.27</ele>
<time>2015-05-01T15:14:04Z</time>
</trkpt>
<trkpt lat="34.9488244" lon="33.5730422">
<ele>68.33</ele>
<time>2015-05-01T15:14:06Z</time>
</trkpt>
<trkpt lat="34.9488224" lon="33.5731058">
<ele>68.59</ele>
<time>2015-05-01T15:14:08Z</time>
</trkpt>
<trkpt lat="34.9487753" lon="33.5731458">
<ele>68.96</ele>
<time>2015-05-01T15:14:11Z</time>
</trkpt>
<trkpt lat="34.9487967" lon="33.5730886">
<ele>69.51</ele>
<time>2015-05-01T15:14:14Z</time>
</trkpt>
<trkpt lat="34.9488341" lon="33.5730287">
<ele>69.89</ele>
<time>2015-05-01T15:14:16Z</time>
</trkpt>
<trkpt lat="34.9488417" lon="33.5729394">
<ele>68.73</ele>
<time>2015-05-01T15:14:18Z</time>
</trkpt>
<trkpt lat="34.9488048" lon="33.5728531">
<ele>68.20</ele>
<time>2015-05-01T15:14:20Z</time>
</trkpt>
<trkpt lat="34.9487687" lon="33.5728089">
<ele>68.61</ele>
<time>2015-05-01T15:14:21Z</time>
</trkpt>
<trkpt lat="34.9487089" lon="33.5727671">
<ele>68.81</ele>
<time>2015-05-01T15:14:22Z</time>
</trkpt>
<trkpt lat="34.9486705" lon="33.5727187">
<ele>68.91</ele>
<time>2015-05-01T15:14:23Z</time>
</trkpt>
<trkpt lat="34.9486325" lon="33.5726733">
<ele>68.96</ele>
<time>2015-05-01T15:14:24Z</time>
</trkpt>
<trkpt lat="34.9485976" lon="33.5726261">
<ele>68.49</ele>
<time>2015-05-01T15:14:25Z</time>
</trkpt>
<trkpt lat="34.9485651" lon="33.5725763">
<ele>68.25</ele>
<time>2015-05-01T15:14:26Z</time>
</trkpt>
<trkpt lat="34.9485345" lon="33.5725247">
<ele>68.63</ele>
<time>2015-05-01T15:14:27Z</time>
</trkpt>
<trkpt lat="34.9484991" lon="33.5724730">
<ele>68.33</ele>
<time>2015-05-01T15:14:28Z</time>
</trkpt>
<trkpt lat="34.9484635" lon="33.5724268">
<ele>68.17</ele>
<time>2015-05-01T15:14:29Z</time>
</trkpt>
<trkpt lat="34.9484297" lon="33.5723706">
<ele>68.09</ele>
<time>2015-05-01T15:14:30Z</time>
</trkpt>
<trkpt lat="34.9483978" lon="33.5723154">
<ele>67.55</ele>
<time>2015-05-01T15:14:31Z</time>
</trkpt>
<trkpt lat="34.9483657" lon="33.5722604">
<ele>67.79</ele>
<time>2015-05-01T15:14:32Z</time>
</trkpt>
<trkpt lat="34.9483415" lon="33.5722044">
<ele>67.90</ele>
<time>2015-05-01T15:14:33Z</time>
</trkpt>
<trkpt lat="34.9483150" lon="33.5721492">
<ele>67.96</ele>
<time>2015-05-01T15:14:34Z</time>
</trkpt>
<trkpt lat="34.9482882" lon="33.5720913">
<ele>67.49</ele>
<time>2015-05-01T15:14:35Z</time>
</trkpt>
<trkpt lat="34.9482677" lon="33.5720286">
<ele>67.25</ele>
<time>2015-05-01T15:14:36Z</time>
</trkpt>
<trkpt lat="34.9482452" lon="33.5719705">
<ele>67.13</ele>
<time>2015-05-01T15:14:37Z</time>
</trkpt>
<trkpt lat="34.9482314" lon="33.5719049">
<ele>66.57</ele>
<time>2015-05-01T15:14:38Z</time>
</trkpt>
<trkpt lat="34.9482171" lon="33.5718412">
<ele>66.30</ele>
<time>2015-05-01T15:14:39Z</time>
</trkpt>
<trkpt lat="34.9482037" lon="33.5717802">
<ele>66.16</ele>
<time>2015-05-01T15:14:40Z</time>
</trkpt>
<trkpt lat="34.9481906" lon="33.5717172">
<ele>66.09</ele>
<time>2015-05-01T15:14:41Z</time>
</trkpt>
<trkpt lat="34.9481724" lon="33.5716611">
<ele>66.05</ele>
<time>2015-05-01T15:14:42Z</time>
</trkpt>
<trkpt lat="34.9481621" lon="33.5715988">
<ele>66.03</ele>
<time>2015-05-01T15:14:43Z</time>
</trkpt>
<trkpt lat="34.9481549" lon="33.5715381">
<ele>66.02</ele>
<time>2015-05-01T15:14:44Z</time>
</trkpt>
<trkpt lat="34.9481470" lon="33.5714809">
<ele>66.02</ele>
<time>2015-05-01T15:14:45Z</time>
</trkpt>
<trkpt lat="34.9481398" lon="33.5714221">
<ele>66.52</ele>
<time>2015-05-01T15:14:46Z</time>
</trkpt>
<trkpt lat="34.9481284" lon="33.5713668">
<ele>66.77</ele>
<time>2015-05-01T15:14:47Z</time>
</trkpt>
<trkpt lat="34.9481126" lon="33.5713063">
<ele>66.89</ele>
<time>2015-05-01T15:14:48Z</time>
</trkpt>
<trkpt lat="34.9480961" lon="33.5712428">
<ele>66.95</ele>
<time>2015-05-01T15:14:49Z</time>
</trkpt>
<trkpt lat="34.9480834" lon="33.5711788">
<ele>66.98</ele>
<time>2015-05-01T15:14:50Z</time>
</trkpt>
<trkpt lat="34.9480668" lon="33.5711165">
<ele>67.50</ele>
<time>2015-05-01T15:14:51Z</time>
</trkpt>
<trkpt lat="34.9480545" lon="33.5710564">
<ele>67.76</ele>
<time>2015-05-01T15:14:52Z</time>
</trkpt>
<trkpt lat="34.9480335" lon="33.5710012">
<ele>67.39</ele>
<time>2015-05-01T15:14:53Z</time>
</trkpt>
<trkpt lat="34.9480097" lon="33.5709364">
<ele>67.20</ele>
<time>2015-05-01T15:14:54Z</time>
</trkpt>
<trkpt lat="34.9479874" lon="33.5708704">
<ele>67.11</ele>
<time>2015-05-01T15:14:55Z</time>
</trkpt>
<trkpt lat="34.9479673" lon="33.5707986">
<ele>67.56</ele>
<time>2015-05-01T15:14:56Z</time>
</trkpt>
<trkpt lat="34.9479421" lon="33.5707350">
<ele>68.29</ele>
<time>2015-05-01T15:14:57Z</time>
</trkpt>
<trkpt lat="34.9479177" lon="33.5706739">
<ele>68.15</ele>
<time>2015-05-01T15:14:58Z</time>
</trkpt>
<trkpt lat="34.9478905" lon="33.5706193">
<ele>68.08</ele>
<time>2015-05-01T15:14:59Z</time>
</trkpt>
<trkpt lat="34.9478632" lon="33.5705684">
<ele>68.05</ele>
<time>2015-05-01T15:15:00Z</time>
</trkpt>
<trkpt lat="34.9478404" lon="33.5705182">
<ele>68.53</ele>
<time>2015-05-01T15:15:01Z</time>
</trkpt>
<trkpt lat="34.9478150" lon="33.5704643">
<ele>68.77</ele>
<time>2015-05-01T15:15:02Z</time>
</trkpt>
<trkpt lat="34.9477969" lon="33.5704107">
<ele>68.90</ele>
<time>2015-05-01T15:15:03Z</time>
</trkpt>
<trkpt lat="34.9477719" lon="33.5703543">
<ele>68.96</ele>
<time>2015-05-01T15:15:04Z</time>
</trkpt>
<trkpt lat="34.9477438" lon="33.5703029">
<ele>68.49</ele>
<time>2015-05-01T15:15:05Z</time>
</trkpt>
<trkpt lat="34.9477122" lon="33.5702513">
<ele>68.25</ele>
<time>2015-05-01T15:15:06Z</time>
</trkpt>
<trkpt lat="34.9476836" lon="33.5701968">
<ele>68.13</ele>
<time>2015-05-01T15:15:07Z</time>
</trkpt>
<trkpt lat="34.9476558" lon="33.5701387">
<ele>68.07</ele>
<time>2015-05-01T15:15:08Z</time>
</trkpt>
<trkpt lat="34.9476262" lon="33.5700849">
<ele>68.05</ele>
<time>2015-05-01T15:15:09Z</time>
</trkpt>
<trkpt lat="34.9475994" lon="33.5700370">
<ele>68.53</ele>
<time>2015-05-01T15:15:10Z</time>
</trkpt>
<trkpt lat="34.9475721" lon="33.5699878">
<ele>68.77</ele>
<time>2015-05-01T15:15:11Z</time>
</trkpt>
<trkpt lat="34.9475306" lon="33.5698997">
<ele>69.46</ele>
<time>2015-05-01T15:15:13Z</time>
</trkpt>
<trkpt lat="34.9474863" lon="33.5698324">
<ele>70.13</ele>
<time>2015-05-01T15:15:15Z</time>
</trkpt>
<trkpt lat="34.9474424" lon="33.5697613">
<ele>70.79</ele>
<time>2015-05-01T15:15:17Z</time>
</trkpt>
<trkpt lat="34.9473990" lon="33.5696704">
<ele>70.96</ele>
<time>2015-05-01T15:15:19Z</time>
</trkpt>
<trkpt lat="34.9473712" lon="33.5696191">
<ele>70.99</ele>
<time>2015-05-01T15:15:20Z</time>
</trkpt>
<trkpt lat="34.9473420" lon="33.5695688">
<ele>71.00</ele>
<time>2015-05-01T15:15:21Z</time>
</trkpt>
<trkpt lat="34.9472948" lon="33.5694848">
<ele>71.51</ele>
<time>2015-05-01T15:15:23Z</time>
</trkpt>
<trkpt lat="34.9472467" lon="33.5694006">
<ele>71.39</ele>
<time>2015-05-01T15:15:25Z</time>
</trkpt>
<trkpt lat="34.9472239" lon="33.5693516">
<ele>71.70</ele>
<time>2015-05-01T15:15:26Z</time>
</trkpt>
<trkpt lat="34.9472017" lon="33.5693036">
<ele>71.86</ele>
<time>2015-05-01T15:15:27Z</time>
</trkpt>
<trkpt lat="34.9471509" lon="33.5692113">
<ele>71.48</ele>
<time>2015-05-01T15:15:29Z</time>
</trkpt>
<trkpt lat="34.9471191" lon="33.5691641">
<ele>70.75</ele>
<time>2015-05-01T15:15:30Z</time>
</trkpt>
<trkpt lat="34.9470913" lon="33.5691101">
<ele>70.38</ele>
<time>2015-05-01T15:15:31Z</time>
</trkpt>
<trkpt lat="34.9470640" lon="33.5690493">
<ele>70.70</ele>
<time>2015-05-01T15:15:32Z</time>
</trkpt>
<trkpt lat="34.9470421" lon="33.5689949">
<ele>70.86</ele>
<time>2015-05-01T15:15:33Z</time>
</trkpt>
<trkpt lat="34.9470132" lon="33.5689371">
<ele>70.94</ele>
<time>2015-05-01T15:15:34Z</time>
</trkpt>
<trkpt lat="34.9469889" lon="33.5688874">
<ele>70.48</ele>
<time>2015-05-01T15:15:35Z</time>
</trkpt>
<trkpt lat="34.9469631" lon="33.5688316">
<ele>70.75</ele>
<time>2015-05-01T15:15:36Z</time>
</trkpt>
<trkpt lat="34.9469355" lon="33.5687814">
<ele>70.88</ele>
<time>2015-05-01T15:15:37Z</time>
</trkpt>
<trkpt lat="34.9468953" lon="33.5687004">
<ele>70.48</ele>
<time>2015-05-01T15:15:39Z</time>
</trkpt>
<trkpt lat="34.9468493" lon="33.5686063">
<ele>70.63</ele>
<time>2015-05-01T15:15:41Z</time>
</trkpt>
<trkpt lat="34.9468238" lon="33.5685535">
<ele>70.82</ele>
<time>2015-05-01T15:15:42Z</time>
</trkpt>
<trkpt lat="34.9467993" lon="33.5685021">
<ele>70.92</ele>
<time>2015-05-01T15:15:43Z</time>
</trkpt>
<trkpt lat="34.9467716" lon="33.5684528">
<ele>70.97</ele>
<time>2015-05-01T15:15:44Z</time>
</trkpt>
<trkpt lat="34.9467416" lon="33.5683943">
<ele>71.49</ele>
<time>2015-05-01T15:15:45Z</time>
</trkpt>
<trkpt lat="34.9467104" lon="33.5683469">
<ele>71.75</ele>
<time>2015-05-01T15:15:46Z</time>
</trkpt>
<trkpt lat="34.9466831" lon="33.5682935">
<ele>71.89</ele>
<time>2015-05-01T15:15:47Z</time>
</trkpt>
<trkpt lat="34.9466597" lon="33.5682385">
<ele>72.45</ele>
<time>2015-05-01T15:15:48Z</time>
</trkpt>
<trkpt lat="34.9466306" lon="33.5681936">
<ele>72.73</ele>
<time>2015-05-01T15:15:49Z</time>
</trkpt>
<trkpt lat="34.9465866" lon="33.5681005">
<ele>72.95</ele>
<time>2015-05-01T15:15:51Z</time>
</trkpt>
<trkpt lat="34.9465586" lon="33.5680432">
<ele>72.98</ele>
<time>2015-05-01T15:15:52Z</time>
</trkpt>
<trkpt lat="34.9465236" lon="33.5679937">
<ele>73.00</ele>
<time>2015-05-01T15:15:53Z</time>
</trkpt>
<trkpt lat="34.9465004" lon="33.5679429">
<ele>73.01</ele>
<time>2015-05-01T15:15:54Z</time>
</trkpt>
<trkpt lat="34.9464718" lon="33.5678881">
<ele>73.01</ele>
<time>2015-05-01T15:15:55Z</time>
</trkpt>
<trkpt lat="34.9464390" lon="33.5678394">
<ele>73.01</ele>
<time>2015-05-01T15:15:56Z</time>
</trkpt>
<trkpt lat="34.9464177" lon="33.5677838">
<ele>73.01</ele>
<time>2015-05-01T15:15:57Z</time>
</trkpt>
<trkpt lat="34.9463964" lon="33.5677260">
<ele>72.52</ele>
<time>2015-05-01T15:15:58Z</time>
</trkpt>
<trkpt lat="34.9463738" lon="33.5676745">
<ele>72.27</ele>
<time>2015-05-01T15:15:59Z</time>
</trkpt>
<trkpt lat="34.9463471" lon="33.5676237">
<ele>72.14</ele>
<time>2015-05-01T15:16:00Z</time>
</trkpt>
<trkpt lat="34.9463048" lon="33.5675285">
<ele>72.05</ele>
<time>2015-05-01T15:16:02Z</time>
</trkpt>
<trkpt lat="34.9462591" lon="33.5674388">
<ele>72.02</ele>
<time>2015-05-01T15:16:04Z</time>
</trkpt>
<trkpt lat="34.9462315" lon="33.5673878">
<ele>72.02</ele>
<time>2015-05-01T15:16:05Z</time>
</trkpt>
<trkpt lat="34.9462056" lon="33.5673348">
<ele>72.02</ele>
<time>2015-05-01T15:16:06Z</time>
</trkpt>
<trkpt lat="34.9461817" lon="33.5672824">
<ele>72.02</ele>
<time>2015-05-01T15:16:07Z</time>
</trkpt>
<trkpt lat="34.9461531" lon="33.5672228">
<ele>72.02</ele>
<time>2015-05-01T15:16:08Z</time>
</trkpt>
<trkpt lat="34.9461245" lon="33.5671680">
<ele>72.02</ele>
<time>2015-05-01T15:16:09Z</time>
</trkpt>
<trkpt lat="34.9460950" lon="33.5671176">
<ele>72.02</ele>
<time>2015-05-01T15:16:10Z</time>
</trkpt>
<trkpt lat="34.9460733" lon="33.5670662">
<ele>72.02</ele>
<time>2015-05-01T15:16:11Z</time>
</trkpt>
<trkpt lat="34.9460448" lon="33.5670161">
<ele>72.02</ele>
<time>2015-05-01T15:16:12Z</time>
</trkpt>
<trkpt lat="34.9460019" lon="33.5669201">
<ele>72.02</ele>
<time>2015-05-01T15:16:14Z</time>
</trkpt>
<trkpt lat="34.9459745" lon="33.5668761">
<ele>72.52</ele>
<time>2015-05-01T15:16:15Z</time>
</trkpt>
<trkpt lat="34.9459383" lon="33.5667930">
<ele>72.89</ele>
<time>2015-05-01T15:16:17Z</time>
</trkpt>
<trkpt lat="34.9459102" lon="33.5667176">
<ele>73.73</ele>
<time>2015-05-01T15:16:19Z</time>
</trkpt>
<trkpt lat="34.9458693" lon="33.5666678">
<ele>74.20</ele>
<time>2015-05-01T15:16:21Z</time>
</trkpt>
<trkpt lat="34.9458375" lon="33.5666191">
<ele>74.29</ele>
<time>2015-05-01T15:16:24Z</time>
</trkpt>
<trkpt lat="34.9458016" lon="33.5665628">
<ele>74.05</ele>
<time>2015-05-01T15:16:27Z</time>
</trkpt>
<trkpt lat="34.9457677" lon="33.5665091">
<ele>74.52</ele>
<time>2015-05-01T15:16:30Z</time>
</trkpt>
<trkpt lat="34.9457359" lon="33.5664460">
<ele>75.45</ele>
<time>2015-05-01T15:16:33Z</time>
</trkpt>
<trkpt lat="34.9457027" lon="33.5663716">
<ele>77.32</ele>
<time>2015-05-01T15:16:36Z</time>
</trkpt>
<trkpt lat="34.9456753" lon="33.5663156">
<ele>77.84</ele>
<time>2015-05-01T15:16:38Z</time>
</trkpt>
<trkpt lat="34.9456458" lon="33.5662559">
<ele>77.97</ele>
<time>2015-05-01T15:16:40Z</time>
</trkpt>
<trkpt lat="34.9456124" lon="33.5661863">
<ele>78.76</ele>
<time>2015-05-01T15:16:42Z</time>
</trkpt>
<trkpt lat="34.9455771" lon="33.5661202">
<ele>78.95</ele>
<time>2015-05-01T15:16:44Z</time>
</trkpt>
<trkpt lat="34.9455383" lon="33.5660582">
<ele>79.75</ele>
<time>2015-05-01T15:16:46Z</time>
</trkpt>
<trkpt lat="34.9455061" lon="33.5659916">
<ele>79.45</ele>
<time>2015-05-01T15:16:48Z</time>
</trkpt>
<trkpt lat="34.9454714" lon="33.5659151">
<ele>79.37</ele>
<time>2015-05-01T15:16:50Z</time>
</trkpt>
<trkpt lat="34.9454299" lon="33.5658362">
<ele>78.61</ele>
<time>2015-05-01T15:16:52Z</time>
</trkpt>
<trkpt lat="34.9453794" lon="33.5657627">
<ele>78.41</ele>
<time>2015-05-01T15:16:54Z</time>
</trkpt>
<trkpt lat="34.9453357" lon="33.5656803">
<ele>78.87</ele>
<time>2015-05-01T15:16:56Z</time>
</trkpt>
<trkpt lat="34.9452973" lon="33.5655948">
<ele>78.98</ele>
<time>2015-05-01T15:16:58Z</time>
</trkpt>
<trkpt lat="34.9452565" lon="33.5655180">
<ele>79.76</ele>
<time>2015-05-01T15:17:00Z</time>
</trkpt>
<trkpt lat="34.9452223" lon="33.5654798">
<ele>79.95</ele>
<time>2015-05-01T15:17:02Z</time>
</trkpt>
<trkpt lat="34.9452682" lon="33.5654508">
<ele>80.83</ele>
<time>2015-05-01T15:17:57Z</time>
</trkpt>
<trkpt lat="34.9453314" lon="33.5654583">
<ele>82.12</ele>
<time>2015-05-01T15:18:00Z</time>
</trkpt>
<trkpt lat="34.9453611" lon="33.5655118">
<ele>82.04</ele>
<time>2015-05-01T15:18:02Z</time>
</trkpt>
<trkpt lat="34.9453964" lon="33.5655709">
<ele>82.02</ele>
<time>2015-05-01T15:18:04Z</time>
</trkpt>
<trkpt lat="34.9454323" lon="33.5656316">
<ele>82.77</ele>
<time>2015-05-01T15:18:06Z</time>
</trkpt>
<trkpt lat="34.9454700" lon="33.5656985">
<ele>82.20</ele>
<time>2015-05-01T15:18:08Z</time>
</trkpt>
<trkpt lat="34.9455066" lon="33.5657687">
<ele>82.06</ele>
<time>2015-05-01T15:18:10Z</time>
</trkpt>
<trkpt lat="34.9455460" lon="33.5658449">
<ele>82.03</ele>
<time>2015-05-01T15:18:12Z</time>
</trkpt>
<trkpt lat="34.9455894" lon="33.5659280">
<ele>82.02</ele>
<time>2015-05-01T15:18:14Z</time>
</trkpt>
<trkpt lat="34.9456318" lon="33.5660035">
<ele>82.02</ele>
<time>2015-05-01T15:18:15Z</time>
</trkpt>
<trkpt lat="34.9456558" lon="33.5660551">
<ele>82.02</ele>
<time>2015-05-01T15:18:16Z</time>
</trkpt>
<trkpt lat="34.9456859" lon="33.5661123">
<ele>82.02</ele>
<time>2015-05-01T15:18:17Z</time>
</trkpt>
<trkpt lat="34.9457187" lon="33.5661770">
<ele>81.52</ele>
<time>2015-05-01T15:18:18Z</time>
</trkpt>
<trkpt lat="34.9457491" lon="33.5662376">
<ele>81.77</ele>
<time>2015-05-01T15:18:19Z</time>
</trkpt>
<trkpt lat="34.9457749" lon="33.5663095">
<ele>81.89</ele>
<time>2015-05-01T15:18:20Z</time>
</trkpt>
<trkpt lat="34.9458023" lon="33.5663751">
<ele>81.95</ele>
<time>2015-05-01T15:18:21Z</time>
</trkpt>
<trkpt lat="34.9458360" lon="33.5664467">
<ele>81.98</ele>
<time>2015-05-01T15:18:22Z</time>
</trkpt>
<trkpt lat="34.9458670" lon="33.5665131">
<ele>82.00</ele>
<time>2015-05-01T15:18:23Z</time>
</trkpt>
<trkpt lat="34.9458961" lon="33.5665875">
<ele>81.51</ele>
<time>2015-05-01T15:18:24Z</time>
</trkpt>
<trkpt lat="34.9459313" lon="33.5666599">
<ele>81.26</ele>
<time>2015-05-01T15:18:25Z</time>
</trkpt>
<trkpt lat="34.9459668" lon="33.5667252">
<ele>81.14</ele>
<time>2015-05-01T15:18:26Z</time>
</trkpt>
<trkpt lat="34.9460005" lon="33.5667878">
<ele>81.08</ele>
<time>2015-05-01T15:18:27Z</time>
</trkpt>
<trkpt lat="34.9460366" lon="33.5668534">
<ele>81.05</ele>
<time>2015-05-01T15:18:28Z</time>
</trkpt>
<trkpt lat="34.9460686" lon="33.5669171">
<ele>81.03</ele>
<time>2015-05-01T15:18:29Z</time>
</trkpt>
<trkpt lat="34.9461049" lon="33.5669790">
<ele>81.02</ele>
<time>2015-05-01T15:18:30Z</time>
</trkpt>
<trkpt lat="34.9461401" lon="33.5670430">
<ele>81.02</ele>
<time>2015-05-01T15:18:31Z</time>
</trkpt>
<trkpt lat="34.9461740" lon="33.5671139">
<ele>81.02</ele>
<time>2015-05-01T15:18:32Z</time>
</trkpt>
<trkpt lat="34.9461967" lon="33.5671737">
<ele>80.52</ele>
<time>2015-05-01T15:18:33Z</time>
</trkpt>
<trkpt lat="34.9462313" lon="33.5672340">
<ele>80.27</ele>
<time>2015-05-01T15:18:34Z</time>
</trkpt>
<trkpt lat="34.9462628" lon="33.5672942">
<ele>80.14</ele>
<time>2015-05-01T15:18:35Z</time>
</trkpt>
<trkpt lat="34.9462840" lon="33.5673588">
<ele>80.08</ele>
<time>2015-05-01T15:18:36Z</time>
</trkpt>
<trkpt lat="34.9463177" lon="33.5674222">
<ele>80.55</ele>
<time>2015-05-01T15:18:37Z</time>
</trkpt>
<trkpt lat="34.9463529" lon="33.5674835">
<ele>80.78</ele>
<time>2015-05-01T15:18:38Z</time>
</trkpt>
<trkpt lat="34.9463880" lon="33.5675461">
<ele>80.90</ele>
<time>2015-05-01T15:18:39Z</time>
</trkpt>
<trkpt lat="34.9464240" lon="33.5676208">
<ele>80.96</ele>
<time>2015-05-01T15:18:40Z</time>
</trkpt>
<trkpt lat="34.9464656" lon="33.5676962">
<ele>80.99</ele>
<time>2015-05-01T15:18:41Z</time>
</trkpt>
<trkpt lat="34.9465010" lon="33.5677620">
<ele>80.50</ele>
<time>2015-05-01T15:18:42Z</time>
</trkpt>
<trkpt lat="34.9465303" lon="33.5678315">
<ele>80.26</ele>
<time>2015-05-01T15:18:43Z</time>
</trkpt>
<trkpt lat="34.9465671" lon="33.5678951">
<ele>80.14</ele>
<time>2015-05-01T15:18:44Z</time>
</trkpt>
<trkpt lat="34.9466064" lon="33.5679651">
<ele>80.08</ele>
<time>2015-05-01T15:18:45Z</time>
</trkpt>
<trkpt lat="34.9466398" lon="33.5680322">
<ele>80.05</ele>
<time>2015-05-01T15:18:46Z</time>
</trkpt>
<trkpt lat="34.9466727" lon="33.5680984">
<ele>80.03</ele>
<time>2015-05-01T15:18:47Z</time>
</trkpt>
<trkpt lat="34.9467187" lon="33.5681706">
<ele>80.02</ele>
<time>2015-05-01T15:18:48Z</time>
</trkpt>
<trkpt lat="34.9467637" lon="33.5682449">
<ele>80.52</ele>
<time>2015-05-01T15:18:49Z</time>
</trkpt>
<trkpt lat="34.9467912" lon="33.5683101">
<ele>80.77</ele>
<time>2015-05-01T15:18:50Z</time>
</trkpt>
<trkpt lat="34.9468184" lon="33.5683758">
<ele>80.89</ele>
<time>2015-05-01T15:18:51Z</time>
</trkpt>
<trkpt lat="34.9468581" lon="33.5684490">
<ele>80.95</ele>
<time>2015-05-01T15:18:52Z</time>
</trkpt>
<trkpt lat="34.9468965" lon="33.5685211">
<ele>80.98</ele>
<time>2015-05-01T15:18:53Z</time>
</trkpt>
<trkpt lat="34.9469348" lon="33.5685914">
<ele>81.00</ele>
<time>2015-05-01T15:18:54Z</time>
</trkpt>
<trkpt lat="34.9469708" lon="33.5686649">
<ele>81.01</ele>
<time>2015-05-01T15:18:55Z</time>
</trkpt>
<trkpt lat="34.9470099" lon="33.5687436">
<ele>81.01</ele>
<time>2015-05-01T15:18:56Z</time>
</trkpt>
<trkpt lat="34.9470468" lon="33.5688186">
<ele>80.51</ele>
<time>2015-05-01T15:18:57Z</time>
</trkpt>
<trkpt lat="34.9470859" lon="33.5688896">
<ele>80.77</ele>
<time>2015-05-01T15:18:58Z</time>
</trkpt>
<trkpt lat="34.9471199" lon="33.5689549">
<ele>80.89</ele>
<time>2015-05-01T15:18:59Z</time>
</trkpt>
<trkpt lat="34.9471646" lon="33.5690192">
<ele>81.45</ele>
<time>2015-05-01T15:19:00Z</time>
</trkpt>
<trkpt lat="34.9471930" lon="33.5690765">
<ele>81.23</ele>
<time>2015-05-01T15:19:01Z</time>
</trkpt>
<trkpt lat="34.9472277" lon="33.5691422">
<ele>81.13</ele>
<time>2015-05-01T15:19:02Z</time>
</trkpt>
<trkpt lat="34.9472625" lon="33.5692002">
<ele>81.07</ele>
<time>2015-05-01T15:19:03Z</time>
</trkpt>
<trkpt lat="34.9472985" lon="33.5692680">
<ele>81.04</ele>
<time>2015-05-01T15:19:04Z</time>
</trkpt>
<trkpt lat="34.9473313" lon="33.5693315">
<ele>81.03</ele>
<time>2015-05-01T15:19:05Z</time>
</trkpt>
<trkpt lat="34.9473638" lon="33.5693930">
<ele>81.02</ele>
<time>2015-05-01T15:19:06Z</time>
</trkpt>
<trkpt lat="34.9474019" lon="33.5694605">
<ele>81.02</ele>
<time>2015-05-01T15:19:07Z</time>
</trkpt>
<trkpt lat="34.9474375" lon="33.5695286">
<ele>80.52</ele>
<time>2015-05-01T15:19:08Z</time>
</trkpt>
<trkpt lat="34.9474713" lon="33.5695917">
<ele>80.27</ele>
<time>2015-05-01T15:19:09Z</time>
</trkpt>
<trkpt lat="34.9474898" lon="33.5696616">
<ele>80.14</ele>
<time>2015-05-01T15:19:10Z</time>
</trkpt>
<trkpt lat="34.9475181" lon="33.5697272">
<ele>79.58</ele>
<time>2015-05-01T15:19:11Z</time>
</trkpt>
<trkpt lat="34.9475609" lon="33.5698041">
<ele>79.80</ele>
<time>2015-05-01T15:19:12Z</time>
</trkpt>
<trkpt lat="34.9476024" lon="33.5698772">
<ele>79.41</ele>
<time>2015-05-01T15:19:13Z</time>
</trkpt>
<trkpt lat="34.9476485" lon="33.5699654">
<ele>78.71</ele>
<time>2015-05-01T15:19:14Z</time>
</trkpt>
<trkpt lat="34.9476952" lon="33.5700506">
<ele>77.86</ele>
<time>2015-05-01T15:19:15Z</time>
</trkpt>
<trkpt lat="34.9477352" lon="33.5701346">
<ele>76.94</ele>
<time>2015-05-01T15:19:16Z</time>
</trkpt>
<trkpt lat="34.9477843" lon="33.5702154">
<ele>76.48</ele>
<time>2015-05-01T15:19:17Z</time>
</trkpt>
<trkpt lat="34.9478212" lon="33.5702960">
<ele>76.25</ele>
<time>2015-05-01T15:19:18Z</time>
</trkpt>
<trkpt lat="34.9478585" lon="33.5703712">
<ele>75.63</ele>
<time>2015-05-01T15:19:19Z</time>
</trkpt>
<trkpt lat="34.9478993" lon="33.5704550">
<ele>75.82</ele>
<time>2015-05-01T15:19:20Z</time>
</trkpt>
<trkpt lat="34.9479290" lon="33.5705299">
<ele>75.42</ele>
<time>2015-05-01T15:19:21Z</time>
</trkpt>
<trkpt lat="34.9479569" lon="33.5706093">
<ele>75.22</ele>
<time>2015-05-01T15:19:22Z</time>
</trkpt>
<trkpt lat="34.9479800" lon="33.5706837">
<ele>75.12</ele>
<time>2015-05-01T15:19:23Z</time>
</trkpt>
<trkpt lat="34.9480060" lon="33.5707698">
<ele>75.07</ele>
<time>2015-05-01T15:19:24Z</time>
</trkpt>
<trkpt lat="34.9480351" lon="33.5708541">
<ele>74.54</ele>
<time>2015-05-01T15:19:25Z</time>
</trkpt>
<trkpt lat="34.9480586" lon="33.5709363">
<ele>74.78</ele>
<time>2015-05-01T15:19:26Z</time>
</trkpt>
<trkpt lat="34.9480767" lon="33.5710118">
<ele>74.90</ele>
<time>2015-05-01T15:19:27Z</time>
</trkpt>
<trkpt lat="34.9481009" lon="33.5710788">
<ele>74.46</ele>
<time>2015-05-01T15:19:28Z</time>
</trkpt>
<trkpt lat="34.9481209" lon="33.5711549">
<ele>73.74</ele>
<time>2015-05-01T15:19:29Z</time>
</trkpt>
<trkpt lat="34.9481448" lon="33.5712297">
<ele>73.88</ele>
<time>2015-05-01T15:19:30Z</time>
</trkpt>
<trkpt lat="34.9481598" lon="33.5712976">
<ele>74.45</ele>
<time>2015-05-01T15:19:31Z</time>
</trkpt>
<trkpt lat="34.9481852" lon="33.5713734">
<ele>75.23</ele>
<time>2015-05-01T15:19:32Z</time>
</trkpt>
<trkpt lat="34.9481966" lon="33.5714435">
<ele>75.62</ele>
<time>2015-05-01T15:19:33Z</time>
</trkpt>
<trkpt lat="34.9482043" lon="33.5715110">
<ele>75.82</ele>
<time>2015-05-01T15:19:34Z</time>
</trkpt>
<trkpt lat="34.9482150" lon="33.5715757">
<ele>75.42</ele>
<time>2015-05-01T15:19:35Z</time>
</trkpt>
<trkpt lat="34.9482265" lon="33.5716328">
<ele>74.72</ele>
<time>2015-05-01T15:19:36Z</time>
</trkpt>
<trkpt lat="34.9482347" lon="33.5716978">
<ele>74.37</ele>
<time>2015-05-01T15:19:37Z</time>
</trkpt>
<trkpt lat="34.9482437" lon="33.5717573">
<ele>73.69</ele>
<time>2015-05-01T15:19:38Z</time>
</trkpt>
<trkpt lat="34.9482648" lon="33.5718189">
<ele>73.35</ele>
<time>2015-05-01T15:19:39Z</time>
</trkpt>
<trkpt lat="34.9482782" lon="33.5718830">
<ele>73.18</ele>
<time>2015-05-01T15:19:40Z</time>
</trkpt>
<trkpt lat="34.9482916" lon="33.5719444">
<ele>73.60</ele>
<time>2015-05-01T15:19:41Z</time>
</trkpt>
<trkpt lat="34.9483118" lon="33.5720087">
<ele>73.81</ele>
<time>2015-05-01T15:19:42Z</time>
</trkpt>
<trkpt lat="34.9483440" lon="33.5720699">
<ele>73.91</ele>
<time>2015-05-01T15:19:43Z</time>
</trkpt>
<trkpt lat="34.9483653" lon="33.5721185">
<ele>74.46</ele>
<time>2015-05-01T15:19:44Z</time>
</trkpt>
<trkpt lat="34.9483918" lon="33.5721840">
<ele>74.74</ele>
<time>2015-05-01T15:19:45Z</time>
</trkpt>
<trkpt lat="34.9484096" lon="33.5722446">
<ele>74.88</ele>
<time>2015-05-01T15:19:46Z</time>
</trkpt>
<trkpt lat="34.9484322" lon="33.5722960">
<ele>74.95</ele>
<time>2015-05-01T15:19:47Z</time>
</trkpt>
<trkpt lat="34.9484672" lon="33.5723429">
<ele>74.48</ele>
<time>2015-05-01T15:19:48Z</time>
</trkpt>
<trkpt lat="34.9485039" lon="33.5724004">
<ele>74.25</ele>
<time>2015-05-01T15:19:49Z</time>
</trkpt>
<trkpt lat="34.9485533" lon="33.5724502">
<ele>74.13</ele>
<time>2015-05-01T15:19:50Z</time>
</trkpt>
<trkpt lat="34.9485892" lon="33.5725023">
<ele>74.57</ele>
<time>2015-05-01T15:19:51Z</time>
</trkpt>
<trkpt lat="34.9486298" lon="33.5725626">
<ele>75.30</ele>
<time>2015-05-01T15:19:52Z</time>
</trkpt>
<trkpt lat="34.9486687" lon="33.5726191">
<ele>75.16</ele>
<time>2015-05-01T15:19:53Z</time>
</trkpt>
<trkpt lat="34.9487042" lon="33.5726733">
<ele>75.59</ele>
<time>2015-05-01T15:19:54Z</time>
</trkpt>
<trkpt lat="34.9487418" lon="33.5727246">
<ele>75.80</ele>
<time>2015-05-01T15:19:55Z</time>
</trkpt>
<trkpt lat="34.9487841" lon="33.5727762">
<ele>75.91</ele>
<time>2015-05-01T15:19:56Z</time>
</trkpt>
<trkpt lat="34.9488332" lon="33.5728268">
<ele>75.46</ele>
<time>2015-05-01T15:19:57Z</time>
</trkpt>
<trkpt lat="34.9488774" lon="33.5728780">
<ele>75.74</ele>
<time>2015-05-01T15:19:58Z</time>
</trkpt>
<trkpt lat="34.9489263" lon="33.5729280">
<ele>75.88</ele>
<time>2015-05-01T15:19:59Z</time>
</trkpt>
<trkpt lat="34.9489714" lon="33.5729781">
<ele>75.95</ele>
<time>2015-05-01T15:20:00Z</time>
</trkpt>
<trkpt lat="34.9490130" lon="33.5730324">
<ele>75.98</ele>
<time>2015-05-01T15:20:01Z</time>
</trkpt>
<trkpt lat="34.9490549" lon="33.5730886">
<ele>76.00</ele>
<time>2015-05-01T15:20:02Z</time>
</trkpt>
<trkpt lat="34.9490861" lon="33.5731454">
<ele>76.51</ele>
<time>2015-05-01T15:20:03Z</time>
</trkpt>
<trkpt lat="34.9491208" lon="33.5732064">
<ele>76.76</ele>
<time>2015-05-01T15:20:04Z</time>
</trkpt>
<trkpt lat="34.9491568" lon="33.5732712">
<ele>76.89</ele>
<time>2015-05-01T15:20:05Z</time>
</trkpt>
<trkpt lat="34.9491904" lon="33.5733339">
<ele>76.95</ele>
<time>2015-05-01T15:20:06Z</time>
</trkpt>
<trkpt lat="34.9492281" lon="33.5733910">
<ele>76.98</ele>
<time>2015-05-01T15:20:07Z</time>
</trkpt>
<trkpt lat="34.9492712" lon="33.5734438">
<ele>76.50</ele>
<time>2015-05-01T15:20:08Z</time>
</trkpt>
<trkpt lat="34.9493238" lon="33.5734818">
<ele>76.26</ele>
<time>2015-05-01T15:20:09Z</time>
</trkpt>
<trkpt lat="34.9493736" lon="33.5734967">
<ele>76.14</ele>
<time>2015-05-01T15:20:10Z</time>
</trkpt>
<trkpt lat="34.9494221" lon="33.5735116">
<ele>76.08</ele>
<time>2015-05-01T15:20:11Z</time>
</trkpt>
<trkpt lat="34.9494704" lon="33.5735222">
<ele>76.05</ele>
<time>2015-05-01T15:20:12Z</time>
</trkpt>
<trkpt lat="34.9495480" lon="33.5735290">
<ele>75.77</ele>
<time>2015-05-01T15:20:14Z</time>
</trkpt>
<trkpt lat="34.9496004" lon="33.5735086">
<ele>75.21</ele>
<time>2015-05-01T15:20:16Z</time>
</trkpt>
<trkpt lat="34.9496340" lon="33.5734624">
<ele>75.06</ele>
<time>2015-05-01T15:20:18Z</time>
</trkpt>
<trkpt lat="34.9496638" lon="33.5733988">
<ele>75.78</ele>
<time>2015-05-01T15:20:20Z</time>
</trkpt>
<trkpt lat="34.9496964" lon="33.5733298">
<ele>75.46</ele>
<time>2015-05-01T15:20:22Z</time>
</trkpt>
<trkpt lat="34.9497263" lon="33.5732466">
<ele>74.38</ele>
<time>2015-05-01T15:20:24Z</time>
</trkpt>
<trkpt lat="34.9497597" lon="33.5731496">
<ele>74.11</ele>
<time>2015-05-01T15:20:26Z</time>
</trkpt>
<trkpt lat="34.9497776" lon="33.5730910">
<ele>74.06</ele>
<time>2015-05-01T15:20:27Z</time>
</trkpt>
<trkpt lat="34.9497969" lon="33.5730364">
<ele>74.04</ele>
<time>2015-05-01T15:20:28Z</time>
</trkpt>
<trkpt lat="34.9498174" lon="33.5729843">
<ele>74.03</ele>
<time>2015-05-01T15:20:29Z</time>
</trkpt>
<trkpt lat="34.9498343" lon="33.5729293">
<ele>74.02</ele>
<time>2015-05-01T15:20:30Z</time>
</trkpt>
<trkpt lat="34.9498624" lon="33.5728369">
<ele>74.02</ele>
<time>2015-05-01T15:20:32Z</time>
</trkpt>
<trkpt lat="34.9498857" lon="33.5727621">
<ele>74.02</ele>
<time>2015-05-01T15:20:34Z</time>
</trkpt>
<trkpt lat="34.9498724" lon="33.5726888">
<ele>73.27</ele>
<time>2015-05-01T15:20:37Z</time>
</trkpt>
<trkpt lat="34.9498891" lon="33.5726302">
<ele>72.11</ele>
<time>2015-05-01T15:20:43Z</time>
</trkpt>
<trkpt lat="34.9499334" lon="33.5725847">
<ele>72.96</ele>
<time>2015-05-01T15:20:47Z</time>
</trkpt>
<trkpt lat="34.9499842" lon="33.5725477">
<ele>74.00</ele>
<time>2015-05-01T15:20:55Z</time>
</trkpt>
<trkpt lat="34.9500395" lon="33.5725525">
<ele>74.01</ele>
<time>2015-05-01T15:20:57Z</time>
</trkpt>
<trkpt lat="34.9500916" lon="33.5725263">
<ele>74.02</ele>
<time>2015-05-01T15:20:59Z</time>
</trkpt>
<trkpt lat="34.9501412" lon="33.5724906">
<ele>74.77</ele>
<time>2015-05-01T15:21:01Z</time>
</trkpt>
<trkpt lat="34.9501906" lon="33.5724847">
<ele>74.20</ele>
<time>2015-05-01T15:21:03Z</time>
</trkpt>
<trkpt lat="34.9502539" lon="33.5724836">
<ele>73.28</ele>
<time>2015-05-01T15:21:07Z</time>
</trkpt>
<trkpt lat="34.9503299" lon="33.5724784">
<ele>72.58</ele>
<time>2015-05-01T15:21:09Z</time>
</trkpt>
<trkpt lat="34.9503742" lon="33.5724966">
<ele>72.30</ele>
<time>2015-05-01T15:21:10Z</time>
</trkpt>
<trkpt lat="34.9504211" lon="33.5725218">
<ele>71.66</ele>
<time>2015-05-01T15:21:11Z</time>
</trkpt>
<trkpt lat="34.9504784" lon="33.5725597">
<ele>71.34</ele>
<time>2015-05-01T15:21:12Z</time>
</trkpt>
<trkpt lat="34.9505303" lon="33.5725959">
<ele>70.68</ele>
<time>2015-05-01T15:21:13Z</time>
</trkpt>
<trkpt lat="34.9505912" lon="33.5726258">
<ele>70.35</ele>
<time>2015-05-01T15:21:14Z</time>
</trkpt>
<trkpt lat="34.9506558" lon="33.5726582">
<ele>69.68</ele>
<time>2015-05-01T15:21:15Z</time>
</trkpt>
<trkpt lat="34.9507182" lon="33.5727040">
<ele>68.85</ele>
<time>2015-05-01T15:21:16Z</time>
</trkpt>
<trkpt lat="34.9507805" lon="33.5727602">
<ele>68.43</ele>
<time>2015-05-01T15:21:17Z</time>
</trkpt>
<trkpt lat="34.9508417" lon="33.5728236">
<ele>67.72</ele>
<time>2015-05-01T15:21:18Z</time>
</trkpt>
<trkpt lat="34.9509019" lon="33.5728964">
<ele>67.37</ele>
<time>2015-05-01T15:21:19Z</time>
</trkpt>
<trkpt lat="34.9509599" lon="33.5729791">
<ele>66.69</ele>
<time>2015-05-01T15:21:20Z</time>
</trkpt>
<trkpt lat="34.9510163" lon="33.5730705">
<ele>65.85</ele>
<time>2015-05-01T15:21:21Z</time>
</trkpt>
<trkpt lat="34.9510666" lon="33.5731669">
<ele>64.94</ele>
<time>2015-05-01T15:21:22Z</time>
</trkpt>
<trkpt lat="34.9511202" lon="33.5732656">
<ele>63.98</ele>
<time>2015-05-01T15:21:23Z</time>
</trkpt>
<trkpt lat="34.9511681" lon="33.5733665">
<ele>63.50</ele>
<time>2015-05-01T15:21:24Z</time>
</trkpt>
<trkpt lat="34.9512192" lon="33.5734660">
<ele>63.26</ele>
<time>2015-05-01T15:21:25Z</time>
</trkpt>
<trkpt lat="34.9512609" lon="33.5735690">
<ele>63.14</ele>
<time>2015-05-01T15:21:26Z</time>
</trkpt>
<trkpt lat="34.9513018" lon="33.5736772">
<ele>62.58</ele>
<time>2015-05-01T15:21:27Z</time>
</trkpt>
<trkpt lat="34.9513492" lon="33.5737822">
<ele>62.80</ele>
<time>2015-05-01T15:21:28Z</time>
</trkpt>
<trkpt lat="34.9513881" lon="33.5738737">
<ele>62.41</ele>
<time>2015-05-01T15:21:29Z</time>
</trkpt>
<trkpt lat="34.9514280" lon="33.5739730">
<ele>62.71</ele>
<time>2015-05-01T15:21:30Z</time>
</trkpt>
<trkpt lat="34.9514487" lon="33.5740746">
<ele>62.86</ele>
<time>2015-05-01T15:21:31Z</time>
</trkpt>
<trkpt lat="34.9514737" lon="33.5741708">
<ele>63.44</ele>
<time>2015-05-01T15:21:32Z</time>
</trkpt>
<trkpt lat="34.9514953" lon="33.5742674">
<ele>64.23</ele>
<time>2015-05-01T15:21:33Z</time>
</trkpt>
<trkpt lat="34.9515141" lon="33.5743539">
<ele>65.12</ele>
<time>2015-05-01T15:21:34Z</time>
</trkpt>
<trkpt lat="34.9515220" lon="33.5744378">
<ele>65.57</ele>
<time>2015-05-01T15:21:35Z</time>
</trkpt>
<trkpt lat="34.9515230" lon="33.5745223">
<ele>66.29</ele>
<time>2015-05-01T15:21:36Z</time>
</trkpt>
<trkpt lat="34.9515126" lon="33.5746097">
<ele>66.65</ele>
<time>2015-05-01T15:21:37Z</time>
</trkpt>
<trkpt lat="34.9515009" lon="33.5746778">
<ele>66.84</ele>
<time>2015-05-01T15:21:38Z</time>
</trkpt>
<trkpt lat="34.9514881" lon="33.5747464">
<ele>67.43</ele>
<time>2015-05-01T15:21:39Z</time>
</trkpt>
<trkpt lat="34.9514693" lon="33.5748051">
<ele>67.22</ele>
<time>2015-05-01T15:21:40Z</time>
</trkpt>
<trkpt lat="34.9514444" lon="33.5748664">
<ele>67.62</ele>
<time>2015-05-01T15:21:41Z</time>
</trkpt>
<trkpt lat="34.9514183" lon="33.5749201">
<ele>67.32</ele>
<time>2015-05-01T15:21:42Z</time>
</trkpt>
<trkpt lat="34.9513850" lon="33.5749789">
<ele>67.67</ele>
<time>2015-05-01T15:21:43Z</time>
</trkpt>
<trkpt lat="34.9513433" lon="33.5750317">
<ele>67.84</ele>
<time>2015-05-01T15:21:44Z</time>
</trkpt>
<trkpt lat="34.9513009" lon="33.5750824">
<ele>67.93</ele>
<time>2015-05-01T15:21:45Z</time>
</trkpt>
<trkpt lat="34.9512546" lon="33.5751282">
<ele>67.97</ele>
<time>2015-05-01T15:21:46Z</time>
</trkpt>
<trkpt lat="34.9512112" lon="33.5751755">
<ele>67.99</ele>
<time>2015-05-01T15:21:47Z</time>
</trkpt>
<trkpt lat="34.9511589" lon="33.5752210">
<ele>67.01</ele>
<time>2015-05-01T15:21:48Z</time>
</trkpt>
<trkpt lat="34.9511087" lon="33.5752532">
<ele>66.51</ele>
<time>2015-05-01T15:21:49Z</time>
</trkpt>
<trkpt lat="34.9510548" lon="33.5752732">
<ele>66.26</ele>
<time>2015-05-01T15:21:50Z</time>
</trkpt>
<trkpt lat="34.9510005" lon="33.5752824">
<ele>66.14</ele>
<time>2015-05-01T15:21:51Z</time>
</trkpt>
<trkpt lat="34.9509445" lon="33.5752914">
<ele>66.58</ele>
<time>2015-05-01T15:21:52Z</time>
</trkpt>
<trkpt lat="34.9508883" lon="33.5752977">
<ele>66.80</ele>
<time>2015-05-01T15:21:53Z</time>
</trkpt>
<trkpt lat="34.9508351" lon="33.5752946">
<ele>67.41</ele>
<time>2015-05-01T15:21:54Z</time>
</trkpt>
<trkpt lat="34.9507814" lon="33.5752934">
<ele>67.71</ele>
<time>2015-05-01T15:21:55Z</time>
</trkpt>
<trkpt lat="34.9507320" lon="33.5752902">
<ele>67.86</ele>
<time>2015-05-01T15:21:56Z</time>
</trkpt>
<trkpt lat="34.9506459" lon="33.5752831">
<ele>68.73</ele>
<time>2015-05-01T15:21:58Z</time>
</trkpt>
<trkpt lat="34.9505688" lon="33.5752735">
<ele>68.94</ele>
<time>2015-05-01T15:22:00Z</time>
</trkpt>
<trkpt lat="34.9504907" lon="33.5752572">
<ele>69.00</ele>
<time>2015-05-01T15:22:02Z</time>
</trkpt>
<trkpt lat="34.9504148" lon="33.5752416">
<ele>69.76</ele>
<time>2015-05-01T15:22:04Z</time>
</trkpt>
<trkpt lat="34.9503398" lon="33.5752337">
<ele>70.45</ele>
<time>2015-05-01T15:22:06Z</time>
</trkpt>
<trkpt lat="34.9502646" lon="33.5752262">
<ele>70.88</ele>
<time>2015-05-01T15:22:08Z</time>
</trkpt>
<trkpt lat="34.9501894" lon="33.5752224">
<ele>72.23</ele>
<time>2015-05-01T15:22:10Z</time>
</trkpt>
<trkpt lat="34.9501175" lon="33.5752212">
<ele>73.32</ele>
<time>2015-05-01T15:22:12Z</time>
</trkpt>
<trkpt lat="34.9500614" lon="33.5752215">
<ele>73.84</ele>
<time>2015-05-01T15:22:14Z</time>
</trkpt>
<trkpt lat="34.9500102" lon="33.5752234">
<ele>73.99</ele>
<time>2015-05-01T15:22:17Z</time>
</trkpt>
<trkpt lat="34.9499586" lon="33.5752453">
<ele>74.01</ele>
<time>2015-05-01T15:22:21Z</time>
</trkpt>
<trkpt lat="34.9498885" lon="33.5752223">
<ele>75.70</ele>
<time>2015-05-01T15:22:28Z</time>
</trkpt>
<trkpt lat="34.9498215" lon="33.5751736">
<ele>75.19</ele>
<time>2015-05-01T15:22:30Z</time>
</trkpt>
<trkpt lat="34.9497837" lon="33.5750924">
<ele>75.06</ele>
<time>2015-05-01T15:22:32Z</time>
</trkpt>
<trkpt lat="34.9497722" lon="33.5749988">
<ele>75.03</ele>
<time>2015-05-01T15:22:34Z</time>
</trkpt>
<trkpt lat="34.9497587" lon="33.5749109">
<ele>74.27</ele>
<time>2015-05-01T15:22:36Z</time>
</trkpt>
<trkpt lat="34.9497465" lon="33.5748265">
<ele>74.08</ele>
<time>2015-05-01T15:22:38Z</time>
</trkpt>
<trkpt lat="34.9497363" lon="33.5747624">
<ele>74.53</ele>
<time>2015-05-01T15:22:40Z</time>
</trkpt>
<trkpt lat="34.9496926" lon="33.5747302">
<ele>75.77</ele>
<time>2015-05-01T15:22:54Z</time>
</trkpt>
<trkpt lat="34.9496245" lon="33.5746995">
<ele>76.70</ele>
<time>2015-05-01T15:22:56Z</time>
</trkpt>
<trkpt lat="34.9495480" lon="33.5747378">
<ele>76.44</ele>
<time>2015-05-01T15:22:58Z</time>
</trkpt>
<trkpt lat="34.9494878" lon="33.5747996">
<ele>76.12</ele>
<time>2015-05-01T15:23:00Z</time>
</trkpt>
<trkpt lat="34.9494287" lon="33.5748507">
<ele>76.04</ele>
<time>2015-05-01T15:23:02Z</time>
</trkpt>
<trkpt lat="34.9493649" lon="33.5748906">
<ele>75.52</ele>
<time>2015-05-01T15:23:04Z</time>
</trkpt>
<trkpt lat="34.9493027" lon="33.5749337">
<ele>75.14</ele>
<time>2015-05-01T15:23:06Z</time>
</trkpt>
<trkpt lat="34.9492405" lon="33.5749934">
<ele>74.30</ele>
<time>2015-05-01T15:23:08Z</time>
</trkpt>
<trkpt lat="34.9491892" lon="33.5750594">
<ele>73.66</ele>
<time>2015-05-01T15:23:09Z</time>
</trkpt>
<trkpt lat="34.9491510" lon="33.5751100">
<ele>73.84</ele>
<time>2015-05-01T15:23:10Z</time>
</trkpt>
<trkpt lat="34.9491082" lon="33.5751616">
<ele>73.93</ele>
<time>2015-05-01T15:23:11Z</time>
</trkpt>
<trkpt lat="34.9490625" lon="33.5752113">
<ele>73.97</ele>
<time>2015-05-01T15:23:12Z</time>
</trkpt>
<trkpt lat="34.9490214" lon="33.5752633">
<ele>73.99</ele>
<time>2015-05-01T15:23:13Z</time>
</trkpt>
<trkpt lat="34.9489751" lon="33.5753182">
<ele>73.50</ele>
<time>2015-05-01T15:23:14Z</time>
</trkpt>
<trkpt lat="34.9489261" lon="33.5753713">
<ele>73.26</ele>
<time>2015-05-01T15:23:15Z</time>
</trkpt>
<trkpt lat="34.9488786" lon="33.5754279">
<ele>72.64</ele>
<time>2015-05-01T15:23:16Z</time>
</trkpt>
<trkpt lat="34.9488261" lon="33.5754852">
<ele>72.33</ele>
<time>2015-05-01T15:23:17Z</time>
</trkpt>
<trkpt lat="34.9487729" lon="33.5755418">
<ele>72.17</ele>
<time>2015-05-01T15:23:18Z</time>
</trkpt>
<trkpt lat="34.9487207" lon="33.5756061">
<ele>72.09</ele>
<time>2015-05-01T15:23:19Z</time>
</trkpt>
<trkpt lat="34.9486645" lon="33.5756735">
<ele>71.55</ele>
<time>2015-05-01T15:23:20Z</time>
</trkpt>
<trkpt lat="34.9486084" lon="33.5757433">
<ele>70.79</ele>
<time>2015-05-01T15:23:21Z</time>
</trkpt>
<trkpt lat="34.9485538" lon="33.5758266">
<ele>70.40</ele>
<time>2015-05-01T15:23:22Z</time>
</trkpt>
<trkpt lat="34.9484996" lon="33.5759076">
<ele>70.21</ele>
<time>2015-05-01T15:23:23Z</time>
</trkpt>
<trkpt lat="34.9484442" lon="33.5759821">
<ele>69.61</ele>
<time>2015-05-01T15:23:24Z</time>
</trkpt>
<trkpt lat="34.9483928" lon="33.5760584">
<ele>69.31</ele>
<time>2015-05-01T15:23:25Z</time>
</trkpt>
<trkpt lat="34.9483331" lon="33.5761325">
<ele>68.67</ele>
<time>2015-05-01T15:23:26Z</time>
</trkpt>
<trkpt lat="34.9482737" lon="33.5762139">
<ele>68.34</ele>
<time>2015-05-01T15:23:27Z</time>
</trkpt>
<trkpt lat="34.9482118" lon="33.5762980">
<ele>68.18</ele>
<time>2015-05-01T15:23:28Z</time>
</trkpt>
<trkpt lat="34.9481574" lon="33.5763843">
<ele>67.10</ele>
<time>2015-05-01T15:23:29Z</time>
</trkpt>
<trkpt lat="34.9480960" lon="33.5764651">
<ele>66.56</ele>
<time>2015-05-01T15:23:30Z</time>
</trkpt>
<trkpt lat="34.9480338" lon="33.5765459">
<ele>66.29</ele>
<time>2015-05-01T15:23:31Z</time>
</trkpt>
<trkpt lat="34.9479725" lon="33.5766281">
<ele>66.15</ele>
<time>2015-05-01T15:23:32Z</time>
</trkpt>
<trkpt lat="34.9479075" lon="33.5767080">
<ele>66.08</ele>
<time>2015-05-01T15:23:33Z</time>
</trkpt>
<trkpt lat="34.9478453" lon="33.5767870">
<ele>65.55</ele>
<time>2015-05-01T15:23:34Z</time>
</trkpt>
<trkpt lat="34.9477879" lon="33.5768631">
<ele>65.78</ele>
<time>2015-05-01T15:23:35Z</time>
</trkpt>
<trkpt lat="34.9477223" lon="33.5769371">
<ele>65.90</ele>
<time>2015-05-01T15:23:36Z</time>
</trkpt>
<trkpt lat="34.9476614" lon="33.5770149">
<ele>66.46</ele>
<time>2015-05-01T15:23:37Z</time>
</trkpt>
<trkpt lat="34.9475971" lon="33.5770922">
<ele>66.74</ele>
<time>2015-05-01T15:23:38Z</time>
</trkpt>
<trkpt lat="34.9475308" lon="33.5771754">
<ele>67.38</ele>
<time>2015-05-01T15:23:39Z</time>
</trkpt>
<trkpt lat="34.9474652" lon="33.5772542">
<ele>67.70</ele>
<time>2015-05-01T15:23:40Z</time>
</trkpt>
<trkpt lat="34.9474002" lon="33.5773329">
<ele>67.86</ele>
<time>2015-05-01T15:23:41Z</time>
</trkpt>
<trkpt lat="34.9473350" lon="33.5774131">
<ele>68.44</ele>
<time>2015-05-01T15:23:42Z</time>
</trkpt>
<trkpt lat="34.9472647" lon="33.5774854">
<ele>68.73</ele>
<time>2015-05-01T15:23:43Z</time>
</trkpt>
<trkpt lat="34.9471982" lon="33.5775601">
<ele>68.87</ele>
<time>2015-05-01T15:23:44Z</time>
</trkpt>
<trkpt lat="34.9471336" lon="33.5776321">
<ele>68.44</ele>
<time>2015-05-01T15:23:45Z</time>
</trkpt>
<trkpt lat="34.9470655" lon="33.5777015">
<ele>68.23</ele>
<time>2015-05-01T15:23:46Z</time>
</trkpt>
<trkpt lat="34.9469999" lon="33.5777740">
<ele>68.12</ele>
<time>2015-05-01T15:23:47Z</time>
</trkpt>
<trkpt lat="34.9469289" lon="33.5778470">
<ele>68.07</ele>
<time>2015-05-01T15:23:48Z</time>
</trkpt>
<trkpt lat="34.9468611" lon="33.5779191">
<ele>68.04</ele>
<time>2015-05-01T15:23:49Z</time>
</trkpt>
<trkpt lat="34.9468090" lon="33.5779778">
<ele>68.03</ele>
<time>2015-05-01T15:23:50Z</time>
</trkpt>
<trkpt lat="34.9467747" lon="33.5780181">
<ele>68.02</ele>
<time>2015-05-01T15:23:51Z</time>
</trkpt>
<trkpt lat="34.9467421" lon="33.5780576">
<ele>68.89</ele>
<time>2015-05-01T15:23:54Z</time>
</trkpt>
<trkpt lat="34.9467183" lon="33.5781183">
<ele>69.88</ele>
<time>2015-05-01T15:23:57Z</time>
</trkpt>
<trkpt lat="34.9466813" lon="33.5781750">
<ele>69.87</ele>
<time>2015-05-01T15:24:00Z</time>
</trkpt>
<trkpt lat="34.9466388" lon="33.5782377">
<ele>70.00</ele>
<time>2015-05-01T15:24:03Z</time>
</trkpt>
<trkpt lat="34.9465930" lon="33.5783030">
<ele>70.01</ele>
<time>2015-05-01T15:24:05Z</time>
</trkpt>
<trkpt lat="34.9465292" lon="33.5783731">
<ele>70.51</ele>
<time>2015-05-01T15:24:07Z</time>
</trkpt>
<trkpt lat="34.9464913" lon="33.5784143">
<ele>70.77</ele>
<time>2015-05-01T15:24:08Z</time>
</trkpt>
<trkpt lat="34.9464499" lon="33.5784553">
<ele>70.89</ele>
<time>2015-05-01T15:24:09Z</time>
</trkpt>
<trkpt lat="34.9464063" lon="33.5784911">
<ele>70.95</ele>
<time>2015-05-01T15:24:10Z</time>
</trkpt>
<trkpt lat="34.9463639" lon="33.5785354">
<ele>70.98</ele>
<time>2015-05-01T15:24:11Z</time>
</trkpt>
<trkpt lat="34.9463176" lon="33.5785858">
<ele>71.00</ele>
<time>2015-05-01T15:24:12Z</time>
</trkpt>
<trkpt lat="34.9462730" lon="33.5786351">
<ele>71.01</ele>
<time>2015-05-01T15:24:13Z</time>
</trkpt>
<trkpt lat="34.9462264" lon="33.5786768">
<ele>71.01</ele>
<time>2015-05-01T15:24:14Z</time>
</trkpt>
<trkpt lat="34.9461836" lon="33.5787236">
<ele>71.01</ele>
<time>2015-05-01T15:24:15Z</time>
</trkpt>
<trkpt lat="34.9461427" lon="33.5787707">
<ele>70.52</ele>
<time>2015-05-01T15:24:16Z</time>
</trkpt>
<trkpt lat="34.9460977" lon="33.5788121">
<ele>70.77</ele>
<time>2015-05-01T15:24:17Z</time>
</trkpt>
<trkpt lat="34.9460568" lon="33.5788536">
<ele>70.89</ele>
<time>2015-05-01T15:24:18Z</time>
</trkpt>
<trkpt lat="34.9460095" lon="33.5788968">
<ele>70.95</ele>
<time>2015-05-01T15:24:19Z</time>
</trkpt>
<trkpt lat="34.9459693" lon="33.5789455">
<ele>70.98</ele>
<time>2015-05-01T15:24:20Z</time>
</trkpt>
<trkpt lat="34.9459236" lon="33.5789927">
<ele>71.00</ele>
<time>2015-05-01T15:24:21Z</time>
</trkpt>
<trkpt lat="34.9458765" lon="33.5790402">
<ele>71.01</ele>
<time>2015-05-01T15:24:22Z</time>
</trkpt>
<trkpt lat="34.9458284" lon="33.5790924">
<ele>71.01</ele>
<time>2015-05-01T15:24:23Z</time>
</trkpt>
<trkpt lat="34.9457826" lon="33.5791410">
<ele>71.01</ele>
<time>2015-05-01T15:24:24Z</time>
</trkpt>
<trkpt lat="34.9457332" lon="33.5791959">
<ele>70.52</ele>
<time>2015-05-01T15:24:25Z</time>
</trkpt>
<trkpt lat="34.9456815" lon="33.5792442">
<ele>70.27</ele>
<time>2015-05-01T15:24:26Z</time>
</trkpt>
<trkpt lat="34.9456319" lon="33.5792931">
<ele>70.14</ele>
<time>2015-05-01T15:24:27Z</time>
</trkpt>
<trkpt lat="34.9455822" lon="33.5793425">
<ele>70.08</ele>
<time>2015-05-01T15:24:28Z</time>
</trkpt>
<trkpt lat="34.9455328" lon="33.5793951">
<ele>69.55</ele>
<time>2015-05-01T15:24:29Z</time>
</trkpt>
<trkpt lat="34.9454818" lon="33.5794428">
<ele>69.78</ele>
<time>2015-05-01T15:24:30Z</time>
</trkpt>
<trkpt lat="34.9454306" lon="33.5794865">
<ele>69.90</ele>
<time>2015-05-01T15:24:31Z</time>
</trkpt>
<trkpt lat="34.9453835" lon="33.5795356">
<ele>69.96</ele>
<time>2015-05-01T15:24:32Z</time>
</trkpt>
<trkpt lat="34.9453355" lon="33.5795864">
<ele>69.99</ele>
<time>2015-05-01T15:24:33Z</time>
</trkpt>
<trkpt lat="34.9452867" lon="33.5796329">
<ele>70.00</ele>
<time>2015-05-01T15:24:34Z</time>
</trkpt>
<trkpt lat="34.9452389" lon="33.5796782">
<ele>70.01</ele>
<time>2015-05-01T15:24:35Z</time>
</trkpt>
<trkpt lat="34.9451938" lon="33.5797237">
<ele>70.01</ele>
<time>2015-05-01T15:24:36Z</time>
</trkpt>
<trkpt lat="34.9451495" lon="33.5797712">
<ele>70.01</ele>
<time>2015-05-01T15:24:37Z</time>
</trkpt>
<trkpt lat="34.9451032" lon="33.5798175">
<ele>70.02</ele>
<time>2015-05-01T15:24:38Z</time>
</trkpt>
<trkpt lat="34.9450587" lon="33.5798634">
<ele>69.52</ele>
<time>2015-05-01T15:24:39Z</time>
</trkpt>
<trkpt lat="34.9450164" lon="33.5799089">
<ele>69.27</ele>
<time>2015-05-01T15:24:40Z</time>
</trkpt>
<trkpt lat="34.9449768" lon="33.5799576">
<ele>69.14</ele>
<time>2015-05-01T15:24:41Z</time>
</trkpt>
<trkpt lat="34.9449326" lon="33.5800050">
<ele>69.08</ele>
<time>2015-05-01T15:24:42Z</time>
</trkpt>
<trkpt lat="34.9448867" lon="33.5800533">
<ele>69.05</ele>
<time>2015-05-01T15:24:43Z</time>
</trkpt>
<trkpt lat="34.9448456" lon="33.5801030">
<ele>69.03</ele>
<time>2015-05-01T15:24:44Z</time>
</trkpt>
<trkpt lat="34.9448071" lon="33.5801546">
<ele>69.02</ele>
<time>2015-05-01T15:24:45Z</time>
</trkpt>
<trkpt lat="34.9447700" lon="33.5802035">
<ele>69.02</ele>
<time>2015-05-01T15:24:46Z</time>
</trkpt>
<trkpt lat="34.9447380" lon="33.5802565">
<ele>68.52</ele>
<time>2015-05-01T15:24:47Z</time>
</trkpt>
<trkpt lat="34.9447024" lon="33.5802977">
<ele>68.27</ele>
<time>2015-05-01T15:24:48Z</time>
</trkpt>
<trkpt lat="34.9446645" lon="33.5803387">
<ele>68.14</ele>
<time>2015-05-01T15:24:49Z</time>
</trkpt>
<trkpt lat="34.9446258" lon="33.5803703">
<ele>68.58</ele>
<time>2015-05-01T15:24:50Z</time>
</trkpt>
<trkpt lat="34.9445898" lon="33.5804071">
<ele>68.30</ele>
<time>2015-05-01T15:24:51Z</time>
</trkpt>
<trkpt lat="34.9445545" lon="33.5804469">
<ele>68.66</ele>
<time>2015-05-01T15:24:52Z</time>
</trkpt>
<trkpt lat="34.9445208" lon="33.5804945">
<ele>68.84</ele>
<time>2015-05-01T15:24:53Z</time>
</trkpt>
<trkpt lat="34.9444610" lon="33.5805775">
<ele>68.97</ele>
<time>2015-05-01T15:24:55Z</time>
</trkpt>
<trkpt lat="34.9443946" lon="33.5806652">
<ele>69.00</ele>
<time>2015-05-01T15:24:57Z</time>
</trkpt>
<trkpt lat="34.9443577" lon="33.5807091">
<ele>69.01</ele>
<time>2015-05-01T15:24:58Z</time>
</trkpt>
<trkpt lat="34.9443241" lon="33.5807587">
<ele>69.01</ele>
<time>2015-05-01T15:24:59Z</time>
</trkpt>
<trkpt lat="34.9442873" lon="33.5808042">
<ele>69.01</ele>
<time>2015-05-01T15:25:00Z</time>
</trkpt>
<trkpt lat="34.9442515" lon="33.5808495">
<ele>69.02</ele>
<time>2015-05-01T15:25:01Z</time>
</trkpt>
<trkpt lat="34.9442192" lon="33.5809009">
<ele>69.02</ele>
<time>2015-05-01T15:25:02Z</time>
</trkpt>
<trkpt lat="34.9441935" lon="33.5809482">
<ele>69.02</ele>
<time>2015-05-01T15:25:03Z</time>
</trkpt>
<trkpt lat="34.9441674" lon="33.5810261">
<ele>69.02</ele>
<time>2015-05-01T15:25:05Z</time>
</trkpt>
<trkpt lat="34.9441603" lon="33.5810808">
<ele>69.52</ele>
<time>2015-05-01T15:25:07Z</time>
</trkpt>
<trkpt lat="34.9441386" lon="33.5811395">
<ele>69.14</ele>
<time>2015-05-01T15:25:09Z</time>
</trkpt>
<trkpt lat="34.9441287" lon="33.5812008">
<ele>69.80</ele>
<time>2015-05-01T15:25:11Z</time>
</trkpt>
<trkpt lat="34.9440899" lon="33.5812496">
<ele>69.96</ele>
<time>2015-05-01T15:25:13Z</time>
</trkpt>
<trkpt lat="34.9440240" lon="33.5812442">
<ele>69.50</ele>
<time>2015-05-01T15:25:15Z</time>
</trkpt>
<trkpt lat="34.9439600" lon="33.5812268">
<ele>69.14</ele>
<time>2015-05-01T15:25:17Z</time>
</trkpt>
<trkpt lat="34.9439107" lon="33.5812355">
<ele>69.23</ele>
<time>2015-05-01T15:25:32Z</time>
</trkpt>
<trkpt lat="34.9438656" lon="33.5812292">
<ele>69.02</ele>
<time>2015-05-01T15:25:37Z</time>
</trkpt>
<trkpt lat="34.9438142" lon="33.5812816">
<ele>69.02</ele>
<time>2015-05-01T15:25:42Z</time>
</trkpt>
<trkpt lat="34.9437690" lon="33.5813423">
<ele>68.52</ele>
<time>2015-05-01T15:25:44Z</time>
</trkpt>
<trkpt lat="34.9437092" lon="33.5814164">
<ele>68.14</ele>
<time>2015-05-01T15:25:46Z</time>
</trkpt>
<trkpt lat="34.9436761" lon="33.5814586">
<ele>68.08</ele>
<time>2015-05-01T15:25:47Z</time>
</trkpt>
<trkpt lat="34.9436377" lon="33.5815198">
<ele>68.05</ele>
<time>2015-05-01T15:25:48Z</time>
</trkpt>
<trkpt lat="34.9436057" lon="33.5815650">
<ele>68.03</ele>
<time>2015-05-01T15:25:49Z</time>
</trkpt>
<trkpt lat="34.9435755" lon="33.5816107">
<ele>68.02</ele>
<time>2015-05-01T15:25:50Z</time>
</trkpt>
<trkpt lat="34.9435464" lon="33.5816612">
<ele>68.02</ele>
<time>2015-05-01T15:25:51Z</time>
</trkpt>
<trkpt lat="34.9435129" lon="33.5817034">
<ele>68.02</ele>
<time>2015-05-01T15:25:52Z</time>
</trkpt>
<trkpt lat="34.9434807" lon="33.5817456">
<ele>68.02</ele>
<time>2015-05-01T15:25:53Z</time>
</trkpt>
<trkpt lat="34.9434500" lon="33.5817888">
<ele>68.02</ele>
<time>2015-05-01T15:25:54Z</time>
</trkpt>
<trkpt lat="34.9434156" lon="33.5818324">
<ele>67.52</ele>
<time>2015-05-01T15:25:55Z</time>
</trkpt>
<trkpt lat="34.9433788" lon="33.5818770">
<ele>67.27</ele>
<time>2015-05-01T15:25:56Z</time>
</trkpt>
<trkpt lat="34.9433435" lon="33.5819208">
<ele>67.14</ele>
<time>2015-05-01T15:25:57Z</time>
</trkpt>
<trkpt lat="34.9433106" lon="33.5819661">
<ele>67.08</ele>
<time>2015-05-01T15:25:58Z</time>
</trkpt>
<trkpt lat="34.9432790" lon="33.5820103">
<ele>67.05</ele>
<time>2015-05-01T15:25:59Z</time>
</trkpt>
<trkpt lat="34.9432498" lon="33.5820573">
<ele>66.53</ele>
<time>2015-05-01T15:26:00Z</time>
</trkpt>
<trkpt lat="34.9432176" lon="33.5821025">
<ele>66.27</ele>
<time>2015-05-01T15:26:01Z</time>
</trkpt>
<trkpt lat="34.9431794" lon="33.5821439">
<ele>66.14</ele>
<time>2015-05-01T15:26:02Z</time>
</trkpt>
<trkpt lat="34.9431398" lon="33.5821920">
<ele>66.08</ele>
<time>2015-05-01T15:26:03Z</time>
</trkpt>
<trkpt lat="34.9431011" lon="33.5822425">
<ele>66.05</ele>
<time>2015-05-01T15:26:04Z</time>
</trkpt>
<trkpt lat="34.9430635" lon="33.5822905">
<ele>66.03</ele>
<time>2015-05-01T15:26:05Z</time>
</trkpt>
<trkpt lat="34.9430254" lon="33.5823413">
<ele>66.02</ele>
<time>2015-05-01T15:26:06Z</time>
</trkpt>
<trkpt lat="34.9429930" lon="33.5823835">
<ele>66.02</ele>
<time>2015-05-01T15:26:07Z</time>
</trkpt>
<trkpt lat="34.9429339" lon="33.5824511">
<ele>66.52</ele>
<time>2015-05-01T15:26:09Z</time>
</trkpt>
<trkpt lat="34.9428750" lon="33.5825209">
<ele>66.14</ele>
<time>2015-05-01T15:26:11Z</time>
</trkpt>
<trkpt lat="34.9428370" lon="33.5825654">
<ele>66.08</ele>
<time>2015-05-01T15:26:12Z</time>
</trkpt>
<trkpt lat="34.9427919" lon="33.5826216">
<ele>66.05</ele>
<time>2015-05-01T15:26:13Z</time>
</trkpt>
<trkpt lat="34.9427399" lon="33.5826806">
<ele>66.03</ele>
<time>2015-05-01T15:26:14Z</time>
</trkpt>
<trkpt lat="34.9426902" lon="33.5827388">
<ele>66.52</ele>
<time>2015-05-01T15:26:15Z</time>
</trkpt>
<trkpt lat="34.9426387" lon="33.5828010">
<ele>66.77</ele>
<time>2015-05-01T15:26:16Z</time>
</trkpt>
<trkpt lat="34.9425873" lon="33.5828755">
<ele>66.89</ele>
<time>2015-05-01T15:26:17Z</time>
</trkpt>
<trkpt lat="34.9425399" lon="33.5829464">
<ele>66.95</ele>
<time>2015-05-01T15:26:18Z</time>
</trkpt>
<trkpt lat="34.9424890" lon="33.5830132">
<ele>66.49</ele>
<time>2015-05-01T15:26:19Z</time>
</trkpt>
<trkpt lat="34.9424332" lon="33.5830791">
<ele>66.25</ele>
<time>2015-05-01T15:26:20Z</time>
</trkpt>
<trkpt lat="34.9423800" lon="33.5831626">
<ele>66.13</ele>
<time>2015-05-01T15:26:21Z</time>
</trkpt>
<trkpt lat="34.9423314" lon="33.5832416">
<ele>66.07</ele>
<time>2015-05-01T15:26:22Z</time>
</trkpt>
<trkpt lat="34.9422760" lon="33.5833164">
<ele>66.05</ele>
<time>2015-05-01T15:26:23Z</time>
</trkpt>
<trkpt lat="34.9422161" lon="33.5833984">
<ele>66.03</ele>
<time>2015-05-01T15:26:24Z</time>
</trkpt>
<trkpt lat="34.9421595" lon="33.5834698">
<ele>66.02</ele>
<time>2015-05-01T15:26:25Z</time>
</trkpt>
<trkpt lat="34.9420998" lon="33.5835420">
<ele>66.02</ele>
<time>2015-05-01T15:26:26Z</time>
</trkpt>
<trkpt lat="34.9420402" lon="33.5836112">
<ele>66.02</ele>
<time>2015-05-01T15:26:27Z</time>
</trkpt>
<trkpt lat="34.9419811" lon="33.5836881">
<ele>66.02</ele>
<time>2015-05-01T15:26:28Z</time>
</trkpt>
<trkpt lat="34.9419273" lon="33.5837606">
<ele>66.02</ele>
<time>2015-05-01T15:26:29Z</time>
</trkpt>
<trkpt lat="34.9418708" lon="33.5838362">
<ele>66.02</ele>
<time>2015-05-01T15:26:30Z</time>
</trkpt>
<trkpt lat="34.9418107" lon="33.5839142">
<ele>65.52</ele>
<time>2015-05-01T15:26:31Z</time>
</trkpt>
<trkpt lat="34.9417545" lon="33.5839919">
<ele>65.27</ele>
<time>2015-05-01T15:26:32Z</time>
</trkpt>
<trkpt lat="34.9416962" lon="33.5840654">
<ele>65.14</ele>
<time>2015-05-01T15:26:33Z</time>
</trkpt>
<trkpt lat="34.9416391" lon="33.5841442">
<ele>64.58</ele>
<time>2015-05-01T15:26:34Z</time>
</trkpt>
<trkpt lat="34.9415807" lon="33.5842205">
<ele>64.30</ele>
<time>2015-05-01T15:26:35Z</time>
</trkpt>
<trkpt lat="34.9415221" lon="33.5842964">
<ele>64.16</ele>
<time>2015-05-01T15:26:36Z</time>
</trkpt>
<trkpt lat="34.9414642" lon="33.5843724">
<ele>64.09</ele>
<time>2015-05-01T15:26:37Z</time>
</trkpt>
<trkpt lat="34.9414103" lon="33.5844460">
<ele>64.05</ele>
<time>2015-05-01T15:26:38Z</time>
</trkpt>
<trkpt lat="34.9413536" lon="33.5845176">
<ele>64.03</ele>
<time>2015-05-01T15:26:39Z</time>
</trkpt>
<trkpt lat="34.9412996" lon="33.5845912">
<ele>63.52</ele>
<time>2015-05-01T15:26:40Z</time>
</trkpt>
<trkpt lat="34.9412419" lon="33.5846627">
<ele>63.27</ele>
<time>2015-05-01T15:26:41Z</time>
</trkpt>
<trkpt lat="34.9411834" lon="33.5847360">
<ele>63.14</ele>
<time>2015-05-01T15:26:42Z</time>
</trkpt>
<trkpt lat="34.9411279" lon="33.5848075">
<ele>63.08</ele>
<time>2015-05-01T15:26:43Z</time>
</trkpt>
<trkpt lat="34.9410708" lon="33.5848849">
<ele>63.05</ele>
<time>2015-05-01T15:26:44Z</time>
</trkpt>
<trkpt lat="34.9410164" lon="33.5849655">
<ele>62.53</ele>
<time>2015-05-01T15:26:45Z</time>
</trkpt>
<trkpt lat="34.9409592" lon="33.5850434">
<ele>62.27</ele>
<time>2015-05-01T15:26:46Z</time>
</trkpt>
<trkpt lat="34.9408973" lon="33.5851217">
<ele>62.14</ele>
<time>2015-05-01T15:26:47Z</time>
</trkpt>
<trkpt lat="34.9408360" lon="33.5851957">
<ele>62.08</ele>
<time>2015-05-01T15:26:48Z</time>
</trkpt>
<trkpt lat="34.9407768" lon="33.5852751">
<ele>62.05</ele>
<time>2015-05-01T15:26:49Z</time>
</trkpt>
<trkpt lat="34.9407216" lon="33.5853555">
<ele>62.03</ele>
<time>2015-05-01T15:26:50Z</time>
</trkpt>
<trkpt lat="34.9406618" lon="33.5854375">
<ele>62.02</ele>
<time>2015-05-01T15:26:51Z</time>
</trkpt>
<trkpt lat="34.9406022" lon="33.5855144">
<ele>62.02</ele>
<time>2015-05-01T15:26:52Z</time>
</trkpt>
<trkpt lat="34.9405403" lon="33.5855925">
<ele>62.02</ele>
<time>2015-05-01T15:26:53Z</time>
</trkpt>
<trkpt lat="34.9404828" lon="33.5856728">
<ele>62.02</ele>
<time>2015-05-01T15:26:54Z</time>
</trkpt>
<trkpt lat="34.9404257" lon="33.5857516">
<ele>62.02</ele>
<time>2015-05-01T15:26:55Z</time>
</trkpt>
<trkpt lat="34.9403673" lon="33.5858273">
<ele>61.52</ele>
<time>2015-05-01T15:26:56Z</time>
</trkpt>
<trkpt lat="34.9403066" lon="33.5859040">
<ele>61.27</ele>
<time>2015-05-01T15:26:57Z</time>
</trkpt>
<trkpt lat="34.9402482" lon="33.5859838">
<ele>61.14</ele>
<time>2015-05-01T15:26:58Z</time>
</trkpt>
<trkpt lat="34.9401889" lon="33.5860635">
<ele>61.08</ele>
<time>2015-05-01T15:26:59Z</time>
</trkpt>
<trkpt lat="34.9401294" lon="33.5861416">
<ele>60.55</ele>
<time>2015-05-01T15:27:00Z</time>
</trkpt>
<trkpt lat="34.9400709" lon="33.5862134">
<ele>60.28</ele>
<time>2015-05-01T15:27:01Z</time>
</trkpt>
<trkpt lat="34.9400131" lon="33.5862888">
<ele>60.15</ele>
<time>2015-05-01T15:27:02Z</time>
</trkpt>
<trkpt lat="34.9399524" lon="33.5863628">
<ele>60.08</ele>
<time>2015-05-01T15:27:03Z</time>
</trkpt>
<trkpt lat="34.9398960" lon="33.5864379">
<ele>60.05</ele>
<time>2015-05-01T15:27:04Z</time>
</trkpt>
<trkpt lat="34.9398346" lon="33.5865144">
<ele>60.03</ele>
<time>2015-05-01T15:27:05Z</time>
</trkpt>
<trkpt lat="34.9397768" lon="33.5865901">
<ele>60.02</ele>
<time>2015-05-01T15:27:06Z</time>
</trkpt>
<trkpt lat="34.9397297" lon="33.5866657">
<ele>60.02</ele>
<time>2015-05-01T15:27:07Z</time>
</trkpt>
<trkpt lat="34.9396834" lon="33.5867431">
<ele>59.52</ele>
<time>2015-05-01T15:27:08Z</time>
</trkpt>
<trkpt lat="34.9396330" lon="33.5868144">
<ele>59.27</ele>
<time>2015-05-01T15:27:09Z</time>
</trkpt>
<trkpt lat="34.9395803" lon="33.5868830">
<ele>59.14</ele>
<time>2015-05-01T15:27:10Z</time>
</trkpt>
<trkpt lat="34.9395359" lon="33.5869542">
<ele>59.08</ele>
<time>2015-05-01T15:27:11Z</time>
</trkpt>
<trkpt lat="34.9394842" lon="33.5870202">
<ele>58.55</ele>
<time>2015-05-01T15:27:12Z</time>
</trkpt>
<trkpt lat="34.9394333" lon="33.5870855">
<ele>58.28</ele>
<time>2015-05-01T15:27:13Z</time>
</trkpt>
<trkpt lat="34.9393825" lon="33.5871476">
<ele>58.15</ele>
<time>2015-05-01T15:27:14Z</time>
</trkpt>
<trkpt lat="34.9393338" lon="33.5872133">
<ele>58.08</ele>
<time>2015-05-01T15:27:15Z</time>
</trkpt>
<trkpt lat="34.9392879" lon="33.5872828">
<ele>58.05</ele>
<time>2015-05-01T15:27:16Z</time>
</trkpt>
<trkpt lat="34.9392356" lon="33.5873430">
<ele>58.03</ele>
<time>2015-05-01T15:27:17Z</time>
</trkpt>
<trkpt lat="34.9391855" lon="33.5874062">
<ele>58.02</ele>
<time>2015-05-01T15:27:18Z</time>
</trkpt>
<trkpt lat="34.9391319" lon="33.5874684">
<ele>58.02</ele>
<time>2015-05-01T15:27:19Z</time>
</trkpt>
<trkpt lat="34.9390872" lon="33.5875354">
<ele>58.02</ele>
<time>2015-05-01T15:27:20Z</time>
</trkpt>
<trkpt lat="34.9390340" lon="33.5875970">
<ele>58.02</ele>
<time>2015-05-01T15:27:21Z</time>
</trkpt>
<trkpt lat="34.9389862" lon="33.5876574">
<ele>58.02</ele>
<time>2015-05-01T15:27:22Z</time>
</trkpt>
<trkpt lat="34.9389282" lon="33.5877154">
<ele>58.02</ele>
<time>2015-05-01T15:27:23Z</time>
</trkpt>
<trkpt lat="34.9388790" lon="33.5877833">
<ele>58.02</ele>
<time>2015-05-01T15:27:24Z</time>
</trkpt>
<trkpt lat="34.9388261" lon="33.5878523">
<ele>58.02</ele>
<time>2015-05-01T15:27:25Z</time>
</trkpt>
<trkpt lat="34.9387689" lon="33.5879267">
<ele>58.02</ele>
<time>2015-05-01T15:27:26Z</time>
</trkpt>
<trkpt lat="34.9387197" lon="33.5879899">
<ele>57.52</ele>
<time>2015-05-01T15:27:27Z</time>
</trkpt>
<trkpt lat="34.9386579" lon="33.5880594">
<ele>56.77</ele>
<time>2015-05-01T15:27:28Z</time>
</trkpt>
<trkpt lat="34.9386108" lon="33.5881213">
<ele>56.39</ele>
<time>2015-05-01T15:27:29Z</time>
</trkpt>
<trkpt lat="34.9385626" lon="33.5881867">
<ele>55.70</ele>
<time>2015-05-01T15:27:30Z</time>
</trkpt>
<trkpt lat="34.9385121" lon="33.5882558">
<ele>55.86</ele>
<time>2015-05-01T15:27:31Z</time>
</trkpt>
<trkpt lat="34.9384565" lon="33.5883228">
<ele>55.94</ele>
<time>2015-05-01T15:27:32Z</time>
</trkpt>
<trkpt lat="34.9384073" lon="33.5883933">
<ele>55.98</ele>
<time>2015-05-01T15:27:33Z</time>
</trkpt>
<trkpt lat="34.9383430" lon="33.5884557">
<ele>56.50</ele>
<time>2015-05-01T15:27:34Z</time>
</trkpt>
<trkpt lat="34.9383014" lon="33.5885263">
<ele>56.76</ele>
<time>2015-05-01T15:27:35Z</time>
</trkpt>
<trkpt lat="34.9382556" lon="33.5885912">
<ele>56.89</ele>
<time>2015-05-01T15:27:36Z</time>
</trkpt>
<trkpt lat="34.9382093" lon="33.5886578">
<ele>56.95</ele>
<time>2015-05-01T15:27:37Z</time>
</trkpt>
<trkpt lat="34.9381642" lon="33.5887192">
<ele>56.98</ele>
<time>2015-05-01T15:27:38Z</time>
</trkpt>
<trkpt lat="34.9381186" lon="33.5887856">
<ele>56.50</ele>
<time>2015-05-01T15:27:39Z</time>
</trkpt>
<trkpt lat="34.9380718" lon="33.5888500">
<ele>56.26</ele>
<time>2015-05-01T15:27:40Z</time>
</trkpt>
<trkpt lat="34.9380275" lon="33.5889192">
<ele>56.14</ele>
<time>2015-05-01T15:27:41Z</time>
</trkpt>
<trkpt lat="34.9379793" lon="33.5889824">
<ele>55.58</ele>
<time>2015-05-01T15:27:42Z</time>
</trkpt>
<trkpt lat="34.9379315" lon="33.5890439">
<ele>55.30</ele>
<time>2015-05-01T15:27:43Z</time>
</trkpt>
<trkpt lat="34.9378872" lon="33.5891048">
<ele>55.66</ele>
<time>2015-05-01T15:27:44Z</time>
</trkpt>
<trkpt lat="34.9378374" lon="33.5891633">
<ele>55.34</ele>
<time>2015-05-01T15:27:45Z</time>
</trkpt>
<trkpt lat="34.9377915" lon="33.5892227">
<ele>55.18</ele>
<time>2015-05-01T15:27:46Z</time>
</trkpt>
<trkpt lat="34.9377559" lon="33.5892900">
<ele>55.10</ele>
<time>2015-05-01T15:27:47Z</time>
</trkpt>
<trkpt lat="34.9377098" lon="33.5893435">
<ele>55.06</ele>
<time>2015-05-01T15:27:48Z</time>
</trkpt>
<trkpt lat="34.9376730" lon="33.5894046">
<ele>55.04</ele>
<time>2015-05-01T15:27:49Z</time>
</trkpt>
<trkpt lat="34.9376606" lon="33.5894730">
<ele>54.53</ele>
<time>2015-05-01T15:27:50Z</time>
</trkpt>
<trkpt lat="34.9376584" lon="33.5895471">
<ele>54.27</ele>
<time>2015-05-01T15:27:51Z</time>
</trkpt>
<trkpt lat="34.9376557" lon="33.5896336">
<ele>54.14</ele>
<time>2015-05-01T15:27:52Z</time>
</trkpt>
<trkpt lat="34.9376494" lon="33.5897087">
<ele>54.08</ele>
<time>2015-05-01T15:27:53Z</time>
</trkpt>
<trkpt lat="34.9376328" lon="33.5897863">
<ele>54.05</ele>
<time>2015-05-01T15:27:54Z</time>
</trkpt>
<trkpt lat="34.9376078" lon="33.5898600">
<ele>54.03</ele>
<time>2015-05-01T15:27:55Z</time>
</trkpt>
<trkpt lat="34.9375700" lon="33.5899235">
<ele>54.02</ele>
<time>2015-05-01T15:27:56Z</time>
</trkpt>
<trkpt lat="34.9375241" lon="33.5899834">
<ele>53.52</ele>
<time>2015-05-01T15:27:57Z</time>
</trkpt>
<trkpt lat="34.9374698" lon="33.5900322">
<ele>53.27</ele>
<time>2015-05-01T15:27:58Z</time>
</trkpt>
<trkpt lat="34.9373984" lon="33.5900744">
<ele>52.64</ele>
<time>2015-05-01T15:27:59Z</time>
</trkpt>
<trkpt lat="34.9373380" lon="33.5901098">
<ele>52.33</ele>
<time>2015-05-01T15:28:00Z</time>
</trkpt>
<trkpt lat="34.9372756" lon="33.5901370">
<ele>51.67</ele>
<time>2015-05-01T15:28:01Z</time>
</trkpt>
<trkpt lat="34.9372032" lon="33.5901715">
<ele>51.34</ele>
<time>2015-05-01T15:28:02Z</time>
</trkpt>
<trkpt lat="34.9371319" lon="33.5902038">
<ele>51.68</ele>
<time>2015-05-01T15:28:03Z</time>
</trkpt>
<trkpt lat="34.9370656" lon="33.5902443">
<ele>51.85</ele>
<time>2015-05-01T15:28:04Z</time>
</trkpt>
<trkpt lat="34.9370001" lon="33.5902984">
<ele>51.93</ele>
<time>2015-05-01T15:28:05Z</time>
</trkpt>
<trkpt lat="34.9369426" lon="33.5903633">
<ele>51.97</ele>
<time>2015-05-01T15:28:06Z</time>
</trkpt>
<trkpt lat="34.9368900" lon="33.5904256">
<ele>51.50</ele>
<time>2015-05-01T15:28:07Z</time>
</trkpt>
<trkpt lat="34.9368409" lon="33.5904886">
<ele>51.26</ele>
<time>2015-05-01T15:28:08Z</time>
</trkpt>
<trkpt lat="34.9367905" lon="33.5905559">
<ele>51.14</ele>
<time>2015-05-01T15:28:09Z</time>
</trkpt>
<trkpt lat="34.9367411" lon="33.5906223">
<ele>51.08</ele>
<time>2015-05-01T15:28:10Z</time>
</trkpt>
<trkpt lat="34.9366924" lon="33.5906932">
<ele>51.05</ele>
<time>2015-05-01T15:28:11Z</time>
</trkpt>
<trkpt lat="34.9366387" lon="33.5907577">
<ele>51.03</ele>
<time>2015-05-01T15:28:12Z</time>
</trkpt>
<trkpt lat="34.9365842" lon="33.5908289">
<ele>51.52</ele>
<time>2015-05-01T15:28:13Z</time>
</trkpt>
<trkpt lat="34.9365314" lon="33.5908977">
<ele>51.77</ele>
<time>2015-05-01T15:28:14Z</time>
</trkpt>
<trkpt lat="34.9364816" lon="33.5909677">
<ele>51.39</ele>
<time>2015-05-01T15:28:15Z</time>
</trkpt>
<trkpt lat="34.9364299" lon="33.5910375">
<ele>51.20</ele>
<time>2015-05-01T15:28:16Z</time>
</trkpt>
<trkpt lat="34.9363788" lon="33.5911113">
<ele>51.11</ele>
<time>2015-05-01T15:28:17Z</time>
</trkpt>
<trkpt lat="34.9363214" lon="33.5911884">
<ele>51.06</ele>
<time>2015-05-01T15:28:18Z</time>
</trkpt>
<trkpt lat="34.9362667" lon="33.5912575">
<ele>51.54</ele>
<time>2015-05-01T15:28:19Z</time>
</trkpt>
<trkpt lat="34.9362161" lon="33.5913328">
<ele>51.78</ele>
<time>2015-05-01T15:28:20Z</time>
</trkpt>
<trkpt lat="34.9361594" lon="33.5913994">
<ele>51.90</ele>
<time>2015-05-01T15:28:21Z</time>
</trkpt>
<trkpt lat="34.9361024" lon="33.5914707">
<ele>51.46</ele>
<time>2015-05-01T15:28:22Z</time>
</trkpt>
<trkpt lat="34.9360487" lon="33.5915386">
<ele>51.24</ele>
<time>2015-05-01T15:28:23Z</time>
</trkpt>
<trkpt lat="34.9359951" lon="33.5916067">
<ele>51.13</ele>
<time>2015-05-01T15:28:24Z</time>
</trkpt>
<trkpt lat="34.9359432" lon="33.5916710">
<ele>51.07</ele>
<time>2015-05-01T15:28:25Z</time>
</trkpt>
<trkpt lat="34.9358891" lon="33.5917388">
<ele>51.04</ele>
<time>2015-05-01T15:28:26Z</time>
</trkpt>
<trkpt lat="34.9358392" lon="33.5918071">
<ele>51.03</ele>
<time>2015-05-01T15:28:27Z</time>
</trkpt>
<trkpt lat="34.9357900" lon="33.5918719">
<ele>50.52</ele>
<time>2015-05-01T15:28:28Z</time>
</trkpt>
<trkpt lat="34.9357406" lon="33.5919345">
<ele>50.27</ele>
<time>2015-05-01T15:28:29Z</time>
</trkpt>
<trkpt lat="34.9356944" lon="33.5920000">
<ele>50.14</ele>
<time>2015-05-01T15:28:30Z</time>
</trkpt>
<trkpt lat="34.9356493" lon="33.5920655">
<ele>50.08</ele>
<time>2015-05-01T15:28:31Z</time>
</trkpt>
<trkpt lat="34.9356050" lon="33.5921315">
<ele>49.55</ele>
<time>2015-05-01T15:28:32Z</time>
</trkpt>
<trkpt lat="34.9355605" lon="33.5921980">
<ele>49.28</ele>
<time>2015-05-01T15:28:33Z</time>
</trkpt>
<trkpt lat="34.9355156" lon="33.5922664">
<ele>49.15</ele>
<time>2015-05-01T15:28:34Z</time>
</trkpt>
<trkpt lat="34.9354725" lon="33.5923248">
<ele>49.08</ele>
<time>2015-05-01T15:28:35Z</time>
</trkpt>
<trkpt lat="34.9354320" lon="33.5923881">
<ele>49.05</ele>
<time>2015-05-01T15:28:36Z</time>
</trkpt>
<trkpt lat="34.9354042" lon="33.5924503">
<ele>49.03</ele>
<time>2015-05-01T15:28:37Z</time>
</trkpt>
<trkpt lat="34.9353770" lon="33.5925095">
<ele>49.52</ele>
<time>2015-05-01T15:28:38Z</time>
</trkpt>
<trkpt lat="34.9353400" lon="33.5925651">
<ele>49.77</ele>
<time>2015-05-01T15:28:39Z</time>
</trkpt>
<trkpt lat="34.9352987" lon="33.5926189">
<ele>49.39</ele>
<time>2015-05-01T15:28:40Z</time>
</trkpt>
<trkpt lat="34.9352544" lon="33.5926679">
<ele>49.70</ele>
<time>2015-05-01T15:28:41Z</time>
</trkpt>
<trkpt lat="34.9352162" lon="33.5927159">
<ele>49.36</ele>
<time>2015-05-01T15:28:42Z</time>
</trkpt>
<trkpt lat="34.9351707" lon="33.5927605">
<ele>49.19</ele>
<time>2015-05-01T15:28:43Z</time>
</trkpt>
<trkpt lat="34.9351226" lon="33.5928110">
<ele>48.60</ele>
<time>2015-05-01T15:28:44Z</time>
</trkpt>
<trkpt lat="34.9350746" lon="33.5928608">
<ele>48.31</ele>
<time>2015-05-01T15:28:45Z</time>
</trkpt>
<trkpt lat="34.9350202" lon="33.5929222">
<ele>48.16</ele>
<time>2015-05-01T15:28:46Z</time>
</trkpt>
<trkpt lat="34.9349669" lon="33.5929758">
<ele>48.09</ele>
<time>2015-05-01T15:28:47Z</time>
</trkpt>
<trkpt lat="34.9349176" lon="33.5930291">
<ele>48.05</ele>
<time>2015-05-01T15:28:48Z</time>
</trkpt>
<trkpt lat="34.9348642" lon="33.5930892">
<ele>48.03</ele>
<time>2015-05-01T15:28:49Z</time>
</trkpt>
<trkpt lat="34.9348142" lon="33.5931535">
<ele>48.53</ele>
<time>2015-05-01T15:28:50Z</time>
</trkpt>
<trkpt lat="34.9347682" lon="33.5932099">
<ele>48.27</ele>
<time>2015-05-01T15:28:51Z</time>
</trkpt>
<trkpt lat="34.9347226" lon="33.5932803">
<ele>48.14</ele>
<time>2015-05-01T15:28:52Z</time>
</trkpt>
<trkpt lat="34.9346666" lon="33.5933462">
<ele>48.58</ele>
<time>2015-05-01T15:28:53Z</time>
</trkpt>
<trkpt lat="34.9346173" lon="33.5934179">
<ele>48.80</ele>
<time>2015-05-01T15:28:54Z</time>
</trkpt>
<trkpt lat="34.9345687" lon="33.5934870">
<ele>48.91</ele>
<time>2015-05-01T15:28:55Z</time>
</trkpt>
<trkpt lat="34.9345160" lon="33.5935570">
<ele>48.96</ele>
<time>2015-05-01T15:28:56Z</time>
</trkpt>
<trkpt lat="34.9344507" lon="33.5936324">
<ele>49.49</ele>
<time>2015-05-01T15:28:57Z</time>
</trkpt>
<trkpt lat="34.9344042" lon="33.5937059">
<ele>49.75</ele>
<time>2015-05-01T15:28:58Z</time>
</trkpt>
<trkpt lat="34.9343514" lon="33.5937785">
<ele>49.88</ele>
<time>2015-05-01T15:28:59Z</time>
</trkpt>
<trkpt lat="34.9342965" lon="33.5938534">
<ele>49.95</ele>
<time>2015-05-01T15:29:00Z</time>
</trkpt>
<trkpt lat="34.9342464" lon="33.5939183">
<ele>49.48</ele>
<time>2015-05-01T15:29:01Z</time>
</trkpt>
<trkpt lat="34.9341931" lon="33.5939944">
<ele>49.25</ele>
<time>2015-05-01T15:29:02Z</time>
</trkpt>
<trkpt lat="34.9341422" lon="33.5940614">
<ele>49.13</ele>
<time>2015-05-01T15:29:03Z</time>
</trkpt>
<trkpt lat="34.9340916" lon="33.5941461">
<ele>49.07</ele>
<time>2015-05-01T15:29:04Z</time>
</trkpt>
<trkpt lat="34.9340344" lon="33.5942189">
<ele>49.55</ele>
<time>2015-05-01T15:29:05Z</time>
</trkpt>
<trkpt lat="34.9339874" lon="33.5942974">
<ele>49.28</ele>
<time>2015-05-01T15:29:06Z</time>
</trkpt>
<trkpt lat="34.9339340" lon="33.5943626">
<ele>49.65</ele>
<time>2015-05-01T15:29:07Z</time>
</trkpt>
<trkpt lat="34.9338889" lon="33.5944419">
<ele>50.33</ele>
<time>2015-05-01T15:29:08Z</time>
</trkpt>
<trkpt lat="34.9338356" lon="33.5945052">
<ele>50.67</ele>
<time>2015-05-01T15:29:09Z</time>
</trkpt>
<trkpt lat="34.9337875" lon="33.5945636">
<ele>50.85</ele>
<time>2015-05-01T15:29:10Z</time>
</trkpt>
<trkpt lat="34.9337404" lon="33.5946243">
<ele>50.93</ele>
<time>2015-05-01T15:29:11Z</time>
</trkpt>
<trkpt lat="34.9336870" lon="33.5946891">
<ele>50.47</ele>
<time>2015-05-01T15:29:12Z</time>
</trkpt>
<trkpt lat="34.9336416" lon="33.5947564">
<ele>50.24</ele>
<time>2015-05-01T15:29:13Z</time>
</trkpt>
<trkpt lat="34.9336039" lon="33.5948255">
<ele>50.13</ele>
<time>2015-05-01T15:29:14Z</time>
</trkpt>
<trkpt lat="34.9335498" lon="33.5948945">
<ele>50.07</ele>
<time>2015-05-01T15:29:15Z</time>
</trkpt>
<trkpt lat="34.9334922" lon="33.5949663">
<ele>50.04</ele>
<time>2015-05-01T15:29:16Z</time>
</trkpt>
<trkpt lat="34.9334470" lon="33.5950378">
<ele>50.03</ele>
<time>2015-05-01T15:29:17Z</time>
</trkpt>
<trkpt lat="34.9333955" lon="33.5951079">
<ele>50.02</ele>
<time>2015-05-01T15:29:18Z</time>
</trkpt>
<trkpt lat="34.9333532" lon="33.5951760">
<ele>49.52</ele>
<time>2015-05-01T15:29:19Z</time>
</trkpt>
<trkpt lat="34.9332934" lon="33.5952510">
<ele>49.27</ele>
<time>2015-05-01T15:29:20Z</time>
</trkpt>
<trkpt lat="34.9332384" lon="33.5953199">
<ele>49.64</ele>
<time>2015-05-01T15:29:21Z</time>
</trkpt>
<trkpt lat="34.9331885" lon="33.5953822">
<ele>49.83</ele>
<time>2015-05-01T15:29:22Z</time>
</trkpt>
<trkpt lat="34.9331434" lon="33.5954413">
<ele>49.92</ele>
<time>2015-05-01T15:29:23Z</time>
</trkpt>
<trkpt lat="34.9331017" lon="33.5955062">
<ele>49.97</ele>
<time>2015-05-01T15:29:24Z</time>
</trkpt>
<trkpt lat="34.9330646" lon="33.5955656">
<ele>49.49</ele>
<time>2015-05-01T15:29:25Z</time>
</trkpt>
<trkpt lat="34.9330403" lon="33.5956202">
<ele>48.75</ele>
<time>2015-05-01T15:29:26Z</time>
</trkpt>
<trkpt lat="34.9330068" lon="33.5956735">
<ele>48.39</ele>
<time>2015-05-01T15:29:27Z</time>
</trkpt>
<trkpt lat="34.9329663" lon="33.5957419">
<ele>47.36</ele>
<time>2015-05-01T15:29:29Z</time>
</trkpt>
<trkpt lat="34.9329348" lon="33.5957905">
<ele>46.91</ele>
<time>2015-05-01T15:29:33Z</time>
</trkpt>
<trkpt lat="34.9329094" lon="33.5958409">
<ele>46.72</ele>
<time>2015-05-01T15:29:41Z</time>
</trkpt>
<trkpt lat="34.9328608" lon="33.5959177">
<ele>45.16</ele>
<time>2015-05-01T15:29:46Z</time>
</trkpt>
<trkpt lat="34.9327987" lon="33.5960111">
<ele>45.05</ele>
<time>2015-05-01T15:29:48Z</time>
</trkpt>
<trkpt lat="34.9327219" lon="33.5961122">
<ele>44.28</ele>
<time>2015-05-01T15:29:50Z</time>
</trkpt>
<trkpt lat="34.9326842" lon="33.5961666">
<ele>44.15</ele>
<time>2015-05-01T15:29:51Z</time>
</trkpt>
<trkpt lat="34.9326450" lon="33.5962238">
<ele>44.08</ele>
<time>2015-05-01T15:29:52Z</time>
</trkpt>
<trkpt lat="34.9325959" lon="33.5962887">
<ele>44.05</ele>
<time>2015-05-01T15:29:53Z</time>
</trkpt>
<trkpt lat="34.9325559" lon="33.5963453">
<ele>44.03</ele>
<time>2015-05-01T15:29:54Z</time>
</trkpt>
<trkpt lat="34.9325086" lon="33.5964055">
<ele>43.52</ele>
<time>2015-05-01T15:29:55Z</time>
</trkpt>
<trkpt lat="34.9324645" lon="33.5964662">
<ele>43.27</ele>
<time>2015-05-01T15:29:56Z</time>
</trkpt>
<trkpt lat="34.9324234" lon="33.5965295">
<ele>43.14</ele>
<time>2015-05-01T15:29:57Z</time>
</trkpt>
<trkpt lat="34.9323812" lon="33.5965895">
<ele>43.08</ele>
<time>2015-05-01T15:29:58Z</time>
</trkpt>
<trkpt lat="34.9323389" lon="33.5966500">
<ele>43.05</ele>
<time>2015-05-01T15:29:59Z</time>
</trkpt>
<trkpt lat="34.9322868" lon="33.5967047">
<ele>43.53</ele>
<time>2015-05-01T15:30:00Z</time>
</trkpt>
<trkpt lat="34.9322484" lon="33.5967653">
<ele>43.27</ele>
<time>2015-05-01T15:30:01Z</time>
</trkpt>
<trkpt lat="34.9322031" lon="33.5968204">
<ele>43.64</ele>
<time>2015-05-01T15:30:02Z</time>
</trkpt>
<trkpt lat="34.9321592" lon="33.5968836">
<ele>43.33</ele>
<time>2015-05-01T15:30:03Z</time>
</trkpt>
<trkpt lat="34.9321159" lon="33.5969445">
<ele>43.17</ele>
<time>2015-05-01T15:30:04Z</time>
</trkpt>
<trkpt lat="34.9320685" lon="33.5970109">
<ele>43.09</ele>
<time>2015-05-01T15:30:05Z</time>
</trkpt>
<trkpt lat="34.9320248" lon="33.5970743">
<ele>43.06</ele>
<time>2015-05-01T15:30:06Z</time>
</trkpt>
<trkpt lat="34.9319812" lon="33.5971365">
<ele>43.54</ele>
<time>2015-05-01T15:30:07Z</time>
</trkpt>
<trkpt lat="34.9319289" lon="33.5972107">
<ele>44.28</ele>
<time>2015-05-01T15:30:08Z</time>
</trkpt>
<trkpt lat="34.9318829" lon="33.5972683">
<ele>44.15</ele>
<time>2015-05-01T15:30:09Z</time>
</trkpt>
<trkpt lat="34.9318304" lon="33.5973291">
<ele>44.08</ele>
<time>2015-05-01T15:30:10Z</time>
</trkpt>
<trkpt lat="34.9317974" lon="33.5973966">
<ele>44.05</ele>
<time>2015-05-01T15:30:11Z</time>
</trkpt>
<trkpt lat="34.9317563" lon="33.5974647">
<ele>44.03</ele>
<time>2015-05-01T15:30:12Z</time>
</trkpt>
<trkpt lat="34.9317099" lon="33.5975305">
<ele>44.52</ele>
<time>2015-05-01T15:30:13Z</time>
</trkpt>
<trkpt lat="34.9316652" lon="33.5976026">
<ele>44.77</ele>
<time>2015-05-01T15:30:14Z</time>
</trkpt>
<trkpt lat="34.9316223" lon="33.5976667">
<ele>44.89</ele>
<time>2015-05-01T15:30:15Z</time>
</trkpt>
<trkpt lat="34.9315794" lon="33.5977430">
<ele>44.95</ele>
<time>2015-05-01T15:30:16Z</time>
</trkpt>
<trkpt lat="34.9315413" lon="33.5978188">
<ele>44.49</ele>
<time>2015-05-01T15:30:17Z</time>
</trkpt>
<trkpt lat="34.9315043" lon="33.5978904">
<ele>44.25</ele>
<time>2015-05-01T15:30:18Z</time>
</trkpt>
<trkpt lat="34.9314696" lon="33.5979663">
<ele>44.13</ele>
<time>2015-05-01T15:30:19Z</time>
</trkpt>
<trkpt lat="34.9314272" lon="33.5980529">
<ele>44.07</ele>
<time>2015-05-01T15:30:20Z</time>
</trkpt>
<trkpt lat="34.9313882" lon="33.5981323">
<ele>44.05</ele>
<time>2015-05-01T15:30:21Z</time>
</trkpt>
<trkpt lat="34.9313528" lon="33.5982274">
<ele>44.03</ele>
<time>2015-05-01T15:30:22Z</time>
</trkpt>
<trkpt lat="34.9313172" lon="33.5983112">
<ele>44.02</ele>
<time>2015-05-01T15:30:23Z</time>
</trkpt>
<trkpt lat="34.9312823" lon="33.5984060">
<ele>43.52</ele>
<time>2015-05-01T15:30:24Z</time>
</trkpt>
<trkpt lat="34.9312450" lon="33.5984880">
<ele>43.27</ele>
<time>2015-05-01T15:30:25Z</time>
</trkpt>
<trkpt lat="34.9312049" lon="33.5985707">
<ele>43.14</ele>
<time>2015-05-01T15:30:26Z</time>
</trkpt>
<trkpt lat="34.9311709" lon="33.5986436">
<ele>43.08</ele>
<time>2015-05-01T15:30:27Z</time>
</trkpt>
<trkpt lat="34.9311239" lon="33.5987243">
<ele>43.05</ele>
<time>2015-05-01T15:30:28Z</time>
</trkpt>
<trkpt lat="34.9310808" lon="33.5988031">
<ele>43.53</ele>
<time>2015-05-01T15:30:29Z</time>
</trkpt>
<trkpt lat="34.9310402" lon="33.5988774">
<ele>43.27</ele>
<time>2015-05-01T15:30:30Z</time>
</trkpt>
<trkpt lat="34.9310066" lon="33.5989379">
<ele>43.64</ele>
<time>2015-05-01T15:30:31Z</time>
</trkpt>
<trkpt lat="34.9309752" lon="33.5990148">
<ele>43.83</ele>
<time>2015-05-01T15:30:32Z</time>
</trkpt>
<trkpt lat="34.9309418" lon="33.5990887">
<ele>43.92</ele>
<time>2015-05-01T15:30:33Z</time>
</trkpt>
<trkpt lat="34.9309060" lon="33.5991650">
<ele>43.97</ele>
<time>2015-05-01T15:30:34Z</time>
</trkpt>
<trkpt lat="34.9308713" lon="33.5992300">
<ele>43.99</ele>
<time>2015-05-01T15:30:35Z</time>
</trkpt>
<trkpt lat="34.9308362" lon="33.5993016">
<ele>44.00</ele>
<time>2015-05-01T15:30:36Z</time>
</trkpt>
<trkpt lat="34.9308033" lon="33.5993784">
<ele>43.51</ele>
<time>2015-05-01T15:30:37Z</time>
</trkpt>
<trkpt lat="34.9307726" lon="33.5994573">
<ele>43.26</ele>
<time>2015-05-01T15:30:38Z</time>
</trkpt>
<trkpt lat="34.9307417" lon="33.5995286">
<ele>42.64</ele>
<time>2015-05-01T15:30:39Z</time>
</trkpt>
<trkpt lat="34.9307034" lon="33.5996069">
<ele>42.33</ele>
<time>2015-05-01T15:30:40Z</time>
</trkpt>
<trkpt lat="34.9306721" lon="33.5996864">
<ele>42.17</ele>
<time>2015-05-01T15:30:41Z</time>
</trkpt>
<trkpt lat="34.9306341" lon="33.5997626">
<ele>42.09</ele>
<time>2015-05-01T15:30:42Z</time>
</trkpt>
<trkpt lat="34.9305849" lon="33.5998455">
<ele>41.55</ele>
<time>2015-05-01T15:30:43Z</time>
</trkpt>
<trkpt lat="34.9305472" lon="33.5999259">
<ele>41.29</ele>
<time>2015-05-01T15:30:44Z</time>
</trkpt>
<trkpt lat="34.9305086" lon="33.6000087">
<ele>41.15</ele>
<time>2015-05-01T15:30:45Z</time>
</trkpt>
<trkpt lat="34.9304724" lon="33.6000838">
<ele>40.58</ele>
<time>2015-05-01T15:30:46Z</time>
</trkpt>
<trkpt lat="34.9304388" lon="33.6001680">
<ele>40.30</ele>
<time>2015-05-01T15:30:47Z</time>
</trkpt>
<trkpt lat="34.9303958" lon="33.6002476">
<ele>40.16</ele>
<time>2015-05-01T15:30:48Z</time>
</trkpt>
<trkpt lat="34.9303578" lon="33.6003314">
<ele>40.09</ele>
<time>2015-05-01T15:30:49Z</time>
</trkpt>
<trkpt lat="34.9303204" lon="33.6004115">
<ele>40.05</ele>
<time>2015-05-01T15:30:50Z</time>
</trkpt>
<trkpt lat="34.9302818" lon="33.6004921">
<ele>40.03</ele>
<time>2015-05-01T15:30:51Z</time>
</trkpt>
<trkpt lat="34.9302460" lon="33.6005696">
<ele>40.02</ele>
<time>2015-05-01T15:30:52Z</time>
</trkpt>
<trkpt lat="34.9302119" lon="33.6006470">
<ele>39.52</ele>
<time>2015-05-01T15:30:53Z</time>
</trkpt>
<trkpt lat="34.9301749" lon="33.6007314">
<ele>39.27</ele>
<time>2015-05-01T15:30:54Z</time>
</trkpt>
<trkpt lat="34.9301368" lon="33.6008115">
<ele>39.14</ele>
<time>2015-05-01T15:30:55Z</time>
</trkpt>
<trkpt lat="34.9300999" lon="33.6008896">
<ele>39.08</ele>
<time>2015-05-01T15:30:56Z</time>
</trkpt>
<trkpt lat="34.9300630" lon="33.6009702">
<ele>39.05</ele>
<time>2015-05-01T15:30:57Z</time>
</trkpt>
<trkpt lat="34.9300228" lon="33.6010510">
<ele>39.03</ele>
<time>2015-05-01T15:30:58Z</time>
</trkpt>
<trkpt lat="34.9299853" lon="33.6011346">
<ele>39.02</ele>
<time>2015-05-01T15:30:59Z</time>
</trkpt>
<trkpt lat="34.9299479" lon="33.6012196">
<ele>39.02</ele>
<time>2015-05-01T15:31:00Z</time>
</trkpt>
<trkpt lat="34.9299110" lon="33.6013027">
<ele>39.02</ele>
<time>2015-05-01T15:31:01Z</time>
</trkpt>
<trkpt lat="34.9298714" lon="33.6013849">
<ele>39.02</ele>
<time>2015-05-01T15:31:02Z</time>
</trkpt>
<trkpt lat="34.9298334" lon="33.6014671">
<ele>39.02</ele>
<time>2015-05-01T15:31:03Z</time>
</trkpt>
<trkpt lat="34.9297930" lon="33.6015457">
<ele>39.02</ele>
<time>2015-05-01T15:31:04Z</time>
</trkpt>
<trkpt lat="34.9297517" lon="33.6016261">
<ele>39.02</ele>
<time>2015-05-01T15:31:05Z</time>
</trkpt>
<trkpt lat="34.9297065" lon="33.6017107">
<ele>39.02</ele>
<time>2015-05-01T15:31:06Z</time>
</trkpt>
<trkpt lat="34.9296630" lon="33.6017881">
<ele>39.02</ele>
<time>2015-05-01T15:31:07Z</time>
</trkpt>
<trkpt lat="34.9296230" lon="33.6018699">
<ele>39.52</ele>
<time>2015-05-01T15:31:08Z</time>
</trkpt>
<trkpt lat="34.9295818" lon="33.6019516">
<ele>39.27</ele>
<time>2015-05-01T15:31:09Z</time>
</trkpt>
<trkpt lat="34.9295387" lon="33.6020345">
<ele>39.14</ele>
<time>2015-05-01T15:31:10Z</time>
</trkpt>
<trkpt lat="34.9294974" lon="33.6021151">
<ele>39.08</ele>
<time>2015-05-01T15:31:11Z</time>
</trkpt>
<trkpt lat="34.9294531" lon="33.6021992">
<ele>39.55</ele>
<time>2015-05-01T15:31:12Z</time>
</trkpt>
<trkpt lat="34.9294134" lon="33.6022626">
<ele>39.78</ele>
<time>2015-05-01T15:31:13Z</time>
</trkpt>
<trkpt lat="34.9293801" lon="33.6023397">
<ele>39.40</ele>
<time>2015-05-01T15:31:14Z</time>
</trkpt>
<trkpt lat="34.9293468" lon="33.6024111">
<ele>39.21</ele>
<time>2015-05-01T15:31:15Z</time>
</trkpt>
<trkpt lat="34.9293116" lon="33.6024908">
<ele>38.61</ele>
<time>2015-05-01T15:31:16Z</time>
</trkpt>
<trkpt lat="34.9292667" lon="33.6025620">
<ele>38.31</ele>
<time>2015-05-01T15:31:17Z</time>
</trkpt>
<trkpt lat="34.9292327" lon="33.6026330">
<ele>38.16</ele>
<time>2015-05-01T15:31:18Z</time>
</trkpt>
<trkpt lat="34.9291954" lon="33.6027110">
<ele>38.59</ele>
<time>2015-05-01T15:31:19Z</time>
</trkpt>
<trkpt lat="34.9291562" lon="33.6027860">
<ele>38.30</ele>
<time>2015-05-01T15:31:20Z</time>
</trkpt>
<trkpt lat="34.9291182" lon="33.6028592">
<ele>38.16</ele>
<time>2015-05-01T15:31:21Z</time>
</trkpt>
<trkpt lat="34.9290813" lon="33.6029270">
<ele>38.09</ele>
<time>2015-05-01T15:31:22Z</time>
</trkpt>
<trkpt lat="34.9290389" lon="33.6030022">
<ele>37.55</ele>
<time>2015-05-01T15:31:23Z</time>
</trkpt>
<trkpt lat="34.9290010" lon="33.6030677">
<ele>37.28</ele>
<time>2015-05-01T15:31:24Z</time>
</trkpt>
<trkpt lat="34.9289637" lon="33.6031368">
<ele>37.15</ele>
<time>2015-05-01T15:31:25Z</time>
</trkpt>
<trkpt lat="34.9289276" lon="33.6031979">
<ele>36.58</ele>
<time>2015-05-01T15:31:26Z</time>
</trkpt>
<trkpt lat="34.9288976" lon="33.6032590">
<ele>36.30</ele>
<time>2015-05-01T15:31:27Z</time>
</trkpt>
<trkpt lat="34.9288600" lon="33.6033276">
<ele>36.16</ele>
<time>2015-05-01T15:31:28Z</time>
</trkpt>
<trkpt lat="34.9288256" lon="33.6033908">
<ele>36.09</ele>
<time>2015-05-01T15:31:29Z</time>
</trkpt>
<trkpt lat="34.9287887" lon="33.6034525">
<ele>36.05</ele>
<time>2015-05-01T15:31:30Z</time>
</trkpt>
<trkpt lat="34.9287576" lon="33.6035044">
<ele>36.03</ele>
<time>2015-05-01T15:31:31Z</time>
</trkpt>
<trkpt lat="34.9287345" lon="33.6035673">
<ele>36.02</ele>
<time>2015-05-01T15:31:32Z</time>
</trkpt>
<trkpt lat="34.9287202" lon="33.6036300">
<ele>36.02</ele>
<time>2015-05-01T15:31:33Z</time>
</trkpt>
<trkpt lat="34.9287142" lon="33.6037330">
<ele>36.77</ele>
<time>2015-05-01T15:31:35Z</time>
</trkpt>
<trkpt lat="34.9287391" lon="33.6038161">
<ele>36.89</ele>
<time>2015-05-01T15:31:36Z</time>
</trkpt>
<trkpt lat="34.9287369" lon="33.6038847">
<ele>37.45</ele>
<time>2015-05-01T15:31:37Z</time>
</trkpt>
<trkpt lat="34.9287294" lon="33.6039732">
<ele>38.23</ele>
<time>2015-05-01T15:31:38Z</time>
</trkpt>
<trkpt lat="34.9287147" lon="33.6040445">
<ele>38.63</ele>
<time>2015-05-01T15:31:39Z</time>
</trkpt>
<trkpt lat="34.9286874" lon="33.6041209">
<ele>38.32</ele>
<time>2015-05-01T15:31:40Z</time>
</trkpt>
<trkpt lat="34.9286438" lon="33.6041910">
<ele>37.67</ele>
<time>2015-05-01T15:31:41Z</time>
</trkpt>
<trkpt lat="34.9285967" lon="33.6042617">
<ele>37.34</ele>
<time>2015-05-01T15:31:42Z</time>
</trkpt>
<trkpt lat="34.9285175" lon="33.6043124">
<ele>37.68</ele>
<time>2015-05-01T15:31:43Z</time>
</trkpt>
<trkpt lat="34.9284503" lon="33.6043603">
<ele>37.85</ele>
<time>2015-05-01T15:31:44Z</time>
</trkpt>
<trkpt lat="34.9283877" lon="33.6044061">
<ele>37.93</ele>
<time>2015-05-01T15:31:45Z</time>
</trkpt>
<trkpt lat="34.9283241" lon="33.6044472">
<ele>37.97</ele>
<time>2015-05-01T15:31:46Z</time>
</trkpt>
<trkpt lat="34.9282706" lon="33.6044842">
<ele>37.99</ele>
<time>2015-05-01T15:31:47Z</time>
</trkpt>
<trkpt lat="34.9282238" lon="33.6045324">
<ele>37.01</ele>
<time>2015-05-01T15:31:48Z</time>
</trkpt>
<trkpt lat="34.9281814" lon="33.6045981">
<ele>36.51</ele>
<time>2015-05-01T15:31:49Z</time>
</trkpt>
<trkpt lat="34.9281446" lon="33.6046694">
<ele>36.26</ele>
<time>2015-05-01T15:31:50Z</time>
</trkpt>
<trkpt lat="34.9281038" lon="33.6047386">
<ele>35.64</ele>
<time>2015-05-01T15:31:51Z</time>
</trkpt>
<trkpt lat="34.9280630" lon="33.6048083">
<ele>35.33</ele>
<time>2015-05-01T15:31:52Z</time>
</trkpt>
<trkpt lat="34.9280276" lon="33.6048766">
<ele>35.17</ele>
<time>2015-05-01T15:31:53Z</time>
</trkpt>
<trkpt lat="34.9279916" lon="33.6049492">
<ele>35.09</ele>
<time>2015-05-01T15:31:54Z</time>
</trkpt>
<trkpt lat="34.9279620" lon="33.6050182">
<ele>35.05</ele>
<time>2015-05-01T15:31:55Z</time>
</trkpt>
<trkpt lat="34.9279284" lon="33.6050861">
<ele>34.54</ele>
<time>2015-05-01T15:31:56Z</time>
</trkpt>
<trkpt lat="34.9278988" lon="33.6051449">
<ele>34.28</ele>
<time>2015-05-01T15:31:57Z</time>
</trkpt>
<trkpt lat="34.9278651" lon="33.6052048">
<ele>34.65</ele>
<time>2015-05-01T15:31:58Z</time>
</trkpt>
<trkpt lat="34.9278303" lon="33.6052656">
<ele>34.33</ele>
<time>2015-05-01T15:31:59Z</time>
</trkpt>
<trkpt lat="34.9277908" lon="33.6053348">
<ele>34.17</ele>
<time>2015-05-01T15:32:00Z</time>
</trkpt>
<trkpt lat="34.9277493" lon="33.6053958">
<ele>33.59</ele>
<time>2015-05-01T15:32:01Z</time>
</trkpt>
<trkpt lat="34.9277064" lon="33.6054557">
<ele>33.31</ele>
<time>2015-05-01T15:32:02Z</time>
</trkpt>
<trkpt lat="34.9276642" lon="33.6055126">
<ele>33.16</ele>
<time>2015-05-01T15:32:03Z</time>
</trkpt>
<trkpt lat="34.9276212" lon="33.6055690">
<ele>33.09</ele>
<time>2015-05-01T15:32:04Z</time>
</trkpt>
<trkpt lat="34.9275820" lon="33.6056312">
<ele>33.05</ele>
<time>2015-05-01T15:32:05Z</time>
</trkpt>
<trkpt lat="34.9275401" lon="33.6056909">
<ele>32.53</ele>
<time>2015-05-01T15:32:06Z</time>
</trkpt>
<trkpt lat="34.9274963" lon="33.6057544">
<ele>32.28</ele>
<time>2015-05-01T15:32:07Z</time>
</trkpt>
<trkpt lat="34.9274547" lon="33.6058207">
<ele>32.15</ele>
<time>2015-05-01T15:32:08Z</time>
</trkpt>
<trkpt lat="34.9274103" lon="33.6058859">
<ele>32.08</ele>
<time>2015-05-01T15:32:09Z</time>
</trkpt>
<trkpt lat="34.9273614" lon="33.6059501">
<ele>32.05</ele>
<time>2015-05-01T15:32:10Z</time>
</trkpt>
<trkpt lat="34.9273141" lon="33.6060172">
<ele>32.03</ele>
<time>2015-05-01T15:32:11Z</time>
</trkpt>
<trkpt lat="34.9272664" lon="33.6060873">
<ele>32.02</ele>
<time>2015-05-01T15:32:12Z</time>
</trkpt>
<trkpt lat="34.9272168" lon="33.6061540">
<ele>31.52</ele>
<time>2015-05-01T15:32:13Z</time>
</trkpt>
<trkpt lat="34.9271678" lon="33.6062237">
<ele>31.27</ele>
<time>2015-05-01T15:32:14Z</time>
</trkpt>
<trkpt lat="34.9271115" lon="33.6062906">
<ele>31.14</ele>
<time>2015-05-01T15:32:15Z</time>
</trkpt>
<trkpt lat="34.9270584" lon="33.6063554">
<ele>31.08</ele>
<time>2015-05-01T15:32:16Z</time>
</trkpt>
<trkpt lat="34.9270062" lon="33.6064202">
<ele>31.05</ele>
<time>2015-05-01T15:32:17Z</time>
</trkpt>
<trkpt lat="34.9269493" lon="33.6064827">
<ele>30.53</ele>
<time>2015-05-01T15:32:18Z</time>
</trkpt>
<trkpt lat="34.9269043" lon="33.6065476">
<ele>30.27</ele>
<time>2015-05-01T15:32:19Z</time>
</trkpt>
<trkpt lat="34.9268500" lon="33.6066116">
<ele>29.64</ele>
<time>2015-05-01T15:32:20Z</time>
</trkpt>
<trkpt lat="34.9267976" lon="33.6066737">
<ele>29.33</ele>
<time>2015-05-01T15:32:21Z</time>
</trkpt>
<trkpt lat="34.9267459" lon="33.6067366">
<ele>28.67</ele>
<time>2015-05-01T15:32:22Z</time>
</trkpt>
<trkpt lat="34.9266950" lon="33.6067989">
<ele>28.34</ele>
<time>2015-05-01T15:32:23Z</time>
</trkpt>
<trkpt lat="34.9266455" lon="33.6068562">
<ele>28.18</ele>
<time>2015-05-01T15:32:24Z</time>
</trkpt>
<trkpt lat="34.9265942" lon="33.6069236">
<ele>28.10</ele>
<time>2015-05-01T15:32:25Z</time>
</trkpt>
<trkpt lat="34.9265473" lon="33.6069810">
<ele>28.06</ele>
<time>2015-05-01T15:32:26Z</time>
</trkpt>
<trkpt lat="34.9264965" lon="33.6070431">
<ele>28.04</ele>
<time>2015-05-01T15:32:27Z</time>
</trkpt>
<trkpt lat="34.9264491" lon="33.6071024">
<ele>27.53</ele>
<time>2015-05-01T15:32:28Z</time>
</trkpt>
<trkpt lat="34.9264005" lon="33.6071598">
<ele>27.77</ele>
<time>2015-05-01T15:32:29Z</time>
</trkpt>
<trkpt lat="34.9263486" lon="33.6072154">
<ele>27.89</ele>
<time>2015-05-01T15:32:30Z</time>
</trkpt>
<trkpt lat="34.9262973" lon="33.6072747">
<ele>27.95</ele>
<time>2015-05-01T15:32:31Z</time>
</trkpt>
<trkpt lat="34.9262427" lon="33.6073371">
<ele>27.49</ele>
<time>2015-05-01T15:32:32Z</time>
</trkpt>
<trkpt lat="34.9261938" lon="33.6073958">
<ele>27.75</ele>
<time>2015-05-01T15:32:33Z</time>
</trkpt>
<trkpt lat="34.9261462" lon="33.6074504">
<ele>27.38</ele>
<time>2015-05-01T15:32:34Z</time>
</trkpt>
<trkpt lat="34.9260972" lon="33.6075046">
<ele>27.70</ele>
<time>2015-05-01T15:32:35Z</time>
</trkpt>
<trkpt lat="34.9260489" lon="33.6075630">
<ele>27.86</ele>
<time>2015-05-01T15:32:36Z</time>
</trkpt>
<trkpt lat="34.9260033" lon="33.6076138">
<ele>27.94</ele>
<time>2015-05-01T15:32:37Z</time>
</trkpt>
<trkpt lat="34.9259538" lon="33.6076604">
<ele>27.98</ele>
<time>2015-05-01T15:32:38Z</time>
</trkpt>
<trkpt lat="34.9259083" lon="33.6077113">
<ele>28.00</ele>
<time>2015-05-01T15:32:39Z</time>
</trkpt>
<trkpt lat="34.9258606" lon="33.6077635">
<ele>27.51</ele>
<time>2015-05-01T15:32:40Z</time>
</trkpt>
<trkpt lat="34.9258132" lon="33.6078144">
<ele>27.76</ele>
<time>2015-05-01T15:32:41Z</time>
</trkpt>
<trkpt lat="34.9257638" lon="33.6078643">
<ele>27.89</ele>
<time>2015-05-01T15:32:42Z</time>
</trkpt>
<trkpt lat="34.9257214" lon="33.6079240">
<ele>27.95</ele>
<time>2015-05-01T15:32:43Z</time>
</trkpt>
<trkpt lat="34.9256727" lon="33.6079927">
<ele>27.98</ele>
<time>2015-05-01T15:32:44Z</time>
</trkpt>
<trkpt lat="34.9256203" lon="33.6080487">
<ele>28.50</ele>
<time>2015-05-01T15:32:45Z</time>
</trkpt>
<trkpt lat="34.9255710" lon="33.6080938">
<ele>28.26</ele>
<time>2015-05-01T15:32:46Z</time>
</trkpt>
<trkpt lat="34.9255220" lon="33.6081584">
<ele>28.14</ele>
<time>2015-05-01T15:32:47Z</time>
</trkpt>
<trkpt lat="34.9254732" lon="33.6082206">
<ele>28.58</ele>
<time>2015-05-01T15:32:48Z</time>
</trkpt>
<trkpt lat="34.9254276" lon="33.6082797">
<ele>28.80</ele>
<time>2015-05-01T15:32:49Z</time>
</trkpt>
<trkpt lat="34.9253833" lon="33.6083301">
<ele>28.91</ele>
<time>2015-05-01T15:32:50Z</time>
</trkpt>
<trkpt lat="34.9253352" lon="33.6083871">
<ele>28.96</ele>
<time>2015-05-01T15:32:51Z</time>
</trkpt>
<trkpt lat="34.9252894" lon="33.6084480">
<ele>28.99</ele>
<time>2015-05-01T15:32:52Z</time>
</trkpt>
<trkpt lat="34.9252453" lon="33.6085022">
<ele>29.00</ele>
<time>2015-05-01T15:32:53Z</time>
</trkpt>
<trkpt lat="34.9252043" lon="33.6085570">
<ele>29.01</ele>
<time>2015-05-01T15:32:54Z</time>
</trkpt>
<trkpt lat="34.9251574" lon="33.6086060">
<ele>29.01</ele>
<time>2015-05-01T15:32:55Z</time>
</trkpt>
<trkpt lat="34.9251103" lon="33.6086619">
<ele>29.01</ele>
<time>2015-05-01T15:32:56Z</time>
</trkpt>
<trkpt lat="34.9250623" lon="33.6087204">
<ele>29.02</ele>
<time>2015-05-01T15:32:57Z</time>
</trkpt>
<trkpt lat="34.9250196" lon="33.6087760">
<ele>28.52</ele>
<time>2015-05-01T15:32:58Z</time>
</trkpt>
<trkpt lat="34.9249745" lon="33.6088323">
<ele>28.27</ele>
<time>2015-05-01T15:32:59Z</time>
</trkpt>
<trkpt lat="34.9249250" lon="33.6088820">
<ele>28.14</ele>
<time>2015-05-01T15:33:00Z</time>
</trkpt>
<trkpt lat="34.9248786" lon="33.6089401">
<ele>27.58</ele>
<time>2015-05-01T15:33:01Z</time>
</trkpt>
<trkpt lat="34.9248315" lon="33.6090004">
<ele>27.30</ele>
<time>2015-05-01T15:33:02Z</time>
</trkpt>
<trkpt lat="34.9247836" lon="33.6090568">
<ele>27.16</ele>
<time>2015-05-01T15:33:03Z</time>
</trkpt>
<trkpt lat="34.9247345" lon="33.6091166">
<ele>27.09</ele>
<time>2015-05-01T15:33:04Z</time>
</trkpt>
<trkpt lat="34.9246895" lon="33.6091731">
<ele>27.05</ele>
<time>2015-05-01T15:33:05Z</time>
</trkpt>
<trkpt lat="34.9246471" lon="33.6092302">
<ele>27.03</ele>
<time>2015-05-01T15:33:06Z</time>
</trkpt>
<trkpt lat="34.9246095" lon="33.6092811">
<ele>26.52</ele>
<time>2015-05-01T15:33:07Z</time>
</trkpt>
<trkpt lat="34.9245656" lon="33.6093422">
<ele>26.77</ele>
<time>2015-05-01T15:33:08Z</time>
</trkpt>
<trkpt lat="34.9245211" lon="33.6093993">
<ele>26.89</ele>
<time>2015-05-01T15:33:09Z</time>
</trkpt>
<trkpt lat="34.9244815" lon="33.6094581">
<ele>26.45</ele>
<time>2015-05-01T15:33:10Z</time>
</trkpt>
<trkpt lat="34.9244416" lon="33.6095145">
<ele>26.74</ele>
<time>2015-05-01T15:33:11Z</time>
</trkpt>
<trkpt lat="34.9244015" lon="33.6095763">
<ele>26.88</ele>
<time>2015-05-01T15:33:12Z</time>
</trkpt>
<trkpt lat="34.9243625" lon="33.6096362">
<ele>26.45</ele>
<time>2015-05-01T15:33:13Z</time>
</trkpt>
<trkpt lat="34.9243214" lon="33.6096913">
<ele>26.73</ele>
<time>2015-05-01T15:33:14Z</time>
</trkpt>
<trkpt lat="34.9242849" lon="33.6097432">
<ele>26.37</ele>
<time>2015-05-01T15:33:15Z</time>
</trkpt>
<trkpt lat="34.9242415" lon="33.6098047">
<ele>26.69</ele>
<time>2015-05-01T15:33:16Z</time>
</trkpt>
<trkpt lat="34.9242019" lon="33.6098639">
<ele>26.86</ele>
<time>2015-05-01T15:33:17Z</time>
</trkpt>
<trkpt lat="34.9241630" lon="33.6099262">
<ele>26.94</ele>
<time>2015-05-01T15:33:18Z</time>
</trkpt>
<trkpt lat="34.9241230" lon="33.6099889">
<ele>26.98</ele>
<time>2015-05-01T15:33:19Z</time>
</trkpt>
<trkpt lat="34.9240802" lon="33.6100572">
<ele>27.00</ele>
<time>2015-05-01T15:33:20Z</time>
</trkpt>
<trkpt lat="34.9240404" lon="33.6101236">
<ele>27.51</ele>
<time>2015-05-01T15:33:21Z</time>
</trkpt>
<trkpt lat="34.9240035" lon="33.6101890">
<ele>27.26</ele>
<time>2015-05-01T15:33:22Z</time>
</trkpt>
<trkpt lat="34.9239610" lon="33.6102519">
<ele>27.14</ele>
<time>2015-05-01T15:33:23Z</time>
</trkpt>
<trkpt lat="34.9239145" lon="33.6103191">
<ele>27.08</ele>
<time>2015-05-01T15:33:24Z</time>
</trkpt>
<trkpt lat="34.9238698" lon="33.6103835">
<ele>27.05</ele>
<time>2015-05-01T15:33:25Z</time>
</trkpt>
<trkpt lat="34.9238268" lon="33.6104526">
<ele>27.03</ele>
<time>2015-05-01T15:33:26Z</time>
</trkpt>
<trkpt lat="34.9237842" lon="33.6105185">
<ele>27.02</ele>
<time>2015-05-01T15:33:27Z</time>
</trkpt>
<trkpt lat="34.9237374" lon="33.6105916">
<ele>27.02</ele>
<time>2015-05-01T15:33:28Z</time>
</trkpt>
<trkpt lat="34.9236927" lon="33.6106595">
<ele>27.52</ele>
<time>2015-05-01T15:33:29Z</time>
</trkpt>
<trkpt lat="34.9236583" lon="33.6107193">
<ele>27.77</ele>
<time>2015-05-01T15:33:30Z</time>
</trkpt>
<trkpt lat="34.9236195" lon="33.6107773">
<ele>27.89</ele>
<time>2015-05-01T15:33:31Z</time>
</trkpt>
<trkpt lat="34.9235804" lon="33.6108380">
<ele>27.95</ele>
<time>2015-05-01T15:33:32Z</time>
</trkpt>
<trkpt lat="34.9235433" lon="33.6108966">
<ele>27.98</ele>
<time>2015-05-01T15:33:33Z</time>
</trkpt>
<trkpt lat="34.9235123" lon="33.6109548">
<ele>28.00</ele>
<time>2015-05-01T15:33:34Z</time>
</trkpt>
<trkpt lat="34.9234824" lon="33.6110097">
<ele>28.01</ele>
<time>2015-05-01T15:33:35Z</time>
</trkpt>
<trkpt lat="34.9234522" lon="33.6110683">
<ele>28.01</ele>
<time>2015-05-01T15:33:36Z</time>
</trkpt>
<trkpt lat="34.9234178" lon="33.6111300">
<ele>28.01</ele>
<time>2015-05-01T15:33:37Z</time>
</trkpt>
<trkpt lat="34.9233847" lon="33.6111888">
<ele>27.52</ele>
<time>2015-05-01T15:33:38Z</time>
</trkpt>
<trkpt lat="34.9233502" lon="33.6112496">
<ele>27.27</ele>
<time>2015-05-01T15:33:39Z</time>
</trkpt>
<trkpt lat="34.9233116" lon="33.6113123">
<ele>27.64</ele>
<time>2015-05-01T15:33:40Z</time>
</trkpt>
<trkpt lat="34.9232768" lon="33.6113729">
<ele>27.83</ele>
<time>2015-05-01T15:33:41Z</time>
</trkpt>
<trkpt lat="34.9232416" lon="33.6114353">
<ele>27.92</ele>
<time>2015-05-01T15:33:42Z</time>
</trkpt>
<trkpt lat="34.9232119" lon="33.6114911">
<ele>27.97</ele>
<time>2015-05-01T15:33:43Z</time>
</trkpt>
<trkpt lat="34.9231797" lon="33.6115378">
<ele>27.99</ele>
<time>2015-05-01T15:33:44Z</time>
</trkpt>
<trkpt lat="34.9231445" lon="33.6115899">
<ele>27.50</ele>
<time>2015-05-01T15:33:45Z</time>
</trkpt>
<trkpt lat="34.9230972" lon="33.6116735">
<ele>27.14</ele>
<time>2015-05-01T15:33:47Z</time>
</trkpt>
<trkpt lat="34.9230511" lon="33.6117592">
<ele>27.05</ele>
<time>2015-05-01T15:33:49Z</time>
</trkpt>
<trkpt lat="34.9230151" lon="33.6118442">
<ele>26.27</ele>
<time>2015-05-01T15:33:51Z</time>
</trkpt>
<trkpt lat="34.9229756" lon="33.6119261">
<ele>26.08</ele>
<time>2015-05-01T15:33:53Z</time>
</trkpt>
<trkpt lat="34.9229458" lon="33.6120002">
<ele>26.03</ele>
<time>2015-05-01T15:33:55Z</time>
</trkpt>
<trkpt lat="34.9229792" lon="33.6120725">
<ele>26.27</ele>
<time>2015-05-01T15:33:57Z</time>
</trkpt>
<trkpt lat="34.9230534" lon="33.6121119">
<ele>26.58</ele>
<time>2015-05-01T15:33:59Z</time>
</trkpt>
<trkpt lat="34.9231146" lon="33.6121177">
<ele>26.30</ele>
<time>2015-05-01T15:34:00Z</time>
</trkpt>
<trkpt lat="34.9231642" lon="33.6121308">
<ele>26.16</ele>
<time>2015-05-01T15:34:01Z</time>
</trkpt>
<trkpt lat="34.9232183" lon="33.6121396">
<ele>26.09</ele>
<time>2015-05-01T15:34:02Z</time>
</trkpt>
<trkpt lat="34.9232640" lon="33.6121526">
<ele>26.05</ele>
<time>2015-05-01T15:34:03Z</time>
</trkpt>
<trkpt lat="34.9233395" lon="33.6121745">
<ele>26.02</ele>
<time>2015-05-01T15:34:05Z</time>
</trkpt>
<trkpt lat="34.9233809" lon="33.6122016">
<ele>26.52</ele>
<time>2015-05-01T15:34:07Z</time>
</trkpt>
<trkpt lat="34.9234400" lon="33.6122332">
<ele>26.06</ele>
<time>2015-05-01T15:34:14Z</time>
</trkpt>
<trkpt lat="34.9234636" lon="33.6122864">
<ele>26.03</ele>
<time>2015-05-01T15:34:16Z</time>
</trkpt>
<trkpt lat="34.9234745" lon="33.6123414">
<ele>26.52</ele>
<time>2015-05-01T15:34:18Z</time>
</trkpt>
<trkpt lat="34.9234670" lon="33.6123982">
<ele>26.64</ele>
<time>2015-05-01T15:34:20Z</time>
</trkpt>
<trkpt lat="34.9234585" lon="33.6124582">
<ele>26.17</ele>
<time>2015-05-01T15:34:22Z</time>
</trkpt>
<trkpt lat="34.9234457" lon="33.6125411">
<ele>26.06</ele>
<time>2015-05-01T15:34:24Z</time>
</trkpt>
<trkpt lat="34.9234235" lon="33.6126260">
<ele>26.03</ele>
<time>2015-05-01T15:34:26Z</time>
</trkpt>
<trkpt lat="34.9233979" lon="33.6127291">
<ele>25.27</ele>
<time>2015-05-01T15:34:28Z</time>
</trkpt>
<trkpt lat="34.9233763" lon="33.6128348">
<ele>25.08</ele>
<time>2015-05-01T15:34:30Z</time>
</trkpt>
<trkpt lat="34.9233613" lon="33.6129413">
<ele>24.28</ele>
<time>2015-05-01T15:34:32Z</time>
</trkpt>
<trkpt lat="34.9233671" lon="33.6130047">
<ele>24.15</ele>
<time>2015-05-01T15:34:33Z</time>
</trkpt>
<trkpt lat="34.9233652" lon="33.6131128">
<ele>24.05</ele>
<time>2015-05-01T15:34:35Z</time>
</trkpt>
<trkpt lat="34.9233613" lon="33.6131706">
<ele>24.03</ele>
<time>2015-05-01T15:34:36Z</time>
</trkpt>
<trkpt lat="34.9233616" lon="33.6132828">
<ele>24.02</ele>
<time>2015-05-01T15:34:38Z</time>
</trkpt>
<trkpt lat="34.9233616" lon="33.6133479">
<ele>24.52</ele>
<time>2015-05-01T15:34:39Z</time>
</trkpt>
<trkpt lat="34.9233624" lon="33.6134156">
<ele>24.77</ele>
<time>2015-05-01T15:34:40Z</time>
</trkpt>
<trkpt lat="34.9233669" lon="33.6134782">
<ele>24.89</ele>
<time>2015-05-01T15:34:41Z</time>
</trkpt>
<trkpt lat="34.9233644" lon="33.6135480">
<ele>24.95</ele>
<time>2015-05-01T15:34:42Z</time>
</trkpt>
<trkpt lat="34.9233650" lon="33.6136138">
<ele>24.98</ele>
<time>2015-05-01T15:34:43Z</time>
</trkpt>
<trkpt lat="34.9233604" lon="33.6136816">
<ele>25.00</ele>
<time>2015-05-01T15:34:44Z</time>
</trkpt>
<trkpt lat="34.9233634" lon="33.6137441">
<ele>25.01</ele>
<time>2015-05-01T15:34:45Z</time>
</trkpt>
<trkpt lat="34.9233632" lon="33.6138056">
<ele>24.51</ele>
<time>2015-05-01T15:34:46Z</time>
</trkpt>
<trkpt lat="34.9233659" lon="33.6138624">
<ele>24.26</ele>
<time>2015-05-01T15:34:47Z</time>
</trkpt>
<trkpt lat="34.9233662" lon="33.6139260">
<ele>24.14</ele>
<time>2015-05-01T15:34:48Z</time>
</trkpt>
<trkpt lat="34.9233725" lon="33.6140362">
<ele>24.55</ele>
<time>2015-05-01T15:34:50Z</time>
</trkpt>
<trkpt lat="34.9233742" lon="33.6140934">
<ele>24.78</ele>
<time>2015-05-01T15:34:51Z</time>
</trkpt>
<trkpt lat="34.9233702" lon="33.6141589">
<ele>24.90</ele>
<time>2015-05-01T15:34:52Z</time>
</trkpt>
<trkpt lat="34.9233690" lon="33.6142248">
<ele>24.46</ele>
<time>2015-05-01T15:34:53Z</time>
</trkpt>
<trkpt lat="34.9233713" lon="33.6142950">
<ele>24.24</ele>
<time>2015-05-01T15:34:54Z</time>
</trkpt>
<trkpt lat="34.9233710" lon="33.6143663">
<ele>24.63</ele>
<time>2015-05-01T15:34:55Z</time>
</trkpt>
<trkpt lat="34.9233684" lon="33.6144441">
<ele>24.32</ele>
<time>2015-05-01T15:34:56Z</time>
</trkpt>
<trkpt lat="34.9233674" lon="33.6145172">
<ele>24.17</ele>
<time>2015-05-01T15:34:57Z</time>
</trkpt>
<trkpt lat="34.9233666" lon="33.6145877">
<ele>24.09</ele>
<time>2015-05-01T15:34:58Z</time>
</trkpt>
<trkpt lat="34.9233666" lon="33.6146611">
<ele>24.05</ele>
<time>2015-05-01T15:34:59Z</time>
</trkpt>
<trkpt lat="34.9233690" lon="33.6147347">
<ele>23.54</ele>
<time>2015-05-01T15:35:00Z</time>
</trkpt>
<trkpt lat="34.9233741" lon="33.6148001">
<ele>23.78</ele>
<time>2015-05-01T15:35:01Z</time>
</trkpt>
<trkpt lat="34.9233778" lon="33.6148722">
<ele>23.40</ele>
<time>2015-05-01T15:35:02Z</time>
</trkpt>
<trkpt lat="34.9233845" lon="33.6149383">
<ele>23.21</ele>
<time>2015-05-01T15:35:03Z</time>
</trkpt>
<trkpt lat="34.9233934" lon="33.6150079">
<ele>23.11</ele>
<time>2015-05-01T15:35:04Z</time>
</trkpt>
<trkpt lat="34.9233995" lon="33.6150740">
<ele>23.06</ele>
<time>2015-05-01T15:35:05Z</time>
</trkpt>
<trkpt lat="34.9234023" lon="33.6151495">
<ele>23.04</ele>
<time>2015-05-01T15:35:06Z</time>
</trkpt>
<trkpt lat="34.9234074" lon="33.6152207">
<ele>22.53</ele>
<time>2015-05-01T15:35:07Z</time>
</trkpt>
<trkpt lat="34.9234132" lon="33.6152859">
<ele>22.27</ele>
<time>2015-05-01T15:35:08Z</time>
</trkpt>
<trkpt lat="34.9234162" lon="33.6153528">
<ele>22.14</ele>
<time>2015-05-01T15:35:09Z</time>
</trkpt>
<trkpt lat="34.9234175" lon="33.6154156">
<ele>21.58</ele>
<time>2015-05-01T15:35:10Z</time>
</trkpt>
<trkpt lat="34.9234238" lon="33.6154726">
<ele>21.80</ele>
<time>2015-05-01T15:35:11Z</time>
</trkpt>
<trkpt lat="34.9234303" lon="33.6155356">
<ele>21.91</ele>
<time>2015-05-01T15:35:12Z</time>
</trkpt>
<trkpt lat="34.9234371" lon="33.6155938">
<ele>21.96</ele>
<time>2015-05-01T15:35:13Z</time>
</trkpt>
<trkpt lat="34.9234419" lon="33.6156538">
<ele>21.99</ele>
<time>2015-05-01T15:35:14Z</time>
</trkpt>
<trkpt lat="34.9234418" lon="33.6157093">
<ele>21.50</ele>
<time>2015-05-01T15:35:15Z</time>
</trkpt>
<trkpt lat="34.9234522" lon="33.6157659">
<ele>21.76</ele>
<time>2015-05-01T15:35:16Z</time>
</trkpt>
<trkpt lat="34.9234442" lon="33.6158388">
<ele>21.95</ele>
<time>2015-05-01T15:35:18Z</time>
</trkpt>
<trkpt lat="34.9234146" lon="33.6159059">
<ele>21.50</ele>
<time>2015-05-01T15:35:20Z</time>
</trkpt>
<trkpt lat="34.9234229" lon="33.6159796">
<ele>22.39</ele>
<time>2015-05-01T15:35:22Z</time>
</trkpt>
<trkpt lat="34.9234098" lon="33.6160390">
<ele>22.61</ele>
<time>2015-05-01T15:35:24Z</time>
</trkpt>
<trkpt lat="34.9233566" lon="33.6160753">
<ele>22.72</ele>
<time>2015-05-01T15:35:27Z</time>
</trkpt>
<trkpt lat="34.9233068" lon="33.6161039">
<ele>22.98</ele>
<time>2015-05-01T15:35:30Z</time>
</trkpt>
<trkpt lat="34.9232883" lon="33.6161642">
<ele>23.51</ele>
<time>2015-05-01T15:35:34Z</time>
</trkpt>
<trkpt lat="34.9232396" lon="33.6162018">
<ele>25.67</ele>
<time>2015-05-01T15:35:38Z</time>
</trkpt>
<trkpt lat="34.9231763" lon="33.6162152">
<ele>26.72</ele>
<time>2015-05-01T15:35:41Z</time>
</trkpt>
<trkpt lat="34.9231235" lon="33.6162156">
<ele>26.94</ele>
<time>2015-05-01T15:35:43Z</time>
</trkpt>
<trkpt lat="34.9230615" lon="33.6162116">
<ele>24.50</ele>
<time>2015-05-01T15:35:45Z</time>
</trkpt>
<trkpt lat="34.9229810" lon="33.6161948">
<ele>21.39</ele>
<time>2015-05-01T15:35:47Z</time>
</trkpt>
<trkpt lat="34.9228941" lon="33.6161985">
<ele>20.36</ele>
<time>2015-05-01T15:35:49Z</time>
</trkpt>
<trkpt lat="34.9228159" lon="33.6162164">
<ele>20.60</ele>
<time>2015-05-01T15:35:51Z</time>
</trkpt>
<trkpt lat="34.9227455" lon="33.6162272">
<ele>20.41</ele>
<time>2015-05-01T15:35:53Z</time>
</trkpt>
<trkpt lat="34.9226748" lon="33.6162437">
<ele>19.62</ele>
<time>2015-05-01T15:35:55Z</time>
</trkpt>
<trkpt lat="34.9225994" lon="33.6162670">
<ele>19.92</ele>
<time>2015-05-01T15:35:57Z</time>
</trkpt>
<trkpt lat="34.9225264" lon="33.6162843">
<ele>19.99</ele>
<time>2015-05-01T15:35:59Z</time>
</trkpt>
<trkpt lat="34.9224562" lon="33.6163026">
<ele>20.01</ele>
<time>2015-05-01T15:36:01Z</time>
</trkpt>
<trkpt lat="34.9223972" lon="33.6163271">
<ele>19.51</ele>
<time>2015-05-01T15:36:03Z</time>
</trkpt>
<trkpt lat="34.9223466" lon="33.6163479">
<ele>19.64</ele>
<time>2015-05-01T15:36:05Z</time>
</trkpt>
<trkpt lat="34.9223199" lon="33.6164170">
<ele>20.84</ele>
<time>2015-05-01T15:36:08Z</time>
</trkpt>
<trkpt lat="34.9223244" lon="33.6164773">
<ele>22.22</ele>
<time>2015-05-01T15:36:10Z</time>
</trkpt>
<trkpt lat="34.9222834" lon="33.6165005">
<ele>22.82</ele>
<time>2015-05-01T15:36:12Z</time>
</trkpt>
<trkpt lat="34.9222304" lon="33.6165483">
<ele>22.24</ele>
<time>2015-05-01T15:36:15Z</time>
</trkpt>
<trkpt lat="34.9221649" lon="33.6165959">
<ele>22.07</ele>
<time>2015-05-01T15:36:17Z</time>
</trkpt>
<trkpt lat="34.9221164" lon="33.6166095">
<ele>22.04</ele>
<time>2015-05-01T15:36:18Z</time>
</trkpt>
<trkpt lat="34.9220509" lon="33.6166217">
<ele>22.03</ele>
<time>2015-05-01T15:36:19Z</time>
</trkpt>
<trkpt lat="34.9219965" lon="33.6166326">
<ele>22.02</ele>
<time>2015-05-01T15:36:20Z</time>
</trkpt>
<trkpt lat="34.9219477" lon="33.6166410">
<ele>22.02</ele>
<time>2015-05-01T15:36:21Z</time>
</trkpt>
<trkpt lat="34.9218918" lon="33.6166485">
<ele>21.52</ele>
<time>2015-05-01T15:36:22Z</time>
</trkpt>
<trkpt lat="34.9218374" lon="33.6166557">
<ele>21.27</ele>
<time>2015-05-01T15:36:23Z</time>
</trkpt>
<trkpt lat="34.9217790" lon="33.6166661">
<ele>21.14</ele>
<time>2015-05-01T15:36:24Z</time>
</trkpt>
<trkpt lat="34.9217256" lon="33.6166756">
<ele>21.08</ele>
<time>2015-05-01T15:36:25Z</time>
</trkpt>
<trkpt lat="34.9216695" lon="33.6166946">
<ele>20.55</ele>
<time>2015-05-01T15:36:26Z</time>
</trkpt>
<trkpt lat="34.9216102" lon="33.6167012">
<ele>20.28</ele>
<time>2015-05-01T15:36:27Z</time>
</trkpt>
<trkpt lat="34.9215490" lon="33.6167092">
<ele>20.15</ele>
<time>2015-05-01T15:36:28Z</time>
</trkpt>
<trkpt lat="34.9214908" lon="33.6167222">
<ele>20.08</ele>
<time>2015-05-01T15:36:29Z</time>
</trkpt>
<trkpt lat="34.9214312" lon="33.6167327">
<ele>20.05</ele>
<time>2015-05-01T15:36:30Z</time>
</trkpt>
<trkpt lat="34.9213763" lon="33.6167387">
<ele>20.03</ele>
<time>2015-05-01T15:36:31Z</time>
</trkpt>
<trkpt lat="34.9213180" lon="33.6167462">
<ele>20.52</ele>
<time>2015-05-01T15:36:32Z</time>
</trkpt>
<trkpt lat="34.9212584" lon="33.6167512">
<ele>20.77</ele>
<time>2015-05-01T15:36:33Z</time>
</trkpt>
<trkpt lat="34.9212041" lon="33.6167538">
<ele>20.89</ele>
<time>2015-05-01T15:36:34Z</time>
</trkpt>
<trkpt lat="34.9211515" lon="33.6167535">
<ele>20.95</ele>
<time>2015-05-01T15:36:35Z</time>
</trkpt>
<trkpt lat="34.9211013" lon="33.6167514">
<ele>20.49</ele>
<time>2015-05-01T15:36:36Z</time>
</trkpt>
<trkpt lat="34.9210485" lon="33.6167477">
<ele>20.75</ele>
<time>2015-05-01T15:36:37Z</time>
</trkpt>
<trkpt lat="34.9210005" lon="33.6167462">
<ele>20.88</ele>
<time>2015-05-01T15:36:38Z</time>
</trkpt>
<trkpt lat="34.9209083" lon="33.6167370">
<ele>21.23</ele>
<time>2015-05-01T15:36:40Z</time>
</trkpt>
<trkpt lat="34.9208244" lon="33.6167376">
<ele>21.07</ele>
<time>2015-05-01T15:36:42Z</time>
</trkpt>
<trkpt lat="34.9207339" lon="33.6167221">
<ele>21.78</ele>
<time>2015-05-01T15:36:44Z</time>
</trkpt>
<trkpt lat="34.9206893" lon="33.6167087">
<ele>22.40</ele>
<time>2015-05-01T15:36:45Z</time>
</trkpt>
<trkpt lat="34.9206312" lon="33.6166832">
<ele>22.86</ele>
<time>2015-05-01T15:36:47Z</time>
</trkpt>
<trkpt lat="34.9205764" lon="33.6166644">
<ele>24.23</ele>
<time>2015-05-01T15:36:49Z</time>
</trkpt>
<trkpt lat="34.9205249" lon="33.6166381">
<ele>26.82</ele>
<time>2015-05-01T15:36:51Z</time>
</trkpt>
<trkpt lat="34.9204784" lon="33.6166156">
<ele>28.22</ele>
<time>2015-05-01T15:36:53Z</time>
</trkpt>
<trkpt lat="34.9204329" lon="33.6165970">
<ele>27.79</ele>
<time>2015-05-01T15:36:56Z</time>
</trkpt>
<trkpt lat="34.9203837" lon="33.6165953">
<ele>26.11</ele>
<time>2015-05-01T15:36:59Z</time>
</trkpt>
<trkpt lat="34.9203289" lon="33.6166002">
<ele>25.65</ele>
<time>2015-05-01T15:37:02Z</time>
</trkpt>
<trkpt lat="34.9202731" lon="33.6166244">
<ele>25.93</ele>
<time>2015-05-01T15:37:04Z</time>
</trkpt>
<trkpt lat="34.9202161" lon="33.6166889">
<ele>24.74</ele>
<time>2015-05-01T15:37:06Z</time>
</trkpt>
<trkpt lat="34.9201590" lon="33.6167788">
<ele>24.45</ele>
<time>2015-05-01T15:37:08Z</time>
</trkpt>
<trkpt lat="34.9201165" lon="33.6168285">
<ele>24.23</ele>
<time>2015-05-01T15:37:09Z</time>
</trkpt>
<trkpt lat="34.9200808" lon="33.6168789">
<ele>24.12</ele>
<time>2015-05-01T15:37:10Z</time>
</trkpt>
<trkpt lat="34.9200463" lon="33.6169322">
<ele>24.07</ele>
<time>2015-05-01T15:37:11Z</time>
</trkpt>
<trkpt lat="34.9200086" lon="33.6169933">
<ele>23.54</ele>
<time>2015-05-01T15:37:12Z</time>
</trkpt>
<trkpt lat="34.9199723" lon="33.6170498">
<ele>23.28</ele>
<time>2015-05-01T15:37:13Z</time>
</trkpt>
<trkpt lat="34.9199363" lon="33.6171111">
<ele>23.15</ele>
<time>2015-05-01T15:37:14Z</time>
</trkpt>
<trkpt lat="34.9199000" lon="33.6171709">
<ele>23.08</ele>
<time>2015-05-01T15:37:15Z</time>
</trkpt>
<trkpt lat="34.9198587" lon="33.6172235">
<ele>23.55</ele>
<time>2015-05-01T15:37:16Z</time>
</trkpt>
<trkpt lat="34.9198216" lon="33.6172822">
<ele>23.78</ele>
<time>2015-05-01T15:37:17Z</time>
</trkpt>
<trkpt lat="34.9197936" lon="33.6173426">
<ele>23.90</ele>
<time>2015-05-01T15:37:18Z</time>
</trkpt>
<trkpt lat="34.9197596" lon="33.6173992">
<ele>23.96</ele>
<time>2015-05-01T15:37:19Z</time>
</trkpt>
<trkpt lat="34.9197218" lon="33.6174648">
<ele>23.99</ele>
<time>2015-05-01T15:37:20Z</time>
</trkpt>
<trkpt lat="34.9196850" lon="33.6175256">
<ele>24.00</ele>
<time>2015-05-01T15:37:21Z</time>
</trkpt>
<trkpt lat="34.9196462" lon="33.6175907">
<ele>23.51</ele>
<time>2015-05-01T15:37:22Z</time>
</trkpt>
<trkpt lat="34.9196078" lon="33.6176519">
<ele>23.26</ele>
<time>2015-05-01T15:37:23Z</time>
</trkpt>
<trkpt lat="34.9195622" lon="33.6177153">
<ele>23.14</ele>
<time>2015-05-01T15:37:24Z</time>
</trkpt>
<trkpt lat="34.9195201" lon="33.6177780">
<ele>22.58</ele>
<time>2015-05-01T15:37:25Z</time>
</trkpt>
<trkpt lat="34.9194804" lon="33.6178424">
<ele>22.30</ele>
<time>2015-05-01T15:37:26Z</time>
</trkpt>
<trkpt lat="34.9194382" lon="33.6179021">
<ele>22.66</ele>
<time>2015-05-01T15:37:27Z</time>
</trkpt>
<trkpt lat="34.9193997" lon="33.6179708">
<ele>22.84</ele>
<time>2015-05-01T15:37:28Z</time>
</trkpt>
<trkpt lat="34.9193601" lon="33.6180358">
<ele>22.43</ele>
<time>2015-05-01T15:37:29Z</time>
</trkpt>
<trkpt lat="34.9193214" lon="33.6181032">
<ele>22.72</ele>
<time>2015-05-01T15:37:30Z</time>
</trkpt>
<trkpt lat="34.9192851" lon="33.6181644">
<ele>22.37</ele>
<time>2015-05-01T15:37:31Z</time>
</trkpt>
<trkpt lat="34.9192452" lon="33.6182276">
<ele>22.19</ele>
<time>2015-05-01T15:37:32Z</time>
</trkpt>
<trkpt lat="34.9192081" lon="33.6182854">
<ele>22.10</ele>
<time>2015-05-01T15:37:33Z</time>
</trkpt>
<trkpt lat="34.9191750" lon="33.6183456">
<ele>22.56</ele>
<time>2015-05-01T15:37:34Z</time>
</trkpt>
<trkpt lat="34.9191440" lon="33.6184088">
<ele>22.79</ele>
<time>2015-05-01T15:37:35Z</time>
</trkpt>
<trkpt lat="34.9191056" lon="33.6184693">
<ele>22.90</ele>
<time>2015-05-01T15:37:36Z</time>
</trkpt>
<trkpt lat="34.9190673" lon="33.6185280">
<ele>22.46</ele>
<time>2015-05-01T15:37:37Z</time>
</trkpt>
<trkpt lat="34.9190288" lon="33.6185850">
<ele>22.24</ele>
<time>2015-05-01T15:37:38Z</time>
</trkpt>
<trkpt lat="34.9189960" lon="33.6186453">
<ele>22.13</ele>
<time>2015-05-01T15:37:39Z</time>
</trkpt>
<trkpt lat="34.9189531" lon="33.6187063">
<ele>22.57</ele>
<time>2015-05-01T15:37:40Z</time>
</trkpt>
<trkpt lat="34.9189207" lon="33.6187643">
<ele>22.79</ele>
<time>2015-05-01T15:37:41Z</time>
</trkpt>
<trkpt lat="34.9188921" lon="33.6188212">
<ele>22.90</ele>
<time>2015-05-01T15:37:42Z</time>
</trkpt>
<trkpt lat="34.9188675" lon="33.6188772">
<ele>22.46</ele>
<time>2015-05-01T15:37:43Z</time>
</trkpt>
<trkpt lat="34.9188366" lon="33.6189304">
<ele>22.24</ele>
<time>2015-05-01T15:37:44Z</time>
</trkpt>
<trkpt lat="34.9187987" lon="33.6189870">
<ele>22.13</ele>
<time>2015-05-01T15:37:45Z</time>
</trkpt>
<trkpt lat="34.9187672" lon="33.6190428">
<ele>21.57</ele>
<time>2015-05-01T15:37:46Z</time>
</trkpt>
<trkpt lat="34.9187368" lon="33.6191072">
<ele>21.29</ele>
<time>2015-05-01T15:37:47Z</time>
</trkpt>
<trkpt lat="34.9186992" lon="33.6191720">
<ele>21.65</ele>
<time>2015-05-01T15:37:48Z</time>
</trkpt>
<trkpt lat="34.9186619" lon="33.6192367">
<ele>21.84</ele>
<time>2015-05-01T15:37:49Z</time>
</trkpt>
<trkpt lat="34.9186267" lon="33.6192964">
<ele>21.93</ele>
<time>2015-05-01T15:37:50Z</time>
</trkpt>
<trkpt lat="34.9185898" lon="33.6193584">
<ele>21.97</ele>
<time>2015-05-01T15:37:51Z</time>
</trkpt>
<trkpt lat="34.9185522" lon="33.6194232">
<ele>22.49</ele>
<time>2015-05-01T15:37:52Z</time>
</trkpt>
<trkpt lat="34.9185220" lon="33.6194881">
<ele>22.25</ele>
<time>2015-05-01T15:37:53Z</time>
</trkpt>
<trkpt lat="34.9184906" lon="33.6195560">
<ele>22.14</ele>
<time>2015-05-01T15:37:54Z</time>
</trkpt>
<trkpt lat="34.9184623" lon="33.6196171">
<ele>22.08</ele>
<time>2015-05-01T15:37:55Z</time>
</trkpt>
<trkpt lat="34.9184337" lon="33.6196865">
<ele>22.55</ele>
<time>2015-05-01T15:37:56Z</time>
</trkpt>
<trkpt lat="34.9184034" lon="33.6197553">
<ele>22.78</ele>
<time>2015-05-01T15:37:57Z</time>
</trkpt>
<trkpt lat="34.9183745" lon="33.6198220">
<ele>22.90</ele>
<time>2015-05-01T15:37:58Z</time>
</trkpt>
<trkpt lat="34.9183509" lon="33.6198832">
<ele>22.96</ele>
<time>2015-05-01T15:37:59Z</time>
</trkpt>
<trkpt lat="34.9183271" lon="33.6199498">
<ele>23.00</ele>
<time>2015-05-01T15:38:01Z</time>
</trkpt>
<trkpt lat="34.9182938" lon="33.6200090">
<ele>24.19</ele>
<time>2015-05-01T15:38:20Z</time>
</trkpt>
<trkpt lat="34.9182768" lon="33.6200747">
<ele>24.56</ele>
<time>2015-05-01T15:38:22Z</time>
</trkpt>
<trkpt lat="34.9182575" lon="33.6201600">
<ele>24.15</ele>
<time>2015-05-01T15:38:24Z</time>
</trkpt>
<trkpt lat="34.9182183" lon="33.6202490">
<ele>23.80</ele>
<time>2015-05-01T15:38:26Z</time>
</trkpt>
<trkpt lat="34.9181834" lon="33.6203512">
<ele>23.96</ele>
<time>2015-05-01T15:38:28Z</time>
</trkpt>
<trkpt lat="34.9181682" lon="33.6204094">
<ele>23.99</ele>
<time>2015-05-01T15:38:29Z</time>
</trkpt>
<trkpt lat="34.9181486" lon="33.6204705">
<ele>24.00</ele>
<time>2015-05-01T15:38:30Z</time>
</trkpt>
<trkpt lat="34.9181231" lon="33.6205245">
<ele>24.51</ele>
<time>2015-05-01T15:38:31Z</time>
</trkpt>
<trkpt lat="34.9181002" lon="33.6205894">
<ele>24.76</ele>
<time>2015-05-01T15:38:32Z</time>
</trkpt>
<trkpt lat="34.9180834" lon="33.6206485">
<ele>24.89</ele>
<time>2015-05-01T15:38:33Z</time>
</trkpt>
<trkpt lat="34.9180659" lon="33.6207093">
<ele>24.95</ele>
<time>2015-05-01T15:38:34Z</time>
</trkpt>
<trkpt lat="34.9180419" lon="33.6207659">
<ele>24.48</ele>
<time>2015-05-01T15:38:35Z</time>
</trkpt>
<trkpt lat="34.9180201" lon="33.6208257">
<ele>24.75</ele>
<time>2015-05-01T15:38:36Z</time>
</trkpt>
<trkpt lat="34.9179977" lon="33.6208845">
<ele>24.88</ele>
<time>2015-05-01T15:38:37Z</time>
</trkpt>
<trkpt lat="34.9179800" lon="33.6209472">
<ele>24.45</ele>
<time>2015-05-01T15:38:38Z</time>
</trkpt>
<trkpt lat="34.9179591" lon="33.6210032">
<ele>24.23</ele>
<time>2015-05-01T15:38:39Z</time>
</trkpt>
<trkpt lat="34.9179343" lon="33.6210630">
<ele>24.12</ele>
<time>2015-05-01T15:38:40Z</time>
</trkpt>
<trkpt lat="34.9179132" lon="33.6211158">
<ele>24.07</ele>
<time>2015-05-01T15:38:41Z</time>
</trkpt>
<trkpt lat="34.9178966" lon="33.6211719">
<ele>23.54</ele>
<time>2015-05-01T15:38:42Z</time>
</trkpt>
<trkpt lat="34.9178561" lon="33.6212692">
<ele>23.65</ele>
<time>2015-05-01T15:38:44Z</time>
</trkpt>
<trkpt lat="34.9178372" lon="33.6213267">
<ele>23.83</ele>
<time>2015-05-01T15:38:45Z</time>
</trkpt>
<trkpt lat="34.9178194" lon="33.6213878">
<ele>23.92</ele>
<time>2015-05-01T15:38:46Z</time>
</trkpt>
<trkpt lat="34.9178044" lon="33.6214420">
<ele>23.47</ele>
<time>2015-05-01T15:38:47Z</time>
</trkpt>
<trkpt lat="34.9177877" lon="33.6214933">
<ele>22.74</ele>
<time>2015-05-01T15:38:48Z</time>
</trkpt>
<trkpt lat="34.9177695" lon="33.6215452">
<ele>22.38</ele>
<time>2015-05-01T15:38:49Z</time>
</trkpt>
<trkpt lat="34.9177485" lon="33.6215981">
<ele>22.20</ele>
<time>2015-05-01T15:38:50Z</time>
</trkpt>
<trkpt lat="34.9177295" lon="33.6216534">
<ele>21.61</ele>
<time>2015-05-01T15:38:51Z</time>
</trkpt>
<trkpt lat="34.9177093" lon="33.6217116">
<ele>21.31</ele>
<time>2015-05-01T15:38:52Z</time>
</trkpt>
<trkpt lat="34.9176866" lon="33.6217719">
<ele>21.16</ele>
<time>2015-05-01T15:38:53Z</time>
</trkpt>
<trkpt lat="34.9176698" lon="33.6218306">
<ele>21.59</ele>
<time>2015-05-01T15:38:54Z</time>
</trkpt>
<trkpt lat="34.9176460" lon="33.6218918">
<ele>21.80</ele>
<time>2015-05-01T15:38:55Z</time>
</trkpt>
<trkpt lat="34.9176203" lon="33.6219628">
<ele>21.41</ele>
<time>2015-05-01T15:38:56Z</time>
</trkpt>
<trkpt lat="34.9175980" lon="33.6220328">
<ele>21.21</ele>
<time>2015-05-01T15:38:57Z</time>
</trkpt>
<trkpt lat="34.9175761" lon="33.6220961">
<ele>21.61</ele>
<time>2015-05-01T15:38:58Z</time>
</trkpt>
<trkpt lat="34.9175515" lon="33.6221631">
<ele>21.82</ele>
<time>2015-05-01T15:38:59Z</time>
</trkpt>
<trkpt lat="34.9175273" lon="33.6222327">
<ele>21.92</ele>
<time>2015-05-01T15:39:00Z</time>
</trkpt>
<trkpt lat="34.9175069" lon="33.6223060">
<ele>21.97</ele>
<time>2015-05-01T15:39:01Z</time>
</trkpt>
<trkpt lat="34.9174811" lon="33.6223807">
<ele>21.49</ele>
<time>2015-05-01T15:39:02Z</time>
</trkpt>
<trkpt lat="34.9174540" lon="33.6224487">
<ele>21.75</ele>
<time>2015-05-01T15:39:03Z</time>
</trkpt>
<trkpt lat="34.9174236" lon="33.6225250">
<ele>21.38</ele>
<time>2015-05-01T15:39:04Z</time>
</trkpt>
<trkpt lat="34.9174008" lon="33.6225990">
<ele>21.70</ele>
<time>2015-05-01T15:39:05Z</time>
</trkpt>
<trkpt lat="34.9173716" lon="33.6226793">
<ele>21.36</ele>
<time>2015-05-01T15:39:06Z</time>
</trkpt>
<trkpt lat="34.9173450" lon="33.6227543">
<ele>21.19</ele>
<time>2015-05-01T15:39:07Z</time>
</trkpt>
<trkpt lat="34.9173222" lon="33.6228316">
<ele>21.10</ele>
<time>2015-05-01T15:39:08Z</time>
</trkpt>
<trkpt lat="34.9172996" lon="33.6229108">
<ele>20.56</ele>
<time>2015-05-01T15:39:09Z</time>
</trkpt>
<trkpt lat="34.9172759" lon="33.6229862">
<ele>20.29</ele>
<time>2015-05-01T15:39:10Z</time>
</trkpt>
<trkpt lat="34.9172468" lon="33.6230580">
<ele>20.15</ele>
<time>2015-05-01T15:39:11Z</time>
</trkpt>
<trkpt lat="34.9172190" lon="33.6231355">
<ele>20.08</ele>
<time>2015-05-01T15:39:12Z</time>
</trkpt>
<trkpt lat="34.9171931" lon="33.6232121">
<ele>20.05</ele>
<time>2015-05-01T15:39:13Z</time>
</trkpt>
<trkpt lat="34.9171636" lon="33.6232890">
<ele>20.53</ele>
<time>2015-05-01T15:39:14Z</time>
</trkpt>
<trkpt lat="34.9171401" lon="33.6233656">
<ele>20.27</ele>
<time>2015-05-01T15:39:15Z</time>
</trkpt>
<trkpt lat="34.9171125" lon="33.6234448">
<ele>19.65</ele>
<time>2015-05-01T15:39:16Z</time>
</trkpt>
<trkpt lat="34.9170884" lon="33.6235195">
<ele>19.33</ele>
<time>2015-05-01T15:39:17Z</time>
</trkpt>
<trkpt lat="34.9170544" lon="33.6235933">
<ele>18.67</ele>
<time>2015-05-01T15:39:18Z</time>
</trkpt>
<trkpt lat="34.9170255" lon="33.6236569">
<ele>18.34</ele>
<time>2015-05-01T15:39:19Z</time>
</trkpt>
<trkpt lat="34.9169963" lon="33.6237299">
<ele>17.68</ele>
<time>2015-05-01T15:39:20Z</time>
</trkpt>
<trkpt lat="34.9169670" lon="33.6237976">
<ele>17.35</ele>
<time>2015-05-01T15:39:21Z</time>
</trkpt>
<trkpt lat="34.9169361" lon="33.6238679">
<ele>17.18</ele>
<time>2015-05-01T15:39:22Z</time>
</trkpt>
<trkpt lat="34.9169058" lon="33.6239334">
<ele>17.60</ele>
<time>2015-05-01T15:39:23Z</time>
</trkpt>
<trkpt lat="34.9168730" lon="33.6239992">
<ele>17.31</ele>
<time>2015-05-01T15:39:24Z</time>
</trkpt>
<trkpt lat="34.9168369" lon="33.6240724">
<ele>17.16</ele>
<time>2015-05-01T15:39:25Z</time>
</trkpt>
<trkpt lat="34.9167947" lon="33.6241416">
<ele>17.59</ele>
<time>2015-05-01T15:39:26Z</time>
</trkpt>
<trkpt lat="34.9167605" lon="33.6242089">
<ele>18.30</ele>
<time>2015-05-01T15:39:27Z</time>
</trkpt>
<trkpt lat="34.9167255" lon="33.6242827">
<ele>18.66</ele>
<time>2015-05-01T15:39:28Z</time>
</trkpt>
<trkpt lat="34.9166912" lon="33.6243523">
<ele>18.84</ele>
<time>2015-05-01T15:39:29Z</time>
</trkpt>
<trkpt lat="34.9166560" lon="33.6244245">
<ele>18.93</ele>
<time>2015-05-01T15:39:30Z</time>
</trkpt>
<trkpt lat="34.9166193" lon="33.6244965">
<ele>18.97</ele>
<time>2015-05-01T15:39:31Z</time>
</trkpt>
<trkpt lat="34.9165796" lon="33.6245667">
<ele>18.99</ele>
<time>2015-05-01T15:39:32Z</time>
</trkpt>
<trkpt lat="34.9165456" lon="33.6246432">
<ele>18.50</ele>
<time>2015-05-01T15:39:33Z</time>
</trkpt>
<trkpt lat="34.9165122" lon="33.6247178">
<ele>18.26</ele>
<time>2015-05-01T15:39:34Z</time>
</trkpt>
<trkpt lat="34.9164832" lon="33.6247968">
<ele>18.14</ele>
<time>2015-05-01T15:39:35Z</time>
</trkpt>
<trkpt lat="34.9164526" lon="33.6248762">
<ele>18.08</ele>
<time>2015-05-01T15:39:36Z</time>
</trkpt>
<trkpt lat="34.9164272" lon="33.6249550">
<ele>18.05</ele>
<time>2015-05-01T15:39:37Z</time>
</trkpt>
<trkpt lat="34.9164041" lon="33.6250267">
<ele>18.03</ele>
<time>2015-05-01T15:39:38Z</time>
</trkpt>
<trkpt lat="34.9164059" lon="33.6251264">
<ele>18.02</ele>
<time>2015-05-01T15:39:40Z</time>
</trkpt>
<trkpt lat="34.9163965" lon="33.6251820">
<ele>18.02</ele>
<time>2015-05-01T15:39:41Z</time>
</trkpt>
<trkpt lat="34.9163611" lon="33.6252676">
<ele>17.77</ele>
<time>2015-05-01T15:39:43Z</time>
</trkpt>
<trkpt lat="34.9163265" lon="33.6253094">
<ele>17.89</ele>
<time>2015-05-01T15:39:44Z</time>
</trkpt>
<trkpt lat="34.9162832" lon="33.6253415">
<ele>17.45</ele>
<time>2015-05-01T15:39:45Z</time>
</trkpt>
<trkpt lat="34.9162362" lon="33.6253739">
<ele>17.23</ele>
<time>2015-05-01T15:39:46Z</time>
</trkpt>
<trkpt lat="34.9161882" lon="33.6254012">
<ele>17.13</ele>
<time>2015-05-01T15:39:47Z</time>
</trkpt>
<trkpt lat="34.9161412" lon="33.6254515">
<ele>17.07</ele>
<time>2015-05-01T15:39:48Z</time>
</trkpt>
<trkpt lat="34.9161086" lon="33.6255109">
<ele>17.04</ele>
<time>2015-05-01T15:39:49Z</time>
</trkpt>
<trkpt lat="34.9160821" lon="33.6255807">
<ele>17.03</ele>
<time>2015-05-01T15:39:50Z</time>
</trkpt>
<trkpt lat="34.9160505" lon="33.6256501">
<ele>17.02</ele>
<time>2015-05-01T15:39:51Z</time>
</trkpt>
<trkpt lat="34.9160225" lon="33.6257184">
<ele>17.02</ele>
<time>2015-05-01T15:39:52Z</time>
</trkpt>
<trkpt lat="34.9159916" lon="33.6257850">
<ele>17.52</ele>
<time>2015-05-01T15:39:53Z</time>
</trkpt>
<trkpt lat="34.9159637" lon="33.6258530">
<ele>17.27</ele>
<time>2015-05-01T15:39:54Z</time>
</trkpt>
<trkpt lat="34.9159312" lon="33.6259237">
<ele>17.14</ele>
<time>2015-05-01T15:39:55Z</time>
</trkpt>
<trkpt lat="34.9158989" lon="33.6259955">
<ele>17.08</ele>
<time>2015-05-01T15:39:56Z</time>
</trkpt>
<trkpt lat="34.9158665" lon="33.6260670">
<ele>17.05</ele>
<time>2015-05-01T15:39:57Z</time>
</trkpt>
<trkpt lat="34.9158370" lon="33.6261416">
<ele>17.03</ele>
<time>2015-05-01T15:39:58Z</time>
</trkpt>
<trkpt lat="34.9158056" lon="33.6262123">
<ele>17.02</ele>
<time>2015-05-01T15:39:59Z</time>
</trkpt>
<trkpt lat="34.9157752" lon="33.6262864">
<ele>17.02</ele>
<time>2015-05-01T15:40:00Z</time>
</trkpt>
<trkpt lat="34.9157394" lon="33.6263582">
<ele>17.52</ele>
<time>2015-05-01T15:40:01Z</time>
</trkpt>
<trkpt lat="34.9157126" lon="33.6264312">
<ele>17.77</ele>
<time>2015-05-01T15:40:02Z</time>
</trkpt>
<trkpt lat="34.9156848" lon="33.6265046">
<ele>17.39</ele>
<time>2015-05-01T15:40:03Z</time>
</trkpt>
<trkpt lat="34.9156570" lon="33.6265714">
<ele>17.70</ele>
<time>2015-05-01T15:40:04Z</time>
</trkpt>
<trkpt lat="34.9156302" lon="33.6266369">
<ele>17.36</ele>
<time>2015-05-01T15:40:05Z</time>
</trkpt>
<trkpt lat="34.9155988" lon="33.6266987">
<ele>17.69</ele>
<time>2015-05-01T15:40:06Z</time>
</trkpt>
<trkpt lat="34.9155806" lon="33.6267610">
<ele>17.35</ele>
<time>2015-05-01T15:40:07Z</time>
</trkpt>
<trkpt lat="34.9155556" lon="33.6268252">
<ele>17.18</ele>
<time>2015-05-01T15:40:08Z</time>
</trkpt>
<trkpt lat="34.9155329" lon="33.6268859">
<ele>17.10</ele>
<time>2015-05-01T15:40:09Z</time>
</trkpt>
<trkpt lat="34.9155118" lon="33.6269419">
<ele>17.06</ele>
<time>2015-05-01T15:40:10Z</time>
</trkpt>
<trkpt lat="34.9154886" lon="33.6270073">
<ele>17.04</ele>
<time>2015-05-01T15:40:11Z</time>
</trkpt>
<trkpt lat="34.9154691" lon="33.6270741">
<ele>17.03</ele>
<time>2015-05-01T15:40:12Z</time>
</trkpt>
<trkpt lat="34.9154660" lon="33.6271368">
<ele>16.52</ele>
<time>2015-05-01T15:40:13Z</time>
</trkpt>
<trkpt lat="34.9154673" lon="33.6272488">
<ele>16.39</ele>
<time>2015-05-01T15:40:15Z</time>
</trkpt>
<trkpt lat="34.9154444" lon="33.6272993">
<ele>16.20</ele>
<time>2015-05-01T15:40:16Z</time>
</trkpt>
<trkpt lat="34.9154302" lon="33.6273572">
<ele>15.61</ele>
<time>2015-05-01T15:40:17Z</time>
</trkpt>
<trkpt lat="34.9154054" lon="33.6274125">
<ele>15.81</ele>
<time>2015-05-01T15:40:18Z</time>
</trkpt>
<trkpt lat="34.9153881" lon="33.6274672">
<ele>15.91</ele>
<time>2015-05-01T15:40:19Z</time>
</trkpt>
<trkpt lat="34.9153758" lon="33.6275324">
<ele>15.97</ele>
<time>2015-05-01T15:40:20Z</time>
</trkpt>
<trkpt lat="34.9153526" lon="33.6275879">
<ele>15.99</ele>
<time>2015-05-01T15:40:21Z</time>
</trkpt>
<trkpt lat="34.9153351" lon="33.6276517">
<ele>16.00</ele>
<time>2015-05-01T15:40:22Z</time>
</trkpt>
<trkpt lat="34.9153019" lon="33.6276997">
<ele>16.51</ele>
<time>2015-05-01T15:40:23Z</time>
</trkpt>
<trkpt lat="34.9152840" lon="33.6277712">
<ele>16.76</ele>
<time>2015-05-01T15:40:24Z</time>
</trkpt>
<trkpt lat="34.9152654" lon="33.6278428">
<ele>16.39</ele>
<time>2015-05-01T15:40:25Z</time>
</trkpt>
<trkpt lat="34.9152493" lon="33.6279167">
<ele>16.20</ele>
<time>2015-05-01T15:40:26Z</time>
</trkpt>
<trkpt lat="34.9152193" lon="33.6279960">
<ele>15.61</ele>
<time>2015-05-01T15:40:27Z</time>
</trkpt>
<trkpt lat="34.9151962" lon="33.6280726">
<ele>15.31</ele>
<time>2015-05-01T15:40:28Z</time>
</trkpt>
<trkpt lat="34.9151672" lon="33.6281388">
<ele>16.16</ele>
<time>2015-05-01T15:40:29Z</time>
</trkpt>
<trkpt lat="34.9151359" lon="33.6282090">
<ele>16.09</ele>
<time>2015-05-01T15:40:30Z</time>
</trkpt>
<trkpt lat="34.9151119" lon="33.6282854">
<ele>16.05</ele>
<time>2015-05-01T15:40:31Z</time>
</trkpt>
<trkpt lat="34.9150809" lon="33.6283599">
<ele>16.53</ele>
<time>2015-05-01T15:40:32Z</time>
</trkpt>
<trkpt lat="34.9150683" lon="33.6284330">
<ele>15.78</ele>
<time>2015-05-01T15:40:33Z</time>
</trkpt>
<trkpt lat="34.9150328" lon="33.6285014">
<ele>15.90</ele>
<time>2015-05-01T15:40:34Z</time>
</trkpt>
<trkpt lat="34.9149984" lon="33.6285681">
<ele>16.46</ele>
<time>2015-05-01T15:40:35Z</time>
</trkpt>
<trkpt lat="34.9149654" lon="33.6286416">
<ele>16.74</ele>
<time>2015-05-01T15:40:36Z</time>
</trkpt>
<trkpt lat="34.9149335" lon="33.6287152">
<ele>16.88</ele>
<time>2015-05-01T15:40:37Z</time>
</trkpt>
<trkpt lat="34.9149032" lon="33.6287910">
<ele>16.95</ele>
<time>2015-05-01T15:40:38Z</time>
</trkpt>
<trkpt lat="34.9148662" lon="33.6288620">
<ele>17.48</ele>
<time>2015-05-01T15:40:39Z</time>
</trkpt>
<trkpt lat="34.9148363" lon="33.6289346">
<ele>17.25</ele>
<time>2015-05-01T15:40:40Z</time>
</trkpt>
<trkpt lat="34.9148008" lon="33.6290024">
<ele>16.63</ele>
<time>2015-05-01T15:40:41Z</time>
</trkpt>
<trkpt lat="34.9147673" lon="33.6290785">
<ele>16.82</ele>
<time>2015-05-01T15:40:42Z</time>
</trkpt>
<trkpt lat="34.9147277" lon="33.6291570">
<ele>16.42</ele>
<time>2015-05-01T15:40:43Z</time>
</trkpt>
<trkpt lat="34.9147052" lon="33.6292342">
<ele>15.72</ele>
<time>2015-05-01T15:40:44Z</time>
</trkpt>
<trkpt lat="34.9146572" lon="33.6293156">
<ele>15.37</ele>
<time>2015-05-01T15:40:45Z</time>
</trkpt>
<trkpt lat="34.9146364" lon="33.6293962">
<ele>15.69</ele>
<time>2015-05-01T15:40:46Z</time>
</trkpt>
<trkpt lat="34.9146080" lon="33.6294679">
<ele>16.35</ele>
<time>2015-05-01T15:40:47Z</time>
</trkpt>
<trkpt lat="34.9145730" lon="33.6295515">
<ele>16.18</ele>
<time>2015-05-01T15:40:48Z</time>
</trkpt>
<trkpt lat="34.9145386" lon="33.6296255">
<ele>16.60</ele>
<time>2015-05-01T15:40:49Z</time>
</trkpt>
<trkpt lat="34.9145142" lon="33.6296783">
<ele>16.31</ele>
<time>2015-05-01T15:40:50Z</time>
</trkpt>
<trkpt lat="34.9145000" lon="33.6297319">
<ele>16.16</ele>
<time>2015-05-01T15:40:51Z</time>
</trkpt>
<trkpt lat="34.9144780" lon="33.6297861">
<ele>16.09</ele>
<time>2015-05-01T15:40:52Z</time>
</trkpt>
<trkpt lat="34.9144515" lon="33.6298793">
<ele>15.03</ele>
<time>2015-05-01T15:40:54Z</time>
</trkpt>
<trkpt lat="34.9144468" lon="33.6299395">
<ele>15.03</ele>
<time>2015-05-01T15:40:55Z</time>
</trkpt>
<trkpt lat="34.9144308" lon="33.6300064">
<ele>14.52</ele>
<time>2015-05-01T15:40:56Z</time>
</trkpt>
<trkpt lat="34.9144215" lon="33.6300621">
<ele>14.27</ele>
<time>2015-05-01T15:40:57Z</time>
</trkpt>
<trkpt lat="34.9144014" lon="33.6301232">
<ele>14.64</ele>
<time>2015-05-01T15:40:58Z</time>
</trkpt>
<trkpt lat="34.9143901" lon="33.6301913">
<ele>14.33</ele>
<time>2015-05-01T15:40:59Z</time>
</trkpt>
<trkpt lat="34.9143747" lon="33.6302566">
<ele>14.67</ele>
<time>2015-05-01T15:41:00Z</time>
</trkpt>
<trkpt lat="34.9143688" lon="33.6303233">
<ele>14.84</ele>
<time>2015-05-01T15:41:01Z</time>
</trkpt>
<trkpt lat="34.9143676" lon="33.6303810">
<ele>14.93</ele>
<time>2015-05-01T15:41:02Z</time>
</trkpt>
<trkpt lat="34.9143627" lon="33.6305035">
<ele>14.99</ele>
<time>2015-05-01T15:41:04Z</time>
</trkpt>
<trkpt lat="34.9143537" lon="33.6305715">
<ele>14.51</ele>
<time>2015-05-01T15:41:05Z</time>
</trkpt>
<trkpt lat="34.9143394" lon="33.6306699">
<ele>14.14</ele>
<time>2015-05-01T15:41:07Z</time>
</trkpt>
<trkpt lat="34.9143003" lon="33.6307326">
<ele>18.99</ele>
<time>2015-05-01T15:41:20Z</time>
</trkpt>
<trkpt lat="34.9142788" lon="33.6308054">
<ele>17.39</ele>
<time>2015-05-01T15:41:23Z</time>
</trkpt>
<trkpt lat="34.9142551" lon="33.6308775">
<ele>16.61</ele>
<time>2015-05-01T15:41:25Z</time>
</trkpt>
<trkpt lat="34.9142222" lon="33.6309718">
<ele>15.41</ele>
<time>2015-05-01T15:41:27Z</time>
</trkpt>
<trkpt lat="34.9141976" lon="33.6310282">
<ele>15.72</ele>
<time>2015-05-01T15:41:28Z</time>
</trkpt>
<trkpt lat="34.9141591" lon="33.6310959">
<ele>15.37</ele>
<time>2015-05-01T15:41:29Z</time>
</trkpt>
<trkpt lat="34.9141292" lon="33.6311512">
<ele>14.69</ele>
<time>2015-05-01T15:41:30Z</time>
</trkpt>
<trkpt lat="34.9141016" lon="33.6312036">
<ele>14.35</ele>
<time>2015-05-01T15:41:31Z</time>
</trkpt>
<trkpt lat="34.9140599" lon="33.6312602">
<ele>13.68</ele>
<time>2015-05-01T15:41:32Z</time>
</trkpt>
<trkpt lat="34.9140259" lon="33.6313163">
<ele>13.35</ele>
<time>2015-05-01T15:41:33Z</time>
</trkpt>
<trkpt lat="34.9139937" lon="33.6313747">
<ele>13.18</ele>
<time>2015-05-01T15:41:34Z</time>
</trkpt>
<trkpt lat="34.9139545" lon="33.6314241">
<ele>12.60</ele>
<time>2015-05-01T15:41:35Z</time>
</trkpt>
<trkpt lat="34.9139162" lon="33.6314838">
<ele>12.31</ele>
<time>2015-05-01T15:41:36Z</time>
</trkpt>
<trkpt lat="34.9138819" lon="33.6315377">
<ele>11.66</ele>
<time>2015-05-01T15:41:37Z</time>
</trkpt>
<trkpt lat="34.9138505" lon="33.6315877">
<ele>11.34</ele>
<time>2015-05-01T15:41:38Z</time>
</trkpt>
<trkpt lat="34.9137971" lon="33.6316545">
<ele>11.10</ele>
<time>2015-05-01T15:41:40Z</time>
</trkpt>
<trkpt lat="34.9137180" lon="33.6316640">
<ele>10.54</ele>
<time>2015-05-01T15:41:42Z</time>
</trkpt>
<trkpt lat="34.9136400" lon="33.6316680">
<ele>8.90</ele>
<time>2015-05-01T15:41:44Z</time>
</trkpt>
<trkpt lat="34.9135858" lon="33.6316681">
<ele>8.46</ele>
<time>2015-05-01T15:41:45Z</time>
</trkpt>
<trkpt lat="34.9135259" lon="33.6316855">
<ele>8.24</ele>
<time>2015-05-01T15:41:46Z</time>
</trkpt>
<trkpt lat="34.9134828" lon="33.6317018">
<ele>7.63</ele>
<time>2015-05-01T15:41:47Z</time>
</trkpt>
<trkpt lat="34.9134253" lon="33.6317057">
<ele>7.32</ele>
<time>2015-05-01T15:41:48Z</time>
</trkpt>
<trkpt lat="34.9133728" lon="33.6317079">
<ele>6.67</ele>
<time>2015-05-01T15:41:49Z</time>
</trkpt>
<trkpt lat="34.9133175" lon="33.6317232">
<ele>6.84</ele>
<time>2015-05-01T15:41:50Z</time>
</trkpt>
<trkpt lat="34.9132656" lon="33.6317450">
<ele>6.93</ele>
<time>2015-05-01T15:41:51Z</time>
</trkpt>
<trkpt lat="34.9132132" lon="33.6317709">
<ele>7.47</ele>
<time>2015-05-01T15:41:52Z</time>
</trkpt>
<trkpt lat="34.9131560" lon="33.6318117">
<ele>8.24</ele>
<time>2015-05-01T15:41:53Z</time>
</trkpt>
<trkpt lat="34.9131025" lon="33.6318445">
<ele>8.63</ele>
<time>2015-05-01T15:41:54Z</time>
</trkpt>
<trkpt lat="34.9130529" lon="33.6318821">
<ele>9.32</ele>
<time>2015-05-01T15:41:55Z</time>
</trkpt>
<trkpt lat="34.9129907" lon="33.6319203">
<ele>9.67</ele>
<time>2015-05-01T15:41:56Z</time>
</trkpt>
<trkpt lat="34.9129362" lon="33.6319537">
<ele>9.84</ele>
<time>2015-05-01T15:41:57Z</time>
</trkpt>
<trkpt lat="34.9128825" lon="33.6319909">
<ele>9.43</ele>
<time>2015-05-01T15:41:58Z</time>
</trkpt>
<trkpt lat="34.9128340" lon="33.6320246">
<ele>8.72</ele>
<time>2015-05-01T15:41:59Z</time>
</trkpt>
<trkpt lat="34.9127714" lon="33.6320669">
<ele>7.87</ele>
<time>2015-05-01T15:42:00Z</time>
</trkpt>
<trkpt lat="34.9127192" lon="33.6321097">
<ele>6.94</ele>
<time>2015-05-01T15:42:01Z</time>
</trkpt>
<trkpt lat="34.9126730" lon="33.6321499">
<ele>6.48</ele>
<time>2015-05-01T15:42:02Z</time>
</trkpt>
<trkpt lat="34.9126250" lon="33.6321852">
<ele>6.25</ele>
<time>2015-05-01T15:42:03Z</time>
</trkpt>
<trkpt lat="34.9125762" lon="33.6322182">
<ele>6.13</ele>
<time>2015-05-01T15:42:04Z</time>
</trkpt>
<trkpt lat="34.9125280" lon="33.6322501">
<ele>6.07</ele>
<time>2015-05-01T15:42:05Z</time>
</trkpt>
<trkpt lat="34.9124756" lon="33.6322903">
<ele>6.04</ele>
<time>2015-05-01T15:42:06Z</time>
</trkpt>
<trkpt lat="34.9124236" lon="33.6323225">
<ele>6.53</ele>
<time>2015-05-01T15:42:07Z</time>
</trkpt>
<trkpt lat="34.9123739" lon="33.6323507">
<ele>6.77</ele>
<time>2015-05-01T15:42:08Z</time>
</trkpt>
<trkpt lat="34.9123236" lon="33.6323698">
<ele>6.89</ele>
<time>2015-05-01T15:42:09Z</time>
</trkpt>
<trkpt lat="34.9122678" lon="33.6323990">
<ele>6.96</ele>
<time>2015-05-01T15:42:10Z</time>
</trkpt>
<trkpt lat="34.9122192" lon="33.6324297">
<ele>6.99</ele>
<time>2015-05-01T15:42:11Z</time>
</trkpt>
<trkpt lat="34.9121650" lon="33.6324618">
<ele>6.50</ele>
<time>2015-05-01T15:42:12Z</time>
</trkpt>
<trkpt lat="34.9121117" lon="33.6324815">
<ele>6.76</ele>
<time>2015-05-01T15:42:13Z</time>
</trkpt>
<trkpt lat="34.9120652" lon="33.6325123">
<ele>6.89</ele>
<time>2015-05-01T15:42:14Z</time>
</trkpt>
<trkpt lat="34.9120222" lon="33.6325420">
<ele>6.95</ele>
<time>2015-05-01T15:42:15Z</time>
</trkpt>
<trkpt lat="34.9119363" lon="33.6325878">
<ele>7.75</ele>
<time>2015-05-01T15:42:17Z</time>
</trkpt>
<trkpt lat="34.9118923" lon="33.6326067">
<ele>7.38</ele>
<time>2015-05-01T15:42:18Z</time>
</trkpt>
<trkpt lat="34.9118180" lon="33.6326580">
<ele>7.86</ele>
<time>2015-05-01T15:42:20Z</time>
</trkpt>
<trkpt lat="34.9117668" lon="33.6327092">
<ele>6.73</ele>
<time>2015-05-01T15:42:22Z</time>
</trkpt>
<trkpt lat="34.9117510" lon="33.6327664">
<ele>5.69</ele>
<time>2015-05-01T15:42:24Z</time>
</trkpt>
<trkpt lat="34.9117578" lon="33.6328458">
<ele>5.19</ele>
<time>2015-05-01T15:42:26Z</time>
</trkpt>
<trkpt lat="34.9117667" lon="33.6329433">
<ele>5.56</ele>
<time>2015-05-01T15:42:28Z</time>
</trkpt>
<trkpt lat="34.9117738" lon="33.6330623">
<ele>5.40</ele>
<time>2015-05-01T15:42:30Z</time>
</trkpt>
<trkpt lat="34.9117731" lon="33.6331652">
<ele>5.11</ele>
<time>2015-05-01T15:42:32Z</time>
</trkpt>
<trkpt lat="34.9117472" lon="33.6332392">
<ele>5.04</ele>
<time>2015-05-01T15:42:34Z</time>
</trkpt>
<trkpt lat="34.9116887" lon="33.6332896">
<ele>4.77</ele>
<time>2015-05-01T15:42:36Z</time>
</trkpt>
<trkpt lat="34.9116092" lon="33.6332861">
<ele>5.46</ele>
<time>2015-05-01T15:42:38Z</time>
</trkpt>
<trkpt lat="34.9115642" lon="33.6332845">
<ele>5.74</ele>
<time>2015-05-01T15:42:39Z</time>
</trkpt>
<trkpt lat="34.9115162" lon="33.6332702">
<ele>5.38</ele>
<time>2015-05-01T15:42:40Z</time>
</trkpt>
<trkpt lat="34.9114642" lon="33.6332698">
<ele>5.20</ele>
<time>2015-05-01T15:42:41Z</time>
</trkpt>
<trkpt lat="34.9114180" lon="33.6332764">
<ele>5.11</ele>
<time>2015-05-01T15:42:42Z</time>
</trkpt>
<trkpt lat="34.9113314" lon="33.6332694">
<ele>4.54</ele>
<time>2015-05-01T15:42:44Z</time>
</trkpt>
<trkpt lat="34.9112421" lon="33.6332774">
<ele>2.90</ele>
<time>2015-05-01T15:42:46Z</time>
</trkpt>
<trkpt lat="34.9111810" lon="33.6332862">
<ele>1.74</ele>
<time>2015-05-01T15:42:48Z</time>
</trkpt>
<trkpt lat="34.9111294" lon="33.6333033">
<ele>2.73</ele>
<time>2015-05-01T15:42:51Z</time>
</trkpt>
<trkpt lat="34.9110814" lon="33.6333170">
<ele>2.25</ele>
<time>2015-05-01T15:42:55Z</time>
</trkpt>
<trkpt lat="34.9110320" lon="33.6333064">
<ele>1.82</ele>
<time>2015-05-01T15:42:57Z</time>
</trkpt>
<trkpt lat="34.9109843" lon="33.6332574">
<ele>4.97</ele>
<time>2015-05-01T15:42:59Z</time>
</trkpt>
<trkpt lat="34.9109554" lon="33.6331922">
<ele>6.50</ele>
<time>2015-05-01T15:43:01Z</time>
</trkpt>
<trkpt lat="34.9109088" lon="33.6331538">
<ele>7.39</ele>
<time>2015-05-01T15:43:03Z</time>
</trkpt>
<trkpt lat="34.9108552" lon="33.6331513">
<ele>6.86</ele>
<time>2015-05-01T15:43:05Z</time>
</trkpt>
<trkpt lat="34.9108124" lon="33.6331784">
<ele>6.26</ele>
<time>2015-05-01T15:43:10Z</time>
</trkpt>
<trkpt lat="34.9107409" lon="33.6332140">
<ele>5.08</ele>
<time>2015-05-01T15:43:12Z</time>
</trkpt>
<trkpt lat="34.9106966" lon="33.6332363">
<ele>4.05</ele>
<time>2015-05-01T15:43:13Z</time>
</trkpt>
<trkpt lat="34.9106515" lon="33.6332573">
<ele>4.03</ele>
<time>2015-05-01T15:43:14Z</time>
</trkpt>
<trkpt lat="34.9106076" lon="33.6332732">
<ele>4.02</ele>
<time>2015-05-01T15:43:15Z</time>
</trkpt>
<trkpt lat="34.9105620" lon="33.6332880">
<ele>4.02</ele>
<time>2015-05-01T15:43:16Z</time>
</trkpt>
<trkpt lat="34.9104800" lon="33.6333087">
<ele>5.27</ele>
<time>2015-05-01T15:43:18Z</time>
</trkpt>
<trkpt lat="34.9104257" lon="33.6333198">
<ele>5.58</ele>
<time>2015-05-01T15:43:20Z</time>
</trkpt>
<trkpt lat="34.9103788" lon="33.6333439">
<ele>5.91</ele>
<time>2015-05-01T15:43:22Z</time>
</trkpt>
<trkpt lat="34.9103331" lon="33.6333640">
<ele>5.99</ele>
<time>2015-05-01T15:43:24Z</time>
</trkpt>
<trkpt lat="34.9102835" lon="33.6333465">
<ele>6.01</ele>
<time>2015-05-01T15:43:26Z</time>
</trkpt>
<trkpt lat="34.9102254" lon="33.6332800">
<ele>7.26</ele>
<time>2015-05-01T15:43:28Z</time>
</trkpt>
<trkpt lat="34.9101881" lon="33.6332427">
<ele>7.14</ele>
<time>2015-05-01T15:43:29Z</time>
</trkpt>
<trkpt lat="34.9101505" lon="33.6332070">
<ele>7.08</ele>
<time>2015-05-01T15:43:30Z</time>
</trkpt>
<trkpt lat="34.9100995" lon="33.6331651">
<ele>7.55</ele>
<time>2015-05-01T15:43:31Z</time>
</trkpt>
<trkpt lat="34.9100554" lon="33.6331454">
<ele>7.78</ele>
<time>2015-05-01T15:43:32Z</time>
</trkpt>
<trkpt lat="34.9099766" lon="33.6331019">
<ele>7.96</ele>
<time>2015-05-01T15:43:34Z</time>
</trkpt>
<trkpt lat="34.9099016" lon="33.6330575">
<ele>8.75</ele>
<time>2015-05-01T15:43:36Z</time>
</trkpt>
<trkpt lat="34.9098322" lon="33.6330242">
<ele>6.70</ele>
<time>2015-05-01T15:43:38Z</time>
</trkpt>
<trkpt lat="34.9097626" lon="33.6329897">
<ele>6.19</ele>
<time>2015-05-01T15:43:40Z</time>
</trkpt>
<trkpt lat="34.9096845" lon="33.6329662">
<ele>5.56</ele>
<time>2015-05-01T15:43:42Z</time>
</trkpt>
<trkpt lat="34.9096058" lon="33.6329396">
<ele>5.15</ele>
<time>2015-05-01T15:43:44Z</time>
</trkpt>
<trkpt lat="34.9095288" lon="33.6329176">
<ele>5.80</ele>
<time>2015-05-01T15:43:46Z</time>
</trkpt>
<trkpt lat="34.9094493" lon="33.6329222">
<ele>5.96</ele>
<time>2015-05-01T15:43:48Z</time>
</trkpt>
<trkpt lat="34.9093972" lon="33.6329566">
<ele>5.99</ele>
<time>2015-05-01T15:43:49Z</time>
</trkpt>
<trkpt lat="34.9093467" lon="33.6329760">
<ele>6.00</ele>
<time>2015-05-01T15:43:50Z</time>
</trkpt>
<trkpt lat="34.9093011" lon="33.6330015">
<ele>6.51</ele>
<time>2015-05-01T15:43:51Z</time>
</trkpt>
<trkpt lat="34.9092471" lon="33.6330247">
<ele>6.26</ele>
<time>2015-05-01T15:43:52Z</time>
</trkpt>
<trkpt lat="34.9091900" lon="33.6330437">
<ele>6.64</ele>
<time>2015-05-01T15:43:53Z</time>
</trkpt>
<trkpt lat="34.9091422" lon="33.6330699">
<ele>6.83</ele>
<time>2015-05-01T15:43:54Z</time>
</trkpt>
<trkpt lat="34.9090906" lon="33.6330916">
<ele>7.42</ele>
<time>2015-05-01T15:43:55Z</time>
</trkpt>
<trkpt lat="34.9090318" lon="33.6331173">
<ele>7.22</ele>
<time>2015-05-01T15:43:56Z</time>
</trkpt>
<trkpt lat="34.9089749" lon="33.6331384">
<ele>7.62</ele>
<time>2015-05-01T15:43:57Z</time>
</trkpt>
<trkpt lat="34.9089172" lon="33.6331665">
<ele>7.82</ele>
<time>2015-05-01T15:43:58Z</time>
</trkpt>
<trkpt lat="34.9088684" lon="33.6331929">
<ele>7.92</ele>
<time>2015-05-01T15:43:59Z</time>
</trkpt>
<trkpt lat="34.9088210" lon="33.6332210">
<ele>7.97</ele>
<time>2015-05-01T15:44:00Z</time>
</trkpt>
<trkpt lat="34.9087680" lon="33.6332668">
<ele>8.00</ele>
<time>2015-05-01T15:44:02Z</time>
</trkpt>
<trkpt lat="34.9087517" lon="33.6333265">
<ele>6.61</ele>
<time>2015-05-01T15:44:07Z</time>
</trkpt>
<trkpt lat="34.9087267" lon="33.6333856">
<ele>4.37</ele>
<time>2015-05-01T15:44:11Z</time>
</trkpt>
<trkpt lat="34.9087322" lon="33.6334618">
<ele>4.10</ele>
<time>2015-05-01T15:44:13Z</time>
</trkpt>
<trkpt lat="34.9087527" lon="33.6335478">
<ele>5.06</ele>
<time>2015-05-01T15:44:14Z</time>
</trkpt>
<trkpt lat="34.9087646" lon="33.6336036">
<ele>5.04</ele>
<time>2015-05-01T15:44:15Z</time>
</trkpt>
<trkpt lat="34.9087779" lon="33.6336643">
<ele>4.03</ele>
<time>2015-05-01T15:44:16Z</time>
</trkpt>
<trkpt lat="34.9087833" lon="33.6337207">
<ele>3.52</ele>
<time>2015-05-01T15:44:17Z</time>
</trkpt>
<trkpt lat="34.9087853" lon="33.6338227">
<ele>5.14</ele>
<time>2015-05-01T15:44:19Z</time>
</trkpt>
<trkpt lat="34.9087948" lon="33.6338849">
<ele>5.58</ele>
<time>2015-05-01T15:44:20Z</time>
</trkpt>
<trkpt lat="34.9088182" lon="33.6339452">
<ele>5.80</ele>
<time>2015-05-01T15:44:21Z</time>
</trkpt>
<trkpt lat="34.9088422" lon="33.6340042">
<ele>5.91</ele>
<time>2015-05-01T15:44:22Z</time>
</trkpt>
<trkpt lat="34.9088678" lon="33.6340669">
<ele>5.96</ele>
<time>2015-05-01T15:44:23Z</time>
</trkpt>
<trkpt lat="34.9088995" lon="33.6341395">
<ele>5.49</ele>
<time>2015-05-01T15:44:24Z</time>
</trkpt>
<trkpt lat="34.9089249" lon="33.6342104">
<ele>5.75</ele>
<time>2015-05-01T15:44:25Z</time>
</trkpt>
<trkpt lat="34.9089475" lon="33.6342730">
<ele>5.88</ele>
<time>2015-05-01T15:44:26Z</time>
</trkpt>
<trkpt lat="34.9089781" lon="33.6343343">
<ele>5.95</ele>
<time>2015-05-01T15:44:27Z</time>
</trkpt>
<trkpt lat="34.9090028" lon="33.6344000">
<ele>5.98</ele>
<time>2015-05-01T15:44:28Z</time>
</trkpt>
<trkpt lat="34.9090270" lon="33.6344613">
<ele>6.00</ele>
<time>2015-05-01T15:44:29Z</time>
</trkpt>
<trkpt lat="34.9090451" lon="33.6345216">
<ele>6.01</ele>
<time>2015-05-01T15:44:30Z</time>
</trkpt>
<trkpt lat="34.9090692" lon="33.6345788">
<ele>6.51</ele>
<time>2015-05-01T15:44:31Z</time>
</trkpt>
<trkpt lat="34.9090959" lon="33.6346320">
<ele>6.26</ele>
<time>2015-05-01T15:44:32Z</time>
</trkpt>
<trkpt lat="34.9091190" lon="33.6346872">
<ele>6.64</ele>
<time>2015-05-01T15:44:33Z</time>
</trkpt>
<trkpt lat="34.9091474" lon="33.6347432">
<ele>6.83</ele>
<time>2015-05-01T15:44:34Z</time>
</trkpt>
<trkpt lat="34.9091671" lon="33.6348028">
<ele>6.92</ele>
<time>2015-05-01T15:44:35Z</time>
</trkpt>
<trkpt lat="34.9091913" lon="33.6348721">
<ele>6.97</ele>
<time>2015-05-01T15:44:36Z</time>
</trkpt>
<trkpt lat="34.9092163" lon="33.6349369">
<ele>6.99</ele>
<time>2015-05-01T15:44:37Z</time>
</trkpt>
<trkpt lat="34.9092394" lon="33.6350035">
<ele>7.00</ele>
<time>2015-05-01T15:44:38Z</time>
</trkpt>
<trkpt lat="34.9092589" lon="33.6350693">
<ele>6.51</ele>
<time>2015-05-01T15:44:39Z</time>
</trkpt>
<trkpt lat="34.9092827" lon="33.6351399">
<ele>6.26</ele>
<time>2015-05-01T15:44:40Z</time>
</trkpt>
<trkpt lat="34.9093086" lon="33.6352039">
<ele>6.14</ele>
<time>2015-05-01T15:44:41Z</time>
</trkpt>
<trkpt lat="34.9093263" lon="33.6352763">
<ele>6.08</ele>
<time>2015-05-01T15:44:42Z</time>
</trkpt>
<trkpt lat="34.9093504" lon="33.6353417">
<ele>6.05</ele>
<time>2015-05-01T15:44:43Z</time>
</trkpt>
<trkpt lat="34.9093688" lon="33.6354120">
<ele>6.03</ele>
<time>2015-05-01T15:44:44Z</time>
</trkpt>
<trkpt lat="34.9093866" lon="33.6354741">
<ele>6.02</ele>
<time>2015-05-01T15:44:45Z</time>
</trkpt>
<trkpt lat="34.9094002" lon="33.6355387">
<ele>6.52</ele>
<time>2015-05-01T15:44:46Z</time>
</trkpt>
<trkpt lat="34.9094128" lon="33.6355975">
<ele>6.77</ele>
<time>2015-05-01T15:44:47Z</time>
</trkpt>
<trkpt lat="34.9094282" lon="33.6356512">
<ele>6.89</ele>
<time>2015-05-01T15:44:48Z</time>
</trkpt>
<trkpt lat="34.9094461" lon="33.6357242">
<ele>6.98</ele>
<time>2015-05-01T15:44:50Z</time>
</trkpt>
<trkpt lat="34.9094562" lon="33.6357834">
<ele>5.26</ele>
<time>2015-05-01T15:45:02Z</time>
</trkpt>
<trkpt lat="34.9094440" lon="33.6358579">
<ele>6.41</ele>
<time>2015-05-01T15:45:06Z</time>
</trkpt>
<trkpt lat="34.9094680" lon="33.6359604">
<ele>6.86</ele>
<time>2015-05-01T15:45:08Z</time>
</trkpt>
<trkpt lat="34.9094938" lon="33.6360608">
<ele>6.98</ele>
<time>2015-05-01T15:45:10Z</time>
</trkpt>
<trkpt lat="34.9095118" lon="33.6361614">
<ele>7.51</ele>
<time>2015-05-01T15:45:12Z</time>
</trkpt>
<trkpt lat="34.9095289" lon="33.6362702">
<ele>7.39</ele>
<time>2015-05-01T15:45:14Z</time>
</trkpt>
<trkpt lat="34.9095387" lon="33.6363239">
<ele>7.70</ele>
<time>2015-05-01T15:45:15Z</time>
</trkpt>
<trkpt lat="34.9095496" lon="33.6363780">
<ele>7.86</ele>
<time>2015-05-01T15:45:16Z</time>
</trkpt>
<trkpt lat="34.9095736" lon="33.6364684">
<ele>8.73</ele>
<time>2015-05-01T15:45:18Z</time>
</trkpt>
<trkpt lat="34.9096005" lon="33.6365498">
<ele>8.44</ele>
<time>2015-05-01T15:45:20Z</time>
</trkpt>
<trkpt lat="34.9096114" lon="33.6366401">
<ele>7.37</ele>
<time>2015-05-01T15:45:22Z</time>
</trkpt>
<trkpt lat="34.9095969" lon="33.6367433">
<ele>7.11</ele>
<time>2015-05-01T15:45:24Z</time>
</trkpt>
<trkpt lat="34.9095835" lon="33.6367980">
<ele>6.56</ele>
<time>2015-05-01T15:45:25Z</time>
</trkpt>
<trkpt lat="34.9095596" lon="33.6368648">
<ele>6.29</ele>
<time>2015-05-01T15:45:26Z</time>
</trkpt>
<trkpt lat="34.9095444" lon="33.6369183">
<ele>5.15</ele>
<time>2015-05-01T15:45:27Z</time>
</trkpt>
<trkpt lat="34.9095314" lon="33.6369739">
<ele>4.58</ele>
<time>2015-05-01T15:45:28Z</time>
</trkpt>
<trkpt lat="34.9095137" lon="33.6370268">
<ele>4.80</ele>
<time>2015-05-01T15:45:29Z</time>
</trkpt>
<trkpt lat="34.9095054" lon="33.6370842">
<ele>4.91</ele>
<time>2015-05-01T15:45:30Z</time>
</trkpt>
<trkpt lat="34.9094842" lon="33.6371521">
<ele>4.99</ele>
<time>2015-05-01T15:45:32Z</time>
</trkpt>
<trkpt lat="34.9094242" lon="33.6371824">
<ele>5.01</ele>
<time>2015-05-01T15:45:36Z</time>
</trkpt>
<trkpt lat="34.9093592" lon="33.6371587">
<ele>3.64</ele>
<time>2015-05-01T15:45:39Z</time>
</trkpt>
<trkpt lat="34.9093028" lon="33.6371371">
<ele>3.17</ele>
<time>2015-05-01T15:45:41Z</time>
</trkpt>
<trkpt lat="34.9092309" lon="33.6371162">
<ele>2.56</ele>
<time>2015-05-01T15:45:43Z</time>
</trkpt>
<trkpt lat="34.9091659" lon="33.6371048">
<ele>2.15</ele>
<time>2015-05-01T15:45:45Z</time>
</trkpt>
<trkpt lat="34.9091418" lon="33.6371523">
<ele>1.55</ele>
<time>2015-05-01T15:45:47Z</time>
</trkpt>
<trkpt lat="34.9091478" lon="33.6372305">
<ele>1.15</ele>
<time>2015-05-01T15:45:49Z</time>
</trkpt>
<trkpt lat="34.9091517" lon="33.6373280">
<ele>0.80</ele>
<time>2015-05-01T15:45:51Z</time>
</trkpt>
<trkpt lat="34.9091567" lon="33.6374336">
<ele>1.96</ele>
<time>2015-05-01T15:45:53Z</time>
</trkpt>
<trkpt lat="34.9091638" lon="33.6375309">
<ele>2.50</ele>
<time>2015-05-01T15:45:55Z</time>
</trkpt>
<trkpt lat="34.9091779" lon="33.6376266">
<ele>3.39</ele>
<time>2015-05-01T15:45:57Z</time>
</trkpt>
<trkpt lat="34.9091843" lon="33.6377083">
<ele>3.86</ele>
<time>2015-05-01T15:45:59Z</time>
</trkpt>
<trkpt lat="34.9091722" lon="33.6377694">
<ele>10.52</ele>
<time>2015-05-01T15:46:37Z</time>
</trkpt>
<trkpt lat="34.9091581" lon="33.6378234">
<ele>10.83</ele>
<time>2015-05-01T15:46:40Z</time>
</trkpt>
<trkpt lat="34.9091153" lon="33.6378587">
<ele>10.25</ele>
<time>2015-05-01T15:46:44Z</time>
</trkpt>
<trkpt lat="34.9090654" lon="33.6378422">
<ele>13.02</ele>
<time>2015-05-01T15:48:04Z</time>
</trkpt>
<trkpt lat="34.9090041" lon="33.6378369">
<ele>12.27</ele>
<time>2015-05-01T15:48:07Z</time>
</trkpt>
<trkpt lat="34.9089432" lon="33.6378330">
<ele>12.80</ele>
<time>2015-05-01T15:48:10Z</time>
</trkpt>
<trkpt lat="34.9088799" lon="33.6378298">
<ele>12.61</ele>
<time>2015-05-01T15:48:13Z</time>
</trkpt>
<trkpt lat="34.9088160" lon="33.6378263">
<ele>12.09</ele>
<time>2015-05-01T15:48:16Z</time>
</trkpt>
<trkpt lat="34.9087562" lon="33.6378267">
<ele>12.03</ele>
<time>2015-05-01T15:48:19Z</time>
</trkpt>
<trkpt lat="34.9086966" lon="33.6378294">
<ele>12.02</ele>
<time>2015-05-01T15:48:22Z</time>
</trkpt>
<trkpt lat="34.9086402" lon="33.6378223">
<ele>12.14</ele>
<time>2015-05-01T15:48:25Z</time>
</trkpt>
<trkpt lat="34.9085856" lon="33.6378060">
<ele>12.03</ele>
<time>2015-05-01T15:48:28Z</time>
</trkpt>
<trkpt lat="34.9085364" lon="33.6378006">
<ele>11.27</ele>
<time>2015-05-01T15:48:31Z</time>
</trkpt>
<trkpt lat="34.9084782" lon="33.6378065">
<ele>11.97</ele>
<time>2015-05-01T15:48:35Z</time>
</trkpt>
<trkpt lat="34.9084221" lon="33.6378004">
<ele>11.26</ele>
<time>2015-05-01T15:48:39Z</time>
</trkpt>
<trkpt lat="34.9083694" lon="33.6377946">
<ele>10.17</ele>
<time>2015-05-01T15:48:42Z</time>
</trkpt>
<trkpt lat="34.9083050" lon="33.6377934">
<ele>9.16</ele>
<time>2015-05-01T15:48:45Z</time>
</trkpt>
<trkpt lat="34.9082538" lon="33.6377916">
<ele>9.05</ele>
<time>2015-05-01T15:48:47Z</time>
</trkpt>
<trkpt lat="34.9082010" lon="33.6377918">
<ele>8.53</ele>
<time>2015-05-01T15:48:49Z</time>
</trkpt>
<trkpt lat="34.9081385" lon="33.6377940">
<ele>8.89</ele>
<time>2015-05-01T15:48:51Z</time>
</trkpt>
<trkpt lat="34.9080701" lon="33.6377965">
<ele>8.99</ele>
<time>2015-05-01T15:48:53Z</time>
</trkpt>
<trkpt lat="34.9080063" lon="33.6377950">
<ele>9.01</ele>
<time>2015-05-01T15:48:55Z</time>
</trkpt>
<trkpt lat="34.9079456" lon="33.6378080">
<ele>9.26</ele>
<time>2015-05-01T15:48:57Z</time>
</trkpt>
<trkpt lat="34.9078856" lon="33.6378194">
<ele>9.08</ele>
<time>2015-05-01T15:48:59Z</time>
</trkpt>
<trkpt lat="34.9078250" lon="33.6378215">
<ele>9.03</ele>
<time>2015-05-01T15:49:01Z</time>
</trkpt>
<trkpt lat="34.9077717" lon="33.6378300">
<ele>8.77</ele>
<time>2015-05-01T15:49:03Z</time>
</trkpt>
<trkpt lat="34.9077204" lon="33.6378363">
<ele>8.95</ele>
<time>2015-05-01T15:49:05Z</time>
</trkpt>
<trkpt lat="34.9076550" lon="33.6378308">
<ele>9.01</ele>
<time>2015-05-01T15:49:08Z</time>
</trkpt>
<trkpt lat="34.9075990" lon="33.6378266">
<ele>9.02</ele>
<time>2015-05-01T15:49:12Z</time>
</trkpt>
<trkpt lat="34.9075441" lon="33.6378313">
<ele>9.95</ele>
<time>2015-05-01T15:49:16Z</time>
</trkpt>
<trkpt lat="34.9074891" lon="33.6378355">
<ele>10.89</ele>
<time>2015-05-01T15:49:20Z</time>
</trkpt>
<trkpt lat="34.9074298" lon="33.6378438">
<ele>11.01</ele>
<time>2015-05-01T15:49:24Z</time>
</trkpt>
<trkpt lat="34.9073782" lon="33.6378418">
<ele>11.89</ele>
<time>2015-05-01T15:49:27Z</time>
</trkpt>
<trkpt lat="34.9073194" lon="33.6378284">
<ele>12.00</ele>
<time>2015-05-01T15:49:30Z</time>
</trkpt>
<trkpt lat="34.9072570" lon="33.6378234">
<ele>11.14</ele>
<time>2015-05-01T15:49:33Z</time>
</trkpt>
<trkpt lat="34.9072110" lon="33.6378180">
<ele>11.80</ele>
<time>2015-05-01T15:49:35Z</time>
</trkpt>
<trkpt lat="34.9071607" lon="33.6378159">
<ele>11.96</ele>
<time>2015-05-01T15:49:37Z</time>
</trkpt>
<trkpt lat="34.9071132" lon="33.6378170">
<ele>12.50</ele>
<time>2015-05-01T15:49:39Z</time>
</trkpt>
<trkpt lat="34.9070627" lon="33.6378142">
<ele>13.39</ele>
<time>2015-05-01T15:49:41Z</time>
</trkpt>
<trkpt lat="34.9070129" lon="33.6378135">
<ele>13.86</ele>
<time>2015-05-01T15:49:43Z</time>
</trkpt>
<trkpt lat="34.9069622" lon="33.6378146">
<ele>14.48</ele>
<time>2015-05-01T15:49:45Z</time>
</trkpt>
<trkpt lat="34.9069116" lon="33.6378160">
<ele>14.38</ele>
<time>2015-05-01T15:49:47Z</time>
</trkpt>
<trkpt lat="34.9068596" lon="33.6378186">
<ele>14.86</ele>
<time>2015-05-01T15:49:49Z</time>
</trkpt>
<trkpt lat="34.9068074" lon="33.6378209">
<ele>14.23</ele>
<time>2015-05-01T15:49:51Z</time>
</trkpt>
<trkpt lat="34.9067530" lon="33.6378231">
<ele>14.07</ele>
<time>2015-05-01T15:49:53Z</time>
</trkpt>
<trkpt lat="34.9066955" lon="33.6378230">
<ele>14.03</ele>
<time>2015-05-01T15:49:55Z</time>
</trkpt>
<trkpt lat="34.9066409" lon="33.6378265">
<ele>14.02</ele>
<time>2015-05-01T15:49:57Z</time>
</trkpt>
<trkpt lat="34.9065898" lon="33.6378286">
<ele>14.02</ele>
<time>2015-05-01T15:49:59Z</time>
</trkpt>
<trkpt lat="34.9065366" lon="33.6378298">
<ele>13.52</ele>
<time>2015-05-01T15:50:01Z</time>
</trkpt>
<trkpt lat="34.9064841" lon="33.6378353">
<ele>13.64</ele>
<time>2015-05-01T15:50:03Z</time>
</trkpt>
<trkpt lat="34.9064291" lon="33.6378426">
<ele>12.67</ele>
<time>2015-05-01T15:50:05Z</time>
</trkpt>
<trkpt lat="34.9063750" lon="33.6378446">
<ele>11.68</ele>
<time>2015-05-01T15:50:07Z</time>
</trkpt>
<trkpt lat="34.9063189" lon="33.6378420">
<ele>11.68</ele>
<time>2015-05-01T15:50:09Z</time>
</trkpt>
<trkpt lat="34.9062637" lon="33.6378410">
<ele>11.68</ele>
<time>2015-05-01T15:50:11Z</time>
</trkpt>
<trkpt lat="34.9062072" lon="33.6378410">
<ele>11.18</ele>
<time>2015-05-01T15:50:13Z</time>
</trkpt>
<trkpt lat="34.9061579" lon="33.6378412">
<ele>11.81</ele>
<time>2015-05-01T15:50:15Z</time>
</trkpt>
<trkpt lat="34.9061103" lon="33.6378435">
<ele>11.96</ele>
<time>2015-05-01T15:50:17Z</time>
</trkpt>
<trkpt lat="34.9060467" lon="33.6378437">
<ele>11.88</ele>
<time>2015-05-01T15:50:20Z</time>
</trkpt>
<trkpt lat="34.9059862" lon="33.6378444">
<ele>11.25</ele>
<time>2015-05-01T15:50:23Z</time>
</trkpt>
<trkpt lat="34.9059401" lon="33.6378424">
<ele>10.82</ele>
<time>2015-05-01T15:50:25Z</time>
</trkpt>
<trkpt lat="34.9058924" lon="33.6378388">
<ele>10.97</ele>
<time>2015-05-01T15:50:27Z</time>
</trkpt>
<trkpt lat="34.9058415" lon="33.6378332">
<ele>11.00</ele>
<time>2015-05-01T15:50:29Z</time>
</trkpt>
<trkpt lat="34.9057892" lon="33.6378312">
<ele>11.01</ele>
<time>2015-05-01T15:50:31Z</time>
</trkpt>
<trkpt lat="34.9057341" lon="33.6378347">
<ele>11.02</ele>
<time>2015-05-01T15:50:33Z</time>
</trkpt>
<trkpt lat="34.9056806" lon="33.6378421">
<ele>10.52</ele>
<time>2015-05-01T15:50:35Z</time>
</trkpt>
<trkpt lat="34.9056279" lon="33.6378488">
<ele>10.14</ele>
<time>2015-05-01T15:50:37Z</time>
</trkpt>
<trkpt lat="34.9055787" lon="33.6378570">
<ele>10.55</ele>
<time>2015-05-01T15:50:39Z</time>
</trkpt>
<trkpt lat="34.9055279" lon="33.6378629">
<ele>10.65</ele>
<time>2015-05-01T15:50:41Z</time>
</trkpt>
<trkpt lat="34.9054777" lon="33.6378702">
<ele>10.92</ele>
<time>2015-05-01T15:50:43Z</time>
</trkpt>
<trkpt lat="34.9054238" lon="33.6378775">
<ele>10.74</ele>
<time>2015-05-01T15:50:45Z</time>
</trkpt>
<trkpt lat="34.9053739" lon="33.6378816">
<ele>10.70</ele>
<time>2015-05-01T15:50:47Z</time>
</trkpt>
<trkpt lat="34.9053210" lon="33.6378816">
<ele>9.69</ele>
<time>2015-05-01T15:50:49Z</time>
</trkpt>
<trkpt lat="34.9052674" lon="33.6378768">
<ele>9.18</ele>
<time>2015-05-01T15:50:51Z</time>
</trkpt>
<trkpt lat="34.9052146" lon="33.6378733">
<ele>9.06</ele>
<time>2015-05-01T15:50:53Z</time>
</trkpt>
<trkpt lat="34.9051672" lon="33.6378732">
<ele>9.03</ele>
<time>2015-05-01T15:50:55Z</time>
</trkpt>
<trkpt lat="34.9051211" lon="33.6378722">
<ele>9.52</ele>
<time>2015-05-01T15:50:57Z</time>
</trkpt>
<trkpt lat="34.9050556" lon="33.6378743">
<ele>9.08</ele>
<time>2015-05-01T15:51:00Z</time>
</trkpt>
<trkpt lat="34.9049895" lon="33.6378816">
<ele>9.02</ele>
<time>2015-05-01T15:51:03Z</time>
</trkpt>
<trkpt lat="34.9049420" lon="33.6378784">
<ele>9.52</ele>
<time>2015-05-01T15:51:05Z</time>
</trkpt>
<trkpt lat="34.9048964" lon="33.6378770">
<ele>9.14</ele>
<time>2015-05-01T15:51:07Z</time>
</trkpt>
<trkpt lat="34.9048442" lon="33.6378748">
<ele>9.55</ele>
<time>2015-05-01T15:51:09Z</time>
</trkpt>
<trkpt lat="34.9047901" lon="33.6378676">
<ele>11.15</ele>
<time>2015-05-01T15:51:11Z</time>
</trkpt>
<trkpt lat="34.9047332" lon="33.6378554">
<ele>12.30</ele>
<time>2015-05-01T15:51:13Z</time>
</trkpt>
<trkpt lat="34.9046787" lon="33.6378424">
<ele>12.84</ele>
<time>2015-05-01T15:51:15Z</time>
</trkpt>
<trkpt lat="34.9046264" lon="33.6378259">
<ele>12.47</ele>
<time>2015-05-01T15:51:17Z</time>
</trkpt>
<trkpt lat="34.9045776" lon="33.6378141">
<ele>12.13</ele>
<time>2015-05-01T15:51:19Z</time>
</trkpt>
<trkpt lat="34.9045261" lon="33.6378030">
<ele>12.54</ele>
<time>2015-05-01T15:51:21Z</time>
</trkpt>
<trkpt lat="34.9044744" lon="33.6377950">
<ele>12.90</ele>
<time>2015-05-01T15:51:23Z</time>
</trkpt>
<trkpt lat="34.9044182" lon="33.6377857">
<ele>14.24</ele>
<time>2015-05-01T15:51:25Z</time>
</trkpt>
<trkpt lat="34.9043623" lon="33.6377729">
<ele>14.82</ele>
<time>2015-05-01T15:51:27Z</time>
</trkpt>
<trkpt lat="34.9043048" lon="33.6377656">
<ele>14.97</ele>
<time>2015-05-01T15:51:29Z</time>
</trkpt>
<trkpt lat="34.9042482" lon="33.6377611">
<ele>15.75</ele>
<time>2015-05-01T15:51:31Z</time>
</trkpt>
<trkpt lat="34.9041900" lon="33.6377562">
<ele>16.70</ele>
<time>2015-05-01T15:51:33Z</time>
</trkpt>
<trkpt lat="34.9041333" lon="33.6377542">
<ele>17.69</ele>
<time>2015-05-01T15:51:35Z</time>
</trkpt>
<trkpt lat="34.9040730" lon="33.6377520">
<ele>17.18</ele>
<time>2015-05-01T15:51:37Z</time>
</trkpt>
<trkpt lat="34.9040166" lon="33.6377491">
<ele>16.31</ele>
<time>2015-05-01T15:51:39Z</time>
</trkpt>
<trkpt lat="34.9039589" lon="33.6377490">
<ele>15.59</ele>
<time>2015-05-01T15:51:41Z</time>
</trkpt>
<trkpt lat="34.9039009" lon="33.6377470">
<ele>15.16</ele>
<time>2015-05-01T15:51:43Z</time>
</trkpt>
<trkpt lat="34.9038385" lon="33.6377439">
<ele>14.55</ele>
<time>2015-05-01T15:51:45Z</time>
</trkpt>
<trkpt lat="34.9037735" lon="33.6377458">
<ele>13.65</ele>
<time>2015-05-01T15:51:47Z</time>
</trkpt>
<trkpt lat="34.9036969" lon="33.6377454">
<ele>13.17</ele>
<time>2015-05-01T15:51:49Z</time>
</trkpt>
<trkpt lat="34.9036200" lon="33.6377428">
<ele>12.56</ele>
<time>2015-05-01T15:51:51Z</time>
</trkpt>
<trkpt lat="34.9035439" lon="33.6377424">
<ele>12.40</ele>
<time>2015-05-01T15:51:53Z</time>
</trkpt>
<trkpt lat="34.9034720" lon="33.6377423">
<ele>12.11</ele>
<time>2015-05-01T15:51:55Z</time>
</trkpt>
<trkpt lat="34.9034024" lon="33.6377375">
<ele>13.29</ele>
<time>2015-05-01T15:51:57Z</time>
</trkpt>
<trkpt lat="34.9033362" lon="33.6377352">
<ele>13.33</ele>
<time>2015-05-01T15:51:59Z</time>
</trkpt>
<trkpt lat="34.9032699" lon="33.6377534">
<ele>12.85</ele>
<time>2015-05-01T15:52:01Z</time>
</trkpt>
<trkpt lat="34.9032078" lon="33.6377764">
<ele>12.47</ele>
<time>2015-05-01T15:52:03Z</time>
</trkpt>
<trkpt lat="34.9031417" lon="33.6378008">
<ele>12.13</ele>
<time>2015-05-01T15:52:05Z</time>
</trkpt>
<trkpt lat="34.9030730" lon="33.6378170">
<ele>11.29</ele>
<time>2015-05-01T15:52:07Z</time>
</trkpt>
<trkpt lat="34.9030040" lon="33.6378210">
<ele>11.09</ele>
<time>2015-05-01T15:52:09Z</time>
</trkpt>
<trkpt lat="34.9029398" lon="33.6378194">
<ele>10.28</ele>
<time>2015-05-01T15:52:11Z</time>
</trkpt>
<trkpt lat="34.9028751" lon="33.6378179">
<ele>10.83</ele>
<time>2015-05-01T15:52:13Z</time>
</trkpt>
<trkpt lat="34.9028143" lon="33.6378211">
<ele>10.97</ele>
<time>2015-05-01T15:52:15Z</time>
</trkpt>
<trkpt lat="34.9027587" lon="33.6378230">
<ele>11.00</ele>
<time>2015-05-01T15:52:17Z</time>
</trkpt>
<trkpt lat="34.9027085" lon="33.6378204">
<ele>11.51</ele>
<time>2015-05-01T15:52:19Z</time>
</trkpt>
<trkpt lat="34.9026489" lon="33.6378166">
<ele>11.14</ele>
<time>2015-05-01T15:52:21Z</time>
</trkpt>
<trkpt lat="34.9025837" lon="33.6378289">
<ele>11.55</ele>
<time>2015-05-01T15:52:23Z</time>
</trkpt>
<trkpt lat="34.9025140" lon="33.6378440">
<ele>11.90</ele>
<time>2015-05-01T15:52:25Z</time>
</trkpt>
<trkpt lat="34.9024492" lon="33.6378524">
<ele>11.49</ele>
<time>2015-05-01T15:52:27Z</time>
</trkpt>
<trkpt lat="34.9023807" lon="33.6378600">
<ele>11.13</ele>
<time>2015-05-01T15:52:29Z</time>
</trkpt>
<trkpt lat="34.9023036" lon="33.6378613">
<ele>10.55</ele>
<time>2015-05-01T15:52:31Z</time>
</trkpt>
<trkpt lat="34.9022265" lon="33.6378673">
<ele>10.15</ele>
<time>2015-05-01T15:52:33Z</time>
</trkpt>
<trkpt lat="34.9021487" lon="33.6378759">
<ele>10.80</ele>
<time>2015-05-01T15:52:35Z</time>
</trkpt>
<trkpt lat="34.9020726" lon="33.6378852">
<ele>10.46</ele>
<time>2015-05-01T15:52:37Z</time>
</trkpt>
<trkpt lat="34.9020041" lon="33.6378864">
<ele>9.63</ele>
<time>2015-05-01T15:52:39Z</time>
</trkpt>
<trkpt lat="34.9019380" lon="33.6378942">
<ele>9.92</ele>
<time>2015-05-01T15:52:41Z</time>
</trkpt>
<trkpt lat="34.9018745" lon="33.6378996">
<ele>9.74</ele>
<time>2015-05-01T15:52:43Z</time>
</trkpt>
<trkpt lat="34.9018123" lon="33.6379038">
<ele>10.20</ele>
<time>2015-05-01T15:52:45Z</time>
</trkpt>
<trkpt lat="34.9017577" lon="33.6379103">
<ele>10.06</ele>
<time>2015-05-01T15:52:47Z</time>
</trkpt>
<trkpt lat="34.9016995" lon="33.6379216">
<ele>10.03</ele>
<time>2015-05-01T15:52:49Z</time>
</trkpt>
<trkpt lat="34.9016370" lon="33.6379367">
<ele>10.02</ele>
<time>2015-05-01T15:52:51Z</time>
</trkpt>
<trkpt lat="34.9015656" lon="33.6379513">
<ele>10.02</ele>
<time>2015-05-01T15:52:53Z</time>
</trkpt>
<trkpt lat="34.9014957" lon="33.6379629">
<ele>10.02</ele>
<time>2015-05-01T15:52:55Z</time>
</trkpt>
<trkpt lat="34.9014233" lon="33.6379720">
<ele>10.02</ele>
<time>2015-05-01T15:52:57Z</time>
</trkpt>
<trkpt lat="34.9013521" lon="33.6379805">
<ele>10.02</ele>
<time>2015-05-01T15:52:59Z</time>
</trkpt>
<trkpt lat="34.9012821" lon="33.6379871">
<ele>10.77</ele>
<time>2015-05-01T15:53:01Z</time>
</trkpt>
<trkpt lat="34.9012169" lon="33.6379903">
<ele>10.95</ele>
<time>2015-05-01T15:53:03Z</time>
</trkpt>
<trkpt lat="34.9011534" lon="33.6379928">
<ele>11.00</ele>
<time>2015-05-01T15:53:05Z</time>
</trkpt>
<trkpt lat="34.9011011" lon="33.6380019">
<ele>11.01</ele>
<time>2015-05-01T15:53:07Z</time>
</trkpt>
<trkpt lat="34.9010488" lon="33.6380173">
<ele>10.27</ele>
<time>2015-05-01T15:53:10Z</time>
</trkpt>
<trkpt lat="34.9010940" lon="33.6380166">
<ele>10.72</ele>
<time>2015-05-01T15:53:30Z</time>
</trkpt>
<trkpt lat="34.9010434" lon="33.6380277">
<ele>9.92</ele>
<time>2015-05-01T15:54:43Z</time>
</trkpt>
<trkpt lat="34.9009962" lon="33.6380289">
<ele>9.24</ele>
<time>2015-05-01T15:54:45Z</time>
</trkpt>
<trkpt lat="34.9009356" lon="33.6380357">
<ele>8.32</ele>
<time>2015-05-01T15:54:47Z</time>
</trkpt>
<trkpt lat="34.9008638" lon="33.6380518">
<ele>9.09</ele>
<time>2015-05-01T15:54:49Z</time>
</trkpt>
<trkpt lat="34.9007918" lon="33.6380563">
<ele>9.04</ele>
<time>2015-05-01T15:54:51Z</time>
</trkpt>
<trkpt lat="34.9007202" lon="33.6380610">
<ele>9.52</ele>
<time>2015-05-01T15:54:53Z</time>
</trkpt>
<trkpt lat="34.9006536" lon="33.6380668">
<ele>10.14</ele>
<time>2015-05-01T15:54:55Z</time>
</trkpt>
<trkpt lat="34.9005927" lon="33.6380707">
<ele>11.30</ele>
<time>2015-05-01T15:54:57Z</time>
</trkpt>
<trkpt lat="34.9005336" lon="33.6380752">
<ele>11.84</ele>
<time>2015-05-01T15:54:59Z</time>
</trkpt>
<trkpt lat="34.9004664" lon="33.6380829">
<ele>12.47</ele>
<time>2015-05-01T15:55:01Z</time>
</trkpt>
<trkpt lat="34.9003951" lon="33.6380898">
<ele>12.63</ele>
<time>2015-05-01T15:55:03Z</time>
</trkpt>
<trkpt lat="34.9003241" lon="33.6380912">
<ele>13.17</ele>
<time>2015-05-01T15:55:05Z</time>
</trkpt>
<trkpt lat="34.9002575" lon="33.6380861">
<ele>13.05</ele>
<time>2015-05-01T15:55:07Z</time>
</trkpt>
<trkpt lat="34.9001923" lon="33.6380907">
<ele>12.53</ele>
<time>2015-05-01T15:55:09Z</time>
</trkpt>
<trkpt lat="34.9001353" lon="33.6381020">
<ele>11.64</ele>
<time>2015-05-01T15:55:11Z</time>
</trkpt>
<trkpt lat="34.9000815" lon="33.6381071">
<ele>11.92</ele>
<time>2015-05-01T15:55:13Z</time>
</trkpt>
<trkpt lat="34.9000298" lon="33.6381111">
<ele>11.99</ele>
<time>2015-05-01T15:55:15Z</time>
</trkpt>
<trkpt lat="34.8999776" lon="33.6381257">
<ele>11.76</ele>
<time>2015-05-01T15:55:17Z</time>
</trkpt>
<trkpt lat="34.8999278" lon="33.6381416">
<ele>11.95</ele>
<time>2015-05-01T15:55:19Z</time>
</trkpt>
<trkpt lat="34.8998791" lon="33.6381573">
<ele>11.25</ele>
<time>2015-05-01T15:55:21Z</time>
</trkpt>
<trkpt lat="34.8998639" lon="33.6382252">
<ele>9.08</ele>
<time>2015-05-01T15:55:40Z</time>
</trkpt>
<trkpt lat="34.8998636" lon="33.6382822">
<ele>9.03</ele>
<time>2015-05-01T15:55:42Z</time>
</trkpt>
<trkpt lat="34.8998504" lon="33.6383438">
<ele>9.52</ele>
<time>2015-05-01T15:55:44Z</time>
</trkpt>
<trkpt lat="34.8998244" lon="33.6383965">
<ele>10.39</ele>
<time>2015-05-01T15:55:46Z</time>
</trkpt>
<trkpt lat="34.8997894" lon="33.6384325">
<ele>9.61</ele>
<time>2015-05-01T15:55:48Z</time>
</trkpt>
<trkpt lat="34.8997376" lon="33.6384664">
<ele>10.34</ele>
<time>2015-05-01T15:55:51Z</time>
</trkpt>
<trkpt lat="34.8996967" lon="33.6385055">
<ele>10.29</ele>
<time>2015-05-01T15:55:55Z</time>
</trkpt>
<trkpt lat="34.8996677" lon="33.6385519">
<ele>8.89</ele>
<time>2015-05-01T15:56:09Z</time>
</trkpt>
<trkpt lat="34.8996986" lon="33.6386222">
<ele>8.98</ele>
<time>2015-05-01T15:56:11Z</time>
</trkpt>
<trkpt lat="34.8997557" lon="33.6386858">
<ele>8.26</ele>
<time>2015-05-01T15:56:13Z</time>
</trkpt>
<trkpt lat="34.8998093" lon="33.6387415">
<ele>8.08</ele>
<time>2015-05-01T15:56:15Z</time>
</trkpt>
<trkpt lat="34.8998532" lon="33.6387996">
<ele>8.03</ele>
<time>2015-05-01T15:56:17Z</time>
</trkpt>
<trkpt lat="34.8998985" lon="33.6388624">
<ele>8.02</ele>
<time>2015-05-01T15:56:19Z</time>
</trkpt>
<trkpt lat="34.8999482" lon="33.6389271">
<ele>7.27</ele>
<time>2015-05-01T15:56:21Z</time>
</trkpt>
<trkpt lat="34.8999949" lon="33.6389906">
<ele>5.83</ele>
<time>2015-05-01T15:56:23Z</time>
</trkpt>
<trkpt lat="34.9000394" lon="33.6390517">
<ele>5.97</ele>
<time>2015-05-01T15:56:25Z</time>
</trkpt>
<trkpt lat="34.8999933" lon="33.6390388">
<ele>5.05</ele>
<time>2015-05-01T15:58:09Z</time>
</trkpt>
<trkpt lat="34.8999705" lon="33.6389812">
<ele>4.64</ele>
<time>2015-05-01T15:58:12Z</time>
</trkpt>
<trkpt lat="34.8999347" lon="33.6389342">
<ele>5.17</ele>
<time>2015-05-01T15:58:14Z</time>
</trkpt>
<trkpt lat="34.8998943" lon="33.6388853">
<ele>5.31</ele>
<time>2015-05-01T15:58:16Z</time>
</trkpt>
<trkpt lat="34.8998568" lon="33.6388348">
<ele>6.34</ele>
<time>2015-05-01T15:58:18Z</time>
</trkpt>
<trkpt lat="34.8998223" lon="33.6387864">
<ele>7.35</ele>
<time>2015-05-01T15:58:20Z</time>
</trkpt>
<trkpt lat="34.8997898" lon="33.6387196">
<ele>6.81</ele>
<time>2015-05-01T15:58:23Z</time>
</trkpt>
<trkpt lat="34.8997575" lon="33.6386569">
<ele>6.11</ele>
<time>2015-05-01T15:58:26Z</time>
</trkpt>
<trkpt lat="34.8997377" lon="33.6385911">
<ele>5.28</ele>
<time>2015-05-01T15:58:29Z</time>
</trkpt>
<trkpt lat="34.8997521" lon="33.6385257">
<ele>5.55</ele>
<time>2015-05-01T15:58:32Z</time>
</trkpt>
<trkpt lat="34.8997628" lon="33.6384619">
<ele>5.89</ele>
<time>2015-05-01T16:00:33Z</time>
</trkpt>
<trkpt lat="34.8997736" lon="33.6384066">
<ele>5.98</ele>
<time>2015-05-01T16:00:35Z</time>
</trkpt>
<trkpt lat="34.8997985" lon="33.6383356">
<ele>6.39</ele>
<time>2015-05-01T16:00:38Z</time>
</trkpt>
<trkpt lat="34.8998194" lon="33.6382616">
<ele>6.06</ele>
<time>2015-05-01T16:00:41Z</time>
</trkpt>
<trkpt lat="34.8998154" lon="33.6381982">
<ele>6.90</ele>
<time>2015-05-01T16:00:44Z</time>
</trkpt>
<trkpt lat="34.8997817" lon="33.6381386">
<ele>5.63</ele>
<time>2015-05-01T16:00:48Z</time>
</trkpt>
<trkpt lat="34.8997301" lon="33.6381379">
<ele>10.02</ele>
<time>2015-05-01T16:01:14Z</time>
</trkpt>
<trkpt lat="34.8996797" lon="33.6381346">
<ele>11.08</ele>
<time>2015-05-01T16:01:18Z</time>
</trkpt>
<trkpt lat="34.8996342" lon="33.6381434">
<ele>11.03</ele>
<time>2015-05-01T16:01:20Z</time>
</trkpt>
<trkpt lat="34.8995717" lon="33.6381452">
<ele>10.52</ele>
<time>2015-05-01T16:01:22Z</time>
</trkpt>
<trkpt lat="34.8995090" lon="33.6381490">
<ele>9.39</ele>
<time>2015-05-01T16:01:24Z</time>
</trkpt>
<trkpt lat="34.8994504" lon="33.6381548">
<ele>8.86</ele>
<time>2015-05-01T16:01:26Z</time>
</trkpt>
<trkpt lat="34.8993975" lon="33.6381611">
<ele>7.73</ele>
<time>2015-05-01T16:01:28Z</time>
</trkpt>
<trkpt lat="34.8993501" lon="33.6381725">
<ele>7.94</ele>
<time>2015-05-01T16:01:30Z</time>
</trkpt>
<trkpt lat="34.8993048" lon="33.6381816">
<ele>8.00</ele>
<time>2015-05-01T16:01:32Z</time>
</trkpt>
<trkpt lat="34.8992586" lon="33.6381851">
<ele>8.51</ele>
<time>2015-05-01T16:01:34Z</time>
</trkpt>
<trkpt lat="34.8991927" lon="33.6381865">
<ele>8.08</ele>
<time>2015-05-01T16:01:37Z</time>
</trkpt>
<trkpt lat="34.8991247" lon="33.6381690">
<ele>8.02</ele>
<time>2015-05-01T16:01:40Z</time>
</trkpt>
<trkpt lat="34.8990718" lon="33.6381597">
<ele>7.52</ele>
<time>2015-05-01T16:01:42Z</time>
</trkpt>
<trkpt lat="34.8990032" lon="33.6381617">
<ele>6.39</ele>
<time>2015-05-01T16:01:44Z</time>
</trkpt>
<trkpt lat="34.8989317" lon="33.6381858">
<ele>6.36</ele>
<time>2015-05-01T16:01:46Z</time>
</trkpt>
<trkpt lat="34.8988724" lon="33.6382279">
<ele>6.10</ele>
<time>2015-05-01T16:01:48Z</time>
</trkpt>
<trkpt lat="34.8988076" lon="33.6382508">
<ele>6.54</ele>
<time>2015-05-01T16:01:50Z</time>
</trkpt>
<trkpt lat="34.8987370" lon="33.6382643">
<ele>4.90</ele>
<time>2015-05-01T16:01:52Z</time>
</trkpt>
<trkpt lat="34.8986595" lon="33.6382777">
<ele>4.24</ele>
<time>2015-05-01T16:01:54Z</time>
</trkpt>
<trkpt lat="34.8985831" lon="33.6382863">
<ele>4.07</ele>
<time>2015-05-01T16:01:56Z</time>
</trkpt>
<trkpt lat="34.8985096" lon="33.6382921">
<ele>2.78</ele>
<time>2015-05-01T16:01:58Z</time>
</trkpt>
<trkpt lat="34.8984375" lon="33.6382820">
<ele>2.96</ele>
<time>2015-05-01T16:02:00Z</time>
</trkpt>
<trkpt lat="34.8983651" lon="33.6382786">
<ele>3.75</ele>
<time>2015-05-01T16:02:02Z</time>
</trkpt>
<trkpt lat="34.8982982" lon="33.6382870">
<ele>3.45</ele>
<time>2015-05-01T16:02:04Z</time>
</trkpt>
<trkpt lat="34.8982495" lon="33.6382932">
<ele>2.12</ele>
<time>2015-05-01T16:02:06Z</time>
</trkpt>
<trkpt lat="34.8982557" lon="33.6382375">
<ele>2.38</ele>
<time>2015-05-01T16:02:21Z</time>
</trkpt>
<trkpt lat="34.8982657" lon="33.6381723">
<ele>5.68</ele>
<time>2015-05-01T16:02:26Z</time>
</trkpt>
<trkpt lat="34.8983099" lon="33.6381542">
<ele>10.83</ele>
<time>2015-05-01T16:02:41Z</time>
</trkpt>
<trkpt lat="34.8983284" lon="33.6382048">
<ele>10.77</ele>
<time>2015-05-01T16:03:05Z</time>
</trkpt>
<trkpt lat="34.8983655" lon="33.6382359">
<ele>7.30</ele>
<time>2015-05-01T16:03:47Z</time>
</trkpt>
<trkpt lat="34.8983196" lon="33.6382185">
<ele>10.61</ele>
<time>2015-05-01T16:04:04Z</time>
</trkpt>
<trkpt lat="34.8982670" lon="33.6382212">
<ele>11.47</ele>
<time>2015-05-01T16:04:07Z</time>
</trkpt>
<trkpt lat="34.8982016" lon="33.6382266">
<ele>12.38</ele>
<time>2015-05-01T16:04:09Z</time>
</trkpt>
<trkpt lat="34.8981320" lon="33.6382306">
<ele>12.11</ele>
<time>2015-05-01T16:04:11Z</time>
</trkpt>
<trkpt lat="34.8980748" lon="33.6382312">
<ele>12.04</ele>
<time>2015-05-01T16:04:13Z</time>
</trkpt>
<trkpt lat="34.8980242" lon="33.6382605">
<ele>13.20</ele>
<time>2015-05-01T16:04:18Z</time>
</trkpt>
<trkpt lat="34.8979797" lon="33.6382782">
<ele>12.31</ele>
<time>2015-05-01T16:04:20Z</time>
</trkpt>
<trkpt lat="34.8979036" lon="33.6382867">
<ele>12.34</ele>
<time>2015-05-01T16:04:22Z</time>
</trkpt>
<trkpt lat="34.8978213" lon="33.6383111">
<ele>13.10</ele>
<time>2015-05-01T16:04:24Z</time>
</trkpt>
<trkpt lat="34.8977544" lon="33.6383249">
<ele>11.79</ele>
<time>2015-05-01T16:04:26Z</time>
</trkpt>
<trkpt lat="34.8977071" lon="33.6383129">
<ele>10.71</ele>
<time>2015-05-01T16:04:28Z</time>
</trkpt>
<trkpt lat="34.8976509" lon="33.6383140">
<ele>9.44</ele>
<time>2015-05-01T16:04:30Z</time>
</trkpt>
<trkpt lat="34.8975258" lon="33.6383493">
<ele>9.37</ele>
<time>2015-05-01T16:04:32Z</time>
</trkpt>
<trkpt lat="34.8974656" lon="33.6383453">
<ele>8.19</ele>
<time>2015-05-01T16:04:33Z</time>
</trkpt>
<trkpt lat="34.8973999" lon="33.6383379">
<ele>8.10</ele>
<time>2015-05-01T16:04:34Z</time>
</trkpt>
<trkpt lat="34.8972964" lon="33.6383439">
<ele>8.04</ele>
<time>2015-05-01T16:04:36Z</time>
</trkpt>
<trkpt lat="34.8972075" lon="33.6383567">
<ele>7.77</ele>
<time>2015-05-01T16:04:38Z</time>
</trkpt>
<trkpt lat="34.8971595" lon="33.6383648">
<ele>7.89</ele>
<time>2015-05-01T16:04:39Z</time>
</trkpt>
<trkpt lat="34.8970807" lon="33.6383672">
<ele>8.24</ele>
<time>2015-05-01T16:04:41Z</time>
</trkpt>
<trkpt lat="34.8970057" lon="33.6383755">
<ele>8.32</ele>
<time>2015-05-01T16:04:43Z</time>
</trkpt>
<trkpt lat="34.8969599" lon="33.6383729">
<ele>8.17</ele>
<time>2015-05-01T16:04:44Z</time>
</trkpt>
<trkpt lat="34.8968709" lon="33.6383747">
<ele>9.30</ele>
<time>2015-05-01T16:04:46Z</time>
</trkpt>
<trkpt lat="34.8967824" lon="33.6383852">
<ele>10.09</ele>
<time>2015-05-01T16:04:48Z</time>
</trkpt>
<trkpt lat="34.8967363" lon="33.6383928">
<ele>11.05</ele>
<time>2015-05-01T16:04:49Z</time>
</trkpt>
<trkpt lat="34.8966483" lon="33.6384106">
<ele>11.78</ele>
<time>2015-05-01T16:04:51Z</time>
</trkpt>
<trkpt lat="34.8965582" lon="33.6384150">
<ele>11.96</ele>
<time>2015-05-01T16:04:53Z</time>
</trkpt>
<trkpt lat="34.8965128" lon="33.6384192">
<ele>11.99</ele>
<time>2015-05-01T16:04:54Z</time>
</trkpt>
<trkpt lat="34.8964615" lon="33.6384357">
<ele>11.50</ele>
<time>2015-05-01T16:04:55Z</time>
</trkpt>
<trkpt lat="34.8964140" lon="33.6384405">
<ele>11.26</ele>
<time>2015-05-01T16:04:56Z</time>
</trkpt>
<trkpt lat="34.8963622" lon="33.6384316">
<ele>11.14</ele>
<time>2015-05-01T16:04:57Z</time>
</trkpt>
<trkpt lat="34.8962690" lon="33.6384408">
<ele>11.05</ele>
<time>2015-05-01T16:04:59Z</time>
</trkpt>
<trkpt lat="34.8961858" lon="33.6384664">
<ele>10.52</ele>
<time>2015-05-01T16:05:01Z</time>
</trkpt>
<trkpt lat="34.8961139" lon="33.6384891">
<ele>9.39</ele>
<time>2015-05-01T16:05:03Z</time>
</trkpt>
<trkpt lat="34.8960198" lon="33.6384973">
<ele>9.86</ele>
<time>2015-05-01T16:05:05Z</time>
</trkpt>
<trkpt lat="34.8959441" lon="33.6385137">
<ele>9.73</ele>
<time>2015-05-01T16:05:07Z</time>
</trkpt>
<trkpt lat="34.8958973" lon="33.6385254">
<ele>9.37</ele>
<time>2015-05-01T16:05:08Z</time>
</trkpt>
<trkpt lat="34.8958215" lon="33.6385580">
<ele>9.85</ele>
<time>2015-05-01T16:05:10Z</time>
</trkpt>
<trkpt lat="34.8957371" lon="33.6385772">
<ele>9.48</ele>
<time>2015-05-01T16:05:12Z</time>
</trkpt>
<trkpt lat="34.8956922" lon="33.6385698">
<ele>9.25</ele>
<time>2015-05-01T16:05:13Z</time>
</trkpt>
<trkpt lat="34.8956430" lon="33.6385504">
<ele>9.13</ele>
<time>2015-05-01T16:05:14Z</time>
</trkpt>
<trkpt lat="34.8955980" lon="33.6385349">
<ele>9.57</ele>
<time>2015-05-01T16:05:15Z</time>
</trkpt>
<trkpt lat="34.8955483" lon="33.6385338">
<ele>9.79</ele>
<time>2015-05-01T16:05:16Z</time>
</trkpt>
<trkpt lat="34.8954984" lon="33.6385336">
<ele>9.91</ele>
<time>2015-05-01T16:05:17Z</time>
</trkpt>
<trkpt lat="34.8954437" lon="33.6385428">
<ele>9.96</ele>
<time>2015-05-01T16:05:18Z</time>
</trkpt>
<trkpt lat="34.8953963" lon="33.6385561">
<ele>9.49</ele>
<time>2015-05-01T16:05:19Z</time>
</trkpt>
<trkpt lat="34.8953483" lon="33.6385661">
<ele>9.75</ele>
<time>2015-05-01T16:05:20Z</time>
</trkpt>
<trkpt lat="34.8952616" lon="33.6385766">
<ele>9.20</ele>
<time>2015-05-01T16:05:22Z</time>
</trkpt>
<trkpt lat="34.8951737" lon="33.6385802">
<ele>9.81</ele>
<time>2015-05-01T16:05:24Z</time>
</trkpt>
<trkpt lat="34.8951284" lon="33.6385866">
<ele>9.91</ele>
<time>2015-05-01T16:05:25Z</time>
</trkpt>
<trkpt lat="34.8950791" lon="33.6385940">
<ele>9.97</ele>
<time>2015-05-01T16:05:26Z</time>
</trkpt>
<trkpt lat="34.8949883" lon="33.6386004">
<ele>9.50</ele>
<time>2015-05-01T16:05:28Z</time>
</trkpt>
<trkpt lat="34.8949379" lon="33.6386064">
<ele>9.76</ele>
<time>2015-05-01T16:05:29Z</time>
</trkpt>
<trkpt lat="34.8948922" lon="33.6386080">
<ele>9.89</ele>
<time>2015-05-01T16:05:30Z</time>
</trkpt>
<trkpt lat="34.8948399" lon="33.6386164">
<ele>9.95</ele>
<time>2015-05-01T16:05:31Z</time>
</trkpt>
<trkpt lat="34.8947790" lon="33.6386216">
<ele>9.98</ele>
<time>2015-05-01T16:05:32Z</time>
</trkpt>
<trkpt lat="34.8947229" lon="33.6386241">
<ele>10.00</ele>
<time>2015-05-01T16:05:33Z</time>
</trkpt>
<trkpt lat="34.8946714" lon="33.6386294">
<ele>10.01</ele>
<time>2015-05-01T16:05:34Z</time>
</trkpt>
<trkpt lat="34.8946029" lon="33.6386410">
<ele>10.51</ele>
<time>2015-05-01T16:05:36Z</time>
</trkpt>
<trkpt lat="34.8945438" lon="33.6386552">
<ele>9.45</ele>
<time>2015-05-01T16:05:39Z</time>
</trkpt>
<trkpt lat="34.8944602" lon="33.6386651">
<ele>9.88</ele>
<time>2015-05-01T16:05:41Z</time>
</trkpt>
<trkpt lat="34.8944118" lon="33.6386692">
<ele>9.95</ele>
<time>2015-05-01T16:05:42Z</time>
</trkpt>
<trkpt lat="34.8943233" lon="33.6386756">
<ele>9.25</ele>
<time>2015-05-01T16:05:44Z</time>
</trkpt>
<trkpt lat="34.8942664" lon="33.6386812">
<ele>9.13</ele>
<time>2015-05-01T16:05:45Z</time>
</trkpt>
<trkpt lat="34.8942179" lon="33.6386922">
<ele>9.07</ele>
<time>2015-05-01T16:05:46Z</time>
</trkpt>
<trkpt lat="34.8941685" lon="33.6386957">
<ele>9.05</ele>
<time>2015-05-01T16:05:47Z</time>
</trkpt>
<trkpt lat="34.8941215" lon="33.6387016">
<ele>9.53</ele>
<time>2015-05-01T16:05:48Z</time>
</trkpt>
<trkpt lat="34.8940689" lon="33.6387080">
<ele>9.77</ele>
<time>2015-05-01T16:05:49Z</time>
</trkpt>
<trkpt lat="34.8940193" lon="33.6387069">
<ele>9.89</ele>
<time>2015-05-01T16:05:50Z</time>
</trkpt>
<trkpt lat="34.8939647" lon="33.6387152">
<ele>9.96</ele>
<time>2015-05-01T16:05:51Z</time>
</trkpt>
<trkpt lat="34.8939194" lon="33.6387175">
<ele>9.99</ele>
<time>2015-05-01T16:05:52Z</time>
</trkpt>
<trkpt lat="34.8938703" lon="33.6387076">
<ele>10.00</ele>
<time>2015-05-01T16:05:53Z</time>
</trkpt>
<trkpt lat="34.8938198" lon="33.6387078">
<ele>10.01</ele>
<time>2015-05-01T16:05:54Z</time>
</trkpt>
<trkpt lat="34.8937628" lon="33.6387113">
<ele>10.01</ele>
<time>2015-05-01T16:05:55Z</time>
</trkpt>
<trkpt lat="34.8936854" lon="33.6387185">
<ele>9.27</ele>
<time>2015-05-01T16:05:57Z</time>
</trkpt>
<trkpt lat="34.8936162" lon="33.6387245">
<ele>9.08</ele>
<time>2015-05-01T16:05:59Z</time>
</trkpt>
<trkpt lat="34.8935365" lon="33.6387282">
<ele>9.03</ele>
<time>2015-05-01T16:06:01Z</time>
</trkpt>
<trkpt lat="34.8934866" lon="33.6387270">
<ele>9.52</ele>
<time>2015-05-01T16:06:02Z</time>
</trkpt>
<trkpt lat="34.8933984" lon="33.6387089">
<ele>9.89</ele>
<time>2015-05-01T16:06:04Z</time>
</trkpt>
<trkpt lat="34.8933543" lon="33.6386905">
<ele>10.45</ele>
<time>2015-05-01T16:06:05Z</time>
</trkpt>
<trkpt lat="34.8932956" lon="33.6386761">
<ele>10.88</ele>
<time>2015-05-01T16:06:07Z</time>
</trkpt>
<trkpt lat="34.8932412" lon="33.6386686">
<ele>10.23</ele>
<time>2015-05-01T16:06:09Z</time>
</trkpt>
<trkpt lat="34.8931619" lon="33.6386595">
<ele>9.82</ele>
<time>2015-05-01T16:06:11Z</time>
</trkpt>
<trkpt lat="34.8931074" lon="33.6386612">
<ele>9.42</ele>
<time>2015-05-01T16:06:12Z</time>
</trkpt>
<trkpt lat="34.8930621" lon="33.6386553">
<ele>10.22</ele>
<time>2015-05-01T16:06:13Z</time>
</trkpt>
<trkpt lat="34.8930163" lon="33.6386413">
<ele>10.12</ele>
<time>2015-05-01T16:06:14Z</time>
</trkpt>
<trkpt lat="34.8929286" lon="33.6386067">
<ele>9.54</ele>
<time>2015-05-01T16:06:16Z</time>
</trkpt>
<trkpt lat="34.8928333" lon="33.6385920">
<ele>8.15</ele>
<time>2015-05-01T16:06:18Z</time>
</trkpt>
<trkpt lat="34.8927855" lon="33.6385842">
<ele>7.58</ele>
<time>2015-05-01T16:06:19Z</time>
</trkpt>
<trkpt lat="34.8927058" lon="33.6385588">
<ele>7.16</ele>
<time>2015-05-01T16:06:21Z</time>
</trkpt>
<trkpt lat="34.8926276" lon="33.6385384">
<ele>8.80</ele>
<time>2015-05-01T16:06:23Z</time>
</trkpt>
<trkpt lat="34.8925457" lon="33.6385031">
<ele>10.46</ele>
<time>2015-05-01T16:06:25Z</time>
</trkpt>
<trkpt lat="34.8925058" lon="33.6384744">
<ele>10.74</ele>
<time>2015-05-01T16:06:26Z</time>
</trkpt>
<trkpt lat="34.8924330" lon="33.6384311">
<ele>10.45</ele>
<time>2015-05-01T16:06:28Z</time>
</trkpt>
<trkpt lat="34.8923592" lon="33.6383776">
<ele>10.12</ele>
<time>2015-05-01T16:06:30Z</time>
</trkpt>
<trkpt lat="34.8922894" lon="33.6383139">
<ele>10.04</ele>
<time>2015-05-01T16:06:32Z</time>
</trkpt>
<trkpt lat="34.8922140" lon="33.6382404">
<ele>10.02</ele>
<time>2015-05-01T16:06:34Z</time>
</trkpt>
<trkpt lat="34.8921507" lon="33.6381738">
<ele>10.02</ele>
<time>2015-05-01T16:06:36Z</time>
</trkpt>
<trkpt lat="34.8920904" lon="33.6381028">
<ele>9.52</ele>
<time>2015-05-01T16:06:38Z</time>
</trkpt>
<trkpt lat="34.8920599" lon="33.6380568">
<ele>9.27</ele>
<time>2015-05-01T16:06:39Z</time>
</trkpt>
<trkpt lat="34.8920358" lon="33.6380036">
<ele>9.14</ele>
<time>2015-05-01T16:06:40Z</time>
</trkpt>
<trkpt lat="34.8919865" lon="33.6379209">
<ele>9.55</ele>
<time>2015-05-01T16:06:42Z</time>
</trkpt>
<trkpt lat="34.8919438" lon="33.6378298">
<ele>10.65</ele>
<time>2015-05-01T16:06:44Z</time>
</trkpt>
<trkpt lat="34.8919127" lon="33.6377376">
<ele>10.42</ele>
<time>2015-05-01T16:06:46Z</time>
</trkpt>
<trkpt lat="34.8918798" lon="33.6376584">
<ele>10.87</ele>
<time>2015-05-01T16:06:48Z</time>
</trkpt>
<trkpt lat="34.8918542" lon="33.6376079">
<ele>10.44</ele>
<time>2015-05-01T16:06:49Z</time>
</trkpt>
<trkpt lat="34.8918116" lon="33.6375254">
<ele>10.12</ele>
<time>2015-05-01T16:06:51Z</time>
</trkpt>
<trkpt lat="34.8917700" lon="33.6374499">
<ele>10.79</ele>
<time>2015-05-01T16:06:53Z</time>
</trkpt>
<trkpt lat="34.8917321" lon="33.6373774">
<ele>10.96</ele>
<time>2015-05-01T16:06:55Z</time>
</trkpt>
<trkpt lat="34.8916942" lon="33.6373082">
<ele>10.50</ele>
<time>2015-05-01T16:06:57Z</time>
</trkpt>
<trkpt lat="34.8916489" lon="33.6372631">
<ele>9.39</ele>
<time>2015-05-01T16:06:59Z</time>
</trkpt>
<trkpt lat="34.8916042" lon="33.6372443">
<ele>8.36</ele>
<time>2015-05-01T16:07:01Z</time>
</trkpt>
<trkpt lat="34.8915472" lon="33.6372198">
<ele>9.06</ele>
<time>2015-05-01T16:07:04Z</time>
</trkpt>
<trkpt lat="34.8914924" lon="33.6371823">
<ele>10.27</ele>
<time>2015-05-01T16:07:07Z</time>
</trkpt>
<trkpt lat="34.8914313" lon="33.6371790">
<ele>7.92</ele>
<time>2015-05-01T16:07:10Z</time>
</trkpt>
<trkpt lat="34.8913703" lon="33.6371954">
<ele>6.25</ele>
<time>2015-05-01T16:07:13Z</time>
</trkpt>
<trkpt lat="34.8913112" lon="33.6372004">
<ele>6.80</ele>
<time>2015-05-01T16:07:16Z</time>
</trkpt>
<trkpt lat="34.8912441" lon="33.6371882">
<ele>6.99</ele>
<time>2015-05-01T16:07:19Z</time>
</trkpt>
<trkpt lat="34.8911868" lon="33.6371763">
<ele>7.76</ele>
<time>2015-05-01T16:07:21Z</time>
</trkpt>
<trkpt lat="34.8911202" lon="33.6371763">
<ele>7.45</ele>
<time>2015-05-01T16:07:23Z</time>
</trkpt>
<trkpt lat="34.8910567" lon="33.6371694">
<ele>6.62</ele>
<time>2015-05-01T16:07:25Z</time>
</trkpt>
<trkpt lat="34.8910017" lon="33.6371461">
<ele>6.92</ele>
<time>2015-05-01T16:07:27Z</time>
</trkpt>
<trkpt lat="34.8909485" lon="33.6371209">
<ele>6.99</ele>
<time>2015-05-01T16:07:29Z</time>
</trkpt>
<trkpt lat="34.8908974" lon="33.6371028">
<ele>6.01</ele>
<time>2015-05-01T16:07:31Z</time>
</trkpt>
<trkpt lat="34.8908513" lon="33.6370755">
<ele>6.01</ele>
<time>2015-05-01T16:07:33Z</time>
</trkpt>
<trkpt lat="34.8908142" lon="33.6370387">
<ele>5.02</ele>
<time>2015-05-01T16:07:35Z</time>
</trkpt>
<trkpt lat="34.8907698" lon="33.6370283">
<ele>11.00</ele>
<time>2015-05-01T16:08:22Z</time>
</trkpt>
<trkpt lat="34.8907232" lon="33.6370098">
<ele>10.33</ele>
<time>2015-05-01T16:09:02Z</time>
</trkpt>
<trkpt lat="34.8906760" lon="33.6369984">
<ele>9.09</ele>
<time>2015-05-01T16:09:04Z</time>
</trkpt>
<trkpt lat="34.8906159" lon="33.6369782">
<ele>8.54</ele>
<time>2015-05-01T16:09:06Z</time>
</trkpt>
<trkpt lat="34.8905612" lon="33.6369564">
<ele>7.65</ele>
<time>2015-05-01T16:09:08Z</time>
</trkpt>
<trkpt lat="34.8905083" lon="33.6369336">
<ele>6.67</ele>
<time>2015-05-01T16:09:10Z</time>
</trkpt>
<trkpt lat="34.8904580" lon="33.6369156">
<ele>6.68</ele>
<time>2015-05-01T16:09:12Z</time>
</trkpt>
<trkpt lat="34.8904062" lon="33.6369006">
<ele>6.93</ele>
<time>2015-05-01T16:09:14Z</time>
</trkpt>
<trkpt lat="34.8903546" lon="33.6368805">
<ele>5.75</ele>
<time>2015-05-01T16:09:16Z</time>
</trkpt>
<trkpt lat="34.8903064" lon="33.6368644">
<ele>5.20</ele>
<time>2015-05-01T16:09:18Z</time>
</trkpt>
<trkpt lat="34.8902546" lon="33.6368458">
<ele>5.41</ele>
<time>2015-05-01T16:09:21Z</time>
</trkpt>
<trkpt lat="34.8902037" lon="33.6368560">
<ele>5.37</ele>
<time>2015-05-01T16:09:26Z</time>
</trkpt>
<trkpt lat="34.8901578" lon="33.6368628">
<ele>3.44</ele>
<time>2015-05-01T16:09:29Z</time>
</trkpt>
<trkpt lat="34.8900880" lon="33.6368611">
<ele>6.19</ele>
<time>2015-05-01T16:09:32Z</time>
</trkpt>
<trkpt lat="34.8900188" lon="33.6368277">
<ele>5.56</ele>
<time>2015-05-01T16:09:34Z</time>
</trkpt>
<trkpt lat="34.8899550" lon="33.6367786">
<ele>5.15</ele>
<time>2015-05-01T16:09:36Z</time>
</trkpt>
<trkpt lat="34.8899027" lon="33.6367312">
<ele>6.05</ele>
<time>2015-05-01T16:09:38Z</time>
</trkpt>
<trkpt lat="34.8898466" lon="33.6367135">
<ele>6.02</ele>
<time>2015-05-01T16:09:40Z</time>
</trkpt>
<trkpt lat="34.8897936" lon="33.6367233">
<ele>6.77</ele>
<time>2015-05-01T16:09:42Z</time>
</trkpt>
<trkpt lat="34.8897456" lon="33.6367277">
<ele>8.20</ele>
<time>2015-05-01T16:09:44Z</time>
</trkpt>
<trkpt lat="34.8896863" lon="33.6367136">
<ele>9.81</ele>
<time>2015-05-01T16:09:46Z</time>
</trkpt>
<trkpt lat="34.8896152" lon="33.6366914">
<ele>11.47</ele>
<time>2015-05-01T16:09:48Z</time>
</trkpt>
<trkpt lat="34.8895391" lon="33.6366797">
<ele>11.88</ele>
<time>2015-05-01T16:09:50Z</time>
</trkpt>
<trkpt lat="34.8894682" lon="33.6366651">
<ele>11.98</ele>
<time>2015-05-01T16:09:52Z</time>
</trkpt>
<trkpt lat="34.8894041" lon="33.6366523">
<ele>12.76</ele>
<time>2015-05-01T16:09:54Z</time>
</trkpt>
<trkpt lat="34.8893483" lon="33.6366606">
<ele>12.95</ele>
<time>2015-05-01T16:09:56Z</time>
</trkpt>
<trkpt lat="34.8894134" lon="33.6366695">
<ele>8.74</ele>
<time>2015-05-01T16:10:44Z</time>
</trkpt>
<trkpt lat="34.8894630" lon="33.6366729">
<ele>10.20</ele>
<time>2015-05-01T16:10:46Z</time>
</trkpt>
<trkpt lat="34.8895114" lon="33.6366732">
<ele>10.81</ele>
<time>2015-05-01T16:10:48Z</time>
</trkpt>
<trkpt lat="34.8895598" lon="33.6366609">
<ele>10.46</ele>
<time>2015-05-01T16:10:50Z</time>
</trkpt>
<trkpt lat="34.8896069" lon="33.6366655">
<ele>10.13</ele>
<time>2015-05-01T16:10:52Z</time>
</trkpt>
<trkpt lat="34.8896678" lon="33.6366886">
<ele>8.28</ele>
<time>2015-05-01T16:10:55Z</time>
</trkpt>
<trkpt lat="34.8897269" lon="33.6367135">
<ele>8.92</ele>
<time>2015-05-01T16:10:58Z</time>
</trkpt>
<trkpt lat="34.8897815" lon="33.6367197">
<ele>9.88</ele>
<time>2015-05-01T16:11:01Z</time>
</trkpt>
<trkpt lat="34.8897937" lon="33.6366652">
<ele>9.77</ele>
<time>2015-05-01T16:11:22Z</time>
</trkpt>
<trkpt lat="34.8898402" lon="33.6366492">
<ele>9.36</ele>
<time>2015-05-01T16:11:25Z</time>
</trkpt>
<trkpt lat="34.8898988" lon="33.6366336">
<ele>10.81</ele>
<time>2015-05-01T16:11:28Z</time>
</trkpt>
<trkpt lat="34.8899634" lon="33.6366620">
<ele>10.49</ele>
<time>2015-05-01T16:11:31Z</time>
</trkpt>
<trkpt lat="34.8900137" lon="33.6366739">
<ele>10.13</ele>
<time>2015-05-01T16:11:33Z</time>
</trkpt>
<trkpt lat="34.8900764" lon="33.6366957">
<ele>8.41</ele>
<time>2015-05-01T16:11:36Z</time>
</trkpt>
<trkpt lat="34.8901148" lon="33.6367293">
<ele>8.06</ele>
<time>2015-05-01T16:11:39Z</time>
</trkpt>
<trkpt lat="34.8901690" lon="33.6367524">
<ele>8.52</ele>
<time>2015-05-01T16:11:42Z</time>
</trkpt>
<trkpt lat="34.8902400" lon="33.6367752">
<ele>9.14</ele>
<time>2015-05-01T16:11:44Z</time>
</trkpt>
<trkpt lat="34.8902836" lon="33.6367890">
<ele>9.08</ele>
<time>2015-05-01T16:11:45Z</time>
</trkpt>
<trkpt lat="34.8903698" lon="33.6368189">
<ele>9.28</ele>
<time>2015-05-01T16:11:47Z</time>
</trkpt>
<trkpt lat="34.8904536" lon="33.6368478">
<ele>9.58</ele>
<time>2015-05-01T16:11:49Z</time>
</trkpt>
<trkpt lat="34.8905334" lon="33.6368752">
<ele>9.91</ele>
<time>2015-05-01T16:11:51Z</time>
</trkpt>
<trkpt lat="34.8906094" lon="33.6369064">
<ele>9.24</ele>
<time>2015-05-01T16:11:53Z</time>
</trkpt>
<trkpt lat="34.8906827" lon="33.6369303">
<ele>9.57</ele>
<time>2015-05-01T16:11:55Z</time>
</trkpt>
<trkpt lat="34.8907542" lon="33.6369520">
<ele>9.65</ele>
<time>2015-05-01T16:11:57Z</time>
</trkpt>
<trkpt lat="34.8908199" lon="33.6369743">
<ele>9.93</ele>
<time>2015-05-01T16:11:59Z</time>
</trkpt>
<trkpt lat="34.8908889" lon="33.6370014">
<ele>8.99</ele>
<time>2015-05-01T16:12:01Z</time>
</trkpt>
<trkpt lat="34.8909586" lon="33.6370260">
<ele>8.26</ele>
<time>2015-05-01T16:12:03Z</time>
</trkpt>
<trkpt lat="34.8910347" lon="33.6370508">
<ele>7.83</ele>
<time>2015-05-01T16:12:05Z</time>
</trkpt>
<trkpt lat="34.8911063" lon="33.6370739">
<ele>7.72</ele>
<time>2015-05-01T16:12:07Z</time>
</trkpt>
<trkpt lat="34.8911801" lon="33.6370884">
<ele>7.19</ele>
<time>2015-05-01T16:12:09Z</time>
</trkpt>
<trkpt lat="34.8912535" lon="33.6370928">
<ele>7.06</ele>
<time>2015-05-01T16:12:11Z</time>
</trkpt>
<trkpt lat="34.8913248" lon="33.6370847">
<ele>7.53</ele>
<time>2015-05-01T16:12:13Z</time>
</trkpt>
<trkpt lat="34.8913790" lon="33.6370557">
<ele>7.89</ele>
<time>2015-05-01T16:12:15Z</time>
</trkpt>
<trkpt lat="34.8914224" lon="33.6370303">
<ele>7.99</ele>
<time>2015-05-01T16:12:17Z</time>
</trkpt>
<trkpt lat="34.8914665" lon="33.6370015">
<ele>8.01</ele>
<time>2015-05-01T16:12:19Z</time>
</trkpt>
<trkpt lat="34.8915048" lon="33.6369509">
<ele>7.51</ele>
<time>2015-05-01T16:12:21Z</time>
</trkpt>
<trkpt lat="34.8915277" lon="33.6368823">
<ele>7.89</ele>
<time>2015-05-01T16:12:23Z</time>
</trkpt>
<trkpt lat="34.8915420" lon="33.6368060">
<ele>8.48</ele>
<time>2015-05-01T16:12:25Z</time>
</trkpt>
<trkpt lat="34.8915425" lon="33.6367293">
<ele>8.88</ele>
<time>2015-05-01T16:12:27Z</time>
</trkpt>
<trkpt lat="34.8915234" lon="33.6366556">
<ele>8.98</ele>
<time>2015-05-01T16:12:29Z</time>
</trkpt>
<trkpt lat="34.8915052" lon="33.6365866">
<ele>9.76</ele>
<time>2015-05-01T16:12:31Z</time>
</trkpt>
<trkpt lat="34.8914893" lon="33.6365181">
<ele>9.95</ele>
<time>2015-05-01T16:12:33Z</time>
</trkpt>
<trkpt lat="34.8914662" lon="33.6364602">
<ele>9.75</ele>
<time>2015-05-01T16:12:35Z</time>
</trkpt>
<trkpt lat="34.8914410" lon="33.6364024">
<ele>9.98</ele>
<time>2015-05-01T16:12:38Z</time>
</trkpt>
<trkpt lat="34.8914026" lon="33.6363571">
<ele>6.91</ele>
<time>2015-05-01T16:12:46Z</time>
</trkpt>
<trkpt lat="34.8913785" lon="33.6362909">
<ele>6.25</ele>
<time>2015-05-01T16:12:49Z</time>
</trkpt>
<trkpt lat="34.8913547" lon="33.6362357">
<ele>6.58</ele>
<time>2015-05-01T16:12:51Z</time>
</trkpt>
<trkpt lat="34.8913336" lon="33.6361753">
<ele>6.91</ele>
<time>2015-05-01T16:12:53Z</time>
</trkpt>
<trkpt lat="34.8913178" lon="33.6361128">
<ele>7.74</ele>
<time>2015-05-01T16:12:55Z</time>
</trkpt>
<trkpt lat="34.8913001" lon="33.6360482">
<ele>8.45</ele>
<time>2015-05-01T16:12:57Z</time>
</trkpt>
<trkpt lat="34.8912840" lon="33.6359795">
<ele>8.62</ele>
<time>2015-05-01T16:12:59Z</time>
</trkpt>
<trkpt lat="34.8912701" lon="33.6359072">
<ele>9.42</ele>
<time>2015-05-01T16:13:01Z</time>
</trkpt>
<trkpt lat="34.8912539" lon="33.6358412">
<ele>9.87</ele>
<time>2015-05-01T16:13:03Z</time>
</trkpt>
<trkpt lat="34.8912384" lon="33.6357774">
<ele>9.98</ele>
<time>2015-05-01T16:13:05Z</time>
</trkpt>
<trkpt lat="34.8912226" lon="33.6357260">
<ele>10.76</ele>
<time>2015-05-01T16:13:07Z</time>
</trkpt>
<trkpt lat="34.8912027" lon="33.6356695">
<ele>10.37</ele>
<time>2015-05-01T16:13:11Z</time>
</trkpt>
<trkpt lat="34.8911778" lon="33.6356103">
<ele>10.79</ele>
<time>2015-05-01T16:13:15Z</time>
</trkpt>
<trkpt lat="34.8911529" lon="33.6355491">
<ele>10.99</ele>
<time>2015-05-01T16:13:18Z</time>
</trkpt>
<trkpt lat="34.8911247" lon="33.6354670">
<ele>11.76</ele>
<time>2015-05-01T16:13:21Z</time>
</trkpt>
<trkpt lat="34.8911057" lon="33.6353789">
<ele>11.95</ele>
<time>2015-05-01T16:13:23Z</time>
</trkpt>
<trkpt lat="34.8910830" lon="33.6352901">
<ele>12.00</ele>
<time>2015-05-01T16:13:25Z</time>
</trkpt>
<trkpt lat="34.8910620" lon="33.6352124">
<ele>12.76</ele>
<time>2015-05-01T16:13:27Z</time>
</trkpt>
<trkpt lat="34.8910445" lon="33.6351381">
<ele>12.95</ele>
<time>2015-05-01T16:13:29Z</time>
</trkpt>
<trkpt lat="34.8910266" lon="33.6350721">
<ele>13.00</ele>
<time>2015-05-01T16:13:31Z</time>
</trkpt>
<trkpt lat="34.8910034" lon="33.6349976">
<ele>12.26</ele>
<time>2015-05-01T16:13:33Z</time>
</trkpt>
<trkpt lat="34.8909764" lon="33.6349160">
<ele>12.08</ele>
<time>2015-05-01T16:13:35Z</time>
</trkpt>
<trkpt lat="34.8909551" lon="33.6348311">
<ele>12.28</ele>
<time>2015-05-01T16:13:37Z</time>
</trkpt>
<trkpt lat="34.8909365" lon="33.6347568">
<ele>12.33</ele>
<time>2015-05-01T16:13:39Z</time>
</trkpt>
<trkpt lat="34.8909161" lon="33.6347010">
<ele>12.85</ele>
<time>2015-05-01T16:13:41Z</time>
</trkpt>
<trkpt lat="34.8908912" lon="33.6346386">
<ele>12.99</ele>
<time>2015-05-01T16:13:44Z</time>
</trkpt>
<trkpt lat="34.8908764" lon="33.6345808">
<ele>12.26</ele>
<time>2015-05-01T16:13:46Z</time>
</trkpt>
<trkpt lat="34.8908593" lon="33.6345219">
<ele>12.33</ele>
<time>2015-05-01T16:13:48Z</time>
</trkpt>
<trkpt lat="34.8908505" lon="33.6344484">
<ele>12.68</ele>
<time>2015-05-01T16:13:51Z</time>
</trkpt>
<trkpt lat="34.8908684" lon="33.6345219">
<ele>11.96</ele>
<time>2015-05-01T16:14:01Z</time>
</trkpt>
<trkpt lat="34.8908901" lon="33.6345902">
<ele>12.00</ele>
<time>2015-05-01T16:14:03Z</time>
</trkpt>
<trkpt lat="34.8909138" lon="33.6346733">
<ele>11.51</ele>
<time>2015-05-01T16:14:05Z</time>
</trkpt>
<trkpt lat="34.8909391" lon="33.6347597">
<ele>11.89</ele>
<time>2015-05-01T16:14:07Z</time>
</trkpt>
<trkpt lat="34.8909689" lon="33.6348429">
<ele>11.98</ele>
<time>2015-05-01T16:14:09Z</time>
</trkpt>
<trkpt lat="34.8909963" lon="33.6349163">
<ele>11.51</ele>
<time>2015-05-01T16:14:11Z</time>
</trkpt>
<trkpt lat="34.8910218" lon="33.6349825">
<ele>11.14</ele>
<time>2015-05-01T16:14:13Z</time>
</trkpt>
<trkpt lat="34.8910422" lon="33.6350384">
<ele>11.80</ele>
<time>2015-05-01T16:14:15Z</time>
</trkpt>
<trkpt lat="34.8910702" lon="33.6350836">
<ele>10.27</ele>
<time>2015-05-01T16:14:37Z</time>
</trkpt>
<trkpt lat="34.8910772" lon="33.6351421">
<ele>9.02</ele>
<time>2015-05-01T16:15:27Z</time>
</trkpt>
<trkpt lat="34.8911170" lon="33.6350888">
<ele>8.52</ele>
<time>2015-05-01T16:15:40Z</time>
</trkpt>
<trkpt lat="34.8911507" lon="33.6350214">
<ele>8.45</ele>
<time>2015-05-01T16:15:43Z</time>
</trkpt>
<trkpt lat="34.8912035" lon="33.6349914">
<ele>8.13</ele>
<time>2015-05-01T16:15:45Z</time>
</trkpt>
<trkpt lat="34.8913305" lon="33.6349378">
<ele>8.79</ele>
<time>2015-05-01T16:15:47Z</time>
</trkpt>
<trkpt lat="34.8913860" lon="33.6349086">
<ele>9.40</ele>
<time>2015-05-01T16:15:48Z</time>
</trkpt>
<trkpt lat="34.8914321" lon="33.6348788">
<ele>9.71</ele>
<time>2015-05-01T16:15:49Z</time>
</trkpt>
<trkpt lat="34.8914804" lon="33.6348629">
<ele>10.36</ele>
<time>2015-05-01T16:15:50Z</time>
</trkpt>
<trkpt lat="34.8915240" lon="33.6348422">
<ele>10.69</ele>
<time>2015-05-01T16:15:51Z</time>
</trkpt>
<trkpt lat="34.8916049" lon="33.6348034">
<ele>11.68</ele>
<time>2015-05-01T16:15:53Z</time>
</trkpt>
<trkpt lat="34.8916760" lon="33.6347745">
<ele>11.93</ele>
<time>2015-05-01T16:15:55Z</time>
</trkpt>
<trkpt lat="34.8917319" lon="33.6347470">
<ele>12.75</ele>
<time>2015-05-01T16:15:57Z</time>
</trkpt>
<trkpt lat="34.8917907" lon="33.6347246">
<ele>12.95</ele>
<time>2015-05-01T16:15:59Z</time>
</trkpt>
<trkpt lat="34.8918440" lon="33.6347031">
<ele>13.50</ele>
<time>2015-05-01T16:16:01Z</time>
</trkpt>
<trkpt lat="34.8918979" lon="33.6346852">
<ele>13.89</ele>
<time>2015-05-01T16:16:03Z</time>
</trkpt>
<trkpt lat="34.8919532" lon="33.6346686">
<ele>13.98</ele>
<time>2015-05-01T16:16:05Z</time>
</trkpt>
<trkpt lat="34.8920053" lon="33.6346499">
<ele>14.51</ele>
<time>2015-05-01T16:16:07Z</time>
</trkpt>
<trkpt lat="34.8920587" lon="33.6346265">
<ele>14.89</ele>
<time>2015-05-01T16:16:09Z</time>
</trkpt>
<trkpt lat="34.8921144" lon="33.6345989">
<ele>14.98</ele>
<time>2015-05-01T16:16:11Z</time>
</trkpt>
<trkpt lat="34.8921796" lon="33.6345718">
<ele>15.01</ele>
<time>2015-05-01T16:16:13Z</time>
</trkpt>
<trkpt lat="34.8922446" lon="33.6345470">
<ele>15.01</ele>
<time>2015-05-01T16:16:15Z</time>
</trkpt>
<trkpt lat="34.8923122" lon="33.6345199">
<ele>14.52</ele>
<time>2015-05-01T16:16:17Z</time>
</trkpt>
<trkpt lat="34.8923784" lon="33.6344946">
<ele>14.14</ele>
<time>2015-05-01T16:16:19Z</time>
</trkpt>
<trkpt lat="34.8924457" lon="33.6344673">
<ele>14.05</ele>
<time>2015-05-01T16:16:21Z</time>
</trkpt>
<trkpt lat="34.8925133" lon="33.6344449">
<ele>14.02</ele>
<time>2015-05-01T16:16:23Z</time>
</trkpt>
<trkpt lat="34.8925859" lon="33.6344220">
<ele>14.02</ele>
<time>2015-05-01T16:16:25Z</time>
</trkpt>
<trkpt lat="34.8926521" lon="33.6343975">
<ele>14.02</ele>
<time>2015-05-01T16:16:27Z</time>
</trkpt>
<trkpt lat="34.8927121" lon="33.6343712">
<ele>14.02</ele>
<time>2015-05-01T16:16:29Z</time>
</trkpt>
<trkpt lat="34.8927587" lon="33.6343501">
<ele>14.02</ele>
<time>2015-05-01T16:16:31Z</time>
</trkpt>
<trkpt lat="34.8928053" lon="33.6343308">
<ele>14.02</ele>
<time>2015-05-01T16:16:33Z</time>
</trkpt>
<trkpt lat="34.8928553" lon="33.6343085">
<ele>14.77</ele>
<time>2015-05-01T16:16:35Z</time>
</trkpt>
<trkpt lat="34.8929049" lon="33.6342863">
<ele>15.70</ele>
<time>2015-05-01T16:16:37Z</time>
</trkpt>
<trkpt lat="34.8929545" lon="33.6342634">
<ele>15.98</ele>
<time>2015-05-01T16:16:40Z</time>
</trkpt>
<trkpt lat="34.8929965" lon="33.6342273">
<ele>19.17</ele>
<time>2015-05-01T16:16:45Z</time>
</trkpt>
<trkpt lat="34.8930292" lon="33.6341746">
<ele>20.05</ele>
<time>2015-05-01T16:16:50Z</time>
</trkpt>
<trkpt lat="34.8930792" lon="33.6341486">
<ele>19.27</ele>
<time>2015-05-01T16:16:54Z</time>
</trkpt>
<trkpt lat="34.8931281" lon="33.6341244">
<ele>19.05</ele>
<time>2015-05-01T16:16:57Z</time>
</trkpt>
<trkpt lat="34.8931688" lon="33.6340892">
<ele>19.02</ele>
<time>2015-05-01T16:17:00Z</time>
</trkpt>
<trkpt lat="34.8932279" lon="33.6340864">
<ele>18.27</ele>
<time>2015-05-01T16:17:04Z</time>
</trkpt>
<trkpt lat="34.8932678" lon="33.6341279">
<ele>18.03</ele>
<time>2015-05-01T16:17:08Z</time>
</trkpt>
<trkpt lat="34.8932266" lon="33.6341645">
<ele>17.27</ele>
<time>2015-05-01T16:17:10Z</time>
</trkpt>
<trkpt lat="34.8931456" lon="33.6342039">
<ele>18.33</ele>
<time>2015-05-01T16:17:12Z</time>
</trkpt>
<trkpt lat="34.8930558" lon="33.6342466">
<ele>18.34</ele>
<time>2015-05-01T16:17:14Z</time>
</trkpt>
<trkpt lat="34.8929780" lon="33.6342942">
<ele>18.10</ele>
<time>2015-05-01T16:17:16Z</time>
</trkpt>
<trkpt lat="34.8929359" lon="33.6343592">
<ele>18.54</ele>
<time>2015-05-01T16:17:18Z</time>
</trkpt>
<trkpt lat="34.8929411" lon="33.6344295">
<ele>20.15</ele>
<time>2015-05-01T16:17:20Z</time>
</trkpt>
<trkpt lat="34.8929647" lon="33.6344957">
<ele>19.05</ele>
<time>2015-05-01T16:17:22Z</time>
</trkpt>
<trkpt lat="34.8929930" lon="33.6345588">
<ele>18.77</ele>
<time>2015-05-01T16:17:24Z</time>
</trkpt>
<trkpt lat="34.8930193" lon="33.6346232">
<ele>18.96</ele>
<time>2015-05-01T16:17:26Z</time>
</trkpt>
<trkpt lat="34.8930396" lon="33.6346898">
<ele>19.25</ele>
<time>2015-05-01T16:17:28Z</time>
</trkpt>
<trkpt lat="34.8930598" lon="33.6347571">
<ele>19.57</ele>
<time>2015-05-01T16:17:30Z</time>
</trkpt>
<trkpt lat="34.8930887" lon="33.6348222">
<ele>19.91</ele>
<time>2015-05-01T16:17:32Z</time>
</trkpt>
<trkpt lat="34.8931171" lon="33.6348884">
<ele>19.49</ele>
<time>2015-05-01T16:17:34Z</time>
</trkpt>
<trkpt lat="34.8931321" lon="33.6349535">
<ele>18.63</ele>
<time>2015-05-01T16:17:36Z</time>
</trkpt>
<trkpt lat="34.8931418" lon="33.6350166">
<ele>18.92</ele>
<time>2015-05-01T16:17:38Z</time>
</trkpt>
<trkpt lat="34.8931532" lon="33.6350787">
<ele>18.74</ele>
<time>2015-05-01T16:17:40Z</time>
</trkpt>
<trkpt lat="34.8931689" lon="33.6351342">
<ele>17.95</ele>
<time>2015-05-01T16:17:42Z</time>
</trkpt>
<trkpt lat="34.8931902" lon="33.6351988">
<ele>19.76</ele>
<time>2015-05-01T16:17:45Z</time>
</trkpt>
<trkpt lat="34.8931634" lon="33.6351251">
<ele>19.48</ele>
<time>2015-05-01T16:17:48Z</time>
</trkpt>
<trkpt lat="34.8931375" lon="33.6350620">
<ele>19.63</ele>
<time>2015-05-01T16:17:50Z</time>
</trkpt>
<trkpt lat="34.8930969" lon="33.6350194">
<ele>21.92</ele>
<time>2015-05-01T16:17:52Z</time>
</trkpt>
<trkpt lat="34.8930346" lon="33.6350013">
<ele>25.49</ele>
<time>2015-05-01T16:17:54Z</time>
</trkpt>
<trkpt lat="34.8929736" lon="33.6350113">
<ele>26.14</ele>
<time>2015-05-01T16:17:56Z</time>
</trkpt>
<trkpt lat="34.8929257" lon="33.6350316">
<ele>26.05</ele>
<time>2015-05-01T16:17:58Z</time>
</trkpt>
<trkpt lat="34.8928843" lon="33.6350602">
<ele>26.27</ele>
<time>2015-05-01T16:18:02Z</time>
</trkpt>
<trkpt lat="34.8928360" lon="33.6350769">
<ele>24.15</ele>
<time>2015-05-01T16:18:11Z</time>
</trkpt>
<trkpt lat="34.8928322" lon="33.6351351">
<ele>21.16</ele>
<time>2015-05-01T16:18:28Z</time>
</trkpt>
<trkpt lat="34.8928212" lon="33.6351885">
<ele>18.28</ele>
<time>2015-05-01T16:18:38Z</time>
</trkpt>
<trkpt lat="34.8928268" lon="33.6352469">
<ele>18.56</ele>
<time>2015-05-01T16:18:48Z</time>
</trkpt>
<trkpt lat="34.8928664" lon="33.6352754">
<ele>16.16</ele>
<time>2015-05-01T16:18:56Z</time>
</trkpt>
<trkpt lat="34.8928322" lon="33.6352359">
<ele>15.21</ele>
<time>2015-05-01T16:19:06Z</time>
</trkpt>
<trkpt lat="34.8928299" lon="33.6351732">
<ele>18.24</ele>
<time>2015-05-01T16:19:13Z</time>
</trkpt>
<trkpt lat="34.8928205" lon="33.6351194">
<ele>19.49</ele>
<time>2015-05-01T16:19:20Z</time>
</trkpt>
</trkseg>
</trk>
</gpx>
